<?xml version="1.0" encoding="UTF-8" ?>
<gpx xmlns="http://www.topografix.com/GPX/1/1" version="1.1" creator="OSMTracker for Android™ - http://osmtracker-android.googlecode.com/" xmlns:xsi="http://www.w3.org/2001/XMLSchema-instance" xsi:schemaLocation="http://www.topografix.com/GPX/1/1 http://www.topografix.com/GPX/1/1/gpx.xsd ">
	<wpt lat="53.25666042" lon="-8.92490652">
		<ele>60.0</ele>
		<time>2014-08-17T14:56:34Z</time>
		<name><![CDATA[Bus stop]]></name>
		<sat>0</sat>
	</wpt>
	<wpt lat="53.25722715" lon="-8.92352379">
		<ele>66.0</ele>
		<time>2014-08-17T15:04:44Z</time>
		<name><![CDATA[Picture]]></name>
		<link href="2014-08-17_16-04-44.jpg">
			<text>2014-08-17_16-04-44.jpg</text>
		</link>
		<sat>0</sat>
	</wpt>
	<wpt lat="53.25722664" lon="-8.92352712">
		<ele>66.0</ele>
		<time>2014-08-17T15:04:46Z</time>
		<name><![CDATA[Monument]]></name>
		<sat>0</sat>
	</wpt>
	<wpt lat="53.25754791" lon="-8.92251205">
		<ele>71.0</ele>
		<time>2014-08-17T15:08:03Z</time>
		<name><![CDATA[Picture]]></name>
		<link href="2014-08-17_16-08-03.jpg">
			<text>2014-08-17_16-08-03.jpg</text>
		</link>
		<sat>0</sat>
	</wpt>
	<wpt lat="53.25732229" lon="-8.92216015">
		<ele>68.0</ele>
		<time>2014-08-17T15:08:39Z</time>
		<name><![CDATA[Picture]]></name>
		<link href="2014-08-17_16-08-39.jpg">
			<text>2014-08-17_16-08-39.jpg</text>
		</link>
		<sat>0</sat>
	</wpt>
	<wpt lat="53.25732428" lon="-8.92215431">
		<ele>68.0</ele>
		<time>2014-08-17T15:08:49Z</time>
		<name><![CDATA[Picture]]></name>
		<link href="2014-08-17_16-08-49.jpg">
			<text>2014-08-17_16-08-49.jpg</text>
		</link>
		<sat>0</sat>
	</wpt>
	<wpt lat="53.2573003" lon="-8.92541275">
		<ele>70.0</ele>
		<time>2014-08-17T15:31:47Z</time>
		<name><![CDATA[Picture]]></name>
		<link href="2014-08-17_16-31-47.jpg">
			<text>2014-08-17_16-31-47.jpg</text>
		</link>
		<sat>0</sat>
	</wpt>
	<wpt lat="53.25771731" lon="-8.92438285">
		<ele>77.0</ele>
		<time>2014-08-17T15:32:11Z</time>
		<name><![CDATA[Picture]]></name>
		<link href="2014-08-17_16-32-11.jpg">
			<text>2014-08-17_16-32-11.jpg</text>
		</link>
		<sat>0</sat>
	</wpt>
	<wpt lat="53.26056471" lon="-8.93452173">
		<ele>62.0</ele>
		<time>2014-08-17T15:35:19Z</time>
		<name><![CDATA[Picture]]></name>
		<link href="2014-08-17_16-35-19.jpg">
			<text>2014-08-17_16-35-19.jpg</text>
		</link>
		<sat>0</sat>
	</wpt>
	<wpt lat="53.26245096" lon="-8.93308959">
		<ele>63.0</ele>
		<time>2014-08-17T15:54:00Z</time>
		<name><![CDATA[Picture]]></name>
		<link href="2014-08-17_16-54-00.jpg">
			<text>2014-08-17_16-54-00.jpg</text>
		</link>
		<sat>0</sat>
	</wpt>
	<wpt lat="53.26411712" lon="-8.93294561">
		<ele>64.0</ele>
		<time>2014-08-17T16:03:01Z</time>
		<name><![CDATA[Picture]]></name>
		<link href="2014-08-17_17-03-01.jpg">
			<text>2014-08-17_17-03-01.jpg</text>
		</link>
		<sat>0</sat>
	</wpt>
	<wpt lat="53.26387722" lon="-8.93237279">
		<ele>64.0</ele>
		<time>2014-08-17T16:14:03Z</time>
		<name><![CDATA[Picture]]></name>
		<link href="2014-08-17_17-14-03.jpg">
			<text>2014-08-17_17-14-03.jpg</text>
		</link>
		<sat>0</sat>
	</wpt>
	<wpt lat="53.2626126" lon="-8.93356109">
		<ele>65.0</ele>
		<time>2014-08-17T16:31:07Z</time>
		<name><![CDATA[Picture]]></name>
		<link href="2014-08-17_17-31-07.jpg">
			<text>2014-08-17_17-31-07.jpg</text>
		</link>
		<sat>0</sat>
	</wpt>
	<trk>
		<name><![CDATA[Tracked with OSMTracker for Android™]]></name>
		<trkseg>
			<trkpt lat="53.25743704" lon="-8.92985171">
				<ele>67.0</ele>
				<time>2014-08-17T14:32:50Z</time>
				<extensions>
					<speed>0.0</speed>
				</extensions>
			</trkpt>
			<trkpt lat="53.25743706" lon="-8.92985178">
				<ele>67.0</ele>
				<time>2014-08-17T14:32:51Z</time>
				<extensions>
					<speed>0.0</speed>
				</extensions>
			</trkpt>
			<trkpt lat="53.25743707" lon="-8.92985186">
				<ele>67.0</ele>
				<time>2014-08-17T14:32:52Z</time>
				<extensions>
					<speed>0.0</speed>
				</extensions>
			</trkpt>
			<trkpt lat="53.25743709" lon="-8.92985182">
				<ele>67.0</ele>
				<time>2014-08-17T14:32:53Z</time>
				<extensions>
					<speed>0.0</speed>
				</extensions>
			</trkpt>
			<trkpt lat="53.25743707" lon="-8.92985177">
				<ele>67.0</ele>
				<time>2014-08-17T14:32:54Z</time>
				<extensions>
					<speed>0.0</speed>
				</extensions>
			</trkpt>
			<trkpt lat="53.25743706" lon="-8.92985176">
				<ele>67.0</ele>
				<time>2014-08-17T14:32:55Z</time>
				<extensions>
					<speed>0.0</speed>
				</extensions>
			</trkpt>
			<trkpt lat="53.25743708" lon="-8.92985168">
				<ele>67.0</ele>
				<time>2014-08-17T14:32:56Z</time>
				<extensions>
					<speed>0.0</speed>
				</extensions>
			</trkpt>
			<trkpt lat="53.25743704" lon="-8.92985158">
				<ele>67.0</ele>
				<time>2014-08-17T14:32:57Z</time>
				<extensions>
					<speed>0.0</speed>
				</extensions>
			</trkpt>
			<trkpt lat="53.25743703" lon="-8.92985156">
				<ele>67.0</ele>
				<time>2014-08-17T14:32:58Z</time>
				<extensions>
					<speed>0.0</speed>
				</extensions>
			</trkpt>
			<trkpt lat="53.25743703" lon="-8.92985156">
				<ele>67.0</ele>
				<time>2014-08-17T14:32:59Z</time>
				<extensions>
					<speed>0.0</speed>
				</extensions>
			</trkpt>
			<trkpt lat="53.25743702" lon="-8.92985156">
				<ele>67.0</ele>
				<time>2014-08-17T14:33:00Z</time>
				<extensions>
					<speed>0.0</speed>
				</extensions>
			</trkpt>
			<trkpt lat="53.257437" lon="-8.92985155">
				<ele>67.0</ele>
				<time>2014-08-17T14:33:01Z</time>
				<extensions>
					<speed>0.0</speed>
				</extensions>
			</trkpt>
			<trkpt lat="53.25743698" lon="-8.92985153">
				<ele>67.0</ele>
				<time>2014-08-17T14:33:02Z</time>
				<extensions>
					<speed>0.0</speed>
				</extensions>
			</trkpt>
			<trkpt lat="53.25743698" lon="-8.92985151">
				<ele>67.0</ele>
				<time>2014-08-17T14:33:03Z</time>
				<extensions>
					<speed>0.0</speed>
				</extensions>
			</trkpt>
			<trkpt lat="53.25743698" lon="-8.92985151">
				<ele>67.0</ele>
				<time>2014-08-17T14:33:04Z</time>
				<extensions>
					<speed>0.0</speed>
				</extensions>
			</trkpt>
			<trkpt lat="53.25743695" lon="-8.92985153">
				<ele>67.0</ele>
				<time>2014-08-17T14:33:05Z</time>
				<extensions>
					<speed>0.0</speed>
				</extensions>
			</trkpt>
			<trkpt lat="53.25743695" lon="-8.92985152">
				<ele>67.0</ele>
				<time>2014-08-17T14:33:06Z</time>
				<extensions>
					<speed>0.0</speed>
				</extensions>
			</trkpt>
			<trkpt lat="53.25743656" lon="-8.9298508">
				<ele>67.0</ele>
				<time>2014-08-17T14:33:07Z</time>
				<extensions>
					<speed>0.5</speed>
				</extensions>
			</trkpt>
			<trkpt lat="53.2574356" lon="-8.92984612">
				<ele>67.0</ele>
				<time>2014-08-17T14:33:08Z</time>
				<extensions>
					<speed>0.0</speed>
				</extensions>
			</trkpt>
			<trkpt lat="53.25743608" lon="-8.92984512">
				<ele>67.0</ele>
				<time>2014-08-17T14:33:09Z</time>
				<extensions>
					<speed>0.0</speed>
				</extensions>
			</trkpt>
			<trkpt lat="53.25743603" lon="-8.92984409">
				<ele>67.0</ele>
				<time>2014-08-17T14:33:10Z</time>
				<extensions>
					<speed>0.0</speed>
				</extensions>
			</trkpt>
			<trkpt lat="53.25743746" lon="-8.92984081">
				<ele>67.0</ele>
				<time>2014-08-17T14:33:11Z</time>
				<extensions>
					<speed>0.0</speed>
				</extensions>
			</trkpt>
			<trkpt lat="53.25743655" lon="-8.92984035">
				<ele>67.0</ele>
				<time>2014-08-17T14:33:12Z</time>
				<extensions>
					<speed>0.0</speed>
				</extensions>
			</trkpt>
			<trkpt lat="53.25743401" lon="-8.92983724">
				<ele>68.0</ele>
				<time>2014-08-17T14:33:13Z</time>
				<extensions>
					<speed>0.0</speed>
				</extensions>
			</trkpt>
			<trkpt lat="53.25743274" lon="-8.92983576">
				<ele>68.0</ele>
				<time>2014-08-17T14:33:14Z</time>
				<extensions>
					<speed>0.0</speed>
				</extensions>
			</trkpt>
			<trkpt lat="53.25743313" lon="-8.92983011">
				<ele>68.0</ele>
				<time>2014-08-17T14:33:15Z</time>
				<extensions>
					<speed>0.0</speed>
				</extensions>
			</trkpt>
			<trkpt lat="53.25743282" lon="-8.92983523">
				<ele>68.0</ele>
				<time>2014-08-17T14:33:16Z</time>
				<extensions>
					<speed>0.0</speed>
				</extensions>
			</trkpt>
			<trkpt lat="53.25743241" lon="-8.92983345">
				<ele>68.0</ele>
				<time>2014-08-17T14:33:17Z</time>
				<extensions>
					<speed>0.0</speed>
				</extensions>
			</trkpt>
			<trkpt lat="53.25743169" lon="-8.92983271">
				<ele>69.0</ele>
				<time>2014-08-17T14:33:18Z</time>
				<extensions>
					<speed>0.0</speed>
				</extensions>
			</trkpt>
			<trkpt lat="53.25743159" lon="-8.92983159">
				<ele>69.0</ele>
				<time>2014-08-17T14:33:19Z</time>
				<extensions>
					<speed>0.0</speed>
				</extensions>
			</trkpt>
			<trkpt lat="53.25743168" lon="-8.92983146">
				<ele>69.0</ele>
				<time>2014-08-17T14:33:20Z</time>
				<extensions>
					<speed>0.0</speed>
				</extensions>
			</trkpt>
			<trkpt lat="53.25743161" lon="-8.92983127">
				<ele>69.0</ele>
				<time>2014-08-17T14:33:21Z</time>
				<extensions>
					<speed>0.0</speed>
				</extensions>
			</trkpt>
			<trkpt lat="53.25743163" lon="-8.92983125">
				<ele>69.0</ele>
				<time>2014-08-17T14:33:22Z</time>
				<extensions>
					<speed>0.0</speed>
				</extensions>
			</trkpt>
			<trkpt lat="53.25743162" lon="-8.92983124">
				<ele>69.0</ele>
				<time>2014-08-17T14:33:23Z</time>
				<extensions>
					<speed>0.0</speed>
				</extensions>
			</trkpt>
			<trkpt lat="53.25743166" lon="-8.92983132">
				<ele>69.0</ele>
				<time>2014-08-17T14:33:24Z</time>
				<extensions>
					<speed>0.0</speed>
				</extensions>
			</trkpt>
			<trkpt lat="53.25743165" lon="-8.92983132">
				<ele>69.0</ele>
				<time>2014-08-17T14:33:25Z</time>
				<extensions>
					<speed>0.0</speed>
				</extensions>
			</trkpt>
			<trkpt lat="53.25743165" lon="-8.92983131">
				<ele>69.0</ele>
				<time>2014-08-17T14:33:26Z</time>
				<extensions>
					<speed>0.0</speed>
				</extensions>
			</trkpt>
			<trkpt lat="53.25743164" lon="-8.9298313">
				<ele>69.0</ele>
				<time>2014-08-17T14:33:27Z</time>
				<extensions>
					<speed>0.0</speed>
				</extensions>
			</trkpt>
			<trkpt lat="53.25743163" lon="-8.92983126">
				<ele>69.0</ele>
				<time>2014-08-17T14:33:28Z</time>
				<extensions>
					<speed>0.0</speed>
				</extensions>
			</trkpt>
			<trkpt lat="53.25743164" lon="-8.92983127">
				<ele>69.0</ele>
				<time>2014-08-17T14:33:29Z</time>
				<extensions>
					<speed>0.0</speed>
				</extensions>
			</trkpt>
			<trkpt lat="53.25743166" lon="-8.9298312">
				<ele>69.0</ele>
				<time>2014-08-17T14:33:30Z</time>
				<extensions>
					<speed>0.0</speed>
				</extensions>
			</trkpt>
			<trkpt lat="53.25743163" lon="-8.92983114">
				<ele>69.0</ele>
				<time>2014-08-17T14:33:31Z</time>
				<extensions>
					<speed>0.0</speed>
				</extensions>
			</trkpt>
			<trkpt lat="53.25743165" lon="-8.92983114">
				<ele>69.0</ele>
				<time>2014-08-17T14:33:32Z</time>
				<extensions>
					<speed>0.0</speed>
				</extensions>
			</trkpt>
			<trkpt lat="53.25743166" lon="-8.92983106">
				<ele>69.0</ele>
				<time>2014-08-17T14:33:33Z</time>
				<extensions>
					<speed>0.0</speed>
				</extensions>
			</trkpt>
			<trkpt lat="53.25743165" lon="-8.929831">
				<ele>69.0</ele>
				<time>2014-08-17T14:33:34Z</time>
				<extensions>
					<speed>0.0</speed>
				</extensions>
			</trkpt>
			<trkpt lat="53.25743167" lon="-8.92983095">
				<ele>69.0</ele>
				<time>2014-08-17T14:33:35Z</time>
				<extensions>
					<speed>0.0</speed>
				</extensions>
			</trkpt>
			<trkpt lat="53.25743166" lon="-8.92983093">
				<ele>69.0</ele>
				<time>2014-08-17T14:33:36Z</time>
				<extensions>
					<speed>0.0</speed>
				</extensions>
			</trkpt>
			<trkpt lat="53.25743165" lon="-8.92983087">
				<ele>69.0</ele>
				<time>2014-08-17T14:33:37Z</time>
				<extensions>
					<speed>0.0</speed>
				</extensions>
			</trkpt>
			<trkpt lat="53.25743163" lon="-8.92983082">
				<ele>69.0</ele>
				<time>2014-08-17T14:33:38Z</time>
				<extensions>
					<speed>0.0</speed>
				</extensions>
			</trkpt>
			<trkpt lat="53.25743167" lon="-8.92983088">
				<ele>69.0</ele>
				<time>2014-08-17T14:33:39Z</time>
				<extensions>
					<speed>0.0</speed>
				</extensions>
			</trkpt>
			<trkpt lat="53.25743171" lon="-8.92983092">
				<ele>69.0</ele>
				<time>2014-08-17T14:33:40Z</time>
				<extensions>
					<speed>0.0</speed>
				</extensions>
			</trkpt>
			<trkpt lat="53.25743174" lon="-8.92983091">
				<ele>69.0</ele>
				<time>2014-08-17T14:33:41Z</time>
				<extensions>
					<speed>0.0</speed>
				</extensions>
			</trkpt>
			<trkpt lat="53.25743174" lon="-8.92983096">
				<ele>69.0</ele>
				<time>2014-08-17T14:33:42Z</time>
				<extensions>
					<speed>0.0</speed>
				</extensions>
			</trkpt>
			<trkpt lat="53.25743175" lon="-8.92983095">
				<ele>69.0</ele>
				<time>2014-08-17T14:33:43Z</time>
				<extensions>
					<speed>0.0</speed>
				</extensions>
			</trkpt>
			<trkpt lat="53.25743176" lon="-8.92983094">
				<ele>69.0</ele>
				<time>2014-08-17T14:33:44Z</time>
				<extensions>
					<speed>0.0</speed>
				</extensions>
			</trkpt>
			<trkpt lat="53.25743177" lon="-8.92983094">
				<ele>69.0</ele>
				<time>2014-08-17T14:33:45Z</time>
				<extensions>
					<speed>0.0</speed>
				</extensions>
			</trkpt>
			<trkpt lat="53.25743177" lon="-8.9298309">
				<ele>69.0</ele>
				<time>2014-08-17T14:33:46Z</time>
				<extensions>
					<speed>0.0</speed>
				</extensions>
			</trkpt>
			<trkpt lat="53.25743179" lon="-8.92983087">
				<ele>69.0</ele>
				<time>2014-08-17T14:33:47Z</time>
				<extensions>
					<speed>0.0</speed>
				</extensions>
			</trkpt>
			<trkpt lat="53.25743181" lon="-8.92983093">
				<ele>69.0</ele>
				<time>2014-08-17T14:33:48Z</time>
				<extensions>
					<speed>0.0</speed>
				</extensions>
			</trkpt>
			<trkpt lat="53.25743181" lon="-8.92983091">
				<ele>69.0</ele>
				<time>2014-08-17T14:33:49Z</time>
				<extensions>
					<speed>0.0</speed>
				</extensions>
			</trkpt>
			<trkpt lat="53.25743182" lon="-8.9298309">
				<ele>69.0</ele>
				<time>2014-08-17T14:33:50Z</time>
				<extensions>
					<speed>0.0</speed>
				</extensions>
			</trkpt>
			<trkpt lat="53.25743182" lon="-8.92983087">
				<ele>69.0</ele>
				<time>2014-08-17T14:33:51Z</time>
				<extensions>
					<speed>0.0</speed>
				</extensions>
			</trkpt>
			<trkpt lat="53.25743183" lon="-8.92983081">
				<ele>69.0</ele>
				<time>2014-08-17T14:33:52Z</time>
				<extensions>
					<speed>0.0</speed>
				</extensions>
			</trkpt>
			<trkpt lat="53.25743182" lon="-8.92983078">
				<ele>69.0</ele>
				<time>2014-08-17T14:33:53Z</time>
				<extensions>
					<speed>0.0</speed>
				</extensions>
			</trkpt>
			<trkpt lat="53.25743184" lon="-8.92983079">
				<ele>69.0</ele>
				<time>2014-08-17T14:33:54Z</time>
				<extensions>
					<speed>0.0</speed>
				</extensions>
			</trkpt>
			<trkpt lat="53.25743185" lon="-8.92983081">
				<ele>69.0</ele>
				<time>2014-08-17T14:33:55Z</time>
				<extensions>
					<speed>0.0</speed>
				</extensions>
			</trkpt>
			<trkpt lat="53.25743184" lon="-8.92983081">
				<ele>69.0</ele>
				<time>2014-08-17T14:33:56Z</time>
				<extensions>
					<speed>0.0</speed>
				</extensions>
			</trkpt>
			<trkpt lat="53.25743184" lon="-8.92983081">
				<ele>69.0</ele>
				<time>2014-08-17T14:33:57Z</time>
				<extensions>
					<speed>0.0</speed>
				</extensions>
			</trkpt>
			<trkpt lat="53.25743184" lon="-8.92983081">
				<ele>69.0</ele>
				<time>2014-08-17T14:33:58Z</time>
				<extensions>
					<speed>0.0</speed>
				</extensions>
			</trkpt>
			<trkpt lat="53.25743182" lon="-8.92983084">
				<ele>69.0</ele>
				<time>2014-08-17T14:33:59Z</time>
				<extensions>
					<speed>0.0</speed>
				</extensions>
			</trkpt>
			<trkpt lat="53.2574318" lon="-8.92983086">
				<ele>69.0</ele>
				<time>2014-08-17T14:34:00Z</time>
				<extensions>
					<speed>0.0</speed>
				</extensions>
			</trkpt>
			<trkpt lat="53.25743179" lon="-8.92983084">
				<ele>69.0</ele>
				<time>2014-08-17T14:34:01Z</time>
				<extensions>
					<speed>0.0</speed>
				</extensions>
			</trkpt>
			<trkpt lat="53.25743177" lon="-8.92983086">
				<ele>69.0</ele>
				<time>2014-08-17T14:34:02Z</time>
				<extensions>
					<speed>0.0</speed>
				</extensions>
			</trkpt>
			<trkpt lat="53.25743177" lon="-8.92983086">
				<ele>69.0</ele>
				<time>2014-08-17T14:34:03Z</time>
				<extensions>
					<speed>0.0</speed>
				</extensions>
			</trkpt>
			<trkpt lat="53.25743177" lon="-8.9298309">
				<ele>69.0</ele>
				<time>2014-08-17T14:34:04Z</time>
				<extensions>
					<speed>0.0</speed>
				</extensions>
			</trkpt>
			<trkpt lat="53.25743177" lon="-8.9298309">
				<ele>69.0</ele>
				<time>2014-08-17T14:34:05Z</time>
				<extensions>
					<speed>0.0</speed>
				</extensions>
			</trkpt>
			<trkpt lat="53.25743177" lon="-8.92983092">
				<ele>69.0</ele>
				<time>2014-08-17T14:34:06Z</time>
				<extensions>
					<speed>0.0</speed>
				</extensions>
			</trkpt>
			<trkpt lat="53.25743178" lon="-8.92983091">
				<ele>69.0</ele>
				<time>2014-08-17T14:34:07Z</time>
				<extensions>
					<speed>0.0</speed>
				</extensions>
			</trkpt>
			<trkpt lat="53.25743176" lon="-8.92983092">
				<ele>69.0</ele>
				<time>2014-08-17T14:34:08Z</time>
				<extensions>
					<speed>0.0</speed>
				</extensions>
			</trkpt>
			<trkpt lat="53.25743175" lon="-8.92983092">
				<ele>69.0</ele>
				<time>2014-08-17T14:34:09Z</time>
				<extensions>
					<speed>0.0</speed>
				</extensions>
			</trkpt>
			<trkpt lat="53.25743173" lon="-8.92983093">
				<ele>69.0</ele>
				<time>2014-08-17T14:34:10Z</time>
				<extensions>
					<speed>0.0</speed>
				</extensions>
			</trkpt>
			<trkpt lat="53.25743175" lon="-8.92983098">
				<ele>69.0</ele>
				<time>2014-08-17T14:34:11Z</time>
				<extensions>
					<speed>0.0</speed>
				</extensions>
			</trkpt>
			<trkpt lat="53.25743176" lon="-8.92983101">
				<ele>69.0</ele>
				<time>2014-08-17T14:34:12Z</time>
				<extensions>
					<speed>0.0</speed>
				</extensions>
			</trkpt>
			<trkpt lat="53.25743173" lon="-8.92983107">
				<ele>69.0</ele>
				<time>2014-08-17T14:34:13Z</time>
				<extensions>
					<speed>0.0</speed>
				</extensions>
			</trkpt>
			<trkpt lat="53.25743171" lon="-8.9298311">
				<ele>69.0</ele>
				<time>2014-08-17T14:34:14Z</time>
				<extensions>
					<speed>0.0</speed>
				</extensions>
			</trkpt>
			<trkpt lat="53.2574317" lon="-8.92983112">
				<ele>69.0</ele>
				<time>2014-08-17T14:34:15Z</time>
				<extensions>
					<speed>0.0</speed>
				</extensions>
			</trkpt>
			<trkpt lat="53.25743169" lon="-8.92983112">
				<ele>69.0</ele>
				<time>2014-08-17T14:34:16Z</time>
				<extensions>
					<speed>0.0</speed>
				</extensions>
			</trkpt>
			<trkpt lat="53.25743168" lon="-8.92983114">
				<ele>69.0</ele>
				<time>2014-08-17T14:34:17Z</time>
				<extensions>
					<speed>0.0</speed>
				</extensions>
			</trkpt>
			<trkpt lat="53.25743168" lon="-8.92983113">
				<ele>69.0</ele>
				<time>2014-08-17T14:34:18Z</time>
				<extensions>
					<speed>0.0</speed>
				</extensions>
			</trkpt>
			<trkpt lat="53.25743173" lon="-8.92983113">
				<ele>69.0</ele>
				<time>2014-08-17T14:34:19Z</time>
				<extensions>
					<speed>0.0</speed>
				</extensions>
			</trkpt>
			<trkpt lat="53.25743173" lon="-8.92983113">
				<ele>69.0</ele>
				<time>2014-08-17T14:34:20Z</time>
				<extensions>
					<speed>0.0</speed>
				</extensions>
			</trkpt>
			<trkpt lat="53.25743174" lon="-8.92983117">
				<ele>69.0</ele>
				<time>2014-08-17T14:34:21Z</time>
				<extensions>
					<speed>0.0</speed>
				</extensions>
			</trkpt>
			<trkpt lat="53.25743176" lon="-8.92983114">
				<ele>69.0</ele>
				<time>2014-08-17T14:34:22Z</time>
				<extensions>
					<speed>0.0</speed>
				</extensions>
			</trkpt>
			<trkpt lat="53.25743179" lon="-8.92983112">
				<ele>69.0</ele>
				<time>2014-08-17T14:34:23Z</time>
				<extensions>
					<speed>0.0</speed>
				</extensions>
			</trkpt>
			<trkpt lat="53.25743179" lon="-8.9298311">
				<ele>69.0</ele>
				<time>2014-08-17T14:34:24Z</time>
				<extensions>
					<speed>0.0</speed>
				</extensions>
			</trkpt>
			<trkpt lat="53.25743178" lon="-8.92983115">
				<ele>69.0</ele>
				<time>2014-08-17T14:34:25Z</time>
				<extensions>
					<speed>0.0</speed>
				</extensions>
			</trkpt>
			<trkpt lat="53.25743178" lon="-8.92983115">
				<ele>69.0</ele>
				<time>2014-08-17T14:34:26Z</time>
				<extensions>
					<speed>0.0</speed>
				</extensions>
			</trkpt>
			<trkpt lat="53.25743178" lon="-8.92983115">
				<ele>69.0</ele>
				<time>2014-08-17T14:34:27Z</time>
				<extensions>
					<speed>0.0</speed>
				</extensions>
			</trkpt>
			<trkpt lat="53.25743129" lon="-8.92982883">
				<ele>69.0</ele>
				<time>2014-08-17T14:34:28Z</time>
				<extensions>
					<speed>0.0</speed>
				</extensions>
			</trkpt>
			<trkpt lat="53.25743128" lon="-8.92982881">
				<ele>69.0</ele>
				<time>2014-08-17T14:34:29Z</time>
				<extensions>
					<speed>0.0</speed>
				</extensions>
			</trkpt>
			<trkpt lat="53.25743126" lon="-8.92982879">
				<ele>69.0</ele>
				<time>2014-08-17T14:34:30Z</time>
				<extensions>
					<speed>0.0</speed>
				</extensions>
			</trkpt>
			<trkpt lat="53.25743126" lon="-8.92982873">
				<ele>69.0</ele>
				<time>2014-08-17T14:34:31Z</time>
				<extensions>
					<speed>0.0</speed>
				</extensions>
			</trkpt>
			<trkpt lat="53.25743125" lon="-8.92982866">
				<ele>69.0</ele>
				<time>2014-08-17T14:34:32Z</time>
				<extensions>
					<speed>0.0</speed>
				</extensions>
			</trkpt>
			<trkpt lat="53.25743126" lon="-8.92982865">
				<ele>69.0</ele>
				<time>2014-08-17T14:34:33Z</time>
				<extensions>
					<speed>0.0</speed>
				</extensions>
			</trkpt>
			<trkpt lat="53.25743125" lon="-8.92982855">
				<ele>69.0</ele>
				<time>2014-08-17T14:34:34Z</time>
				<extensions>
					<speed>0.0</speed>
				</extensions>
			</trkpt>
			<trkpt lat="53.25743124" lon="-8.92982848">
				<ele>69.0</ele>
				<time>2014-08-17T14:34:35Z</time>
				<extensions>
					<speed>0.0</speed>
				</extensions>
			</trkpt>
			<trkpt lat="53.25743125" lon="-8.92982852">
				<ele>69.0</ele>
				<time>2014-08-17T14:34:36Z</time>
				<extensions>
					<speed>0.0</speed>
				</extensions>
			</trkpt>
			<trkpt lat="53.25743124" lon="-8.92982823">
				<ele>69.0</ele>
				<time>2014-08-17T14:34:37Z</time>
				<extensions>
					<speed>0.0</speed>
				</extensions>
			</trkpt>
			<trkpt lat="53.25743124" lon="-8.92982816">
				<ele>69.0</ele>
				<time>2014-08-17T14:34:38Z</time>
				<extensions>
					<speed>0.0</speed>
				</extensions>
			</trkpt>
			<trkpt lat="53.25743125" lon="-8.92982832">
				<ele>69.0</ele>
				<time>2014-08-17T14:34:39Z</time>
				<extensions>
					<speed>0.0</speed>
				</extensions>
			</trkpt>
			<trkpt lat="53.25743124" lon="-8.92982825">
				<ele>69.0</ele>
				<time>2014-08-17T14:34:40Z</time>
				<extensions>
					<speed>0.0</speed>
				</extensions>
			</trkpt>
			<trkpt lat="53.25743125" lon="-8.92982857">
				<ele>69.0</ele>
				<time>2014-08-17T14:34:41Z</time>
				<extensions>
					<speed>0.0</speed>
				</extensions>
			</trkpt>
			<trkpt lat="53.25743125" lon="-8.92982849">
				<ele>69.0</ele>
				<time>2014-08-17T14:34:42Z</time>
				<extensions>
					<speed>0.0</speed>
				</extensions>
			</trkpt>
			<trkpt lat="53.25743127" lon="-8.92982837">
				<ele>69.0</ele>
				<time>2014-08-17T14:34:43Z</time>
				<extensions>
					<speed>0.0</speed>
				</extensions>
			</trkpt>
			<trkpt lat="53.25743127" lon="-8.92982834">
				<ele>69.0</ele>
				<time>2014-08-17T14:34:44Z</time>
				<extensions>
					<speed>0.0</speed>
				</extensions>
			</trkpt>
			<trkpt lat="53.25743127" lon="-8.92982835">
				<ele>69.0</ele>
				<time>2014-08-17T14:34:45Z</time>
				<extensions>
					<speed>0.0</speed>
				</extensions>
			</trkpt>
			<trkpt lat="53.25743127" lon="-8.92982836">
				<ele>69.0</ele>
				<time>2014-08-17T14:34:46Z</time>
				<extensions>
					<speed>0.0</speed>
				</extensions>
			</trkpt>
			<trkpt lat="53.25743128" lon="-8.92982834">
				<ele>69.0</ele>
				<time>2014-08-17T14:34:47Z</time>
				<extensions>
					<speed>0.0</speed>
				</extensions>
			</trkpt>
			<trkpt lat="53.25743125" lon="-8.9298284">
				<ele>69.0</ele>
				<time>2014-08-17T14:34:48Z</time>
				<extensions>
					<speed>0.0</speed>
				</extensions>
			</trkpt>
			<trkpt lat="53.25743124" lon="-8.92982842">
				<ele>69.0</ele>
				<time>2014-08-17T14:34:49Z</time>
				<extensions>
					<speed>0.0</speed>
				</extensions>
			</trkpt>
			<trkpt lat="53.25743123" lon="-8.92982841">
				<ele>69.0</ele>
				<time>2014-08-17T14:34:50Z</time>
				<extensions>
					<speed>0.0</speed>
				</extensions>
			</trkpt>
			<trkpt lat="53.25743122" lon="-8.92982836">
				<ele>69.0</ele>
				<time>2014-08-17T14:34:51Z</time>
				<extensions>
					<speed>0.0</speed>
				</extensions>
			</trkpt>
			<trkpt lat="53.25743121" lon="-8.92982837">
				<ele>69.0</ele>
				<time>2014-08-17T14:34:52Z</time>
				<extensions>
					<speed>0.0</speed>
				</extensions>
			</trkpt>
			<trkpt lat="53.25743121" lon="-8.92982841">
				<ele>69.0</ele>
				<time>2014-08-17T14:34:53Z</time>
				<extensions>
					<speed>0.0</speed>
				</extensions>
			</trkpt>
			<trkpt lat="53.25743121" lon="-8.92982835">
				<ele>69.0</ele>
				<time>2014-08-17T14:34:54Z</time>
				<extensions>
					<speed>0.0</speed>
				</extensions>
			</trkpt>
			<trkpt lat="53.25743122" lon="-8.92982836">
				<ele>69.0</ele>
				<time>2014-08-17T14:34:55Z</time>
				<extensions>
					<speed>0.0</speed>
				</extensions>
			</trkpt>
			<trkpt lat="53.25743121" lon="-8.92982836">
				<ele>69.0</ele>
				<time>2014-08-17T14:34:56Z</time>
				<extensions>
					<speed>0.0</speed>
				</extensions>
			</trkpt>
			<trkpt lat="53.25743119" lon="-8.92982824">
				<ele>69.0</ele>
				<time>2014-08-17T14:34:57Z</time>
				<extensions>
					<speed>0.0</speed>
				</extensions>
			</trkpt>
			<trkpt lat="53.2574312" lon="-8.92982826">
				<ele>69.0</ele>
				<time>2014-08-17T14:34:58Z</time>
				<extensions>
					<speed>0.0</speed>
				</extensions>
			</trkpt>
			<trkpt lat="53.25743118" lon="-8.9298282">
				<ele>69.0</ele>
				<time>2014-08-17T14:34:59Z</time>
				<extensions>
					<speed>0.0</speed>
				</extensions>
			</trkpt>
			<trkpt lat="53.25743118" lon="-8.92982817">
				<ele>69.0</ele>
				<time>2014-08-17T14:35:00Z</time>
				<extensions>
					<speed>0.0</speed>
				</extensions>
			</trkpt>
			<trkpt lat="53.25743118" lon="-8.92982815">
				<ele>69.0</ele>
				<time>2014-08-17T14:35:01Z</time>
				<extensions>
					<speed>0.0</speed>
				</extensions>
			</trkpt>
			<trkpt lat="53.25743118" lon="-8.92982821">
				<ele>69.0</ele>
				<time>2014-08-17T14:35:02Z</time>
				<extensions>
					<speed>0.0</speed>
				</extensions>
			</trkpt>
			<trkpt lat="53.2574312" lon="-8.92982825">
				<ele>69.0</ele>
				<time>2014-08-17T14:35:03Z</time>
				<extensions>
					<speed>0.0</speed>
				</extensions>
			</trkpt>
			<trkpt lat="53.25743122" lon="-8.92982822">
				<ele>69.0</ele>
				<time>2014-08-17T14:35:04Z</time>
				<extensions>
					<speed>0.0</speed>
				</extensions>
			</trkpt>
			<trkpt lat="53.25743122" lon="-8.92982818">
				<ele>69.0</ele>
				<time>2014-08-17T14:35:05Z</time>
				<extensions>
					<speed>0.0</speed>
				</extensions>
			</trkpt>
			<trkpt lat="53.25743118" lon="-8.92982819">
				<ele>69.0</ele>
				<time>2014-08-17T14:35:06Z</time>
				<extensions>
					<speed>0.0</speed>
				</extensions>
			</trkpt>
			<trkpt lat="53.25743118" lon="-8.92982822">
				<ele>69.0</ele>
				<time>2014-08-17T14:35:07Z</time>
				<extensions>
					<speed>0.0</speed>
				</extensions>
			</trkpt>
			<trkpt lat="53.25743115" lon="-8.9298282">
				<ele>69.0</ele>
				<time>2014-08-17T14:35:08Z</time>
				<extensions>
					<speed>0.0</speed>
				</extensions>
			</trkpt>
			<trkpt lat="53.25743116" lon="-8.92982818">
				<ele>69.0</ele>
				<time>2014-08-17T14:35:09Z</time>
				<extensions>
					<speed>0.0</speed>
				</extensions>
			</trkpt>
			<trkpt lat="53.25743115" lon="-8.92982817">
				<ele>69.0</ele>
				<time>2014-08-17T14:35:10Z</time>
				<extensions>
					<speed>0.0</speed>
				</extensions>
			</trkpt>
			<trkpt lat="53.25743112" lon="-8.92982817">
				<ele>69.0</ele>
				<time>2014-08-17T14:35:11Z</time>
				<extensions>
					<speed>0.0</speed>
				</extensions>
			</trkpt>
			<trkpt lat="53.25743108" lon="-8.92982808">
				<ele>69.0</ele>
				<time>2014-08-17T14:35:12Z</time>
				<extensions>
					<speed>0.0</speed>
				</extensions>
			</trkpt>
			<trkpt lat="53.25743108" lon="-8.92982802">
				<ele>69.0</ele>
				<time>2014-08-17T14:35:13Z</time>
				<extensions>
					<speed>0.0</speed>
				</extensions>
			</trkpt>
			<trkpt lat="53.25743108" lon="-8.92982803">
				<ele>69.0</ele>
				<time>2014-08-17T14:35:14Z</time>
				<extensions>
					<speed>0.0</speed>
				</extensions>
			</trkpt>
			<trkpt lat="53.25743106" lon="-8.929828">
				<ele>69.0</ele>
				<time>2014-08-17T14:35:15Z</time>
				<extensions>
					<speed>0.0</speed>
				</extensions>
			</trkpt>
			<trkpt lat="53.25743104" lon="-8.92982795">
				<ele>69.0</ele>
				<time>2014-08-17T14:35:16Z</time>
				<extensions>
					<speed>0.0</speed>
				</extensions>
			</trkpt>
			<trkpt lat="53.25743104" lon="-8.92982791">
				<ele>69.0</ele>
				<time>2014-08-17T14:35:17Z</time>
				<extensions>
					<speed>0.0</speed>
				</extensions>
			</trkpt>
			<trkpt lat="53.25743101" lon="-8.92982792">
				<ele>69.0</ele>
				<time>2014-08-17T14:35:18Z</time>
				<extensions>
					<speed>0.0</speed>
				</extensions>
			</trkpt>
			<trkpt lat="53.25743101" lon="-8.92982791">
				<ele>69.0</ele>
				<time>2014-08-17T14:35:19Z</time>
				<extensions>
					<speed>0.0</speed>
				</extensions>
			</trkpt>
			<trkpt lat="53.25743099" lon="-8.92982791">
				<ele>69.0</ele>
				<time>2014-08-17T14:35:20Z</time>
				<extensions>
					<speed>0.0</speed>
				</extensions>
			</trkpt>
			<trkpt lat="53.25743098" lon="-8.92982791">
				<ele>69.0</ele>
				<time>2014-08-17T14:35:21Z</time>
				<extensions>
					<speed>0.0</speed>
				</extensions>
			</trkpt>
			<trkpt lat="53.25743099" lon="-8.9298279">
				<ele>69.0</ele>
				<time>2014-08-17T14:35:22Z</time>
				<extensions>
					<speed>0.0</speed>
				</extensions>
			</trkpt>
			<trkpt lat="53.25743097" lon="-8.92982792">
				<ele>69.0</ele>
				<time>2014-08-17T14:35:23Z</time>
				<extensions>
					<speed>0.0</speed>
				</extensions>
			</trkpt>
			<trkpt lat="53.25743095" lon="-8.92982794">
				<ele>69.0</ele>
				<time>2014-08-17T14:35:24Z</time>
				<extensions>
					<speed>0.0</speed>
				</extensions>
			</trkpt>
			<trkpt lat="53.25743092" lon="-8.92982799">
				<ele>69.0</ele>
				<time>2014-08-17T14:35:25Z</time>
				<extensions>
					<speed>0.0</speed>
				</extensions>
			</trkpt>
			<trkpt lat="53.25743092" lon="-8.92982798">
				<ele>69.0</ele>
				<time>2014-08-17T14:35:26Z</time>
				<extensions>
					<speed>0.0</speed>
				</extensions>
			</trkpt>
			<trkpt lat="53.25743093" lon="-8.929828">
				<ele>69.0</ele>
				<time>2014-08-17T14:35:27Z</time>
				<extensions>
					<speed>0.0</speed>
				</extensions>
			</trkpt>
			<trkpt lat="53.25743094" lon="-8.92982801">
				<ele>69.0</ele>
				<time>2014-08-17T14:35:28Z</time>
				<extensions>
					<speed>0.0</speed>
				</extensions>
			</trkpt>
			<trkpt lat="53.25743095" lon="-8.929828">
				<ele>69.0</ele>
				<time>2014-08-17T14:35:29Z</time>
				<extensions>
					<speed>0.0</speed>
				</extensions>
			</trkpt>
			<trkpt lat="53.25743095" lon="-8.929828">
				<ele>69.0</ele>
				<time>2014-08-17T14:35:30Z</time>
				<extensions>
					<speed>0.0</speed>
				</extensions>
			</trkpt>
			<trkpt lat="53.25743095" lon="-8.929828">
				<ele>69.0</ele>
				<time>2014-08-17T14:35:31Z</time>
				<extensions>
					<speed>0.0</speed>
				</extensions>
			</trkpt>
			<trkpt lat="53.25743094" lon="-8.92982802">
				<ele>69.0</ele>
				<time>2014-08-17T14:35:32Z</time>
				<extensions>
					<speed>0.0</speed>
				</extensions>
			</trkpt>
			<trkpt lat="53.25743093" lon="-8.92982806">
				<ele>69.0</ele>
				<time>2014-08-17T14:35:33Z</time>
				<extensions>
					<speed>0.0</speed>
				</extensions>
			</trkpt>
			<trkpt lat="53.25743091" lon="-8.92982801">
				<ele>69.0</ele>
				<time>2014-08-17T14:35:34Z</time>
				<extensions>
					<speed>0.0</speed>
				</extensions>
			</trkpt>
			<trkpt lat="53.25743094" lon="-8.92982792">
				<ele>69.0</ele>
				<time>2014-08-17T14:35:35Z</time>
				<extensions>
					<speed>0.0</speed>
				</extensions>
			</trkpt>
			<trkpt lat="53.25743096" lon="-8.92982803">
				<ele>69.0</ele>
				<time>2014-08-17T14:35:36Z</time>
				<extensions>
					<speed>0.0</speed>
				</extensions>
			</trkpt>
			<trkpt lat="53.25743097" lon="-8.92982794">
				<ele>69.0</ele>
				<time>2014-08-17T14:35:37Z</time>
				<extensions>
					<speed>0.0</speed>
				</extensions>
			</trkpt>
			<trkpt lat="53.257431" lon="-8.92982799">
				<ele>69.0</ele>
				<time>2014-08-17T14:35:38Z</time>
				<extensions>
					<speed>0.0</speed>
				</extensions>
			</trkpt>
			<trkpt lat="53.25743101" lon="-8.92982793">
				<ele>69.0</ele>
				<time>2014-08-17T14:35:39Z</time>
				<extensions>
					<speed>0.0</speed>
				</extensions>
			</trkpt>
			<trkpt lat="53.25743102" lon="-8.92982795">
				<ele>69.0</ele>
				<time>2014-08-17T14:35:40Z</time>
				<extensions>
					<speed>0.0</speed>
				</extensions>
			</trkpt>
			<trkpt lat="53.25743104" lon="-8.92982792">
				<ele>69.0</ele>
				<time>2014-08-17T14:35:41Z</time>
				<extensions>
					<speed>0.0</speed>
				</extensions>
			</trkpt>
			<trkpt lat="53.25743103" lon="-8.92982797">
				<ele>69.0</ele>
				<time>2014-08-17T14:35:42Z</time>
				<extensions>
					<speed>0.0</speed>
				</extensions>
			</trkpt>
			<trkpt lat="53.25743104" lon="-8.929828">
				<ele>69.0</ele>
				<time>2014-08-17T14:35:43Z</time>
				<extensions>
					<speed>0.0</speed>
				</extensions>
			</trkpt>
			<trkpt lat="53.25743105" lon="-8.92982801">
				<ele>69.0</ele>
				<time>2014-08-17T14:35:44Z</time>
				<extensions>
					<speed>0.0</speed>
				</extensions>
			</trkpt>
			<trkpt lat="53.25743104" lon="-8.92982792">
				<ele>69.0</ele>
				<time>2014-08-17T14:35:45Z</time>
				<extensions>
					<speed>0.0</speed>
				</extensions>
			</trkpt>
			<trkpt lat="53.25743106" lon="-8.92982794">
				<ele>69.0</ele>
				<time>2014-08-17T14:35:46Z</time>
				<extensions>
					<speed>0.0</speed>
				</extensions>
			</trkpt>
			<trkpt lat="53.25743109" lon="-8.92982792">
				<ele>69.0</ele>
				<time>2014-08-17T14:35:47Z</time>
				<extensions>
					<speed>0.0</speed>
				</extensions>
			</trkpt>
			<trkpt lat="53.25743108" lon="-8.92982786">
				<ele>69.0</ele>
				<time>2014-08-17T14:35:48Z</time>
				<extensions>
					<speed>0.0</speed>
				</extensions>
			</trkpt>
			<trkpt lat="53.25743108" lon="-8.92982783">
				<ele>69.0</ele>
				<time>2014-08-17T14:35:49Z</time>
				<extensions>
					<speed>0.0</speed>
				</extensions>
			</trkpt>
			<trkpt lat="53.2574311" lon="-8.92982776">
				<ele>69.0</ele>
				<time>2014-08-17T14:35:50Z</time>
				<extensions>
					<speed>0.0</speed>
				</extensions>
			</trkpt>
			<trkpt lat="53.25743111" lon="-8.92982774">
				<ele>69.0</ele>
				<time>2014-08-17T14:35:51Z</time>
				<extensions>
					<speed>0.0</speed>
				</extensions>
			</trkpt>
			<trkpt lat="53.25743111" lon="-8.92982773">
				<ele>69.0</ele>
				<time>2014-08-17T14:35:52Z</time>
				<extensions>
					<speed>0.0</speed>
				</extensions>
			</trkpt>
			<trkpt lat="53.25742916" lon="-8.92982514">
				<ele>69.0</ele>
				<time>2014-08-17T14:35:53Z</time>
				<extensions>
					<speed>1.5</speed>
				</extensions>
			</trkpt>
			<trkpt lat="53.25741492" lon="-8.92980139">
				<ele>69.0</ele>
				<time>2014-08-17T14:35:54Z</time>
				<extensions>
					<speed>2.5</speed>
				</extensions>
			</trkpt>
			<trkpt lat="53.25738616" lon="-8.92976715">
				<ele>70.0</ele>
				<time>2014-08-17T14:35:55Z</time>
				<extensions>
					<speed>3.75</speed>
				</extensions>
			</trkpt>
			<trkpt lat="53.25734389" lon="-8.92972792">
				<ele>71.0</ele>
				<time>2014-08-17T14:35:56Z</time>
				<extensions>
					<speed>5.0</speed>
				</extensions>
			</trkpt>
			<trkpt lat="53.25730902" lon="-8.92967765">
				<ele>71.0</ele>
				<time>2014-08-17T14:35:57Z</time>
				<extensions>
					<speed>4.5</speed>
				</extensions>
			</trkpt>
			<trkpt lat="53.25725971" lon="-8.92962304">
				<ele>72.0</ele>
				<time>2014-08-17T14:35:58Z</time>
				<extensions>
					<speed>5.5</speed>
				</extensions>
			</trkpt>
			<trkpt lat="53.25721466" lon="-8.92959213">
				<ele>71.0</ele>
				<time>2014-08-17T14:35:59Z</time>
				<extensions>
					<speed>6.25</speed>
				</extensions>
			</trkpt>
			<trkpt lat="53.25716095" lon="-8.92955192">
				<ele>71.0</ele>
				<time>2014-08-17T14:36:00Z</time>
				<extensions>
					<speed>7.0</speed>
				</extensions>
			</trkpt>
			<trkpt lat="53.2571079" lon="-8.92949836">
				<ele>71.0</ele>
				<time>2014-08-17T14:36:01Z</time>
				<extensions>
					<speed>7.25</speed>
				</extensions>
			</trkpt>
			<trkpt lat="53.25705512" lon="-8.92944842">
				<ele>71.0</ele>
				<time>2014-08-17T14:36:02Z</time>
				<extensions>
					<speed>6.25</speed>
				</extensions>
			</trkpt>
			<trkpt lat="53.25700836" lon="-8.9294064">
				<ele>71.0</ele>
				<time>2014-08-17T14:36:03Z</time>
				<extensions>
					<speed>5.0</speed>
				</extensions>
			</trkpt>
			<trkpt lat="53.25697208" lon="-8.92938074">
				<ele>72.0</ele>
				<time>2014-08-17T14:36:04Z</time>
				<extensions>
					<speed>3.75</speed>
				</extensions>
			</trkpt>
			<trkpt lat="53.25695384" lon="-8.92936812">
				<ele>72.0</ele>
				<time>2014-08-17T14:36:05Z</time>
				<extensions>
					<speed>2.25</speed>
				</extensions>
			</trkpt>
			<trkpt lat="53.25693489" lon="-8.92935431">
				<ele>71.0</ele>
				<time>2014-08-17T14:36:06Z</time>
				<extensions>
					<speed>1.0</speed>
				</extensions>
			</trkpt>
			<trkpt lat="53.25693589" lon="-8.9293421">
				<ele>72.0</ele>
				<time>2014-08-17T14:36:07Z</time>
				<extensions>
					<speed>0.0</speed>
				</extensions>
			</trkpt>
			<trkpt lat="53.25693879" lon="-8.92933954">
				<ele>73.0</ele>
				<time>2014-08-17T14:36:08Z</time>
				<extensions>
					<speed>0.0</speed>
				</extensions>
			</trkpt>
			<trkpt lat="53.25693926" lon="-8.92934659">
				<ele>72.0</ele>
				<time>2014-08-17T14:36:09Z</time>
				<extensions>
					<speed>0.0</speed>
				</extensions>
			</trkpt>
			<trkpt lat="53.25694019" lon="-8.92933982">
				<ele>72.0</ele>
				<time>2014-08-17T14:36:10Z</time>
				<extensions>
					<speed>0.0</speed>
				</extensions>
			</trkpt>
			<trkpt lat="53.25693803" lon="-8.92933923">
				<ele>72.0</ele>
				<time>2014-08-17T14:36:11Z</time>
				<extensions>
					<speed>0.0</speed>
				</extensions>
			</trkpt>
			<trkpt lat="53.25693818" lon="-8.92934385">
				<ele>71.0</ele>
				<time>2014-08-17T14:36:12Z</time>
				<extensions>
					<speed>0.0</speed>
				</extensions>
			</trkpt>
			<trkpt lat="53.25694038" lon="-8.92934532">
				<ele>71.0</ele>
				<time>2014-08-17T14:36:13Z</time>
				<extensions>
					<speed>0.0</speed>
				</extensions>
			</trkpt>
			<trkpt lat="53.25693785" lon="-8.92934197">
				<ele>71.0</ele>
				<time>2014-08-17T14:36:14Z</time>
				<extensions>
					<speed>0.0</speed>
				</extensions>
			</trkpt>
			<trkpt lat="53.25693865" lon="-8.92933867">
				<ele>72.0</ele>
				<time>2014-08-17T14:36:15Z</time>
				<extensions>
					<speed>0.0</speed>
				</extensions>
			</trkpt>
			<trkpt lat="53.25693873" lon="-8.92934213">
				<ele>72.0</ele>
				<time>2014-08-17T14:36:16Z</time>
				<extensions>
					<speed>0.0</speed>
				</extensions>
			</trkpt>
			<trkpt lat="53.2569394" lon="-8.92934657">
				<ele>72.0</ele>
				<time>2014-08-17T14:36:17Z</time>
				<extensions>
					<speed>0.0</speed>
				</extensions>
			</trkpt>
			<trkpt lat="53.25693879" lon="-8.92934725">
				<ele>72.0</ele>
				<time>2014-08-17T14:36:18Z</time>
				<extensions>
					<speed>0.0</speed>
				</extensions>
			</trkpt>
			<trkpt lat="53.25693891" lon="-8.92934716">
				<ele>72.0</ele>
				<time>2014-08-17T14:36:19Z</time>
				<extensions>
					<speed>0.0</speed>
				</extensions>
			</trkpt>
			<trkpt lat="53.25693894" lon="-8.92934729">
				<ele>72.0</ele>
				<time>2014-08-17T14:36:20Z</time>
				<extensions>
					<speed>0.0</speed>
				</extensions>
			</trkpt>
			<trkpt lat="53.25693888" lon="-8.92934725">
				<ele>72.0</ele>
				<time>2014-08-17T14:36:21Z</time>
				<extensions>
					<speed>0.0</speed>
				</extensions>
			</trkpt>
			<trkpt lat="53.2569389" lon="-8.92934722">
				<ele>72.0</ele>
				<time>2014-08-17T14:36:22Z</time>
				<extensions>
					<speed>0.0</speed>
				</extensions>
			</trkpt>
			<trkpt lat="53.25693729" lon="-8.9293467">
				<ele>72.0</ele>
				<time>2014-08-17T14:36:23Z</time>
				<extensions>
					<speed>1.25</speed>
				</extensions>
			</trkpt>
			<trkpt lat="53.25692044" lon="-8.92935062">
				<ele>72.0</ele>
				<time>2014-08-17T14:36:24Z</time>
				<extensions>
					<speed>2.0</speed>
				</extensions>
			</trkpt>
			<trkpt lat="53.25690349" lon="-8.92936268">
				<ele>72.0</ele>
				<time>2014-08-17T14:36:25Z</time>
				<extensions>
					<speed>2.25</speed>
				</extensions>
			</trkpt>
			<trkpt lat="53.25689321" lon="-8.92940396">
				<ele>72.0</ele>
				<time>2014-08-17T14:36:26Z</time>
				<extensions>
					<speed>3.0</speed>
				</extensions>
			</trkpt>
			<trkpt lat="53.25688479" lon="-8.92945646">
				<ele>72.0</ele>
				<time>2014-08-17T14:36:27Z</time>
				<extensions>
					<speed>4.0</speed>
				</extensions>
			</trkpt>
			<trkpt lat="53.2568814" lon="-8.92952506">
				<ele>72.0</ele>
				<time>2014-08-17T14:36:28Z</time>
				<extensions>
					<speed>4.75</speed>
				</extensions>
			</trkpt>
			<trkpt lat="53.25687977" lon="-8.92959962">
				<ele>72.0</ele>
				<time>2014-08-17T14:36:29Z</time>
				<extensions>
					<speed>5.0</speed>
				</extensions>
			</trkpt>
			<trkpt lat="53.256871" lon="-8.92967219">
				<ele>71.0</ele>
				<time>2014-08-17T14:36:30Z</time>
				<extensions>
					<speed>4.75</speed>
				</extensions>
			</trkpt>
			<trkpt lat="53.25686442" lon="-8.92974314">
				<ele>71.0</ele>
				<time>2014-08-17T14:36:31Z</time>
				<extensions>
					<speed>4.75</speed>
				</extensions>
			</trkpt>
			<trkpt lat="53.25685859" lon="-8.92981389">
				<ele>71.0</ele>
				<time>2014-08-17T14:36:32Z</time>
				<extensions>
					<speed>4.5</speed>
				</extensions>
			</trkpt>
			<trkpt lat="53.25685193" lon="-8.9298797">
				<ele>71.0</ele>
				<time>2014-08-17T14:36:33Z</time>
				<extensions>
					<speed>4.25</speed>
				</extensions>
			</trkpt>
			<trkpt lat="53.25684383" lon="-8.92994842">
				<ele>70.0</ele>
				<time>2014-08-17T14:36:34Z</time>
				<extensions>
					<speed>4.25</speed>
				</extensions>
			</trkpt>
			<trkpt lat="53.25682479" lon="-8.93001085">
				<ele>69.0</ele>
				<time>2014-08-17T14:36:35Z</time>
				<extensions>
					<speed>4.25</speed>
				</extensions>
			</trkpt>
			<trkpt lat="53.25681344" lon="-8.93008063">
				<ele>69.0</ele>
				<time>2014-08-17T14:36:36Z</time>
				<extensions>
					<speed>4.25</speed>
				</extensions>
			</trkpt>
			<trkpt lat="53.25680224" lon="-8.93014016">
				<ele>69.0</ele>
				<time>2014-08-17T14:36:37Z</time>
				<extensions>
					<speed>3.75</speed>
				</extensions>
			</trkpt>
			<trkpt lat="53.25679056" lon="-8.93019648">
				<ele>69.0</ele>
				<time>2014-08-17T14:36:38Z</time>
				<extensions>
					<speed>3.0</speed>
				</extensions>
			</trkpt>
			<trkpt lat="53.25678262" lon="-8.93023707">
				<ele>68.0</ele>
				<time>2014-08-17T14:36:39Z</time>
				<extensions>
					<speed>2.0</speed>
				</extensions>
			</trkpt>
			<trkpt lat="53.25677841" lon="-8.93026183">
				<ele>69.0</ele>
				<time>2014-08-17T14:36:40Z</time>
				<extensions>
					<speed>1.5</speed>
				</extensions>
			</trkpt>
			<trkpt lat="53.25677475" lon="-8.93028107">
				<ele>68.0</ele>
				<time>2014-08-17T14:36:41Z</time>
				<extensions>
					<speed>1.0</speed>
				</extensions>
			</trkpt>
			<trkpt lat="53.25677486" lon="-8.93029315">
				<ele>68.0</ele>
				<time>2014-08-17T14:36:42Z</time>
				<extensions>
					<speed>0.25</speed>
				</extensions>
			</trkpt>
			<trkpt lat="53.25677322" lon="-8.93029654">
				<ele>69.0</ele>
				<time>2014-08-17T14:36:43Z</time>
				<extensions>
					<speed>0.0</speed>
				</extensions>
			</trkpt>
			<trkpt lat="53.25676827" lon="-8.93029802">
				<ele>68.0</ele>
				<time>2014-08-17T14:36:44Z</time>
				<extensions>
					<speed>0.0</speed>
				</extensions>
			</trkpt>
			<trkpt lat="53.2567694" lon="-8.93029292">
				<ele>68.0</ele>
				<time>2014-08-17T14:36:45Z</time>
				<extensions>
					<speed>0.0</speed>
				</extensions>
			</trkpt>
			<trkpt lat="53.25676565" lon="-8.93029302">
				<ele>69.0</ele>
				<time>2014-08-17T14:36:46Z</time>
				<extensions>
					<speed>0.0</speed>
				</extensions>
			</trkpt>
			<trkpt lat="53.25676468" lon="-8.93029184">
				<ele>69.0</ele>
				<time>2014-08-17T14:36:47Z</time>
				<extensions>
					<speed>0.0</speed>
				</extensions>
			</trkpt>
			<trkpt lat="53.25676432" lon="-8.93028825">
				<ele>69.0</ele>
				<time>2014-08-17T14:36:48Z</time>
				<extensions>
					<speed>0.0</speed>
				</extensions>
			</trkpt>
			<trkpt lat="53.25676115" lon="-8.93028742">
				<ele>70.0</ele>
				<time>2014-08-17T14:36:49Z</time>
				<extensions>
					<speed>0.0</speed>
				</extensions>
			</trkpt>
			<trkpt lat="53.25676084" lon="-8.93029127">
				<ele>70.0</ele>
				<time>2014-08-17T14:36:50Z</time>
				<extensions>
					<speed>0.0</speed>
				</extensions>
			</trkpt>
			<trkpt lat="53.25676032" lon="-8.93028649">
				<ele>70.0</ele>
				<time>2014-08-17T14:36:51Z</time>
				<extensions>
					<speed>0.0</speed>
				</extensions>
			</trkpt>
			<trkpt lat="53.25676066" lon="-8.93028826">
				<ele>71.0</ele>
				<time>2014-08-17T14:36:52Z</time>
				<extensions>
					<speed>0.0</speed>
				</extensions>
			</trkpt>
			<trkpt lat="53.25676037" lon="-8.93028917">
				<ele>71.0</ele>
				<time>2014-08-17T14:36:53Z</time>
				<extensions>
					<speed>0.0</speed>
				</extensions>
			</trkpt>
			<trkpt lat="53.25676068" lon="-8.93028929">
				<ele>71.0</ele>
				<time>2014-08-17T14:36:54Z</time>
				<extensions>
					<speed>0.0</speed>
				</extensions>
			</trkpt>
			<trkpt lat="53.25676038" lon="-8.93028924">
				<ele>71.0</ele>
				<time>2014-08-17T14:36:55Z</time>
				<extensions>
					<speed>0.0</speed>
				</extensions>
			</trkpt>
			<trkpt lat="53.25676055" lon="-8.93028917">
				<ele>71.0</ele>
				<time>2014-08-17T14:36:56Z</time>
				<extensions>
					<speed>0.0</speed>
				</extensions>
			</trkpt>
			<trkpt lat="53.25676058" lon="-8.93028918">
				<ele>71.0</ele>
				<time>2014-08-17T14:36:57Z</time>
				<extensions>
					<speed>0.0</speed>
				</extensions>
			</trkpt>
			<trkpt lat="53.25676059" lon="-8.93028922">
				<ele>71.0</ele>
				<time>2014-08-17T14:36:58Z</time>
				<extensions>
					<speed>0.0</speed>
				</extensions>
			</trkpt>
			<trkpt lat="53.25676061" lon="-8.93028926">
				<ele>71.0</ele>
				<time>2014-08-17T14:36:59Z</time>
				<extensions>
					<speed>0.0</speed>
				</extensions>
			</trkpt>
			<trkpt lat="53.25676066" lon="-8.93028923">
				<ele>71.0</ele>
				<time>2014-08-17T14:37:00Z</time>
				<extensions>
					<speed>0.0</speed>
				</extensions>
			</trkpt>
			<trkpt lat="53.25676065" lon="-8.93028925">
				<ele>71.0</ele>
				<time>2014-08-17T14:37:01Z</time>
				<extensions>
					<speed>0.0</speed>
				</extensions>
			</trkpt>
			<trkpt lat="53.25676064" lon="-8.93028926">
				<ele>71.0</ele>
				<time>2014-08-17T14:37:02Z</time>
				<extensions>
					<speed>0.0</speed>
				</extensions>
			</trkpt>
			<trkpt lat="53.25676062" lon="-8.93028926">
				<ele>71.0</ele>
				<time>2014-08-17T14:37:03Z</time>
				<extensions>
					<speed>0.0</speed>
				</extensions>
			</trkpt>
			<trkpt lat="53.25676062" lon="-8.93028926">
				<ele>71.0</ele>
				<time>2014-08-17T14:37:04Z</time>
				<extensions>
					<speed>0.0</speed>
				</extensions>
			</trkpt>
			<trkpt lat="53.25676062" lon="-8.93028926">
				<ele>71.0</ele>
				<time>2014-08-17T14:37:05Z</time>
				<extensions>
					<speed>0.0</speed>
				</extensions>
			</trkpt>
			<trkpt lat="53.2567598" lon="-8.93029307">
				<ele>71.0</ele>
				<time>2014-08-17T14:37:06Z</time>
				<extensions>
					<speed>1.0</speed>
				</extensions>
			</trkpt>
			<trkpt lat="53.25676407" lon="-8.93031">
				<ele>70.0</ele>
				<time>2014-08-17T14:37:07Z</time>
				<extensions>
					<speed>1.25</speed>
				</extensions>
			</trkpt>
			<trkpt lat="53.25675518" lon="-8.93032636">
				<ele>69.0</ele>
				<time>2014-08-17T14:37:08Z</time>
				<extensions>
					<speed>1.0</speed>
				</extensions>
			</trkpt>
			<trkpt lat="53.25675583" lon="-8.93034341">
				<ele>69.0</ele>
				<time>2014-08-17T14:37:09Z</time>
				<extensions>
					<speed>0.25</speed>
				</extensions>
			</trkpt>
			<trkpt lat="53.25675322" lon="-8.93034696">
				<ele>70.0</ele>
				<time>2014-08-17T14:37:10Z</time>
				<extensions>
					<speed>0.0</speed>
				</extensions>
			</trkpt>
			<trkpt lat="53.25675432" lon="-8.93034809">
				<ele>69.0</ele>
				<time>2014-08-17T14:37:11Z</time>
				<extensions>
					<speed>0.0</speed>
				</extensions>
			</trkpt>
			<trkpt lat="53.25675216" lon="-8.9303514">
				<ele>70.0</ele>
				<time>2014-08-17T14:37:12Z</time>
				<extensions>
					<speed>0.0</speed>
				</extensions>
			</trkpt>
			<trkpt lat="53.25675569" lon="-8.9303479">
				<ele>70.0</ele>
				<time>2014-08-17T14:37:13Z</time>
				<extensions>
					<speed>0.0</speed>
				</extensions>
			</trkpt>
			<trkpt lat="53.25675802" lon="-8.93034606">
				<ele>69.0</ele>
				<time>2014-08-17T14:37:14Z</time>
				<extensions>
					<speed>0.0</speed>
				</extensions>
			</trkpt>
			<trkpt lat="53.2567584" lon="-8.93034829">
				<ele>69.0</ele>
				<time>2014-08-17T14:37:15Z</time>
				<extensions>
					<speed>0.0</speed>
				</extensions>
			</trkpt>
			<trkpt lat="53.25675971" lon="-8.93034948">
				<ele>69.0</ele>
				<time>2014-08-17T14:37:16Z</time>
				<extensions>
					<speed>0.0</speed>
				</extensions>
			</trkpt>
			<trkpt lat="53.25675954" lon="-8.93035027">
				<ele>69.0</ele>
				<time>2014-08-17T14:37:17Z</time>
				<extensions>
					<speed>0.0</speed>
				</extensions>
			</trkpt>
			<trkpt lat="53.25676365" lon="-8.93034849">
				<ele>69.0</ele>
				<time>2014-08-17T14:37:18Z</time>
				<extensions>
					<speed>0.0</speed>
				</extensions>
			</trkpt>
			<trkpt lat="53.25676333" lon="-8.9303512">
				<ele>69.0</ele>
				<time>2014-08-17T14:37:19Z</time>
				<extensions>
					<speed>1.25</speed>
				</extensions>
			</trkpt>
			<trkpt lat="53.25675804" lon="-8.9303818">
				<ele>70.0</ele>
				<time>2014-08-17T14:37:20Z</time>
				<extensions>
					<speed>2.0</speed>
				</extensions>
			</trkpt>
			<trkpt lat="53.25675766" lon="-8.93041253">
				<ele>70.0</ele>
				<time>2014-08-17T14:37:21Z</time>
				<extensions>
					<speed>2.0</speed>
				</extensions>
			</trkpt>
			<trkpt lat="53.25675728" lon="-8.93044326">
				<ele>69.0</ele>
				<time>2014-08-17T14:37:22Z</time>
				<extensions>
					<speed>2.0</speed>
				</extensions>
			</trkpt>
			<trkpt lat="53.25673463" lon="-8.93052517">
				<ele>70.0</ele>
				<time>2014-08-17T14:37:23Z</time>
				<extensions>
					<speed>3.75</speed>
				</extensions>
			</trkpt>
			<trkpt lat="53.25672969" lon="-8.93058658">
				<ele>70.0</ele>
				<time>2014-08-17T14:37:24Z</time>
				<extensions>
					<speed>3.75</speed>
				</extensions>
			</trkpt>
			<trkpt lat="53.25672854" lon="-8.93064807">
				<ele>70.0</ele>
				<time>2014-08-17T14:37:25Z</time>
				<extensions>
					<speed>3.75</speed>
				</extensions>
			</trkpt>
			<trkpt lat="53.25672293" lon="-8.93068759">
				<ele>70.0</ele>
				<time>2014-08-17T14:37:26Z</time>
				<extensions>
					<speed>4.5</speed>
				</extensions>
			</trkpt>
			<trkpt lat="53.2567107" lon="-8.93075829">
				<ele>69.0</ele>
				<time>2014-08-17T14:37:27Z</time>
				<extensions>
					<speed>4.5</speed>
				</extensions>
			</trkpt>
			<trkpt lat="53.25670245" lon="-8.93082841">
				<ele>69.0</ele>
				<time>2014-08-17T14:37:28Z</time>
				<extensions>
					<speed>5.0</speed>
				</extensions>
			</trkpt>
			<trkpt lat="53.25669134" lon="-8.93089529">
				<ele>69.0</ele>
				<time>2014-08-17T14:37:29Z</time>
				<extensions>
					<speed>5.5</speed>
				</extensions>
			</trkpt>
			<trkpt lat="53.25668009" lon="-8.93097129">
				<ele>69.0</ele>
				<time>2014-08-17T14:37:30Z</time>
				<extensions>
					<speed>5.25</speed>
				</extensions>
			</trkpt>
			<trkpt lat="53.25666637" lon="-8.93104986">
				<ele>68.0</ele>
				<time>2014-08-17T14:37:31Z</time>
				<extensions>
					<speed>5.25</speed>
				</extensions>
			</trkpt>
			<trkpt lat="53.25665239" lon="-8.93113055">
				<ele>68.0</ele>
				<time>2014-08-17T14:37:32Z</time>
				<extensions>
					<speed>5.0</speed>
				</extensions>
			</trkpt>
			<trkpt lat="53.25663656" lon="-8.93120911">
				<ele>67.0</ele>
				<time>2014-08-17T14:37:33Z</time>
				<extensions>
					<speed>5.0</speed>
				</extensions>
			</trkpt>
			<trkpt lat="53.2566219" lon="-8.93127261">
				<ele>68.0</ele>
				<time>2014-08-17T14:37:34Z</time>
				<extensions>
					<speed>4.25</speed>
				</extensions>
			</trkpt>
			<trkpt lat="53.25661123" lon="-8.9313317">
				<ele>67.0</ele>
				<time>2014-08-17T14:37:35Z</time>
				<extensions>
					<speed>3.75</speed>
				</extensions>
			</trkpt>
			<trkpt lat="53.25659986" lon="-8.93138194">
				<ele>67.0</ele>
				<time>2014-08-17T14:37:36Z</time>
				<extensions>
					<speed>3.25</speed>
				</extensions>
			</trkpt>
			<trkpt lat="53.25658762" lon="-8.93141688">
				<ele>67.0</ele>
				<time>2014-08-17T14:37:37Z</time>
				<extensions>
					<speed>2.5</speed>
				</extensions>
			</trkpt>
			<trkpt lat="53.25657717" lon="-8.93144855">
				<ele>67.0</ele>
				<time>2014-08-17T14:37:38Z</time>
				<extensions>
					<speed>2.0</speed>
				</extensions>
			</trkpt>
			<trkpt lat="53.256568" lon="-8.93147001">
				<ele>67.0</ele>
				<time>2014-08-17T14:37:39Z</time>
				<extensions>
					<speed>1.0</speed>
				</extensions>
			</trkpt>
			<trkpt lat="53.25656625" lon="-8.93147402">
				<ele>67.0</ele>
				<time>2014-08-17T14:37:40Z</time>
				<extensions>
					<speed>0.0</speed>
				</extensions>
			</trkpt>
			<trkpt lat="53.25656656" lon="-8.93147525">
				<ele>67.0</ele>
				<time>2014-08-17T14:37:41Z</time>
				<extensions>
					<speed>0.0</speed>
				</extensions>
			</trkpt>
			<trkpt lat="53.25656364" lon="-8.93147716">
				<ele>67.0</ele>
				<time>2014-08-17T14:37:42Z</time>
				<extensions>
					<speed>0.0</speed>
				</extensions>
			</trkpt>
			<trkpt lat="53.25656329" lon="-8.93147512">
				<ele>67.0</ele>
				<time>2014-08-17T14:37:43Z</time>
				<extensions>
					<speed>0.0</speed>
				</extensions>
			</trkpt>
			<trkpt lat="53.25656108" lon="-8.93147544">
				<ele>67.0</ele>
				<time>2014-08-17T14:37:44Z</time>
				<extensions>
					<speed>0.0</speed>
				</extensions>
			</trkpt>
			<trkpt lat="53.25655991" lon="-8.9314768">
				<ele>67.0</ele>
				<time>2014-08-17T14:37:45Z</time>
				<extensions>
					<speed>0.0</speed>
				</extensions>
			</trkpt>
			<trkpt lat="53.25656288" lon="-8.93147599">
				<ele>66.0</ele>
				<time>2014-08-17T14:37:46Z</time>
				<extensions>
					<speed>0.0</speed>
				</extensions>
			</trkpt>
			<trkpt lat="53.25656342" lon="-8.93147679">
				<ele>66.0</ele>
				<time>2014-08-17T14:37:47Z</time>
				<extensions>
					<speed>0.0</speed>
				</extensions>
			</trkpt>
			<trkpt lat="53.25656473" lon="-8.93147707">
				<ele>66.0</ele>
				<time>2014-08-17T14:37:48Z</time>
				<extensions>
					<speed>0.0</speed>
				</extensions>
			</trkpt>
			<trkpt lat="53.25656454" lon="-8.9314777">
				<ele>66.0</ele>
				<time>2014-08-17T14:37:49Z</time>
				<extensions>
					<speed>0.0</speed>
				</extensions>
			</trkpt>
			<trkpt lat="53.25656491" lon="-8.93147646">
				<ele>66.0</ele>
				<time>2014-08-17T14:37:50Z</time>
				<extensions>
					<speed>0.75</speed>
				</extensions>
			</trkpt>
			<trkpt lat="53.25656766" lon="-8.93147642">
				<ele>66.0</ele>
				<time>2014-08-17T14:37:51Z</time>
				<extensions>
					<speed>0.0</speed>
				</extensions>
			</trkpt>
			<trkpt lat="53.2565651" lon="-8.93148126">
				<ele>66.0</ele>
				<time>2014-08-17T14:37:52Z</time>
				<extensions>
					<speed>0.0</speed>
				</extensions>
			</trkpt>
			<trkpt lat="53.25656831" lon="-8.93147376">
				<ele>66.0</ele>
				<time>2014-08-17T14:37:53Z</time>
				<extensions>
					<speed>0.0</speed>
				</extensions>
			</trkpt>
			<trkpt lat="53.25656761" lon="-8.93147683">
				<ele>66.0</ele>
				<time>2014-08-17T14:37:54Z</time>
				<extensions>
					<speed>1.75</speed>
				</extensions>
			</trkpt>
			<trkpt lat="53.25656231" lon="-8.93150008">
				<ele>66.0</ele>
				<time>2014-08-17T14:37:55Z</time>
				<extensions>
					<speed>1.75</speed>
				</extensions>
			</trkpt>
			<trkpt lat="53.25655702" lon="-8.93152333">
				<ele>66.0</ele>
				<time>2014-08-17T14:37:56Z</time>
				<extensions>
					<speed>1.75</speed>
				</extensions>
			</trkpt>
			<trkpt lat="53.25658501" lon="-8.93156075">
				<ele>66.0</ele>
				<time>2014-08-17T14:37:57Z</time>
				<extensions>
					<speed>2.75</speed>
				</extensions>
			</trkpt>
			<trkpt lat="53.25660712" lon="-8.93157549">
				<ele>67.0</ele>
				<time>2014-08-17T14:37:58Z</time>
				<extensions>
					<speed>1.75</speed>
				</extensions>
			</trkpt>
			<trkpt lat="53.25661415" lon="-8.93157956">
				<ele>67.0</ele>
				<time>2014-08-17T14:37:59Z</time>
				<extensions>
					<speed>0.25</speed>
				</extensions>
			</trkpt>
			<trkpt lat="53.25661546" lon="-8.93158209">
				<ele>67.0</ele>
				<time>2014-08-17T14:38:00Z</time>
				<extensions>
					<speed>0.0</speed>
				</extensions>
			</trkpt>
			<trkpt lat="53.25661415" lon="-8.93158065">
				<ele>67.0</ele>
				<time>2014-08-17T14:38:01Z</time>
				<extensions>
					<speed>1.25</speed>
				</extensions>
			</trkpt>
			<trkpt lat="53.2566033" lon="-8.93157318">
				<ele>66.0</ele>
				<time>2014-08-17T14:38:02Z</time>
				<extensions>
					<speed>1.75</speed>
				</extensions>
			</trkpt>
			<trkpt lat="53.25659096" lon="-8.93156798">
				<ele>66.0</ele>
				<time>2014-08-17T14:38:03Z</time>
				<extensions>
					<speed>1.25</speed>
				</extensions>
			</trkpt>
			<trkpt lat="53.25658352" lon="-8.93156557">
				<ele>66.0</ele>
				<time>2014-08-17T14:38:04Z</time>
				<extensions>
					<speed>1.0</speed>
				</extensions>
			</trkpt>
			<trkpt lat="53.25657813" lon="-8.93155352">
				<ele>66.0</ele>
				<time>2014-08-17T14:38:05Z</time>
				<extensions>
					<speed>0.25</speed>
				</extensions>
			</trkpt>
			<trkpt lat="53.2565829" lon="-8.93155332">
				<ele>65.0</ele>
				<time>2014-08-17T14:38:06Z</time>
				<extensions>
					<speed>0.0</speed>
				</extensions>
			</trkpt>
			<trkpt lat="53.25658487" lon="-8.93155246">
				<ele>65.0</ele>
				<time>2014-08-17T14:38:07Z</time>
				<extensions>
					<speed>1.75</speed>
				</extensions>
			</trkpt>
			<trkpt lat="53.25660337" lon="-8.93153711">
				<ele>65.0</ele>
				<time>2014-08-17T14:38:08Z</time>
				<extensions>
					<speed>2.5</speed>
				</extensions>
			</trkpt>
			<trkpt lat="53.25662008" lon="-8.93150184">
				<ele>65.0</ele>
				<time>2014-08-17T14:38:09Z</time>
				<extensions>
					<speed>3.5</speed>
				</extensions>
			</trkpt>
			<trkpt lat="53.25663292" lon="-8.93144701">
				<ele>65.0</ele>
				<time>2014-08-17T14:38:10Z</time>
				<extensions>
					<speed>4.25</speed>
				</extensions>
			</trkpt>
			<trkpt lat="53.25664661" lon="-8.93138682">
				<ele>66.0</ele>
				<time>2014-08-17T14:38:11Z</time>
				<extensions>
					<speed>4.25</speed>
				</extensions>
			</trkpt>
			<trkpt lat="53.25666362" lon="-8.93131313">
				<ele>66.0</ele>
				<time>2014-08-17T14:38:12Z</time>
				<extensions>
					<speed>5.0</speed>
				</extensions>
			</trkpt>
			<trkpt lat="53.25667959" lon="-8.93123543">
				<ele>66.0</ele>
				<time>2014-08-17T14:38:13Z</time>
				<extensions>
					<speed>6.0</speed>
				</extensions>
			</trkpt>
			<trkpt lat="53.25669803" lon="-8.93114399">
				<ele>67.0</ele>
				<time>2014-08-17T14:38:14Z</time>
				<extensions>
					<speed>6.5</speed>
				</extensions>
			</trkpt>
			<trkpt lat="53.2567155" lon="-8.93105656">
				<ele>66.0</ele>
				<time>2014-08-17T14:38:15Z</time>
				<extensions>
					<speed>6.75</speed>
				</extensions>
			</trkpt>
			<trkpt lat="53.25673465" lon="-8.93096142">
				<ele>67.0</ele>
				<time>2014-08-17T14:38:16Z</time>
				<extensions>
					<speed>7.0</speed>
				</extensions>
			</trkpt>
			<trkpt lat="53.25675602" lon="-8.9308632">
				<ele>67.0</ele>
				<time>2014-08-17T14:38:17Z</time>
				<extensions>
					<speed>6.75</speed>
				</extensions>
			</trkpt>
			<trkpt lat="53.25677987" lon="-8.93077286">
				<ele>67.0</ele>
				<time>2014-08-17T14:38:18Z</time>
				<extensions>
					<speed>6.5</speed>
				</extensions>
			</trkpt>
			<trkpt lat="53.25679714" lon="-8.93067729">
				<ele>67.0</ele>
				<time>2014-08-17T14:38:19Z</time>
				<extensions>
					<speed>6.25</speed>
				</extensions>
			</trkpt>
			<trkpt lat="53.2568161" lon="-8.93058525">
				<ele>67.0</ele>
				<time>2014-08-17T14:38:20Z</time>
				<extensions>
					<speed>6.75</speed>
				</extensions>
			</trkpt>
			<trkpt lat="53.25682731" lon="-8.93047751">
				<ele>68.0</ele>
				<time>2014-08-17T14:38:21Z</time>
				<extensions>
					<speed>6.75</speed>
				</extensions>
			</trkpt>
			<trkpt lat="53.25683803" lon="-8.93037448">
				<ele>67.0</ele>
				<time>2014-08-17T14:38:22Z</time>
				<extensions>
					<speed>6.25</speed>
				</extensions>
			</trkpt>
			<trkpt lat="53.25683051" lon="-8.93028233">
				<ele>67.0</ele>
				<time>2014-08-17T14:38:23Z</time>
				<extensions>
					<speed>6.25</speed>
				</extensions>
			</trkpt>
			<trkpt lat="53.25682962" lon="-8.93019486">
				<ele>67.0</ele>
				<time>2014-08-17T14:38:24Z</time>
				<extensions>
					<speed>5.75</speed>
				</extensions>
			</trkpt>
			<trkpt lat="53.25682792" lon="-8.9301124">
				<ele>67.0</ele>
				<time>2014-08-17T14:38:25Z</time>
				<extensions>
					<speed>5.0</speed>
				</extensions>
			</trkpt>
			<trkpt lat="53.2568081" lon="-8.93006243">
				<ele>67.0</ele>
				<time>2014-08-17T14:38:26Z</time>
				<extensions>
					<speed>4.5</speed>
				</extensions>
			</trkpt>
			<trkpt lat="53.25676641" lon="-8.93002542">
				<ele>67.0</ele>
				<time>2014-08-17T14:38:27Z</time>
				<extensions>
					<speed>5.25</speed>
				</extensions>
			</trkpt>
			<trkpt lat="53.2567173" lon="-8.93001248">
				<ele>67.0</ele>
				<time>2014-08-17T14:38:28Z</time>
				<extensions>
					<speed>6.0</speed>
				</extensions>
			</trkpt>
			<trkpt lat="53.2566642" lon="-8.93001177">
				<ele>67.0</ele>
				<time>2014-08-17T14:38:29Z</time>
				<extensions>
					<speed>6.25</speed>
				</extensions>
			</trkpt>
			<trkpt lat="53.25660069" lon="-8.9300128">
				<ele>67.0</ele>
				<time>2014-08-17T14:38:30Z</time>
				<extensions>
					<speed>6.75</speed>
				</extensions>
			</trkpt>
			<trkpt lat="53.25654464" lon="-8.93000576">
				<ele>68.0</ele>
				<time>2014-08-17T14:38:31Z</time>
				<extensions>
					<speed>6.75</speed>
				</extensions>
			</trkpt>
			<trkpt lat="53.25648319" lon="-8.9299878">
				<ele>69.0</ele>
				<time>2014-08-17T14:38:32Z</time>
				<extensions>
					<speed>7.0</speed>
				</extensions>
			</trkpt>
			<trkpt lat="53.25641894" lon="-8.92998631">
				<ele>69.0</ele>
				<time>2014-08-17T14:38:33Z</time>
				<extensions>
					<speed>7.25</speed>
				</extensions>
			</trkpt>
			<trkpt lat="53.25635565" lon="-8.92998669">
				<ele>70.0</ele>
				<time>2014-08-17T14:38:34Z</time>
				<extensions>
					<speed>6.5</speed>
				</extensions>
			</trkpt>
			<trkpt lat="53.25629661" lon="-8.9299798">
				<ele>70.0</ele>
				<time>2014-08-17T14:38:35Z</time>
				<extensions>
					<speed>6.5</speed>
				</extensions>
			</trkpt>
			<trkpt lat="53.25626179" lon="-8.9299741">
				<ele>70.0</ele>
				<time>2014-08-17T14:38:36Z</time>
				<extensions>
					<speed>4.75</speed>
				</extensions>
			</trkpt>
			<trkpt lat="53.25623332" lon="-8.92996321">
				<ele>71.0</ele>
				<time>2014-08-17T14:38:37Z</time>
				<extensions>
					<speed>3.5</speed>
				</extensions>
			</trkpt>
			<trkpt lat="53.25619515" lon="-8.92995369">
				<ele>71.0</ele>
				<time>2014-08-17T14:38:38Z</time>
				<extensions>
					<speed>2.75</speed>
				</extensions>
			</trkpt>
			<trkpt lat="53.25618069" lon="-8.9299117">
				<ele>71.0</ele>
				<time>2014-08-17T14:38:39Z</time>
				<extensions>
					<speed>3.0</speed>
				</extensions>
			</trkpt>
			<trkpt lat="53.25615715" lon="-8.92987364">
				<ele>71.0</ele>
				<time>2014-08-17T14:38:40Z</time>
				<extensions>
					<speed>3.5</speed>
				</extensions>
			</trkpt>
			<trkpt lat="53.25615561" lon="-8.92981631">
				<ele>71.0</ele>
				<time>2014-08-17T14:38:41Z</time>
				<extensions>
					<speed>3.75</speed>
				</extensions>
			</trkpt>
			<trkpt lat="53.25615304" lon="-8.92975388">
				<ele>72.0</ele>
				<time>2014-08-17T14:38:42Z</time>
				<extensions>
					<speed>4.25</speed>
				</extensions>
			</trkpt>
			<trkpt lat="53.25615926" lon="-8.92968755">
				<ele>72.0</ele>
				<time>2014-08-17T14:38:43Z</time>
				<extensions>
					<speed>4.5</speed>
				</extensions>
			</trkpt>
			<trkpt lat="53.25615822" lon="-8.92961387">
				<ele>72.0</ele>
				<time>2014-08-17T14:38:44Z</time>
				<extensions>
					<speed>4.5</speed>
				</extensions>
			</trkpt>
			<trkpt lat="53.25615865" lon="-8.92955511">
				<ele>72.0</ele>
				<time>2014-08-17T14:38:45Z</time>
				<extensions>
					<speed>4.0</speed>
				</extensions>
			</trkpt>
			<trkpt lat="53.25616236" lon="-8.92949138">
				<ele>72.0</ele>
				<time>2014-08-17T14:38:46Z</time>
				<extensions>
					<speed>3.75</speed>
				</extensions>
			</trkpt>
			<trkpt lat="53.25616395" lon="-8.92944054">
				<ele>72.0</ele>
				<time>2014-08-17T14:38:47Z</time>
				<extensions>
					<speed>3.5</speed>
				</extensions>
			</trkpt>
			<trkpt lat="53.25616192" lon="-8.92939779">
				<ele>72.0</ele>
				<time>2014-08-17T14:38:48Z</time>
				<extensions>
					<speed>3.0</speed>
				</extensions>
			</trkpt>
			<trkpt lat="53.25616028" lon="-8.9293544">
				<ele>73.0</ele>
				<time>2014-08-17T14:38:49Z</time>
				<extensions>
					<speed>2.5</speed>
				</extensions>
			</trkpt>
			<trkpt lat="53.25615452" lon="-8.92932448">
				<ele>72.0</ele>
				<time>2014-08-17T14:38:50Z</time>
				<extensions>
					<speed>2.0</speed>
				</extensions>
			</trkpt>
			<trkpt lat="53.25614787" lon="-8.92929789">
				<ele>72.0</ele>
				<time>2014-08-17T14:38:51Z</time>
				<extensions>
					<speed>2.0</speed>
				</extensions>
			</trkpt>
			<trkpt lat="53.25614135" lon="-8.9292924">
				<ele>72.0</ele>
				<time>2014-08-17T14:38:52Z</time>
				<extensions>
					<speed>1.0</speed>
				</extensions>
			</trkpt>
			<trkpt lat="53.25613718" lon="-8.92929395">
				<ele>73.0</ele>
				<time>2014-08-17T14:38:53Z</time>
				<extensions>
					<speed>0.0</speed>
				</extensions>
			</trkpt>
			<trkpt lat="53.25613895" lon="-8.92929498">
				<ele>74.0</ele>
				<time>2014-08-17T14:38:54Z</time>
				<extensions>
					<speed>0.0</speed>
				</extensions>
			</trkpt>
			<trkpt lat="53.25614359" lon="-8.92929254">
				<ele>74.0</ele>
				<time>2014-08-17T14:38:55Z</time>
				<extensions>
					<speed>0.0</speed>
				</extensions>
			</trkpt>
			<trkpt lat="53.25614224" lon="-8.9292942">
				<ele>74.0</ele>
				<time>2014-08-17T14:38:56Z</time>
				<extensions>
					<speed>0.0</speed>
				</extensions>
			</trkpt>
			<trkpt lat="53.2561415" lon="-8.92929391">
				<ele>74.0</ele>
				<time>2014-08-17T14:38:57Z</time>
				<extensions>
					<speed>0.0</speed>
				</extensions>
			</trkpt>
			<trkpt lat="53.25614331" lon="-8.9292958">
				<ele>74.0</ele>
				<time>2014-08-17T14:38:58Z</time>
				<extensions>
					<speed>0.0</speed>
				</extensions>
			</trkpt>
			<trkpt lat="53.25614104" lon="-8.92929597">
				<ele>73.0</ele>
				<time>2014-08-17T14:38:59Z</time>
				<extensions>
					<speed>0.0</speed>
				</extensions>
			</trkpt>
			<trkpt lat="53.25614235" lon="-8.92929503">
				<ele>73.0</ele>
				<time>2014-08-17T14:39:00Z</time>
				<extensions>
					<speed>0.0</speed>
				</extensions>
			</trkpt>
			<trkpt lat="53.25614002" lon="-8.92929725">
				<ele>73.0</ele>
				<time>2014-08-17T14:39:01Z</time>
				<extensions>
					<speed>0.0</speed>
				</extensions>
			</trkpt>
			<trkpt lat="53.25614207" lon="-8.92929412">
				<ele>73.0</ele>
				<time>2014-08-17T14:39:02Z</time>
				<extensions>
					<speed>0.0</speed>
				</extensions>
			</trkpt>
			<trkpt lat="53.25614115" lon="-8.92929335">
				<ele>72.0</ele>
				<time>2014-08-17T14:39:03Z</time>
				<extensions>
					<speed>0.0</speed>
				</extensions>
			</trkpt>
			<trkpt lat="53.25614131" lon="-8.9292926">
				<ele>72.0</ele>
				<time>2014-08-17T14:39:04Z</time>
				<extensions>
					<speed>0.0</speed>
				</extensions>
			</trkpt>
			<trkpt lat="53.25614115" lon="-8.92929256">
				<ele>72.0</ele>
				<time>2014-08-17T14:39:05Z</time>
				<extensions>
					<speed>0.0</speed>
				</extensions>
			</trkpt>
			<trkpt lat="53.25614114" lon="-8.92929253">
				<ele>72.0</ele>
				<time>2014-08-17T14:39:06Z</time>
				<extensions>
					<speed>0.0</speed>
				</extensions>
			</trkpt>
			<trkpt lat="53.25614111" lon="-8.92929247">
				<ele>72.0</ele>
				<time>2014-08-17T14:39:07Z</time>
				<extensions>
					<speed>0.0</speed>
				</extensions>
			</trkpt>
			<trkpt lat="53.2561411" lon="-8.92929251">
				<ele>72.0</ele>
				<time>2014-08-17T14:39:08Z</time>
				<extensions>
					<speed>0.0</speed>
				</extensions>
			</trkpt>
			<trkpt lat="53.2561411" lon="-8.92929249">
				<ele>72.0</ele>
				<time>2014-08-17T14:39:09Z</time>
				<extensions>
					<speed>0.0</speed>
				</extensions>
			</trkpt>
			<trkpt lat="53.25614112" lon="-8.92929247">
				<ele>72.0</ele>
				<time>2014-08-17T14:39:10Z</time>
				<extensions>
					<speed>0.0</speed>
				</extensions>
			</trkpt>
			<trkpt lat="53.25614111" lon="-8.92929247">
				<ele>72.0</ele>
				<time>2014-08-17T14:39:11Z</time>
				<extensions>
					<speed>0.0</speed>
				</extensions>
			</trkpt>
			<trkpt lat="53.25614112" lon="-8.92929244">
				<ele>72.0</ele>
				<time>2014-08-17T14:39:12Z</time>
				<extensions>
					<speed>0.0</speed>
				</extensions>
			</trkpt>
			<trkpt lat="53.25614109" lon="-8.92929252">
				<ele>72.0</ele>
				<time>2014-08-17T14:39:13Z</time>
				<extensions>
					<speed>0.0</speed>
				</extensions>
			</trkpt>
			<trkpt lat="53.25614109" lon="-8.92929252">
				<ele>72.0</ele>
				<time>2014-08-17T14:39:14Z</time>
				<extensions>
					<speed>0.0</speed>
				</extensions>
			</trkpt>
			<trkpt lat="53.25614109" lon="-8.92929251">
				<ele>72.0</ele>
				<time>2014-08-17T14:39:15Z</time>
				<extensions>
					<speed>0.0</speed>
				</extensions>
			</trkpt>
			<trkpt lat="53.25614107" lon="-8.92929253">
				<ele>72.0</ele>
				<time>2014-08-17T14:39:16Z</time>
				<extensions>
					<speed>0.0</speed>
				</extensions>
			</trkpt>
			<trkpt lat="53.25614106" lon="-8.92929252">
				<ele>72.0</ele>
				<time>2014-08-17T14:39:17Z</time>
				<extensions>
					<speed>0.0</speed>
				</extensions>
			</trkpt>
			<trkpt lat="53.2561411" lon="-8.92929253">
				<ele>72.0</ele>
				<time>2014-08-17T14:39:18Z</time>
				<extensions>
					<speed>0.0</speed>
				</extensions>
			</trkpt>
			<trkpt lat="53.2561411" lon="-8.92929255">
				<ele>72.0</ele>
				<time>2014-08-17T14:39:19Z</time>
				<extensions>
					<speed>0.0</speed>
				</extensions>
			</trkpt>
			<trkpt lat="53.25614111" lon="-8.92929256">
				<ele>72.0</ele>
				<time>2014-08-17T14:39:20Z</time>
				<extensions>
					<speed>0.0</speed>
				</extensions>
			</trkpt>
			<trkpt lat="53.25614112" lon="-8.92929255">
				<ele>72.0</ele>
				<time>2014-08-17T14:39:21Z</time>
				<extensions>
					<speed>0.0</speed>
				</extensions>
			</trkpt>
			<trkpt lat="53.25614115" lon="-8.92929255">
				<ele>72.0</ele>
				<time>2014-08-17T14:39:22Z</time>
				<extensions>
					<speed>0.0</speed>
				</extensions>
			</trkpt>
			<trkpt lat="53.25614111" lon="-8.92929259">
				<ele>72.0</ele>
				<time>2014-08-17T14:39:23Z</time>
				<extensions>
					<speed>0.0</speed>
				</extensions>
			</trkpt>
			<trkpt lat="53.25614109" lon="-8.92929259">
				<ele>72.0</ele>
				<time>2014-08-17T14:39:24Z</time>
				<extensions>
					<speed>0.0</speed>
				</extensions>
			</trkpt>
			<trkpt lat="53.25614111" lon="-8.92929259">
				<ele>72.0</ele>
				<time>2014-08-17T14:39:25Z</time>
				<extensions>
					<speed>0.0</speed>
				</extensions>
			</trkpt>
			<trkpt lat="53.25614113" lon="-8.92929259">
				<ele>72.0</ele>
				<time>2014-08-17T14:39:26Z</time>
				<extensions>
					<speed>0.0</speed>
				</extensions>
			</trkpt>
			<trkpt lat="53.25614113" lon="-8.92929259">
				<ele>72.0</ele>
				<time>2014-08-17T14:39:27Z</time>
				<extensions>
					<speed>0.0</speed>
				</extensions>
			</trkpt>
			<trkpt lat="53.25614114" lon="-8.9292926">
				<ele>72.0</ele>
				<time>2014-08-17T14:39:28Z</time>
				<extensions>
					<speed>0.0</speed>
				</extensions>
			</trkpt>
			<trkpt lat="53.25614119" lon="-8.92929257">
				<ele>72.0</ele>
				<time>2014-08-17T14:39:29Z</time>
				<extensions>
					<speed>0.0</speed>
				</extensions>
			</trkpt>
			<trkpt lat="53.25614121" lon="-8.92929254">
				<ele>72.0</ele>
				<time>2014-08-17T14:39:30Z</time>
				<extensions>
					<speed>0.0</speed>
				</extensions>
			</trkpt>
			<trkpt lat="53.25614087" lon="-8.92929161">
				<ele>72.0</ele>
				<time>2014-08-17T14:39:31Z</time>
				<extensions>
					<speed>0.5</speed>
				</extensions>
			</trkpt>
			<trkpt lat="53.25614528" lon="-8.92928891">
				<ele>72.0</ele>
				<time>2014-08-17T14:39:32Z</time>
				<extensions>
					<speed>0.0</speed>
				</extensions>
			</trkpt>
			<trkpt lat="53.25614751" lon="-8.92928887">
				<ele>72.0</ele>
				<time>2014-08-17T14:39:33Z</time>
				<extensions>
					<speed>0.0</speed>
				</extensions>
			</trkpt>
			<trkpt lat="53.25614641" lon="-8.92928833">
				<ele>72.0</ele>
				<time>2014-08-17T14:39:34Z</time>
				<extensions>
					<speed>0.0</speed>
				</extensions>
			</trkpt>
			<trkpt lat="53.2561499" lon="-8.92928863">
				<ele>71.0</ele>
				<time>2014-08-17T14:39:35Z</time>
				<extensions>
					<speed>0.0</speed>
				</extensions>
			</trkpt>
			<trkpt lat="53.25615345" lon="-8.92928068">
				<ele>71.0</ele>
				<time>2014-08-17T14:39:36Z</time>
				<extensions>
					<speed>0.0</speed>
				</extensions>
			</trkpt>
			<trkpt lat="53.25615267" lon="-8.92927876">
				<ele>71.0</ele>
				<time>2014-08-17T14:39:37Z</time>
				<extensions>
					<speed>1.25</speed>
				</extensions>
			</trkpt>
			<trkpt lat="53.25614093" lon="-8.92925399">
				<ele>71.0</ele>
				<time>2014-08-17T14:39:38Z</time>
				<extensions>
					<speed>2.25</speed>
				</extensions>
			</trkpt>
			<trkpt lat="53.25611802" lon="-8.92925414">
				<ele>71.0</ele>
				<time>2014-08-17T14:39:39Z</time>
				<extensions>
					<speed>2.25</speed>
				</extensions>
			</trkpt>
			<trkpt lat="53.25610194" lon="-8.92924592">
				<ele>71.0</ele>
				<time>2014-08-17T14:39:40Z</time>
				<extensions>
					<speed>1.5</speed>
				</extensions>
			</trkpt>
			<trkpt lat="53.25609486" lon="-8.92924569">
				<ele>72.0</ele>
				<time>2014-08-17T14:39:41Z</time>
				<extensions>
					<speed>0.5</speed>
				</extensions>
			</trkpt>
			<trkpt lat="53.25609093" lon="-8.92923827">
				<ele>73.0</ele>
				<time>2014-08-17T14:39:42Z</time>
				<extensions>
					<speed>0.0</speed>
				</extensions>
			</trkpt>
			<trkpt lat="53.2560917" lon="-8.92923887">
				<ele>73.0</ele>
				<time>2014-08-17T14:39:43Z</time>
				<extensions>
					<speed>0.5</speed>
				</extensions>
			</trkpt>
			<trkpt lat="53.25609966" lon="-8.92925405">
				<ele>72.0</ele>
				<time>2014-08-17T14:39:44Z</time>
				<extensions>
					<speed>1.0</speed>
				</extensions>
			</trkpt>
			<trkpt lat="53.25611065" lon="-8.92925701">
				<ele>72.0</ele>
				<time>2014-08-17T14:39:45Z</time>
				<extensions>
					<speed>1.25</speed>
				</extensions>
			</trkpt>
			<trkpt lat="53.25612277" lon="-8.92925363">
				<ele>74.0</ele>
				<time>2014-08-17T14:39:46Z</time>
				<extensions>
					<speed>1.25</speed>
				</extensions>
			</trkpt>
			<trkpt lat="53.25613194" lon="-8.92924592">
				<ele>73.0</ele>
				<time>2014-08-17T14:39:47Z</time>
				<extensions>
					<speed>1.25</speed>
				</extensions>
			</trkpt>
			<trkpt lat="53.25614249" lon="-8.9292465">
				<ele>73.0</ele>
				<time>2014-08-17T14:39:48Z</time>
				<extensions>
					<speed>0.75</speed>
				</extensions>
			</trkpt>
			<trkpt lat="53.25615029" lon="-8.92924716">
				<ele>73.0</ele>
				<time>2014-08-17T14:39:49Z</time>
				<extensions>
					<speed>0.0</speed>
				</extensions>
			</trkpt>
			<trkpt lat="53.25615422" lon="-8.92924532">
				<ele>73.0</ele>
				<time>2014-08-17T14:39:50Z</time>
				<extensions>
					<speed>0.0</speed>
				</extensions>
			</trkpt>
			<trkpt lat="53.25615333" lon="-8.92925095">
				<ele>73.0</ele>
				<time>2014-08-17T14:39:51Z</time>
				<extensions>
					<speed>2.75</speed>
				</extensions>
			</trkpt>
			<trkpt lat="53.25615517" lon="-8.92930061">
				<ele>73.0</ele>
				<time>2014-08-17T14:39:52Z</time>
				<extensions>
					<speed>3.5</speed>
				</extensions>
			</trkpt>
			<trkpt lat="53.25616173" lon="-8.92936445">
				<ele>73.0</ele>
				<time>2014-08-17T14:39:53Z</time>
				<extensions>
					<speed>4.25</speed>
				</extensions>
			</trkpt>
			<trkpt lat="53.25616957" lon="-8.92943085">
				<ele>72.0</ele>
				<time>2014-08-17T14:39:54Z</time>
				<extensions>
					<speed>4.75</speed>
				</extensions>
			</trkpt>
			<trkpt lat="53.25618428" lon="-8.9294982">
				<ele>72.0</ele>
				<time>2014-08-17T14:39:55Z</time>
				<extensions>
					<speed>4.75</speed>
				</extensions>
			</trkpt>
			<trkpt lat="53.25619169" lon="-8.92957288">
				<ele>72.0</ele>
				<time>2014-08-17T14:39:56Z</time>
				<extensions>
					<speed>4.75</speed>
				</extensions>
			</trkpt>
			<trkpt lat="53.25619684" lon="-8.92963211">
				<ele>73.0</ele>
				<time>2014-08-17T14:39:57Z</time>
				<extensions>
					<speed>4.5</speed>
				</extensions>
			</trkpt>
			<trkpt lat="53.25619042" lon="-8.92969956">
				<ele>72.0</ele>
				<time>2014-08-17T14:39:58Z</time>
				<extensions>
					<speed>4.25</speed>
				</extensions>
			</trkpt>
			<trkpt lat="53.25618297" lon="-8.92975658">
				<ele>72.0</ele>
				<time>2014-08-17T14:39:59Z</time>
				<extensions>
					<speed>3.75</speed>
				</extensions>
			</trkpt>
			<trkpt lat="53.25617416" lon="-8.92980036">
				<ele>71.0</ele>
				<time>2014-08-17T14:40:00Z</time>
				<extensions>
					<speed>2.75</speed>
				</extensions>
			</trkpt>
			<trkpt lat="53.25617135" lon="-8.929832">
				<ele>71.0</ele>
				<time>2014-08-17T14:40:01Z</time>
				<extensions>
					<speed>1.5</speed>
				</extensions>
			</trkpt>
			<trkpt lat="53.25617154" lon="-8.92984955">
				<ele>71.0</ele>
				<time>2014-08-17T14:40:02Z</time>
				<extensions>
					<speed>0.5</speed>
				</extensions>
			</trkpt>
			<trkpt lat="53.256178" lon="-8.92983836">
				<ele>71.0</ele>
				<time>2014-08-17T14:40:03Z</time>
				<extensions>
					<speed>0.0</speed>
				</extensions>
			</trkpt>
			<trkpt lat="53.25617666" lon="-8.92983998">
				<ele>71.0</ele>
				<time>2014-08-17T14:40:04Z</time>
				<extensions>
					<speed>0.0</speed>
				</extensions>
			</trkpt>
			<trkpt lat="53.25617491" lon="-8.92984068">
				<ele>71.0</ele>
				<time>2014-08-17T14:40:05Z</time>
				<extensions>
					<speed>0.0</speed>
				</extensions>
			</trkpt>
			<trkpt lat="53.25617458" lon="-8.92983832">
				<ele>71.0</ele>
				<time>2014-08-17T14:40:06Z</time>
				<extensions>
					<speed>0.0</speed>
				</extensions>
			</trkpt>
			<trkpt lat="53.25617266" lon="-8.92983703">
				<ele>72.0</ele>
				<time>2014-08-17T14:40:07Z</time>
				<extensions>
					<speed>0.0</speed>
				</extensions>
			</trkpt>
			<trkpt lat="53.25617259" lon="-8.92983516">
				<ele>73.0</ele>
				<time>2014-08-17T14:40:08Z</time>
				<extensions>
					<speed>0.0</speed>
				</extensions>
			</trkpt>
			<trkpt lat="53.25617034" lon="-8.92983967">
				<ele>73.0</ele>
				<time>2014-08-17T14:40:09Z</time>
				<extensions>
					<speed>0.0</speed>
				</extensions>
			</trkpt>
			<trkpt lat="53.25616933" lon="-8.9298374">
				<ele>73.0</ele>
				<time>2014-08-17T14:40:10Z</time>
				<extensions>
					<speed>0.0</speed>
				</extensions>
			</trkpt>
			<trkpt lat="53.25617068" lon="-8.92983861">
				<ele>75.0</ele>
				<time>2014-08-17T14:40:11Z</time>
				<extensions>
					<speed>0.0</speed>
				</extensions>
			</trkpt>
			<trkpt lat="53.25616995" lon="-8.92984172">
				<ele>75.0</ele>
				<time>2014-08-17T14:40:12Z</time>
				<extensions>
					<speed>0.0</speed>
				</extensions>
			</trkpt>
			<trkpt lat="53.25617017" lon="-8.92984121">
				<ele>75.0</ele>
				<time>2014-08-17T14:40:13Z</time>
				<extensions>
					<speed>0.0</speed>
				</extensions>
			</trkpt>
			<trkpt lat="53.25617065" lon="-8.92984137">
				<ele>75.0</ele>
				<time>2014-08-17T14:40:14Z</time>
				<extensions>
					<speed>0.0</speed>
				</extensions>
			</trkpt>
			<trkpt lat="53.25617076" lon="-8.92984144">
				<ele>75.0</ele>
				<time>2014-08-17T14:40:15Z</time>
				<extensions>
					<speed>0.0</speed>
				</extensions>
			</trkpt>
			<trkpt lat="53.25617064" lon="-8.92984155">
				<ele>75.0</ele>
				<time>2014-08-17T14:40:16Z</time>
				<extensions>
					<speed>0.0</speed>
				</extensions>
			</trkpt>
			<trkpt lat="53.25617063" lon="-8.92984159">
				<ele>75.0</ele>
				<time>2014-08-17T14:40:17Z</time>
				<extensions>
					<speed>0.0</speed>
				</extensions>
			</trkpt>
			<trkpt lat="53.25617064" lon="-8.92984159">
				<ele>75.0</ele>
				<time>2014-08-17T14:40:18Z</time>
				<extensions>
					<speed>0.0</speed>
				</extensions>
			</trkpt>
			<trkpt lat="53.25617063" lon="-8.92984158">
				<ele>75.0</ele>
				<time>2014-08-17T14:40:19Z</time>
				<extensions>
					<speed>0.0</speed>
				</extensions>
			</trkpt>
			<trkpt lat="53.25617065" lon="-8.92984158">
				<ele>75.0</ele>
				<time>2014-08-17T14:40:20Z</time>
				<extensions>
					<speed>0.0</speed>
				</extensions>
			</trkpt>
			<trkpt lat="53.25617064" lon="-8.92984164">
				<ele>75.0</ele>
				<time>2014-08-17T14:40:21Z</time>
				<extensions>
					<speed>0.0</speed>
				</extensions>
			</trkpt>
			<trkpt lat="53.25617062" lon="-8.92984164">
				<ele>75.0</ele>
				<time>2014-08-17T14:40:22Z</time>
				<extensions>
					<speed>0.0</speed>
				</extensions>
			</trkpt>
			<trkpt lat="53.25617062" lon="-8.92984164">
				<ele>75.0</ele>
				<time>2014-08-17T14:40:23Z</time>
				<extensions>
					<speed>0.0</speed>
				</extensions>
			</trkpt>
			<trkpt lat="53.25617062" lon="-8.92984164">
				<ele>75.0</ele>
				<time>2014-08-17T14:40:24Z</time>
				<extensions>
					<speed>0.0</speed>
				</extensions>
			</trkpt>
			<trkpt lat="53.25616807" lon="-8.92984423">
				<ele>75.0</ele>
				<time>2014-08-17T14:40:25Z</time>
				<extensions>
					<speed>0.0</speed>
				</extensions>
			</trkpt>
			<trkpt lat="53.25616804" lon="-8.92984431">
				<ele>75.0</ele>
				<time>2014-08-17T14:40:26Z</time>
				<extensions>
					<speed>0.0</speed>
				</extensions>
			</trkpt>
			<trkpt lat="53.25616804" lon="-8.92984429">
				<ele>75.0</ele>
				<time>2014-08-17T14:40:27Z</time>
				<extensions>
					<speed>0.0</speed>
				</extensions>
			</trkpt>
			<trkpt lat="53.25616804" lon="-8.9298443">
				<ele>75.0</ele>
				<time>2014-08-17T14:40:28Z</time>
				<extensions>
					<speed>0.0</speed>
				</extensions>
			</trkpt>
			<trkpt lat="53.25616805" lon="-8.9298443">
				<ele>75.0</ele>
				<time>2014-08-17T14:40:29Z</time>
				<extensions>
					<speed>0.0</speed>
				</extensions>
			</trkpt>
			<trkpt lat="53.25616804" lon="-8.92984433">
				<ele>75.0</ele>
				<time>2014-08-17T14:40:30Z</time>
				<extensions>
					<speed>0.0</speed>
				</extensions>
			</trkpt>
			<trkpt lat="53.25616804" lon="-8.92984434">
				<ele>75.0</ele>
				<time>2014-08-17T14:40:31Z</time>
				<extensions>
					<speed>0.0</speed>
				</extensions>
			</trkpt>
			<trkpt lat="53.25616802" lon="-8.92984441">
				<ele>75.0</ele>
				<time>2014-08-17T14:40:32Z</time>
				<extensions>
					<speed>0.0</speed>
				</extensions>
			</trkpt>
			<trkpt lat="53.25616801" lon="-8.92984439">
				<ele>75.0</ele>
				<time>2014-08-17T14:40:33Z</time>
				<extensions>
					<speed>0.0</speed>
				</extensions>
			</trkpt>
			<trkpt lat="53.25616801" lon="-8.92984441">
				<ele>75.0</ele>
				<time>2014-08-17T14:40:34Z</time>
				<extensions>
					<speed>0.0</speed>
				</extensions>
			</trkpt>
			<trkpt lat="53.256168" lon="-8.9298444">
				<ele>75.0</ele>
				<time>2014-08-17T14:40:35Z</time>
				<extensions>
					<speed>0.0</speed>
				</extensions>
			</trkpt>
			<trkpt lat="53.25616792" lon="-8.92984458">
				<ele>75.0</ele>
				<time>2014-08-17T14:40:36Z</time>
				<extensions>
					<speed>0.0</speed>
				</extensions>
			</trkpt>
			<trkpt lat="53.25616789" lon="-8.92984461">
				<ele>75.0</ele>
				<time>2014-08-17T14:40:37Z</time>
				<extensions>
					<speed>0.0</speed>
				</extensions>
			</trkpt>
			<trkpt lat="53.25616786" lon="-8.92984457">
				<ele>75.0</ele>
				<time>2014-08-17T14:40:38Z</time>
				<extensions>
					<speed>0.0</speed>
				</extensions>
			</trkpt>
			<trkpt lat="53.2561679" lon="-8.92984458">
				<ele>75.0</ele>
				<time>2014-08-17T14:40:39Z</time>
				<extensions>
					<speed>0.0</speed>
				</extensions>
			</trkpt>
			<trkpt lat="53.25616889" lon="-8.92984748">
				<ele>75.0</ele>
				<time>2014-08-17T14:40:40Z</time>
				<extensions>
					<speed>1.75</speed>
				</extensions>
			</trkpt>
			<trkpt lat="53.25617941" lon="-8.92987573">
				<ele>74.0</ele>
				<time>2014-08-17T14:40:41Z</time>
				<extensions>
					<speed>2.5</speed>
				</extensions>
			</trkpt>
			<trkpt lat="53.25619834" lon="-8.92991156">
				<ele>74.0</ele>
				<time>2014-08-17T14:40:42Z</time>
				<extensions>
					<speed>2.75</speed>
				</extensions>
			</trkpt>
			<trkpt lat="53.2562358" lon="-8.92990482">
				<ele>74.0</ele>
				<time>2014-08-17T14:40:43Z</time>
				<extensions>
					<speed>3.5</speed>
				</extensions>
			</trkpt>
			<trkpt lat="53.25626928" lon="-8.92992291">
				<ele>73.0</ele>
				<time>2014-08-17T14:40:44Z</time>
				<extensions>
					<speed>3.75</speed>
				</extensions>
			</trkpt>
			<trkpt lat="53.25630548" lon="-8.92994281">
				<ele>73.0</ele>
				<time>2014-08-17T14:40:45Z</time>
				<extensions>
					<speed>4.5</speed>
				</extensions>
			</trkpt>
			<trkpt lat="53.25634501" lon="-8.92995603">
				<ele>73.0</ele>
				<time>2014-08-17T14:40:46Z</time>
				<extensions>
					<speed>4.5</speed>
				</extensions>
			</trkpt>
			<trkpt lat="53.25638945" lon="-8.92997677">
				<ele>72.0</ele>
				<time>2014-08-17T14:40:47Z</time>
				<extensions>
					<speed>5.0</speed>
				</extensions>
			</trkpt>
			<trkpt lat="53.2564323" lon="-8.92999568">
				<ele>71.0</ele>
				<time>2014-08-17T14:40:48Z</time>
				<extensions>
					<speed>5.5</speed>
				</extensions>
			</trkpt>
			<trkpt lat="53.25648488" lon="-8.92999588">
				<ele>71.0</ele>
				<time>2014-08-17T14:40:49Z</time>
				<extensions>
					<speed>5.75</speed>
				</extensions>
			</trkpt>
			<trkpt lat="53.25653762" lon="-8.93000956">
				<ele>70.0</ele>
				<time>2014-08-17T14:40:50Z</time>
				<extensions>
					<speed>6.0</speed>
				</extensions>
			</trkpt>
			<trkpt lat="53.2565852" lon="-8.9300085">
				<ele>69.0</ele>
				<time>2014-08-17T14:40:51Z</time>
				<extensions>
					<speed>5.75</speed>
				</extensions>
			</trkpt>
			<trkpt lat="53.25663396" lon="-8.93000292">
				<ele>69.0</ele>
				<time>2014-08-17T14:40:52Z</time>
				<extensions>
					<speed>5.25</speed>
				</extensions>
			</trkpt>
			<trkpt lat="53.25667717" lon="-8.92999784">
				<ele>69.0</ele>
				<time>2014-08-17T14:40:53Z</time>
				<extensions>
					<speed>4.5</speed>
				</extensions>
			</trkpt>
			<trkpt lat="53.25671302" lon="-8.93000023">
				<ele>69.0</ele>
				<time>2014-08-17T14:40:54Z</time>
				<extensions>
					<speed>3.5</speed>
				</extensions>
			</trkpt>
			<trkpt lat="53.25673518" lon="-8.93000958">
				<ele>68.0</ele>
				<time>2014-08-17T14:40:55Z</time>
				<extensions>
					<speed>2.5</speed>
				</extensions>
			</trkpt>
			<trkpt lat="53.25674998" lon="-8.93000315">
				<ele>68.0</ele>
				<time>2014-08-17T14:40:56Z</time>
				<extensions>
					<speed>1.25</speed>
				</extensions>
			</trkpt>
			<trkpt lat="53.25674746" lon="-8.93001219">
				<ele>67.0</ele>
				<time>2014-08-17T14:40:57Z</time>
				<extensions>
					<speed>0.5</speed>
				</extensions>
			</trkpt>
			<trkpt lat="53.25674698" lon="-8.93001937">
				<ele>67.0</ele>
				<time>2014-08-17T14:40:58Z</time>
				<extensions>
					<speed>0.5</speed>
				</extensions>
			</trkpt>
			<trkpt lat="53.25675327" lon="-8.93001514">
				<ele>67.0</ele>
				<time>2014-08-17T14:40:59Z</time>
				<extensions>
					<speed>0.5</speed>
				</extensions>
			</trkpt>
			<trkpt lat="53.25675785" lon="-8.93001383">
				<ele>67.0</ele>
				<time>2014-08-17T14:41:00Z</time>
				<extensions>
					<speed>0.0</speed>
				</extensions>
			</trkpt>
			<trkpt lat="53.25675645" lon="-8.93002344">
				<ele>67.0</ele>
				<time>2014-08-17T14:41:01Z</time>
				<extensions>
					<speed>0.0</speed>
				</extensions>
			</trkpt>
			<trkpt lat="53.25675409" lon="-8.9300335">
				<ele>67.0</ele>
				<time>2014-08-17T14:41:02Z</time>
				<extensions>
					<speed>0.0</speed>
				</extensions>
			</trkpt>
			<trkpt lat="53.25674979" lon="-8.93002804">
				<ele>68.0</ele>
				<time>2014-08-17T14:41:03Z</time>
				<extensions>
					<speed>0.0</speed>
				</extensions>
			</trkpt>
			<trkpt lat="53.25674766" lon="-8.93002817">
				<ele>67.0</ele>
				<time>2014-08-17T14:41:04Z</time>
				<extensions>
					<speed>0.0</speed>
				</extensions>
			</trkpt>
			<trkpt lat="53.2567493" lon="-8.93002778">
				<ele>67.0</ele>
				<time>2014-08-17T14:41:05Z</time>
				<extensions>
					<speed>1.0</speed>
				</extensions>
			</trkpt>
			<trkpt lat="53.25677358" lon="-8.93001164">
				<ele>67.0</ele>
				<time>2014-08-17T14:41:06Z</time>
				<extensions>
					<speed>2.25</speed>
				</extensions>
			</trkpt>
			<trkpt lat="53.25679028" lon="-8.92999466">
				<ele>67.0</ele>
				<time>2014-08-17T14:41:07Z</time>
				<extensions>
					<speed>2.25</speed>
				</extensions>
			</trkpt>
			<trkpt lat="53.25680523" lon="-8.92996092">
				<ele>68.0</ele>
				<time>2014-08-17T14:41:08Z</time>
				<extensions>
					<speed>2.75</speed>
				</extensions>
			</trkpt>
			<trkpt lat="53.25681185" lon="-8.92992015">
				<ele>69.0</ele>
				<time>2014-08-17T14:41:09Z</time>
				<extensions>
					<speed>2.75</speed>
				</extensions>
			</trkpt>
			<trkpt lat="53.2568156" lon="-8.92989028">
				<ele>70.0</ele>
				<time>2014-08-17T14:41:10Z</time>
				<extensions>
					<speed>2.5</speed>
				</extensions>
			</trkpt>
			<trkpt lat="53.25681302" lon="-8.92985908">
				<ele>70.0</ele>
				<time>2014-08-17T14:41:11Z</time>
				<extensions>
					<speed>2.0</speed>
				</extensions>
			</trkpt>
			<trkpt lat="53.25681466" lon="-8.92983888">
				<ele>70.0</ele>
				<time>2014-08-17T14:41:12Z</time>
				<extensions>
					<speed>1.5</speed>
				</extensions>
			</trkpt>
			<trkpt lat="53.25681552" lon="-8.92982588">
				<ele>71.0</ele>
				<time>2014-08-17T14:41:13Z</time>
				<extensions>
					<speed>0.5</speed>
				</extensions>
			</trkpt>
			<trkpt lat="53.25681754" lon="-8.92981975">
				<ele>70.0</ele>
				<time>2014-08-17T14:41:14Z</time>
				<extensions>
					<speed>0.0</speed>
				</extensions>
			</trkpt>
			<trkpt lat="53.25681501" lon="-8.92981865">
				<ele>70.0</ele>
				<time>2014-08-17T14:41:15Z</time>
				<extensions>
					<speed>0.0</speed>
				</extensions>
			</trkpt>
			<trkpt lat="53.25681436" lon="-8.92981609">
				<ele>70.0</ele>
				<time>2014-08-17T14:41:16Z</time>
				<extensions>
					<speed>0.0</speed>
				</extensions>
			</trkpt>
			<trkpt lat="53.25681481" lon="-8.92981431">
				<ele>70.0</ele>
				<time>2014-08-17T14:41:17Z</time>
				<extensions>
					<speed>0.0</speed>
				</extensions>
			</trkpt>
			<trkpt lat="53.25681436" lon="-8.92981326">
				<ele>70.0</ele>
				<time>2014-08-17T14:41:18Z</time>
				<extensions>
					<speed>0.0</speed>
				</extensions>
			</trkpt>
			<trkpt lat="53.25681416" lon="-8.92981059">
				<ele>70.0</ele>
				<time>2014-08-17T14:41:19Z</time>
				<extensions>
					<speed>1.25</speed>
				</extensions>
			</trkpt>
			<trkpt lat="53.25681809" lon="-8.92977976">
				<ele>70.0</ele>
				<time>2014-08-17T14:41:20Z</time>
				<extensions>
					<speed>2.25</speed>
				</extensions>
			</trkpt>
			<trkpt lat="53.25683259" lon="-8.92973202">
				<ele>71.0</ele>
				<time>2014-08-17T14:41:21Z</time>
				<extensions>
					<speed>2.75</speed>
				</extensions>
			</trkpt>
			<trkpt lat="53.25684623" lon="-8.92968193">
				<ele>71.0</ele>
				<time>2014-08-17T14:41:22Z</time>
				<extensions>
					<speed>3.75</speed>
				</extensions>
			</trkpt>
			<trkpt lat="53.25685358" lon="-8.92962631">
				<ele>71.0</ele>
				<time>2014-08-17T14:41:23Z</time>
				<extensions>
					<speed>4.0</speed>
				</extensions>
			</trkpt>
			<trkpt lat="53.25686456" lon="-8.92956241">
				<ele>71.0</ele>
				<time>2014-08-17T14:41:24Z</time>
				<extensions>
					<speed>4.5</speed>
				</extensions>
			</trkpt>
			<trkpt lat="53.25687092" lon="-8.92950355">
				<ele>71.0</ele>
				<time>2014-08-17T14:41:25Z</time>
				<extensions>
					<speed>4.0</speed>
				</extensions>
			</trkpt>
			<trkpt lat="53.25687133" lon="-8.92943168">
				<ele>71.0</ele>
				<time>2014-08-17T14:41:26Z</time>
				<extensions>
					<speed>4.0</speed>
				</extensions>
			</trkpt>
			<trkpt lat="53.25687459" lon="-8.92937948">
				<ele>71.0</ele>
				<time>2014-08-17T14:41:27Z</time>
				<extensions>
					<speed>3.75</speed>
				</extensions>
			</trkpt>
			<trkpt lat="53.25687351" lon="-8.9293274">
				<ele>71.0</ele>
				<time>2014-08-17T14:41:28Z</time>
				<extensions>
					<speed>3.25</speed>
				</extensions>
			</trkpt>
			<trkpt lat="53.25687345" lon="-8.92927741">
				<ele>71.0</ele>
				<time>2014-08-17T14:41:29Z</time>
				<extensions>
					<speed>3.25</speed>
				</extensions>
			</trkpt>
			<trkpt lat="53.25687338" lon="-8.92922743">
				<ele>71.0</ele>
				<time>2014-08-17T14:41:30Z</time>
				<extensions>
					<speed>3.25</speed>
				</extensions>
			</trkpt>
			<trkpt lat="53.25686752" lon="-8.92921091">
				<ele>71.0</ele>
				<time>2014-08-17T14:41:31Z</time>
				<extensions>
					<speed>2.25</speed>
				</extensions>
			</trkpt>
			<trkpt lat="53.25686113" lon="-8.92918347">
				<ele>72.0</ele>
				<time>2014-08-17T14:41:32Z</time>
				<extensions>
					<speed>1.25</speed>
				</extensions>
			</trkpt>
			<trkpt lat="53.25685996" lon="-8.92917352">
				<ele>72.0</ele>
				<time>2014-08-17T14:41:33Z</time>
				<extensions>
					<speed>0.75</speed>
				</extensions>
			</trkpt>
			<trkpt lat="53.25685762" lon="-8.92917493">
				<ele>71.0</ele>
				<time>2014-08-17T14:41:34Z</time>
				<extensions>
					<speed>0.5</speed>
				</extensions>
			</trkpt>
			<trkpt lat="53.25684605" lon="-8.9291725">
				<ele>71.0</ele>
				<time>2014-08-17T14:41:35Z</time>
				<extensions>
					<speed>0.0</speed>
				</extensions>
			</trkpt>
			<trkpt lat="53.25684328" lon="-8.92916851">
				<ele>71.0</ele>
				<time>2014-08-17T14:41:36Z</time>
				<extensions>
					<speed>0.0</speed>
				</extensions>
			</trkpt>
			<trkpt lat="53.25684254" lon="-8.92916714">
				<ele>71.0</ele>
				<time>2014-08-17T14:41:37Z</time>
				<extensions>
					<speed>0.0</speed>
				</extensions>
			</trkpt>
			<trkpt lat="53.25684218" lon="-8.9291671">
				<ele>71.0</ele>
				<time>2014-08-17T14:41:38Z</time>
				<extensions>
					<speed>0.0</speed>
				</extensions>
			</trkpt>
			<trkpt lat="53.25684356" lon="-8.92916206">
				<ele>71.0</ele>
				<time>2014-08-17T14:41:39Z</time>
				<extensions>
					<speed>0.0</speed>
				</extensions>
			</trkpt>
			<trkpt lat="53.25684625" lon="-8.92916283">
				<ele>71.0</ele>
				<time>2014-08-17T14:41:40Z</time>
				<extensions>
					<speed>0.0</speed>
				</extensions>
			</trkpt>
			<trkpt lat="53.25684622" lon="-8.92916104">
				<ele>71.0</ele>
				<time>2014-08-17T14:41:41Z</time>
				<extensions>
					<speed>1.0</speed>
				</extensions>
			</trkpt>
			<trkpt lat="53.25684694" lon="-8.92914253">
				<ele>71.0</ele>
				<time>2014-08-17T14:41:42Z</time>
				<extensions>
					<speed>1.75</speed>
				</extensions>
			</trkpt>
			<trkpt lat="53.25684671" lon="-8.929114">
				<ele>71.0</ele>
				<time>2014-08-17T14:41:43Z</time>
				<extensions>
					<speed>2.0</speed>
				</extensions>
			</trkpt>
			<trkpt lat="53.25684497" lon="-8.92908232">
				<ele>71.0</ele>
				<time>2014-08-17T14:41:44Z</time>
				<extensions>
					<speed>1.75</speed>
				</extensions>
			</trkpt>
			<trkpt lat="53.2568466" lon="-8.92905885">
				<ele>71.0</ele>
				<time>2014-08-17T14:41:45Z</time>
				<extensions>
					<speed>2.0</speed>
				</extensions>
			</trkpt>
			<trkpt lat="53.25684866" lon="-8.92903253">
				<ele>70.0</ele>
				<time>2014-08-17T14:41:46Z</time>
				<extensions>
					<speed>1.75</speed>
				</extensions>
			</trkpt>
			<trkpt lat="53.256847" lon="-8.92901335">
				<ele>71.0</ele>
				<time>2014-08-17T14:41:47Z</time>
				<extensions>
					<speed>1.5</speed>
				</extensions>
			</trkpt>
			<trkpt lat="53.25684272" lon="-8.92898926">
				<ele>71.0</ele>
				<time>2014-08-17T14:41:48Z</time>
				<extensions>
					<speed>1.75</speed>
				</extensions>
			</trkpt>
			<trkpt lat="53.25683548" lon="-8.92896086">
				<ele>71.0</ele>
				<time>2014-08-17T14:41:49Z</time>
				<extensions>
					<speed>2.25</speed>
				</extensions>
			</trkpt>
			<trkpt lat="53.25682843" lon="-8.92892452">
				<ele>71.0</ele>
				<time>2014-08-17T14:41:50Z</time>
				<extensions>
					<speed>2.5</speed>
				</extensions>
			</trkpt>
			<trkpt lat="53.25682972" lon="-8.92887995">
				<ele>71.0</ele>
				<time>2014-08-17T14:41:51Z</time>
				<extensions>
					<speed>2.5</speed>
				</extensions>
			</trkpt>
			<trkpt lat="53.25683119" lon="-8.92884071">
				<ele>71.0</ele>
				<time>2014-08-17T14:41:52Z</time>
				<extensions>
					<speed>2.5</speed>
				</extensions>
			</trkpt>
			<trkpt lat="53.25683442" lon="-8.92880682">
				<ele>71.0</ele>
				<time>2014-08-17T14:41:53Z</time>
				<extensions>
					<speed>2.5</speed>
				</extensions>
			</trkpt>
			<trkpt lat="53.25684316" lon="-8.92877754">
				<ele>71.0</ele>
				<time>2014-08-17T14:41:54Z</time>
				<extensions>
					<speed>2.0</speed>
				</extensions>
			</trkpt>
			<trkpt lat="53.25684583" lon="-8.92875293">
				<ele>71.0</ele>
				<time>2014-08-17T14:41:55Z</time>
				<extensions>
					<speed>1.5</speed>
				</extensions>
			</trkpt>
			<trkpt lat="53.25684939" lon="-8.92872721">
				<ele>71.0</ele>
				<time>2014-08-17T14:41:56Z</time>
				<extensions>
					<speed>1.5</speed>
				</extensions>
			</trkpt>
			<trkpt lat="53.25685286" lon="-8.92871756">
				<ele>71.0</ele>
				<time>2014-08-17T14:41:57Z</time>
				<extensions>
					<speed>0.75</speed>
				</extensions>
			</trkpt>
			<trkpt lat="53.25684648" lon="-8.92871541">
				<ele>71.0</ele>
				<time>2014-08-17T14:41:58Z</time>
				<extensions>
					<speed>0.0</speed>
				</extensions>
			</trkpt>
			<trkpt lat="53.25684385" lon="-8.92870793">
				<ele>72.0</ele>
				<time>2014-08-17T14:41:59Z</time>
				<extensions>
					<speed>0.0</speed>
				</extensions>
			</trkpt>
			<trkpt lat="53.25684385" lon="-8.92870793">
				<ele>72.0</ele>
				<time>2014-08-17T14:42:00Z</time>
				<extensions>
					<speed>0.0</speed>
				</extensions>
			</trkpt>
			<trkpt lat="53.25684385" lon="-8.92870793">
				<ele>72.0</ele>
				<time>2014-08-17T14:42:01Z</time>
				<extensions>
					<speed>0.0</speed>
				</extensions>
			</trkpt>
			<trkpt lat="53.25685213" lon="-8.92870292">
				<ele>71.0</ele>
				<time>2014-08-17T14:42:02Z</time>
				<extensions>
					<speed>0.0</speed>
				</extensions>
			</trkpt>
			<trkpt lat="53.25685359" lon="-8.92870498">
				<ele>71.0</ele>
				<time>2014-08-17T14:42:03Z</time>
				<extensions>
					<speed>0.0</speed>
				</extensions>
			</trkpt>
			<trkpt lat="53.25685646" lon="-8.92871663">
				<ele>70.0</ele>
				<time>2014-08-17T14:42:04Z</time>
				<extensions>
					<speed>0.0</speed>
				</extensions>
			</trkpt>
			<trkpt lat="53.25685749" lon="-8.92871983">
				<ele>70.0</ele>
				<time>2014-08-17T14:42:05Z</time>
				<extensions>
					<speed>0.0</speed>
				</extensions>
			</trkpt>
			<trkpt lat="53.25685786" lon="-8.92872165">
				<ele>70.0</ele>
				<time>2014-08-17T14:42:06Z</time>
				<extensions>
					<speed>0.0</speed>
				</extensions>
			</trkpt>
			<trkpt lat="53.25685875" lon="-8.9287199">
				<ele>70.0</ele>
				<time>2014-08-17T14:42:07Z</time>
				<extensions>
					<speed>0.0</speed>
				</extensions>
			</trkpt>
			<trkpt lat="53.25686041" lon="-8.92872248">
				<ele>71.0</ele>
				<time>2014-08-17T14:42:08Z</time>
				<extensions>
					<speed>0.0</speed>
				</extensions>
			</trkpt>
			<trkpt lat="53.25686019" lon="-8.928722">
				<ele>70.0</ele>
				<time>2014-08-17T14:42:09Z</time>
				<extensions>
					<speed>0.0</speed>
				</extensions>
			</trkpt>
			<trkpt lat="53.25685994" lon="-8.92872239">
				<ele>70.0</ele>
				<time>2014-08-17T14:42:10Z</time>
				<extensions>
					<speed>0.0</speed>
				</extensions>
			</trkpt>
			<trkpt lat="53.25685985" lon="-8.92872272">
				<ele>70.0</ele>
				<time>2014-08-17T14:42:11Z</time>
				<extensions>
					<speed>0.0</speed>
				</extensions>
			</trkpt>
			<trkpt lat="53.25685978" lon="-8.92872284">
				<ele>70.0</ele>
				<time>2014-08-17T14:42:12Z</time>
				<extensions>
					<speed>0.0</speed>
				</extensions>
			</trkpt>
			<trkpt lat="53.25685974" lon="-8.9287229">
				<ele>70.0</ele>
				<time>2014-08-17T14:42:13Z</time>
				<extensions>
					<speed>0.0</speed>
				</extensions>
			</trkpt>
			<trkpt lat="53.25685973" lon="-8.92872294">
				<ele>70.0</ele>
				<time>2014-08-17T14:42:14Z</time>
				<extensions>
					<speed>0.0</speed>
				</extensions>
			</trkpt>
			<trkpt lat="53.25685973" lon="-8.92872299">
				<ele>70.0</ele>
				<time>2014-08-17T14:42:15Z</time>
				<extensions>
					<speed>0.0</speed>
				</extensions>
			</trkpt>
			<trkpt lat="53.25685973" lon="-8.928723">
				<ele>70.0</ele>
				<time>2014-08-17T14:42:16Z</time>
				<extensions>
					<speed>0.0</speed>
				</extensions>
			</trkpt>
			<trkpt lat="53.25685971" lon="-8.92872301">
				<ele>70.0</ele>
				<time>2014-08-17T14:42:17Z</time>
				<extensions>
					<speed>0.0</speed>
				</extensions>
			</trkpt>
			<trkpt lat="53.25685976" lon="-8.92872291">
				<ele>70.0</ele>
				<time>2014-08-17T14:42:18Z</time>
				<extensions>
					<speed>0.0</speed>
				</extensions>
			</trkpt>
			<trkpt lat="53.25685976" lon="-8.92872294">
				<ele>70.0</ele>
				<time>2014-08-17T14:42:19Z</time>
				<extensions>
					<speed>0.0</speed>
				</extensions>
			</trkpt>
			<trkpt lat="53.25685976" lon="-8.92872292">
				<ele>70.0</ele>
				<time>2014-08-17T14:42:20Z</time>
				<extensions>
					<speed>0.0</speed>
				</extensions>
			</trkpt>
			<trkpt lat="53.25685972" lon="-8.92872296">
				<ele>70.0</ele>
				<time>2014-08-17T14:42:21Z</time>
				<extensions>
					<speed>0.0</speed>
				</extensions>
			</trkpt>
			<trkpt lat="53.25685972" lon="-8.92872295">
				<ele>70.0</ele>
				<time>2014-08-17T14:42:22Z</time>
				<extensions>
					<speed>0.0</speed>
				</extensions>
			</trkpt>
			<trkpt lat="53.25685976" lon="-8.92872289">
				<ele>70.0</ele>
				<time>2014-08-17T14:42:23Z</time>
				<extensions>
					<speed>0.0</speed>
				</extensions>
			</trkpt>
			<trkpt lat="53.25685975" lon="-8.92872289">
				<ele>70.0</ele>
				<time>2014-08-17T14:42:24Z</time>
				<extensions>
					<speed>0.0</speed>
				</extensions>
			</trkpt>
			<trkpt lat="53.25685978" lon="-8.92872284">
				<ele>70.0</ele>
				<time>2014-08-17T14:42:25Z</time>
				<extensions>
					<speed>0.0</speed>
				</extensions>
			</trkpt>
			<trkpt lat="53.25685979" lon="-8.92872285">
				<ele>70.0</ele>
				<time>2014-08-17T14:42:26Z</time>
				<extensions>
					<speed>0.0</speed>
				</extensions>
			</trkpt>
			<trkpt lat="53.25685979" lon="-8.92872283">
				<ele>70.0</ele>
				<time>2014-08-17T14:42:27Z</time>
				<extensions>
					<speed>0.0</speed>
				</extensions>
			</trkpt>
			<trkpt lat="53.25685984" lon="-8.92872281">
				<ele>70.0</ele>
				<time>2014-08-17T14:42:28Z</time>
				<extensions>
					<speed>0.0</speed>
				</extensions>
			</trkpt>
			<trkpt lat="53.25685985" lon="-8.92872278">
				<ele>70.0</ele>
				<time>2014-08-17T14:42:29Z</time>
				<extensions>
					<speed>0.0</speed>
				</extensions>
			</trkpt>
			<trkpt lat="53.25685984" lon="-8.92872275">
				<ele>70.0</ele>
				<time>2014-08-17T14:42:30Z</time>
				<extensions>
					<speed>0.0</speed>
				</extensions>
			</trkpt>
			<trkpt lat="53.25685987" lon="-8.92872272">
				<ele>70.0</ele>
				<time>2014-08-17T14:42:31Z</time>
				<extensions>
					<speed>0.0</speed>
				</extensions>
			</trkpt>
			<trkpt lat="53.25685989" lon="-8.9287227">
				<ele>70.0</ele>
				<time>2014-08-17T14:42:32Z</time>
				<extensions>
					<speed>0.0</speed>
				</extensions>
			</trkpt>
			<trkpt lat="53.25685991" lon="-8.92872268">
				<ele>70.0</ele>
				<time>2014-08-17T14:42:33Z</time>
				<extensions>
					<speed>0.0</speed>
				</extensions>
			</trkpt>
			<trkpt lat="53.25685995" lon="-8.92872265">
				<ele>70.0</ele>
				<time>2014-08-17T14:42:34Z</time>
				<extensions>
					<speed>0.0</speed>
				</extensions>
			</trkpt>
			<trkpt lat="53.2568599" lon="-8.92872267">
				<ele>70.0</ele>
				<time>2014-08-17T14:42:35Z</time>
				<extensions>
					<speed>0.0</speed>
				</extensions>
			</trkpt>
			<trkpt lat="53.25685989" lon="-8.92872266">
				<ele>70.0</ele>
				<time>2014-08-17T14:42:36Z</time>
				<extensions>
					<speed>0.0</speed>
				</extensions>
			</trkpt>
			<trkpt lat="53.25685988" lon="-8.92872266">
				<ele>70.0</ele>
				<time>2014-08-17T14:42:37Z</time>
				<extensions>
					<speed>0.0</speed>
				</extensions>
			</trkpt>
			<trkpt lat="53.25685986" lon="-8.92872267">
				<ele>70.0</ele>
				<time>2014-08-17T14:42:38Z</time>
				<extensions>
					<speed>0.0</speed>
				</extensions>
			</trkpt>
			<trkpt lat="53.25685992" lon="-8.92872261">
				<ele>70.0</ele>
				<time>2014-08-17T14:42:39Z</time>
				<extensions>
					<speed>0.0</speed>
				</extensions>
			</trkpt>
			<trkpt lat="53.25685992" lon="-8.92872263">
				<ele>70.0</ele>
				<time>2014-08-17T14:42:40Z</time>
				<extensions>
					<speed>0.0</speed>
				</extensions>
			</trkpt>
			<trkpt lat="53.2568599" lon="-8.92872266">
				<ele>70.0</ele>
				<time>2014-08-17T14:42:41Z</time>
				<extensions>
					<speed>0.0</speed>
				</extensions>
			</trkpt>
			<trkpt lat="53.2568599" lon="-8.92872268">
				<ele>70.0</ele>
				<time>2014-08-17T14:42:42Z</time>
				<extensions>
					<speed>0.0</speed>
				</extensions>
			</trkpt>
			<trkpt lat="53.2568599" lon="-8.92872268">
				<ele>70.0</ele>
				<time>2014-08-17T14:42:43Z</time>
				<extensions>
					<speed>0.0</speed>
				</extensions>
			</trkpt>
			<trkpt lat="53.2568599" lon="-8.92872268">
				<ele>70.0</ele>
				<time>2014-08-17T14:42:44Z</time>
				<extensions>
					<speed>0.0</speed>
				</extensions>
			</trkpt>
			<trkpt lat="53.25685874" lon="-8.92872352">
				<ele>70.0</ele>
				<time>2014-08-17T14:42:45Z</time>
				<extensions>
					<speed>0.0</speed>
				</extensions>
			</trkpt>
			<trkpt lat="53.25685845" lon="-8.92872282">
				<ele>70.0</ele>
				<time>2014-08-17T14:42:46Z</time>
				<extensions>
					<speed>0.0</speed>
				</extensions>
			</trkpt>
			<trkpt lat="53.2568585" lon="-8.92872277">
				<ele>70.0</ele>
				<time>2014-08-17T14:42:47Z</time>
				<extensions>
					<speed>0.0</speed>
				</extensions>
			</trkpt>
			<trkpt lat="53.25685854" lon="-8.9287227">
				<ele>70.0</ele>
				<time>2014-08-17T14:42:48Z</time>
				<extensions>
					<speed>0.0</speed>
				</extensions>
			</trkpt>
			<trkpt lat="53.25685852" lon="-8.92872034">
				<ele>70.0</ele>
				<time>2014-08-17T14:42:49Z</time>
				<extensions>
					<speed>1.25</speed>
				</extensions>
			</trkpt>
			<trkpt lat="53.25685393" lon="-8.92868897">
				<ele>70.0</ele>
				<time>2014-08-17T14:42:50Z</time>
				<extensions>
					<speed>2.5</speed>
				</extensions>
			</trkpt>
			<trkpt lat="53.25684763" lon="-8.9286474">
				<ele>69.0</ele>
				<time>2014-08-17T14:42:51Z</time>
				<extensions>
					<speed>3.5</speed>
				</extensions>
			</trkpt>
			<trkpt lat="53.25684872" lon="-8.92858446">
				<ele>70.0</ele>
				<time>2014-08-17T14:42:52Z</time>
				<extensions>
					<speed>3.75</speed>
				</extensions>
			</trkpt>
			<trkpt lat="53.25684697" lon="-8.92853595">
				<ele>70.0</ele>
				<time>2014-08-17T14:42:53Z</time>
				<extensions>
					<speed>3.25</speed>
				</extensions>
			</trkpt>
			<trkpt lat="53.25684814" lon="-8.92848912">
				<ele>70.0</ele>
				<time>2014-08-17T14:42:54Z</time>
				<extensions>
					<speed>3.25</speed>
				</extensions>
			</trkpt>
			<trkpt lat="53.25685136" lon="-8.92842501">
				<ele>70.0</ele>
				<time>2014-08-17T14:42:55Z</time>
				<extensions>
					<speed>4.75</speed>
				</extensions>
			</trkpt>
			<trkpt lat="53.2568527" lon="-8.92834585">
				<ele>70.0</ele>
				<time>2014-08-17T14:42:56Z</time>
				<extensions>
					<speed>5.5</speed>
				</extensions>
			</trkpt>
			<trkpt lat="53.25684879" lon="-8.92826646">
				<ele>70.0</ele>
				<time>2014-08-17T14:42:57Z</time>
				<extensions>
					<speed>5.25</speed>
				</extensions>
			</trkpt>
			<trkpt lat="53.25685117" lon="-8.92818033">
				<ele>71.0</ele>
				<time>2014-08-17T14:42:58Z</time>
				<extensions>
					<speed>6.0</speed>
				</extensions>
			</trkpt>
			<trkpt lat="53.25685475" lon="-8.92807489">
				<ele>71.0</ele>
				<time>2014-08-17T14:42:59Z</time>
				<extensions>
					<speed>7.0</speed>
				</extensions>
			</trkpt>
			<trkpt lat="53.25685803" lon="-8.92796303">
				<ele>71.0</ele>
				<time>2014-08-17T14:43:00Z</time>
				<extensions>
					<speed>7.0</speed>
				</extensions>
			</trkpt>
			<trkpt lat="53.25687116" lon="-8.92785256">
				<ele>71.0</ele>
				<time>2014-08-17T14:43:01Z</time>
				<extensions>
					<speed>6.75</speed>
				</extensions>
			</trkpt>
			<trkpt lat="53.25687762" lon="-8.92776473">
				<ele>71.0</ele>
				<time>2014-08-17T14:43:02Z</time>
				<extensions>
					<speed>6.25</speed>
				</extensions>
			</trkpt>
			<trkpt lat="53.25688226" lon="-8.92766783">
				<ele>71.0</ele>
				<time>2014-08-17T14:43:03Z</time>
				<extensions>
					<speed>5.5</speed>
				</extensions>
			</trkpt>
			<trkpt lat="53.25688866" lon="-8.92759347">
				<ele>71.0</ele>
				<time>2014-08-17T14:43:04Z</time>
				<extensions>
					<speed>4.75</speed>
				</extensions>
			</trkpt>
			<trkpt lat="53.25689394" lon="-8.92753185">
				<ele>71.0</ele>
				<time>2014-08-17T14:43:05Z</time>
				<extensions>
					<speed>4.5</speed>
				</extensions>
			</trkpt>
			<trkpt lat="53.25690146" lon="-8.92747012">
				<ele>71.0</ele>
				<time>2014-08-17T14:43:06Z</time>
				<extensions>
					<speed>4.0</speed>
				</extensions>
			</trkpt>
			<trkpt lat="53.25690446" lon="-8.92740481">
				<ele>71.0</ele>
				<time>2014-08-17T14:43:07Z</time>
				<extensions>
					<speed>4.25</speed>
				</extensions>
			</trkpt>
			<trkpt lat="53.25690202" lon="-8.92733707">
				<ele>71.0</ele>
				<time>2014-08-17T14:43:08Z</time>
				<extensions>
					<speed>4.25</speed>
				</extensions>
			</trkpt>
			<trkpt lat="53.25687544" lon="-8.9272954">
				<ele>71.0</ele>
				<time>2014-08-17T14:43:09Z</time>
				<extensions>
					<speed>4.25</speed>
				</extensions>
			</trkpt>
			<trkpt lat="53.25683831" lon="-8.92728203">
				<ele>71.0</ele>
				<time>2014-08-17T14:43:10Z</time>
				<extensions>
					<speed>4.25</speed>
				</extensions>
			</trkpt>
			<trkpt lat="53.25679663" lon="-8.9272874">
				<ele>70.0</ele>
				<time>2014-08-17T14:43:11Z</time>
				<extensions>
					<speed>4.5</speed>
				</extensions>
			</trkpt>
			<trkpt lat="53.25676135" lon="-8.92730265">
				<ele>70.0</ele>
				<time>2014-08-17T14:43:12Z</time>
				<extensions>
					<speed>4.0</speed>
				</extensions>
			</trkpt>
			<trkpt lat="53.25673044" lon="-8.92731911">
				<ele>71.0</ele>
				<time>2014-08-17T14:43:13Z</time>
				<extensions>
					<speed>3.75</speed>
				</extensions>
			</trkpt>
			<trkpt lat="53.25669876" lon="-8.92733409">
				<ele>71.0</ele>
				<time>2014-08-17T14:43:14Z</time>
				<extensions>
					<speed>3.25</speed>
				</extensions>
			</trkpt>
			<trkpt lat="53.256671" lon="-8.92734783">
				<ele>71.0</ele>
				<time>2014-08-17T14:43:15Z</time>
				<extensions>
					<speed>2.5</speed>
				</extensions>
			</trkpt>
			<trkpt lat="53.2566597" lon="-8.92734557">
				<ele>71.0</ele>
				<time>2014-08-17T14:43:16Z</time>
				<extensions>
					<speed>1.5</speed>
				</extensions>
			</trkpt>
			<trkpt lat="53.25665168" lon="-8.92735027">
				<ele>71.0</ele>
				<time>2014-08-17T14:43:17Z</time>
				<extensions>
					<speed>0.0</speed>
				</extensions>
			</trkpt>
			<trkpt lat="53.25664895" lon="-8.92735208">
				<ele>71.0</ele>
				<time>2014-08-17T14:43:18Z</time>
				<extensions>
					<speed>0.0</speed>
				</extensions>
			</trkpt>
			<trkpt lat="53.25664886" lon="-8.92735065">
				<ele>71.0</ele>
				<time>2014-08-17T14:43:19Z</time>
				<extensions>
					<speed>0.0</speed>
				</extensions>
			</trkpt>
			<trkpt lat="53.25664899" lon="-8.92735001">
				<ele>71.0</ele>
				<time>2014-08-17T14:43:20Z</time>
				<extensions>
					<speed>0.0</speed>
				</extensions>
			</trkpt>
			<trkpt lat="53.25664942" lon="-8.92735092">
				<ele>70.0</ele>
				<time>2014-08-17T14:43:21Z</time>
				<extensions>
					<speed>0.0</speed>
				</extensions>
			</trkpt>
			<trkpt lat="53.25664879" lon="-8.92735033">
				<ele>70.0</ele>
				<time>2014-08-17T14:43:22Z</time>
				<extensions>
					<speed>0.5</speed>
				</extensions>
			</trkpt>
			<trkpt lat="53.25664679" lon="-8.92735255">
				<ele>70.0</ele>
				<time>2014-08-17T14:43:23Z</time>
				<extensions>
					<speed>0.0</speed>
				</extensions>
			</trkpt>
			<trkpt lat="53.25664507" lon="-8.92734968">
				<ele>70.0</ele>
				<time>2014-08-17T14:43:24Z</time>
				<extensions>
					<speed>0.0</speed>
				</extensions>
			</trkpt>
			<trkpt lat="53.25664666" lon="-8.92734811">
				<ele>70.0</ele>
				<time>2014-08-17T14:43:25Z</time>
				<extensions>
					<speed>0.0</speed>
				</extensions>
			</trkpt>
			<trkpt lat="53.25664639" lon="-8.92735152">
				<ele>70.0</ele>
				<time>2014-08-17T14:43:26Z</time>
				<extensions>
					<speed>0.0</speed>
				</extensions>
			</trkpt>
			<trkpt lat="53.25664774" lon="-8.92735142">
				<ele>70.0</ele>
				<time>2014-08-17T14:43:27Z</time>
				<extensions>
					<speed>1.0</speed>
				</extensions>
			</trkpt>
			<trkpt lat="53.25665355" lon="-8.92734884">
				<ele>70.0</ele>
				<time>2014-08-17T14:43:28Z</time>
				<extensions>
					<speed>0.0</speed>
				</extensions>
			</trkpt>
			<trkpt lat="53.25665147" lon="-8.92734504">
				<ele>69.0</ele>
				<time>2014-08-17T14:43:29Z</time>
				<extensions>
					<speed>0.0</speed>
				</extensions>
			</trkpt>
			<trkpt lat="53.25665124" lon="-8.92734482">
				<ele>69.0</ele>
				<time>2014-08-17T14:43:30Z</time>
				<extensions>
					<speed>0.0</speed>
				</extensions>
			</trkpt>
			<trkpt lat="53.25665119" lon="-8.92734641">
				<ele>70.0</ele>
				<time>2014-08-17T14:43:31Z</time>
				<extensions>
					<speed>0.0</speed>
				</extensions>
			</trkpt>
			<trkpt lat="53.25665151" lon="-8.92734953">
				<ele>70.0</ele>
				<time>2014-08-17T14:43:32Z</time>
				<extensions>
					<speed>0.0</speed>
				</extensions>
			</trkpt>
			<trkpt lat="53.25665046" lon="-8.92734495">
				<ele>69.0</ele>
				<time>2014-08-17T14:43:33Z</time>
				<extensions>
					<speed>0.0</speed>
				</extensions>
			</trkpt>
			<trkpt lat="53.25665026" lon="-8.92734439">
				<ele>70.0</ele>
				<time>2014-08-17T14:43:34Z</time>
				<extensions>
					<speed>0.0</speed>
				</extensions>
			</trkpt>
			<trkpt lat="53.25665193" lon="-8.92734114">
				<ele>70.0</ele>
				<time>2014-08-17T14:43:35Z</time>
				<extensions>
					<speed>0.0</speed>
				</extensions>
			</trkpt>
			<trkpt lat="53.25665111" lon="-8.92734159">
				<ele>69.0</ele>
				<time>2014-08-17T14:43:36Z</time>
				<extensions>
					<speed>0.0</speed>
				</extensions>
			</trkpt>
			<trkpt lat="53.25665148" lon="-8.92734114">
				<ele>69.0</ele>
				<time>2014-08-17T14:43:37Z</time>
				<extensions>
					<speed>0.25</speed>
				</extensions>
			</trkpt>
			<trkpt lat="53.25665431" lon="-8.9273424">
				<ele>69.0</ele>
				<time>2014-08-17T14:43:38Z</time>
				<extensions>
					<speed>0.0</speed>
				</extensions>
			</trkpt>
			<trkpt lat="53.25665291" lon="-8.92734749">
				<ele>69.0</ele>
				<time>2014-08-17T14:43:39Z</time>
				<extensions>
					<speed>0.0</speed>
				</extensions>
			</trkpt>
			<trkpt lat="53.2566522" lon="-8.92734877">
				<ele>70.0</ele>
				<time>2014-08-17T14:43:40Z</time>
				<extensions>
					<speed>0.0</speed>
				</extensions>
			</trkpt>
			<trkpt lat="53.25665255" lon="-8.92735197">
				<ele>70.0</ele>
				<time>2014-08-17T14:43:41Z</time>
				<extensions>
					<speed>0.0</speed>
				</extensions>
			</trkpt>
			<trkpt lat="53.25664772" lon="-8.92735663">
				<ele>70.0</ele>
				<time>2014-08-17T14:43:42Z</time>
				<extensions>
					<speed>0.0</speed>
				</extensions>
			</trkpt>
			<trkpt lat="53.25664579" lon="-8.9273563">
				<ele>70.0</ele>
				<time>2014-08-17T14:43:43Z</time>
				<extensions>
					<speed>0.0</speed>
				</extensions>
			</trkpt>
			<trkpt lat="53.25664614" lon="-8.92736071">
				<ele>70.0</ele>
				<time>2014-08-17T14:43:44Z</time>
				<extensions>
					<speed>0.0</speed>
				</extensions>
			</trkpt>
			<trkpt lat="53.25664746" lon="-8.92735808">
				<ele>70.0</ele>
				<time>2014-08-17T14:43:45Z</time>
				<extensions>
					<speed>0.0</speed>
				</extensions>
			</trkpt>
			<trkpt lat="53.25664766" lon="-8.92736133">
				<ele>70.0</ele>
				<time>2014-08-17T14:43:46Z</time>
				<extensions>
					<speed>0.0</speed>
				</extensions>
			</trkpt>
			<trkpt lat="53.25664672" lon="-8.92736831">
				<ele>70.0</ele>
				<time>2014-08-17T14:43:47Z</time>
				<extensions>
					<speed>0.0</speed>
				</extensions>
			</trkpt>
			<trkpt lat="53.25664596" lon="-8.92736894">
				<ele>69.0</ele>
				<time>2014-08-17T14:43:48Z</time>
				<extensions>
					<speed>0.0</speed>
				</extensions>
			</trkpt>
			<trkpt lat="53.25664563" lon="-8.92737013">
				<ele>69.0</ele>
				<time>2014-08-17T14:43:49Z</time>
				<extensions>
					<speed>0.0</speed>
				</extensions>
			</trkpt>
			<trkpt lat="53.25664549" lon="-8.92737024">
				<ele>69.0</ele>
				<time>2014-08-17T14:43:50Z</time>
				<extensions>
					<speed>0.0</speed>
				</extensions>
			</trkpt>
			<trkpt lat="53.25664548" lon="-8.92737023">
				<ele>69.0</ele>
				<time>2014-08-17T14:43:51Z</time>
				<extensions>
					<speed>0.0</speed>
				</extensions>
			</trkpt>
			<trkpt lat="53.25664548" lon="-8.92737023">
				<ele>69.0</ele>
				<time>2014-08-17T14:43:52Z</time>
				<extensions>
					<speed>0.0</speed>
				</extensions>
			</trkpt>
			<trkpt lat="53.25664547" lon="-8.92737026">
				<ele>69.0</ele>
				<time>2014-08-17T14:43:53Z</time>
				<extensions>
					<speed>0.0</speed>
				</extensions>
			</trkpt>
			<trkpt lat="53.25664549" lon="-8.92737029">
				<ele>69.0</ele>
				<time>2014-08-17T14:43:54Z</time>
				<extensions>
					<speed>0.0</speed>
				</extensions>
			</trkpt>
			<trkpt lat="53.2566455" lon="-8.92737029">
				<ele>69.0</ele>
				<time>2014-08-17T14:43:55Z</time>
				<extensions>
					<speed>0.0</speed>
				</extensions>
			</trkpt>
			<trkpt lat="53.25664549" lon="-8.92737033">
				<ele>69.0</ele>
				<time>2014-08-17T14:43:56Z</time>
				<extensions>
					<speed>0.0</speed>
				</extensions>
			</trkpt>
			<trkpt lat="53.2566455" lon="-8.9273703">
				<ele>69.0</ele>
				<time>2014-08-17T14:43:57Z</time>
				<extensions>
					<speed>0.0</speed>
				</extensions>
			</trkpt>
			<trkpt lat="53.2566455" lon="-8.92737027">
				<ele>69.0</ele>
				<time>2014-08-17T14:43:58Z</time>
				<extensions>
					<speed>0.0</speed>
				</extensions>
			</trkpt>
			<trkpt lat="53.25664552" lon="-8.92737029">
				<ele>69.0</ele>
				<time>2014-08-17T14:43:59Z</time>
				<extensions>
					<speed>0.0</speed>
				</extensions>
			</trkpt>
			<trkpt lat="53.25664549" lon="-8.92737034">
				<ele>69.0</ele>
				<time>2014-08-17T14:44:00Z</time>
				<extensions>
					<speed>0.0</speed>
				</extensions>
			</trkpt>
			<trkpt lat="53.2566455" lon="-8.9273703">
				<ele>69.0</ele>
				<time>2014-08-17T14:44:01Z</time>
				<extensions>
					<speed>0.0</speed>
				</extensions>
			</trkpt>
			<trkpt lat="53.25664548" lon="-8.9273703">
				<ele>69.0</ele>
				<time>2014-08-17T14:44:02Z</time>
				<extensions>
					<speed>0.0</speed>
				</extensions>
			</trkpt>
			<trkpt lat="53.2566455" lon="-8.92737033">
				<ele>69.0</ele>
				<time>2014-08-17T14:44:03Z</time>
				<extensions>
					<speed>0.0</speed>
				</extensions>
			</trkpt>
			<trkpt lat="53.2566455" lon="-8.9273703">
				<ele>69.0</ele>
				<time>2014-08-17T14:44:04Z</time>
				<extensions>
					<speed>0.0</speed>
				</extensions>
			</trkpt>
			<trkpt lat="53.25664552" lon="-8.92737023">
				<ele>69.0</ele>
				<time>2014-08-17T14:44:05Z</time>
				<extensions>
					<speed>0.0</speed>
				</extensions>
			</trkpt>
			<trkpt lat="53.2566455" lon="-8.92737021">
				<ele>69.0</ele>
				<time>2014-08-17T14:44:06Z</time>
				<extensions>
					<speed>0.0</speed>
				</extensions>
			</trkpt>
			<trkpt lat="53.25664547" lon="-8.92737023">
				<ele>69.0</ele>
				<time>2014-08-17T14:44:07Z</time>
				<extensions>
					<speed>0.0</speed>
				</extensions>
			</trkpt>
			<trkpt lat="53.25664545" lon="-8.92737028">
				<ele>69.0</ele>
				<time>2014-08-17T14:44:08Z</time>
				<extensions>
					<speed>0.0</speed>
				</extensions>
			</trkpt>
			<trkpt lat="53.25664542" lon="-8.92737036">
				<ele>69.0</ele>
				<time>2014-08-17T14:44:09Z</time>
				<extensions>
					<speed>0.0</speed>
				</extensions>
			</trkpt>
			<trkpt lat="53.25664539" lon="-8.92737042">
				<ele>69.0</ele>
				<time>2014-08-17T14:44:10Z</time>
				<extensions>
					<speed>0.0</speed>
				</extensions>
			</trkpt>
			<trkpt lat="53.25664451" lon="-8.9273705">
				<ele>69.0</ele>
				<time>2014-08-17T14:44:11Z</time>
				<extensions>
					<speed>0.75</speed>
				</extensions>
			</trkpt>
			<trkpt lat="53.2566241" lon="-8.92738313">
				<ele>69.0</ele>
				<time>2014-08-17T14:44:12Z</time>
				<extensions>
					<speed>2.25</speed>
				</extensions>
			</trkpt>
			<trkpt lat="53.25659747" lon="-8.92739278">
				<ele>69.0</ele>
				<time>2014-08-17T14:44:13Z</time>
				<extensions>
					<speed>3.0</speed>
				</extensions>
			</trkpt>
			<trkpt lat="53.25656662" lon="-8.9274023">
				<ele>69.0</ele>
				<time>2014-08-17T14:44:14Z</time>
				<extensions>
					<speed>4.0</speed>
				</extensions>
			</trkpt>
			<trkpt lat="53.25653191" lon="-8.92740648">
				<ele>68.0</ele>
				<time>2014-08-17T14:44:15Z</time>
				<extensions>
					<speed>4.0</speed>
				</extensions>
			</trkpt>
			<trkpt lat="53.25649762" lon="-8.92741483">
				<ele>68.0</ele>
				<time>2014-08-17T14:44:16Z</time>
				<extensions>
					<speed>4.25</speed>
				</extensions>
			</trkpt>
			<trkpt lat="53.25646424" lon="-8.92741686">
				<ele>68.0</ele>
				<time>2014-08-17T14:44:17Z</time>
				<extensions>
					<speed>4.0</speed>
				</extensions>
			</trkpt>
			<trkpt lat="53.25642122" lon="-8.92742014">
				<ele>68.0</ele>
				<time>2014-08-17T14:44:18Z</time>
				<extensions>
					<speed>4.0</speed>
				</extensions>
			</trkpt>
			<trkpt lat="53.25638353" lon="-8.92742465">
				<ele>69.0</ele>
				<time>2014-08-17T14:44:19Z</time>
				<extensions>
					<speed>4.0</speed>
				</extensions>
			</trkpt>
			<trkpt lat="53.25635498" lon="-8.92742242">
				<ele>69.0</ele>
				<time>2014-08-17T14:44:20Z</time>
				<extensions>
					<speed>3.0</speed>
				</extensions>
			</trkpt>
			<trkpt lat="53.25633584" lon="-8.92741632">
				<ele>70.0</ele>
				<time>2014-08-17T14:44:21Z</time>
				<extensions>
					<speed>2.25</speed>
				</extensions>
			</trkpt>
			<trkpt lat="53.25631904" lon="-8.92742535">
				<ele>70.0</ele>
				<time>2014-08-17T14:44:22Z</time>
				<extensions>
					<speed>2.0</speed>
				</extensions>
			</trkpt>
			<trkpt lat="53.25630614" lon="-8.92744154">
				<ele>70.0</ele>
				<time>2014-08-17T14:44:23Z</time>
				<extensions>
					<speed>2.5</speed>
				</extensions>
			</trkpt>
			<trkpt lat="53.25628899" lon="-8.92747765">
				<ele>70.0</ele>
				<time>2014-08-17T14:44:24Z</time>
				<extensions>
					<speed>3.25</speed>
				</extensions>
			</trkpt>
			<trkpt lat="53.25627705" lon="-8.92753063">
				<ele>70.0</ele>
				<time>2014-08-17T14:44:25Z</time>
				<extensions>
					<speed>4.0</speed>
				</extensions>
			</trkpt>
			<trkpt lat="53.25626653" lon="-8.92758571">
				<ele>70.0</ele>
				<time>2014-08-17T14:44:26Z</time>
				<extensions>
					<speed>4.0</speed>
				</extensions>
			</trkpt>
			<trkpt lat="53.2562611" lon="-8.92764447">
				<ele>70.0</ele>
				<time>2014-08-17T14:44:27Z</time>
				<extensions>
					<speed>3.5</speed>
				</extensions>
			</trkpt>
			<trkpt lat="53.25625137" lon="-8.92769689">
				<ele>70.0</ele>
				<time>2014-08-17T14:44:28Z</time>
				<extensions>
					<speed>3.5</speed>
				</extensions>
			</trkpt>
			<trkpt lat="53.25624287" lon="-8.9277388">
				<ele>70.0</ele>
				<time>2014-08-17T14:44:29Z</time>
				<extensions>
					<speed>2.5</speed>
				</extensions>
			</trkpt>
			<trkpt lat="53.25623581" lon="-8.92775816">
				<ele>71.0</ele>
				<time>2014-08-17T14:44:30Z</time>
				<extensions>
					<speed>1.75</speed>
				</extensions>
			</trkpt>
			<trkpt lat="53.25623042" lon="-8.92777545">
				<ele>71.0</ele>
				<time>2014-08-17T14:44:31Z</time>
				<extensions>
					<speed>1.0</speed>
				</extensions>
			</trkpt>
			<trkpt lat="53.25622466" lon="-8.92778127">
				<ele>70.0</ele>
				<time>2014-08-17T14:44:32Z</time>
				<extensions>
					<speed>0.0</speed>
				</extensions>
			</trkpt>
			<trkpt lat="53.25622466" lon="-8.92778127">
				<ele>70.0</ele>
				<time>2014-08-17T14:44:33Z</time>
				<extensions>
					<speed>0.0</speed>
				</extensions>
			</trkpt>
			<trkpt lat="53.25622489" lon="-8.92778526">
				<ele>70.0</ele>
				<time>2014-08-17T14:44:34Z</time>
				<extensions>
					<speed>0.0</speed>
				</extensions>
			</trkpt>
			<trkpt lat="53.25622637" lon="-8.92778513">
				<ele>71.0</ele>
				<time>2014-08-17T14:44:35Z</time>
				<extensions>
					<speed>0.0</speed>
				</extensions>
			</trkpt>
			<trkpt lat="53.25622637" lon="-8.92778513">
				<ele>71.0</ele>
				<time>2014-08-17T14:44:36Z</time>
				<extensions>
					<speed>0.0</speed>
				</extensions>
			</trkpt>
			<trkpt lat="53.25622536" lon="-8.92778798">
				<ele>71.0</ele>
				<time>2014-08-17T14:44:37Z</time>
				<extensions>
					<speed>0.0</speed>
				</extensions>
			</trkpt>
			<trkpt lat="53.25622477" lon="-8.92778993">
				<ele>71.0</ele>
				<time>2014-08-17T14:44:38Z</time>
				<extensions>
					<speed>0.0</speed>
				</extensions>
			</trkpt>
			<trkpt lat="53.25622616" lon="-8.92778773">
				<ele>71.0</ele>
				<time>2014-08-17T14:44:39Z</time>
				<extensions>
					<speed>0.0</speed>
				</extensions>
			</trkpt>
			<trkpt lat="53.25622699" lon="-8.92779162">
				<ele>71.0</ele>
				<time>2014-08-17T14:44:40Z</time>
				<extensions>
					<speed>0.0</speed>
				</extensions>
			</trkpt>
			<trkpt lat="53.25622532" lon="-8.92779455">
				<ele>71.0</ele>
				<time>2014-08-17T14:44:41Z</time>
				<extensions>
					<speed>0.0</speed>
				</extensions>
			</trkpt>
			<trkpt lat="53.25622524" lon="-8.92779561">
				<ele>71.0</ele>
				<time>2014-08-17T14:44:42Z</time>
				<extensions>
					<speed>0.5</speed>
				</extensions>
			</trkpt>
			<trkpt lat="53.25622182" lon="-8.92780913">
				<ele>72.0</ele>
				<time>2014-08-17T14:44:43Z</time>
				<extensions>
					<speed>2.0</speed>
				</extensions>
			</trkpt>
			<trkpt lat="53.25621874" lon="-8.92783984">
				<ele>72.0</ele>
				<time>2014-08-17T14:44:44Z</time>
				<extensions>
					<speed>2.0</speed>
				</extensions>
			</trkpt>
			<trkpt lat="53.25622222" lon="-8.92785555">
				<ele>72.0</ele>
				<time>2014-08-17T14:44:45Z</time>
				<extensions>
					<speed>1.0</speed>
				</extensions>
			</trkpt>
			<trkpt lat="53.25622168" lon="-8.92787149">
				<ele>72.0</ele>
				<time>2014-08-17T14:44:46Z</time>
				<extensions>
					<speed>1.0</speed>
				</extensions>
			</trkpt>
			<trkpt lat="53.25623054" lon="-8.92787361">
				<ele>71.0</ele>
				<time>2014-08-17T14:44:47Z</time>
				<extensions>
					<speed>0.0</speed>
				</extensions>
			</trkpt>
			<trkpt lat="53.25623055" lon="-8.92787069">
				<ele>71.0</ele>
				<time>2014-08-17T14:44:48Z</time>
				<extensions>
					<speed>0.0</speed>
				</extensions>
			</trkpt>
			<trkpt lat="53.25623043" lon="-8.92786882">
				<ele>71.0</ele>
				<time>2014-08-17T14:44:49Z</time>
				<extensions>
					<speed>1.0</speed>
				</extensions>
			</trkpt>
			<trkpt lat="53.25623226" lon="-8.92785366">
				<ele>71.0</ele>
				<time>2014-08-17T14:44:50Z</time>
				<extensions>
					<speed>1.0</speed>
				</extensions>
			</trkpt>
			<trkpt lat="53.25623374" lon="-8.92783338">
				<ele>71.0</ele>
				<time>2014-08-17T14:44:51Z</time>
				<extensions>
					<speed>1.0</speed>
				</extensions>
			</trkpt>
			<trkpt lat="53.2562306" lon="-8.92782346">
				<ele>71.0</ele>
				<time>2014-08-17T14:44:52Z</time>
				<extensions>
					<speed>1.0</speed>
				</extensions>
			</trkpt>
			<trkpt lat="53.25622802" lon="-8.92781879">
				<ele>71.0</ele>
				<time>2014-08-17T14:44:53Z</time>
				<extensions>
					<speed>1.0</speed>
				</extensions>
			</trkpt>
			<trkpt lat="53.25622569" lon="-8.92780277">
				<ele>71.0</ele>
				<time>2014-08-17T14:44:54Z</time>
				<extensions>
					<speed>1.0</speed>
				</extensions>
			</trkpt>
			<trkpt lat="53.25622024" lon="-8.9277921">
				<ele>70.0</ele>
				<time>2014-08-17T14:44:55Z</time>
				<extensions>
					<speed>1.0</speed>
				</extensions>
			</trkpt>
			<trkpt lat="53.2562149" lon="-8.92778215">
				<ele>70.0</ele>
				<time>2014-08-17T14:44:56Z</time>
				<extensions>
					<speed>0.5</speed>
				</extensions>
			</trkpt>
			<trkpt lat="53.25621509" lon="-8.92778006">
				<ele>70.0</ele>
				<time>2014-08-17T14:44:57Z</time>
				<extensions>
					<speed>0.0</speed>
				</extensions>
			</trkpt>
			<trkpt lat="53.2562168" lon="-8.92777518">
				<ele>70.0</ele>
				<time>2014-08-17T14:44:58Z</time>
				<extensions>
					<speed>0.0</speed>
				</extensions>
			</trkpt>
			<trkpt lat="53.25621856" lon="-8.92777499">
				<ele>70.0</ele>
				<time>2014-08-17T14:44:59Z</time>
				<extensions>
					<speed>1.5</speed>
				</extensions>
			</trkpt>
			<trkpt lat="53.25623382" lon="-8.927762">
				<ele>69.0</ele>
				<time>2014-08-17T14:45:00Z</time>
				<extensions>
					<speed>2.25</speed>
				</extensions>
			</trkpt>
			<trkpt lat="53.2562517" lon="-8.92773382">
				<ele>69.0</ele>
				<time>2014-08-17T14:45:01Z</time>
				<extensions>
					<speed>2.25</speed>
				</extensions>
			</trkpt>
			<trkpt lat="53.25626463" lon="-8.92768663">
				<ele>69.0</ele>
				<time>2014-08-17T14:45:02Z</time>
				<extensions>
					<speed>3.0</speed>
				</extensions>
			</trkpt>
			<trkpt lat="53.25627661" lon="-8.9276348">
				<ele>69.0</ele>
				<time>2014-08-17T14:45:03Z</time>
				<extensions>
					<speed>3.25</speed>
				</extensions>
			</trkpt>
			<trkpt lat="53.25628955" lon="-8.92759508">
				<ele>69.0</ele>
				<time>2014-08-17T14:45:04Z</time>
				<extensions>
					<speed>3.0</speed>
				</extensions>
			</trkpt>
			<trkpt lat="53.25629266" lon="-8.92755652">
				<ele>69.0</ele>
				<time>2014-08-17T14:45:05Z</time>
				<extensions>
					<speed>2.5</speed>
				</extensions>
			</trkpt>
			<trkpt lat="53.25629895" lon="-8.92752056">
				<ele>69.0</ele>
				<time>2014-08-17T14:45:06Z</time>
				<extensions>
					<speed>2.0</speed>
				</extensions>
			</trkpt>
			<trkpt lat="53.25630251" lon="-8.92749149">
				<ele>70.0</ele>
				<time>2014-08-17T14:45:07Z</time>
				<extensions>
					<speed>1.25</speed>
				</extensions>
			</trkpt>
			<trkpt lat="53.25629658" lon="-8.92747929">
				<ele>70.0</ele>
				<time>2014-08-17T14:45:08Z</time>
				<extensions>
					<speed>0.75</speed>
				</extensions>
			</trkpt>
			<trkpt lat="53.25629441" lon="-8.92746597">
				<ele>70.0</ele>
				<time>2014-08-17T14:45:09Z</time>
				<extensions>
					<speed>0.5</speed>
				</extensions>
			</trkpt>
			<trkpt lat="53.25629187" lon="-8.92746549">
				<ele>70.0</ele>
				<time>2014-08-17T14:45:10Z</time>
				<extensions>
					<speed>1.0</speed>
				</extensions>
			</trkpt>
			<trkpt lat="53.2562787" lon="-8.92744629">
				<ele>70.0</ele>
				<time>2014-08-17T14:45:11Z</time>
				<extensions>
					<speed>2.5</speed>
				</extensions>
			</trkpt>
			<trkpt lat="53.2562657" lon="-8.92741785">
				<ele>70.0</ele>
				<time>2014-08-17T14:45:12Z</time>
				<extensions>
					<speed>2.5</speed>
				</extensions>
			</trkpt>
			<trkpt lat="53.25624599" lon="-8.92739765">
				<ele>70.0</ele>
				<time>2014-08-17T14:45:13Z</time>
				<extensions>
					<speed>2.5</speed>
				</extensions>
			</trkpt>
			<trkpt lat="53.25621825" lon="-8.92739094">
				<ele>70.0</ele>
				<time>2014-08-17T14:45:14Z</time>
				<extensions>
					<speed>3.25</speed>
				</extensions>
			</trkpt>
			<trkpt lat="53.25619009" lon="-8.92737503">
				<ele>70.0</ele>
				<time>2014-08-17T14:45:15Z</time>
				<extensions>
					<speed>3.25</speed>
				</extensions>
			</trkpt>
			<trkpt lat="53.25615813" lon="-8.92736445">
				<ele>71.0</ele>
				<time>2014-08-17T14:45:16Z</time>
				<extensions>
					<speed>3.75</speed>
				</extensions>
			</trkpt>
			<trkpt lat="53.25611861" lon="-8.92735884">
				<ele>71.0</ele>
				<time>2014-08-17T14:45:17Z</time>
				<extensions>
					<speed>3.75</speed>
				</extensions>
			</trkpt>
			<trkpt lat="53.25608759" lon="-8.92735833">
				<ele>71.0</ele>
				<time>2014-08-17T14:45:18Z</time>
				<extensions>
					<speed>3.25</speed>
				</extensions>
			</trkpt>
			<trkpt lat="53.25606709" lon="-8.92735271">
				<ele>71.0</ele>
				<time>2014-08-17T14:45:19Z</time>
				<extensions>
					<speed>1.75</speed>
				</extensions>
			</trkpt>
			<trkpt lat="53.25605472" lon="-8.92735004">
				<ele>71.0</ele>
				<time>2014-08-17T14:45:20Z</time>
				<extensions>
					<speed>0.75</speed>
				</extensions>
			</trkpt>
			<trkpt lat="53.2560524" lon="-8.92734746">
				<ele>71.0</ele>
				<time>2014-08-17T14:45:21Z</time>
				<extensions>
					<speed>0.0</speed>
				</extensions>
			</trkpt>
			<trkpt lat="53.25605241" lon="-8.9273481">
				<ele>71.0</ele>
				<time>2014-08-17T14:45:22Z</time>
				<extensions>
					<speed>0.25</speed>
				</extensions>
			</trkpt>
			<trkpt lat="53.25604817" lon="-8.92734641">
				<ele>70.0</ele>
				<time>2014-08-17T14:45:23Z</time>
				<extensions>
					<speed>0.0</speed>
				</extensions>
			</trkpt>
			<trkpt lat="53.25604576" lon="-8.92734454">
				<ele>70.0</ele>
				<time>2014-08-17T14:45:24Z</time>
				<extensions>
					<speed>0.0</speed>
				</extensions>
			</trkpt>
			<trkpt lat="53.25604811" lon="-8.92734575">
				<ele>70.0</ele>
				<time>2014-08-17T14:45:25Z</time>
				<extensions>
					<speed>0.0</speed>
				</extensions>
			</trkpt>
			<trkpt lat="53.25604567" lon="-8.92734452">
				<ele>69.0</ele>
				<time>2014-08-17T14:45:26Z</time>
				<extensions>
					<speed>0.0</speed>
				</extensions>
			</trkpt>
			<trkpt lat="53.25604653" lon="-8.92734258">
				<ele>69.0</ele>
				<time>2014-08-17T14:45:27Z</time>
				<extensions>
					<speed>0.0</speed>
				</extensions>
			</trkpt>
			<trkpt lat="53.25604698" lon="-8.92734578">
				<ele>69.0</ele>
				<time>2014-08-17T14:45:28Z</time>
				<extensions>
					<speed>0.0</speed>
				</extensions>
			</trkpt>
			<trkpt lat="53.25604562" lon="-8.92734536">
				<ele>70.0</ele>
				<time>2014-08-17T14:45:29Z</time>
				<extensions>
					<speed>0.0</speed>
				</extensions>
			</trkpt>
			<trkpt lat="53.25604891" lon="-8.92734553">
				<ele>69.0</ele>
				<time>2014-08-17T14:45:30Z</time>
				<extensions>
					<speed>0.0</speed>
				</extensions>
			</trkpt>
			<trkpt lat="53.25604925" lon="-8.92734653">
				<ele>69.0</ele>
				<time>2014-08-17T14:45:31Z</time>
				<extensions>
					<speed>0.0</speed>
				</extensions>
			</trkpt>
			<trkpt lat="53.25604783" lon="-8.92734642">
				<ele>69.0</ele>
				<time>2014-08-17T14:45:32Z</time>
				<extensions>
					<speed>0.0</speed>
				</extensions>
			</trkpt>
			<trkpt lat="53.25604783" lon="-8.92734642">
				<ele>69.0</ele>
				<time>2014-08-17T14:45:33Z</time>
				<extensions>
					<speed>0.0</speed>
				</extensions>
			</trkpt>
			<trkpt lat="53.25605183" lon="-8.92733659">
				<ele>69.0</ele>
				<time>2014-08-17T14:45:34Z</time>
				<extensions>
					<speed>0.0</speed>
				</extensions>
			</trkpt>
			<trkpt lat="53.25605208" lon="-8.92733671">
				<ele>69.0</ele>
				<time>2014-08-17T14:45:35Z</time>
				<extensions>
					<speed>0.0</speed>
				</extensions>
			</trkpt>
			<trkpt lat="53.25605257" lon="-8.92733556">
				<ele>69.0</ele>
				<time>2014-08-17T14:45:36Z</time>
				<extensions>
					<speed>0.0</speed>
				</extensions>
			</trkpt>
			<trkpt lat="53.25605279" lon="-8.92733514">
				<ele>69.0</ele>
				<time>2014-08-17T14:45:37Z</time>
				<extensions>
					<speed>0.0</speed>
				</extensions>
			</trkpt>
			<trkpt lat="53.25605147" lon="-8.92733485">
				<ele>69.0</ele>
				<time>2014-08-17T14:45:38Z</time>
				<extensions>
					<speed>1.25</speed>
				</extensions>
			</trkpt>
			<trkpt lat="53.25604171" lon="-8.92733067">
				<ele>68.0</ele>
				<time>2014-08-17T14:45:39Z</time>
				<extensions>
					<speed>1.75</speed>
				</extensions>
			</trkpt>
			<trkpt lat="53.25602336" lon="-8.92732602">
				<ele>69.0</ele>
				<time>2014-08-17T14:45:40Z</time>
				<extensions>
					<speed>2.5</speed>
				</extensions>
			</trkpt>
			<trkpt lat="53.2559944" lon="-8.92732011">
				<ele>69.0</ele>
				<time>2014-08-17T14:45:41Z</time>
				<extensions>
					<speed>3.25</speed>
				</extensions>
			</trkpt>
			<trkpt lat="53.25597326" lon="-8.92730336">
				<ele>69.0</ele>
				<time>2014-08-17T14:45:42Z</time>
				<extensions>
					<speed>3.25</speed>
				</extensions>
			</trkpt>
			<trkpt lat="53.25593792" lon="-8.92729639">
				<ele>69.0</ele>
				<time>2014-08-17T14:45:43Z</time>
				<extensions>
					<speed>3.75</speed>
				</extensions>
			</trkpt>
			<trkpt lat="53.25590141" lon="-8.92729688">
				<ele>69.0</ele>
				<time>2014-08-17T14:45:44Z</time>
				<extensions>
					<speed>3.75</speed>
				</extensions>
			</trkpt>
			<trkpt lat="53.25586915" lon="-8.92729358">
				<ele>68.0</ele>
				<time>2014-08-17T14:45:45Z</time>
				<extensions>
					<speed>3.75</speed>
				</extensions>
			</trkpt>
			<trkpt lat="53.25583888" lon="-8.92728464">
				<ele>68.0</ele>
				<time>2014-08-17T14:45:46Z</time>
				<extensions>
					<speed>3.25</speed>
				</extensions>
			</trkpt>
			<trkpt lat="53.25581165" lon="-8.92726117">
				<ele>68.0</ele>
				<time>2014-08-17T14:45:47Z</time>
				<extensions>
					<speed>3.75</speed>
				</extensions>
			</trkpt>
			<trkpt lat="53.2557765" lon="-8.92724368">
				<ele>68.0</ele>
				<time>2014-08-17T14:45:48Z</time>
				<extensions>
					<speed>3.5</speed>
				</extensions>
			</trkpt>
			<trkpt lat="53.25574883" lon="-8.92722749">
				<ele>67.0</ele>
				<time>2014-08-17T14:45:49Z</time>
				<extensions>
					<speed>3.5</speed>
				</extensions>
			</trkpt>
			<trkpt lat="53.25571667" lon="-8.92721317">
				<ele>68.0</ele>
				<time>2014-08-17T14:45:50Z</time>
				<extensions>
					<speed>3.5</speed>
				</extensions>
			</trkpt>
			<trkpt lat="53.25568701" lon="-8.92719466">
				<ele>67.0</ele>
				<time>2014-08-17T14:45:51Z</time>
				<extensions>
					<speed>3.5</speed>
				</extensions>
			</trkpt>
			<trkpt lat="53.25565443" lon="-8.92717381">
				<ele>66.0</ele>
				<time>2014-08-17T14:45:52Z</time>
				<extensions>
					<speed>3.5</speed>
				</extensions>
			</trkpt>
			<trkpt lat="53.25562478" lon="-8.92715569">
				<ele>66.0</ele>
				<time>2014-08-17T14:45:53Z</time>
				<extensions>
					<speed>3.5</speed>
				</extensions>
			</trkpt>
			<trkpt lat="53.25559723" lon="-8.92713785">
				<ele>66.0</ele>
				<time>2014-08-17T14:45:54Z</time>
				<extensions>
					<speed>3.5</speed>
				</extensions>
			</trkpt>
			<trkpt lat="53.25556613" lon="-8.92711996">
				<ele>66.0</ele>
				<time>2014-08-17T14:45:55Z</time>
				<extensions>
					<speed>3.5</speed>
				</extensions>
			</trkpt>
			<trkpt lat="53.2555395" lon="-8.92709411">
				<ele>66.0</ele>
				<time>2014-08-17T14:45:56Z</time>
				<extensions>
					<speed>3.25</speed>
				</extensions>
			</trkpt>
			<trkpt lat="53.25551053" lon="-8.92707885">
				<ele>66.0</ele>
				<time>2014-08-17T14:45:57Z</time>
				<extensions>
					<speed>2.75</speed>
				</extensions>
			</trkpt>
			<trkpt lat="53.25548997" lon="-8.92706597">
				<ele>65.0</ele>
				<time>2014-08-17T14:45:58Z</time>
				<extensions>
					<speed>2.5</speed>
				</extensions>
			</trkpt>
			<trkpt lat="53.25547063" lon="-8.92704951">
				<ele>65.0</ele>
				<time>2014-08-17T14:45:59Z</time>
				<extensions>
					<speed>2.5</speed>
				</extensions>
			</trkpt>
			<trkpt lat="53.25545128" lon="-8.92703306">
				<ele>65.0</ele>
				<time>2014-08-17T14:46:00Z</time>
				<extensions>
					<speed>2.5</speed>
				</extensions>
			</trkpt>
			<trkpt lat="53.2554704" lon="-8.92704212">
				<ele>66.0</ele>
				<time>2014-08-17T14:46:01Z</time>
				<extensions>
					<speed>0.25</speed>
				</extensions>
			</trkpt>
			<trkpt lat="53.25547399" lon="-8.92704596">
				<ele>66.0</ele>
				<time>2014-08-17T14:46:02Z</time>
				<extensions>
					<speed>0.0</speed>
				</extensions>
			</trkpt>
			<trkpt lat="53.25547474" lon="-8.92704126">
				<ele>66.0</ele>
				<time>2014-08-17T14:46:03Z</time>
				<extensions>
					<speed>0.0</speed>
				</extensions>
			</trkpt>
			<trkpt lat="53.2554759" lon="-8.92704469">
				<ele>64.0</ele>
				<time>2014-08-17T14:46:04Z</time>
				<extensions>
					<speed>0.0</speed>
				</extensions>
			</trkpt>
			<trkpt lat="53.2554722" lon="-8.92703909">
				<ele>64.0</ele>
				<time>2014-08-17T14:46:05Z</time>
				<extensions>
					<speed>0.0</speed>
				</extensions>
			</trkpt>
			<trkpt lat="53.2554736" lon="-8.9270363">
				<ele>65.0</ele>
				<time>2014-08-17T14:46:06Z</time>
				<extensions>
					<speed>0.0</speed>
				</extensions>
			</trkpt>
			<trkpt lat="53.25547247" lon="-8.92703548">
				<ele>65.0</ele>
				<time>2014-08-17T14:46:07Z</time>
				<extensions>
					<speed>0.0</speed>
				</extensions>
			</trkpt>
			<trkpt lat="53.25547281" lon="-8.92703441">
				<ele>65.0</ele>
				<time>2014-08-17T14:46:08Z</time>
				<extensions>
					<speed>0.0</speed>
				</extensions>
			</trkpt>
			<trkpt lat="53.25546968" lon="-8.9270337">
				<ele>66.0</ele>
				<time>2014-08-17T14:46:09Z</time>
				<extensions>
					<speed>0.0</speed>
				</extensions>
			</trkpt>
			<trkpt lat="53.25547104" lon="-8.92702414">
				<ele>66.0</ele>
				<time>2014-08-17T14:46:10Z</time>
				<extensions>
					<speed>0.0</speed>
				</extensions>
			</trkpt>
			<trkpt lat="53.25547042" lon="-8.92702434">
				<ele>65.0</ele>
				<time>2014-08-17T14:46:11Z</time>
				<extensions>
					<speed>0.0</speed>
				</extensions>
			</trkpt>
			<trkpt lat="53.25547077" lon="-8.92702443">
				<ele>65.0</ele>
				<time>2014-08-17T14:46:12Z</time>
				<extensions>
					<speed>0.0</speed>
				</extensions>
			</trkpt>
			<trkpt lat="53.2554706" lon="-8.92702417">
				<ele>66.0</ele>
				<time>2014-08-17T14:46:13Z</time>
				<extensions>
					<speed>0.0</speed>
				</extensions>
			</trkpt>
			<trkpt lat="53.25547052" lon="-8.927024">
				<ele>66.0</ele>
				<time>2014-08-17T14:46:14Z</time>
				<extensions>
					<speed>0.0</speed>
				</extensions>
			</trkpt>
			<trkpt lat="53.25547054" lon="-8.92702403">
				<ele>66.0</ele>
				<time>2014-08-17T14:46:15Z</time>
				<extensions>
					<speed>0.0</speed>
				</extensions>
			</trkpt>
			<trkpt lat="53.25547056" lon="-8.92702403">
				<ele>66.0</ele>
				<time>2014-08-17T14:46:16Z</time>
				<extensions>
					<speed>0.0</speed>
				</extensions>
			</trkpt>
			<trkpt lat="53.25547054" lon="-8.92702405">
				<ele>66.0</ele>
				<time>2014-08-17T14:46:17Z</time>
				<extensions>
					<speed>0.0</speed>
				</extensions>
			</trkpt>
			<trkpt lat="53.25547058" lon="-8.92702406">
				<ele>66.0</ele>
				<time>2014-08-17T14:46:18Z</time>
				<extensions>
					<speed>0.0</speed>
				</extensions>
			</trkpt>
			<trkpt lat="53.25546921" lon="-8.9270232">
				<ele>66.0</ele>
				<time>2014-08-17T14:46:19Z</time>
				<extensions>
					<speed>0.75</speed>
				</extensions>
			</trkpt>
			<trkpt lat="53.25545633" lon="-8.92702058">
				<ele>66.0</ele>
				<time>2014-08-17T14:46:20Z</time>
				<extensions>
					<speed>1.75</speed>
				</extensions>
			</trkpt>
			<trkpt lat="53.25543784" lon="-8.92700772">
				<ele>66.0</ele>
				<time>2014-08-17T14:46:21Z</time>
				<extensions>
					<speed>2.75</speed>
				</extensions>
			</trkpt>
			<trkpt lat="53.25542902" lon="-8.92696703">
				<ele>65.0</ele>
				<time>2014-08-17T14:46:22Z</time>
				<extensions>
					<speed>3.0</speed>
				</extensions>
			</trkpt>
			<trkpt lat="53.25540464" lon="-8.92693539">
				<ele>65.0</ele>
				<time>2014-08-17T14:46:23Z</time>
				<extensions>
					<speed>3.25</speed>
				</extensions>
			</trkpt>
			<trkpt lat="53.25539485" lon="-8.92690199">
				<ele>64.0</ele>
				<time>2014-08-17T14:46:24Z</time>
				<extensions>
					<speed>2.75</speed>
				</extensions>
			</trkpt>
			<trkpt lat="53.25538617" lon="-8.92685756">
				<ele>64.0</ele>
				<time>2014-08-17T14:46:25Z</time>
				<extensions>
					<speed>3.0</speed>
				</extensions>
			</trkpt>
			<trkpt lat="53.25538294" lon="-8.92681186">
				<ele>64.0</ele>
				<time>2014-08-17T14:46:26Z</time>
				<extensions>
					<speed>3.0</speed>
				</extensions>
			</trkpt>
			<trkpt lat="53.2553797" lon="-8.92676616">
				<ele>64.0</ele>
				<time>2014-08-17T14:46:27Z</time>
				<extensions>
					<speed>3.0</speed>
				</extensions>
			</trkpt>
			<trkpt lat="53.2554069" lon="-8.92671635">
				<ele>65.0</ele>
				<time>2014-08-17T14:46:28Z</time>
				<extensions>
					<speed>3.5</speed>
				</extensions>
			</trkpt>
			<trkpt lat="53.25542306" lon="-8.92666872">
				<ele>65.0</ele>
				<time>2014-08-17T14:46:29Z</time>
				<extensions>
					<speed>3.25</speed>
				</extensions>
			</trkpt>
			<trkpt lat="53.25543341" lon="-8.92663904">
				<ele>64.0</ele>
				<time>2014-08-17T14:46:30Z</time>
				<extensions>
					<speed>3.0</speed>
				</extensions>
			</trkpt>
			<trkpt lat="53.25544303" lon="-8.92660736">
				<ele>63.0</ele>
				<time>2014-08-17T14:46:31Z</time>
				<extensions>
					<speed>2.75</speed>
				</extensions>
			</trkpt>
			<trkpt lat="53.25545798" lon="-8.92657539">
				<ele>62.0</ele>
				<time>2014-08-17T14:46:32Z</time>
				<extensions>
					<speed>1.75</speed>
				</extensions>
			</trkpt>
			<trkpt lat="53.25546478" lon="-8.92656121">
				<ele>61.0</ele>
				<time>2014-08-17T14:46:33Z</time>
				<extensions>
					<speed>1.0</speed>
				</extensions>
			</trkpt>
			<trkpt lat="53.25546924" lon="-8.92655612">
				<ele>61.0</ele>
				<time>2014-08-17T14:46:34Z</time>
				<extensions>
					<speed>0.0</speed>
				</extensions>
			</trkpt>
			<trkpt lat="53.25547221" lon="-8.92655322">
				<ele>61.0</ele>
				<time>2014-08-17T14:46:35Z</time>
				<extensions>
					<speed>0.0</speed>
				</extensions>
			</trkpt>
			<trkpt lat="53.25547221" lon="-8.92655322">
				<ele>61.0</ele>
				<time>2014-08-17T14:46:36Z</time>
				<extensions>
					<speed>0.0</speed>
				</extensions>
			</trkpt>
			<trkpt lat="53.25547985" lon="-8.92655235">
				<ele>61.0</ele>
				<time>2014-08-17T14:46:37Z</time>
				<extensions>
					<speed>0.0</speed>
				</extensions>
			</trkpt>
			<trkpt lat="53.2554794" lon="-8.92655219">
				<ele>61.0</ele>
				<time>2014-08-17T14:46:38Z</time>
				<extensions>
					<speed>0.5</speed>
				</extensions>
			</trkpt>
			<trkpt lat="53.25547901" lon="-8.92654776">
				<ele>61.0</ele>
				<time>2014-08-17T14:46:39Z</time>
				<extensions>
					<speed>0.0</speed>
				</extensions>
			</trkpt>
			<trkpt lat="53.25548062" lon="-8.92654251">
				<ele>61.0</ele>
				<time>2014-08-17T14:46:40Z</time>
				<extensions>
					<speed>0.0</speed>
				</extensions>
			</trkpt>
			<trkpt lat="53.25548351" lon="-8.92654991">
				<ele>61.0</ele>
				<time>2014-08-17T14:46:41Z</time>
				<extensions>
					<speed>0.0</speed>
				</extensions>
			</trkpt>
			<trkpt lat="53.25548557" lon="-8.92655159">
				<ele>62.0</ele>
				<time>2014-08-17T14:46:42Z</time>
				<extensions>
					<speed>0.0</speed>
				</extensions>
			</trkpt>
			<trkpt lat="53.25548728" lon="-8.92654966">
				<ele>62.0</ele>
				<time>2014-08-17T14:46:43Z</time>
				<extensions>
					<speed>0.0</speed>
				</extensions>
			</trkpt>
			<trkpt lat="53.25548393" lon="-8.92655084">
				<ele>62.0</ele>
				<time>2014-08-17T14:46:44Z</time>
				<extensions>
					<speed>0.0</speed>
				</extensions>
			</trkpt>
			<trkpt lat="53.25548347" lon="-8.9265506">
				<ele>62.0</ele>
				<time>2014-08-17T14:46:45Z</time>
				<extensions>
					<speed>0.5</speed>
				</extensions>
			</trkpt>
			<trkpt lat="53.25548266" lon="-8.92654928">
				<ele>62.0</ele>
				<time>2014-08-17T14:46:46Z</time>
				<extensions>
					<speed>0.0</speed>
				</extensions>
			</trkpt>
			<trkpt lat="53.25548406" lon="-8.92654787">
				<ele>62.0</ele>
				<time>2014-08-17T14:46:47Z</time>
				<extensions>
					<speed>0.0</speed>
				</extensions>
			</trkpt>
			<trkpt lat="53.25548529" lon="-8.92654704">
				<ele>62.0</ele>
				<time>2014-08-17T14:46:48Z</time>
				<extensions>
					<speed>0.0</speed>
				</extensions>
			</trkpt>
			<trkpt lat="53.25548741" lon="-8.92654679">
				<ele>63.0</ele>
				<time>2014-08-17T14:46:49Z</time>
				<extensions>
					<speed>0.0</speed>
				</extensions>
			</trkpt>
			<trkpt lat="53.25548836" lon="-8.92654535">
				<ele>63.0</ele>
				<time>2014-08-17T14:46:50Z</time>
				<extensions>
					<speed>0.0</speed>
				</extensions>
			</trkpt>
			<trkpt lat="53.2554917" lon="-8.92654296">
				<ele>63.0</ele>
				<time>2014-08-17T14:46:51Z</time>
				<extensions>
					<speed>0.0</speed>
				</extensions>
			</trkpt>
			<trkpt lat="53.25549207" lon="-8.92654556">
				<ele>63.0</ele>
				<time>2014-08-17T14:46:52Z</time>
				<extensions>
					<speed>0.0</speed>
				</extensions>
			</trkpt>
			<trkpt lat="53.25549207" lon="-8.92654378">
				<ele>63.0</ele>
				<time>2014-08-17T14:46:53Z</time>
				<extensions>
					<speed>0.0</speed>
				</extensions>
			</trkpt>
			<trkpt lat="53.25549299" lon="-8.92654321">
				<ele>63.0</ele>
				<time>2014-08-17T14:46:54Z</time>
				<extensions>
					<speed>0.0</speed>
				</extensions>
			</trkpt>
			<trkpt lat="53.25549182" lon="-8.92654142">
				<ele>63.0</ele>
				<time>2014-08-17T14:46:55Z</time>
				<extensions>
					<speed>0.0</speed>
				</extensions>
			</trkpt>
			<trkpt lat="53.25549148" lon="-8.92654285">
				<ele>63.0</ele>
				<time>2014-08-17T14:46:56Z</time>
				<extensions>
					<speed>0.0</speed>
				</extensions>
			</trkpt>
			<trkpt lat="53.25549155" lon="-8.92654336">
				<ele>63.0</ele>
				<time>2014-08-17T14:46:57Z</time>
				<extensions>
					<speed>0.0</speed>
				</extensions>
			</trkpt>
			<trkpt lat="53.25549157" lon="-8.92654329">
				<ele>63.0</ele>
				<time>2014-08-17T14:46:58Z</time>
				<extensions>
					<speed>0.0</speed>
				</extensions>
			</trkpt>
			<trkpt lat="53.25549161" lon="-8.92654348">
				<ele>63.0</ele>
				<time>2014-08-17T14:46:59Z</time>
				<extensions>
					<speed>0.0</speed>
				</extensions>
			</trkpt>
			<trkpt lat="53.25549158" lon="-8.92654356">
				<ele>63.0</ele>
				<time>2014-08-17T14:47:00Z</time>
				<extensions>
					<speed>0.0</speed>
				</extensions>
			</trkpt>
			<trkpt lat="53.25549157" lon="-8.92654359">
				<ele>63.0</ele>
				<time>2014-08-17T14:47:01Z</time>
				<extensions>
					<speed>0.0</speed>
				</extensions>
			</trkpt>
			<trkpt lat="53.25549156" lon="-8.92654362">
				<ele>63.0</ele>
				<time>2014-08-17T14:47:02Z</time>
				<extensions>
					<speed>0.0</speed>
				</extensions>
			</trkpt>
			<trkpt lat="53.25549154" lon="-8.92654363">
				<ele>63.0</ele>
				<time>2014-08-17T14:47:03Z</time>
				<extensions>
					<speed>0.0</speed>
				</extensions>
			</trkpt>
			<trkpt lat="53.25549151" lon="-8.92654368">
				<ele>63.0</ele>
				<time>2014-08-17T14:47:04Z</time>
				<extensions>
					<speed>0.0</speed>
				</extensions>
			</trkpt>
			<trkpt lat="53.25549151" lon="-8.92654373">
				<ele>63.0</ele>
				<time>2014-08-17T14:47:05Z</time>
				<extensions>
					<speed>0.0</speed>
				</extensions>
			</trkpt>
			<trkpt lat="53.25549154" lon="-8.92654369">
				<ele>63.0</ele>
				<time>2014-08-17T14:47:06Z</time>
				<extensions>
					<speed>0.0</speed>
				</extensions>
			</trkpt>
			<trkpt lat="53.25549154" lon="-8.92654369">
				<ele>63.0</ele>
				<time>2014-08-17T14:47:07Z</time>
				<extensions>
					<speed>0.0</speed>
				</extensions>
			</trkpt>
			<trkpt lat="53.25549154" lon="-8.92654369">
				<ele>63.0</ele>
				<time>2014-08-17T14:47:08Z</time>
				<extensions>
					<speed>0.0</speed>
				</extensions>
			</trkpt>
			<trkpt lat="53.25549181" lon="-8.92654332">
				<ele>63.0</ele>
				<time>2014-08-17T14:47:09Z</time>
				<extensions>
					<speed>0.0</speed>
				</extensions>
			</trkpt>
			<trkpt lat="53.25549182" lon="-8.92654329">
				<ele>63.0</ele>
				<time>2014-08-17T14:47:10Z</time>
				<extensions>
					<speed>0.0</speed>
				</extensions>
			</trkpt>
			<trkpt lat="53.25549182" lon="-8.92654329">
				<ele>63.0</ele>
				<time>2014-08-17T14:47:11Z</time>
				<extensions>
					<speed>0.0</speed>
				</extensions>
			</trkpt>
			<trkpt lat="53.25549182" lon="-8.92654329">
				<ele>63.0</ele>
				<time>2014-08-17T14:47:12Z</time>
				<extensions>
					<speed>0.0</speed>
				</extensions>
			</trkpt>
			<trkpt lat="53.25549202" lon="-8.92654484">
				<ele>63.0</ele>
				<time>2014-08-17T14:47:13Z</time>
				<extensions>
					<speed>1.5</speed>
				</extensions>
			</trkpt>
			<trkpt lat="53.2554876" lon="-8.926499">
				<ele>64.0</ele>
				<time>2014-08-17T14:47:14Z</time>
				<extensions>
					<speed>2.5</speed>
				</extensions>
			</trkpt>
			<trkpt lat="53.25548509" lon="-8.92646278">
				<ele>65.0</ele>
				<time>2014-08-17T14:47:15Z</time>
				<extensions>
					<speed>2.5</speed>
				</extensions>
			</trkpt>
			<trkpt lat="53.25549701" lon="-8.92642868">
				<ele>64.0</ele>
				<time>2014-08-17T14:47:16Z</time>
				<extensions>
					<speed>2.75</speed>
				</extensions>
			</trkpt>
			<trkpt lat="53.2555065" lon="-8.9263959">
				<ele>64.0</ele>
				<time>2014-08-17T14:47:17Z</time>
				<extensions>
					<speed>2.5</speed>
				</extensions>
			</trkpt>
			<trkpt lat="53.25552069" lon="-8.92635636">
				<ele>64.0</ele>
				<time>2014-08-17T14:47:18Z</time>
				<extensions>
					<speed>2.25</speed>
				</extensions>
			</trkpt>
			<trkpt lat="53.25553113" lon="-8.92632433">
				<ele>64.0</ele>
				<time>2014-08-17T14:47:19Z</time>
				<extensions>
					<speed>2.25</speed>
				</extensions>
			</trkpt>
			<trkpt lat="53.25553859" lon="-8.92629406">
				<ele>63.0</ele>
				<time>2014-08-17T14:47:20Z</time>
				<extensions>
					<speed>2.25</speed>
				</extensions>
			</trkpt>
			<trkpt lat="53.25554854" lon="-8.92625421">
				<ele>64.0</ele>
				<time>2014-08-17T14:47:21Z</time>
				<extensions>
					<speed>3.0</speed>
				</extensions>
			</trkpt>
			<trkpt lat="53.25556155" lon="-8.92620321">
				<ele>64.0</ele>
				<time>2014-08-17T14:47:22Z</time>
				<extensions>
					<speed>3.5</speed>
				</extensions>
			</trkpt>
			<trkpt lat="53.25557382" lon="-8.92616337">
				<ele>64.0</ele>
				<time>2014-08-17T14:47:23Z</time>
				<extensions>
					<speed>3.25</speed>
				</extensions>
			</trkpt>
			<trkpt lat="53.25558321" lon="-8.926122">
				<ele>64.0</ele>
				<time>2014-08-17T14:47:24Z</time>
				<extensions>
					<speed>3.25</speed>
				</extensions>
			</trkpt>
			<trkpt lat="53.2555947" lon="-8.92608428">
				<ele>64.0</ele>
				<time>2014-08-17T14:47:25Z</time>
				<extensions>
					<speed>3.25</speed>
				</extensions>
			</trkpt>
			<trkpt lat="53.25560604" lon="-8.92604848">
				<ele>64.0</ele>
				<time>2014-08-17T14:47:26Z</time>
				<extensions>
					<speed>3.25</speed>
				</extensions>
			</trkpt>
			<trkpt lat="53.25562014" lon="-8.92600761">
				<ele>63.0</ele>
				<time>2014-08-17T14:47:27Z</time>
				<extensions>
					<speed>3.5</speed>
				</extensions>
			</trkpt>
			<trkpt lat="53.25563823" lon="-8.92595924">
				<ele>63.0</ele>
				<time>2014-08-17T14:47:28Z</time>
				<extensions>
					<speed>3.25</speed>
				</extensions>
			</trkpt>
			<trkpt lat="53.25564891" lon="-8.92592007">
				<ele>63.0</ele>
				<time>2014-08-17T14:47:29Z</time>
				<extensions>
					<speed>3.0</speed>
				</extensions>
			</trkpt>
			<trkpt lat="53.2556646" lon="-8.9258778">
				<ele>63.0</ele>
				<time>2014-08-17T14:47:30Z</time>
				<extensions>
					<speed>2.75</speed>
				</extensions>
			</trkpt>
			<trkpt lat="53.25568025" lon="-8.92585009">
				<ele>63.0</ele>
				<time>2014-08-17T14:47:31Z</time>
				<extensions>
					<speed>2.25</speed>
				</extensions>
			</trkpt>
			<trkpt lat="53.25569141" lon="-8.92582989">
				<ele>63.0</ele>
				<time>2014-08-17T14:47:32Z</time>
				<extensions>
					<speed>2.25</speed>
				</extensions>
			</trkpt>
			<trkpt lat="53.25570192" lon="-8.9258053">
				<ele>63.0</ele>
				<time>2014-08-17T14:47:33Z</time>
				<extensions>
					<speed>2.0</speed>
				</extensions>
			</trkpt>
			<trkpt lat="53.25571107" lon="-8.92578588">
				<ele>63.0</ele>
				<time>2014-08-17T14:47:34Z</time>
				<extensions>
					<speed>1.5</speed>
				</extensions>
			</trkpt>
			<trkpt lat="53.2557114" lon="-8.92577896">
				<ele>63.0</ele>
				<time>2014-08-17T14:47:35Z</time>
				<extensions>
					<speed>1.0</speed>
				</extensions>
			</trkpt>
			<trkpt lat="53.25570746" lon="-8.9257793">
				<ele>62.0</ele>
				<time>2014-08-17T14:47:36Z</time>
				<extensions>
					<speed>0.5</speed>
				</extensions>
			</trkpt>
			<trkpt lat="53.255709" lon="-8.92577403">
				<ele>62.0</ele>
				<time>2014-08-17T14:47:37Z</time>
				<extensions>
					<speed>0.0</speed>
				</extensions>
			</trkpt>
			<trkpt lat="53.25570958" lon="-8.92577826">
				<ele>62.0</ele>
				<time>2014-08-17T14:47:38Z</time>
				<extensions>
					<speed>0.0</speed>
				</extensions>
			</trkpt>
			<trkpt lat="53.25571243" lon="-8.92578016">
				<ele>63.0</ele>
				<time>2014-08-17T14:47:39Z</time>
				<extensions>
					<speed>0.0</speed>
				</extensions>
			</trkpt>
			<trkpt lat="53.25571285" lon="-8.92578056">
				<ele>63.0</ele>
				<time>2014-08-17T14:47:40Z</time>
				<extensions>
					<speed>0.0</speed>
				</extensions>
			</trkpt>
			<trkpt lat="53.25571479" lon="-8.92577871">
				<ele>63.0</ele>
				<time>2014-08-17T14:47:41Z</time>
				<extensions>
					<speed>0.0</speed>
				</extensions>
			</trkpt>
			<trkpt lat="53.25571293" lon="-8.92577986">
				<ele>63.0</ele>
				<time>2014-08-17T14:47:42Z</time>
				<extensions>
					<speed>0.0</speed>
				</extensions>
			</trkpt>
			<trkpt lat="53.25571272" lon="-8.92578356">
				<ele>63.0</ele>
				<time>2014-08-17T14:47:43Z</time>
				<extensions>
					<speed>0.0</speed>
				</extensions>
			</trkpt>
			<trkpt lat="53.25571363" lon="-8.9257814">
				<ele>63.0</ele>
				<time>2014-08-17T14:47:44Z</time>
				<extensions>
					<speed>0.0</speed>
				</extensions>
			</trkpt>
			<trkpt lat="53.25571538" lon="-8.92577733">
				<ele>63.0</ele>
				<time>2014-08-17T14:47:45Z</time>
				<extensions>
					<speed>0.0</speed>
				</extensions>
			</trkpt>
			<trkpt lat="53.25571453" lon="-8.92577526">
				<ele>63.0</ele>
				<time>2014-08-17T14:47:46Z</time>
				<extensions>
					<speed>0.0</speed>
				</extensions>
			</trkpt>
			<trkpt lat="53.25571411" lon="-8.92577618">
				<ele>63.0</ele>
				<time>2014-08-17T14:47:47Z</time>
				<extensions>
					<speed>0.0</speed>
				</extensions>
			</trkpt>
			<trkpt lat="53.25571458" lon="-8.92577606">
				<ele>63.0</ele>
				<time>2014-08-17T14:47:48Z</time>
				<extensions>
					<speed>0.0</speed>
				</extensions>
			</trkpt>
			<trkpt lat="53.25571456" lon="-8.92577659">
				<ele>63.0</ele>
				<time>2014-08-17T14:47:49Z</time>
				<extensions>
					<speed>0.0</speed>
				</extensions>
			</trkpt>
			<trkpt lat="53.25571457" lon="-8.92577664">
				<ele>63.0</ele>
				<time>2014-08-17T14:47:50Z</time>
				<extensions>
					<speed>0.0</speed>
				</extensions>
			</trkpt>
			<trkpt lat="53.25571459" lon="-8.92577658">
				<ele>63.0</ele>
				<time>2014-08-17T14:47:51Z</time>
				<extensions>
					<speed>0.0</speed>
				</extensions>
			</trkpt>
			<trkpt lat="53.25571458" lon="-8.92577665">
				<ele>63.0</ele>
				<time>2014-08-17T14:47:52Z</time>
				<extensions>
					<speed>0.0</speed>
				</extensions>
			</trkpt>
			<trkpt lat="53.25571457" lon="-8.92577664">
				<ele>63.0</ele>
				<time>2014-08-17T14:47:53Z</time>
				<extensions>
					<speed>0.0</speed>
				</extensions>
			</trkpt>
			<trkpt lat="53.25571458" lon="-8.92577665">
				<ele>63.0</ele>
				<time>2014-08-17T14:47:54Z</time>
				<extensions>
					<speed>0.0</speed>
				</extensions>
			</trkpt>
			<trkpt lat="53.25571459" lon="-8.92577664">
				<ele>63.0</ele>
				<time>2014-08-17T14:47:55Z</time>
				<extensions>
					<speed>0.0</speed>
				</extensions>
			</trkpt>
			<trkpt lat="53.25571459" lon="-8.92577663">
				<ele>63.0</ele>
				<time>2014-08-17T14:47:56Z</time>
				<extensions>
					<speed>0.0</speed>
				</extensions>
			</trkpt>
			<trkpt lat="53.25571461" lon="-8.92577662">
				<ele>63.0</ele>
				<time>2014-08-17T14:47:57Z</time>
				<extensions>
					<speed>0.0</speed>
				</extensions>
			</trkpt>
			<trkpt lat="53.2557146" lon="-8.92577661">
				<ele>63.0</ele>
				<time>2014-08-17T14:47:58Z</time>
				<extensions>
					<speed>0.0</speed>
				</extensions>
			</trkpt>
			<trkpt lat="53.25571462" lon="-8.92577662">
				<ele>63.0</ele>
				<time>2014-08-17T14:47:59Z</time>
				<extensions>
					<speed>0.0</speed>
				</extensions>
			</trkpt>
			<trkpt lat="53.25571464" lon="-8.92577658">
				<ele>63.0</ele>
				<time>2014-08-17T14:48:00Z</time>
				<extensions>
					<speed>0.0</speed>
				</extensions>
			</trkpt>
			<trkpt lat="53.25571464" lon="-8.92577655">
				<ele>63.0</ele>
				<time>2014-08-17T14:48:01Z</time>
				<extensions>
					<speed>0.0</speed>
				</extensions>
			</trkpt>
			<trkpt lat="53.25571465" lon="-8.92577656">
				<ele>63.0</ele>
				<time>2014-08-17T14:48:02Z</time>
				<extensions>
					<speed>0.0</speed>
				</extensions>
			</trkpt>
			<trkpt lat="53.25571465" lon="-8.92577656">
				<ele>63.0</ele>
				<time>2014-08-17T14:48:03Z</time>
				<extensions>
					<speed>0.0</speed>
				</extensions>
			</trkpt>
			<trkpt lat="53.25571468" lon="-8.92577653">
				<ele>63.0</ele>
				<time>2014-08-17T14:48:04Z</time>
				<extensions>
					<speed>0.0</speed>
				</extensions>
			</trkpt>
			<trkpt lat="53.25571469" lon="-8.92577648">
				<ele>63.0</ele>
				<time>2014-08-17T14:48:05Z</time>
				<extensions>
					<speed>0.0</speed>
				</extensions>
			</trkpt>
			<trkpt lat="53.25571472" lon="-8.92577646">
				<ele>63.0</ele>
				<time>2014-08-17T14:48:06Z</time>
				<extensions>
					<speed>0.0</speed>
				</extensions>
			</trkpt>
			<trkpt lat="53.25571473" lon="-8.92577645">
				<ele>63.0</ele>
				<time>2014-08-17T14:48:07Z</time>
				<extensions>
					<speed>0.0</speed>
				</extensions>
			</trkpt>
			<trkpt lat="53.25571474" lon="-8.92577644">
				<ele>63.0</ele>
				<time>2014-08-17T14:48:08Z</time>
				<extensions>
					<speed>0.0</speed>
				</extensions>
			</trkpt>
			<trkpt lat="53.25571477" lon="-8.92577641">
				<ele>63.0</ele>
				<time>2014-08-17T14:48:09Z</time>
				<extensions>
					<speed>0.0</speed>
				</extensions>
			</trkpt>
			<trkpt lat="53.25571479" lon="-8.9257764">
				<ele>63.0</ele>
				<time>2014-08-17T14:48:10Z</time>
				<extensions>
					<speed>0.0</speed>
				</extensions>
			</trkpt>
			<trkpt lat="53.2557148" lon="-8.9257764">
				<ele>63.0</ele>
				<time>2014-08-17T14:48:11Z</time>
				<extensions>
					<speed>0.0</speed>
				</extensions>
			</trkpt>
			<trkpt lat="53.25571478" lon="-8.92577642">
				<ele>63.0</ele>
				<time>2014-08-17T14:48:12Z</time>
				<extensions>
					<speed>0.0</speed>
				</extensions>
			</trkpt>
			<trkpt lat="53.25571478" lon="-8.9257764">
				<ele>63.0</ele>
				<time>2014-08-17T14:48:13Z</time>
				<extensions>
					<speed>0.0</speed>
				</extensions>
			</trkpt>
			<trkpt lat="53.25571475" lon="-8.92577648">
				<ele>63.0</ele>
				<time>2014-08-17T14:48:14Z</time>
				<extensions>
					<speed>0.0</speed>
				</extensions>
			</trkpt>
			<trkpt lat="53.25571473" lon="-8.92577653">
				<ele>63.0</ele>
				<time>2014-08-17T14:48:15Z</time>
				<extensions>
					<speed>0.0</speed>
				</extensions>
			</trkpt>
			<trkpt lat="53.25571477" lon="-8.92577656">
				<ele>63.0</ele>
				<time>2014-08-17T14:48:16Z</time>
				<extensions>
					<speed>0.0</speed>
				</extensions>
			</trkpt>
			<trkpt lat="53.25571477" lon="-8.92577659">
				<ele>63.0</ele>
				<time>2014-08-17T14:48:17Z</time>
				<extensions>
					<speed>0.0</speed>
				</extensions>
			</trkpt>
			<trkpt lat="53.2557148" lon="-8.92577654">
				<ele>63.0</ele>
				<time>2014-08-17T14:48:18Z</time>
				<extensions>
					<speed>0.0</speed>
				</extensions>
			</trkpt>
			<trkpt lat="53.25571482" lon="-8.92577652">
				<ele>63.0</ele>
				<time>2014-08-17T14:48:19Z</time>
				<extensions>
					<speed>0.0</speed>
				</extensions>
			</trkpt>
			<trkpt lat="53.25571415" lon="-8.92577869">
				<ele>63.0</ele>
				<time>2014-08-17T14:48:20Z</time>
				<extensions>
					<speed>0.75</speed>
				</extensions>
			</trkpt>
			<trkpt lat="53.25570947" lon="-8.92578785">
				<ele>63.0</ele>
				<time>2014-08-17T14:48:21Z</time>
				<extensions>
					<speed>0.75</speed>
				</extensions>
			</trkpt>
			<trkpt lat="53.25570796" lon="-8.9257939">
				<ele>63.0</ele>
				<time>2014-08-17T14:48:22Z</time>
				<extensions>
					<speed>0.0</speed>
				</extensions>
			</trkpt>
			<trkpt lat="53.25570886" lon="-8.92579047">
				<ele>63.0</ele>
				<time>2014-08-17T14:48:23Z</time>
				<extensions>
					<speed>1.25</speed>
				</extensions>
			</trkpt>
			<trkpt lat="53.25570552" lon="-8.92576501">
				<ele>63.0</ele>
				<time>2014-08-17T14:48:24Z</time>
				<extensions>
					<speed>2.0</speed>
				</extensions>
			</trkpt>
			<trkpt lat="53.25569746" lon="-8.92573767">
				<ele>63.0</ele>
				<time>2014-08-17T14:48:25Z</time>
				<extensions>
					<speed>2.0</speed>
				</extensions>
			</trkpt>
			<trkpt lat="53.25568924" lon="-8.92570787">
				<ele>63.0</ele>
				<time>2014-08-17T14:48:26Z</time>
				<extensions>
					<speed>1.5</speed>
				</extensions>
			</trkpt>
			<trkpt lat="53.25568638" lon="-8.92570846">
				<ele>63.0</ele>
				<time>2014-08-17T14:48:27Z</time>
				<extensions>
					<speed>0.25</speed>
				</extensions>
			</trkpt>
			<trkpt lat="53.25568391" lon="-8.92570044">
				<ele>63.0</ele>
				<time>2014-08-17T14:48:28Z</time>
				<extensions>
					<speed>0.0</speed>
				</extensions>
			</trkpt>
			<trkpt lat="53.25568158" lon="-8.92569846">
				<ele>64.0</ele>
				<time>2014-08-17T14:48:29Z</time>
				<extensions>
					<speed>0.0</speed>
				</extensions>
			</trkpt>
			<trkpt lat="53.25568183" lon="-8.92569835">
				<ele>64.0</ele>
				<time>2014-08-17T14:48:30Z</time>
				<extensions>
					<speed>0.25</speed>
				</extensions>
			</trkpt>
			<trkpt lat="53.25567557" lon="-8.92571343">
				<ele>63.0</ele>
				<time>2014-08-17T14:48:31Z</time>
				<extensions>
					<speed>0.75</speed>
				</extensions>
			</trkpt>
			<trkpt lat="53.25567976" lon="-8.92572522">
				<ele>65.0</ele>
				<time>2014-08-17T14:48:32Z</time>
				<extensions>
					<speed>0.5</speed>
				</extensions>
			</trkpt>
			<trkpt lat="53.25567294" lon="-8.92574179">
				<ele>62.0</ele>
				<time>2014-08-17T14:48:33Z</time>
				<extensions>
					<speed>1.0</speed>
				</extensions>
			</trkpt>
			<trkpt lat="53.25568363" lon="-8.92575182">
				<ele>63.0</ele>
				<time>2014-08-17T14:48:34Z</time>
				<extensions>
					<speed>0.5</speed>
				</extensions>
			</trkpt>
			<trkpt lat="53.25567874" lon="-8.92576766">
				<ele>62.0</ele>
				<time>2014-08-17T14:48:35Z</time>
				<extensions>
					<speed>0.25</speed>
				</extensions>
			</trkpt>
			<trkpt lat="53.25568165" lon="-8.92576763">
				<ele>62.0</ele>
				<time>2014-08-17T14:48:36Z</time>
				<extensions>
					<speed>0.0</speed>
				</extensions>
			</trkpt>
			<trkpt lat="53.25568828" lon="-8.92576203">
				<ele>62.0</ele>
				<time>2014-08-17T14:48:37Z</time>
				<extensions>
					<speed>0.0</speed>
				</extensions>
			</trkpt>
			<trkpt lat="53.25568765" lon="-8.92576469">
				<ele>63.0</ele>
				<time>2014-08-17T14:48:38Z</time>
				<extensions>
					<speed>0.0</speed>
				</extensions>
			</trkpt>
			<trkpt lat="53.25568613" lon="-8.92576707">
				<ele>63.0</ele>
				<time>2014-08-17T14:48:39Z</time>
				<extensions>
					<speed>2.0</speed>
				</extensions>
			</trkpt>
			<trkpt lat="53.25566979" lon="-8.92579406">
				<ele>62.0</ele>
				<time>2014-08-17T14:48:40Z</time>
				<extensions>
					<speed>2.5</speed>
				</extensions>
			</trkpt>
			<trkpt lat="53.25565596" lon="-8.92583258">
				<ele>62.0</ele>
				<time>2014-08-17T14:48:41Z</time>
				<extensions>
					<speed>3.5</speed>
				</extensions>
			</trkpt>
			<trkpt lat="53.25564913" lon="-8.92588499">
				<ele>61.0</ele>
				<time>2014-08-17T14:48:42Z</time>
				<extensions>
					<speed>4.0</speed>
				</extensions>
			</trkpt>
			<trkpt lat="53.255646" lon="-8.92594466">
				<ele>62.0</ele>
				<time>2014-08-17T14:48:43Z</time>
				<extensions>
					<speed>3.75</speed>
				</extensions>
			</trkpt>
			<trkpt lat="53.2556575" lon="-8.92600325">
				<ele>62.0</ele>
				<time>2014-08-17T14:48:44Z</time>
				<extensions>
					<speed>3.75</speed>
				</extensions>
			</trkpt>
			<trkpt lat="53.25567503" lon="-8.92603787">
				<ele>62.0</ele>
				<time>2014-08-17T14:48:45Z</time>
				<extensions>
					<speed>3.5</speed>
				</extensions>
			</trkpt>
			<trkpt lat="53.25570005" lon="-8.92606829">
				<ele>62.0</ele>
				<time>2014-08-17T14:48:46Z</time>
				<extensions>
					<speed>3.0</speed>
				</extensions>
			</trkpt>
			<trkpt lat="53.25572481" lon="-8.9260878">
				<ele>62.0</ele>
				<time>2014-08-17T14:48:47Z</time>
				<extensions>
					<speed>2.75</speed>
				</extensions>
			</trkpt>
			<trkpt lat="53.25574435" lon="-8.9261048">
				<ele>61.0</ele>
				<time>2014-08-17T14:48:48Z</time>
				<extensions>
					<speed>2.0</speed>
				</extensions>
			</trkpt>
			<trkpt lat="53.25575931" lon="-8.92612522">
				<ele>62.0</ele>
				<time>2014-08-17T14:48:49Z</time>
				<extensions>
					<speed>2.75</speed>
				</extensions>
			</trkpt>
			<trkpt lat="53.25578271" lon="-8.92615632">
				<ele>62.0</ele>
				<time>2014-08-17T14:48:50Z</time>
				<extensions>
					<speed>3.0</speed>
				</extensions>
			</trkpt>
			<trkpt lat="53.2558084" lon="-8.92617613">
				<ele>62.0</ele>
				<time>2014-08-17T14:48:51Z</time>
				<extensions>
					<speed>3.25</speed>
				</extensions>
			</trkpt>
			<trkpt lat="53.25582756" lon="-8.92620536">
				<ele>62.0</ele>
				<time>2014-08-17T14:48:52Z</time>
				<extensions>
					<speed>3.0</speed>
				</extensions>
			</trkpt>
			<trkpt lat="53.25584944" lon="-8.92623448">
				<ele>63.0</ele>
				<time>2014-08-17T14:48:53Z</time>
				<extensions>
					<speed>2.5</speed>
				</extensions>
			</trkpt>
			<trkpt lat="53.25586769" lon="-8.92625745">
				<ele>63.0</ele>
				<time>2014-08-17T14:48:54Z</time>
				<extensions>
					<speed>2.5</speed>
				</extensions>
			</trkpt>
			<trkpt lat="53.25588593" lon="-8.92628042">
				<ele>63.0</ele>
				<time>2014-08-17T14:48:55Z</time>
				<extensions>
					<speed>2.5</speed>
				</extensions>
			</trkpt>
			<trkpt lat="53.25587487" lon="-8.92626501">
				<ele>63.0</ele>
				<time>2014-08-17T14:48:56Z</time>
				<extensions>
					<speed>0.5</speed>
				</extensions>
			</trkpt>
			<trkpt lat="53.25586897" lon="-8.92627069">
				<ele>62.0</ele>
				<time>2014-08-17T14:48:57Z</time>
				<extensions>
					<speed>0.0</speed>
				</extensions>
			</trkpt>
			<trkpt lat="53.25586921" lon="-8.92626705">
				<ele>62.0</ele>
				<time>2014-08-17T14:48:58Z</time>
				<extensions>
					<speed>0.0</speed>
				</extensions>
			</trkpt>
			<trkpt lat="53.25587111" lon="-8.92626138">
				<ele>62.0</ele>
				<time>2014-08-17T14:48:59Z</time>
				<extensions>
					<speed>0.0</speed>
				</extensions>
			</trkpt>
			<trkpt lat="53.2558731" lon="-8.92625814">
				<ele>62.0</ele>
				<time>2014-08-17T14:49:00Z</time>
				<extensions>
					<speed>0.0</speed>
				</extensions>
			</trkpt>
			<trkpt lat="53.25587326" lon="-8.92625428">
				<ele>62.0</ele>
				<time>2014-08-17T14:49:01Z</time>
				<extensions>
					<speed>0.0</speed>
				</extensions>
			</trkpt>
			<trkpt lat="53.25587365" lon="-8.92625635">
				<ele>63.0</ele>
				<time>2014-08-17T14:49:02Z</time>
				<extensions>
					<speed>0.0</speed>
				</extensions>
			</trkpt>
			<trkpt lat="53.25587412" lon="-8.92625741">
				<ele>62.0</ele>
				<time>2014-08-17T14:49:03Z</time>
				<extensions>
					<speed>0.0</speed>
				</extensions>
			</trkpt>
			<trkpt lat="53.25587344" lon="-8.92626059">
				<ele>62.0</ele>
				<time>2014-08-17T14:49:04Z</time>
				<extensions>
					<speed>0.0</speed>
				</extensions>
			</trkpt>
			<trkpt lat="53.25587425" lon="-8.92626086">
				<ele>62.0</ele>
				<time>2014-08-17T14:49:05Z</time>
				<extensions>
					<speed>0.75</speed>
				</extensions>
			</trkpt>
			<trkpt lat="53.25588993" lon="-8.92626478">
				<ele>62.0</ele>
				<time>2014-08-17T14:49:06Z</time>
				<extensions>
					<speed>1.75</speed>
				</extensions>
			</trkpt>
			<trkpt lat="53.25591362" lon="-8.92626511">
				<ele>63.0</ele>
				<time>2014-08-17T14:49:07Z</time>
				<extensions>
					<speed>2.5</speed>
				</extensions>
			</trkpt>
			<trkpt lat="53.25594022" lon="-8.92628175">
				<ele>63.0</ele>
				<time>2014-08-17T14:49:08Z</time>
				<extensions>
					<speed>2.5</speed>
				</extensions>
			</trkpt>
			<trkpt lat="53.25596555" lon="-8.9262908">
				<ele>63.0</ele>
				<time>2014-08-17T14:49:09Z</time>
				<extensions>
					<speed>2.75</speed>
				</extensions>
			</trkpt>
			<trkpt lat="53.25599449" lon="-8.92630067">
				<ele>63.0</ele>
				<time>2014-08-17T14:49:10Z</time>
				<extensions>
					<speed>3.25</speed>
				</extensions>
			</trkpt>
			<trkpt lat="53.25602499" lon="-8.92630632">
				<ele>63.0</ele>
				<time>2014-08-17T14:49:11Z</time>
				<extensions>
					<speed>3.25</speed>
				</extensions>
			</trkpt>
			<trkpt lat="53.2560483" lon="-8.92632167">
				<ele>63.0</ele>
				<time>2014-08-17T14:49:12Z</time>
				<extensions>
					<speed>3.0</speed>
				</extensions>
			</trkpt>
			<trkpt lat="53.25607285" lon="-8.92633778">
				<ele>63.0</ele>
				<time>2014-08-17T14:49:13Z</time>
				<extensions>
					<speed>2.75</speed>
				</extensions>
			</trkpt>
			<trkpt lat="53.25609376" lon="-8.92634776">
				<ele>63.0</ele>
				<time>2014-08-17T14:49:14Z</time>
				<extensions>
					<speed>2.0</speed>
				</extensions>
			</trkpt>
			<trkpt lat="53.25610818" lon="-8.9263508">
				<ele>63.0</ele>
				<time>2014-08-17T14:49:15Z</time>
				<extensions>
					<speed>1.25</speed>
				</extensions>
			</trkpt>
			<trkpt lat="53.25611819" lon="-8.92635642">
				<ele>64.0</ele>
				<time>2014-08-17T14:49:16Z</time>
				<extensions>
					<speed>0.75</speed>
				</extensions>
			</trkpt>
			<trkpt lat="53.25612121" lon="-8.9263627">
				<ele>64.0</ele>
				<time>2014-08-17T14:49:17Z</time>
				<extensions>
					<speed>0.0</speed>
				</extensions>
			</trkpt>
			<trkpt lat="53.25612025" lon="-8.92636663">
				<ele>63.0</ele>
				<time>2014-08-17T14:49:18Z</time>
				<extensions>
					<speed>0.0</speed>
				</extensions>
			</trkpt>
			<trkpt lat="53.2561203" lon="-8.92636623">
				<ele>64.0</ele>
				<time>2014-08-17T14:49:19Z</time>
				<extensions>
					<speed>0.0</speed>
				</extensions>
			</trkpt>
			<trkpt lat="53.25612249" lon="-8.92636361">
				<ele>64.0</ele>
				<time>2014-08-17T14:49:20Z</time>
				<extensions>
					<speed>0.0</speed>
				</extensions>
			</trkpt>
			<trkpt lat="53.25612385" lon="-8.92636594">
				<ele>64.0</ele>
				<time>2014-08-17T14:49:21Z</time>
				<extensions>
					<speed>0.0</speed>
				</extensions>
			</trkpt>
			<trkpt lat="53.25612437" lon="-8.92636695">
				<ele>64.0</ele>
				<time>2014-08-17T14:49:22Z</time>
				<extensions>
					<speed>0.0</speed>
				</extensions>
			</trkpt>
			<trkpt lat="53.25612327" lon="-8.92636931">
				<ele>64.0</ele>
				<time>2014-08-17T14:49:23Z</time>
				<extensions>
					<speed>0.0</speed>
				</extensions>
			</trkpt>
			<trkpt lat="53.25612321" lon="-8.92637262">
				<ele>64.0</ele>
				<time>2014-08-17T14:49:24Z</time>
				<extensions>
					<speed>0.0</speed>
				</extensions>
			</trkpt>
			<trkpt lat="53.25612446" lon="-8.92636935">
				<ele>64.0</ele>
				<time>2014-08-17T14:49:25Z</time>
				<extensions>
					<speed>0.0</speed>
				</extensions>
			</trkpt>
			<trkpt lat="53.2561261" lon="-8.92636981">
				<ele>64.0</ele>
				<time>2014-08-17T14:49:26Z</time>
				<extensions>
					<speed>1.5</speed>
				</extensions>
			</trkpt>
			<trkpt lat="53.25614596" lon="-8.9263695">
				<ele>65.0</ele>
				<time>2014-08-17T14:49:27Z</time>
				<extensions>
					<speed>2.0</speed>
				</extensions>
			</trkpt>
			<trkpt lat="53.25616857" lon="-8.92637314">
				<ele>65.0</ele>
				<time>2014-08-17T14:49:28Z</time>
				<extensions>
					<speed>2.5</speed>
				</extensions>
			</trkpt>
			<trkpt lat="53.25619375" lon="-8.92637342">
				<ele>66.0</ele>
				<time>2014-08-17T14:49:29Z</time>
				<extensions>
					<speed>2.25</speed>
				</extensions>
			</trkpt>
			<trkpt lat="53.25620766" lon="-8.92638257">
				<ele>66.0</ele>
				<time>2014-08-17T14:49:30Z</time>
				<extensions>
					<speed>1.5</speed>
				</extensions>
			</trkpt>
			<trkpt lat="53.25622055" lon="-8.9263794">
				<ele>66.0</ele>
				<time>2014-08-17T14:49:31Z</time>
				<extensions>
					<speed>0.75</speed>
				</extensions>
			</trkpt>
			<trkpt lat="53.25622518" lon="-8.92637422">
				<ele>66.0</ele>
				<time>2014-08-17T14:49:32Z</time>
				<extensions>
					<speed>0.25</speed>
				</extensions>
			</trkpt>
			<trkpt lat="53.25622873" lon="-8.92637355">
				<ele>66.0</ele>
				<time>2014-08-17T14:49:33Z</time>
				<extensions>
					<speed>0.0</speed>
				</extensions>
			</trkpt>
			<trkpt lat="53.25622665" lon="-8.9263674">
				<ele>66.0</ele>
				<time>2014-08-17T14:49:34Z</time>
				<extensions>
					<speed>0.0</speed>
				</extensions>
			</trkpt>
			<trkpt lat="53.2562283" lon="-8.92636362">
				<ele>66.0</ele>
				<time>2014-08-17T14:49:35Z</time>
				<extensions>
					<speed>0.0</speed>
				</extensions>
			</trkpt>
			<trkpt lat="53.25622957" lon="-8.92636488">
				<ele>67.0</ele>
				<time>2014-08-17T14:49:36Z</time>
				<extensions>
					<speed>0.0</speed>
				</extensions>
			</trkpt>
			<trkpt lat="53.25623055" lon="-8.92636479">
				<ele>67.0</ele>
				<time>2014-08-17T14:49:37Z</time>
				<extensions>
					<speed>0.75</speed>
				</extensions>
			</trkpt>
			<trkpt lat="53.25623272" lon="-8.92636641">
				<ele>67.0</ele>
				<time>2014-08-17T14:49:38Z</time>
				<extensions>
					<speed>0.0</speed>
				</extensions>
			</trkpt>
			<trkpt lat="53.25623582" lon="-8.92636634">
				<ele>68.0</ele>
				<time>2014-08-17T14:49:39Z</time>
				<extensions>
					<speed>0.0</speed>
				</extensions>
			</trkpt>
			<trkpt lat="53.25623758" lon="-8.92636721">
				<ele>68.0</ele>
				<time>2014-08-17T14:49:40Z</time>
				<extensions>
					<speed>1.75</speed>
				</extensions>
			</trkpt>
			<trkpt lat="53.25625407" lon="-8.92637966">
				<ele>68.0</ele>
				<time>2014-08-17T14:49:41Z</time>
				<extensions>
					<speed>2.25</speed>
				</extensions>
			</trkpt>
			<trkpt lat="53.25627841" lon="-8.92639952">
				<ele>68.0</ele>
				<time>2014-08-17T14:49:42Z</time>
				<extensions>
					<speed>3.0</speed>
				</extensions>
			</trkpt>
			<trkpt lat="53.25629863" lon="-8.92643669">
				<ele>68.0</ele>
				<time>2014-08-17T14:49:43Z</time>
				<extensions>
					<speed>3.25</speed>
				</extensions>
			</trkpt>
			<trkpt lat="53.25631309" lon="-8.92648673">
				<ele>68.0</ele>
				<time>2014-08-17T14:49:44Z</time>
				<extensions>
					<speed>3.25</speed>
				</extensions>
			</trkpt>
			<trkpt lat="53.25632813" lon="-8.92652747">
				<ele>69.0</ele>
				<time>2014-08-17T14:49:45Z</time>
				<extensions>
					<speed>3.25</speed>
				</extensions>
			</trkpt>
			<trkpt lat="53.25632612" lon="-8.92658079">
				<ele>69.0</ele>
				<time>2014-08-17T14:49:46Z</time>
				<extensions>
					<speed>3.5</speed>
				</extensions>
			</trkpt>
			<trkpt lat="53.25632012" lon="-8.92663394">
				<ele>69.0</ele>
				<time>2014-08-17T14:49:47Z</time>
				<extensions>
					<speed>4.0</speed>
				</extensions>
			</trkpt>
			<trkpt lat="53.25631725" lon="-8.92669227">
				<ele>69.0</ele>
				<time>2014-08-17T14:49:48Z</time>
				<extensions>
					<speed>3.75</speed>
				</extensions>
			</trkpt>
			<trkpt lat="53.25630511" lon="-8.92674793">
				<ele>69.0</ele>
				<time>2014-08-17T14:49:49Z</time>
				<extensions>
					<speed>3.75</speed>
				</extensions>
			</trkpt>
			<trkpt lat="53.2562973" lon="-8.92680052">
				<ele>69.0</ele>
				<time>2014-08-17T14:49:50Z</time>
				<extensions>
					<speed>3.5</speed>
				</extensions>
			</trkpt>
			<trkpt lat="53.2562914" lon="-8.92685258">
				<ele>69.0</ele>
				<time>2014-08-17T14:49:51Z</time>
				<extensions>
					<speed>3.25</speed>
				</extensions>
			</trkpt>
			<trkpt lat="53.25628643" lon="-8.92689581">
				<ele>70.0</ele>
				<time>2014-08-17T14:49:52Z</time>
				<extensions>
					<speed>3.0</speed>
				</extensions>
			</trkpt>
			<trkpt lat="53.25627613" lon="-8.92693866">
				<ele>70.0</ele>
				<time>2014-08-17T14:49:53Z</time>
				<extensions>
					<speed>3.25</speed>
				</extensions>
			</trkpt>
			<trkpt lat="53.25626468" lon="-8.92698063">
				<ele>70.0</ele>
				<time>2014-08-17T14:49:54Z</time>
				<extensions>
					<speed>3.0</speed>
				</extensions>
			</trkpt>
			<trkpt lat="53.25624345" lon="-8.92701942">
				<ele>70.0</ele>
				<time>2014-08-17T14:49:55Z</time>
				<extensions>
					<speed>3.5</speed>
				</extensions>
			</trkpt>
			<trkpt lat="53.25622364" lon="-8.92706252">
				<ele>70.0</ele>
				<time>2014-08-17T14:49:56Z</time>
				<extensions>
					<speed>3.5</speed>
				</extensions>
			</trkpt>
			<trkpt lat="53.25618551" lon="-8.9271124">
				<ele>68.0</ele>
				<time>2014-08-17T14:49:57Z</time>
				<extensions>
					<speed>3.5</speed>
				</extensions>
			</trkpt>
			<trkpt lat="53.25616686" lon="-8.92715027">
				<ele>67.0</ele>
				<time>2014-08-17T14:49:58Z</time>
				<extensions>
					<speed>2.75</speed>
				</extensions>
			</trkpt>
			<trkpt lat="53.25615249" lon="-8.92718928">
				<ele>66.0</ele>
				<time>2014-08-17T14:49:59Z</time>
				<extensions>
					<speed>2.25</speed>
				</extensions>
			</trkpt>
			<trkpt lat="53.25616149" lon="-8.92717548">
				<ele>65.0</ele>
				<time>2014-08-17T14:50:00Z</time>
				<extensions>
					<speed>0.0</speed>
				</extensions>
			</trkpt>
			<trkpt lat="53.25616043" lon="-8.92718054">
				<ele>65.0</ele>
				<time>2014-08-17T14:50:01Z</time>
				<extensions>
					<speed>0.0</speed>
				</extensions>
			</trkpt>
			<trkpt lat="53.25615951" lon="-8.927186">
				<ele>65.0</ele>
				<time>2014-08-17T14:50:02Z</time>
				<extensions>
					<speed>0.0</speed>
				</extensions>
			</trkpt>
			<trkpt lat="53.25616062" lon="-8.92718828">
				<ele>65.0</ele>
				<time>2014-08-17T14:50:03Z</time>
				<extensions>
					<speed>0.0</speed>
				</extensions>
			</trkpt>
			<trkpt lat="53.25615875" lon="-8.92718759">
				<ele>66.0</ele>
				<time>2014-08-17T14:50:04Z</time>
				<extensions>
					<speed>0.0</speed>
				</extensions>
			</trkpt>
			<trkpt lat="53.25615749" lon="-8.92718026">
				<ele>66.0</ele>
				<time>2014-08-17T14:50:05Z</time>
				<extensions>
					<speed>0.0</speed>
				</extensions>
			</trkpt>
			<trkpt lat="53.25615827" lon="-8.9271839">
				<ele>66.0</ele>
				<time>2014-08-17T14:50:06Z</time>
				<extensions>
					<speed>0.0</speed>
				</extensions>
			</trkpt>
			<trkpt lat="53.25615665" lon="-8.92718595">
				<ele>66.0</ele>
				<time>2014-08-17T14:50:07Z</time>
				<extensions>
					<speed>0.0</speed>
				</extensions>
			</trkpt>
			<trkpt lat="53.25615471" lon="-8.92718727">
				<ele>66.0</ele>
				<time>2014-08-17T14:50:08Z</time>
				<extensions>
					<speed>0.0</speed>
				</extensions>
			</trkpt>
			<trkpt lat="53.25615581" lon="-8.92719231">
				<ele>66.0</ele>
				<time>2014-08-17T14:50:09Z</time>
				<extensions>
					<speed>0.0</speed>
				</extensions>
			</trkpt>
			<trkpt lat="53.25615503" lon="-8.92719418">
				<ele>66.0</ele>
				<time>2014-08-17T14:50:10Z</time>
				<extensions>
					<speed>0.0</speed>
				</extensions>
			</trkpt>
			<trkpt lat="53.256156" lon="-8.92719564">
				<ele>66.0</ele>
				<time>2014-08-17T14:50:11Z</time>
				<extensions>
					<speed>0.0</speed>
				</extensions>
			</trkpt>
			<trkpt lat="53.25615709" lon="-8.92719881">
				<ele>66.0</ele>
				<time>2014-08-17T14:50:12Z</time>
				<extensions>
					<speed>1.75</speed>
				</extensions>
			</trkpt>
			<trkpt lat="53.25617105" lon="-8.92722028">
				<ele>66.0</ele>
				<time>2014-08-17T14:50:13Z</time>
				<extensions>
					<speed>1.75</speed>
				</extensions>
			</trkpt>
			<trkpt lat="53.2561873" lon="-8.92722732">
				<ele>67.0</ele>
				<time>2014-08-17T14:50:14Z</time>
				<extensions>
					<speed>1.5</speed>
				</extensions>
			</trkpt>
			<trkpt lat="53.25620426" lon="-8.92722118">
				<ele>67.0</ele>
				<time>2014-08-17T14:50:15Z</time>
				<extensions>
					<speed>1.5</speed>
				</extensions>
			</trkpt>
			<trkpt lat="53.25621386" lon="-8.92722029">
				<ele>67.0</ele>
				<time>2014-08-17T14:50:16Z</time>
				<extensions>
					<speed>0.75</speed>
				</extensions>
			</trkpt>
			<trkpt lat="53.25621954" lon="-8.92723425">
				<ele>66.0</ele>
				<time>2014-08-17T14:50:17Z</time>
				<extensions>
					<speed>0.0</speed>
				</extensions>
			</trkpt>
			<trkpt lat="53.25622271" lon="-8.92723073">
				<ele>66.0</ele>
				<time>2014-08-17T14:50:18Z</time>
				<extensions>
					<speed>0.0</speed>
				</extensions>
			</trkpt>
			<trkpt lat="53.25622271" lon="-8.92723073">
				<ele>66.0</ele>
				<time>2014-08-17T14:50:19Z</time>
				<extensions>
					<speed>0.0</speed>
				</extensions>
			</trkpt>
			<trkpt lat="53.25622271" lon="-8.92723073">
				<ele>66.0</ele>
				<time>2014-08-17T14:50:20Z</time>
				<extensions>
					<speed>0.0</speed>
				</extensions>
			</trkpt>
			<trkpt lat="53.25622058" lon="-8.92723328">
				<ele>66.0</ele>
				<time>2014-08-17T14:50:21Z</time>
				<extensions>
					<speed>0.0</speed>
				</extensions>
			</trkpt>
			<trkpt lat="53.25621374" lon="-8.92723146">
				<ele>66.0</ele>
				<time>2014-08-17T14:50:22Z</time>
				<extensions>
					<speed>1.25</speed>
				</extensions>
			</trkpt>
			<trkpt lat="53.25619799" lon="-8.92723395">
				<ele>66.0</ele>
				<time>2014-08-17T14:50:23Z</time>
				<extensions>
					<speed>0.75</speed>
				</extensions>
			</trkpt>
			<trkpt lat="53.25620001" lon="-8.92722924">
				<ele>66.0</ele>
				<time>2014-08-17T14:50:24Z</time>
				<extensions>
					<speed>0.0</speed>
				</extensions>
			</trkpt>
			<trkpt lat="53.25619778" lon="-8.92722738">
				<ele>66.0</ele>
				<time>2014-08-17T14:50:25Z</time>
				<extensions>
					<speed>0.0</speed>
				</extensions>
			</trkpt>
			<trkpt lat="53.25619935" lon="-8.92722603">
				<ele>66.0</ele>
				<time>2014-08-17T14:50:26Z</time>
				<extensions>
					<speed>1.5</speed>
				</extensions>
			</trkpt>
			<trkpt lat="53.2562135" lon="-8.92721065">
				<ele>66.0</ele>
				<time>2014-08-17T14:50:27Z</time>
				<extensions>
					<speed>2.25</speed>
				</extensions>
			</trkpt>
			<trkpt lat="53.25622647" lon="-8.92717882">
				<ele>66.0</ele>
				<time>2014-08-17T14:50:28Z</time>
				<extensions>
					<speed>3.0</speed>
				</extensions>
			</trkpt>
			<trkpt lat="53.25624" lon="-8.92713902">
				<ele>66.0</ele>
				<time>2014-08-17T14:50:29Z</time>
				<extensions>
					<speed>3.5</speed>
				</extensions>
			</trkpt>
			<trkpt lat="53.25625565" lon="-8.92709291">
				<ele>66.0</ele>
				<time>2014-08-17T14:50:30Z</time>
				<extensions>
					<speed>3.5</speed>
				</extensions>
			</trkpt>
			<trkpt lat="53.25627131" lon="-8.92704679">
				<ele>65.0</ele>
				<time>2014-08-17T14:50:31Z</time>
				<extensions>
					<speed>3.5</speed>
				</extensions>
			</trkpt>
			<trkpt lat="53.25627863" lon="-8.9269861">
				<ele>68.0</ele>
				<time>2014-08-17T14:50:32Z</time>
				<extensions>
					<speed>3.25</speed>
				</extensions>
			</trkpt>
			<trkpt lat="53.25629212" lon="-8.926935">
				<ele>67.0</ele>
				<time>2014-08-17T14:50:33Z</time>
				<extensions>
					<speed>3.0</speed>
				</extensions>
			</trkpt>
			<trkpt lat="53.25629443" lon="-8.92688177">
				<ele>67.0</ele>
				<time>2014-08-17T14:50:34Z</time>
				<extensions>
					<speed>3.25</speed>
				</extensions>
			</trkpt>
			<trkpt lat="53.25629712" lon="-8.92684369">
				<ele>67.0</ele>
				<time>2014-08-17T14:50:35Z</time>
				<extensions>
					<speed>3.0</speed>
				</extensions>
			</trkpt>
			<trkpt lat="53.25630236" lon="-8.92679115">
				<ele>68.0</ele>
				<time>2014-08-17T14:50:36Z</time>
				<extensions>
					<speed>3.0</speed>
				</extensions>
			</trkpt>
			<trkpt lat="53.25629745" lon="-8.92675401">
				<ele>68.0</ele>
				<time>2014-08-17T14:50:37Z</time>
				<extensions>
					<speed>2.5</speed>
				</extensions>
			</trkpt>
			<trkpt lat="53.25629769" lon="-8.92671794">
				<ele>68.0</ele>
				<time>2014-08-17T14:50:38Z</time>
				<extensions>
					<speed>3.0</speed>
				</extensions>
			</trkpt>
			<trkpt lat="53.25630234" lon="-8.92667421">
				<ele>68.0</ele>
				<time>2014-08-17T14:50:39Z</time>
				<extensions>
					<speed>2.75</speed>
				</extensions>
			</trkpt>
			<trkpt lat="53.25630752" lon="-8.92663261">
				<ele>67.0</ele>
				<time>2014-08-17T14:50:40Z</time>
				<extensions>
					<speed>2.75</speed>
				</extensions>
			</trkpt>
			<trkpt lat="53.2563127" lon="-8.92659101">
				<ele>67.0</ele>
				<time>2014-08-17T14:50:41Z</time>
				<extensions>
					<speed>2.75</speed>
				</extensions>
			</trkpt>
			<trkpt lat="53.25631794" lon="-8.92651614">
				<ele>66.0</ele>
				<time>2014-08-17T14:50:42Z</time>
				<extensions>
					<speed>4.0</speed>
				</extensions>
			</trkpt>
			<trkpt lat="53.25632959" lon="-8.92646052">
				<ele>67.0</ele>
				<time>2014-08-17T14:50:43Z</time>
				<extensions>
					<speed>3.75</speed>
				</extensions>
			</trkpt>
			<trkpt lat="53.25634207" lon="-8.92639982">
				<ele>67.0</ele>
				<time>2014-08-17T14:50:44Z</time>
				<extensions>
					<speed>3.75</speed>
				</extensions>
			</trkpt>
			<trkpt lat="53.25635586" lon="-8.92635797">
				<ele>66.0</ele>
				<time>2014-08-17T14:50:45Z</time>
				<extensions>
					<speed>3.5</speed>
				</extensions>
			</trkpt>
			<trkpt lat="53.25636963" lon="-8.92631963">
				<ele>66.0</ele>
				<time>2014-08-17T14:50:46Z</time>
				<extensions>
					<speed>3.0</speed>
				</extensions>
			</trkpt>
			<trkpt lat="53.25637362" lon="-8.92629721">
				<ele>66.0</ele>
				<time>2014-08-17T14:50:47Z</time>
				<extensions>
					<speed>1.75</speed>
				</extensions>
			</trkpt>
			<trkpt lat="53.25637352" lon="-8.92628957">
				<ele>65.0</ele>
				<time>2014-08-17T14:50:48Z</time>
				<extensions>
					<speed>0.5</speed>
				</extensions>
			</trkpt>
			<trkpt lat="53.25636283" lon="-8.92629377">
				<ele>63.0</ele>
				<time>2014-08-17T14:50:49Z</time>
				<extensions>
					<speed>0.0</speed>
				</extensions>
			</trkpt>
			<trkpt lat="53.25636716" lon="-8.92628929">
				<ele>63.0</ele>
				<time>2014-08-17T14:50:50Z</time>
				<extensions>
					<speed>0.0</speed>
				</extensions>
			</trkpt>
			<trkpt lat="53.25636674" lon="-8.92628878">
				<ele>63.0</ele>
				<time>2014-08-17T14:50:51Z</time>
				<extensions>
					<speed>0.0</speed>
				</extensions>
			</trkpt>
			<trkpt lat="53.25636811" lon="-8.92628634">
				<ele>62.0</ele>
				<time>2014-08-17T14:50:52Z</time>
				<extensions>
					<speed>0.0</speed>
				</extensions>
			</trkpt>
			<trkpt lat="53.25637002" lon="-8.92628237">
				<ele>63.0</ele>
				<time>2014-08-17T14:50:53Z</time>
				<extensions>
					<speed>0.0</speed>
				</extensions>
			</trkpt>
			<trkpt lat="53.25637206" lon="-8.9262794">
				<ele>62.0</ele>
				<time>2014-08-17T14:50:54Z</time>
				<extensions>
					<speed>0.0</speed>
				</extensions>
			</trkpt>
			<trkpt lat="53.25637401" lon="-8.9262797">
				<ele>63.0</ele>
				<time>2014-08-17T14:50:55Z</time>
				<extensions>
					<speed>0.0</speed>
				</extensions>
			</trkpt>
			<trkpt lat="53.25637432" lon="-8.92627841">
				<ele>63.0</ele>
				<time>2014-08-17T14:50:56Z</time>
				<extensions>
					<speed>0.0</speed>
				</extensions>
			</trkpt>
			<trkpt lat="53.25637233" lon="-8.92627663">
				<ele>63.0</ele>
				<time>2014-08-17T14:50:57Z</time>
				<extensions>
					<speed>0.0</speed>
				</extensions>
			</trkpt>
			<trkpt lat="53.25637186" lon="-8.92627543">
				<ele>63.0</ele>
				<time>2014-08-17T14:50:58Z</time>
				<extensions>
					<speed>0.0</speed>
				</extensions>
			</trkpt>
			<trkpt lat="53.2563719" lon="-8.92627719">
				<ele>63.0</ele>
				<time>2014-08-17T14:50:59Z</time>
				<extensions>
					<speed>0.0</speed>
				</extensions>
			</trkpt>
			<trkpt lat="53.2563719" lon="-8.92627719">
				<ele>63.0</ele>
				<time>2014-08-17T14:51:00Z</time>
				<extensions>
					<speed>0.0</speed>
				</extensions>
			</trkpt>
			<trkpt lat="53.2563719" lon="-8.92627719">
				<ele>63.0</ele>
				<time>2014-08-17T14:51:01Z</time>
				<extensions>
					<speed>0.0</speed>
				</extensions>
			</trkpt>
			<trkpt lat="53.25637221" lon="-8.92627898">
				<ele>64.0</ele>
				<time>2014-08-17T14:51:02Z</time>
				<extensions>
					<speed>0.0</speed>
				</extensions>
			</trkpt>
			<trkpt lat="53.25637293" lon="-8.92628088">
				<ele>64.0</ele>
				<time>2014-08-17T14:51:03Z</time>
				<extensions>
					<speed>0.0</speed>
				</extensions>
			</trkpt>
			<trkpt lat="53.25637291" lon="-8.92628096">
				<ele>64.0</ele>
				<time>2014-08-17T14:51:04Z</time>
				<extensions>
					<speed>0.0</speed>
				</extensions>
			</trkpt>
			<trkpt lat="53.25637293" lon="-8.92628098">
				<ele>64.0</ele>
				<time>2014-08-17T14:51:05Z</time>
				<extensions>
					<speed>0.0</speed>
				</extensions>
			</trkpt>
			<trkpt lat="53.25637294" lon="-8.92628099">
				<ele>64.0</ele>
				<time>2014-08-17T14:51:06Z</time>
				<extensions>
					<speed>0.0</speed>
				</extensions>
			</trkpt>
			<trkpt lat="53.25637294" lon="-8.92628096">
				<ele>64.0</ele>
				<time>2014-08-17T14:51:07Z</time>
				<extensions>
					<speed>0.0</speed>
				</extensions>
			</trkpt>
			<trkpt lat="53.25637323" lon="-8.92627951">
				<ele>64.0</ele>
				<time>2014-08-17T14:51:08Z</time>
				<extensions>
					<speed>0.5</speed>
				</extensions>
			</trkpt>
			<trkpt lat="53.25638166" lon="-8.92626464">
				<ele>64.0</ele>
				<time>2014-08-17T14:51:09Z</time>
				<extensions>
					<speed>1.5</speed>
				</extensions>
			</trkpt>
			<trkpt lat="53.25639235" lon="-8.92623812">
				<ele>64.0</ele>
				<time>2014-08-17T14:51:10Z</time>
				<extensions>
					<speed>2.25</speed>
				</extensions>
			</trkpt>
			<trkpt lat="53.2563993" lon="-8.92620779">
				<ele>65.0</ele>
				<time>2014-08-17T14:51:11Z</time>
				<extensions>
					<speed>2.25</speed>
				</extensions>
			</trkpt>
			<trkpt lat="53.25640625" lon="-8.92617746">
				<ele>65.0</ele>
				<time>2014-08-17T14:51:12Z</time>
				<extensions>
					<speed>2.25</speed>
				</extensions>
			</trkpt>
			<trkpt lat="53.25640605" lon="-8.92611105">
				<ele>62.0</ele>
				<time>2014-08-17T14:51:13Z</time>
				<extensions>
					<speed>3.5</speed>
				</extensions>
			</trkpt>
			<trkpt lat="53.2564023" lon="-8.92605634">
				<ele>61.0</ele>
				<time>2014-08-17T14:51:14Z</time>
				<extensions>
					<speed>3.25</speed>
				</extensions>
			</trkpt>
			<trkpt lat="53.25639507" lon="-8.92601342">
				<ele>61.0</ele>
				<time>2014-08-17T14:51:15Z</time>
				<extensions>
					<speed>3.25</speed>
				</extensions>
			</trkpt>
			<trkpt lat="53.25638429" lon="-8.92597169">
				<ele>61.0</ele>
				<time>2014-08-17T14:51:16Z</time>
				<extensions>
					<speed>3.0</speed>
				</extensions>
			</trkpt>
			<trkpt lat="53.25636437" lon="-8.92594023">
				<ele>61.0</ele>
				<time>2014-08-17T14:51:17Z</time>
				<extensions>
					<speed>3.0</speed>
				</extensions>
			</trkpt>
			<trkpt lat="53.25634261" lon="-8.92590129">
				<ele>62.0</ele>
				<time>2014-08-17T14:51:18Z</time>
				<extensions>
					<speed>3.25</speed>
				</extensions>
			</trkpt>
			<trkpt lat="53.25631865" lon="-8.92586858">
				<ele>61.0</ele>
				<time>2014-08-17T14:51:19Z</time>
				<extensions>
					<speed>3.0</speed>
				</extensions>
			</trkpt>
			<trkpt lat="53.25629429" lon="-8.92583423">
				<ele>63.0</ele>
				<time>2014-08-17T14:51:20Z</time>
				<extensions>
					<speed>3.0</speed>
				</extensions>
			</trkpt>
			<trkpt lat="53.25627407" lon="-8.92581511">
				<ele>63.0</ele>
				<time>2014-08-17T14:51:21Z</time>
				<extensions>
					<speed>2.75</speed>
				</extensions>
			</trkpt>
			<trkpt lat="53.2562565" lon="-8.9257992">
				<ele>63.0</ele>
				<time>2014-08-17T14:51:22Z</time>
				<extensions>
					<speed>2.0</speed>
				</extensions>
			</trkpt>
			<trkpt lat="53.25624902" lon="-8.92579376">
				<ele>62.0</ele>
				<time>2014-08-17T14:51:23Z</time>
				<extensions>
					<speed>1.0</speed>
				</extensions>
			</trkpt>
			<trkpt lat="53.2562432" lon="-8.92579073">
				<ele>63.0</ele>
				<time>2014-08-17T14:51:24Z</time>
				<extensions>
					<speed>0.25</speed>
				</extensions>
			</trkpt>
			<trkpt lat="53.25624113" lon="-8.92578935">
				<ele>63.0</ele>
				<time>2014-08-17T14:51:25Z</time>
				<extensions>
					<speed>0.0</speed>
				</extensions>
			</trkpt>
			<trkpt lat="53.25624072" lon="-8.92578841">
				<ele>63.0</ele>
				<time>2014-08-17T14:51:26Z</time>
				<extensions>
					<speed>0.0</speed>
				</extensions>
			</trkpt>
			<trkpt lat="53.25624184" lon="-8.92578609">
				<ele>63.0</ele>
				<time>2014-08-17T14:51:27Z</time>
				<extensions>
					<speed>0.0</speed>
				</extensions>
			</trkpt>
			<trkpt lat="53.25624448" lon="-8.92578691">
				<ele>62.0</ele>
				<time>2014-08-17T14:51:28Z</time>
				<extensions>
					<speed>0.0</speed>
				</extensions>
			</trkpt>
			<trkpt lat="53.2562431" lon="-8.92579023">
				<ele>63.0</ele>
				<time>2014-08-17T14:51:29Z</time>
				<extensions>
					<speed>0.0</speed>
				</extensions>
			</trkpt>
			<trkpt lat="53.25624263" lon="-8.92579189">
				<ele>63.0</ele>
				<time>2014-08-17T14:51:30Z</time>
				<extensions>
					<speed>0.0</speed>
				</extensions>
			</trkpt>
			<trkpt lat="53.25624384" lon="-8.92578884">
				<ele>63.0</ele>
				<time>2014-08-17T14:51:31Z</time>
				<extensions>
					<speed>0.0</speed>
				</extensions>
			</trkpt>
			<trkpt lat="53.2562403" lon="-8.92578978">
				<ele>62.0</ele>
				<time>2014-08-17T14:51:32Z</time>
				<extensions>
					<speed>0.0</speed>
				</extensions>
			</trkpt>
			<trkpt lat="53.25623956" lon="-8.92578744">
				<ele>63.0</ele>
				<time>2014-08-17T14:51:33Z</time>
				<extensions>
					<speed>0.0</speed>
				</extensions>
			</trkpt>
			<trkpt lat="53.25623999" lon="-8.92578826">
				<ele>63.0</ele>
				<time>2014-08-17T14:51:34Z</time>
				<extensions>
					<speed>0.0</speed>
				</extensions>
			</trkpt>
			<trkpt lat="53.25623929" lon="-8.92578485">
				<ele>63.0</ele>
				<time>2014-08-17T14:51:35Z</time>
				<extensions>
					<speed>0.0</speed>
				</extensions>
			</trkpt>
			<trkpt lat="53.25623955" lon="-8.9257833">
				<ele>63.0</ele>
				<time>2014-08-17T14:51:36Z</time>
				<extensions>
					<speed>0.0</speed>
				</extensions>
			</trkpt>
			<trkpt lat="53.25623957" lon="-8.92578169">
				<ele>63.0</ele>
				<time>2014-08-17T14:51:37Z</time>
				<extensions>
					<speed>0.0</speed>
				</extensions>
			</trkpt>
			<trkpt lat="53.25623958" lon="-8.92578189">
				<ele>63.0</ele>
				<time>2014-08-17T14:51:38Z</time>
				<extensions>
					<speed>0.0</speed>
				</extensions>
			</trkpt>
			<trkpt lat="53.25623962" lon="-8.92578186">
				<ele>63.0</ele>
				<time>2014-08-17T14:51:39Z</time>
				<extensions>
					<speed>0.0</speed>
				</extensions>
			</trkpt>
			<trkpt lat="53.25623961" lon="-8.9257819">
				<ele>63.0</ele>
				<time>2014-08-17T14:51:40Z</time>
				<extensions>
					<speed>0.0</speed>
				</extensions>
			</trkpt>
			<trkpt lat="53.2562396" lon="-8.92578192">
				<ele>63.0</ele>
				<time>2014-08-17T14:51:41Z</time>
				<extensions>
					<speed>0.0</speed>
				</extensions>
			</trkpt>
			<trkpt lat="53.25623961" lon="-8.92578191">
				<ele>63.0</ele>
				<time>2014-08-17T14:51:42Z</time>
				<extensions>
					<speed>0.0</speed>
				</extensions>
			</trkpt>
			<trkpt lat="53.25623963" lon="-8.92578186">
				<ele>63.0</ele>
				<time>2014-08-17T14:51:43Z</time>
				<extensions>
					<speed>0.0</speed>
				</extensions>
			</trkpt>
			<trkpt lat="53.25623961" lon="-8.92578192">
				<ele>63.0</ele>
				<time>2014-08-17T14:51:44Z</time>
				<extensions>
					<speed>0.0</speed>
				</extensions>
			</trkpt>
			<trkpt lat="53.25623961" lon="-8.92578195">
				<ele>63.0</ele>
				<time>2014-08-17T14:51:45Z</time>
				<extensions>
					<speed>0.0</speed>
				</extensions>
			</trkpt>
			<trkpt lat="53.25623962" lon="-8.92578198">
				<ele>63.0</ele>
				<time>2014-08-17T14:51:46Z</time>
				<extensions>
					<speed>0.0</speed>
				</extensions>
			</trkpt>
			<trkpt lat="53.25623964" lon="-8.92578196">
				<ele>64.0</ele>
				<time>2014-08-17T14:51:47Z</time>
				<extensions>
					<speed>0.0</speed>
				</extensions>
			</trkpt>
			<trkpt lat="53.25623967" lon="-8.92578191">
				<ele>64.0</ele>
				<time>2014-08-17T14:51:48Z</time>
				<extensions>
					<speed>0.0</speed>
				</extensions>
			</trkpt>
			<trkpt lat="53.25623966" lon="-8.92578194">
				<ele>64.0</ele>
				<time>2014-08-17T14:51:49Z</time>
				<extensions>
					<speed>0.0</speed>
				</extensions>
			</trkpt>
			<trkpt lat="53.25623968" lon="-8.92578193">
				<ele>64.0</ele>
				<time>2014-08-17T14:51:50Z</time>
				<extensions>
					<speed>0.0</speed>
				</extensions>
			</trkpt>
			<trkpt lat="53.25623964" lon="-8.92578197">
				<ele>64.0</ele>
				<time>2014-08-17T14:51:51Z</time>
				<extensions>
					<speed>0.0</speed>
				</extensions>
			</trkpt>
			<trkpt lat="53.2562396" lon="-8.92578206">
				<ele>64.0</ele>
				<time>2014-08-17T14:51:52Z</time>
				<extensions>
					<speed>0.0</speed>
				</extensions>
			</trkpt>
			<trkpt lat="53.25623963" lon="-8.92578205">
				<ele>64.0</ele>
				<time>2014-08-17T14:51:53Z</time>
				<extensions>
					<speed>0.0</speed>
				</extensions>
			</trkpt>
			<trkpt lat="53.25623961" lon="-8.92578211">
				<ele>64.0</ele>
				<time>2014-08-17T14:51:54Z</time>
				<extensions>
					<speed>0.0</speed>
				</extensions>
			</trkpt>
			<trkpt lat="53.25623959" lon="-8.92578217">
				<ele>64.0</ele>
				<time>2014-08-17T14:51:55Z</time>
				<extensions>
					<speed>0.0</speed>
				</extensions>
			</trkpt>
			<trkpt lat="53.25623959" lon="-8.92578219">
				<ele>64.0</ele>
				<time>2014-08-17T14:51:56Z</time>
				<extensions>
					<speed>0.0</speed>
				</extensions>
			</trkpt>
			<trkpt lat="53.25623962" lon="-8.92578211">
				<ele>64.0</ele>
				<time>2014-08-17T14:51:57Z</time>
				<extensions>
					<speed>0.0</speed>
				</extensions>
			</trkpt>
			<trkpt lat="53.25623958" lon="-8.92578216">
				<ele>64.0</ele>
				<time>2014-08-17T14:51:58Z</time>
				<extensions>
					<speed>0.0</speed>
				</extensions>
			</trkpt>
			<trkpt lat="53.25623961" lon="-8.92578218">
				<ele>64.0</ele>
				<time>2014-08-17T14:51:59Z</time>
				<extensions>
					<speed>0.0</speed>
				</extensions>
			</trkpt>
			<trkpt lat="53.25623962" lon="-8.9257822">
				<ele>64.0</ele>
				<time>2014-08-17T14:52:00Z</time>
				<extensions>
					<speed>0.0</speed>
				</extensions>
			</trkpt>
			<trkpt lat="53.25623962" lon="-8.92578223">
				<ele>64.0</ele>
				<time>2014-08-17T14:52:01Z</time>
				<extensions>
					<speed>0.0</speed>
				</extensions>
			</trkpt>
			<trkpt lat="53.25623963" lon="-8.92578225">
				<ele>63.0</ele>
				<time>2014-08-17T14:52:02Z</time>
				<extensions>
					<speed>0.0</speed>
				</extensions>
			</trkpt>
			<trkpt lat="53.25623965" lon="-8.92578229">
				<ele>63.0</ele>
				<time>2014-08-17T14:52:03Z</time>
				<extensions>
					<speed>0.0</speed>
				</extensions>
			</trkpt>
			<trkpt lat="53.2562397" lon="-8.92578221">
				<ele>63.0</ele>
				<time>2014-08-17T14:52:04Z</time>
				<extensions>
					<speed>0.0</speed>
				</extensions>
			</trkpt>
			<trkpt lat="53.25623968" lon="-8.92578224">
				<ele>63.0</ele>
				<time>2014-08-17T14:52:05Z</time>
				<extensions>
					<speed>0.0</speed>
				</extensions>
			</trkpt>
			<trkpt lat="53.25623967" lon="-8.92578228">
				<ele>63.0</ele>
				<time>2014-08-17T14:52:06Z</time>
				<extensions>
					<speed>0.0</speed>
				</extensions>
			</trkpt>
			<trkpt lat="53.25623968" lon="-8.92578232">
				<ele>63.0</ele>
				<time>2014-08-17T14:52:07Z</time>
				<extensions>
					<speed>0.0</speed>
				</extensions>
			</trkpt>
			<trkpt lat="53.25623968" lon="-8.92578233">
				<ele>63.0</ele>
				<time>2014-08-17T14:52:08Z</time>
				<extensions>
					<speed>0.0</speed>
				</extensions>
			</trkpt>
			<trkpt lat="53.25623965" lon="-8.92578226">
				<ele>63.0</ele>
				<time>2014-08-17T14:52:09Z</time>
				<extensions>
					<speed>0.0</speed>
				</extensions>
			</trkpt>
			<trkpt lat="53.25623965" lon="-8.92578224">
				<ele>64.0</ele>
				<time>2014-08-17T14:52:10Z</time>
				<extensions>
					<speed>0.0</speed>
				</extensions>
			</trkpt>
			<trkpt lat="53.25623963" lon="-8.92578231">
				<ele>64.0</ele>
				<time>2014-08-17T14:52:11Z</time>
				<extensions>
					<speed>0.0</speed>
				</extensions>
			</trkpt>
			<trkpt lat="53.25623961" lon="-8.92578229">
				<ele>64.0</ele>
				<time>2014-08-17T14:52:12Z</time>
				<extensions>
					<speed>0.0</speed>
				</extensions>
			</trkpt>
			<trkpt lat="53.25623958" lon="-8.92578233">
				<ele>64.0</ele>
				<time>2014-08-17T14:52:13Z</time>
				<extensions>
					<speed>0.0</speed>
				</extensions>
			</trkpt>
			<trkpt lat="53.25623958" lon="-8.92578235">
				<ele>64.0</ele>
				<time>2014-08-17T14:52:14Z</time>
				<extensions>
					<speed>0.0</speed>
				</extensions>
			</trkpt>
			<trkpt lat="53.25623959" lon="-8.92578234">
				<ele>64.0</ele>
				<time>2014-08-17T14:52:15Z</time>
				<extensions>
					<speed>0.0</speed>
				</extensions>
			</trkpt>
			<trkpt lat="53.2562396" lon="-8.92578232">
				<ele>64.0</ele>
				<time>2014-08-17T14:52:16Z</time>
				<extensions>
					<speed>0.0</speed>
				</extensions>
			</trkpt>
			<trkpt lat="53.25623958" lon="-8.92578228">
				<ele>64.0</ele>
				<time>2014-08-17T14:52:17Z</time>
				<extensions>
					<speed>0.0</speed>
				</extensions>
			</trkpt>
			<trkpt lat="53.25623907" lon="-8.9257816">
				<ele>64.0</ele>
				<time>2014-08-17T14:52:18Z</time>
				<extensions>
					<speed>0.5</speed>
				</extensions>
			</trkpt>
			<trkpt lat="53.2562312" lon="-8.92577475">
				<ele>64.0</ele>
				<time>2014-08-17T14:52:19Z</time>
				<extensions>
					<speed>1.25</speed>
				</extensions>
			</trkpt>
			<trkpt lat="53.25621782" lon="-8.92575678">
				<ele>64.0</ele>
				<time>2014-08-17T14:52:20Z</time>
				<extensions>
					<speed>2.0</speed>
				</extensions>
			</trkpt>
			<trkpt lat="53.25619912" lon="-8.92574105">
				<ele>63.0</ele>
				<time>2014-08-17T14:52:21Z</time>
				<extensions>
					<speed>3.0</speed>
				</extensions>
			</trkpt>
			<trkpt lat="53.25616902" lon="-8.92571499">
				<ele>64.0</ele>
				<time>2014-08-17T14:52:22Z</time>
				<extensions>
					<speed>3.75</speed>
				</extensions>
			</trkpt>
			<trkpt lat="53.25614308" lon="-8.92568928">
				<ele>63.0</ele>
				<time>2014-08-17T14:52:23Z</time>
				<extensions>
					<speed>3.75</speed>
				</extensions>
			</trkpt>
			<trkpt lat="53.25611225" lon="-8.92565802">
				<ele>63.0</ele>
				<time>2014-08-17T14:52:24Z</time>
				<extensions>
					<speed>3.75</speed>
				</extensions>
			</trkpt>
			<trkpt lat="53.2560847" lon="-8.92563463">
				<ele>63.0</ele>
				<time>2014-08-17T14:52:25Z</time>
				<extensions>
					<speed>3.75</speed>
				</extensions>
			</trkpt>
			<trkpt lat="53.25605836" lon="-8.92561418">
				<ele>62.0</ele>
				<time>2014-08-17T14:52:26Z</time>
				<extensions>
					<speed>3.5</speed>
				</extensions>
			</trkpt>
			<trkpt lat="53.2560376" lon="-8.92558192">
				<ele>62.0</ele>
				<time>2014-08-17T14:52:27Z</time>
				<extensions>
					<speed>3.25</speed>
				</extensions>
			</trkpt>
			<trkpt lat="53.25601573" lon="-8.92554859">
				<ele>62.0</ele>
				<time>2014-08-17T14:52:28Z</time>
				<extensions>
					<speed>3.0</speed>
				</extensions>
			</trkpt>
			<trkpt lat="53.25600085" lon="-8.92552114">
				<ele>62.0</ele>
				<time>2014-08-17T14:52:29Z</time>
				<extensions>
					<speed>2.25</speed>
				</extensions>
			</trkpt>
			<trkpt lat="53.25598719" lon="-8.92550609">
				<ele>62.0</ele>
				<time>2014-08-17T14:52:30Z</time>
				<extensions>
					<speed>1.5</speed>
				</extensions>
			</trkpt>
			<trkpt lat="53.25597829" lon="-8.92550002">
				<ele>62.0</ele>
				<time>2014-08-17T14:52:31Z</time>
				<extensions>
					<speed>0.75</speed>
				</extensions>
			</trkpt>
			<trkpt lat="53.25597145" lon="-8.92549187">
				<ele>62.0</ele>
				<time>2014-08-17T14:52:32Z</time>
				<extensions>
					<speed>0.25</speed>
				</extensions>
			</trkpt>
			<trkpt lat="53.25596802" lon="-8.92549452">
				<ele>62.0</ele>
				<time>2014-08-17T14:52:33Z</time>
				<extensions>
					<speed>0.5</speed>
				</extensions>
			</trkpt>
			<trkpt lat="53.25596446" lon="-8.92549728">
				<ele>62.0</ele>
				<time>2014-08-17T14:52:34Z</time>
				<extensions>
					<speed>0.0</speed>
				</extensions>
			</trkpt>
			<trkpt lat="53.25596219" lon="-8.92549657">
				<ele>62.0</ele>
				<time>2014-08-17T14:52:35Z</time>
				<extensions>
					<speed>0.0</speed>
				</extensions>
			</trkpt>
			<trkpt lat="53.25596128" lon="-8.92550065">
				<ele>62.0</ele>
				<time>2014-08-17T14:52:36Z</time>
				<extensions>
					<speed>0.0</speed>
				</extensions>
			</trkpt>
			<trkpt lat="53.25596057" lon="-8.92549956">
				<ele>63.0</ele>
				<time>2014-08-17T14:52:37Z</time>
				<extensions>
					<speed>0.0</speed>
				</extensions>
			</trkpt>
			<trkpt lat="53.25595876" lon="-8.92550151">
				<ele>63.0</ele>
				<time>2014-08-17T14:52:38Z</time>
				<extensions>
					<speed>0.0</speed>
				</extensions>
			</trkpt>
			<trkpt lat="53.25595731" lon="-8.92550332">
				<ele>64.0</ele>
				<time>2014-08-17T14:52:39Z</time>
				<extensions>
					<speed>0.0</speed>
				</extensions>
			</trkpt>
			<trkpt lat="53.25595799" lon="-8.92550457">
				<ele>64.0</ele>
				<time>2014-08-17T14:52:40Z</time>
				<extensions>
					<speed>0.0</speed>
				</extensions>
			</trkpt>
			<trkpt lat="53.25595715" lon="-8.92550366">
				<ele>64.0</ele>
				<time>2014-08-17T14:52:41Z</time>
				<extensions>
					<speed>0.75</speed>
				</extensions>
			</trkpt>
			<trkpt lat="53.25595487" lon="-8.9255002">
				<ele>64.0</ele>
				<time>2014-08-17T14:52:42Z</time>
				<extensions>
					<speed>0.75</speed>
				</extensions>
			</trkpt>
			<trkpt lat="53.25594965" lon="-8.925498">
				<ele>64.0</ele>
				<time>2014-08-17T14:52:43Z</time>
				<extensions>
					<speed>0.5</speed>
				</extensions>
			</trkpt>
			<trkpt lat="53.25594889" lon="-8.92549002">
				<ele>64.0</ele>
				<time>2014-08-17T14:52:44Z</time>
				<extensions>
					<speed>0.25</speed>
				</extensions>
			</trkpt>
			<trkpt lat="53.25594939" lon="-8.92548629">
				<ele>65.0</ele>
				<time>2014-08-17T14:52:45Z</time>
				<extensions>
					<speed>0.0</speed>
				</extensions>
			</trkpt>
			<trkpt lat="53.25594786" lon="-8.9254852">
				<ele>64.0</ele>
				<time>2014-08-17T14:52:46Z</time>
				<extensions>
					<speed>0.0</speed>
				</extensions>
			</trkpt>
			<trkpt lat="53.25594764" lon="-8.92548626">
				<ele>64.0</ele>
				<time>2014-08-17T14:52:47Z</time>
				<extensions>
					<speed>0.0</speed>
				</extensions>
			</trkpt>
			<trkpt lat="53.25594764" lon="-8.92548626">
				<ele>64.0</ele>
				<time>2014-08-17T14:52:48Z</time>
				<extensions>
					<speed>0.0</speed>
				</extensions>
			</trkpt>
			<trkpt lat="53.25594733" lon="-8.92548501">
				<ele>65.0</ele>
				<time>2014-08-17T14:52:49Z</time>
				<extensions>
					<speed>0.0</speed>
				</extensions>
			</trkpt>
			<trkpt lat="53.25594631" lon="-8.92548382">
				<ele>65.0</ele>
				<time>2014-08-17T14:52:50Z</time>
				<extensions>
					<speed>0.0</speed>
				</extensions>
			</trkpt>
			<trkpt lat="53.25594532" lon="-8.92548435">
				<ele>64.0</ele>
				<time>2014-08-17T14:52:51Z</time>
				<extensions>
					<speed>0.0</speed>
				</extensions>
			</trkpt>
			<trkpt lat="53.2559448" lon="-8.9254861">
				<ele>64.0</ele>
				<time>2014-08-17T14:52:52Z</time>
				<extensions>
					<speed>0.0</speed>
				</extensions>
			</trkpt>
			<trkpt lat="53.25594387" lon="-8.92548608">
				<ele>65.0</ele>
				<time>2014-08-17T14:52:53Z</time>
				<extensions>
					<speed>0.0</speed>
				</extensions>
			</trkpt>
			<trkpt lat="53.25594365" lon="-8.92548686">
				<ele>64.0</ele>
				<time>2014-08-17T14:52:54Z</time>
				<extensions>
					<speed>0.0</speed>
				</extensions>
			</trkpt>
			<trkpt lat="53.25594385" lon="-8.92548782">
				<ele>64.0</ele>
				<time>2014-08-17T14:52:55Z</time>
				<extensions>
					<speed>0.0</speed>
				</extensions>
			</trkpt>
			<trkpt lat="53.25594368" lon="-8.92548782">
				<ele>64.0</ele>
				<time>2014-08-17T14:52:56Z</time>
				<extensions>
					<speed>0.0</speed>
				</extensions>
			</trkpt>
			<trkpt lat="53.25594384" lon="-8.92548776">
				<ele>64.0</ele>
				<time>2014-08-17T14:52:57Z</time>
				<extensions>
					<speed>0.0</speed>
				</extensions>
			</trkpt>
			<trkpt lat="53.25594384" lon="-8.92548794">
				<ele>64.0</ele>
				<time>2014-08-17T14:52:58Z</time>
				<extensions>
					<speed>0.0</speed>
				</extensions>
			</trkpt>
			<trkpt lat="53.25594294" lon="-8.92548701">
				<ele>64.0</ele>
				<time>2014-08-17T14:52:59Z</time>
				<extensions>
					<speed>1.0</speed>
				</extensions>
			</trkpt>
			<trkpt lat="53.25592704" lon="-8.92547868">
				<ele>65.0</ele>
				<time>2014-08-17T14:53:00Z</time>
				<extensions>
					<speed>2.0</speed>
				</extensions>
			</trkpt>
			<trkpt lat="53.25591142" lon="-8.92546465">
				<ele>65.0</ele>
				<time>2014-08-17T14:53:01Z</time>
				<extensions>
					<speed>2.25</speed>
				</extensions>
			</trkpt>
			<trkpt lat="53.25589062" lon="-8.92544655">
				<ele>64.0</ele>
				<time>2014-08-17T14:53:02Z</time>
				<extensions>
					<speed>2.5</speed>
				</extensions>
			</trkpt>
			<trkpt lat="53.25587083" lon="-8.92542838">
				<ele>64.0</ele>
				<time>2014-08-17T14:53:03Z</time>
				<extensions>
					<speed>2.5</speed>
				</extensions>
			</trkpt>
			<trkpt lat="53.25585001" lon="-8.92540125">
				<ele>64.0</ele>
				<time>2014-08-17T14:53:04Z</time>
				<extensions>
					<speed>2.5</speed>
				</extensions>
			</trkpt>
			<trkpt lat="53.25584274" lon="-8.92536706">
				<ele>64.0</ele>
				<time>2014-08-17T14:53:05Z</time>
				<extensions>
					<speed>3.0</speed>
				</extensions>
			</trkpt>
			<trkpt lat="53.25584629" lon="-8.92532294">
				<ele>64.0</ele>
				<time>2014-08-17T14:53:06Z</time>
				<extensions>
					<speed>3.0</speed>
				</extensions>
			</trkpt>
			<trkpt lat="53.25586559" lon="-8.92527027">
				<ele>64.0</ele>
				<time>2014-08-17T14:53:07Z</time>
				<extensions>
					<speed>3.25</speed>
				</extensions>
			</trkpt>
			<trkpt lat="53.25587819" lon="-8.92522545">
				<ele>63.0</ele>
				<time>2014-08-17T14:53:08Z</time>
				<extensions>
					<speed>3.75</speed>
				</extensions>
			</trkpt>
			<trkpt lat="53.25589844" lon="-8.925182">
				<ele>64.0</ele>
				<time>2014-08-17T14:53:09Z</time>
				<extensions>
					<speed>3.75</speed>
				</extensions>
			</trkpt>
			<trkpt lat="53.25591684" lon="-8.92513874">
				<ele>64.0</ele>
				<time>2014-08-17T14:53:10Z</time>
				<extensions>
					<speed>3.75</speed>
				</extensions>
			</trkpt>
			<trkpt lat="53.25593244" lon="-8.92510392">
				<ele>64.0</ele>
				<time>2014-08-17T14:53:11Z</time>
				<extensions>
					<speed>3.25</speed>
				</extensions>
			</trkpt>
			<trkpt lat="53.25594563" lon="-8.9250579">
				<ele>63.0</ele>
				<time>2014-08-17T14:53:12Z</time>
				<extensions>
					<speed>3.25</speed>
				</extensions>
			</trkpt>
			<trkpt lat="53.25595419" lon="-8.92501265">
				<ele>63.0</ele>
				<time>2014-08-17T14:53:13Z</time>
				<extensions>
					<speed>3.0</speed>
				</extensions>
			</trkpt>
			<trkpt lat="53.2559672" lon="-8.92497277">
				<ele>63.0</ele>
				<time>2014-08-17T14:53:14Z</time>
				<extensions>
					<speed>3.0</speed>
				</extensions>
			</trkpt>
			<trkpt lat="53.25598022" lon="-8.9249329">
				<ele>63.0</ele>
				<time>2014-08-17T14:53:15Z</time>
				<extensions>
					<speed>3.0</speed>
				</extensions>
			</trkpt>
			<trkpt lat="53.25598251" lon="-8.92489608">
				<ele>64.0</ele>
				<time>2014-08-17T14:53:16Z</time>
				<extensions>
					<speed>3.0</speed>
				</extensions>
			</trkpt>
			<trkpt lat="53.25599497" lon="-8.92485449">
				<ele>64.0</ele>
				<time>2014-08-17T14:53:17Z</time>
				<extensions>
					<speed>3.0</speed>
				</extensions>
			</trkpt>
			<trkpt lat="53.25600771" lon="-8.92480777">
				<ele>64.0</ele>
				<time>2014-08-17T14:53:18Z</time>
				<extensions>
					<speed>3.25</speed>
				</extensions>
			</trkpt>
			<trkpt lat="53.25601822" lon="-8.92476466">
				<ele>64.0</ele>
				<time>2014-08-17T14:53:19Z</time>
				<extensions>
					<speed>3.5</speed>
				</extensions>
			</trkpt>
			<trkpt lat="53.25603845" lon="-8.92471414">
				<ele>64.0</ele>
				<time>2014-08-17T14:53:20Z</time>
				<extensions>
					<speed>3.25</speed>
				</extensions>
			</trkpt>
			<trkpt lat="53.25605168" lon="-8.92467655">
				<ele>63.0</ele>
				<time>2014-08-17T14:53:21Z</time>
				<extensions>
					<speed>3.0</speed>
				</extensions>
			</trkpt>
			<trkpt lat="53.2560638" lon="-8.92464945">
				<ele>63.0</ele>
				<time>2014-08-17T14:53:22Z</time>
				<extensions>
					<speed>2.75</speed>
				</extensions>
			</trkpt>
			<trkpt lat="53.25607149" lon="-8.92461392">
				<ele>63.0</ele>
				<time>2014-08-17T14:53:23Z</time>
				<extensions>
					<speed>2.75</speed>
				</extensions>
			</trkpt>
			<trkpt lat="53.25607971" lon="-8.92457615">
				<ele>63.0</ele>
				<time>2014-08-17T14:53:24Z</time>
				<extensions>
					<speed>2.5</speed>
				</extensions>
			</trkpt>
			<trkpt lat="53.2560794" lon="-8.92455262">
				<ele>61.0</ele>
				<time>2014-08-17T14:53:25Z</time>
				<extensions>
					<speed>2.5</speed>
				</extensions>
			</trkpt>
			<trkpt lat="53.25608899" lon="-8.924522">
				<ele>60.0</ele>
				<time>2014-08-17T14:53:26Z</time>
				<extensions>
					<speed>2.25</speed>
				</extensions>
			</trkpt>
			<trkpt lat="53.25610339" lon="-8.92449748">
				<ele>61.0</ele>
				<time>2014-08-17T14:53:27Z</time>
				<extensions>
					<speed>2.25</speed>
				</extensions>
			</trkpt>
			<trkpt lat="53.25610778" lon="-8.92446801">
				<ele>60.0</ele>
				<time>2014-08-17T14:53:28Z</time>
				<extensions>
					<speed>2.0</speed>
				</extensions>
			</trkpt>
			<trkpt lat="53.25611846" lon="-8.92444506">
				<ele>60.0</ele>
				<time>2014-08-17T14:53:29Z</time>
				<extensions>
					<speed>2.0</speed>
				</extensions>
			</trkpt>
			<trkpt lat="53.25612449" lon="-8.92442571">
				<ele>59.0</ele>
				<time>2014-08-17T14:53:30Z</time>
				<extensions>
					<speed>1.5</speed>
				</extensions>
			</trkpt>
			<trkpt lat="53.25613014" lon="-8.92440719">
				<ele>60.0</ele>
				<time>2014-08-17T14:53:31Z</time>
				<extensions>
					<speed>1.0</speed>
				</extensions>
			</trkpt>
			<trkpt lat="53.25613422" lon="-8.92439963">
				<ele>60.0</ele>
				<time>2014-08-17T14:53:32Z</time>
				<extensions>
					<speed>0.75</speed>
				</extensions>
			</trkpt>
			<trkpt lat="53.25613802" lon="-8.92439166">
				<ele>60.0</ele>
				<time>2014-08-17T14:53:33Z</time>
				<extensions>
					<speed>0.0</speed>
				</extensions>
			</trkpt>
			<trkpt lat="53.25613941" lon="-8.92438896">
				<ele>60.0</ele>
				<time>2014-08-17T14:53:34Z</time>
				<extensions>
					<speed>0.0</speed>
				</extensions>
			</trkpt>
			<trkpt lat="53.25613874" lon="-8.92438811">
				<ele>60.0</ele>
				<time>2014-08-17T14:53:35Z</time>
				<extensions>
					<speed>0.0</speed>
				</extensions>
			</trkpt>
			<trkpt lat="53.25613692" lon="-8.92438891">
				<ele>60.0</ele>
				<time>2014-08-17T14:53:36Z</time>
				<extensions>
					<speed>0.0</speed>
				</extensions>
			</trkpt>
			<trkpt lat="53.25614062" lon="-8.92438495">
				<ele>60.0</ele>
				<time>2014-08-17T14:53:37Z</time>
				<extensions>
					<speed>0.0</speed>
				</extensions>
			</trkpt>
			<trkpt lat="53.25614014" lon="-8.92439045">
				<ele>59.0</ele>
				<time>2014-08-17T14:53:38Z</time>
				<extensions>
					<speed>0.0</speed>
				</extensions>
			</trkpt>
			<trkpt lat="53.25614316" lon="-8.92438853">
				<ele>59.0</ele>
				<time>2014-08-17T14:53:39Z</time>
				<extensions>
					<speed>0.0</speed>
				</extensions>
			</trkpt>
			<trkpt lat="53.25614628" lon="-8.9243865">
				<ele>59.0</ele>
				<time>2014-08-17T14:53:40Z</time>
				<extensions>
					<speed>0.0</speed>
				</extensions>
			</trkpt>
			<trkpt lat="53.25615009" lon="-8.92438629">
				<ele>59.0</ele>
				<time>2014-08-17T14:53:41Z</time>
				<extensions>
					<speed>0.0</speed>
				</extensions>
			</trkpt>
			<trkpt lat="53.25615258" lon="-8.92438748">
				<ele>59.0</ele>
				<time>2014-08-17T14:53:42Z</time>
				<extensions>
					<speed>0.0</speed>
				</extensions>
			</trkpt>
			<trkpt lat="53.25615073" lon="-8.9243905">
				<ele>59.0</ele>
				<time>2014-08-17T14:53:43Z</time>
				<extensions>
					<speed>0.0</speed>
				</extensions>
			</trkpt>
			<trkpt lat="53.25615123" lon="-8.92439042">
				<ele>59.0</ele>
				<time>2014-08-17T14:53:44Z</time>
				<extensions>
					<speed>0.0</speed>
				</extensions>
			</trkpt>
			<trkpt lat="53.25615117" lon="-8.92439069">
				<ele>59.0</ele>
				<time>2014-08-17T14:53:45Z</time>
				<extensions>
					<speed>0.0</speed>
				</extensions>
			</trkpt>
			<trkpt lat="53.25615125" lon="-8.92439062">
				<ele>59.0</ele>
				<time>2014-08-17T14:53:46Z</time>
				<extensions>
					<speed>0.0</speed>
				</extensions>
			</trkpt>
			<trkpt lat="53.2561513" lon="-8.92439063">
				<ele>59.0</ele>
				<time>2014-08-17T14:53:47Z</time>
				<extensions>
					<speed>0.0</speed>
				</extensions>
			</trkpt>
			<trkpt lat="53.25615131" lon="-8.92439067">
				<ele>59.0</ele>
				<time>2014-08-17T14:53:48Z</time>
				<extensions>
					<speed>0.0</speed>
				</extensions>
			</trkpt>
			<trkpt lat="53.25615132" lon="-8.92439068">
				<ele>59.0</ele>
				<time>2014-08-17T14:53:49Z</time>
				<extensions>
					<speed>0.0</speed>
				</extensions>
			</trkpt>
			<trkpt lat="53.25615133" lon="-8.92439068">
				<ele>59.0</ele>
				<time>2014-08-17T14:53:50Z</time>
				<extensions>
					<speed>0.0</speed>
				</extensions>
			</trkpt>
			<trkpt lat="53.25615135" lon="-8.92439068">
				<ele>59.0</ele>
				<time>2014-08-17T14:53:51Z</time>
				<extensions>
					<speed>0.0</speed>
				</extensions>
			</trkpt>
			<trkpt lat="53.25615139" lon="-8.92439072">
				<ele>59.0</ele>
				<time>2014-08-17T14:53:52Z</time>
				<extensions>
					<speed>0.0</speed>
				</extensions>
			</trkpt>
			<trkpt lat="53.25615142" lon="-8.92439073">
				<ele>59.0</ele>
				<time>2014-08-17T14:53:53Z</time>
				<extensions>
					<speed>0.0</speed>
				</extensions>
			</trkpt>
			<trkpt lat="53.25615145" lon="-8.92439076">
				<ele>59.0</ele>
				<time>2014-08-17T14:53:54Z</time>
				<extensions>
					<speed>0.0</speed>
				</extensions>
			</trkpt>
			<trkpt lat="53.25615141" lon="-8.92439074">
				<ele>59.0</ele>
				<time>2014-08-17T14:53:55Z</time>
				<extensions>
					<speed>0.0</speed>
				</extensions>
			</trkpt>
			<trkpt lat="53.25615143" lon="-8.92439077">
				<ele>59.0</ele>
				<time>2014-08-17T14:53:56Z</time>
				<extensions>
					<speed>0.0</speed>
				</extensions>
			</trkpt>
			<trkpt lat="53.25615142" lon="-8.9243908">
				<ele>59.0</ele>
				<time>2014-08-17T14:53:57Z</time>
				<extensions>
					<speed>0.0</speed>
				</extensions>
			</trkpt>
			<trkpt lat="53.25615143" lon="-8.92439078">
				<ele>59.0</ele>
				<time>2014-08-17T14:53:58Z</time>
				<extensions>
					<speed>0.0</speed>
				</extensions>
			</trkpt>
			<trkpt lat="53.25615141" lon="-8.92439082">
				<ele>59.0</ele>
				<time>2014-08-17T14:53:59Z</time>
				<extensions>
					<speed>0.0</speed>
				</extensions>
			</trkpt>
			<trkpt lat="53.2561514" lon="-8.92439086">
				<ele>59.0</ele>
				<time>2014-08-17T14:54:00Z</time>
				<extensions>
					<speed>0.0</speed>
				</extensions>
			</trkpt>
			<trkpt lat="53.25615142" lon="-8.92439084">
				<ele>59.0</ele>
				<time>2014-08-17T14:54:01Z</time>
				<extensions>
					<speed>0.0</speed>
				</extensions>
			</trkpt>
			<trkpt lat="53.25615144" lon="-8.9243909">
				<ele>59.0</ele>
				<time>2014-08-17T14:54:02Z</time>
				<extensions>
					<speed>0.0</speed>
				</extensions>
			</trkpt>
			<trkpt lat="53.25615142" lon="-8.92439096">
				<ele>59.0</ele>
				<time>2014-08-17T14:54:03Z</time>
				<extensions>
					<speed>0.0</speed>
				</extensions>
			</trkpt>
			<trkpt lat="53.25615145" lon="-8.92439102">
				<ele>59.0</ele>
				<time>2014-08-17T14:54:04Z</time>
				<extensions>
					<speed>0.0</speed>
				</extensions>
			</trkpt>
			<trkpt lat="53.25615142" lon="-8.92439108">
				<ele>59.0</ele>
				<time>2014-08-17T14:54:05Z</time>
				<extensions>
					<speed>0.0</speed>
				</extensions>
			</trkpt>
			<trkpt lat="53.25615142" lon="-8.92439107">
				<ele>59.0</ele>
				<time>2014-08-17T14:54:06Z</time>
				<extensions>
					<speed>0.0</speed>
				</extensions>
			</trkpt>
			<trkpt lat="53.2561514" lon="-8.92439109">
				<ele>59.0</ele>
				<time>2014-08-17T14:54:07Z</time>
				<extensions>
					<speed>0.0</speed>
				</extensions>
			</trkpt>
			<trkpt lat="53.25615139" lon="-8.92439109">
				<ele>59.0</ele>
				<time>2014-08-17T14:54:08Z</time>
				<extensions>
					<speed>0.0</speed>
				</extensions>
			</trkpt>
			<trkpt lat="53.25615137" lon="-8.92439107">
				<ele>59.0</ele>
				<time>2014-08-17T14:54:09Z</time>
				<extensions>
					<speed>0.0</speed>
				</extensions>
			</trkpt>
			<trkpt lat="53.25615137" lon="-8.92439111">
				<ele>59.0</ele>
				<time>2014-08-17T14:54:10Z</time>
				<extensions>
					<speed>0.0</speed>
				</extensions>
			</trkpt>
			<trkpt lat="53.25615136" lon="-8.92439116">
				<ele>59.0</ele>
				<time>2014-08-17T14:54:11Z</time>
				<extensions>
					<speed>0.0</speed>
				</extensions>
			</trkpt>
			<trkpt lat="53.25615135" lon="-8.92439119">
				<ele>59.0</ele>
				<time>2014-08-17T14:54:12Z</time>
				<extensions>
					<speed>0.0</speed>
				</extensions>
			</trkpt>
			<trkpt lat="53.25615136" lon="-8.9243912">
				<ele>59.0</ele>
				<time>2014-08-17T14:54:13Z</time>
				<extensions>
					<speed>0.0</speed>
				</extensions>
			</trkpt>
			<trkpt lat="53.25615136" lon="-8.92439119">
				<ele>59.0</ele>
				<time>2014-08-17T14:54:14Z</time>
				<extensions>
					<speed>0.0</speed>
				</extensions>
			</trkpt>
			<trkpt lat="53.25615138" lon="-8.92439123">
				<ele>59.0</ele>
				<time>2014-08-17T14:54:15Z</time>
				<extensions>
					<speed>0.0</speed>
				</extensions>
			</trkpt>
			<trkpt lat="53.2561514" lon="-8.9243912">
				<ele>59.0</ele>
				<time>2014-08-17T14:54:16Z</time>
				<extensions>
					<speed>0.0</speed>
				</extensions>
			</trkpt>
			<trkpt lat="53.25615142" lon="-8.92439119">
				<ele>59.0</ele>
				<time>2014-08-17T14:54:17Z</time>
				<extensions>
					<speed>0.0</speed>
				</extensions>
			</trkpt>
			<trkpt lat="53.25615143" lon="-8.92439121">
				<ele>59.0</ele>
				<time>2014-08-17T14:54:18Z</time>
				<extensions>
					<speed>0.0</speed>
				</extensions>
			</trkpt>
			<trkpt lat="53.25615138" lon="-8.92439125">
				<ele>59.0</ele>
				<time>2014-08-17T14:54:19Z</time>
				<extensions>
					<speed>0.0</speed>
				</extensions>
			</trkpt>
			<trkpt lat="53.25615062" lon="-8.92439356">
				<ele>59.0</ele>
				<time>2014-08-17T14:54:20Z</time>
				<extensions>
					<speed>1.0</speed>
				</extensions>
			</trkpt>
			<trkpt lat="53.2561478" lon="-8.92440262">
				<ele>59.0</ele>
				<time>2014-08-17T14:54:21Z</time>
				<extensions>
					<speed>1.0</speed>
				</extensions>
			</trkpt>
			<trkpt lat="53.25614101" lon="-8.9244175">
				<ele>59.0</ele>
				<time>2014-08-17T14:54:22Z</time>
				<extensions>
					<speed>1.25</speed>
				</extensions>
			</trkpt>
			<trkpt lat="53.25613814" lon="-8.9244365">
				<ele>60.0</ele>
				<time>2014-08-17T14:54:23Z</time>
				<extensions>
					<speed>1.5</speed>
				</extensions>
			</trkpt>
			<trkpt lat="53.25613211" lon="-8.92444761">
				<ele>60.0</ele>
				<time>2014-08-17T14:54:24Z</time>
				<extensions>
					<speed>1.5</speed>
				</extensions>
			</trkpt>
			<trkpt lat="53.25612355" lon="-8.92446897">
				<ele>59.0</ele>
				<time>2014-08-17T14:54:25Z</time>
				<extensions>
					<speed>1.5</speed>
				</extensions>
			</trkpt>
			<trkpt lat="53.25611455" lon="-8.92448673">
				<ele>59.0</ele>
				<time>2014-08-17T14:54:26Z</time>
				<extensions>
					<speed>1.5</speed>
				</extensions>
			</trkpt>
			<trkpt lat="53.25610689" lon="-8.92449899">
				<ele>59.0</ele>
				<time>2014-08-17T14:54:27Z</time>
				<extensions>
					<speed>1.5</speed>
				</extensions>
			</trkpt>
			<trkpt lat="53.25609923" lon="-8.92452392">
				<ele>59.0</ele>
				<time>2014-08-17T14:54:28Z</time>
				<extensions>
					<speed>1.5</speed>
				</extensions>
			</trkpt>
			<trkpt lat="53.25609218" lon="-8.92454336">
				<ele>60.0</ele>
				<time>2014-08-17T14:54:29Z</time>
				<extensions>
					<speed>1.5</speed>
				</extensions>
			</trkpt>
			<trkpt lat="53.25608051" lon="-8.92456535">
				<ele>59.0</ele>
				<time>2014-08-17T14:54:30Z</time>
				<extensions>
					<speed>1.25</speed>
				</extensions>
			</trkpt>
			<trkpt lat="53.2560762" lon="-8.92458095">
				<ele>60.0</ele>
				<time>2014-08-17T14:54:31Z</time>
				<extensions>
					<speed>1.0</speed>
				</extensions>
			</trkpt>
			<trkpt lat="53.2560718" lon="-8.92459198">
				<ele>60.0</ele>
				<time>2014-08-17T14:54:32Z</time>
				<extensions>
					<speed>1.0</speed>
				</extensions>
			</trkpt>
			<trkpt lat="53.25606741" lon="-8.92460302">
				<ele>60.0</ele>
				<time>2014-08-17T14:54:33Z</time>
				<extensions>
					<speed>1.0</speed>
				</extensions>
			</trkpt>
			<trkpt lat="53.25607475" lon="-8.92456575">
				<ele>60.0</ele>
				<time>2014-08-17T14:54:34Z</time>
				<extensions>
					<speed>0.0</speed>
				</extensions>
			</trkpt>
			<trkpt lat="53.25607638" lon="-8.92456416">
				<ele>60.0</ele>
				<time>2014-08-17T14:54:35Z</time>
				<extensions>
					<speed>1.5</speed>
				</extensions>
			</trkpt>
			<trkpt lat="53.25609558" lon="-8.92455657">
				<ele>60.0</ele>
				<time>2014-08-17T14:54:36Z</time>
				<extensions>
					<speed>2.0</speed>
				</extensions>
			</trkpt>
			<trkpt lat="53.25612135" lon="-8.92456744">
				<ele>60.0</ele>
				<time>2014-08-17T14:54:37Z</time>
				<extensions>
					<speed>2.25</speed>
				</extensions>
			</trkpt>
			<trkpt lat="53.25614117" lon="-8.92458553">
				<ele>60.0</ele>
				<time>2014-08-17T14:54:38Z</time>
				<extensions>
					<speed>2.25</speed>
				</extensions>
			</trkpt>
			<trkpt lat="53.25616015" lon="-8.92460763">
				<ele>61.0</ele>
				<time>2014-08-17T14:54:39Z</time>
				<extensions>
					<speed>2.25</speed>
				</extensions>
			</trkpt>
			<trkpt lat="53.25617723" lon="-8.92462969">
				<ele>61.0</ele>
				<time>2014-08-17T14:54:40Z</time>
				<extensions>
					<speed>2.25</speed>
				</extensions>
			</trkpt>
			<trkpt lat="53.25619565" lon="-8.92464746">
				<ele>61.0</ele>
				<time>2014-08-17T14:54:41Z</time>
				<extensions>
					<speed>2.0</speed>
				</extensions>
			</trkpt>
			<trkpt lat="53.25621101" lon="-8.92466226">
				<ele>61.0</ele>
				<time>2014-08-17T14:54:42Z</time>
				<extensions>
					<speed>1.75</speed>
				</extensions>
			</trkpt>
			<trkpt lat="53.25621811" lon="-8.92466779">
				<ele>62.0</ele>
				<time>2014-08-17T14:54:43Z</time>
				<extensions>
					<speed>1.25</speed>
				</extensions>
			</trkpt>
			<trkpt lat="53.25622651" lon="-8.92467626">
				<ele>61.0</ele>
				<time>2014-08-17T14:54:44Z</time>
				<extensions>
					<speed>0.25</speed>
				</extensions>
			</trkpt>
			<trkpt lat="53.2562247" lon="-8.92467935">
				<ele>62.0</ele>
				<time>2014-08-17T14:54:45Z</time>
				<extensions>
					<speed>0.25</speed>
				</extensions>
			</trkpt>
			<trkpt lat="53.25622387" lon="-8.92468387">
				<ele>62.0</ele>
				<time>2014-08-17T14:54:46Z</time>
				<extensions>
					<speed>0.0</speed>
				</extensions>
			</trkpt>
			<trkpt lat="53.25622426" lon="-8.92468499">
				<ele>62.0</ele>
				<time>2014-08-17T14:54:47Z</time>
				<extensions>
					<speed>0.0</speed>
				</extensions>
			</trkpt>
			<trkpt lat="53.25622361" lon="-8.92468577">
				<ele>63.0</ele>
				<time>2014-08-17T14:54:48Z</time>
				<extensions>
					<speed>0.0</speed>
				</extensions>
			</trkpt>
			<trkpt lat="53.2562211" lon="-8.92468421">
				<ele>62.0</ele>
				<time>2014-08-17T14:54:49Z</time>
				<extensions>
					<speed>0.0</speed>
				</extensions>
			</trkpt>
			<trkpt lat="53.25622049" lon="-8.92468734">
				<ele>62.0</ele>
				<time>2014-08-17T14:54:50Z</time>
				<extensions>
					<speed>0.0</speed>
				</extensions>
			</trkpt>
			<trkpt lat="53.2562213" lon="-8.92468733">
				<ele>62.0</ele>
				<time>2014-08-17T14:54:51Z</time>
				<extensions>
					<speed>0.0</speed>
				</extensions>
			</trkpt>
			<trkpt lat="53.25622186" lon="-8.92468284">
				<ele>62.0</ele>
				<time>2014-08-17T14:54:52Z</time>
				<extensions>
					<speed>0.0</speed>
				</extensions>
			</trkpt>
			<trkpt lat="53.25622269" lon="-8.92468369">
				<ele>62.0</ele>
				<time>2014-08-17T14:54:53Z</time>
				<extensions>
					<speed>0.75</speed>
				</extensions>
			</trkpt>
			<trkpt lat="53.25623369" lon="-8.92469956">
				<ele>62.0</ele>
				<time>2014-08-17T14:54:54Z</time>
				<extensions>
					<speed>1.75</speed>
				</extensions>
			</trkpt>
			<trkpt lat="53.25625408" lon="-8.92469902">
				<ele>62.0</ele>
				<time>2014-08-17T14:54:55Z</time>
				<extensions>
					<speed>2.25</speed>
				</extensions>
			</trkpt>
			<trkpt lat="53.25627652" lon="-8.92472397">
				<ele>62.0</ele>
				<time>2014-08-17T14:54:56Z</time>
				<extensions>
					<speed>3.0</speed>
				</extensions>
			</trkpt>
			<trkpt lat="53.25630323" lon="-8.92474989">
				<ele>62.0</ele>
				<time>2014-08-17T14:54:57Z</time>
				<extensions>
					<speed>3.25</speed>
				</extensions>
			</trkpt>
			<trkpt lat="53.25633279" lon="-8.92478447">
				<ele>63.0</ele>
				<time>2014-08-17T14:54:58Z</time>
				<extensions>
					<speed>3.5</speed>
				</extensions>
			</trkpt>
			<trkpt lat="53.25636044" lon="-8.92481005">
				<ele>63.0</ele>
				<time>2014-08-17T14:54:59Z</time>
				<extensions>
					<speed>3.5</speed>
				</extensions>
			</trkpt>
			<trkpt lat="53.2563852" lon="-8.924839">
				<ele>63.0</ele>
				<time>2014-08-17T14:55:00Z</time>
				<extensions>
					<speed>3.0</speed>
				</extensions>
			</trkpt>
			<trkpt lat="53.2564069" lon="-8.92486732">
				<ele>63.0</ele>
				<time>2014-08-17T14:55:01Z</time>
				<extensions>
					<speed>3.0</speed>
				</extensions>
			</trkpt>
			<trkpt lat="53.25642536" lon="-8.92488916">
				<ele>63.0</ele>
				<time>2014-08-17T14:55:02Z</time>
				<extensions>
					<speed>2.75</speed>
				</extensions>
			</trkpt>
			<trkpt lat="53.25644654" lon="-8.92491163">
				<ele>63.0</ele>
				<time>2014-08-17T14:55:03Z</time>
				<extensions>
					<speed>2.5</speed>
				</extensions>
			</trkpt>
			<trkpt lat="53.25645433" lon="-8.92492737">
				<ele>62.0</ele>
				<time>2014-08-17T14:55:04Z</time>
				<extensions>
					<speed>2.0</speed>
				</extensions>
			</trkpt>
			<trkpt lat="53.25646912" lon="-8.92494489">
				<ele>62.0</ele>
				<time>2014-08-17T14:55:05Z</time>
				<extensions>
					<speed>1.5</speed>
				</extensions>
			</trkpt>
			<trkpt lat="53.25648603" lon="-8.92494552">
				<ele>63.0</ele>
				<time>2014-08-17T14:55:06Z</time>
				<extensions>
					<speed>1.0</speed>
				</extensions>
			</trkpt>
			<trkpt lat="53.25648895" lon="-8.9249346">
				<ele>63.0</ele>
				<time>2014-08-17T14:55:07Z</time>
				<extensions>
					<speed>0.5</speed>
				</extensions>
			</trkpt>
			<trkpt lat="53.25648773" lon="-8.92492963">
				<ele>63.0</ele>
				<time>2014-08-17T14:55:08Z</time>
				<extensions>
					<speed>0.0</speed>
				</extensions>
			</trkpt>
			<trkpt lat="53.25649026" lon="-8.92493382">
				<ele>63.0</ele>
				<time>2014-08-17T14:55:09Z</time>
				<extensions>
					<speed>0.0</speed>
				</extensions>
			</trkpt>
			<trkpt lat="53.25649038" lon="-8.92493597">
				<ele>64.0</ele>
				<time>2014-08-17T14:55:10Z</time>
				<extensions>
					<speed>0.0</speed>
				</extensions>
			</trkpt>
			<trkpt lat="53.25649189" lon="-8.92493876">
				<ele>64.0</ele>
				<time>2014-08-17T14:55:11Z</time>
				<extensions>
					<speed>0.0</speed>
				</extensions>
			</trkpt>
			<trkpt lat="53.25649427" lon="-8.9249422">
				<ele>64.0</ele>
				<time>2014-08-17T14:55:12Z</time>
				<extensions>
					<speed>0.0</speed>
				</extensions>
			</trkpt>
			<trkpt lat="53.25649701" lon="-8.92494423">
				<ele>64.0</ele>
				<time>2014-08-17T14:55:13Z</time>
				<extensions>
					<speed>0.0</speed>
				</extensions>
			</trkpt>
			<trkpt lat="53.25650023" lon="-8.92494172">
				<ele>64.0</ele>
				<time>2014-08-17T14:55:14Z</time>
				<extensions>
					<speed>0.0</speed>
				</extensions>
			</trkpt>
			<trkpt lat="53.25650009" lon="-8.92494059">
				<ele>64.0</ele>
				<time>2014-08-17T14:55:15Z</time>
				<extensions>
					<speed>0.0</speed>
				</extensions>
			</trkpt>
			<trkpt lat="53.25649661" lon="-8.92494256">
				<ele>64.0</ele>
				<time>2014-08-17T14:55:16Z</time>
				<extensions>
					<speed>0.0</speed>
				</extensions>
			</trkpt>
			<trkpt lat="53.25649792" lon="-8.92494404">
				<ele>64.0</ele>
				<time>2014-08-17T14:55:17Z</time>
				<extensions>
					<speed>1.25</speed>
				</extensions>
			</trkpt>
			<trkpt lat="53.25651295" lon="-8.92496332">
				<ele>64.0</ele>
				<time>2014-08-17T14:55:18Z</time>
				<extensions>
					<speed>2.0</speed>
				</extensions>
			</trkpt>
			<trkpt lat="53.2565291" lon="-8.92497969">
				<ele>64.0</ele>
				<time>2014-08-17T14:55:19Z</time>
				<extensions>
					<speed>2.0</speed>
				</extensions>
			</trkpt>
			<trkpt lat="53.25654941" lon="-8.92498442">
				<ele>64.0</ele>
				<time>2014-08-17T14:55:20Z</time>
				<extensions>
					<speed>1.75</speed>
				</extensions>
			</trkpt>
			<trkpt lat="53.25656487" lon="-8.92498362">
				<ele>64.0</ele>
				<time>2014-08-17T14:55:21Z</time>
				<extensions>
					<speed>1.0</speed>
				</extensions>
			</trkpt>
			<trkpt lat="53.25656472" lon="-8.92498641">
				<ele>64.0</ele>
				<time>2014-08-17T14:55:22Z</time>
				<extensions>
					<speed>0.0</speed>
				</extensions>
			</trkpt>
			<trkpt lat="53.2565638" lon="-8.92498555">
				<ele>64.0</ele>
				<time>2014-08-17T14:55:23Z</time>
				<extensions>
					<speed>0.0</speed>
				</extensions>
			</trkpt>
			<trkpt lat="53.25655866" lon="-8.92498791">
				<ele>64.0</ele>
				<time>2014-08-17T14:55:24Z</time>
				<extensions>
					<speed>0.0</speed>
				</extensions>
			</trkpt>
			<trkpt lat="53.25655714" lon="-8.92498698">
				<ele>64.0</ele>
				<time>2014-08-17T14:55:25Z</time>
				<extensions>
					<speed>0.0</speed>
				</extensions>
			</trkpt>
			<trkpt lat="53.25655676" lon="-8.92498761">
				<ele>64.0</ele>
				<time>2014-08-17T14:55:26Z</time>
				<extensions>
					<speed>0.0</speed>
				</extensions>
			</trkpt>
			<trkpt lat="53.25655583" lon="-8.92498795">
				<ele>64.0</ele>
				<time>2014-08-17T14:55:27Z</time>
				<extensions>
					<speed>0.0</speed>
				</extensions>
			</trkpt>
			<trkpt lat="53.25655253" lon="-8.92498742">
				<ele>64.0</ele>
				<time>2014-08-17T14:55:28Z</time>
				<extensions>
					<speed>0.0</speed>
				</extensions>
			</trkpt>
			<trkpt lat="53.25655224" lon="-8.92498953">
				<ele>64.0</ele>
				<time>2014-08-17T14:55:29Z</time>
				<extensions>
					<speed>0.0</speed>
				</extensions>
			</trkpt>
			<trkpt lat="53.25655037" lon="-8.92499373">
				<ele>63.0</ele>
				<time>2014-08-17T14:55:30Z</time>
				<extensions>
					<speed>0.0</speed>
				</extensions>
			</trkpt>
			<trkpt lat="53.25655198" lon="-8.92499207">
				<ele>64.0</ele>
				<time>2014-08-17T14:55:31Z</time>
				<extensions>
					<speed>0.0</speed>
				</extensions>
			</trkpt>
			<trkpt lat="53.25655187" lon="-8.92499287">
				<ele>64.0</ele>
				<time>2014-08-17T14:55:32Z</time>
				<extensions>
					<speed>0.0</speed>
				</extensions>
			</trkpt>
			<trkpt lat="53.25655174" lon="-8.92499271">
				<ele>64.0</ele>
				<time>2014-08-17T14:55:33Z</time>
				<extensions>
					<speed>0.0</speed>
				</extensions>
			</trkpt>
			<trkpt lat="53.25655278" lon="-8.92499544">
				<ele>63.0</ele>
				<time>2014-08-17T14:55:34Z</time>
				<extensions>
					<speed>0.0</speed>
				</extensions>
			</trkpt>
			<trkpt lat="53.25655219" lon="-8.92499248">
				<ele>63.0</ele>
				<time>2014-08-17T14:55:35Z</time>
				<extensions>
					<speed>0.0</speed>
				</extensions>
			</trkpt>
			<trkpt lat="53.25654916" lon="-8.92499166">
				<ele>63.0</ele>
				<time>2014-08-17T14:55:36Z</time>
				<extensions>
					<speed>0.0</speed>
				</extensions>
			</trkpt>
			<trkpt lat="53.25654815" lon="-8.92499337">
				<ele>63.0</ele>
				<time>2014-08-17T14:55:37Z</time>
				<extensions>
					<speed>0.0</speed>
				</extensions>
			</trkpt>
			<trkpt lat="53.25654467" lon="-8.92499342">
				<ele>63.0</ele>
				<time>2014-08-17T14:55:38Z</time>
				<extensions>
					<speed>0.0</speed>
				</extensions>
			</trkpt>
			<trkpt lat="53.25654411" lon="-8.92499349">
				<ele>63.0</ele>
				<time>2014-08-17T14:55:39Z</time>
				<extensions>
					<speed>0.0</speed>
				</extensions>
			</trkpt>
			<trkpt lat="53.25654206" lon="-8.92499482">
				<ele>63.0</ele>
				<time>2014-08-17T14:55:40Z</time>
				<extensions>
					<speed>0.0</speed>
				</extensions>
			</trkpt>
			<trkpt lat="53.25654101" lon="-8.92499811">
				<ele>63.0</ele>
				<time>2014-08-17T14:55:41Z</time>
				<extensions>
					<speed>0.0</speed>
				</extensions>
			</trkpt>
			<trkpt lat="53.25654195" lon="-8.92499994">
				<ele>63.0</ele>
				<time>2014-08-17T14:55:42Z</time>
				<extensions>
					<speed>0.0</speed>
				</extensions>
			</trkpt>
			<trkpt lat="53.2565396" lon="-8.92500063">
				<ele>63.0</ele>
				<time>2014-08-17T14:55:43Z</time>
				<extensions>
					<speed>0.0</speed>
				</extensions>
			</trkpt>
			<trkpt lat="53.25654037" lon="-8.92500093">
				<ele>63.0</ele>
				<time>2014-08-17T14:55:44Z</time>
				<extensions>
					<speed>0.0</speed>
				</extensions>
			</trkpt>
			<trkpt lat="53.25654094" lon="-8.92500112">
				<ele>63.0</ele>
				<time>2014-08-17T14:55:45Z</time>
				<extensions>
					<speed>0.0</speed>
				</extensions>
			</trkpt>
			<trkpt lat="53.25654122" lon="-8.92500095">
				<ele>63.0</ele>
				<time>2014-08-17T14:55:46Z</time>
				<extensions>
					<speed>0.0</speed>
				</extensions>
			</trkpt>
			<trkpt lat="53.25654126" lon="-8.92500094">
				<ele>63.0</ele>
				<time>2014-08-17T14:55:47Z</time>
				<extensions>
					<speed>0.0</speed>
				</extensions>
			</trkpt>
			<trkpt lat="53.25654126" lon="-8.92500085">
				<ele>63.0</ele>
				<time>2014-08-17T14:55:48Z</time>
				<extensions>
					<speed>0.0</speed>
				</extensions>
			</trkpt>
			<trkpt lat="53.25654128" lon="-8.92500084">
				<ele>63.0</ele>
				<time>2014-08-17T14:55:49Z</time>
				<extensions>
					<speed>0.0</speed>
				</extensions>
			</trkpt>
			<trkpt lat="53.25654129" lon="-8.92500082">
				<ele>63.0</ele>
				<time>2014-08-17T14:55:50Z</time>
				<extensions>
					<speed>0.0</speed>
				</extensions>
			</trkpt>
			<trkpt lat="53.25654129" lon="-8.92500082">
				<ele>63.0</ele>
				<time>2014-08-17T14:55:51Z</time>
				<extensions>
					<speed>0.0</speed>
				</extensions>
			</trkpt>
			<trkpt lat="53.25654473" lon="-8.92499973">
				<ele>63.0</ele>
				<time>2014-08-17T14:55:52Z</time>
				<extensions>
					<speed>2.0</speed>
				</extensions>
			</trkpt>
			<trkpt lat="53.25656713" lon="-8.92499424">
				<ele>63.0</ele>
				<time>2014-08-17T14:55:53Z</time>
				<extensions>
					<speed>2.5</speed>
				</extensions>
			</trkpt>
			<trkpt lat="53.25659308" lon="-8.92498279">
				<ele>63.0</ele>
				<time>2014-08-17T14:55:54Z</time>
				<extensions>
					<speed>2.5</speed>
				</extensions>
			</trkpt>
			<trkpt lat="53.25660725" lon="-8.92497332">
				<ele>62.0</ele>
				<time>2014-08-17T14:55:55Z</time>
				<extensions>
					<speed>2.5</speed>
				</extensions>
			</trkpt>
			<trkpt lat="53.25662566" lon="-8.92494863">
				<ele>61.0</ele>
				<time>2014-08-17T14:55:56Z</time>
				<extensions>
					<speed>2.25</speed>
				</extensions>
			</trkpt>
			<trkpt lat="53.25663658" lon="-8.92492936">
				<ele>61.0</ele>
				<time>2014-08-17T14:55:57Z</time>
				<extensions>
					<speed>1.25</speed>
				</extensions>
			</trkpt>
			<trkpt lat="53.25664217" lon="-8.92491605">
				<ele>60.0</ele>
				<time>2014-08-17T14:55:58Z</time>
				<extensions>
					<speed>0.5</speed>
				</extensions>
			</trkpt>
			<trkpt lat="53.256646" lon="-8.92491429">
				<ele>60.0</ele>
				<time>2014-08-17T14:55:59Z</time>
				<extensions>
					<speed>0.0</speed>
				</extensions>
			</trkpt>
			<trkpt lat="53.25664658" lon="-8.92491317">
				<ele>60.0</ele>
				<time>2014-08-17T14:56:00Z</time>
				<extensions>
					<speed>0.0</speed>
				</extensions>
			</trkpt>
			<trkpt lat="53.25665124" lon="-8.92491498">
				<ele>60.0</ele>
				<time>2014-08-17T14:56:01Z</time>
				<extensions>
					<speed>0.0</speed>
				</extensions>
			</trkpt>
			<trkpt lat="53.25665255" lon="-8.92491269">
				<ele>60.0</ele>
				<time>2014-08-17T14:56:02Z</time>
				<extensions>
					<speed>0.0</speed>
				</extensions>
			</trkpt>
			<trkpt lat="53.25665328" lon="-8.92491087">
				<ele>60.0</ele>
				<time>2014-08-17T14:56:03Z</time>
				<extensions>
					<speed>0.0</speed>
				</extensions>
			</trkpt>
			<trkpt lat="53.25665728" lon="-8.9249095">
				<ele>60.0</ele>
				<time>2014-08-17T14:56:04Z</time>
				<extensions>
					<speed>0.0</speed>
				</extensions>
			</trkpt>
			<trkpt lat="53.25666055" lon="-8.92490918">
				<ele>60.0</ele>
				<time>2014-08-17T14:56:05Z</time>
				<extensions>
					<speed>0.0</speed>
				</extensions>
			</trkpt>
			<trkpt lat="53.25666055" lon="-8.92490918">
				<ele>60.0</ele>
				<time>2014-08-17T14:56:06Z</time>
				<extensions>
					<speed>0.0</speed>
				</extensions>
			</trkpt>
			<trkpt lat="53.25666055" lon="-8.92490918">
				<ele>60.0</ele>
				<time>2014-08-17T14:56:07Z</time>
				<extensions>
					<speed>0.0</speed>
				</extensions>
			</trkpt>
			<trkpt lat="53.25666264" lon="-8.92490792">
				<ele>60.0</ele>
				<time>2014-08-17T14:56:08Z</time>
				<extensions>
					<speed>0.0</speed>
				</extensions>
			</trkpt>
			<trkpt lat="53.25666234" lon="-8.92490823">
				<ele>60.0</ele>
				<time>2014-08-17T14:56:09Z</time>
				<extensions>
					<speed>0.0</speed>
				</extensions>
			</trkpt>
			<trkpt lat="53.25666228" lon="-8.92490738">
				<ele>60.0</ele>
				<time>2014-08-17T14:56:10Z</time>
				<extensions>
					<speed>0.0</speed>
				</extensions>
			</trkpt>
			<trkpt lat="53.2566627" lon="-8.92490688">
				<ele>60.0</ele>
				<time>2014-08-17T14:56:11Z</time>
				<extensions>
					<speed>0.0</speed>
				</extensions>
			</trkpt>
			<trkpt lat="53.25666276" lon="-8.92490686">
				<ele>61.0</ele>
				<time>2014-08-17T14:56:12Z</time>
				<extensions>
					<speed>0.0</speed>
				</extensions>
			</trkpt>
			<trkpt lat="53.2566628" lon="-8.92490687">
				<ele>61.0</ele>
				<time>2014-08-17T14:56:13Z</time>
				<extensions>
					<speed>0.0</speed>
				</extensions>
			</trkpt>
			<trkpt lat="53.25666282" lon="-8.92490686">
				<ele>61.0</ele>
				<time>2014-08-17T14:56:14Z</time>
				<extensions>
					<speed>0.0</speed>
				</extensions>
			</trkpt>
			<trkpt lat="53.25666283" lon="-8.92490687">
				<ele>61.0</ele>
				<time>2014-08-17T14:56:15Z</time>
				<extensions>
					<speed>0.0</speed>
				</extensions>
			</trkpt>
			<trkpt lat="53.25666285" lon="-8.92490687">
				<ele>61.0</ele>
				<time>2014-08-17T14:56:16Z</time>
				<extensions>
					<speed>0.0</speed>
				</extensions>
			</trkpt>
			<trkpt lat="53.25666285" lon="-8.92490687">
				<ele>61.0</ele>
				<time>2014-08-17T14:56:17Z</time>
				<extensions>
					<speed>0.0</speed>
				</extensions>
			</trkpt>
			<trkpt lat="53.25666285" lon="-8.92490687">
				<ele>61.0</ele>
				<time>2014-08-17T14:56:18Z</time>
				<extensions>
					<speed>0.0</speed>
				</extensions>
			</trkpt>
			<trkpt lat="53.25666272" lon="-8.92490671">
				<ele>61.0</ele>
				<time>2014-08-17T14:56:19Z</time>
				<extensions>
					<speed>0.0</speed>
				</extensions>
			</trkpt>
			<trkpt lat="53.25666298" lon="-8.92490698">
				<ele>60.0</ele>
				<time>2014-08-17T14:56:20Z</time>
				<extensions>
					<speed>0.0</speed>
				</extensions>
			</trkpt>
			<trkpt lat="53.25666277" lon="-8.92490674">
				<ele>61.0</ele>
				<time>2014-08-17T14:56:21Z</time>
				<extensions>
					<speed>0.0</speed>
				</extensions>
			</trkpt>
			<trkpt lat="53.25666277" lon="-8.92490674">
				<ele>61.0</ele>
				<time>2014-08-17T14:56:22Z</time>
				<extensions>
					<speed>0.0</speed>
				</extensions>
			</trkpt>
			<trkpt lat="53.25666277" lon="-8.92490674">
				<ele>61.0</ele>
				<time>2014-08-17T14:56:23Z</time>
				<extensions>
					<speed>0.0</speed>
				</extensions>
			</trkpt>
			<trkpt lat="53.25666278" lon="-8.92490673">
				<ele>61.0</ele>
				<time>2014-08-17T14:56:24Z</time>
				<extensions>
					<speed>0.0</speed>
				</extensions>
			</trkpt>
			<trkpt lat="53.25666239" lon="-8.9249068">
				<ele>60.0</ele>
				<time>2014-08-17T14:56:25Z</time>
				<extensions>
					<speed>0.0</speed>
				</extensions>
			</trkpt>
			<trkpt lat="53.25666209" lon="-8.92490689">
				<ele>60.0</ele>
				<time>2014-08-17T14:56:26Z</time>
				<extensions>
					<speed>0.0</speed>
				</extensions>
			</trkpt>
			<trkpt lat="53.25666107" lon="-8.92490712">
				<ele>60.0</ele>
				<time>2014-08-17T14:56:27Z</time>
				<extensions>
					<speed>0.0</speed>
				</extensions>
			</trkpt>
			<trkpt lat="53.25666158" lon="-8.92490693">
				<ele>60.0</ele>
				<time>2014-08-17T14:56:28Z</time>
				<extensions>
					<speed>0.0</speed>
				</extensions>
			</trkpt>
			<trkpt lat="53.2566616" lon="-8.92490692">
				<ele>60.0</ele>
				<time>2014-08-17T14:56:29Z</time>
				<extensions>
					<speed>0.0</speed>
				</extensions>
			</trkpt>
			<trkpt lat="53.25666122" lon="-8.92490704">
				<ele>60.0</ele>
				<time>2014-08-17T14:56:30Z</time>
				<extensions>
					<speed>0.0</speed>
				</extensions>
			</trkpt>
			<trkpt lat="53.25666071" lon="-8.9249072">
				<ele>60.0</ele>
				<time>2014-08-17T14:56:31Z</time>
				<extensions>
					<speed>0.0</speed>
				</extensions>
			</trkpt>
			<trkpt lat="53.25666055" lon="-8.92490725">
				<ele>60.0</ele>
				<time>2014-08-17T14:56:32Z</time>
				<extensions>
					<speed>0.0</speed>
				</extensions>
			</trkpt>
			<trkpt lat="53.25666046" lon="-8.92490686">
				<ele>60.0</ele>
				<time>2014-08-17T14:56:33Z</time>
				<extensions>
					<speed>0.0</speed>
				</extensions>
			</trkpt>
			<trkpt lat="53.25666042" lon="-8.92490652">
				<ele>60.0</ele>
				<time>2014-08-17T14:56:34Z</time>
				<extensions>
					<speed>0.0</speed>
				</extensions>
			</trkpt>
			<trkpt lat="53.25666041" lon="-8.92490636">
				<ele>60.0</ele>
				<time>2014-08-17T14:56:35Z</time>
				<extensions>
					<speed>0.0</speed>
				</extensions>
			</trkpt>
			<trkpt lat="53.2566604" lon="-8.92490633">
				<ele>60.0</ele>
				<time>2014-08-17T14:56:36Z</time>
				<extensions>
					<speed>0.0</speed>
				</extensions>
			</trkpt>
			<trkpt lat="53.25666041" lon="-8.92490633">
				<ele>60.0</ele>
				<time>2014-08-17T14:56:37Z</time>
				<extensions>
					<speed>0.0</speed>
				</extensions>
			</trkpt>
			<trkpt lat="53.25666046" lon="-8.92490627">
				<ele>60.0</ele>
				<time>2014-08-17T14:56:38Z</time>
				<extensions>
					<speed>0.0</speed>
				</extensions>
			</trkpt>
			<trkpt lat="53.25666045" lon="-8.92490631">
				<ele>60.0</ele>
				<time>2014-08-17T14:56:39Z</time>
				<extensions>
					<speed>0.0</speed>
				</extensions>
			</trkpt>
			<trkpt lat="53.25666056" lon="-8.92490631">
				<ele>60.0</ele>
				<time>2014-08-17T14:56:40Z</time>
				<extensions>
					<speed>0.0</speed>
				</extensions>
			</trkpt>
			<trkpt lat="53.25666049" lon="-8.92490626">
				<ele>60.0</ele>
				<time>2014-08-17T14:56:41Z</time>
				<extensions>
					<speed>0.0</speed>
				</extensions>
			</trkpt>
			<trkpt lat="53.25666044" lon="-8.92490626">
				<ele>60.0</ele>
				<time>2014-08-17T14:56:42Z</time>
				<extensions>
					<speed>0.0</speed>
				</extensions>
			</trkpt>
			<trkpt lat="53.25666046" lon="-8.92490626">
				<ele>60.0</ele>
				<time>2014-08-17T14:56:43Z</time>
				<extensions>
					<speed>0.0</speed>
				</extensions>
			</trkpt>
			<trkpt lat="53.25666046" lon="-8.92490627">
				<ele>60.0</ele>
				<time>2014-08-17T14:56:44Z</time>
				<extensions>
					<speed>0.0</speed>
				</extensions>
			</trkpt>
			<trkpt lat="53.25666043" lon="-8.92490627">
				<ele>60.0</ele>
				<time>2014-08-17T14:56:45Z</time>
				<extensions>
					<speed>0.0</speed>
				</extensions>
			</trkpt>
			<trkpt lat="53.25666043" lon="-8.92490626">
				<ele>60.0</ele>
				<time>2014-08-17T14:56:46Z</time>
				<extensions>
					<speed>0.0</speed>
				</extensions>
			</trkpt>
			<trkpt lat="53.25666042" lon="-8.92490627">
				<ele>60.0</ele>
				<time>2014-08-17T14:56:47Z</time>
				<extensions>
					<speed>0.0</speed>
				</extensions>
			</trkpt>
			<trkpt lat="53.25666042" lon="-8.92490629">
				<ele>60.0</ele>
				<time>2014-08-17T14:56:48Z</time>
				<extensions>
					<speed>0.0</speed>
				</extensions>
			</trkpt>
			<trkpt lat="53.25666042" lon="-8.92490631">
				<ele>60.0</ele>
				<time>2014-08-17T14:56:49Z</time>
				<extensions>
					<speed>0.0</speed>
				</extensions>
			</trkpt>
			<trkpt lat="53.25666042" lon="-8.92490632">
				<ele>60.0</ele>
				<time>2014-08-17T14:56:50Z</time>
				<extensions>
					<speed>0.0</speed>
				</extensions>
			</trkpt>
			<trkpt lat="53.25666043" lon="-8.92490635">
				<ele>60.0</ele>
				<time>2014-08-17T14:56:51Z</time>
				<extensions>
					<speed>0.0</speed>
				</extensions>
			</trkpt>
			<trkpt lat="53.25666044" lon="-8.92490635">
				<ele>60.0</ele>
				<time>2014-08-17T14:56:52Z</time>
				<extensions>
					<speed>0.0</speed>
				</extensions>
			</trkpt>
			<trkpt lat="53.25666046" lon="-8.92490637">
				<ele>60.0</ele>
				<time>2014-08-17T14:56:53Z</time>
				<extensions>
					<speed>0.0</speed>
				</extensions>
			</trkpt>
			<trkpt lat="53.25666047" lon="-8.92490638">
				<ele>60.0</ele>
				<time>2014-08-17T14:56:54Z</time>
				<extensions>
					<speed>0.0</speed>
				</extensions>
			</trkpt>
			<trkpt lat="53.25666047" lon="-8.92490639">
				<ele>60.0</ele>
				<time>2014-08-17T14:56:55Z</time>
				<extensions>
					<speed>0.0</speed>
				</extensions>
			</trkpt>
			<trkpt lat="53.25666046" lon="-8.92490641">
				<ele>60.0</ele>
				<time>2014-08-17T14:56:56Z</time>
				<extensions>
					<speed>0.0</speed>
				</extensions>
			</trkpt>
			<trkpt lat="53.25666049" lon="-8.92490642">
				<ele>60.0</ele>
				<time>2014-08-17T14:56:57Z</time>
				<extensions>
					<speed>0.0</speed>
				</extensions>
			</trkpt>
			<trkpt lat="53.25666051" lon="-8.92490642">
				<ele>60.0</ele>
				<time>2014-08-17T14:56:58Z</time>
				<extensions>
					<speed>0.0</speed>
				</extensions>
			</trkpt>
			<trkpt lat="53.25666054" lon="-8.92490643">
				<ele>60.0</ele>
				<time>2014-08-17T14:56:59Z</time>
				<extensions>
					<speed>0.0</speed>
				</extensions>
			</trkpt>
			<trkpt lat="53.25666057" lon="-8.92490644">
				<ele>60.0</ele>
				<time>2014-08-17T14:57:00Z</time>
				<extensions>
					<speed>0.0</speed>
				</extensions>
			</trkpt>
			<trkpt lat="53.2566611" lon="-8.92490767">
				<ele>60.0</ele>
				<time>2014-08-17T14:57:01Z</time>
				<extensions>
					<speed>0.25</speed>
				</extensions>
			</trkpt>
			<trkpt lat="53.25666553" lon="-8.92490503">
				<ele>61.0</ele>
				<time>2014-08-17T14:57:02Z</time>
				<extensions>
					<speed>0.0</speed>
				</extensions>
			</trkpt>
			<trkpt lat="53.25666883" lon="-8.92490057">
				<ele>61.0</ele>
				<time>2014-08-17T14:57:03Z</time>
				<extensions>
					<speed>0.0</speed>
				</extensions>
			</trkpt>
			<trkpt lat="53.25666835" lon="-8.92489957">
				<ele>61.0</ele>
				<time>2014-08-17T14:57:04Z</time>
				<extensions>
					<speed>0.0</speed>
				</extensions>
			</trkpt>
			<trkpt lat="53.25666959" lon="-8.92490175">
				<ele>61.0</ele>
				<time>2014-08-17T14:57:05Z</time>
				<extensions>
					<speed>0.0</speed>
				</extensions>
			</trkpt>
			<trkpt lat="53.25667017" lon="-8.92490445">
				<ele>61.0</ele>
				<time>2014-08-17T14:57:06Z</time>
				<extensions>
					<speed>0.0</speed>
				</extensions>
			</trkpt>
			<trkpt lat="53.2566723" lon="-8.92490041">
				<ele>61.0</ele>
				<time>2014-08-17T14:57:07Z</time>
				<extensions>
					<speed>0.0</speed>
				</extensions>
			</trkpt>
			<trkpt lat="53.25667072" lon="-8.92490275">
				<ele>61.0</ele>
				<time>2014-08-17T14:57:08Z</time>
				<extensions>
					<speed>0.0</speed>
				</extensions>
			</trkpt>
			<trkpt lat="53.25667163" lon="-8.92490086">
				<ele>61.0</ele>
				<time>2014-08-17T14:57:09Z</time>
				<extensions>
					<speed>1.0</speed>
				</extensions>
			</trkpt>
			<trkpt lat="53.25668266" lon="-8.92487746">
				<ele>61.0</ele>
				<time>2014-08-17T14:57:10Z</time>
				<extensions>
					<speed>2.0</speed>
				</extensions>
			</trkpt>
			<trkpt lat="53.25669489" lon="-8.92484525">
				<ele>61.0</ele>
				<time>2014-08-17T14:57:11Z</time>
				<extensions>
					<speed>2.75</speed>
				</extensions>
			</trkpt>
			<trkpt lat="53.25670352" lon="-8.92480777">
				<ele>61.0</ele>
				<time>2014-08-17T14:57:12Z</time>
				<extensions>
					<speed>2.75</speed>
				</extensions>
			</trkpt>
			<trkpt lat="53.25671215" lon="-8.92477029">
				<ele>61.0</ele>
				<time>2014-08-17T14:57:13Z</time>
				<extensions>
					<speed>2.75</speed>
				</extensions>
			</trkpt>
			<trkpt lat="53.25673755" lon="-8.92470851">
				<ele>63.0</ele>
				<time>2014-08-17T14:57:14Z</time>
				<extensions>
					<speed>2.75</speed>
				</extensions>
			</trkpt>
			<trkpt lat="53.25674886" lon="-8.92466854">
				<ele>65.0</ele>
				<time>2014-08-17T14:57:15Z</time>
				<extensions>
					<speed>2.75</speed>
				</extensions>
			</trkpt>
			<trkpt lat="53.25675651" lon="-8.92463132">
				<ele>65.0</ele>
				<time>2014-08-17T14:57:16Z</time>
				<extensions>
					<speed>2.75</speed>
				</extensions>
			</trkpt>
			<trkpt lat="53.25677547" lon="-8.92461105">
				<ele>66.0</ele>
				<time>2014-08-17T14:57:17Z</time>
				<extensions>
					<speed>2.25</speed>
				</extensions>
			</trkpt>
			<trkpt lat="53.25678664" lon="-8.92458094">
				<ele>66.0</ele>
				<time>2014-08-17T14:57:18Z</time>
				<extensions>
					<speed>2.25</speed>
				</extensions>
			</trkpt>
			<trkpt lat="53.25679672" lon="-8.92456871">
				<ele>66.0</ele>
				<time>2014-08-17T14:57:19Z</time>
				<extensions>
					<speed>1.75</speed>
				</extensions>
			</trkpt>
			<trkpt lat="53.25680656" lon="-8.92455666">
				<ele>66.0</ele>
				<time>2014-08-17T14:57:20Z</time>
				<extensions>
					<speed>1.25</speed>
				</extensions>
			</trkpt>
			<trkpt lat="53.25680792" lon="-8.92454683">
				<ele>66.0</ele>
				<time>2014-08-17T14:57:21Z</time>
				<extensions>
					<speed>0.5</speed>
				</extensions>
			</trkpt>
			<trkpt lat="53.25681124" lon="-8.92453981">
				<ele>66.0</ele>
				<time>2014-08-17T14:57:22Z</time>
				<extensions>
					<speed>0.0</speed>
				</extensions>
			</trkpt>
			<trkpt lat="53.25681077" lon="-8.92453726">
				<ele>66.0</ele>
				<time>2014-08-17T14:57:23Z</time>
				<extensions>
					<speed>0.0</speed>
				</extensions>
			</trkpt>
			<trkpt lat="53.25681311" lon="-8.92453461">
				<ele>66.0</ele>
				<time>2014-08-17T14:57:24Z</time>
				<extensions>
					<speed>0.0</speed>
				</extensions>
			</trkpt>
			<trkpt lat="53.25681555" lon="-8.92453471">
				<ele>66.0</ele>
				<time>2014-08-17T14:57:25Z</time>
				<extensions>
					<speed>0.0</speed>
				</extensions>
			</trkpt>
			<trkpt lat="53.25681562" lon="-8.92453743">
				<ele>66.0</ele>
				<time>2014-08-17T14:57:26Z</time>
				<extensions>
					<speed>0.0</speed>
				</extensions>
			</trkpt>
			<trkpt lat="53.25681485" lon="-8.92453502">
				<ele>67.0</ele>
				<time>2014-08-17T14:57:27Z</time>
				<extensions>
					<speed>0.0</speed>
				</extensions>
			</trkpt>
			<trkpt lat="53.25681694" lon="-8.92454013">
				<ele>67.0</ele>
				<time>2014-08-17T14:57:28Z</time>
				<extensions>
					<speed>0.0</speed>
				</extensions>
			</trkpt>
			<trkpt lat="53.25681727" lon="-8.92454012">
				<ele>67.0</ele>
				<time>2014-08-17T14:57:29Z</time>
				<extensions>
					<speed>0.25</speed>
				</extensions>
			</trkpt>
			<trkpt lat="53.25681395" lon="-8.92454195">
				<ele>66.0</ele>
				<time>2014-08-17T14:57:30Z</time>
				<extensions>
					<speed>0.0</speed>
				</extensions>
			</trkpt>
			<trkpt lat="53.25681711" lon="-8.92453565">
				<ele>66.0</ele>
				<time>2014-08-17T14:57:31Z</time>
				<extensions>
					<speed>0.0</speed>
				</extensions>
			</trkpt>
			<trkpt lat="53.25682135" lon="-8.92453817">
				<ele>67.0</ele>
				<time>2014-08-17T14:57:32Z</time>
				<extensions>
					<speed>0.0</speed>
				</extensions>
			</trkpt>
			<trkpt lat="53.25681828" lon="-8.92453628">
				<ele>67.0</ele>
				<time>2014-08-17T14:57:33Z</time>
				<extensions>
					<speed>0.0</speed>
				</extensions>
			</trkpt>
			<trkpt lat="53.25682017" lon="-8.92454367">
				<ele>67.0</ele>
				<time>2014-08-17T14:57:34Z</time>
				<extensions>
					<speed>0.0</speed>
				</extensions>
			</trkpt>
			<trkpt lat="53.25682131" lon="-8.92454181">
				<ele>67.0</ele>
				<time>2014-08-17T14:57:35Z</time>
				<extensions>
					<speed>1.0</speed>
				</extensions>
			</trkpt>
			<trkpt lat="53.25682297" lon="-8.92453608">
				<ele>67.0</ele>
				<time>2014-08-17T14:57:36Z</time>
				<extensions>
					<speed>0.5</speed>
				</extensions>
			</trkpt>
			<trkpt lat="53.25682484" lon="-8.9245313">
				<ele>67.0</ele>
				<time>2014-08-17T14:57:37Z</time>
				<extensions>
					<speed>0.0</speed>
				</extensions>
			</trkpt>
			<trkpt lat="53.25682105" lon="-8.92453191">
				<ele>67.0</ele>
				<time>2014-08-17T14:57:38Z</time>
				<extensions>
					<speed>0.0</speed>
				</extensions>
			</trkpt>
			<trkpt lat="53.25682017" lon="-8.92453356">
				<ele>68.0</ele>
				<time>2014-08-17T14:57:39Z</time>
				<extensions>
					<speed>0.0</speed>
				</extensions>
			</trkpt>
			<trkpt lat="53.25682166" lon="-8.92453085">
				<ele>67.0</ele>
				<time>2014-08-17T14:57:40Z</time>
				<extensions>
					<speed>0.0</speed>
				</extensions>
			</trkpt>
			<trkpt lat="53.25681971" lon="-8.92452983">
				<ele>68.0</ele>
				<time>2014-08-17T14:57:41Z</time>
				<extensions>
					<speed>0.0</speed>
				</extensions>
			</trkpt>
			<trkpt lat="53.25682153" lon="-8.92453293">
				<ele>67.0</ele>
				<time>2014-08-17T14:57:42Z</time>
				<extensions>
					<speed>0.0</speed>
				</extensions>
			</trkpt>
			<trkpt lat="53.25682237" lon="-8.92453584">
				<ele>67.0</ele>
				<time>2014-08-17T14:57:43Z</time>
				<extensions>
					<speed>0.0</speed>
				</extensions>
			</trkpt>
			<trkpt lat="53.25682225" lon="-8.92453895">
				<ele>66.0</ele>
				<time>2014-08-17T14:57:44Z</time>
				<extensions>
					<speed>0.0</speed>
				</extensions>
			</trkpt>
			<trkpt lat="53.25682316" lon="-8.92453966">
				<ele>66.0</ele>
				<time>2014-08-17T14:57:45Z</time>
				<extensions>
					<speed>0.0</speed>
				</extensions>
			</trkpt>
			<trkpt lat="53.25682446" lon="-8.92453646">
				<ele>66.0</ele>
				<time>2014-08-17T14:57:46Z</time>
				<extensions>
					<speed>1.25</speed>
				</extensions>
			</trkpt>
			<trkpt lat="53.2568439" lon="-8.92450385">
				<ele>65.0</ele>
				<time>2014-08-17T14:57:47Z</time>
				<extensions>
					<speed>2.5</speed>
				</extensions>
			</trkpt>
			<trkpt lat="53.25686515" lon="-8.92446009">
				<ele>65.0</ele>
				<time>2014-08-17T14:57:48Z</time>
				<extensions>
					<speed>3.25</speed>
				</extensions>
			</trkpt>
			<trkpt lat="53.25688367" lon="-8.92442438">
				<ele>66.0</ele>
				<time>2014-08-17T14:57:49Z</time>
				<extensions>
					<speed>3.25</speed>
				</extensions>
			</trkpt>
			<trkpt lat="53.25689497" lon="-8.92438648">
				<ele>64.0</ele>
				<time>2014-08-17T14:57:50Z</time>
				<extensions>
					<speed>3.0</speed>
				</extensions>
			</trkpt>
			<trkpt lat="53.25690015" lon="-8.92435544">
				<ele>64.0</ele>
				<time>2014-08-17T14:57:51Z</time>
				<extensions>
					<speed>2.0</speed>
				</extensions>
			</trkpt>
			<trkpt lat="53.25690218" lon="-8.924338">
				<ele>64.0</ele>
				<time>2014-08-17T14:57:52Z</time>
				<extensions>
					<speed>1.75</speed>
				</extensions>
			</trkpt>
			<trkpt lat="53.25689649" lon="-8.92429508">
				<ele>65.0</ele>
				<time>2014-08-17T14:57:53Z</time>
				<extensions>
					<speed>1.75</speed>
				</extensions>
			</trkpt>
			<trkpt lat="53.25690195" lon="-8.92426982">
				<ele>66.0</ele>
				<time>2014-08-17T14:57:54Z</time>
				<extensions>
					<speed>2.0</speed>
				</extensions>
			</trkpt>
			<trkpt lat="53.25690821" lon="-8.9242518">
				<ele>65.0</ele>
				<time>2014-08-17T14:57:55Z</time>
				<extensions>
					<speed>2.0</speed>
				</extensions>
			</trkpt>
			<trkpt lat="53.25692009" lon="-8.9242418">
				<ele>65.0</ele>
				<time>2014-08-17T14:57:56Z</time>
				<extensions>
					<speed>1.5</speed>
				</extensions>
			</trkpt>
			<trkpt lat="53.25693461" lon="-8.92423774">
				<ele>65.0</ele>
				<time>2014-08-17T14:57:57Z</time>
				<extensions>
					<speed>1.25</speed>
				</extensions>
			</trkpt>
			<trkpt lat="53.25694026" lon="-8.92423765">
				<ele>65.0</ele>
				<time>2014-08-17T14:57:58Z</time>
				<extensions>
					<speed>0.5</speed>
				</extensions>
			</trkpt>
			<trkpt lat="53.25694201" lon="-8.92423495">
				<ele>65.0</ele>
				<time>2014-08-17T14:57:59Z</time>
				<extensions>
					<speed>0.0</speed>
				</extensions>
			</trkpt>
			<trkpt lat="53.25694078" lon="-8.92423635">
				<ele>65.0</ele>
				<time>2014-08-17T14:58:00Z</time>
				<extensions>
					<speed>0.0</speed>
				</extensions>
			</trkpt>
			<trkpt lat="53.25694199" lon="-8.92423511">
				<ele>65.0</ele>
				<time>2014-08-17T14:58:01Z</time>
				<extensions>
					<speed>0.0</speed>
				</extensions>
			</trkpt>
			<trkpt lat="53.25694188" lon="-8.92424059">
				<ele>64.0</ele>
				<time>2014-08-17T14:58:02Z</time>
				<extensions>
					<speed>0.0</speed>
				</extensions>
			</trkpt>
			<trkpt lat="53.25693966" lon="-8.92424016">
				<ele>64.0</ele>
				<time>2014-08-17T14:58:03Z</time>
				<extensions>
					<speed>0.0</speed>
				</extensions>
			</trkpt>
			<trkpt lat="53.25693989" lon="-8.92423939">
				<ele>63.0</ele>
				<time>2014-08-17T14:58:04Z</time>
				<extensions>
					<speed>0.0</speed>
				</extensions>
			</trkpt>
			<trkpt lat="53.25694084" lon="-8.92424109">
				<ele>63.0</ele>
				<time>2014-08-17T14:58:05Z</time>
				<extensions>
					<speed>0.0</speed>
				</extensions>
			</trkpt>
			<trkpt lat="53.2569423" lon="-8.92423915">
				<ele>63.0</ele>
				<time>2014-08-17T14:58:06Z</time>
				<extensions>
					<speed>0.0</speed>
				</extensions>
			</trkpt>
			<trkpt lat="53.25694364" lon="-8.92423533">
				<ele>63.0</ele>
				<time>2014-08-17T14:58:07Z</time>
				<extensions>
					<speed>0.0</speed>
				</extensions>
			</trkpt>
			<trkpt lat="53.2569467" lon="-8.92423365">
				<ele>63.0</ele>
				<time>2014-08-17T14:58:08Z</time>
				<extensions>
					<speed>0.0</speed>
				</extensions>
			</trkpt>
			<trkpt lat="53.25694605" lon="-8.92423431">
				<ele>63.0</ele>
				<time>2014-08-17T14:58:09Z</time>
				<extensions>
					<speed>0.0</speed>
				</extensions>
			</trkpt>
			<trkpt lat="53.25694586" lon="-8.92423324">
				<ele>63.0</ele>
				<time>2014-08-17T14:58:10Z</time>
				<extensions>
					<speed>0.0</speed>
				</extensions>
			</trkpt>
			<trkpt lat="53.25694568" lon="-8.92423332">
				<ele>63.0</ele>
				<time>2014-08-17T14:58:11Z</time>
				<extensions>
					<speed>0.0</speed>
				</extensions>
			</trkpt>
			<trkpt lat="53.25694566" lon="-8.92423325">
				<ele>63.0</ele>
				<time>2014-08-17T14:58:12Z</time>
				<extensions>
					<speed>0.0</speed>
				</extensions>
			</trkpt>
			<trkpt lat="53.25694567" lon="-8.92423346">
				<ele>63.0</ele>
				<time>2014-08-17T14:58:13Z</time>
				<extensions>
					<speed>0.0</speed>
				</extensions>
			</trkpt>
			<trkpt lat="53.25694566" lon="-8.92423343">
				<ele>63.0</ele>
				<time>2014-08-17T14:58:14Z</time>
				<extensions>
					<speed>0.0</speed>
				</extensions>
			</trkpt>
			<trkpt lat="53.25694561" lon="-8.92423342">
				<ele>63.0</ele>
				<time>2014-08-17T14:58:15Z</time>
				<extensions>
					<speed>0.0</speed>
				</extensions>
			</trkpt>
			<trkpt lat="53.25694543" lon="-8.92423402">
				<ele>63.0</ele>
				<time>2014-08-17T14:58:16Z</time>
				<extensions>
					<speed>0.25</speed>
				</extensions>
			</trkpt>
			<trkpt lat="53.25694651" lon="-8.92423701">
				<ele>63.0</ele>
				<time>2014-08-17T14:58:17Z</time>
				<extensions>
					<speed>0.0</speed>
				</extensions>
			</trkpt>
			<trkpt lat="53.25694273" lon="-8.92423313">
				<ele>64.0</ele>
				<time>2014-08-17T14:58:18Z</time>
				<extensions>
					<speed>0.0</speed>
				</extensions>
			</trkpt>
			<trkpt lat="53.25694185" lon="-8.92423373">
				<ele>64.0</ele>
				<time>2014-08-17T14:58:19Z</time>
				<extensions>
					<speed>0.75</speed>
				</extensions>
			</trkpt>
			<trkpt lat="53.25693359" lon="-8.92423791">
				<ele>64.0</ele>
				<time>2014-08-17T14:58:20Z</time>
				<extensions>
					<speed>0.5</speed>
				</extensions>
			</trkpt>
			<trkpt lat="53.25691738" lon="-8.92424786">
				<ele>62.0</ele>
				<time>2014-08-17T14:58:21Z</time>
				<extensions>
					<speed>0.75</speed>
				</extensions>
			</trkpt>
			<trkpt lat="53.25691065" lon="-8.92425026">
				<ele>62.0</ele>
				<time>2014-08-17T14:58:22Z</time>
				<extensions>
					<speed>0.5</speed>
				</extensions>
			</trkpt>
			<trkpt lat="53.25690723" lon="-8.92424503">
				<ele>62.0</ele>
				<time>2014-08-17T14:58:23Z</time>
				<extensions>
					<speed>0.0</speed>
				</extensions>
			</trkpt>
			<trkpt lat="53.25690636" lon="-8.92424248">
				<ele>62.0</ele>
				<time>2014-08-17T14:58:24Z</time>
				<extensions>
					<speed>0.0</speed>
				</extensions>
			</trkpt>
			<trkpt lat="53.25690555" lon="-8.92424602">
				<ele>63.0</ele>
				<time>2014-08-17T14:58:25Z</time>
				<extensions>
					<speed>0.0</speed>
				</extensions>
			</trkpt>
			<trkpt lat="53.25690295" lon="-8.92424795">
				<ele>62.0</ele>
				<time>2014-08-17T14:58:26Z</time>
				<extensions>
					<speed>0.0</speed>
				</extensions>
			</trkpt>
			<trkpt lat="53.25690512" lon="-8.92424906">
				<ele>63.0</ele>
				<time>2014-08-17T14:58:27Z</time>
				<extensions>
					<speed>0.0</speed>
				</extensions>
			</trkpt>
			<trkpt lat="53.25690554" lon="-8.9242506">
				<ele>63.0</ele>
				<time>2014-08-17T14:58:28Z</time>
				<extensions>
					<speed>0.75</speed>
				</extensions>
			</trkpt>
			<trkpt lat="53.25690011" lon="-8.92427264">
				<ele>62.0</ele>
				<time>2014-08-17T14:58:29Z</time>
				<extensions>
					<speed>2.0</speed>
				</extensions>
			</trkpt>
			<trkpt lat="53.25689885" lon="-8.92430545">
				<ele>62.0</ele>
				<time>2014-08-17T14:58:30Z</time>
				<extensions>
					<speed>2.5</speed>
				</extensions>
			</trkpt>
			<trkpt lat="53.25689314" lon="-8.92434072">
				<ele>62.0</ele>
				<time>2014-08-17T14:58:31Z</time>
				<extensions>
					<speed>2.25</speed>
				</extensions>
			</trkpt>
			<trkpt lat="53.25687522" lon="-8.9243841">
				<ele>61.0</ele>
				<time>2014-08-17T14:58:32Z</time>
				<extensions>
					<speed>3.25</speed>
				</extensions>
			</trkpt>
			<trkpt lat="53.25686026" lon="-8.92442697">
				<ele>61.0</ele>
				<time>2014-08-17T14:58:33Z</time>
				<extensions>
					<speed>3.25</speed>
				</extensions>
			</trkpt>
			<trkpt lat="53.25684164" lon="-8.92447109">
				<ele>61.0</ele>
				<time>2014-08-17T14:58:34Z</time>
				<extensions>
					<speed>3.75</speed>
				</extensions>
			</trkpt>
			<trkpt lat="53.25681561" lon="-8.92450799">
				<ele>60.0</ele>
				<time>2014-08-17T14:58:35Z</time>
				<extensions>
					<speed>3.5</speed>
				</extensions>
			</trkpt>
			<trkpt lat="53.25678736" lon="-8.92453792">
				<ele>60.0</ele>
				<time>2014-08-17T14:58:36Z</time>
				<extensions>
					<speed>3.75</speed>
				</extensions>
			</trkpt>
			<trkpt lat="53.25675533" lon="-8.9245562">
				<ele>60.0</ele>
				<time>2014-08-17T14:58:37Z</time>
				<extensions>
					<speed>3.5</speed>
				</extensions>
			</trkpt>
			<trkpt lat="53.25672165" lon="-8.92455672">
				<ele>60.0</ele>
				<time>2014-08-17T14:58:38Z</time>
				<extensions>
					<speed>3.25</speed>
				</extensions>
			</trkpt>
			<trkpt lat="53.25669408" lon="-8.924532">
				<ele>59.0</ele>
				<time>2014-08-17T14:58:39Z</time>
				<extensions>
					<speed>3.0</speed>
				</extensions>
			</trkpt>
			<trkpt lat="53.25667579" lon="-8.92451182">
				<ele>60.0</ele>
				<time>2014-08-17T14:58:40Z</time>
				<extensions>
					<speed>2.0</speed>
				</extensions>
			</trkpt>
			<trkpt lat="53.25666635" lon="-8.92450259">
				<ele>60.0</ele>
				<time>2014-08-17T14:58:41Z</time>
				<extensions>
					<speed>1.25</speed>
				</extensions>
			</trkpt>
			<trkpt lat="53.25666102" lon="-8.92449856">
				<ele>60.0</ele>
				<time>2014-08-17T14:58:42Z</time>
				<extensions>
					<speed>0.5</speed>
				</extensions>
			</trkpt>
			<trkpt lat="53.25665881" lon="-8.92449764">
				<ele>60.0</ele>
				<time>2014-08-17T14:58:43Z</time>
				<extensions>
					<speed>0.0</speed>
				</extensions>
			</trkpt>
			<trkpt lat="53.25665947" lon="-8.92449908">
				<ele>60.0</ele>
				<time>2014-08-17T14:58:44Z</time>
				<extensions>
					<speed>0.0</speed>
				</extensions>
			</trkpt>
			<trkpt lat="53.2566605" lon="-8.92450216">
				<ele>60.0</ele>
				<time>2014-08-17T14:58:45Z</time>
				<extensions>
					<speed>0.0</speed>
				</extensions>
			</trkpt>
			<trkpt lat="53.25666212" lon="-8.92450311">
				<ele>60.0</ele>
				<time>2014-08-17T14:58:46Z</time>
				<extensions>
					<speed>0.0</speed>
				</extensions>
			</trkpt>
			<trkpt lat="53.25666212" lon="-8.92450311">
				<ele>60.0</ele>
				<time>2014-08-17T14:58:47Z</time>
				<extensions>
					<speed>0.0</speed>
				</extensions>
			</trkpt>
			<trkpt lat="53.25666486" lon="-8.92450498">
				<ele>60.0</ele>
				<time>2014-08-17T14:58:48Z</time>
				<extensions>
					<speed>0.0</speed>
				</extensions>
			</trkpt>
			<trkpt lat="53.25666551" lon="-8.92450494">
				<ele>60.0</ele>
				<time>2014-08-17T14:58:49Z</time>
				<extensions>
					<speed>0.0</speed>
				</extensions>
			</trkpt>
			<trkpt lat="53.25666551" lon="-8.92450494">
				<ele>60.0</ele>
				<time>2014-08-17T14:58:50Z</time>
				<extensions>
					<speed>0.0</speed>
				</extensions>
			</trkpt>
			<trkpt lat="53.25666801" lon="-8.92450798">
				<ele>60.0</ele>
				<time>2014-08-17T14:58:51Z</time>
				<extensions>
					<speed>0.0</speed>
				</extensions>
			</trkpt>
			<trkpt lat="53.25666896" lon="-8.9245069">
				<ele>60.0</ele>
				<time>2014-08-17T14:58:52Z</time>
				<extensions>
					<speed>0.0</speed>
				</extensions>
			</trkpt>
			<trkpt lat="53.25666953" lon="-8.92450757">
				<ele>60.0</ele>
				<time>2014-08-17T14:58:53Z</time>
				<extensions>
					<speed>0.0</speed>
				</extensions>
			</trkpt>
			<trkpt lat="53.25666975" lon="-8.92450745">
				<ele>60.0</ele>
				<time>2014-08-17T14:58:54Z</time>
				<extensions>
					<speed>0.0</speed>
				</extensions>
			</trkpt>
			<trkpt lat="53.25666987" lon="-8.92450762">
				<ele>60.0</ele>
				<time>2014-08-17T14:58:55Z</time>
				<extensions>
					<speed>0.0</speed>
				</extensions>
			</trkpt>
			<trkpt lat="53.25666994" lon="-8.92450763">
				<ele>60.0</ele>
				<time>2014-08-17T14:58:56Z</time>
				<extensions>
					<speed>0.0</speed>
				</extensions>
			</trkpt>
			<trkpt lat="53.25666992" lon="-8.92450774">
				<ele>60.0</ele>
				<time>2014-08-17T14:58:57Z</time>
				<extensions>
					<speed>0.0</speed>
				</extensions>
			</trkpt>
			<trkpt lat="53.25666988" lon="-8.9245078">
				<ele>60.0</ele>
				<time>2014-08-17T14:58:58Z</time>
				<extensions>
					<speed>0.0</speed>
				</extensions>
			</trkpt>
			<trkpt lat="53.25666785" lon="-8.92450593">
				<ele>60.0</ele>
				<time>2014-08-17T14:58:59Z</time>
				<extensions>
					<speed>1.25</speed>
				</extensions>
			</trkpt>
			<trkpt lat="53.25665361" lon="-8.92448338">
				<ele>60.0</ele>
				<time>2014-08-17T14:59:00Z</time>
				<extensions>
					<speed>2.5</speed>
				</extensions>
			</trkpt>
			<trkpt lat="53.25662852" lon="-8.92446345">
				<ele>60.0</ele>
				<time>2014-08-17T14:59:01Z</time>
				<extensions>
					<speed>3.0</speed>
				</extensions>
			</trkpt>
			<trkpt lat="53.25660488" lon="-8.92443354">
				<ele>60.0</ele>
				<time>2014-08-17T14:59:02Z</time>
				<extensions>
					<speed>3.25</speed>
				</extensions>
			</trkpt>
			<trkpt lat="53.25657305" lon="-8.92440206">
				<ele>61.0</ele>
				<time>2014-08-17T14:59:03Z</time>
				<extensions>
					<speed>3.5</speed>
				</extensions>
			</trkpt>
			<trkpt lat="53.25654963" lon="-8.92437616">
				<ele>61.0</ele>
				<time>2014-08-17T14:59:04Z</time>
				<extensions>
					<speed>3.25</speed>
				</extensions>
			</trkpt>
			<trkpt lat="53.2565158" lon="-8.92435486">
				<ele>61.0</ele>
				<time>2014-08-17T14:59:05Z</time>
				<extensions>
					<speed>3.5</speed>
				</extensions>
			</trkpt>
			<trkpt lat="53.25648434" lon="-8.92433721">
				<ele>62.0</ele>
				<time>2014-08-17T14:59:06Z</time>
				<extensions>
					<speed>3.25</speed>
				</extensions>
			</trkpt>
			<trkpt lat="53.25646043" lon="-8.92431329">
				<ele>62.0</ele>
				<time>2014-08-17T14:59:07Z</time>
				<extensions>
					<speed>3.0</speed>
				</extensions>
			</trkpt>
			<trkpt lat="53.25643513" lon="-8.92429308">
				<ele>62.0</ele>
				<time>2014-08-17T14:59:08Z</time>
				<extensions>
					<speed>2.75</speed>
				</extensions>
			</trkpt>
			<trkpt lat="53.256415" lon="-8.92427266">
				<ele>63.0</ele>
				<time>2014-08-17T14:59:09Z</time>
				<extensions>
					<speed>2.75</speed>
				</extensions>
			</trkpt>
			<trkpt lat="53.25639911" lon="-8.92424465">
				<ele>62.0</ele>
				<time>2014-08-17T14:59:10Z</time>
				<extensions>
					<speed>2.75</speed>
				</extensions>
			</trkpt>
			<trkpt lat="53.2563806" lon="-8.92422448">
				<ele>63.0</ele>
				<time>2014-08-17T14:59:11Z</time>
				<extensions>
					<speed>2.75</speed>
				</extensions>
			</trkpt>
			<trkpt lat="53.25635888" lon="-8.92420372">
				<ele>63.0</ele>
				<time>2014-08-17T14:59:12Z</time>
				<extensions>
					<speed>2.25</speed>
				</extensions>
			</trkpt>
			<trkpt lat="53.25634534" lon="-8.92418544">
				<ele>63.0</ele>
				<time>2014-08-17T14:59:13Z</time>
				<extensions>
					<speed>1.5</speed>
				</extensions>
			</trkpt>
			<trkpt lat="53.25633979" lon="-8.92418072">
				<ele>63.0</ele>
				<time>2014-08-17T14:59:14Z</time>
				<extensions>
					<speed>0.75</speed>
				</extensions>
			</trkpt>
			<trkpt lat="53.2563368" lon="-8.92417997">
				<ele>63.0</ele>
				<time>2014-08-17T14:59:15Z</time>
				<extensions>
					<speed>0.0</speed>
				</extensions>
			</trkpt>
			<trkpt lat="53.2563367" lon="-8.92417958">
				<ele>63.0</ele>
				<time>2014-08-17T14:59:16Z</time>
				<extensions>
					<speed>0.0</speed>
				</extensions>
			</trkpt>
			<trkpt lat="53.25633576" lon="-8.92417818">
				<ele>63.0</ele>
				<time>2014-08-17T14:59:17Z</time>
				<extensions>
					<speed>0.0</speed>
				</extensions>
			</trkpt>
			<trkpt lat="53.25633494" lon="-8.92417862">
				<ele>63.0</ele>
				<time>2014-08-17T14:59:18Z</time>
				<extensions>
					<speed>0.0</speed>
				</extensions>
			</trkpt>
			<trkpt lat="53.25633416" lon="-8.92417782">
				<ele>63.0</ele>
				<time>2014-08-17T14:59:19Z</time>
				<extensions>
					<speed>0.0</speed>
				</extensions>
			</trkpt>
			<trkpt lat="53.25633521" lon="-8.9241752">
				<ele>63.0</ele>
				<time>2014-08-17T14:59:20Z</time>
				<extensions>
					<speed>0.0</speed>
				</extensions>
			</trkpt>
			<trkpt lat="53.25633418" lon="-8.92417345">
				<ele>63.0</ele>
				<time>2014-08-17T14:59:21Z</time>
				<extensions>
					<speed>0.0</speed>
				</extensions>
			</trkpt>
			<trkpt lat="53.25633406" lon="-8.92417333">
				<ele>63.0</ele>
				<time>2014-08-17T14:59:22Z</time>
				<extensions>
					<speed>0.0</speed>
				</extensions>
			</trkpt>
			<trkpt lat="53.25633274" lon="-8.92417516">
				<ele>63.0</ele>
				<time>2014-08-17T14:59:23Z</time>
				<extensions>
					<speed>0.0</speed>
				</extensions>
			</trkpt>
			<trkpt lat="53.25633137" lon="-8.92417627">
				<ele>64.0</ele>
				<time>2014-08-17T14:59:24Z</time>
				<extensions>
					<speed>0.0</speed>
				</extensions>
			</trkpt>
			<trkpt lat="53.25633275" lon="-8.92417183">
				<ele>64.0</ele>
				<time>2014-08-17T14:59:25Z</time>
				<extensions>
					<speed>0.0</speed>
				</extensions>
			</trkpt>
			<trkpt lat="53.25633275" lon="-8.92417183">
				<ele>64.0</ele>
				<time>2014-08-17T14:59:26Z</time>
				<extensions>
					<speed>0.0</speed>
				</extensions>
			</trkpt>
			<trkpt lat="53.25633121" lon="-8.9241723">
				<ele>64.0</ele>
				<time>2014-08-17T14:59:27Z</time>
				<extensions>
					<speed>0.0</speed>
				</extensions>
			</trkpt>
			<trkpt lat="53.25633109" lon="-8.92417248">
				<ele>64.0</ele>
				<time>2014-08-17T14:59:28Z</time>
				<extensions>
					<speed>0.0</speed>
				</extensions>
			</trkpt>
			<trkpt lat="53.25632965" lon="-8.92417111">
				<ele>64.0</ele>
				<time>2014-08-17T14:59:29Z</time>
				<extensions>
					<speed>1.25</speed>
				</extensions>
			</trkpt>
			<trkpt lat="53.25631654" lon="-8.92415548">
				<ele>64.0</ele>
				<time>2014-08-17T14:59:30Z</time>
				<extensions>
					<speed>1.75</speed>
				</extensions>
			</trkpt>
			<trkpt lat="53.25630386" lon="-8.92413722">
				<ele>64.0</ele>
				<time>2014-08-17T14:59:31Z</time>
				<extensions>
					<speed>1.75</speed>
				</extensions>
			</trkpt>
			<trkpt lat="53.25630144" lon="-8.92410208">
				<ele>64.0</ele>
				<time>2014-08-17T14:59:32Z</time>
				<extensions>
					<speed>2.0</speed>
				</extensions>
			</trkpt>
			<trkpt lat="53.25629888" lon="-8.92407338">
				<ele>64.0</ele>
				<time>2014-08-17T14:59:33Z</time>
				<extensions>
					<speed>2.0</speed>
				</extensions>
			</trkpt>
			<trkpt lat="53.25630579" lon="-8.92403544">
				<ele>64.0</ele>
				<time>2014-08-17T14:59:34Z</time>
				<extensions>
					<speed>2.5</speed>
				</extensions>
			</trkpt>
			<trkpt lat="53.25631672" lon="-8.92399736">
				<ele>65.0</ele>
				<time>2014-08-17T14:59:35Z</time>
				<extensions>
					<speed>2.25</speed>
				</extensions>
			</trkpt>
			<trkpt lat="53.25632979" lon="-8.92395556">
				<ele>65.0</ele>
				<time>2014-08-17T14:59:36Z</time>
				<extensions>
					<speed>2.5</speed>
				</extensions>
			</trkpt>
			<trkpt lat="53.25633716" lon="-8.92393473">
				<ele>65.0</ele>
				<time>2014-08-17T14:59:37Z</time>
				<extensions>
					<speed>2.5</speed>
				</extensions>
			</trkpt>
			<trkpt lat="53.25634428" lon="-8.92391173">
				<ele>64.0</ele>
				<time>2014-08-17T14:59:38Z</time>
				<extensions>
					<speed>2.25</speed>
				</extensions>
			</trkpt>
			<trkpt lat="53.25635069" lon="-8.92389167">
				<ele>64.0</ele>
				<time>2014-08-17T14:59:39Z</time>
				<extensions>
					<speed>1.5</speed>
				</extensions>
			</trkpt>
			<trkpt lat="53.25635484" lon="-8.92388318">
				<ele>64.0</ele>
				<time>2014-08-17T14:59:40Z</time>
				<extensions>
					<speed>1.0</speed>
				</extensions>
			</trkpt>
			<trkpt lat="53.25635641" lon="-8.92387946">
				<ele>64.0</ele>
				<time>2014-08-17T14:59:41Z</time>
				<extensions>
					<speed>0.25</speed>
				</extensions>
			</trkpt>
			<trkpt lat="53.25635663" lon="-8.92388099">
				<ele>64.0</ele>
				<time>2014-08-17T14:59:42Z</time>
				<extensions>
					<speed>0.0</speed>
				</extensions>
			</trkpt>
			<trkpt lat="53.25635727" lon="-8.92388287">
				<ele>65.0</ele>
				<time>2014-08-17T14:59:43Z</time>
				<extensions>
					<speed>0.0</speed>
				</extensions>
			</trkpt>
			<trkpt lat="53.25635702" lon="-8.92388242">
				<ele>65.0</ele>
				<time>2014-08-17T14:59:44Z</time>
				<extensions>
					<speed>0.0</speed>
				</extensions>
			</trkpt>
			<trkpt lat="53.25635756" lon="-8.92388441">
				<ele>65.0</ele>
				<time>2014-08-17T14:59:45Z</time>
				<extensions>
					<speed>0.0</speed>
				</extensions>
			</trkpt>
			<trkpt lat="53.25635735" lon="-8.92388451">
				<ele>65.0</ele>
				<time>2014-08-17T14:59:46Z</time>
				<extensions>
					<speed>0.0</speed>
				</extensions>
			</trkpt>
			<trkpt lat="53.25635713" lon="-8.92388271">
				<ele>65.0</ele>
				<time>2014-08-17T14:59:47Z</time>
				<extensions>
					<speed>0.0</speed>
				</extensions>
			</trkpt>
			<trkpt lat="53.25635796" lon="-8.92388342">
				<ele>65.0</ele>
				<time>2014-08-17T14:59:48Z</time>
				<extensions>
					<speed>0.0</speed>
				</extensions>
			</trkpt>
			<trkpt lat="53.25635645" lon="-8.92388484">
				<ele>65.0</ele>
				<time>2014-08-17T14:59:49Z</time>
				<extensions>
					<speed>0.0</speed>
				</extensions>
			</trkpt>
			<trkpt lat="53.2563562" lon="-8.92388799">
				<ele>64.0</ele>
				<time>2014-08-17T14:59:50Z</time>
				<extensions>
					<speed>0.0</speed>
				</extensions>
			</trkpt>
			<trkpt lat="53.25635624" lon="-8.92389041">
				<ele>64.0</ele>
				<time>2014-08-17T14:59:51Z</time>
				<extensions>
					<speed>0.0</speed>
				</extensions>
			</trkpt>
			<trkpt lat="53.25635728" lon="-8.92388712">
				<ele>64.0</ele>
				<time>2014-08-17T14:59:52Z</time>
				<extensions>
					<speed>0.5</speed>
				</extensions>
			</trkpt>
			<trkpt lat="53.2563622" lon="-8.92386649">
				<ele>64.0</ele>
				<time>2014-08-17T14:59:53Z</time>
				<extensions>
					<speed>1.5</speed>
				</extensions>
			</trkpt>
			<trkpt lat="53.25637212" lon="-8.92383528">
				<ele>64.0</ele>
				<time>2014-08-17T14:59:54Z</time>
				<extensions>
					<speed>2.25</speed>
				</extensions>
			</trkpt>
			<trkpt lat="53.25637974" lon="-8.92379825">
				<ele>64.0</ele>
				<time>2014-08-17T14:59:55Z</time>
				<extensions>
					<speed>2.5</speed>
				</extensions>
			</trkpt>
			<trkpt lat="53.25638956" lon="-8.92376163">
				<ele>64.0</ele>
				<time>2014-08-17T14:59:56Z</time>
				<extensions>
					<speed>2.5</speed>
				</extensions>
			</trkpt>
			<trkpt lat="53.2563966" lon="-8.92371604">
				<ele>64.0</ele>
				<time>2014-08-17T14:59:57Z</time>
				<extensions>
					<speed>2.75</speed>
				</extensions>
			</trkpt>
			<trkpt lat="53.25640592" lon="-8.92366705">
				<ele>65.0</ele>
				<time>2014-08-17T14:59:58Z</time>
				<extensions>
					<speed>3.25</speed>
				</extensions>
			</trkpt>
			<trkpt lat="53.25642048" lon="-8.92361512">
				<ele>65.0</ele>
				<time>2014-08-17T14:59:59Z</time>
				<extensions>
					<speed>3.5</speed>
				</extensions>
			</trkpt>
			<trkpt lat="53.25643854" lon="-8.9235735">
				<ele>65.0</ele>
				<time>2014-08-17T15:00:00Z</time>
				<extensions>
					<speed>3.25</speed>
				</extensions>
			</trkpt>
			<trkpt lat="53.25645712" lon="-8.92353896">
				<ele>65.0</ele>
				<time>2014-08-17T15:00:01Z</time>
				<extensions>
					<speed>3.25</speed>
				</extensions>
			</trkpt>
			<trkpt lat="53.25647582" lon="-8.92350893">
				<ele>66.0</ele>
				<time>2014-08-17T15:00:02Z</time>
				<extensions>
					<speed>2.75</speed>
				</extensions>
			</trkpt>
			<trkpt lat="53.25649005" lon="-8.92349062">
				<ele>65.0</ele>
				<time>2014-08-17T15:00:03Z</time>
				<extensions>
					<speed>1.75</speed>
				</extensions>
			</trkpt>
			<trkpt lat="53.25649759" lon="-8.92346703">
				<ele>65.0</ele>
				<time>2014-08-17T15:00:04Z</time>
				<extensions>
					<speed>1.25</speed>
				</extensions>
			</trkpt>
			<trkpt lat="53.25649697" lon="-8.92345931">
				<ele>66.0</ele>
				<time>2014-08-17T15:00:05Z</time>
				<extensions>
					<speed>0.25</speed>
				</extensions>
			</trkpt>
			<trkpt lat="53.25649613" lon="-8.92345505">
				<ele>66.0</ele>
				<time>2014-08-17T15:00:06Z</time>
				<extensions>
					<speed>0.0</speed>
				</extensions>
			</trkpt>
			<trkpt lat="53.25649648" lon="-8.92345485">
				<ele>66.0</ele>
				<time>2014-08-17T15:00:07Z</time>
				<extensions>
					<speed>0.25</speed>
				</extensions>
			</trkpt>
			<trkpt lat="53.25649725" lon="-8.92345496">
				<ele>66.0</ele>
				<time>2014-08-17T15:00:08Z</time>
				<extensions>
					<speed>0.0</speed>
				</extensions>
			</trkpt>
			<trkpt lat="53.25649636" lon="-8.92345363">
				<ele>66.0</ele>
				<time>2014-08-17T15:00:09Z</time>
				<extensions>
					<speed>0.0</speed>
				</extensions>
			</trkpt>
			<trkpt lat="53.25649556" lon="-8.9234519">
				<ele>66.0</ele>
				<time>2014-08-17T15:00:10Z</time>
				<extensions>
					<speed>0.0</speed>
				</extensions>
			</trkpt>
			<trkpt lat="53.25649695" lon="-8.92345055">
				<ele>66.0</ele>
				<time>2014-08-17T15:00:11Z</time>
				<extensions>
					<speed>0.0</speed>
				</extensions>
			</trkpt>
			<trkpt lat="53.25649695" lon="-8.92345055">
				<ele>66.0</ele>
				<time>2014-08-17T15:00:12Z</time>
				<extensions>
					<speed>0.0</speed>
				</extensions>
			</trkpt>
			<trkpt lat="53.25649695" lon="-8.92345055">
				<ele>66.0</ele>
				<time>2014-08-17T15:00:13Z</time>
				<extensions>
					<speed>0.0</speed>
				</extensions>
			</trkpt>
			<trkpt lat="53.25649871" lon="-8.92345187">
				<ele>67.0</ele>
				<time>2014-08-17T15:00:14Z</time>
				<extensions>
					<speed>0.0</speed>
				</extensions>
			</trkpt>
			<trkpt lat="53.25649981" lon="-8.92344843">
				<ele>67.0</ele>
				<time>2014-08-17T15:00:15Z</time>
				<extensions>
					<speed>0.0</speed>
				</extensions>
			</trkpt>
			<trkpt lat="53.25650002" lon="-8.92344614">
				<ele>67.0</ele>
				<time>2014-08-17T15:00:16Z</time>
				<extensions>
					<speed>0.0</speed>
				</extensions>
			</trkpt>
			<trkpt lat="53.25650088" lon="-8.92344563">
				<ele>67.0</ele>
				<time>2014-08-17T15:00:17Z</time>
				<extensions>
					<speed>0.0</speed>
				</extensions>
			</trkpt>
			<trkpt lat="53.25650064" lon="-8.92344628">
				<ele>67.0</ele>
				<time>2014-08-17T15:00:18Z</time>
				<extensions>
					<speed>0.0</speed>
				</extensions>
			</trkpt>
			<trkpt lat="53.25650048" lon="-8.92344526">
				<ele>67.0</ele>
				<time>2014-08-17T15:00:19Z</time>
				<extensions>
					<speed>0.0</speed>
				</extensions>
			</trkpt>
			<trkpt lat="53.25650006" lon="-8.92344585">
				<ele>67.0</ele>
				<time>2014-08-17T15:00:20Z</time>
				<extensions>
					<speed>0.0</speed>
				</extensions>
			</trkpt>
			<trkpt lat="53.25649987" lon="-8.92344607">
				<ele>67.0</ele>
				<time>2014-08-17T15:00:21Z</time>
				<extensions>
					<speed>0.0</speed>
				</extensions>
			</trkpt>
			<trkpt lat="53.25649998" lon="-8.92344602">
				<ele>67.0</ele>
				<time>2014-08-17T15:00:22Z</time>
				<extensions>
					<speed>0.0</speed>
				</extensions>
			</trkpt>
			<trkpt lat="53.25649998" lon="-8.92344591">
				<ele>67.0</ele>
				<time>2014-08-17T15:00:23Z</time>
				<extensions>
					<speed>0.0</speed>
				</extensions>
			</trkpt>
			<trkpt lat="53.25650001" lon="-8.92344591">
				<ele>67.0</ele>
				<time>2014-08-17T15:00:24Z</time>
				<extensions>
					<speed>0.0</speed>
				</extensions>
			</trkpt>
			<trkpt lat="53.25650004" lon="-8.92344589">
				<ele>67.0</ele>
				<time>2014-08-17T15:00:25Z</time>
				<extensions>
					<speed>0.0</speed>
				</extensions>
			</trkpt>
			<trkpt lat="53.2565" lon="-8.92344589">
				<ele>67.0</ele>
				<time>2014-08-17T15:00:26Z</time>
				<extensions>
					<speed>0.0</speed>
				</extensions>
			</trkpt>
			<trkpt lat="53.25650075" lon="-8.9234437">
				<ele>67.0</ele>
				<time>2014-08-17T15:00:27Z</time>
				<extensions>
					<speed>0.75</speed>
				</extensions>
			</trkpt>
			<trkpt lat="53.25650659" lon="-8.92343015">
				<ele>66.0</ele>
				<time>2014-08-17T15:00:28Z</time>
				<extensions>
					<speed>1.5</speed>
				</extensions>
			</trkpt>
			<trkpt lat="53.25650862" lon="-8.92341494">
				<ele>65.0</ele>
				<time>2014-08-17T15:00:29Z</time>
				<extensions>
					<speed>1.75</speed>
				</extensions>
			</trkpt>
			<trkpt lat="53.25651569" lon="-8.9233936">
				<ele>66.0</ele>
				<time>2014-08-17T15:00:30Z</time>
				<extensions>
					<speed>1.75</speed>
				</extensions>
			</trkpt>
			<trkpt lat="53.25652172" lon="-8.92336048">
				<ele>66.0</ele>
				<time>2014-08-17T15:00:31Z</time>
				<extensions>
					<speed>1.75</speed>
				</extensions>
			</trkpt>
			<trkpt lat="53.2565272" lon="-8.92331889">
				<ele>66.0</ele>
				<time>2014-08-17T15:00:32Z</time>
				<extensions>
					<speed>2.5</speed>
				</extensions>
			</trkpt>
			<trkpt lat="53.2565369" lon="-8.92328339">
				<ele>66.0</ele>
				<time>2014-08-17T15:00:33Z</time>
				<extensions>
					<speed>2.25</speed>
				</extensions>
			</trkpt>
			<trkpt lat="53.25654473" lon="-8.92324083">
				<ele>66.0</ele>
				<time>2014-08-17T15:00:34Z</time>
				<extensions>
					<speed>2.5</speed>
				</extensions>
			</trkpt>
			<trkpt lat="53.25656025" lon="-8.92320678">
				<ele>66.0</ele>
				<time>2014-08-17T15:00:35Z</time>
				<extensions>
					<speed>2.5</speed>
				</extensions>
			</trkpt>
			<trkpt lat="53.25656234" lon="-8.92317174">
				<ele>66.0</ele>
				<time>2014-08-17T15:00:36Z</time>
				<extensions>
					<speed>2.5</speed>
				</extensions>
			</trkpt>
			<trkpt lat="53.25657428" lon="-8.92313574">
				<ele>66.0</ele>
				<time>2014-08-17T15:00:37Z</time>
				<extensions>
					<speed>2.25</speed>
				</extensions>
			</trkpt>
			<trkpt lat="53.25658782" lon="-8.92309982">
				<ele>67.0</ele>
				<time>2014-08-17T15:00:38Z</time>
				<extensions>
					<speed>2.75</speed>
				</extensions>
			</trkpt>
			<trkpt lat="53.25659891" lon="-8.9230633">
				<ele>67.0</ele>
				<time>2014-08-17T15:00:39Z</time>
				<extensions>
					<speed>3.0</speed>
				</extensions>
			</trkpt>
			<trkpt lat="53.25661671" lon="-8.92303122">
				<ele>66.0</ele>
				<time>2014-08-17T15:00:40Z</time>
				<extensions>
					<speed>3.0</speed>
				</extensions>
			</trkpt>
			<trkpt lat="53.25662507" lon="-8.9230027">
				<ele>66.0</ele>
				<time>2014-08-17T15:00:41Z</time>
				<extensions>
					<speed>2.5</speed>
				</extensions>
			</trkpt>
			<trkpt lat="53.25663554" lon="-8.92297447">
				<ele>66.0</ele>
				<time>2014-08-17T15:00:42Z</time>
				<extensions>
					<speed>2.25</speed>
				</extensions>
			</trkpt>
			<trkpt lat="53.25664329" lon="-8.92293832">
				<ele>66.0</ele>
				<time>2014-08-17T15:00:43Z</time>
				<extensions>
					<speed>2.75</speed>
				</extensions>
			</trkpt>
			<trkpt lat="53.25665185" lon="-8.9229044">
				<ele>65.0</ele>
				<time>2014-08-17T15:00:44Z</time>
				<extensions>
					<speed>3.0</speed>
				</extensions>
			</trkpt>
			<trkpt lat="53.25666277" lon="-8.92286331">
				<ele>65.0</ele>
				<time>2014-08-17T15:00:45Z</time>
				<extensions>
					<speed>3.0</speed>
				</extensions>
			</trkpt>
			<trkpt lat="53.25668022" lon="-8.92282346">
				<ele>66.0</ele>
				<time>2014-08-17T15:00:46Z</time>
				<extensions>
					<speed>3.25</speed>
				</extensions>
			</trkpt>
			<trkpt lat="53.25669519" lon="-8.92277883">
				<ele>66.0</ele>
				<time>2014-08-17T15:00:47Z</time>
				<extensions>
					<speed>3.0</speed>
				</extensions>
			</trkpt>
			<trkpt lat="53.25670425" lon="-8.92274089">
				<ele>65.0</ele>
				<time>2014-08-17T15:00:48Z</time>
				<extensions>
					<speed>2.75</speed>
				</extensions>
			</trkpt>
			<trkpt lat="53.25671284" lon="-8.92270987">
				<ele>65.0</ele>
				<time>2014-08-17T15:00:49Z</time>
				<extensions>
					<speed>2.5</speed>
				</extensions>
			</trkpt>
			<trkpt lat="53.25671416" lon="-8.92268187">
				<ele>65.0</ele>
				<time>2014-08-17T15:00:50Z</time>
				<extensions>
					<speed>2.5</speed>
				</extensions>
			</trkpt>
			<trkpt lat="53.25672569" lon="-8.92265396">
				<ele>65.0</ele>
				<time>2014-08-17T15:00:51Z</time>
				<extensions>
					<speed>2.0</speed>
				</extensions>
			</trkpt>
			<trkpt lat="53.25673625" lon="-8.92263358">
				<ele>65.0</ele>
				<time>2014-08-17T15:00:52Z</time>
				<extensions>
					<speed>1.75</speed>
				</extensions>
			</trkpt>
			<trkpt lat="53.25674701" lon="-8.92261095">
				<ele>65.0</ele>
				<time>2014-08-17T15:00:53Z</time>
				<extensions>
					<speed>1.5</speed>
				</extensions>
			</trkpt>
			<trkpt lat="53.25675538" lon="-8.92259269">
				<ele>65.0</ele>
				<time>2014-08-17T15:00:54Z</time>
				<extensions>
					<speed>1.0</speed>
				</extensions>
			</trkpt>
			<trkpt lat="53.25675964" lon="-8.92259048">
				<ele>65.0</ele>
				<time>2014-08-17T15:00:55Z</time>
				<extensions>
					<speed>0.0</speed>
				</extensions>
			</trkpt>
			<trkpt lat="53.25676396" lon="-8.92258644">
				<ele>65.0</ele>
				<time>2014-08-17T15:00:56Z</time>
				<extensions>
					<speed>0.0</speed>
				</extensions>
			</trkpt>
			<trkpt lat="53.2567682" lon="-8.92258277">
				<ele>64.0</ele>
				<time>2014-08-17T15:00:57Z</time>
				<extensions>
					<speed>0.0</speed>
				</extensions>
			</trkpt>
			<trkpt lat="53.2567682" lon="-8.92258277">
				<ele>64.0</ele>
				<time>2014-08-17T15:00:58Z</time>
				<extensions>
					<speed>0.0</speed>
				</extensions>
			</trkpt>
			<trkpt lat="53.2567682" lon="-8.92258277">
				<ele>64.0</ele>
				<time>2014-08-17T15:00:59Z</time>
				<extensions>
					<speed>0.0</speed>
				</extensions>
			</trkpt>
			<trkpt lat="53.25676532" lon="-8.92258652">
				<ele>64.0</ele>
				<time>2014-08-17T15:01:00Z</time>
				<extensions>
					<speed>0.0</speed>
				</extensions>
			</trkpt>
			<trkpt lat="53.25676532" lon="-8.92258646">
				<ele>64.0</ele>
				<time>2014-08-17T15:01:01Z</time>
				<extensions>
					<speed>0.0</speed>
				</extensions>
			</trkpt>
			<trkpt lat="53.25677068" lon="-8.92259497">
				<ele>65.0</ele>
				<time>2014-08-17T15:01:02Z</time>
				<extensions>
					<speed>0.0</speed>
				</extensions>
			</trkpt>
			<trkpt lat="53.25677587" lon="-8.92258765">
				<ele>65.0</ele>
				<time>2014-08-17T15:01:03Z</time>
				<extensions>
					<speed>0.0</speed>
				</extensions>
			</trkpt>
			<trkpt lat="53.25678057" lon="-8.92258693">
				<ele>65.0</ele>
				<time>2014-08-17T15:01:04Z</time>
				<extensions>
					<speed>0.0</speed>
				</extensions>
			</trkpt>
			<trkpt lat="53.25677841" lon="-8.92258596">
				<ele>66.0</ele>
				<time>2014-08-17T15:01:05Z</time>
				<extensions>
					<speed>0.0</speed>
				</extensions>
			</trkpt>
			<trkpt lat="53.25677888" lon="-8.92258423">
				<ele>66.0</ele>
				<time>2014-08-17T15:01:06Z</time>
				<extensions>
					<speed>0.75</speed>
				</extensions>
			</trkpt>
			<trkpt lat="53.25678164" lon="-8.92258434">
				<ele>64.0</ele>
				<time>2014-08-17T15:01:07Z</time>
				<extensions>
					<speed>1.25</speed>
				</extensions>
			</trkpt>
			<trkpt lat="53.25678829" lon="-8.92256172">
				<ele>64.0</ele>
				<time>2014-08-17T15:01:08Z</time>
				<extensions>
					<speed>1.75</speed>
				</extensions>
			</trkpt>
			<trkpt lat="53.25679788" lon="-8.92253214">
				<ele>64.0</ele>
				<time>2014-08-17T15:01:09Z</time>
				<extensions>
					<speed>1.75</speed>
				</extensions>
			</trkpt>
			<trkpt lat="53.25680808" lon="-8.92250898">
				<ele>63.0</ele>
				<time>2014-08-17T15:01:10Z</time>
				<extensions>
					<speed>1.75</speed>
				</extensions>
			</trkpt>
			<trkpt lat="53.25681435" lon="-8.9224782">
				<ele>63.0</ele>
				<time>2014-08-17T15:01:11Z</time>
				<extensions>
					<speed>2.0</speed>
				</extensions>
			</trkpt>
			<trkpt lat="53.25682043" lon="-8.92245732">
				<ele>63.0</ele>
				<time>2014-08-17T15:01:12Z</time>
				<extensions>
					<speed>2.0</speed>
				</extensions>
			</trkpt>
			<trkpt lat="53.25683111" lon="-8.92243362">
				<ele>62.0</ele>
				<time>2014-08-17T15:01:13Z</time>
				<extensions>
					<speed>2.25</speed>
				</extensions>
			</trkpt>
			<trkpt lat="53.25684179" lon="-8.92240821">
				<ele>63.0</ele>
				<time>2014-08-17T15:01:14Z</time>
				<extensions>
					<speed>1.75</speed>
				</extensions>
			</trkpt>
			<trkpt lat="53.25685061" lon="-8.92239379">
				<ele>62.0</ele>
				<time>2014-08-17T15:01:15Z</time>
				<extensions>
					<speed>1.0</speed>
				</extensions>
			</trkpt>
			<trkpt lat="53.25685539" lon="-8.92238587">
				<ele>62.0</ele>
				<time>2014-08-17T15:01:16Z</time>
				<extensions>
					<speed>0.0</speed>
				</extensions>
			</trkpt>
			<trkpt lat="53.25685379" lon="-8.92238149">
				<ele>62.0</ele>
				<time>2014-08-17T15:01:17Z</time>
				<extensions>
					<speed>0.0</speed>
				</extensions>
			</trkpt>
			<trkpt lat="53.25685538" lon="-8.92238748">
				<ele>62.0</ele>
				<time>2014-08-17T15:01:18Z</time>
				<extensions>
					<speed>0.0</speed>
				</extensions>
			</trkpt>
			<trkpt lat="53.2568528" lon="-8.92238724">
				<ele>62.0</ele>
				<time>2014-08-17T15:01:19Z</time>
				<extensions>
					<speed>0.0</speed>
				</extensions>
			</trkpt>
			<trkpt lat="53.25685091" lon="-8.92238765">
				<ele>62.0</ele>
				<time>2014-08-17T15:01:20Z</time>
				<extensions>
					<speed>0.0</speed>
				</extensions>
			</trkpt>
			<trkpt lat="53.25684728" lon="-8.92239666">
				<ele>62.0</ele>
				<time>2014-08-17T15:01:21Z</time>
				<extensions>
					<speed>0.0</speed>
				</extensions>
			</trkpt>
			<trkpt lat="53.25684926" lon="-8.92239291">
				<ele>62.0</ele>
				<time>2014-08-17T15:01:22Z</time>
				<extensions>
					<speed>0.0</speed>
				</extensions>
			</trkpt>
			<trkpt lat="53.25684746" lon="-8.922392">
				<ele>62.0</ele>
				<time>2014-08-17T15:01:23Z</time>
				<extensions>
					<speed>0.0</speed>
				</extensions>
			</trkpt>
			<trkpt lat="53.25684886" lon="-8.92238727">
				<ele>62.0</ele>
				<time>2014-08-17T15:01:24Z</time>
				<extensions>
					<speed>1.75</speed>
				</extensions>
			</trkpt>
			<trkpt lat="53.25685589" lon="-8.92235506">
				<ele>62.0</ele>
				<time>2014-08-17T15:01:25Z</time>
				<extensions>
					<speed>2.75</speed>
				</extensions>
			</trkpt>
			<trkpt lat="53.25686716" lon="-8.92231456">
				<ele>62.0</ele>
				<time>2014-08-17T15:01:26Z</time>
				<extensions>
					<speed>2.5</speed>
				</extensions>
			</trkpt>
			<trkpt lat="53.2568754" lon="-8.92227485">
				<ele>62.0</ele>
				<time>2014-08-17T15:01:27Z</time>
				<extensions>
					<speed>2.25</speed>
				</extensions>
			</trkpt>
			<trkpt lat="53.25688547" lon="-8.92223545">
				<ele>62.0</ele>
				<time>2014-08-17T15:01:28Z</time>
				<extensions>
					<speed>1.75</speed>
				</extensions>
			</trkpt>
			<trkpt lat="53.25689477" lon="-8.92220962">
				<ele>63.0</ele>
				<time>2014-08-17T15:01:29Z</time>
				<extensions>
					<speed>1.5</speed>
				</extensions>
			</trkpt>
			<trkpt lat="53.25690127" lon="-8.92219413">
				<ele>62.0</ele>
				<time>2014-08-17T15:01:30Z</time>
				<extensions>
					<speed>0.75</speed>
				</extensions>
			</trkpt>
			<trkpt lat="53.25690659" lon="-8.9221839">
				<ele>63.0</ele>
				<time>2014-08-17T15:01:31Z</time>
				<extensions>
					<speed>0.0</speed>
				</extensions>
			</trkpt>
			<trkpt lat="53.25690737" lon="-8.92218106">
				<ele>64.0</ele>
				<time>2014-08-17T15:01:32Z</time>
				<extensions>
					<speed>0.0</speed>
				</extensions>
			</trkpt>
			<trkpt lat="53.25690899" lon="-8.92217942">
				<ele>64.0</ele>
				<time>2014-08-17T15:01:33Z</time>
				<extensions>
					<speed>0.0</speed>
				</extensions>
			</trkpt>
			<trkpt lat="53.25690485" lon="-8.92217706">
				<ele>64.0</ele>
				<time>2014-08-17T15:01:34Z</time>
				<extensions>
					<speed>0.0</speed>
				</extensions>
			</trkpt>
			<trkpt lat="53.25690544" lon="-8.92217691">
				<ele>64.0</ele>
				<time>2014-08-17T15:01:35Z</time>
				<extensions>
					<speed>0.0</speed>
				</extensions>
			</trkpt>
			<trkpt lat="53.25691006" lon="-8.92216975">
				<ele>64.0</ele>
				<time>2014-08-17T15:01:36Z</time>
				<extensions>
					<speed>0.0</speed>
				</extensions>
			</trkpt>
			<trkpt lat="53.25691004" lon="-8.92216714">
				<ele>64.0</ele>
				<time>2014-08-17T15:01:37Z</time>
				<extensions>
					<speed>0.0</speed>
				</extensions>
			</trkpt>
			<trkpt lat="53.2569097" lon="-8.92216829">
				<ele>64.0</ele>
				<time>2014-08-17T15:01:38Z</time>
				<extensions>
					<speed>0.0</speed>
				</extensions>
			</trkpt>
			<trkpt lat="53.25690822" lon="-8.92216874">
				<ele>65.0</ele>
				<time>2014-08-17T15:01:39Z</time>
				<extensions>
					<speed>0.0</speed>
				</extensions>
			</trkpt>
			<trkpt lat="53.25690848" lon="-8.9221693">
				<ele>65.0</ele>
				<time>2014-08-17T15:01:40Z</time>
				<extensions>
					<speed>0.0</speed>
				</extensions>
			</trkpt>
			<trkpt lat="53.25690798" lon="-8.92216983">
				<ele>65.0</ele>
				<time>2014-08-17T15:01:41Z</time>
				<extensions>
					<speed>0.0</speed>
				</extensions>
			</trkpt>
			<trkpt lat="53.25690836" lon="-8.92216903">
				<ele>65.0</ele>
				<time>2014-08-17T15:01:42Z</time>
				<extensions>
					<speed>0.0</speed>
				</extensions>
			</trkpt>
			<trkpt lat="53.25690852" lon="-8.92216916">
				<ele>65.0</ele>
				<time>2014-08-17T15:01:43Z</time>
				<extensions>
					<speed>0.0</speed>
				</extensions>
			</trkpt>
			<trkpt lat="53.25690854" lon="-8.92216907">
				<ele>65.0</ele>
				<time>2014-08-17T15:01:44Z</time>
				<extensions>
					<speed>0.0</speed>
				</extensions>
			</trkpt>
			<trkpt lat="53.25690856" lon="-8.9221691">
				<ele>65.0</ele>
				<time>2014-08-17T15:01:45Z</time>
				<extensions>
					<speed>0.0</speed>
				</extensions>
			</trkpt>
			<trkpt lat="53.25690857" lon="-8.92216907">
				<ele>65.0</ele>
				<time>2014-08-17T15:01:46Z</time>
				<extensions>
					<speed>0.0</speed>
				</extensions>
			</trkpt>
			<trkpt lat="53.25690856" lon="-8.92216912">
				<ele>65.0</ele>
				<time>2014-08-17T15:01:47Z</time>
				<extensions>
					<speed>0.0</speed>
				</extensions>
			</trkpt>
			<trkpt lat="53.25690768" lon="-8.9221719">
				<ele>65.0</ele>
				<time>2014-08-17T15:01:48Z</time>
				<extensions>
					<speed>1.25</speed>
				</extensions>
			</trkpt>
			<trkpt lat="53.2568998" lon="-8.92219257">
				<ele>65.0</ele>
				<time>2014-08-17T15:01:49Z</time>
				<extensions>
					<speed>1.75</speed>
				</extensions>
			</trkpt>
			<trkpt lat="53.2568919" lon="-8.92221669">
				<ele>65.0</ele>
				<time>2014-08-17T15:01:50Z</time>
				<extensions>
					<speed>1.75</speed>
				</extensions>
			</trkpt>
			<trkpt lat="53.25688664" lon="-8.92223905">
				<ele>65.0</ele>
				<time>2014-08-17T15:01:51Z</time>
				<extensions>
					<speed>1.5</speed>
				</extensions>
			</trkpt>
			<trkpt lat="53.25688932" lon="-8.92224402">
				<ele>66.0</ele>
				<time>2014-08-17T15:01:52Z</time>
				<extensions>
					<speed>1.0</speed>
				</extensions>
			</trkpt>
			<trkpt lat="53.25688737" lon="-8.92225567">
				<ele>65.0</ele>
				<time>2014-08-17T15:01:53Z</time>
				<extensions>
					<speed>0.5</speed>
				</extensions>
			</trkpt>
			<trkpt lat="53.2568897" lon="-8.92225811">
				<ele>65.0</ele>
				<time>2014-08-17T15:01:54Z</time>
				<extensions>
					<speed>0.75</speed>
				</extensions>
			</trkpt>
			<trkpt lat="53.25689096" lon="-8.92223725">
				<ele>66.0</ele>
				<time>2014-08-17T15:01:55Z</time>
				<extensions>
					<speed>1.5</speed>
				</extensions>
			</trkpt>
			<trkpt lat="53.25688673" lon="-8.92221476">
				<ele>67.0</ele>
				<time>2014-08-17T15:01:56Z</time>
				<extensions>
					<speed>2.0</speed>
				</extensions>
			</trkpt>
			<trkpt lat="53.25687976" lon="-8.922184">
				<ele>66.0</ele>
				<time>2014-08-17T15:01:57Z</time>
				<extensions>
					<speed>1.75</speed>
				</extensions>
			</trkpt>
			<trkpt lat="53.25686402" lon="-8.92217562">
				<ele>65.0</ele>
				<time>2014-08-17T15:01:58Z</time>
				<extensions>
					<speed>1.75</speed>
				</extensions>
			</trkpt>
			<trkpt lat="53.25684976" lon="-8.9221716">
				<ele>64.0</ele>
				<time>2014-08-17T15:01:59Z</time>
				<extensions>
					<speed>1.0</speed>
				</extensions>
			</trkpt>
			<trkpt lat="53.2568453" lon="-8.92216379">
				<ele>64.0</ele>
				<time>2014-08-17T15:02:00Z</time>
				<extensions>
					<speed>0.0</speed>
				</extensions>
			</trkpt>
			<trkpt lat="53.25684483" lon="-8.92216335">
				<ele>64.0</ele>
				<time>2014-08-17T15:02:01Z</time>
				<extensions>
					<speed>0.0</speed>
				</extensions>
			</trkpt>
			<trkpt lat="53.25684435" lon="-8.92216517">
				<ele>65.0</ele>
				<time>2014-08-17T15:02:02Z</time>
				<extensions>
					<speed>0.75</speed>
				</extensions>
			</trkpt>
			<trkpt lat="53.25684458" lon="-8.92217735">
				<ele>64.0</ele>
				<time>2014-08-17T15:02:03Z</time>
				<extensions>
					<speed>0.75</speed>
				</extensions>
			</trkpt>
			<trkpt lat="53.25684909" lon="-8.9221783">
				<ele>65.0</ele>
				<time>2014-08-17T15:02:04Z</time>
				<extensions>
					<speed>0.0</speed>
				</extensions>
			</trkpt>
			<trkpt lat="53.25684389" lon="-8.92218432">
				<ele>65.0</ele>
				<time>2014-08-17T15:02:05Z</time>
				<extensions>
					<speed>0.0</speed>
				</extensions>
			</trkpt>
			<trkpt lat="53.25684478" lon="-8.92218508">
				<ele>65.0</ele>
				<time>2014-08-17T15:02:06Z</time>
				<extensions>
					<speed>1.0</speed>
				</extensions>
			</trkpt>
			<trkpt lat="53.25684499" lon="-8.92219963">
				<ele>64.0</ele>
				<time>2014-08-17T15:02:07Z</time>
				<extensions>
					<speed>1.0</speed>
				</extensions>
			</trkpt>
			<trkpt lat="53.25684807" lon="-8.92221067">
				<ele>64.0</ele>
				<time>2014-08-17T15:02:08Z</time>
				<extensions>
					<speed>0.75</speed>
				</extensions>
			</trkpt>
			<trkpt lat="53.25685665" lon="-8.9222114">
				<ele>64.0</ele>
				<time>2014-08-17T15:02:09Z</time>
				<extensions>
					<speed>0.5</speed>
				</extensions>
			</trkpt>
			<trkpt lat="53.25685905" lon="-8.92221107">
				<ele>63.0</ele>
				<time>2014-08-17T15:02:10Z</time>
				<extensions>
					<speed>0.0</speed>
				</extensions>
			</trkpt>
			<trkpt lat="53.25685566" lon="-8.92221765">
				<ele>63.0</ele>
				<time>2014-08-17T15:02:11Z</time>
				<extensions>
					<speed>0.0</speed>
				</extensions>
			</trkpt>
			<trkpt lat="53.25685666" lon="-8.92222274">
				<ele>63.0</ele>
				<time>2014-08-17T15:02:12Z</time>
				<extensions>
					<speed>0.0</speed>
				</extensions>
			</trkpt>
			<trkpt lat="53.25685528" lon="-8.92222447">
				<ele>63.0</ele>
				<time>2014-08-17T15:02:13Z</time>
				<extensions>
					<speed>1.25</speed>
				</extensions>
			</trkpt>
			<trkpt lat="53.25684132" lon="-8.92225323">
				<ele>63.0</ele>
				<time>2014-08-17T15:02:14Z</time>
				<extensions>
					<speed>2.0</speed>
				</extensions>
			</trkpt>
			<trkpt lat="53.25682744" lon="-8.92229144">
				<ele>63.0</ele>
				<time>2014-08-17T15:02:15Z</time>
				<extensions>
					<speed>2.75</speed>
				</extensions>
			</trkpt>
			<trkpt lat="53.25680581" lon="-8.92233692">
				<ele>62.0</ele>
				<time>2014-08-17T15:02:16Z</time>
				<extensions>
					<speed>3.5</speed>
				</extensions>
			</trkpt>
			<trkpt lat="53.25678638" lon="-8.92238049">
				<ele>62.0</ele>
				<time>2014-08-17T15:02:17Z</time>
				<extensions>
					<speed>3.0</speed>
				</extensions>
			</trkpt>
			<trkpt lat="53.25676821" lon="-8.92242632">
				<ele>62.0</ele>
				<time>2014-08-17T15:02:18Z</time>
				<extensions>
					<speed>3.25</speed>
				</extensions>
			</trkpt>
			<trkpt lat="53.25675073" lon="-8.92247217">
				<ele>61.0</ele>
				<time>2014-08-17T15:02:19Z</time>
				<extensions>
					<speed>3.5</speed>
				</extensions>
			</trkpt>
			<trkpt lat="53.25673767" lon="-8.92252457">
				<ele>62.0</ele>
				<time>2014-08-17T15:02:20Z</time>
				<extensions>
					<speed>3.75</speed>
				</extensions>
			</trkpt>
			<trkpt lat="53.25672187" lon="-8.92257373">
				<ele>61.0</ele>
				<time>2014-08-17T15:02:21Z</time>
				<extensions>
					<speed>3.25</speed>
				</extensions>
			</trkpt>
			<trkpt lat="53.25670709" lon="-8.9226187">
				<ele>61.0</ele>
				<time>2014-08-17T15:02:22Z</time>
				<extensions>
					<speed>3.25</speed>
				</extensions>
			</trkpt>
			<trkpt lat="53.25669284" lon="-8.922663">
				<ele>61.0</ele>
				<time>2014-08-17T15:02:23Z</time>
				<extensions>
					<speed>3.0</speed>
				</extensions>
			</trkpt>
			<trkpt lat="53.25668714" lon="-8.92269041">
				<ele>60.0</ele>
				<time>2014-08-17T15:02:24Z</time>
				<extensions>
					<speed>3.0</speed>
				</extensions>
			</trkpt>
			<trkpt lat="53.25667639" lon="-8.92272996">
				<ele>60.0</ele>
				<time>2014-08-17T15:02:25Z</time>
				<extensions>
					<speed>3.0</speed>
				</extensions>
			</trkpt>
			<trkpt lat="53.25667376" lon="-8.9227695">
				<ele>61.0</ele>
				<time>2014-08-17T15:02:26Z</time>
				<extensions>
					<speed>2.75</speed>
				</extensions>
			</trkpt>
			<trkpt lat="53.25668281" lon="-8.92280939">
				<ele>60.0</ele>
				<time>2014-08-17T15:02:27Z</time>
				<extensions>
					<speed>2.75</speed>
				</extensions>
			</trkpt>
			<trkpt lat="53.25669854" lon="-8.92284378">
				<ele>60.0</ele>
				<time>2014-08-17T15:02:28Z</time>
				<extensions>
					<speed>2.75</speed>
				</extensions>
			</trkpt>
			<trkpt lat="53.25671958" lon="-8.92286525">
				<ele>60.0</ele>
				<time>2014-08-17T15:02:29Z</time>
				<extensions>
					<speed>2.5</speed>
				</extensions>
			</trkpt>
			<trkpt lat="53.2567463" lon="-8.92288454">
				<ele>60.0</ele>
				<time>2014-08-17T15:02:30Z</time>
				<extensions>
					<speed>3.0</speed>
				</extensions>
			</trkpt>
			<trkpt lat="53.2567714" lon="-8.92291231">
				<ele>61.0</ele>
				<time>2014-08-17T15:02:31Z</time>
				<extensions>
					<speed>3.5</speed>
				</extensions>
			</trkpt>
			<trkpt lat="53.25679887" lon="-8.92294158">
				<ele>61.0</ele>
				<time>2014-08-17T15:02:32Z</time>
				<extensions>
					<speed>4.0</speed>
				</extensions>
			</trkpt>
			<trkpt lat="53.25682561" lon="-8.92297182">
				<ele>61.0</ele>
				<time>2014-08-17T15:02:33Z</time>
				<extensions>
					<speed>4.0</speed>
				</extensions>
			</trkpt>
			<trkpt lat="53.25685145" lon="-8.92300722">
				<ele>61.0</ele>
				<time>2014-08-17T15:02:34Z</time>
				<extensions>
					<speed>3.5</speed>
				</extensions>
			</trkpt>
			<trkpt lat="53.25687618" lon="-8.92303693">
				<ele>62.0</ele>
				<time>2014-08-17T15:02:35Z</time>
				<extensions>
					<speed>2.75</speed>
				</extensions>
			</trkpt>
			<trkpt lat="53.25688889" lon="-8.92305849">
				<ele>62.0</ele>
				<time>2014-08-17T15:02:36Z</time>
				<extensions>
					<speed>1.75</speed>
				</extensions>
			</trkpt>
			<trkpt lat="53.25690073" lon="-8.92307203">
				<ele>62.0</ele>
				<time>2014-08-17T15:02:37Z</time>
				<extensions>
					<speed>1.0</speed>
				</extensions>
			</trkpt>
			<trkpt lat="53.25690274" lon="-8.92307721">
				<ele>62.0</ele>
				<time>2014-08-17T15:02:38Z</time>
				<extensions>
					<speed>0.25</speed>
				</extensions>
			</trkpt>
			<trkpt lat="53.25690559" lon="-8.92308057">
				<ele>62.0</ele>
				<time>2014-08-17T15:02:39Z</time>
				<extensions>
					<speed>0.0</speed>
				</extensions>
			</trkpt>
			<trkpt lat="53.25690672" lon="-8.92308064">
				<ele>62.0</ele>
				<time>2014-08-17T15:02:40Z</time>
				<extensions>
					<speed>0.0</speed>
				</extensions>
			</trkpt>
			<trkpt lat="53.25690542" lon="-8.92307699">
				<ele>62.0</ele>
				<time>2014-08-17T15:02:41Z</time>
				<extensions>
					<speed>0.0</speed>
				</extensions>
			</trkpt>
			<trkpt lat="53.25690774" lon="-8.92307641">
				<ele>62.0</ele>
				<time>2014-08-17T15:02:42Z</time>
				<extensions>
					<speed>0.0</speed>
				</extensions>
			</trkpt>
			<trkpt lat="53.25690646" lon="-8.92307636">
				<ele>62.0</ele>
				<time>2014-08-17T15:02:43Z</time>
				<extensions>
					<speed>0.0</speed>
				</extensions>
			</trkpt>
			<trkpt lat="53.25690737" lon="-8.92307657">
				<ele>62.0</ele>
				<time>2014-08-17T15:02:44Z</time>
				<extensions>
					<speed>0.0</speed>
				</extensions>
			</trkpt>
			<trkpt lat="53.25691162" lon="-8.92306724">
				<ele>62.0</ele>
				<time>2014-08-17T15:02:45Z</time>
				<extensions>
					<speed>0.0</speed>
				</extensions>
			</trkpt>
			<trkpt lat="53.25691136" lon="-8.92307151">
				<ele>62.0</ele>
				<time>2014-08-17T15:02:46Z</time>
				<extensions>
					<speed>0.0</speed>
				</extensions>
			</trkpt>
			<trkpt lat="53.25691213" lon="-8.92307018">
				<ele>62.0</ele>
				<time>2014-08-17T15:02:47Z</time>
				<extensions>
					<speed>0.0</speed>
				</extensions>
			</trkpt>
			<trkpt lat="53.25691301" lon="-8.92307142">
				<ele>62.0</ele>
				<time>2014-08-17T15:02:48Z</time>
				<extensions>
					<speed>1.0</speed>
				</extensions>
			</trkpt>
			<trkpt lat="53.25692187" lon="-8.92309212">
				<ele>62.0</ele>
				<time>2014-08-17T15:02:49Z</time>
				<extensions>
					<speed>1.75</speed>
				</extensions>
			</trkpt>
			<trkpt lat="53.25694037" lon="-8.92310889">
				<ele>62.0</ele>
				<time>2014-08-17T15:02:50Z</time>
				<extensions>
					<speed>2.5</speed>
				</extensions>
			</trkpt>
			<trkpt lat="53.25695876" lon="-8.9231273">
				<ele>62.0</ele>
				<time>2014-08-17T15:02:51Z</time>
				<extensions>
					<speed>2.5</speed>
				</extensions>
			</trkpt>
			<trkpt lat="53.25697508" lon="-8.9231562">
				<ele>62.0</ele>
				<time>2014-08-17T15:02:52Z</time>
				<extensions>
					<speed>3.0</speed>
				</extensions>
			</trkpt>
			<trkpt lat="53.25699061" lon="-8.9231855">
				<ele>62.0</ele>
				<time>2014-08-17T15:02:53Z</time>
				<extensions>
					<speed>2.5</speed>
				</extensions>
			</trkpt>
			<trkpt lat="53.25700641" lon="-8.92321325">
				<ele>63.0</ele>
				<time>2014-08-17T15:02:54Z</time>
				<extensions>
					<speed>1.75</speed>
				</extensions>
			</trkpt>
			<trkpt lat="53.25701752" lon="-8.92323226">
				<ele>63.0</ele>
				<time>2014-08-17T15:02:55Z</time>
				<extensions>
					<speed>1.0</speed>
				</extensions>
			</trkpt>
			<trkpt lat="53.2570228" lon="-8.92324176">
				<ele>63.0</ele>
				<time>2014-08-17T15:02:56Z</time>
				<extensions>
					<speed>0.25</speed>
				</extensions>
			</trkpt>
			<trkpt lat="53.25702507" lon="-8.92324569">
				<ele>63.0</ele>
				<time>2014-08-17T15:02:57Z</time>
				<extensions>
					<speed>0.0</speed>
				</extensions>
			</trkpt>
			<trkpt lat="53.25702442" lon="-8.92325072">
				<ele>63.0</ele>
				<time>2014-08-17T15:02:58Z</time>
				<extensions>
					<speed>0.0</speed>
				</extensions>
			</trkpt>
			<trkpt lat="53.25702542" lon="-8.92324986">
				<ele>63.0</ele>
				<time>2014-08-17T15:02:59Z</time>
				<extensions>
					<speed>0.0</speed>
				</extensions>
			</trkpt>
			<trkpt lat="53.2570285" lon="-8.92324491">
				<ele>63.0</ele>
				<time>2014-08-17T15:03:00Z</time>
				<extensions>
					<speed>0.0</speed>
				</extensions>
			</trkpt>
			<trkpt lat="53.25702857" lon="-8.92323997">
				<ele>63.0</ele>
				<time>2014-08-17T15:03:01Z</time>
				<extensions>
					<speed>0.0</speed>
				</extensions>
			</trkpt>
			<trkpt lat="53.25703016" lon="-8.92323698">
				<ele>63.0</ele>
				<time>2014-08-17T15:03:02Z</time>
				<extensions>
					<speed>0.0</speed>
				</extensions>
			</trkpt>
			<trkpt lat="53.25703152" lon="-8.9232315">
				<ele>63.0</ele>
				<time>2014-08-17T15:03:03Z</time>
				<extensions>
					<speed>0.0</speed>
				</extensions>
			</trkpt>
			<trkpt lat="53.25702974" lon="-8.92322825">
				<ele>63.0</ele>
				<time>2014-08-17T15:03:04Z</time>
				<extensions>
					<speed>0.0</speed>
				</extensions>
			</trkpt>
			<trkpt lat="53.25703155" lon="-8.92322412">
				<ele>63.0</ele>
				<time>2014-08-17T15:03:05Z</time>
				<extensions>
					<speed>0.0</speed>
				</extensions>
			</trkpt>
			<trkpt lat="53.25702951" lon="-8.92321363">
				<ele>63.0</ele>
				<time>2014-08-17T15:03:06Z</time>
				<extensions>
					<speed>0.0</speed>
				</extensions>
			</trkpt>
			<trkpt lat="53.2570301" lon="-8.92321346">
				<ele>63.0</ele>
				<time>2014-08-17T15:03:07Z</time>
				<extensions>
					<speed>0.0</speed>
				</extensions>
			</trkpt>
			<trkpt lat="53.25703131" lon="-8.92321535">
				<ele>63.0</ele>
				<time>2014-08-17T15:03:08Z</time>
				<extensions>
					<speed>1.5</speed>
				</extensions>
			</trkpt>
			<trkpt lat="53.25704414" lon="-8.92323803">
				<ele>62.0</ele>
				<time>2014-08-17T15:03:09Z</time>
				<extensions>
					<speed>2.5</speed>
				</extensions>
			</trkpt>
			<trkpt lat="53.25706236" lon="-8.92326609">
				<ele>62.0</ele>
				<time>2014-08-17T15:03:10Z</time>
				<extensions>
					<speed>2.75</speed>
				</extensions>
			</trkpt>
			<trkpt lat="53.25708586" lon="-8.92329989">
				<ele>62.0</ele>
				<time>2014-08-17T15:03:11Z</time>
				<extensions>
					<speed>3.25</speed>
				</extensions>
			</trkpt>
			<trkpt lat="53.25710261" lon="-8.92333219">
				<ele>62.0</ele>
				<time>2014-08-17T15:03:12Z</time>
				<extensions>
					<speed>3.25</speed>
				</extensions>
			</trkpt>
			<trkpt lat="53.25711689" lon="-8.92337427">
				<ele>62.0</ele>
				<time>2014-08-17T15:03:13Z</time>
				<extensions>
					<speed>3.0</speed>
				</extensions>
			</trkpt>
			<trkpt lat="53.25712247" lon="-8.92340275">
				<ele>61.0</ele>
				<time>2014-08-17T15:03:14Z</time>
				<extensions>
					<speed>2.5</speed>
				</extensions>
			</trkpt>
			<trkpt lat="53.25713138" lon="-8.92343976">
				<ele>61.0</ele>
				<time>2014-08-17T15:03:15Z</time>
				<extensions>
					<speed>2.0</speed>
				</extensions>
			</trkpt>
			<trkpt lat="53.25713135" lon="-8.92347046">
				<ele>60.0</ele>
				<time>2014-08-17T15:03:16Z</time>
				<extensions>
					<speed>1.75</speed>
				</extensions>
			</trkpt>
			<trkpt lat="53.2571395" lon="-8.92348734">
				<ele>60.0</ele>
				<time>2014-08-17T15:03:17Z</time>
				<extensions>
					<speed>1.0</speed>
				</extensions>
			</trkpt>
			<trkpt lat="53.2571436" lon="-8.92349601">
				<ele>61.0</ele>
				<time>2014-08-17T15:03:18Z</time>
				<extensions>
					<speed>0.5</speed>
				</extensions>
			</trkpt>
			<trkpt lat="53.25714199" lon="-8.92350431">
				<ele>60.0</ele>
				<time>2014-08-17T15:03:19Z</time>
				<extensions>
					<speed>0.0</speed>
				</extensions>
			</trkpt>
			<trkpt lat="53.25713875" lon="-8.92351098">
				<ele>60.0</ele>
				<time>2014-08-17T15:03:20Z</time>
				<extensions>
					<speed>0.0</speed>
				</extensions>
			</trkpt>
			<trkpt lat="53.25713484" lon="-8.9235108">
				<ele>59.0</ele>
				<time>2014-08-17T15:03:21Z</time>
				<extensions>
					<speed>0.0</speed>
				</extensions>
			</trkpt>
			<trkpt lat="53.25713603" lon="-8.92351196">
				<ele>59.0</ele>
				<time>2014-08-17T15:03:22Z</time>
				<extensions>
					<speed>1.25</speed>
				</extensions>
			</trkpt>
			<trkpt lat="53.25714836" lon="-8.92352492">
				<ele>59.0</ele>
				<time>2014-08-17T15:03:23Z</time>
				<extensions>
					<speed>1.75</speed>
				</extensions>
			</trkpt>
			<trkpt lat="53.25717142" lon="-8.92351681">
				<ele>59.0</ele>
				<time>2014-08-17T15:03:24Z</time>
				<extensions>
					<speed>2.0</speed>
				</extensions>
			</trkpt>
			<trkpt lat="53.25717942" lon="-8.92350592">
				<ele>58.0</ele>
				<time>2014-08-17T15:03:25Z</time>
				<extensions>
					<speed>1.75</speed>
				</extensions>
			</trkpt>
			<trkpt lat="53.25719587" lon="-8.92350125">
				<ele>59.0</ele>
				<time>2014-08-17T15:03:26Z</time>
				<extensions>
					<speed>1.75</speed>
				</extensions>
			</trkpt>
			<trkpt lat="53.25721613" lon="-8.92349362">
				<ele>59.0</ele>
				<time>2014-08-17T15:03:27Z</time>
				<extensions>
					<speed>2.5</speed>
				</extensions>
			</trkpt>
			<trkpt lat="53.25722703" lon="-8.92348661">
				<ele>58.0</ele>
				<time>2014-08-17T15:03:28Z</time>
				<extensions>
					<speed>0.5</speed>
				</extensions>
			</trkpt>
			<trkpt lat="53.25725672" lon="-8.92347573">
				<ele>59.0</ele>
				<time>2014-08-17T15:03:29Z</time>
				<extensions>
					<speed>0.5</speed>
				</extensions>
			</trkpt>
			<trkpt lat="53.25728387" lon="-8.92348948">
				<ele>60.0</ele>
				<time>2014-08-17T15:03:30Z</time>
				<extensions>
					<speed>2.75</speed>
				</extensions>
			</trkpt>
			<trkpt lat="53.25730708" lon="-8.92350773">
				<ele>60.0</ele>
				<time>2014-08-17T15:03:31Z</time>
				<extensions>
					<speed>2.5</speed>
				</extensions>
			</trkpt>
			<trkpt lat="53.25732434" lon="-8.92352974">
				<ele>60.0</ele>
				<time>2014-08-17T15:03:32Z</time>
				<extensions>
					<speed>2.25</speed>
				</extensions>
			</trkpt>
			<trkpt lat="53.25734138" lon="-8.92355242">
				<ele>59.0</ele>
				<time>2014-08-17T15:03:33Z</time>
				<extensions>
					<speed>1.75</speed>
				</extensions>
			</trkpt>
			<trkpt lat="53.2573557" lon="-8.92356164">
				<ele>59.0</ele>
				<time>2014-08-17T15:03:34Z</time>
				<extensions>
					<speed>1.0</speed>
				</extensions>
			</trkpt>
			<trkpt lat="53.25736172" lon="-8.92356803">
				<ele>60.0</ele>
				<time>2014-08-17T15:03:35Z</time>
				<extensions>
					<speed>0.0</speed>
				</extensions>
			</trkpt>
			<trkpt lat="53.25736714" lon="-8.92356226">
				<ele>60.0</ele>
				<time>2014-08-17T15:03:36Z</time>
				<extensions>
					<speed>0.0</speed>
				</extensions>
			</trkpt>
			<trkpt lat="53.25736977" lon="-8.92355719">
				<ele>60.0</ele>
				<time>2014-08-17T15:03:37Z</time>
				<extensions>
					<speed>0.0</speed>
				</extensions>
			</trkpt>
			<trkpt lat="53.25737295" lon="-8.9235606">
				<ele>60.0</ele>
				<time>2014-08-17T15:03:38Z</time>
				<extensions>
					<speed>0.0</speed>
				</extensions>
			</trkpt>
			<trkpt lat="53.25737328" lon="-8.92356087">
				<ele>61.0</ele>
				<time>2014-08-17T15:03:39Z</time>
				<extensions>
					<speed>0.0</speed>
				</extensions>
			</trkpt>
			<trkpt lat="53.25737501" lon="-8.92356238">
				<ele>61.0</ele>
				<time>2014-08-17T15:03:40Z</time>
				<extensions>
					<speed>0.0</speed>
				</extensions>
			</trkpt>
			<trkpt lat="53.25737705" lon="-8.92356518">
				<ele>61.0</ele>
				<time>2014-08-17T15:03:41Z</time>
				<extensions>
					<speed>0.0</speed>
				</extensions>
			</trkpt>
			<trkpt lat="53.25737981" lon="-8.92356838">
				<ele>61.0</ele>
				<time>2014-08-17T15:03:42Z</time>
				<extensions>
					<speed>0.0</speed>
				</extensions>
			</trkpt>
			<trkpt lat="53.25738289" lon="-8.92356456">
				<ele>62.0</ele>
				<time>2014-08-17T15:03:43Z</time>
				<extensions>
					<speed>0.0</speed>
				</extensions>
			</trkpt>
			<trkpt lat="53.25738623" lon="-8.92356484">
				<ele>62.0</ele>
				<time>2014-08-17T15:03:44Z</time>
				<extensions>
					<speed>0.0</speed>
				</extensions>
			</trkpt>
			<trkpt lat="53.25738877" lon="-8.92356258">
				<ele>62.0</ele>
				<time>2014-08-17T15:03:45Z</time>
				<extensions>
					<speed>0.0</speed>
				</extensions>
			</trkpt>
			<trkpt lat="53.25738906" lon="-8.92356281">
				<ele>62.0</ele>
				<time>2014-08-17T15:03:46Z</time>
				<extensions>
					<speed>0.0</speed>
				</extensions>
			</trkpt>
			<trkpt lat="53.25738916" lon="-8.92356313">
				<ele>62.0</ele>
				<time>2014-08-17T15:03:47Z</time>
				<extensions>
					<speed>0.0</speed>
				</extensions>
			</trkpt>
			<trkpt lat="53.2573892" lon="-8.9235631">
				<ele>62.0</ele>
				<time>2014-08-17T15:03:48Z</time>
				<extensions>
					<speed>0.0</speed>
				</extensions>
			</trkpt>
			<trkpt lat="53.25738924" lon="-8.92356314">
				<ele>62.0</ele>
				<time>2014-08-17T15:03:49Z</time>
				<extensions>
					<speed>0.0</speed>
				</extensions>
			</trkpt>
			<trkpt lat="53.25738924" lon="-8.92356314">
				<ele>62.0</ele>
				<time>2014-08-17T15:03:50Z</time>
				<extensions>
					<speed>0.0</speed>
				</extensions>
			</trkpt>
			<trkpt lat="53.25738924" lon="-8.92356318">
				<ele>62.0</ele>
				<time>2014-08-17T15:03:51Z</time>
				<extensions>
					<speed>0.0</speed>
				</extensions>
			</trkpt>
			<trkpt lat="53.25738925" lon="-8.92356319">
				<ele>62.0</ele>
				<time>2014-08-17T15:03:52Z</time>
				<extensions>
					<speed>0.0</speed>
				</extensions>
			</trkpt>
			<trkpt lat="53.25738925" lon="-8.92356319">
				<ele>62.0</ele>
				<time>2014-08-17T15:03:53Z</time>
				<extensions>
					<speed>0.0</speed>
				</extensions>
			</trkpt>
			<trkpt lat="53.25738925" lon="-8.9235632">
				<ele>62.0</ele>
				<time>2014-08-17T15:03:54Z</time>
				<extensions>
					<speed>0.0</speed>
				</extensions>
			</trkpt>
			<trkpt lat="53.25738926" lon="-8.92356323">
				<ele>62.0</ele>
				<time>2014-08-17T15:03:55Z</time>
				<extensions>
					<speed>0.0</speed>
				</extensions>
			</trkpt>
			<trkpt lat="53.25738928" lon="-8.9235632">
				<ele>62.0</ele>
				<time>2014-08-17T15:03:56Z</time>
				<extensions>
					<speed>0.0</speed>
				</extensions>
			</trkpt>
			<trkpt lat="53.2573893" lon="-8.92356319">
				<ele>62.0</ele>
				<time>2014-08-17T15:03:57Z</time>
				<extensions>
					<speed>0.0</speed>
				</extensions>
			</trkpt>
			<trkpt lat="53.25738931" lon="-8.92356316">
				<ele>62.0</ele>
				<time>2014-08-17T15:03:58Z</time>
				<extensions>
					<speed>0.0</speed>
				</extensions>
			</trkpt>
			<trkpt lat="53.25738932" lon="-8.92356318">
				<ele>62.0</ele>
				<time>2014-08-17T15:03:59Z</time>
				<extensions>
					<speed>0.0</speed>
				</extensions>
			</trkpt>
			<trkpt lat="53.25738935" lon="-8.92356317">
				<ele>62.0</ele>
				<time>2014-08-17T15:04:00Z</time>
				<extensions>
					<speed>0.0</speed>
				</extensions>
			</trkpt>
			<trkpt lat="53.25738938" lon="-8.92356316">
				<ele>62.0</ele>
				<time>2014-08-17T15:04:01Z</time>
				<extensions>
					<speed>0.0</speed>
				</extensions>
			</trkpt>
			<trkpt lat="53.2573894" lon="-8.92356318">
				<ele>62.0</ele>
				<time>2014-08-17T15:04:02Z</time>
				<extensions>
					<speed>0.0</speed>
				</extensions>
			</trkpt>
			<trkpt lat="53.2573894" lon="-8.92356318">
				<ele>62.0</ele>
				<time>2014-08-17T15:04:03Z</time>
				<extensions>
					<speed>0.0</speed>
				</extensions>
			</trkpt>
			<trkpt lat="53.2573894" lon="-8.92356318">
				<ele>62.0</ele>
				<time>2014-08-17T15:04:04Z</time>
				<extensions>
					<speed>0.0</speed>
				</extensions>
			</trkpt>
			<trkpt lat="53.25738942" lon="-8.92356317">
				<ele>62.0</ele>
				<time>2014-08-17T15:04:05Z</time>
				<extensions>
					<speed>0.0</speed>
				</extensions>
			</trkpt>
			<trkpt lat="53.25739004" lon="-8.92356271">
				<ele>62.0</ele>
				<time>2014-08-17T15:04:06Z</time>
				<extensions>
					<speed>0.0</speed>
				</extensions>
			</trkpt>
			<trkpt lat="53.25739007" lon="-8.92356268">
				<ele>62.0</ele>
				<time>2014-08-17T15:04:07Z</time>
				<extensions>
					<speed>0.0</speed>
				</extensions>
			</trkpt>
			<trkpt lat="53.25739009" lon="-8.92356264">
				<ele>62.0</ele>
				<time>2014-08-17T15:04:08Z</time>
				<extensions>
					<speed>0.0</speed>
				</extensions>
			</trkpt>
			<trkpt lat="53.25739107" lon="-8.92356374">
				<ele>62.0</ele>
				<time>2014-08-17T15:04:09Z</time>
				<extensions>
					<speed>1.0</speed>
				</extensions>
			</trkpt>
			<trkpt lat="53.25740408" lon="-8.92357786">
				<ele>62.0</ele>
				<time>2014-08-17T15:04:10Z</time>
				<extensions>
					<speed>1.75</speed>
				</extensions>
			</trkpt>
			<trkpt lat="53.25742562" lon="-8.92357292">
				<ele>62.0</ele>
				<time>2014-08-17T15:04:11Z</time>
				<extensions>
					<speed>2.0</speed>
				</extensions>
			</trkpt>
			<trkpt lat="53.25744023" lon="-8.92355887">
				<ele>62.0</ele>
				<time>2014-08-17T15:04:12Z</time>
				<extensions>
					<speed>2.0</speed>
				</extensions>
			</trkpt>
			<trkpt lat="53.2574526" lon="-8.92353671">
				<ele>62.0</ele>
				<time>2014-08-17T15:04:13Z</time>
				<extensions>
					<speed>2.0</speed>
				</extensions>
			</trkpt>
			<trkpt lat="53.25745661" lon="-8.92352657">
				<ele>62.0</ele>
				<time>2014-08-17T15:04:14Z</time>
				<extensions>
					<speed>1.25</speed>
				</extensions>
			</trkpt>
			<trkpt lat="53.25745347" lon="-8.92352076">
				<ele>63.0</ele>
				<time>2014-08-17T15:04:15Z</time>
				<extensions>
					<speed>0.0</speed>
				</extensions>
			</trkpt>
			<trkpt lat="53.25745751" lon="-8.92352368">
				<ele>63.0</ele>
				<time>2014-08-17T15:04:16Z</time>
				<extensions>
					<speed>0.0</speed>
				</extensions>
			</trkpt>
			<trkpt lat="53.25745923" lon="-8.92352411">
				<ele>64.0</ele>
				<time>2014-08-17T15:04:17Z</time>
				<extensions>
					<speed>0.0</speed>
				</extensions>
			</trkpt>
			<trkpt lat="53.25745923" lon="-8.92352411">
				<ele>64.0</ele>
				<time>2014-08-17T15:04:18Z</time>
				<extensions>
					<speed>0.0</speed>
				</extensions>
			</trkpt>
			<trkpt lat="53.25746138" lon="-8.92352183">
				<ele>64.0</ele>
				<time>2014-08-17T15:04:19Z</time>
				<extensions>
					<speed>0.0</speed>
				</extensions>
			</trkpt>
			<trkpt lat="53.25746132" lon="-8.92352024">
				<ele>64.0</ele>
				<time>2014-08-17T15:04:20Z</time>
				<extensions>
					<speed>0.75</speed>
				</extensions>
			</trkpt>
			<trkpt lat="53.25745438" lon="-8.92349777">
				<ele>64.0</ele>
				<time>2014-08-17T15:04:21Z</time>
				<extensions>
					<speed>2.0</speed>
				</extensions>
			</trkpt>
			<trkpt lat="53.25743359" lon="-8.92346576">
				<ele>63.0</ele>
				<time>2014-08-17T15:04:22Z</time>
				<extensions>
					<speed>2.5</speed>
				</extensions>
			</trkpt>
			<trkpt lat="53.25741467" lon="-8.92343767">
				<ele>64.0</ele>
				<time>2014-08-17T15:04:23Z</time>
				<extensions>
					<speed>3.25</speed>
				</extensions>
			</trkpt>
			<trkpt lat="53.25739263" lon="-8.92341839">
				<ele>64.0</ele>
				<time>2014-08-17T15:04:24Z</time>
				<extensions>
					<speed>3.25</speed>
				</extensions>
			</trkpt>
			<trkpt lat="53.2573615" lon="-8.92342198">
				<ele>64.0</ele>
				<time>2014-08-17T15:04:25Z</time>
				<extensions>
					<speed>3.5</speed>
				</extensions>
			</trkpt>
			<trkpt lat="53.25732297" lon="-8.92343956">
				<ele>64.0</ele>
				<time>2014-08-17T15:04:26Z</time>
				<extensions>
					<speed>4.0</speed>
				</extensions>
			</trkpt>
			<trkpt lat="53.25728922" lon="-8.92346787">
				<ele>64.0</ele>
				<time>2014-08-17T15:04:27Z</time>
				<extensions>
					<speed>4.25</speed>
				</extensions>
			</trkpt>
			<trkpt lat="53.25726663" lon="-8.9234941">
				<ele>64.0</ele>
				<time>2014-08-17T15:04:28Z</time>
				<extensions>
					<speed>3.75</speed>
				</extensions>
			</trkpt>
			<trkpt lat="53.25724734" lon="-8.92351448">
				<ele>64.0</ele>
				<time>2014-08-17T15:04:29Z</time>
				<extensions>
					<speed>2.0</speed>
				</extensions>
			</trkpt>
			<trkpt lat="53.2572351" lon="-8.92352175">
				<ele>65.0</ele>
				<time>2014-08-17T15:04:30Z</time>
				<extensions>
					<speed>0.5</speed>
				</extensions>
			</trkpt>
			<trkpt lat="53.25723252" lon="-8.92352263">
				<ele>66.0</ele>
				<time>2014-08-17T15:04:31Z</time>
				<extensions>
					<speed>0.0</speed>
				</extensions>
			</trkpt>
			<trkpt lat="53.25722781" lon="-8.92352747">
				<ele>65.0</ele>
				<time>2014-08-17T15:04:32Z</time>
				<extensions>
					<speed>0.0</speed>
				</extensions>
			</trkpt>
			<trkpt lat="53.25722569" lon="-8.92352482">
				<ele>65.0</ele>
				<time>2014-08-17T15:04:33Z</time>
				<extensions>
					<speed>0.0</speed>
				</extensions>
			</trkpt>
			<trkpt lat="53.25722704" lon="-8.92352308">
				<ele>65.0</ele>
				<time>2014-08-17T15:04:34Z</time>
				<extensions>
					<speed>0.0</speed>
				</extensions>
			</trkpt>
			<trkpt lat="53.2572279" lon="-8.92352226">
				<ele>65.0</ele>
				<time>2014-08-17T15:04:35Z</time>
				<extensions>
					<speed>0.0</speed>
				</extensions>
			</trkpt>
			<trkpt lat="53.25722748" lon="-8.92352177">
				<ele>65.0</ele>
				<time>2014-08-17T15:04:36Z</time>
				<extensions>
					<speed>0.0</speed>
				</extensions>
			</trkpt>
			<trkpt lat="53.25722702" lon="-8.92352479">
				<ele>66.0</ele>
				<time>2014-08-17T15:04:37Z</time>
				<extensions>
					<speed>0.0</speed>
				</extensions>
			</trkpt>
			<trkpt lat="53.25722851" lon="-8.92352391">
				<ele>66.0</ele>
				<time>2014-08-17T15:04:38Z</time>
				<extensions>
					<speed>0.0</speed>
				</extensions>
			</trkpt>
			<trkpt lat="53.25722851" lon="-8.92352391">
				<ele>66.0</ele>
				<time>2014-08-17T15:04:39Z</time>
				<extensions>
					<speed>0.0</speed>
				</extensions>
			</trkpt>
			<trkpt lat="53.25722889" lon="-8.92352351">
				<ele>66.0</ele>
				<time>2014-08-17T15:04:40Z</time>
				<extensions>
					<speed>0.0</speed>
				</extensions>
			</trkpt>
			<trkpt lat="53.25722665" lon="-8.92352417">
				<ele>66.0</ele>
				<time>2014-08-17T15:04:41Z</time>
				<extensions>
					<speed>0.0</speed>
				</extensions>
			</trkpt>
			<trkpt lat="53.25722744" lon="-8.92352295">
				<ele>66.0</ele>
				<time>2014-08-17T15:04:42Z</time>
				<extensions>
					<speed>0.0</speed>
				</extensions>
			</trkpt>
			<trkpt lat="53.2572283" lon="-8.92352254">
				<ele>65.0</ele>
				<time>2014-08-17T15:04:43Z</time>
				<extensions>
					<speed>0.0</speed>
				</extensions>
			</trkpt>
			<trkpt lat="53.25722715" lon="-8.92352379">
				<ele>66.0</ele>
				<time>2014-08-17T15:04:44Z</time>
				<extensions>
					<speed>0.0</speed>
				</extensions>
			</trkpt>
			<trkpt lat="53.25722829" lon="-8.92352407">
				<ele>66.0</ele>
				<time>2014-08-17T15:04:45Z</time>
				<extensions>
					<speed>0.0</speed>
				</extensions>
			</trkpt>
			<trkpt lat="53.25722664" lon="-8.92352712">
				<ele>66.0</ele>
				<time>2014-08-17T15:04:46Z</time>
				<extensions>
					<speed>0.0</speed>
				</extensions>
			</trkpt>
			<trkpt lat="53.25722668" lon="-8.92352707">
				<ele>66.0</ele>
				<time>2014-08-17T15:04:47Z</time>
				<extensions>
					<speed>0.0</speed>
				</extensions>
			</trkpt>
			<trkpt lat="53.25722659" lon="-8.92352695">
				<ele>66.0</ele>
				<time>2014-08-17T15:04:48Z</time>
				<extensions>
					<speed>0.0</speed>
				</extensions>
			</trkpt>
			<trkpt lat="53.25722665" lon="-8.92352694">
				<ele>66.0</ele>
				<time>2014-08-17T15:04:49Z</time>
				<extensions>
					<speed>0.0</speed>
				</extensions>
			</trkpt>
			<trkpt lat="53.25722657" lon="-8.92352735">
				<ele>66.0</ele>
				<time>2014-08-17T15:04:50Z</time>
				<extensions>
					<speed>0.25</speed>
				</extensions>
			</trkpt>
			<trkpt lat="53.25724349" lon="-8.9234908">
				<ele>64.0</ele>
				<time>2014-08-17T15:04:51Z</time>
				<extensions>
					<speed>0.0</speed>
				</extensions>
			</trkpt>
			<trkpt lat="53.25723762" lon="-8.92350155">
				<ele>63.0</ele>
				<time>2014-08-17T15:04:52Z</time>
				<extensions>
					<speed>0.0</speed>
				</extensions>
			</trkpt>
			<trkpt lat="53.25723546" lon="-8.92350084">
				<ele>62.0</ele>
				<time>2014-08-17T15:04:53Z</time>
				<extensions>
					<speed>0.0</speed>
				</extensions>
			</trkpt>
			<trkpt lat="53.25724206" lon="-8.92349459">
				<ele>61.0</ele>
				<time>2014-08-17T15:04:54Z</time>
				<extensions>
					<speed>0.0</speed>
				</extensions>
			</trkpt>
			<trkpt lat="53.25724136" lon="-8.92349541">
				<ele>61.0</ele>
				<time>2014-08-17T15:04:55Z</time>
				<extensions>
					<speed>0.75</speed>
				</extensions>
			</trkpt>
			<trkpt lat="53.25723337" lon="-8.9235089">
				<ele>61.0</ele>
				<time>2014-08-17T15:04:56Z</time>
				<extensions>
					<speed>1.5</speed>
				</extensions>
			</trkpt>
			<trkpt lat="53.25721853" lon="-8.92352219">
				<ele>60.0</ele>
				<time>2014-08-17T15:04:57Z</time>
				<extensions>
					<speed>1.25</speed>
				</extensions>
			</trkpt>
			<trkpt lat="53.25721283" lon="-8.92354225">
				<ele>60.0</ele>
				<time>2014-08-17T15:04:58Z</time>
				<extensions>
					<speed>1.25</speed>
				</extensions>
			</trkpt>
			<trkpt lat="53.25719766" lon="-8.9235579">
				<ele>60.0</ele>
				<time>2014-08-17T15:04:59Z</time>
				<extensions>
					<speed>2.0</speed>
				</extensions>
			</trkpt>
			<trkpt lat="53.25717664" lon="-8.92358133">
				<ele>60.0</ele>
				<time>2014-08-17T15:05:00Z</time>
				<extensions>
					<speed>2.5</speed>
				</extensions>
			</trkpt>
			<trkpt lat="53.25715306" lon="-8.92360625">
				<ele>59.0</ele>
				<time>2014-08-17T15:05:01Z</time>
				<extensions>
					<speed>3.5</speed>
				</extensions>
			</trkpt>
			<trkpt lat="53.25713092" lon="-8.9236324">
				<ele>59.0</ele>
				<time>2014-08-17T15:05:02Z</time>
				<extensions>
					<speed>3.5</speed>
				</extensions>
			</trkpt>
			<trkpt lat="53.25709892" lon="-8.9236661">
				<ele>59.0</ele>
				<time>2014-08-17T15:05:03Z</time>
				<extensions>
					<speed>3.5</speed>
				</extensions>
			</trkpt>
			<trkpt lat="53.25707785" lon="-8.92369353">
				<ele>59.0</ele>
				<time>2014-08-17T15:05:04Z</time>
				<extensions>
					<speed>2.5</speed>
				</extensions>
			</trkpt>
			<trkpt lat="53.25705988" lon="-8.92370867">
				<ele>59.0</ele>
				<time>2014-08-17T15:05:05Z</time>
				<extensions>
					<speed>2.25</speed>
				</extensions>
			</trkpt>
			<trkpt lat="53.25704089" lon="-8.92371691">
				<ele>59.0</ele>
				<time>2014-08-17T15:05:06Z</time>
				<extensions>
					<speed>2.25</speed>
				</extensions>
			</trkpt>
			<trkpt lat="53.25701569" lon="-8.92371733">
				<ele>60.0</ele>
				<time>2014-08-17T15:05:07Z</time>
				<extensions>
					<speed>2.5</speed>
				</extensions>
			</trkpt>
			<trkpt lat="53.25699279" lon="-8.9237089">
				<ele>60.0</ele>
				<time>2014-08-17T15:05:08Z</time>
				<extensions>
					<speed>2.5</speed>
				</extensions>
			</trkpt>
			<trkpt lat="53.25697683" lon="-8.92369716">
				<ele>60.0</ele>
				<time>2014-08-17T15:05:09Z</time>
				<extensions>
					<speed>2.0</speed>
				</extensions>
			</trkpt>
			<trkpt lat="53.25696441" lon="-8.9236826">
				<ele>61.0</ele>
				<time>2014-08-17T15:05:10Z</time>
				<extensions>
					<speed>1.5</speed>
				</extensions>
			</trkpt>
			<trkpt lat="53.25696051" lon="-8.92367615">
				<ele>61.0</ele>
				<time>2014-08-17T15:05:11Z</time>
				<extensions>
					<speed>0.75</speed>
				</extensions>
			</trkpt>
			<trkpt lat="53.25695712" lon="-8.92367261">
				<ele>62.0</ele>
				<time>2014-08-17T15:05:12Z</time>
				<extensions>
					<speed>0.0</speed>
				</extensions>
			</trkpt>
			<trkpt lat="53.25695712" lon="-8.92367261">
				<ele>62.0</ele>
				<time>2014-08-17T15:05:13Z</time>
				<extensions>
					<speed>0.0</speed>
				</extensions>
			</trkpt>
			<trkpt lat="53.25695942" lon="-8.92367296">
				<ele>62.0</ele>
				<time>2014-08-17T15:05:14Z</time>
				<extensions>
					<speed>0.0</speed>
				</extensions>
			</trkpt>
			<trkpt lat="53.25695852" lon="-8.92367128">
				<ele>62.0</ele>
				<time>2014-08-17T15:05:15Z</time>
				<extensions>
					<speed>0.0</speed>
				</extensions>
			</trkpt>
			<trkpt lat="53.25695881" lon="-8.92367049">
				<ele>62.0</ele>
				<time>2014-08-17T15:05:16Z</time>
				<extensions>
					<speed>0.0</speed>
				</extensions>
			</trkpt>
			<trkpt lat="53.25695962" lon="-8.92366944">
				<ele>63.0</ele>
				<time>2014-08-17T15:05:17Z</time>
				<extensions>
					<speed>0.0</speed>
				</extensions>
			</trkpt>
			<trkpt lat="53.25696196" lon="-8.92367084">
				<ele>63.0</ele>
				<time>2014-08-17T15:05:18Z</time>
				<extensions>
					<speed>0.0</speed>
				</extensions>
			</trkpt>
			<trkpt lat="53.25696218" lon="-8.92367083">
				<ele>63.0</ele>
				<time>2014-08-17T15:05:19Z</time>
				<extensions>
					<speed>0.0</speed>
				</extensions>
			</trkpt>
			<trkpt lat="53.25696364" lon="-8.92367011">
				<ele>63.0</ele>
				<time>2014-08-17T15:05:20Z</time>
				<extensions>
					<speed>0.0</speed>
				</extensions>
			</trkpt>
			<trkpt lat="53.25696364" lon="-8.92367011">
				<ele>63.0</ele>
				<time>2014-08-17T15:05:21Z</time>
				<extensions>
					<speed>0.0</speed>
				</extensions>
			</trkpt>
			<trkpt lat="53.25696446" lon="-8.92367037">
				<ele>63.0</ele>
				<time>2014-08-17T15:05:22Z</time>
				<extensions>
					<speed>0.0</speed>
				</extensions>
			</trkpt>
			<trkpt lat="53.25696482" lon="-8.92367039">
				<ele>63.0</ele>
				<time>2014-08-17T15:05:23Z</time>
				<extensions>
					<speed>0.0</speed>
				</extensions>
			</trkpt>
			<trkpt lat="53.25696505" lon="-8.92367061">
				<ele>63.0</ele>
				<time>2014-08-17T15:05:24Z</time>
				<extensions>
					<speed>0.0</speed>
				</extensions>
			</trkpt>
			<trkpt lat="53.25696509" lon="-8.9236707">
				<ele>63.0</ele>
				<time>2014-08-17T15:05:25Z</time>
				<extensions>
					<speed>0.0</speed>
				</extensions>
			</trkpt>
			<trkpt lat="53.25696512" lon="-8.92367072">
				<ele>63.0</ele>
				<time>2014-08-17T15:05:26Z</time>
				<extensions>
					<speed>0.0</speed>
				</extensions>
			</trkpt>
			<trkpt lat="53.25696514" lon="-8.92367075">
				<ele>63.0</ele>
				<time>2014-08-17T15:05:27Z</time>
				<extensions>
					<speed>0.0</speed>
				</extensions>
			</trkpt>
			<trkpt lat="53.25696514" lon="-8.92367075">
				<ele>63.0</ele>
				<time>2014-08-17T15:05:28Z</time>
				<extensions>
					<speed>0.0</speed>
				</extensions>
			</trkpt>
			<trkpt lat="53.25696519" lon="-8.92367077">
				<ele>63.0</ele>
				<time>2014-08-17T15:05:29Z</time>
				<extensions>
					<speed>0.0</speed>
				</extensions>
			</trkpt>
			<trkpt lat="53.25696512" lon="-8.92367076">
				<ele>63.0</ele>
				<time>2014-08-17T15:05:30Z</time>
				<extensions>
					<speed>0.0</speed>
				</extensions>
			</trkpt>
			<trkpt lat="53.25696367" lon="-8.92366923">
				<ele>63.0</ele>
				<time>2014-08-17T15:05:31Z</time>
				<extensions>
					<speed>1.0</speed>
				</extensions>
			</trkpt>
			<trkpt lat="53.2569561" lon="-8.92366126">
				<ele>63.0</ele>
				<time>2014-08-17T15:05:32Z</time>
				<extensions>
					<speed>1.0</speed>
				</extensions>
			</trkpt>
			<trkpt lat="53.25691532" lon="-8.92364899">
				<ele>63.0</ele>
				<time>2014-08-17T15:05:33Z</time>
				<extensions>
					<speed>3.5</speed>
				</extensions>
			</trkpt>
			<trkpt lat="53.25687847" lon="-8.92362217">
				<ele>63.0</ele>
				<time>2014-08-17T15:05:34Z</time>
				<extensions>
					<speed>5.0</speed>
				</extensions>
			</trkpt>
			<trkpt lat="53.25683556" lon="-8.92358873">
				<ele>63.0</ele>
				<time>2014-08-17T15:05:35Z</time>
				<extensions>
					<speed>5.0</speed>
				</extensions>
			</trkpt>
			<trkpt lat="53.25680034" lon="-8.92354423">
				<ele>63.0</ele>
				<time>2014-08-17T15:05:36Z</time>
				<extensions>
					<speed>5.25</speed>
				</extensions>
			</trkpt>
			<trkpt lat="53.25676208" lon="-8.92348418">
				<ele>63.0</ele>
				<time>2014-08-17T15:05:37Z</time>
				<extensions>
					<speed>5.0</speed>
				</extensions>
			</trkpt>
			<trkpt lat="53.25673471" lon="-8.92343318">
				<ele>63.0</ele>
				<time>2014-08-17T15:05:38Z</time>
				<extensions>
					<speed>5.0</speed>
				</extensions>
			</trkpt>
			<trkpt lat="53.25669961" lon="-8.92339784">
				<ele>63.0</ele>
				<time>2014-08-17T15:05:39Z</time>
				<extensions>
					<speed>5.0</speed>
				</extensions>
			</trkpt>
			<trkpt lat="53.25666764" lon="-8.92336133">
				<ele>63.0</ele>
				<time>2014-08-17T15:05:40Z</time>
				<extensions>
					<speed>4.25</speed>
				</extensions>
			</trkpt>
			<trkpt lat="53.25664554" lon="-8.92332426">
				<ele>64.0</ele>
				<time>2014-08-17T15:05:41Z</time>
				<extensions>
					<speed>4.0</speed>
				</extensions>
			</trkpt>
			<trkpt lat="53.25661196" lon="-8.92329988">
				<ele>65.0</ele>
				<time>2014-08-17T15:05:42Z</time>
				<extensions>
					<speed>4.0</speed>
				</extensions>
			</trkpt>
			<trkpt lat="53.25658873" lon="-8.92324896">
				<ele>65.0</ele>
				<time>2014-08-17T15:05:43Z</time>
				<extensions>
					<speed>4.25</speed>
				</extensions>
			</trkpt>
			<trkpt lat="53.25657786" lon="-8.92319033">
				<ele>64.0</ele>
				<time>2014-08-17T15:05:44Z</time>
				<extensions>
					<speed>4.25</speed>
				</extensions>
			</trkpt>
			<trkpt lat="53.25657373" lon="-8.92313585">
				<ele>63.0</ele>
				<time>2014-08-17T15:05:45Z</time>
				<extensions>
					<speed>4.5</speed>
				</extensions>
			</trkpt>
			<trkpt lat="53.25659874" lon="-8.92305607">
				<ele>62.0</ele>
				<time>2014-08-17T15:05:46Z</time>
				<extensions>
					<speed>5.0</speed>
				</extensions>
			</trkpt>
			<trkpt lat="53.25661438" lon="-8.92297901">
				<ele>64.0</ele>
				<time>2014-08-17T15:05:47Z</time>
				<extensions>
					<speed>5.0</speed>
				</extensions>
			</trkpt>
			<trkpt lat="53.25663947" lon="-8.92291266">
				<ele>64.0</ele>
				<time>2014-08-17T15:05:48Z</time>
				<extensions>
					<speed>5.25</speed>
				</extensions>
			</trkpt>
			<trkpt lat="53.25667619" lon="-8.92286923">
				<ele>63.0</ele>
				<time>2014-08-17T15:05:49Z</time>
				<extensions>
					<speed>5.25</speed>
				</extensions>
			</trkpt>
			<trkpt lat="53.25672267" lon="-8.9228574">
				<ele>64.0</ele>
				<time>2014-08-17T15:05:50Z</time>
				<extensions>
					<speed>5.5</speed>
				</extensions>
			</trkpt>
			<trkpt lat="53.25676474" lon="-8.92287131">
				<ele>64.0</ele>
				<time>2014-08-17T15:05:51Z</time>
				<extensions>
					<speed>5.5</speed>
				</extensions>
			</trkpt>
			<trkpt lat="53.25681164" lon="-8.92292215">
				<ele>64.0</ele>
				<time>2014-08-17T15:05:52Z</time>
				<extensions>
					<speed>6.25</speed>
				</extensions>
			</trkpt>
			<trkpt lat="53.25685876" lon="-8.92298211">
				<ele>64.0</ele>
				<time>2014-08-17T15:05:53Z</time>
				<extensions>
					<speed>7.0</speed>
				</extensions>
			</trkpt>
			<trkpt lat="53.25690838" lon="-8.92304799">
				<ele>65.0</ele>
				<time>2014-08-17T15:05:54Z</time>
				<extensions>
					<speed>7.5</speed>
				</extensions>
			</trkpt>
			<trkpt lat="53.25695982" lon="-8.92312905">
				<ele>64.0</ele>
				<time>2014-08-17T15:05:55Z</time>
				<extensions>
					<speed>7.25</speed>
				</extensions>
			</trkpt>
			<trkpt lat="53.25700062" lon="-8.92319625">
				<ele>64.0</ele>
				<time>2014-08-17T15:05:56Z</time>
				<extensions>
					<speed>6.75</speed>
				</extensions>
			</trkpt>
			<trkpt lat="53.25704698" lon="-8.92326131">
				<ele>64.0</ele>
				<time>2014-08-17T15:05:57Z</time>
				<extensions>
					<speed>6.75</speed>
				</extensions>
			</trkpt>
			<trkpt lat="53.25709178" lon="-8.92332424">
				<ele>64.0</ele>
				<time>2014-08-17T15:05:58Z</time>
				<extensions>
					<speed>6.5</speed>
				</extensions>
			</trkpt>
			<trkpt lat="53.25712853" lon="-8.92339797">
				<ele>64.0</ele>
				<time>2014-08-17T15:05:59Z</time>
				<extensions>
					<speed>6.25</speed>
				</extensions>
			</trkpt>
			<trkpt lat="53.25715562" lon="-8.92347127">
				<ele>64.0</ele>
				<time>2014-08-17T15:06:00Z</time>
				<extensions>
					<speed>6.0</speed>
				</extensions>
			</trkpt>
			<trkpt lat="53.25717579" lon="-8.92355497">
				<ele>64.0</ele>
				<time>2014-08-17T15:06:01Z</time>
				<extensions>
					<speed>5.75</speed>
				</extensions>
			</trkpt>
			<trkpt lat="53.25720604" lon="-8.92363798">
				<ele>64.0</ele>
				<time>2014-08-17T15:06:02Z</time>
				<extensions>
					<speed>6.25</speed>
				</extensions>
			</trkpt>
			<trkpt lat="53.25724652" lon="-8.9237139">
				<ele>64.0</ele>
				<time>2014-08-17T15:06:03Z</time>
				<extensions>
					<speed>6.75</speed>
				</extensions>
			</trkpt>
			<trkpt lat="53.25729409" lon="-8.92379325">
				<ele>64.0</ele>
				<time>2014-08-17T15:06:04Z</time>
				<extensions>
					<speed>7.25</speed>
				</extensions>
			</trkpt>
			<trkpt lat="53.25734841" lon="-8.92387833">
				<ele>64.0</ele>
				<time>2014-08-17T15:06:05Z</time>
				<extensions>
					<speed>7.25</speed>
				</extensions>
			</trkpt>
			<trkpt lat="53.25739649" lon="-8.92394629">
				<ele>65.0</ele>
				<time>2014-08-17T15:06:06Z</time>
				<extensions>
					<speed>7.0</speed>
				</extensions>
			</trkpt>
			<trkpt lat="53.2574407" lon="-8.92400675">
				<ele>65.0</ele>
				<time>2014-08-17T15:06:07Z</time>
				<extensions>
					<speed>6.5</speed>
				</extensions>
			</trkpt>
			<trkpt lat="53.25748462" lon="-8.92407314">
				<ele>65.0</ele>
				<time>2014-08-17T15:06:08Z</time>
				<extensions>
					<speed>6.25</speed>
				</extensions>
			</trkpt>
			<trkpt lat="53.25752038" lon="-8.92413675">
				<ele>65.0</ele>
				<time>2014-08-17T15:06:09Z</time>
				<extensions>
					<speed>6.0</speed>
				</extensions>
			</trkpt>
			<trkpt lat="53.25755581" lon="-8.9242076">
				<ele>64.0</ele>
				<time>2014-08-17T15:06:10Z</time>
				<extensions>
					<speed>5.5</speed>
				</extensions>
			</trkpt>
			<trkpt lat="53.25758862" lon="-8.92426387">
				<ele>65.0</ele>
				<time>2014-08-17T15:06:11Z</time>
				<extensions>
					<speed>4.75</speed>
				</extensions>
			</trkpt>
			<trkpt lat="53.25761693" lon="-8.92428625">
				<ele>64.0</ele>
				<time>2014-08-17T15:06:12Z</time>
				<extensions>
					<speed>3.5</speed>
				</extensions>
			</trkpt>
			<trkpt lat="53.25762963" lon="-8.92431422">
				<ele>64.0</ele>
				<time>2014-08-17T15:06:13Z</time>
				<extensions>
					<speed>1.5</speed>
				</extensions>
			</trkpt>
			<trkpt lat="53.25763896" lon="-8.92432842">
				<ele>64.0</ele>
				<time>2014-08-17T15:06:14Z</time>
				<extensions>
					<speed>1.5</speed>
				</extensions>
			</trkpt>
			<trkpt lat="53.2576483" lon="-8.92434262">
				<ele>64.0</ele>
				<time>2014-08-17T15:06:15Z</time>
				<extensions>
					<speed>1.5</speed>
				</extensions>
			</trkpt>
			<trkpt lat="53.25764164" lon="-8.92434623">
				<ele>64.0</ele>
				<time>2014-08-17T15:06:16Z</time>
				<extensions>
					<speed>0.0</speed>
				</extensions>
			</trkpt>
			<trkpt lat="53.25764143" lon="-8.92433954">
				<ele>64.0</ele>
				<time>2014-08-17T15:06:17Z</time>
				<extensions>
					<speed>0.0</speed>
				</extensions>
			</trkpt>
			<trkpt lat="53.25763812" lon="-8.92433464">
				<ele>65.0</ele>
				<time>2014-08-17T15:06:18Z</time>
				<extensions>
					<speed>0.0</speed>
				</extensions>
			</trkpt>
			<trkpt lat="53.25764002" lon="-8.92433721">
				<ele>65.0</ele>
				<time>2014-08-17T15:06:19Z</time>
				<extensions>
					<speed>0.0</speed>
				</extensions>
			</trkpt>
			<trkpt lat="53.25764256" lon="-8.92433974">
				<ele>65.0</ele>
				<time>2014-08-17T15:06:20Z</time>
				<extensions>
					<speed>2.5</speed>
				</extensions>
			</trkpt>
			<trkpt lat="53.25766738" lon="-8.92434355">
				<ele>64.0</ele>
				<time>2014-08-17T15:06:21Z</time>
				<extensions>
					<speed>3.75</speed>
				</extensions>
			</trkpt>
			<trkpt lat="53.25770339" lon="-8.9243359">
				<ele>64.0</ele>
				<time>2014-08-17T15:06:22Z</time>
				<extensions>
					<speed>4.5</speed>
				</extensions>
			</trkpt>
			<trkpt lat="53.25774187" lon="-8.92431463">
				<ele>63.0</ele>
				<time>2014-08-17T15:06:23Z</time>
				<extensions>
					<speed>4.5</speed>
				</extensions>
			</trkpt>
			<trkpt lat="53.25778036" lon="-8.92429336">
				<ele>63.0</ele>
				<time>2014-08-17T15:06:24Z</time>
				<extensions>
					<speed>4.5</speed>
				</extensions>
			</trkpt>
			<trkpt lat="53.25781847" lon="-8.92419915">
				<ele>63.0</ele>
				<time>2014-08-17T15:06:25Z</time>
				<extensions>
					<speed>6.0</speed>
				</extensions>
			</trkpt>
			<trkpt lat="53.25784709" lon="-8.92410589">
				<ele>63.0</ele>
				<time>2014-08-17T15:06:26Z</time>
				<extensions>
					<speed>6.5</speed>
				</extensions>
			</trkpt>
			<trkpt lat="53.25787899" lon="-8.92399883">
				<ele>64.0</ele>
				<time>2014-08-17T15:06:27Z</time>
				<extensions>
					<speed>7.0</speed>
				</extensions>
			</trkpt>
			<trkpt lat="53.25789552" lon="-8.92390192">
				<ele>64.0</ele>
				<time>2014-08-17T15:06:28Z</time>
				<extensions>
					<speed>7.0</speed>
				</extensions>
			</trkpt>
			<trkpt lat="53.25790985" lon="-8.92379994">
				<ele>65.0</ele>
				<time>2014-08-17T15:06:29Z</time>
				<extensions>
					<speed>6.75</speed>
				</extensions>
			</trkpt>
			<trkpt lat="53.25791391" lon="-8.92371328">
				<ele>64.0</ele>
				<time>2014-08-17T15:06:30Z</time>
				<extensions>
					<speed>6.25</speed>
				</extensions>
			</trkpt>
			<trkpt lat="53.25791312" lon="-8.92362609">
				<ele>64.0</ele>
				<time>2014-08-17T15:06:31Z</time>
				<extensions>
					<speed>6.0</speed>
				</extensions>
			</trkpt>
			<trkpt lat="53.25791013" lon="-8.92353102">
				<ele>65.0</ele>
				<time>2014-08-17T15:06:32Z</time>
				<extensions>
					<speed>5.5</speed>
				</extensions>
			</trkpt>
			<trkpt lat="53.25788964" lon="-8.92346435">
				<ele>65.0</ele>
				<time>2014-08-17T15:06:33Z</time>
				<extensions>
					<speed>4.75</speed>
				</extensions>
			</trkpt>
			<trkpt lat="53.25788081" lon="-8.9234091">
				<ele>65.0</ele>
				<time>2014-08-17T15:06:34Z</time>
				<extensions>
					<speed>4.0</speed>
				</extensions>
			</trkpt>
			<trkpt lat="53.25787852" lon="-8.92335456">
				<ele>65.0</ele>
				<time>2014-08-17T15:06:35Z</time>
				<extensions>
					<speed>3.25</speed>
				</extensions>
			</trkpt>
			<trkpt lat="53.25787365" lon="-8.92330992">
				<ele>65.0</ele>
				<time>2014-08-17T15:06:36Z</time>
				<extensions>
					<speed>2.75</speed>
				</extensions>
			</trkpt>
			<trkpt lat="53.25786521" lon="-8.92328185">
				<ele>65.0</ele>
				<time>2014-08-17T15:06:37Z</time>
				<extensions>
					<speed>2.0</speed>
				</extensions>
			</trkpt>
			<trkpt lat="53.25785772" lon="-8.92326116">
				<ele>65.0</ele>
				<time>2014-08-17T15:06:38Z</time>
				<extensions>
					<speed>1.0</speed>
				</extensions>
			</trkpt>
			<trkpt lat="53.25785377" lon="-8.92326165">
				<ele>64.0</ele>
				<time>2014-08-17T15:06:39Z</time>
				<extensions>
					<speed>0.25</speed>
				</extensions>
			</trkpt>
			<trkpt lat="53.2578545" lon="-8.92326443">
				<ele>64.0</ele>
				<time>2014-08-17T15:06:40Z</time>
				<extensions>
					<speed>0.25</speed>
				</extensions>
			</trkpt>
			<trkpt lat="53.25785804" lon="-8.92326185">
				<ele>65.0</ele>
				<time>2014-08-17T15:06:41Z</time>
				<extensions>
					<speed>0.0</speed>
				</extensions>
			</trkpt>
			<trkpt lat="53.25785836" lon="-8.92326064">
				<ele>65.0</ele>
				<time>2014-08-17T15:06:42Z</time>
				<extensions>
					<speed>0.0</speed>
				</extensions>
			</trkpt>
			<trkpt lat="53.25786043" lon="-8.92326176">
				<ele>65.0</ele>
				<time>2014-08-17T15:06:43Z</time>
				<extensions>
					<speed>0.0</speed>
				</extensions>
			</trkpt>
			<trkpt lat="53.25786036" lon="-8.9232617">
				<ele>65.0</ele>
				<time>2014-08-17T15:06:44Z</time>
				<extensions>
					<speed>0.0</speed>
				</extensions>
			</trkpt>
			<trkpt lat="53.25786084" lon="-8.92326166">
				<ele>65.0</ele>
				<time>2014-08-17T15:06:45Z</time>
				<extensions>
					<speed>0.0</speed>
				</extensions>
			</trkpt>
			<trkpt lat="53.25785952" lon="-8.9232604">
				<ele>65.0</ele>
				<time>2014-08-17T15:06:46Z</time>
				<extensions>
					<speed>0.0</speed>
				</extensions>
			</trkpt>
			<trkpt lat="53.2578573" lon="-8.92325961">
				<ele>65.0</ele>
				<time>2014-08-17T15:06:47Z</time>
				<extensions>
					<speed>0.0</speed>
				</extensions>
			</trkpt>
			<trkpt lat="53.25785564" lon="-8.92325902">
				<ele>65.0</ele>
				<time>2014-08-17T15:06:48Z</time>
				<extensions>
					<speed>0.0</speed>
				</extensions>
			</trkpt>
			<trkpt lat="53.25785433" lon="-8.92325895">
				<ele>65.0</ele>
				<time>2014-08-17T15:06:49Z</time>
				<extensions>
					<speed>0.0</speed>
				</extensions>
			</trkpt>
			<trkpt lat="53.25785456" lon="-8.92325832">
				<ele>65.0</ele>
				<time>2014-08-17T15:06:50Z</time>
				<extensions>
					<speed>0.0</speed>
				</extensions>
			</trkpt>
			<trkpt lat="53.25785476" lon="-8.92325723">
				<ele>65.0</ele>
				<time>2014-08-17T15:06:51Z</time>
				<extensions>
					<speed>0.0</speed>
				</extensions>
			</trkpt>
			<trkpt lat="53.25785605" lon="-8.92325718">
				<ele>66.0</ele>
				<time>2014-08-17T15:06:52Z</time>
				<extensions>
					<speed>0.0</speed>
				</extensions>
			</trkpt>
			<trkpt lat="53.25785589" lon="-8.92325701">
				<ele>66.0</ele>
				<time>2014-08-17T15:06:53Z</time>
				<extensions>
					<speed>0.0</speed>
				</extensions>
			</trkpt>
			<trkpt lat="53.25785505" lon="-8.92325662">
				<ele>66.0</ele>
				<time>2014-08-17T15:06:54Z</time>
				<extensions>
					<speed>0.0</speed>
				</extensions>
			</trkpt>
			<trkpt lat="53.2578553" lon="-8.92325639">
				<ele>66.0</ele>
				<time>2014-08-17T15:06:55Z</time>
				<extensions>
					<speed>0.0</speed>
				</extensions>
			</trkpt>
			<trkpt lat="53.25785522" lon="-8.92325623">
				<ele>66.0</ele>
				<time>2014-08-17T15:06:56Z</time>
				<extensions>
					<speed>0.0</speed>
				</extensions>
			</trkpt>
			<trkpt lat="53.25785523" lon="-8.92325622">
				<ele>66.0</ele>
				<time>2014-08-17T15:06:57Z</time>
				<extensions>
					<speed>0.0</speed>
				</extensions>
			</trkpt>
			<trkpt lat="53.2578553" lon="-8.92325614">
				<ele>66.0</ele>
				<time>2014-08-17T15:06:58Z</time>
				<extensions>
					<speed>0.0</speed>
				</extensions>
			</trkpt>
			<trkpt lat="53.25785491" lon="-8.92325401">
				<ele>66.0</ele>
				<time>2014-08-17T15:06:59Z</time>
				<extensions>
					<speed>0.25</speed>
				</extensions>
			</trkpt>
			<trkpt lat="53.25784915" lon="-8.92322835">
				<ele>68.0</ele>
				<time>2014-08-17T15:07:00Z</time>
				<extensions>
					<speed>1.25</speed>
				</extensions>
			</trkpt>
			<trkpt lat="53.25784849" lon="-8.9231938">
				<ele>69.0</ele>
				<time>2014-08-17T15:07:01Z</time>
				<extensions>
					<speed>1.5</speed>
				</extensions>
			</trkpt>
			<trkpt lat="53.25784417" lon="-8.92317159">
				<ele>70.0</ele>
				<time>2014-08-17T15:07:02Z</time>
				<extensions>
					<speed>1.5</speed>
				</extensions>
			</trkpt>
			<trkpt lat="53.25784453" lon="-8.9231591">
				<ele>70.0</ele>
				<time>2014-08-17T15:07:03Z</time>
				<extensions>
					<speed>1.0</speed>
				</extensions>
			</trkpt>
			<trkpt lat="53.25784412" lon="-8.92315629">
				<ele>70.0</ele>
				<time>2014-08-17T15:07:04Z</time>
				<extensions>
					<speed>0.0</speed>
				</extensions>
			</trkpt>
			<trkpt lat="53.25784704" lon="-8.92315482">
				<ele>71.0</ele>
				<time>2014-08-17T15:07:05Z</time>
				<extensions>
					<speed>0.0</speed>
				</extensions>
			</trkpt>
			<trkpt lat="53.25784596" lon="-8.92315181">
				<ele>70.0</ele>
				<time>2014-08-17T15:07:06Z</time>
				<extensions>
					<speed>0.0</speed>
				</extensions>
			</trkpt>
			<trkpt lat="53.25784446" lon="-8.92315305">
				<ele>71.0</ele>
				<time>2014-08-17T15:07:07Z</time>
				<extensions>
					<speed>0.0</speed>
				</extensions>
			</trkpt>
			<trkpt lat="53.25784409" lon="-8.92315363">
				<ele>71.0</ele>
				<time>2014-08-17T15:07:08Z</time>
				<extensions>
					<speed>0.0</speed>
				</extensions>
			</trkpt>
			<trkpt lat="53.25784474" lon="-8.92315095">
				<ele>71.0</ele>
				<time>2014-08-17T15:07:09Z</time>
				<extensions>
					<speed>0.0</speed>
				</extensions>
			</trkpt>
			<trkpt lat="53.25784789" lon="-8.92314787">
				<ele>70.0</ele>
				<time>2014-08-17T15:07:10Z</time>
				<extensions>
					<speed>0.0</speed>
				</extensions>
			</trkpt>
			<trkpt lat="53.25784676" lon="-8.92314546">
				<ele>70.0</ele>
				<time>2014-08-17T15:07:11Z</time>
				<extensions>
					<speed>0.0</speed>
				</extensions>
			</trkpt>
			<trkpt lat="53.25784692" lon="-8.92314395">
				<ele>70.0</ele>
				<time>2014-08-17T15:07:12Z</time>
				<extensions>
					<speed>0.0</speed>
				</extensions>
			</trkpt>
			<trkpt lat="53.25784642" lon="-8.92314201">
				<ele>70.0</ele>
				<time>2014-08-17T15:07:13Z</time>
				<extensions>
					<speed>1.0</speed>
				</extensions>
			</trkpt>
			<trkpt lat="53.2578427" lon="-8.92311819">
				<ele>70.0</ele>
				<time>2014-08-17T15:07:14Z</time>
				<extensions>
					<speed>1.75</speed>
				</extensions>
			</trkpt>
			<trkpt lat="53.25782631" lon="-8.9230865">
				<ele>72.0</ele>
				<time>2014-08-17T15:07:15Z</time>
				<extensions>
					<speed>2.5</speed>
				</extensions>
			</trkpt>
			<trkpt lat="53.25782033" lon="-8.92304653">
				<ele>72.0</ele>
				<time>2014-08-17T15:07:16Z</time>
				<extensions>
					<speed>2.5</speed>
				</extensions>
			</trkpt>
			<trkpt lat="53.25780838" lon="-8.92300746">
				<ele>72.0</ele>
				<time>2014-08-17T15:07:17Z</time>
				<extensions>
					<speed>2.75</speed>
				</extensions>
			</trkpt>
			<trkpt lat="53.25779251" lon="-8.9229587">
				<ele>73.0</ele>
				<time>2014-08-17T15:07:18Z</time>
				<extensions>
					<speed>3.25</speed>
				</extensions>
			</trkpt>
			<trkpt lat="53.25777386" lon="-8.92291583">
				<ele>73.0</ele>
				<time>2014-08-17T15:07:19Z</time>
				<extensions>
					<speed>3.5</speed>
				</extensions>
			</trkpt>
			<trkpt lat="53.25776017" lon="-8.9228735">
				<ele>72.0</ele>
				<time>2014-08-17T15:07:20Z</time>
				<extensions>
					<speed>3.5</speed>
				</extensions>
			</trkpt>
			<trkpt lat="53.25774342" lon="-8.92284033">
				<ele>71.0</ele>
				<time>2014-08-17T15:07:21Z</time>
				<extensions>
					<speed>3.5</speed>
				</extensions>
			</trkpt>
			<trkpt lat="53.25772772" lon="-8.92280103">
				<ele>71.0</ele>
				<time>2014-08-17T15:07:22Z</time>
				<extensions>
					<speed>3.25</speed>
				</extensions>
			</trkpt>
			<trkpt lat="53.25770655" lon="-8.92277045">
				<ele>70.0</ele>
				<time>2014-08-17T15:07:23Z</time>
				<extensions>
					<speed>3.25</speed>
				</extensions>
			</trkpt>
			<trkpt lat="53.25768983" lon="-8.92273967">
				<ele>69.0</ele>
				<time>2014-08-17T15:07:24Z</time>
				<extensions>
					<speed>3.0</speed>
				</extensions>
			</trkpt>
			<trkpt lat="53.25767101" lon="-8.92271728">
				<ele>68.0</ele>
				<time>2014-08-17T15:07:25Z</time>
				<extensions>
					<speed>2.5</speed>
				</extensions>
			</trkpt>
			<trkpt lat="53.25765768" lon="-8.92269192">
				<ele>68.0</ele>
				<time>2014-08-17T15:07:26Z</time>
				<extensions>
					<speed>2.0</speed>
				</extensions>
			</trkpt>
			<trkpt lat="53.25764599" lon="-8.92267643">
				<ele>68.0</ele>
				<time>2014-08-17T15:07:27Z</time>
				<extensions>
					<speed>1.5</speed>
				</extensions>
			</trkpt>
			<trkpt lat="53.25763855" lon="-8.92266621">
				<ele>69.0</ele>
				<time>2014-08-17T15:07:28Z</time>
				<extensions>
					<speed>0.75</speed>
				</extensions>
			</trkpt>
			<trkpt lat="53.25763783" lon="-8.92266454">
				<ele>69.0</ele>
				<time>2014-08-17T15:07:29Z</time>
				<extensions>
					<speed>0.0</speed>
				</extensions>
			</trkpt>
			<trkpt lat="53.25763724" lon="-8.92266481">
				<ele>69.0</ele>
				<time>2014-08-17T15:07:30Z</time>
				<extensions>
					<speed>0.0</speed>
				</extensions>
			</trkpt>
			<trkpt lat="53.25763733" lon="-8.92266347">
				<ele>69.0</ele>
				<time>2014-08-17T15:07:31Z</time>
				<extensions>
					<speed>0.0</speed>
				</extensions>
			</trkpt>
			<trkpt lat="53.25763648" lon="-8.92266572">
				<ele>69.0</ele>
				<time>2014-08-17T15:07:32Z</time>
				<extensions>
					<speed>0.0</speed>
				</extensions>
			</trkpt>
			<trkpt lat="53.25763492" lon="-8.9226662">
				<ele>69.0</ele>
				<time>2014-08-17T15:07:33Z</time>
				<extensions>
					<speed>0.0</speed>
				</extensions>
			</trkpt>
			<trkpt lat="53.25763559" lon="-8.92266614">
				<ele>69.0</ele>
				<time>2014-08-17T15:07:34Z</time>
				<extensions>
					<speed>0.0</speed>
				</extensions>
			</trkpt>
			<trkpt lat="53.25763455" lon="-8.92266803">
				<ele>69.0</ele>
				<time>2014-08-17T15:07:35Z</time>
				<extensions>
					<speed>0.0</speed>
				</extensions>
			</trkpt>
			<trkpt lat="53.25763387" lon="-8.92267107">
				<ele>69.0</ele>
				<time>2014-08-17T15:07:36Z</time>
				<extensions>
					<speed>0.0</speed>
				</extensions>
			</trkpt>
			<trkpt lat="53.25763505" lon="-8.92266996">
				<ele>69.0</ele>
				<time>2014-08-17T15:07:37Z</time>
				<extensions>
					<speed>0.0</speed>
				</extensions>
			</trkpt>
			<trkpt lat="53.25763594" lon="-8.92266622">
				<ele>69.0</ele>
				<time>2014-08-17T15:07:38Z</time>
				<extensions>
					<speed>0.0</speed>
				</extensions>
			</trkpt>
			<trkpt lat="53.25763623" lon="-8.92266569">
				<ele>69.0</ele>
				<time>2014-08-17T15:07:39Z</time>
				<extensions>
					<speed>0.0</speed>
				</extensions>
			</trkpt>
			<trkpt lat="53.25763614" lon="-8.92266691">
				<ele>69.0</ele>
				<time>2014-08-17T15:07:40Z</time>
				<extensions>
					<speed>0.0</speed>
				</extensions>
			</trkpt>
			<trkpt lat="53.25763579" lon="-8.92266666">
				<ele>69.0</ele>
				<time>2014-08-17T15:07:41Z</time>
				<extensions>
					<speed>0.0</speed>
				</extensions>
			</trkpt>
			<trkpt lat="53.25763534" lon="-8.92266596">
				<ele>69.0</ele>
				<time>2014-08-17T15:07:42Z</time>
				<extensions>
					<speed>0.5</speed>
				</extensions>
			</trkpt>
			<trkpt lat="53.25762529" lon="-8.92265393">
				<ele>70.0</ele>
				<time>2014-08-17T15:07:43Z</time>
				<extensions>
					<speed>1.5</speed>
				</extensions>
			</trkpt>
			<trkpt lat="53.2576097" lon="-8.92263081">
				<ele>70.0</ele>
				<time>2014-08-17T15:07:44Z</time>
				<extensions>
					<speed>2.25</speed>
				</extensions>
			</trkpt>
			<trkpt lat="53.25759289" lon="-8.9225918">
				<ele>69.0</ele>
				<time>2014-08-17T15:07:45Z</time>
				<extensions>
					<speed>3.25</speed>
				</extensions>
			</trkpt>
			<trkpt lat="53.25757655" lon="-8.92255611">
				<ele>68.0</ele>
				<time>2014-08-17T15:07:46Z</time>
				<extensions>
					<speed>2.75</speed>
				</extensions>
			</trkpt>
			<trkpt lat="53.25755451" lon="-8.9225311">
				<ele>69.0</ele>
				<time>2014-08-17T15:07:47Z</time>
				<extensions>
					<speed>2.0</speed>
				</extensions>
			</trkpt>
			<trkpt lat="53.25754826" lon="-8.92252072">
				<ele>69.0</ele>
				<time>2014-08-17T15:07:48Z</time>
				<extensions>
					<speed>1.25</speed>
				</extensions>
			</trkpt>
			<trkpt lat="53.25754716" lon="-8.92251102">
				<ele>69.0</ele>
				<time>2014-08-17T15:07:49Z</time>
				<extensions>
					<speed>0.0</speed>
				</extensions>
			</trkpt>
			<trkpt lat="53.25754755" lon="-8.92251908">
				<ele>69.0</ele>
				<time>2014-08-17T15:07:50Z</time>
				<extensions>
					<speed>0.0</speed>
				</extensions>
			</trkpt>
			<trkpt lat="53.25754667" lon="-8.92251818">
				<ele>69.0</ele>
				<time>2014-08-17T15:07:51Z</time>
				<extensions>
					<speed>0.0</speed>
				</extensions>
			</trkpt>
			<trkpt lat="53.25754736" lon="-8.92251625">
				<ele>69.0</ele>
				<time>2014-08-17T15:07:52Z</time>
				<extensions>
					<speed>0.0</speed>
				</extensions>
			</trkpt>
			<trkpt lat="53.2575485" lon="-8.92251908">
				<ele>70.0</ele>
				<time>2014-08-17T15:07:53Z</time>
				<extensions>
					<speed>0.0</speed>
				</extensions>
			</trkpt>
			<trkpt lat="53.25754883" lon="-8.92251673">
				<ele>70.0</ele>
				<time>2014-08-17T15:07:54Z</time>
				<extensions>
					<speed>0.0</speed>
				</extensions>
			</trkpt>
			<trkpt lat="53.25754883" lon="-8.92251673">
				<ele>70.0</ele>
				<time>2014-08-17T15:07:55Z</time>
				<extensions>
					<speed>0.0</speed>
				</extensions>
			</trkpt>
			<trkpt lat="53.2575489" lon="-8.922516">
				<ele>70.0</ele>
				<time>2014-08-17T15:07:56Z</time>
				<extensions>
					<speed>0.0</speed>
				</extensions>
			</trkpt>
			<trkpt lat="53.25754675" lon="-8.92251535">
				<ele>70.0</ele>
				<time>2014-08-17T15:07:57Z</time>
				<extensions>
					<speed>0.0</speed>
				</extensions>
			</trkpt>
			<trkpt lat="53.25754744" lon="-8.92251288">
				<ele>70.0</ele>
				<time>2014-08-17T15:07:58Z</time>
				<extensions>
					<speed>0.0</speed>
				</extensions>
			</trkpt>
			<trkpt lat="53.25754764" lon="-8.92251325">
				<ele>71.0</ele>
				<time>2014-08-17T15:07:59Z</time>
				<extensions>
					<speed>0.0</speed>
				</extensions>
			</trkpt>
			<trkpt lat="53.25754841" lon="-8.92251379">
				<ele>71.0</ele>
				<time>2014-08-17T15:08:00Z</time>
				<extensions>
					<speed>0.0</speed>
				</extensions>
			</trkpt>
			<trkpt lat="53.25754894" lon="-8.92251331">
				<ele>71.0</ele>
				<time>2014-08-17T15:08:01Z</time>
				<extensions>
					<speed>0.0</speed>
				</extensions>
			</trkpt>
			<trkpt lat="53.25754846" lon="-8.9225129">
				<ele>71.0</ele>
				<time>2014-08-17T15:08:02Z</time>
				<extensions>
					<speed>0.0</speed>
				</extensions>
			</trkpt>
			<trkpt lat="53.25754791" lon="-8.92251205">
				<ele>71.0</ele>
				<time>2014-08-17T15:08:03Z</time>
				<extensions>
					<speed>0.0</speed>
				</extensions>
			</trkpt>
			<trkpt lat="53.25754797" lon="-8.92251075">
				<ele>71.0</ele>
				<time>2014-08-17T15:08:04Z</time>
				<extensions>
					<speed>0.0</speed>
				</extensions>
			</trkpt>
			<trkpt lat="53.25754726" lon="-8.92250961">
				<ele>71.0</ele>
				<time>2014-08-17T15:08:05Z</time>
				<extensions>
					<speed>0.0</speed>
				</extensions>
			</trkpt>
			<trkpt lat="53.25754682" lon="-8.92250783">
				<ele>71.0</ele>
				<time>2014-08-17T15:08:06Z</time>
				<extensions>
					<speed>0.0</speed>
				</extensions>
			</trkpt>
			<trkpt lat="53.25754658" lon="-8.92250675">
				<ele>71.0</ele>
				<time>2014-08-17T15:08:07Z</time>
				<extensions>
					<speed>0.0</speed>
				</extensions>
			</trkpt>
			<trkpt lat="53.2575466" lon="-8.92250624">
				<ele>71.0</ele>
				<time>2014-08-17T15:08:08Z</time>
				<extensions>
					<speed>0.0</speed>
				</extensions>
			</trkpt>
			<trkpt lat="53.25754646" lon="-8.92250668">
				<ele>71.0</ele>
				<time>2014-08-17T15:08:09Z</time>
				<extensions>
					<speed>0.0</speed>
				</extensions>
			</trkpt>
			<trkpt lat="53.25754629" lon="-8.92250696">
				<ele>71.0</ele>
				<time>2014-08-17T15:08:10Z</time>
				<extensions>
					<speed>0.0</speed>
				</extensions>
			</trkpt>
			<trkpt lat="53.25754616" lon="-8.92250697">
				<ele>71.0</ele>
				<time>2014-08-17T15:08:11Z</time>
				<extensions>
					<speed>0.0</speed>
				</extensions>
			</trkpt>
			<trkpt lat="53.25754612" lon="-8.92250695">
				<ele>71.0</ele>
				<time>2014-08-17T15:08:12Z</time>
				<extensions>
					<speed>0.0</speed>
				</extensions>
			</trkpt>
			<trkpt lat="53.25754552" lon="-8.922506">
				<ele>71.0</ele>
				<time>2014-08-17T15:08:13Z</time>
				<extensions>
					<speed>0.75</speed>
				</extensions>
			</trkpt>
			<trkpt lat="53.25753751" lon="-8.92249395">
				<ele>71.0</ele>
				<time>2014-08-17T15:08:14Z</time>
				<extensions>
					<speed>1.75</speed>
				</extensions>
			</trkpt>
			<trkpt lat="53.25752712" lon="-8.92248101">
				<ele>72.0</ele>
				<time>2014-08-17T15:08:15Z</time>
				<extensions>
					<speed>2.0</speed>
				</extensions>
			</trkpt>
			<trkpt lat="53.25751414" lon="-8.92245299">
				<ele>71.0</ele>
				<time>2014-08-17T15:08:16Z</time>
				<extensions>
					<speed>2.75</speed>
				</extensions>
			</trkpt>
			<trkpt lat="53.25749609" lon="-8.92242106">
				<ele>71.0</ele>
				<time>2014-08-17T15:08:17Z</time>
				<extensions>
					<speed>3.25</speed>
				</extensions>
			</trkpt>
			<trkpt lat="53.25747204" lon="-8.92238627">
				<ele>72.0</ele>
				<time>2014-08-17T15:08:18Z</time>
				<extensions>
					<speed>3.25</speed>
				</extensions>
			</trkpt>
			<trkpt lat="53.25744979" lon="-8.92235013">
				<ele>71.0</ele>
				<time>2014-08-17T15:08:19Z</time>
				<extensions>
					<speed>3.25</speed>
				</extensions>
			</trkpt>
			<trkpt lat="53.25742572" lon="-8.92231823">
				<ele>71.0</ele>
				<time>2014-08-17T15:08:20Z</time>
				<extensions>
					<speed>3.25</speed>
				</extensions>
			</trkpt>
			<trkpt lat="53.25740601" lon="-8.92229078">
				<ele>70.0</ele>
				<time>2014-08-17T15:08:21Z</time>
				<extensions>
					<speed>3.25</speed>
				</extensions>
			</trkpt>
			<trkpt lat="53.25738465" lon="-8.92225808">
				<ele>70.0</ele>
				<time>2014-08-17T15:08:22Z</time>
				<extensions>
					<speed>3.25</speed>
				</extensions>
			</trkpt>
			<trkpt lat="53.25736223" lon="-8.92222493">
				<ele>69.0</ele>
				<time>2014-08-17T15:08:23Z</time>
				<extensions>
					<speed>3.0</speed>
				</extensions>
			</trkpt>
			<trkpt lat="53.25734605" lon="-8.92220319">
				<ele>69.0</ele>
				<time>2014-08-17T15:08:24Z</time>
				<extensions>
					<speed>2.5</speed>
				</extensions>
			</trkpt>
			<trkpt lat="53.2573325" lon="-8.9221874">
				<ele>69.0</ele>
				<time>2014-08-17T15:08:25Z</time>
				<extensions>
					<speed>1.75</speed>
				</extensions>
			</trkpt>
			<trkpt lat="53.25732787" lon="-8.92217095">
				<ele>69.0</ele>
				<time>2014-08-17T15:08:26Z</time>
				<extensions>
					<speed>0.75</speed>
				</extensions>
			</trkpt>
			<trkpt lat="53.25732918" lon="-8.92216897">
				<ele>69.0</ele>
				<time>2014-08-17T15:08:27Z</time>
				<extensions>
					<speed>0.0</speed>
				</extensions>
			</trkpt>
			<trkpt lat="53.25732563" lon="-8.92216824">
				<ele>69.0</ele>
				<time>2014-08-17T15:08:28Z</time>
				<extensions>
					<speed>0.0</speed>
				</extensions>
			</trkpt>
			<trkpt lat="53.25732655" lon="-8.92216469">
				<ele>69.0</ele>
				<time>2014-08-17T15:08:29Z</time>
				<extensions>
					<speed>0.0</speed>
				</extensions>
			</trkpt>
			<trkpt lat="53.25732655" lon="-8.92216469">
				<ele>69.0</ele>
				<time>2014-08-17T15:08:30Z</time>
				<extensions>
					<speed>0.0</speed>
				</extensions>
			</trkpt>
			<trkpt lat="53.25732442" lon="-8.92216305">
				<ele>69.0</ele>
				<time>2014-08-17T15:08:31Z</time>
				<extensions>
					<speed>0.0</speed>
				</extensions>
			</trkpt>
			<trkpt lat="53.25732334" lon="-8.92216433">
				<ele>68.0</ele>
				<time>2014-08-17T15:08:32Z</time>
				<extensions>
					<speed>0.0</speed>
				</extensions>
			</trkpt>
			<trkpt lat="53.25732382" lon="-8.92216414">
				<ele>69.0</ele>
				<time>2014-08-17T15:08:33Z</time>
				<extensions>
					<speed>0.0</speed>
				</extensions>
			</trkpt>
			<trkpt lat="53.25732542" lon="-8.92215925">
				<ele>69.0</ele>
				<time>2014-08-17T15:08:34Z</time>
				<extensions>
					<speed>0.0</speed>
				</extensions>
			</trkpt>
			<trkpt lat="53.25732467" lon="-8.92216016">
				<ele>69.0</ele>
				<time>2014-08-17T15:08:35Z</time>
				<extensions>
					<speed>0.0</speed>
				</extensions>
			</trkpt>
			<trkpt lat="53.25732499" lon="-8.92215742">
				<ele>69.0</ele>
				<time>2014-08-17T15:08:36Z</time>
				<extensions>
					<speed>0.0</speed>
				</extensions>
			</trkpt>
			<trkpt lat="53.25732441" lon="-8.92215874">
				<ele>68.0</ele>
				<time>2014-08-17T15:08:37Z</time>
				<extensions>
					<speed>0.0</speed>
				</extensions>
			</trkpt>
			<trkpt lat="53.25732288" lon="-8.92215934">
				<ele>68.0</ele>
				<time>2014-08-17T15:08:38Z</time>
				<extensions>
					<speed>0.0</speed>
				</extensions>
			</trkpt>
			<trkpt lat="53.25732229" lon="-8.92216015">
				<ele>68.0</ele>
				<time>2014-08-17T15:08:39Z</time>
				<extensions>
					<speed>0.0</speed>
				</extensions>
			</trkpt>
			<trkpt lat="53.25732036" lon="-8.92216192">
				<ele>68.0</ele>
				<time>2014-08-17T15:08:40Z</time>
				<extensions>
					<speed>0.0</speed>
				</extensions>
			</trkpt>
			<trkpt lat="53.25732252" lon="-8.92215834">
				<ele>68.0</ele>
				<time>2014-08-17T15:08:41Z</time>
				<extensions>
					<speed>0.0</speed>
				</extensions>
			</trkpt>
			<trkpt lat="53.25732396" lon="-8.92215594">
				<ele>68.0</ele>
				<time>2014-08-17T15:08:42Z</time>
				<extensions>
					<speed>0.0</speed>
				</extensions>
			</trkpt>
			<trkpt lat="53.25732438" lon="-8.92215518">
				<ele>68.0</ele>
				<time>2014-08-17T15:08:43Z</time>
				<extensions>
					<speed>0.0</speed>
				</extensions>
			</trkpt>
			<trkpt lat="53.25732449" lon="-8.92215494">
				<ele>68.0</ele>
				<time>2014-08-17T15:08:44Z</time>
				<extensions>
					<speed>0.0</speed>
				</extensions>
			</trkpt>
			<trkpt lat="53.25732435" lon="-8.92215444">
				<ele>68.0</ele>
				<time>2014-08-17T15:08:45Z</time>
				<extensions>
					<speed>0.0</speed>
				</extensions>
			</trkpt>
			<trkpt lat="53.25732433" lon="-8.92215482">
				<ele>68.0</ele>
				<time>2014-08-17T15:08:46Z</time>
				<extensions>
					<speed>0.0</speed>
				</extensions>
			</trkpt>
			<trkpt lat="53.2573243" lon="-8.92215457">
				<ele>68.0</ele>
				<time>2014-08-17T15:08:47Z</time>
				<extensions>
					<speed>0.0</speed>
				</extensions>
			</trkpt>
			<trkpt lat="53.25732428" lon="-8.92215432">
				<ele>68.0</ele>
				<time>2014-08-17T15:08:48Z</time>
				<extensions>
					<speed>0.0</speed>
				</extensions>
			</trkpt>
			<trkpt lat="53.25732428" lon="-8.92215431">
				<ele>68.0</ele>
				<time>2014-08-17T15:08:49Z</time>
				<extensions>
					<speed>0.0</speed>
				</extensions>
			</trkpt>
			<trkpt lat="53.25732428" lon="-8.92215433">
				<ele>68.0</ele>
				<time>2014-08-17T15:08:50Z</time>
				<extensions>
					<speed>0.0</speed>
				</extensions>
			</trkpt>
			<trkpt lat="53.25732431" lon="-8.92215431">
				<ele>68.0</ele>
				<time>2014-08-17T15:08:51Z</time>
				<extensions>
					<speed>0.0</speed>
				</extensions>
			</trkpt>
			<trkpt lat="53.2573243" lon="-8.92215423">
				<ele>68.0</ele>
				<time>2014-08-17T15:08:52Z</time>
				<extensions>
					<speed>0.0</speed>
				</extensions>
			</trkpt>
			<trkpt lat="53.25732442" lon="-8.92215366">
				<ele>68.0</ele>
				<time>2014-08-17T15:08:53Z</time>
				<extensions>
					<speed>0.0</speed>
				</extensions>
			</trkpt>
			<trkpt lat="53.25732441" lon="-8.92215367">
				<ele>68.0</ele>
				<time>2014-08-17T15:08:54Z</time>
				<extensions>
					<speed>0.0</speed>
				</extensions>
			</trkpt>
			<trkpt lat="53.25732442" lon="-8.92215363">
				<ele>68.0</ele>
				<time>2014-08-17T15:08:55Z</time>
				<extensions>
					<speed>0.0</speed>
				</extensions>
			</trkpt>
			<trkpt lat="53.25732449" lon="-8.92215356">
				<ele>68.0</ele>
				<time>2014-08-17T15:08:56Z</time>
				<extensions>
					<speed>0.0</speed>
				</extensions>
			</trkpt>
			<trkpt lat="53.25732452" lon="-8.92215346">
				<ele>68.0</ele>
				<time>2014-08-17T15:08:57Z</time>
				<extensions>
					<speed>0.0</speed>
				</extensions>
			</trkpt>
			<trkpt lat="53.2573214" lon="-8.92214955">
				<ele>68.0</ele>
				<time>2014-08-17T15:08:58Z</time>
				<extensions>
					<speed>0.75</speed>
				</extensions>
			</trkpt>
			<trkpt lat="53.25730352" lon="-8.92214675">
				<ele>68.0</ele>
				<time>2014-08-17T15:08:59Z</time>
				<extensions>
					<speed>1.25</speed>
				</extensions>
			</trkpt>
			<trkpt lat="53.2572941" lon="-8.92213517">
				<ele>69.0</ele>
				<time>2014-08-17T15:09:00Z</time>
				<extensions>
					<speed>1.25</speed>
				</extensions>
			</trkpt>
			<trkpt lat="53.25728706" lon="-8.92212377">
				<ele>69.0</ele>
				<time>2014-08-17T15:09:01Z</time>
				<extensions>
					<speed>1.25</speed>
				</extensions>
			</trkpt>
			<trkpt lat="53.25726975" lon="-8.92210648">
				<ele>69.0</ele>
				<time>2014-08-17T15:09:02Z</time>
				<extensions>
					<speed>2.0</speed>
				</extensions>
			</trkpt>
			<trkpt lat="53.25724731" lon="-8.92208482">
				<ele>69.0</ele>
				<time>2014-08-17T15:09:03Z</time>
				<extensions>
					<speed>2.75</speed>
				</extensions>
			</trkpt>
			<trkpt lat="53.25722693" lon="-8.92205626">
				<ele>69.0</ele>
				<time>2014-08-17T15:09:04Z</time>
				<extensions>
					<speed>3.0</speed>
				</extensions>
			</trkpt>
			<trkpt lat="53.25720348" lon="-8.92202636">
				<ele>68.0</ele>
				<time>2014-08-17T15:09:05Z</time>
				<extensions>
					<speed>3.25</speed>
				</extensions>
			</trkpt>
			<trkpt lat="53.25717865" lon="-8.92199895">
				<ele>68.0</ele>
				<time>2014-08-17T15:09:06Z</time>
				<extensions>
					<speed>3.25</speed>
				</extensions>
			</trkpt>
			<trkpt lat="53.25715634" lon="-8.92196963">
				<ele>68.0</ele>
				<time>2014-08-17T15:09:07Z</time>
				<extensions>
					<speed>3.0</speed>
				</extensions>
			</trkpt>
			<trkpt lat="53.25713869" lon="-8.92194304">
				<ele>67.0</ele>
				<time>2014-08-17T15:09:08Z</time>
				<extensions>
					<speed>2.75</speed>
				</extensions>
			</trkpt>
			<trkpt lat="53.25712205" lon="-8.92192918">
				<ele>68.0</ele>
				<time>2014-08-17T15:09:09Z</time>
				<extensions>
					<speed>2.25</speed>
				</extensions>
			</trkpt>
			<trkpt lat="53.25711539" lon="-8.92191874">
				<ele>68.0</ele>
				<time>2014-08-17T15:09:10Z</time>
				<extensions>
					<speed>1.0</speed>
				</extensions>
			</trkpt>
			<trkpt lat="53.25711379" lon="-8.92191595">
				<ele>68.0</ele>
				<time>2014-08-17T15:09:11Z</time>
				<extensions>
					<speed>0.25</speed>
				</extensions>
			</trkpt>
			<trkpt lat="53.25711126" lon="-8.92191709">
				<ele>68.0</ele>
				<time>2014-08-17T15:09:12Z</time>
				<extensions>
					<speed>0.0</speed>
				</extensions>
			</trkpt>
			<trkpt lat="53.25711053" lon="-8.92191903">
				<ele>68.0</ele>
				<time>2014-08-17T15:09:13Z</time>
				<extensions>
					<speed>0.0</speed>
				</extensions>
			</trkpt>
			<trkpt lat="53.25710968" lon="-8.92192021">
				<ele>68.0</ele>
				<time>2014-08-17T15:09:14Z</time>
				<extensions>
					<speed>0.0</speed>
				</extensions>
			</trkpt>
			<trkpt lat="53.25710959" lon="-8.92191847">
				<ele>68.0</ele>
				<time>2014-08-17T15:09:15Z</time>
				<extensions>
					<speed>0.0</speed>
				</extensions>
			</trkpt>
			<trkpt lat="53.25711074" lon="-8.92191869">
				<ele>68.0</ele>
				<time>2014-08-17T15:09:16Z</time>
				<extensions>
					<speed>0.0</speed>
				</extensions>
			</trkpt>
			<trkpt lat="53.25711" lon="-8.9219202">
				<ele>68.0</ele>
				<time>2014-08-17T15:09:17Z</time>
				<extensions>
					<speed>0.0</speed>
				</extensions>
			</trkpt>
			<trkpt lat="53.25710891" lon="-8.92191924">
				<ele>68.0</ele>
				<time>2014-08-17T15:09:18Z</time>
				<extensions>
					<speed>0.0</speed>
				</extensions>
			</trkpt>
			<trkpt lat="53.25710913" lon="-8.92192064">
				<ele>68.0</ele>
				<time>2014-08-17T15:09:19Z</time>
				<extensions>
					<speed>0.0</speed>
				</extensions>
			</trkpt>
			<trkpt lat="53.25710843" lon="-8.92191918">
				<ele>68.0</ele>
				<time>2014-08-17T15:09:20Z</time>
				<extensions>
					<speed>0.0</speed>
				</extensions>
			</trkpt>
			<trkpt lat="53.25710934" lon="-8.92192344">
				<ele>68.0</ele>
				<time>2014-08-17T15:09:21Z</time>
				<extensions>
					<speed>0.0</speed>
				</extensions>
			</trkpt>
			<trkpt lat="53.257109" lon="-8.92192213">
				<ele>68.0</ele>
				<time>2014-08-17T15:09:22Z</time>
				<extensions>
					<speed>0.0</speed>
				</extensions>
			</trkpt>
			<trkpt lat="53.25710884" lon="-8.92192251">
				<ele>68.0</ele>
				<time>2014-08-17T15:09:23Z</time>
				<extensions>
					<speed>0.0</speed>
				</extensions>
			</trkpt>
			<trkpt lat="53.25710874" lon="-8.92192259">
				<ele>68.0</ele>
				<time>2014-08-17T15:09:24Z</time>
				<extensions>
					<speed>0.0</speed>
				</extensions>
			</trkpt>
			<trkpt lat="53.25710875" lon="-8.92192261">
				<ele>68.0</ele>
				<time>2014-08-17T15:09:25Z</time>
				<extensions>
					<speed>0.0</speed>
				</extensions>
			</trkpt>
			<trkpt lat="53.25710875" lon="-8.92192261">
				<ele>68.0</ele>
				<time>2014-08-17T15:09:26Z</time>
				<extensions>
					<speed>0.0</speed>
				</extensions>
			</trkpt>
			<trkpt lat="53.25710875" lon="-8.92192261">
				<ele>68.0</ele>
				<time>2014-08-17T15:09:27Z</time>
				<extensions>
					<speed>0.0</speed>
				</extensions>
			</trkpt>
			<trkpt lat="53.25710875" lon="-8.9219226">
				<ele>68.0</ele>
				<time>2014-08-17T15:09:28Z</time>
				<extensions>
					<speed>0.0</speed>
				</extensions>
			</trkpt>
			<trkpt lat="53.25710875" lon="-8.92192263">
				<ele>68.0</ele>
				<time>2014-08-17T15:09:29Z</time>
				<extensions>
					<speed>0.0</speed>
				</extensions>
			</trkpt>
			<trkpt lat="53.25710872" lon="-8.92192264">
				<ele>68.0</ele>
				<time>2014-08-17T15:09:30Z</time>
				<extensions>
					<speed>0.0</speed>
				</extensions>
			</trkpt>
			<trkpt lat="53.25710868" lon="-8.92192262">
				<ele>68.0</ele>
				<time>2014-08-17T15:09:31Z</time>
				<extensions>
					<speed>0.0</speed>
				</extensions>
			</trkpt>
			<trkpt lat="53.25710867" lon="-8.92192265">
				<ele>68.0</ele>
				<time>2014-08-17T15:09:32Z</time>
				<extensions>
					<speed>0.0</speed>
				</extensions>
			</trkpt>
			<trkpt lat="53.25710867" lon="-8.92192268">
				<ele>68.0</ele>
				<time>2014-08-17T15:09:33Z</time>
				<extensions>
					<speed>0.0</speed>
				</extensions>
			</trkpt>
			<trkpt lat="53.25710866" lon="-8.9219227">
				<ele>68.0</ele>
				<time>2014-08-17T15:09:34Z</time>
				<extensions>
					<speed>0.0</speed>
				</extensions>
			</trkpt>
			<trkpt lat="53.25710867" lon="-8.92192267">
				<ele>68.0</ele>
				<time>2014-08-17T15:09:35Z</time>
				<extensions>
					<speed>0.0</speed>
				</extensions>
			</trkpt>
			<trkpt lat="53.2571087" lon="-8.92192265">
				<ele>68.0</ele>
				<time>2014-08-17T15:09:36Z</time>
				<extensions>
					<speed>0.0</speed>
				</extensions>
			</trkpt>
			<trkpt lat="53.25710713" lon="-8.92192114">
				<ele>68.0</ele>
				<time>2014-08-17T15:09:37Z</time>
				<extensions>
					<speed>1.0</speed>
				</extensions>
			</trkpt>
			<trkpt lat="53.25708825" lon="-8.92190291">
				<ele>68.0</ele>
				<time>2014-08-17T15:09:38Z</time>
				<extensions>
					<speed>2.0</speed>
				</extensions>
			</trkpt>
			<trkpt lat="53.25706564" lon="-8.92188562">
				<ele>69.0</ele>
				<time>2014-08-17T15:09:39Z</time>
				<extensions>
					<speed>2.25</speed>
				</extensions>
			</trkpt>
			<trkpt lat="53.25704589" lon="-8.92187096">
				<ele>69.0</ele>
				<time>2014-08-17T15:09:40Z</time>
				<extensions>
					<speed>2.5</speed>
				</extensions>
			</trkpt>
			<trkpt lat="53.25702303" lon="-8.92185136">
				<ele>69.0</ele>
				<time>2014-08-17T15:09:41Z</time>
				<extensions>
					<speed>2.75</speed>
				</extensions>
			</trkpt>
			<trkpt lat="53.2570028" lon="-8.92183002">
				<ele>69.0</ele>
				<time>2014-08-17T15:09:42Z</time>
				<extensions>
					<speed>2.75</speed>
				</extensions>
			</trkpt>
			<trkpt lat="53.25698257" lon="-8.92180868">
				<ele>69.0</ele>
				<time>2014-08-17T15:09:43Z</time>
				<extensions>
					<speed>2.75</speed>
				</extensions>
			</trkpt>
			<trkpt lat="53.2569715" lon="-8.9218149">
				<ele>68.0</ele>
				<time>2014-08-17T15:09:44Z</time>
				<extensions>
					<speed>1.5</speed>
				</extensions>
			</trkpt>
			<trkpt lat="53.25696776" lon="-8.92181675">
				<ele>68.0</ele>
				<time>2014-08-17T15:09:45Z</time>
				<extensions>
					<speed>0.5</speed>
				</extensions>
			</trkpt>
			<trkpt lat="53.256973" lon="-8.92181274">
				<ele>69.0</ele>
				<time>2014-08-17T15:09:46Z</time>
				<extensions>
					<speed>0.0</speed>
				</extensions>
			</trkpt>
			<trkpt lat="53.25697589" lon="-8.92180999">
				<ele>69.0</ele>
				<time>2014-08-17T15:09:47Z</time>
				<extensions>
					<speed>0.0</speed>
				</extensions>
			</trkpt>
			<trkpt lat="53.25697846" lon="-8.92181036">
				<ele>69.0</ele>
				<time>2014-08-17T15:09:48Z</time>
				<extensions>
					<speed>0.0</speed>
				</extensions>
			</trkpt>
			<trkpt lat="53.25698041" lon="-8.92181211">
				<ele>69.0</ele>
				<time>2014-08-17T15:09:49Z</time>
				<extensions>
					<speed>0.0</speed>
				</extensions>
			</trkpt>
			<trkpt lat="53.25698089" lon="-8.92181367">
				<ele>69.0</ele>
				<time>2014-08-17T15:09:50Z</time>
				<extensions>
					<speed>0.0</speed>
				</extensions>
			</trkpt>
			<trkpt lat="53.25698063" lon="-8.92181738">
				<ele>69.0</ele>
				<time>2014-08-17T15:09:51Z</time>
				<extensions>
					<speed>0.0</speed>
				</extensions>
			</trkpt>
			<trkpt lat="53.25698058" lon="-8.92181941">
				<ele>68.0</ele>
				<time>2014-08-17T15:09:52Z</time>
				<extensions>
					<speed>0.0</speed>
				</extensions>
			</trkpt>
			<trkpt lat="53.25698241" lon="-8.92181779">
				<ele>69.0</ele>
				<time>2014-08-17T15:09:53Z</time>
				<extensions>
					<speed>0.0</speed>
				</extensions>
			</trkpt>
			<trkpt lat="53.25698332" lon="-8.92181796">
				<ele>69.0</ele>
				<time>2014-08-17T15:09:54Z</time>
				<extensions>
					<speed>0.0</speed>
				</extensions>
			</trkpt>
			<trkpt lat="53.25698386" lon="-8.92181846">
				<ele>69.0</ele>
				<time>2014-08-17T15:09:55Z</time>
				<extensions>
					<speed>0.0</speed>
				</extensions>
			</trkpt>
			<trkpt lat="53.25698404" lon="-8.92181774">
				<ele>69.0</ele>
				<time>2014-08-17T15:09:56Z</time>
				<extensions>
					<speed>0.0</speed>
				</extensions>
			</trkpt>
			<trkpt lat="53.2569839" lon="-8.92181793">
				<ele>69.0</ele>
				<time>2014-08-17T15:09:57Z</time>
				<extensions>
					<speed>0.0</speed>
				</extensions>
			</trkpt>
			<trkpt lat="53.25698386" lon="-8.92181797">
				<ele>69.0</ele>
				<time>2014-08-17T15:09:58Z</time>
				<extensions>
					<speed>0.0</speed>
				</extensions>
			</trkpt>
			<trkpt lat="53.25698387" lon="-8.92181799">
				<ele>69.0</ele>
				<time>2014-08-17T15:09:59Z</time>
				<extensions>
					<speed>0.0</speed>
				</extensions>
			</trkpt>
			<trkpt lat="53.25698386" lon="-8.92181802">
				<ele>69.0</ele>
				<time>2014-08-17T15:10:00Z</time>
				<extensions>
					<speed>0.0</speed>
				</extensions>
			</trkpt>
			<trkpt lat="53.25698387" lon="-8.92181799">
				<ele>69.0</ele>
				<time>2014-08-17T15:10:01Z</time>
				<extensions>
					<speed>0.0</speed>
				</extensions>
			</trkpt>
			<trkpt lat="53.25698386" lon="-8.92181794">
				<ele>69.0</ele>
				<time>2014-08-17T15:10:02Z</time>
				<extensions>
					<speed>0.0</speed>
				</extensions>
			</trkpt>
			<trkpt lat="53.25698317" lon="-8.92181702">
				<ele>69.0</ele>
				<time>2014-08-17T15:10:03Z</time>
				<extensions>
					<speed>0.75</speed>
				</extensions>
			</trkpt>
			<trkpt lat="53.25696572" lon="-8.92179908">
				<ele>69.0</ele>
				<time>2014-08-17T15:10:04Z</time>
				<extensions>
					<speed>2.25</speed>
				</extensions>
			</trkpt>
			<trkpt lat="53.25694582" lon="-8.92178485">
				<ele>68.0</ele>
				<time>2014-08-17T15:10:05Z</time>
				<extensions>
					<speed>2.5</speed>
				</extensions>
			</trkpt>
			<trkpt lat="53.25692688" lon="-8.92175067">
				<ele>68.0</ele>
				<time>2014-08-17T15:10:06Z</time>
				<extensions>
					<speed>3.0</speed>
				</extensions>
			</trkpt>
			<trkpt lat="53.2569071" lon="-8.9217099">
				<ele>68.0</ele>
				<time>2014-08-17T15:10:07Z</time>
				<extensions>
					<speed>3.75</speed>
				</extensions>
			</trkpt>
			<trkpt lat="53.25689829" lon="-8.92165107">
				<ele>68.0</ele>
				<time>2014-08-17T15:10:08Z</time>
				<extensions>
					<speed>4.0</speed>
				</extensions>
			</trkpt>
			<trkpt lat="53.25691024" lon="-8.92159268">
				<ele>68.0</ele>
				<time>2014-08-17T15:10:09Z</time>
				<extensions>
					<speed>4.0</speed>
				</extensions>
			</trkpt>
			<trkpt lat="53.25692419" lon="-8.92155075">
				<ele>67.0</ele>
				<time>2014-08-17T15:10:10Z</time>
				<extensions>
					<speed>3.5</speed>
				</extensions>
			</trkpt>
			<trkpt lat="53.2569411" lon="-8.92151656">
				<ele>67.0</ele>
				<time>2014-08-17T15:10:11Z</time>
				<extensions>
					<speed>3.5</speed>
				</extensions>
			</trkpt>
			<trkpt lat="53.25696275" lon="-8.92146524">
				<ele>67.0</ele>
				<time>2014-08-17T15:10:12Z</time>
				<extensions>
					<speed>3.0</speed>
				</extensions>
			</trkpt>
			<trkpt lat="53.25697753" lon="-8.92143299">
				<ele>67.0</ele>
				<time>2014-08-17T15:10:13Z</time>
				<extensions>
					<speed>2.5</speed>
				</extensions>
			</trkpt>
			<trkpt lat="53.25699102" lon="-8.92140992">
				<ele>67.0</ele>
				<time>2014-08-17T15:10:14Z</time>
				<extensions>
					<speed>1.5</speed>
				</extensions>
			</trkpt>
			<trkpt lat="53.25699483" lon="-8.92139856">
				<ele>67.0</ele>
				<time>2014-08-17T15:10:15Z</time>
				<extensions>
					<speed>0.75</speed>
				</extensions>
			</trkpt>
			<trkpt lat="53.2569966" lon="-8.92139637">
				<ele>67.0</ele>
				<time>2014-08-17T15:10:16Z</time>
				<extensions>
					<speed>0.0</speed>
				</extensions>
			</trkpt>
			<trkpt lat="53.25699666" lon="-8.92140225">
				<ele>67.0</ele>
				<time>2014-08-17T15:10:17Z</time>
				<extensions>
					<speed>0.0</speed>
				</extensions>
			</trkpt>
			<trkpt lat="53.25699565" lon="-8.92139866">
				<ele>66.0</ele>
				<time>2014-08-17T15:10:18Z</time>
				<extensions>
					<speed>0.0</speed>
				</extensions>
			</trkpt>
			<trkpt lat="53.25699565" lon="-8.92139866">
				<ele>66.0</ele>
				<time>2014-08-17T15:10:19Z</time>
				<extensions>
					<speed>0.0</speed>
				</extensions>
			</trkpt>
			<trkpt lat="53.25699565" lon="-8.92139866">
				<ele>66.0</ele>
				<time>2014-08-17T15:10:20Z</time>
				<extensions>
					<speed>0.0</speed>
				</extensions>
			</trkpt>
			<trkpt lat="53.25699741" lon="-8.92139992">
				<ele>66.0</ele>
				<time>2014-08-17T15:10:21Z</time>
				<extensions>
					<speed>0.0</speed>
				</extensions>
			</trkpt>
			<trkpt lat="53.25699904" lon="-8.92140367">
				<ele>66.0</ele>
				<time>2014-08-17T15:10:22Z</time>
				<extensions>
					<speed>0.0</speed>
				</extensions>
			</trkpt>
			<trkpt lat="53.25699674" lon="-8.92140562">
				<ele>66.0</ele>
				<time>2014-08-17T15:10:23Z</time>
				<extensions>
					<speed>0.0</speed>
				</extensions>
			</trkpt>
			<trkpt lat="53.25699722" lon="-8.92140546">
				<ele>66.0</ele>
				<time>2014-08-17T15:10:24Z</time>
				<extensions>
					<speed>0.0</speed>
				</extensions>
			</trkpt>
			<trkpt lat="53.25699739" lon="-8.92140636">
				<ele>66.0</ele>
				<time>2014-08-17T15:10:25Z</time>
				<extensions>
					<speed>0.0</speed>
				</extensions>
			</trkpt>
			<trkpt lat="53.25699672" lon="-8.92140685">
				<ele>66.0</ele>
				<time>2014-08-17T15:10:26Z</time>
				<extensions>
					<speed>0.0</speed>
				</extensions>
			</trkpt>
			<trkpt lat="53.25699666" lon="-8.92140535">
				<ele>66.0</ele>
				<time>2014-08-17T15:10:27Z</time>
				<extensions>
					<speed>0.0</speed>
				</extensions>
			</trkpt>
			<trkpt lat="53.2569972" lon="-8.92140266">
				<ele>66.0</ele>
				<time>2014-08-17T15:10:28Z</time>
				<extensions>
					<speed>1.5</speed>
				</extensions>
			</trkpt>
			<trkpt lat="53.25700459" lon="-8.92137384">
				<ele>67.0</ele>
				<time>2014-08-17T15:10:29Z</time>
				<extensions>
					<speed>2.0</speed>
				</extensions>
			</trkpt>
			<trkpt lat="53.2570069" lon="-8.92132921">
				<ele>69.0</ele>
				<time>2014-08-17T15:10:30Z</time>
				<extensions>
					<speed>2.0</speed>
				</extensions>
			</trkpt>
			<trkpt lat="53.25701354" lon="-8.92130817">
				<ele>69.0</ele>
				<time>2014-08-17T15:10:31Z</time>
				<extensions>
					<speed>0.75</speed>
				</extensions>
			</trkpt>
			<trkpt lat="53.25701987" lon="-8.92130359">
				<ele>69.0</ele>
				<time>2014-08-17T15:10:32Z</time>
				<extensions>
					<speed>0.25</speed>
				</extensions>
			</trkpt>
			<trkpt lat="53.25701988" lon="-8.92130828">
				<ele>69.0</ele>
				<time>2014-08-17T15:10:33Z</time>
				<extensions>
					<speed>0.75</speed>
				</extensions>
			</trkpt>
			<trkpt lat="53.2570183" lon="-8.9213179">
				<ele>69.0</ele>
				<time>2014-08-17T15:10:34Z</time>
				<extensions>
					<speed>0.75</speed>
				</extensions>
			</trkpt>
			<trkpt lat="53.25701278" lon="-8.9213491">
				<ele>67.0</ele>
				<time>2014-08-17T15:10:35Z</time>
				<extensions>
					<speed>1.5</speed>
				</extensions>
			</trkpt>
			<trkpt lat="53.25699977" lon="-8.92136491">
				<ele>67.0</ele>
				<time>2014-08-17T15:10:36Z</time>
				<extensions>
					<speed>1.75</speed>
				</extensions>
			</trkpt>
			<trkpt lat="53.25698557" lon="-8.92138541">
				<ele>66.0</ele>
				<time>2014-08-17T15:10:37Z</time>
				<extensions>
					<speed>1.5</speed>
				</extensions>
			</trkpt>
			<trkpt lat="53.25697258" lon="-8.92139891">
				<ele>66.0</ele>
				<time>2014-08-17T15:10:38Z</time>
				<extensions>
					<speed>1.5</speed>
				</extensions>
			</trkpt>
			<trkpt lat="53.25695967" lon="-8.9213929">
				<ele>65.0</ele>
				<time>2014-08-17T15:10:39Z</time>
				<extensions>
					<speed>1.0</speed>
				</extensions>
			</trkpt>
			<trkpt lat="53.25695538" lon="-8.92139318">
				<ele>65.0</ele>
				<time>2014-08-17T15:10:40Z</time>
				<extensions>
					<speed>0.75</speed>
				</extensions>
			</trkpt>
			<trkpt lat="53.25695079" lon="-8.9213924">
				<ele>64.0</ele>
				<time>2014-08-17T15:10:41Z</time>
				<extensions>
					<speed>0.0</speed>
				</extensions>
			</trkpt>
			<trkpt lat="53.25695478" lon="-8.92139441">
				<ele>64.0</ele>
				<time>2014-08-17T15:10:42Z</time>
				<extensions>
					<speed>0.0</speed>
				</extensions>
			</trkpt>
			<trkpt lat="53.25695318" lon="-8.92139743">
				<ele>63.0</ele>
				<time>2014-08-17T15:10:43Z</time>
				<extensions>
					<speed>0.0</speed>
				</extensions>
			</trkpt>
			<trkpt lat="53.25695314" lon="-8.9213996">
				<ele>63.0</ele>
				<time>2014-08-17T15:10:44Z</time>
				<extensions>
					<speed>1.25</speed>
				</extensions>
			</trkpt>
			<trkpt lat="53.25695497" lon="-8.9214225">
				<ele>63.0</ele>
				<time>2014-08-17T15:10:45Z</time>
				<extensions>
					<speed>2.0</speed>
				</extensions>
			</trkpt>
			<trkpt lat="53.25694729" lon="-8.92145349">
				<ele>64.0</ele>
				<time>2014-08-17T15:10:46Z</time>
				<extensions>
					<speed>2.75</speed>
				</extensions>
			</trkpt>
			<trkpt lat="53.25693286" lon="-8.92149353">
				<ele>64.0</ele>
				<time>2014-08-17T15:10:47Z</time>
				<extensions>
					<speed>3.25</speed>
				</extensions>
			</trkpt>
			<trkpt lat="53.25691677" lon="-8.92153321">
				<ele>64.0</ele>
				<time>2014-08-17T15:10:48Z</time>
				<extensions>
					<speed>3.25</speed>
				</extensions>
			</trkpt>
			<trkpt lat="53.25690068" lon="-8.92157289">
				<ele>63.0</ele>
				<time>2014-08-17T15:10:49Z</time>
				<extensions>
					<speed>3.25</speed>
				</extensions>
			</trkpt>
			<trkpt lat="53.25687797" lon="-8.9216149">
				<ele>64.0</ele>
				<time>2014-08-17T15:10:50Z</time>
				<extensions>
					<speed>3.0</speed>
				</extensions>
			</trkpt>
			<trkpt lat="53.25687451" lon="-8.92166">
				<ele>63.0</ele>
				<time>2014-08-17T15:10:51Z</time>
				<extensions>
					<speed>3.25</speed>
				</extensions>
			</trkpt>
			<trkpt lat="53.25688523" lon="-8.92170615">
				<ele>63.0</ele>
				<time>2014-08-17T15:10:52Z</time>
				<extensions>
					<speed>3.75</speed>
				</extensions>
			</trkpt>
			<trkpt lat="53.25690802" lon="-8.92174909">
				<ele>62.0</ele>
				<time>2014-08-17T15:10:53Z</time>
				<extensions>
					<speed>4.25</speed>
				</extensions>
			</trkpt>
			<trkpt lat="53.25693774" lon="-8.92180137">
				<ele>62.0</ele>
				<time>2014-08-17T15:10:54Z</time>
				<extensions>
					<speed>5.0</speed>
				</extensions>
			</trkpt>
			<trkpt lat="53.25698963" lon="-8.92184193">
				<ele>62.0</ele>
				<time>2014-08-17T15:10:55Z</time>
				<extensions>
					<speed>5.75</speed>
				</extensions>
			</trkpt>
			<trkpt lat="53.25703278" lon="-8.9218815">
				<ele>62.0</ele>
				<time>2014-08-17T15:10:56Z</time>
				<extensions>
					<speed>5.75</speed>
				</extensions>
			</trkpt>
			<trkpt lat="53.25707931" lon="-8.92191534">
				<ele>63.0</ele>
				<time>2014-08-17T15:10:57Z</time>
				<extensions>
					<speed>5.75</speed>
				</extensions>
			</trkpt>
			<trkpt lat="53.25712144" lon="-8.92195069">
				<ele>63.0</ele>
				<time>2014-08-17T15:10:58Z</time>
				<extensions>
					<speed>5.25</speed>
				</extensions>
			</trkpt>
			<trkpt lat="53.25716395" lon="-8.92197201">
				<ele>64.0</ele>
				<time>2014-08-17T15:10:59Z</time>
				<extensions>
					<speed>5.0</speed>
				</extensions>
			</trkpt>
			<trkpt lat="53.25720879" lon="-8.92196202">
				<ele>64.0</ele>
				<time>2014-08-17T15:11:00Z</time>
				<extensions>
					<speed>4.5</speed>
				</extensions>
			</trkpt>
			<trkpt lat="53.25723406" lon="-8.92193202">
				<ele>64.0</ele>
				<time>2014-08-17T15:11:01Z</time>
				<extensions>
					<speed>4.5</speed>
				</extensions>
			</trkpt>
			<trkpt lat="53.25726974" lon="-8.92190571">
				<ele>65.0</ele>
				<time>2014-08-17T15:11:02Z</time>
				<extensions>
					<speed>4.5</speed>
				</extensions>
			</trkpt>
			<trkpt lat="53.25730434" lon="-8.9218892">
				<ele>65.0</ele>
				<time>2014-08-17T15:11:03Z</time>
				<extensions>
					<speed>4.0</speed>
				</extensions>
			</trkpt>
			<trkpt lat="53.2573308" lon="-8.92188171">
				<ele>65.0</ele>
				<time>2014-08-17T15:11:04Z</time>
				<extensions>
					<speed>3.75</speed>
				</extensions>
			</trkpt>
			<trkpt lat="53.25736414" lon="-8.92186481">
				<ele>65.0</ele>
				<time>2014-08-17T15:11:05Z</time>
				<extensions>
					<speed>3.25</speed>
				</extensions>
			</trkpt>
			<trkpt lat="53.25738271" lon="-8.92184352">
				<ele>65.0</ele>
				<time>2014-08-17T15:11:06Z</time>
				<extensions>
					<speed>2.75</speed>
				</extensions>
			</trkpt>
			<trkpt lat="53.25739981" lon="-8.92181705">
				<ele>65.0</ele>
				<time>2014-08-17T15:11:07Z</time>
				<extensions>
					<speed>2.5</speed>
				</extensions>
			</trkpt>
			<trkpt lat="53.25741164" lon="-8.9217914">
				<ele>65.0</ele>
				<time>2014-08-17T15:11:08Z</time>
				<extensions>
					<speed>1.75</speed>
				</extensions>
			</trkpt>
			<trkpt lat="53.25742071" lon="-8.92177662">
				<ele>65.0</ele>
				<time>2014-08-17T15:11:09Z</time>
				<extensions>
					<speed>1.0</speed>
				</extensions>
			</trkpt>
			<trkpt lat="53.25742252" lon="-8.92177298">
				<ele>65.0</ele>
				<time>2014-08-17T15:11:10Z</time>
				<extensions>
					<speed>0.5</speed>
				</extensions>
			</trkpt>
			<trkpt lat="53.25742108" lon="-8.92177606">
				<ele>65.0</ele>
				<time>2014-08-17T15:11:11Z</time>
				<extensions>
					<speed>0.0</speed>
				</extensions>
			</trkpt>
			<trkpt lat="53.25742392" lon="-8.92177278">
				<ele>65.0</ele>
				<time>2014-08-17T15:11:12Z</time>
				<extensions>
					<speed>0.0</speed>
				</extensions>
			</trkpt>
			<trkpt lat="53.2574237" lon="-8.92177268">
				<ele>65.0</ele>
				<time>2014-08-17T15:11:13Z</time>
				<extensions>
					<speed>0.0</speed>
				</extensions>
			</trkpt>
			<trkpt lat="53.25742266" lon="-8.92177293">
				<ele>65.0</ele>
				<time>2014-08-17T15:11:14Z</time>
				<extensions>
					<speed>0.0</speed>
				</extensions>
			</trkpt>
			<trkpt lat="53.25742239" lon="-8.92177565">
				<ele>66.0</ele>
				<time>2014-08-17T15:11:15Z</time>
				<extensions>
					<speed>0.0</speed>
				</extensions>
			</trkpt>
			<trkpt lat="53.25742409" lon="-8.92177552">
				<ele>66.0</ele>
				<time>2014-08-17T15:11:16Z</time>
				<extensions>
					<speed>0.0</speed>
				</extensions>
			</trkpt>
			<trkpt lat="53.25742449" lon="-8.92177312">
				<ele>66.0</ele>
				<time>2014-08-17T15:11:17Z</time>
				<extensions>
					<speed>0.0</speed>
				</extensions>
			</trkpt>
			<trkpt lat="53.25742508" lon="-8.92177505">
				<ele>66.0</ele>
				<time>2014-08-17T15:11:18Z</time>
				<extensions>
					<speed>0.0</speed>
				</extensions>
			</trkpt>
			<trkpt lat="53.25742631" lon="-8.92177562">
				<ele>66.0</ele>
				<time>2014-08-17T15:11:19Z</time>
				<extensions>
					<speed>0.0</speed>
				</extensions>
			</trkpt>
			<trkpt lat="53.25742739" lon="-8.92177414">
				<ele>66.0</ele>
				<time>2014-08-17T15:11:20Z</time>
				<extensions>
					<speed>0.0</speed>
				</extensions>
			</trkpt>
			<trkpt lat="53.25742799" lon="-8.92177308">
				<ele>66.0</ele>
				<time>2014-08-17T15:11:21Z</time>
				<extensions>
					<speed>0.0</speed>
				</extensions>
			</trkpt>
			<trkpt lat="53.25742773" lon="-8.92177299">
				<ele>66.0</ele>
				<time>2014-08-17T15:11:22Z</time>
				<extensions>
					<speed>0.0</speed>
				</extensions>
			</trkpt>
			<trkpt lat="53.25742901" lon="-8.92176996">
				<ele>66.0</ele>
				<time>2014-08-17T15:11:23Z</time>
				<extensions>
					<speed>1.25</speed>
				</extensions>
			</trkpt>
			<trkpt lat="53.25744601" lon="-8.92173667">
				<ele>66.0</ele>
				<time>2014-08-17T15:11:24Z</time>
				<extensions>
					<speed>2.5</speed>
				</extensions>
			</trkpt>
			<trkpt lat="53.25746558" lon="-8.92169574">
				<ele>67.0</ele>
				<time>2014-08-17T15:11:25Z</time>
				<extensions>
					<speed>3.5</speed>
				</extensions>
			</trkpt>
			<trkpt lat="53.25748393" lon="-8.9216527">
				<ele>68.0</ele>
				<time>2014-08-17T15:11:26Z</time>
				<extensions>
					<speed>3.5</speed>
				</extensions>
			</trkpt>
			<trkpt lat="53.2575026" lon="-8.92161153">
				<ele>68.0</ele>
				<time>2014-08-17T15:11:27Z</time>
				<extensions>
					<speed>3.5</speed>
				</extensions>
			</trkpt>
			<trkpt lat="53.25752127" lon="-8.92157037">
				<ele>68.0</ele>
				<time>2014-08-17T15:11:28Z</time>
				<extensions>
					<speed>3.5</speed>
				</extensions>
			</trkpt>
			<trkpt lat="53.25754858" lon="-8.92151312">
				<ele>68.0</ele>
				<time>2014-08-17T15:11:29Z</time>
				<extensions>
					<speed>3.25</speed>
				</extensions>
			</trkpt>
			<trkpt lat="53.25756559" lon="-8.92148435">
				<ele>67.0</ele>
				<time>2014-08-17T15:11:30Z</time>
				<extensions>
					<speed>2.75</speed>
				</extensions>
			</trkpt>
			<trkpt lat="53.25758425" lon="-8.9214509">
				<ele>67.0</ele>
				<time>2014-08-17T15:11:31Z</time>
				<extensions>
					<speed>2.75</speed>
				</extensions>
			</trkpt>
			<trkpt lat="53.25759743" lon="-8.92142894">
				<ele>67.0</ele>
				<time>2014-08-17T15:11:32Z</time>
				<extensions>
					<speed>2.25</speed>
				</extensions>
			</trkpt>
			<trkpt lat="53.2576088" lon="-8.92140813">
				<ele>67.0</ele>
				<time>2014-08-17T15:11:33Z</time>
				<extensions>
					<speed>1.75</speed>
				</extensions>
			</trkpt>
			<trkpt lat="53.25761499" lon="-8.92138732">
				<ele>67.0</ele>
				<time>2014-08-17T15:11:34Z</time>
				<extensions>
					<speed>1.25</speed>
				</extensions>
			</trkpt>
			<trkpt lat="53.25761726" lon="-8.92137897">
				<ele>67.0</ele>
				<time>2014-08-17T15:11:35Z</time>
				<extensions>
					<speed>0.5</speed>
				</extensions>
			</trkpt>
			<trkpt lat="53.25761583" lon="-8.92138124">
				<ele>67.0</ele>
				<time>2014-08-17T15:11:36Z</time>
				<extensions>
					<speed>0.0</speed>
				</extensions>
			</trkpt>
			<trkpt lat="53.25762094" lon="-8.92138126">
				<ele>67.0</ele>
				<time>2014-08-17T15:11:37Z</time>
				<extensions>
					<speed>0.0</speed>
				</extensions>
			</trkpt>
			<trkpt lat="53.25761899" lon="-8.92138644">
				<ele>66.0</ele>
				<time>2014-08-17T15:11:38Z</time>
				<extensions>
					<speed>0.0</speed>
				</extensions>
			</trkpt>
			<trkpt lat="53.25761814" lon="-8.92138785">
				<ele>67.0</ele>
				<time>2014-08-17T15:11:39Z</time>
				<extensions>
					<speed>0.0</speed>
				</extensions>
			</trkpt>
			<trkpt lat="53.25761659" lon="-8.92139493">
				<ele>67.0</ele>
				<time>2014-08-17T15:11:40Z</time>
				<extensions>
					<speed>0.0</speed>
				</extensions>
			</trkpt>
			<trkpt lat="53.2576169" lon="-8.9213951">
				<ele>67.0</ele>
				<time>2014-08-17T15:11:41Z</time>
				<extensions>
					<speed>0.0</speed>
				</extensions>
			</trkpt>
			<trkpt lat="53.25762007" lon="-8.92139204">
				<ele>67.0</ele>
				<time>2014-08-17T15:11:42Z</time>
				<extensions>
					<speed>0.0</speed>
				</extensions>
			</trkpt>
			<trkpt lat="53.25761812" lon="-8.92139267">
				<ele>67.0</ele>
				<time>2014-08-17T15:11:43Z</time>
				<extensions>
					<speed>0.0</speed>
				</extensions>
			</trkpt>
			<trkpt lat="53.25761689" lon="-8.92139408">
				<ele>67.0</ele>
				<time>2014-08-17T15:11:44Z</time>
				<extensions>
					<speed>0.75</speed>
				</extensions>
			</trkpt>
			<trkpt lat="53.25761274" lon="-8.92141394">
				<ele>66.0</ele>
				<time>2014-08-17T15:11:45Z</time>
				<extensions>
					<speed>1.25</speed>
				</extensions>
			</trkpt>
			<trkpt lat="53.25760623" lon="-8.92142996">
				<ele>66.0</ele>
				<time>2014-08-17T15:11:46Z</time>
				<extensions>
					<speed>0.75</speed>
				</extensions>
			</trkpt>
			<trkpt lat="53.25760465" lon="-8.92143877">
				<ele>66.0</ele>
				<time>2014-08-17T15:11:47Z</time>
				<extensions>
					<speed>1.0</speed>
				</extensions>
			</trkpt>
			<trkpt lat="53.25759167" lon="-8.9214466">
				<ele>66.0</ele>
				<time>2014-08-17T15:11:48Z</time>
				<extensions>
					<speed>1.5</speed>
				</extensions>
			</trkpt>
			<trkpt lat="53.25758122" lon="-8.92145463">
				<ele>66.0</ele>
				<time>2014-08-17T15:11:49Z</time>
				<extensions>
					<speed>1.25</speed>
				</extensions>
			</trkpt>
			<trkpt lat="53.25756905" lon="-8.92146338">
				<ele>69.0</ele>
				<time>2014-08-17T15:11:50Z</time>
				<extensions>
					<speed>1.5</speed>
				</extensions>
			</trkpt>
			<trkpt lat="53.25756483" lon="-8.92148427">
				<ele>68.0</ele>
				<time>2014-08-17T15:11:51Z</time>
				<extensions>
					<speed>1.5</speed>
				</extensions>
			</trkpt>
			<trkpt lat="53.25755774" lon="-8.92150389">
				<ele>68.0</ele>
				<time>2014-08-17T15:11:52Z</time>
				<extensions>
					<speed>1.5</speed>
				</extensions>
			</trkpt>
			<trkpt lat="53.25755035" lon="-8.92152469">
				<ele>67.0</ele>
				<time>2014-08-17T15:11:53Z</time>
				<extensions>
					<speed>1.5</speed>
				</extensions>
			</trkpt>
			<trkpt lat="53.2575456" lon="-8.92153732">
				<ele>67.0</ele>
				<time>2014-08-17T15:11:54Z</time>
				<extensions>
					<speed>1.25</speed>
				</extensions>
			</trkpt>
			<trkpt lat="53.25753853" lon="-8.92155263">
				<ele>67.0</ele>
				<time>2014-08-17T15:11:55Z</time>
				<extensions>
					<speed>0.75</speed>
				</extensions>
			</trkpt>
			<trkpt lat="53.25753641" lon="-8.92155917">
				<ele>67.0</ele>
				<time>2014-08-17T15:11:56Z</time>
				<extensions>
					<speed>0.75</speed>
				</extensions>
			</trkpt>
			<trkpt lat="53.25753235" lon="-8.92156165">
				<ele>68.0</ele>
				<time>2014-08-17T15:11:57Z</time>
				<extensions>
					<speed>0.5</speed>
				</extensions>
			</trkpt>
			<trkpt lat="53.25752466" lon="-8.92157046">
				<ele>68.0</ele>
				<time>2014-08-17T15:11:58Z</time>
				<extensions>
					<speed>1.0</speed>
				</extensions>
			</trkpt>
			<trkpt lat="53.25751909" lon="-8.92157295">
				<ele>68.0</ele>
				<time>2014-08-17T15:11:59Z</time>
				<extensions>
					<speed>0.75</speed>
				</extensions>
			</trkpt>
			<trkpt lat="53.25751212" lon="-8.9215806">
				<ele>67.0</ele>
				<time>2014-08-17T15:12:00Z</time>
				<extensions>
					<speed>1.0</speed>
				</extensions>
			</trkpt>
			<trkpt lat="53.25750763" lon="-8.92156983">
				<ele>68.0</ele>
				<time>2014-08-17T15:12:01Z</time>
				<extensions>
					<speed>0.5</speed>
				</extensions>
			</trkpt>
			<trkpt lat="53.25750542" lon="-8.92157864">
				<ele>68.0</ele>
				<time>2014-08-17T15:12:02Z</time>
				<extensions>
					<speed>0.5</speed>
				</extensions>
			</trkpt>
			<trkpt lat="53.25750199" lon="-8.92157902">
				<ele>68.0</ele>
				<time>2014-08-17T15:12:03Z</time>
				<extensions>
					<speed>0.5</speed>
				</extensions>
			</trkpt>
			<trkpt lat="53.25750081" lon="-8.92158269">
				<ele>68.0</ele>
				<time>2014-08-17T15:12:04Z</time>
				<extensions>
					<speed>0.0</speed>
				</extensions>
			</trkpt>
			<trkpt lat="53.25749821" lon="-8.92157929">
				<ele>68.0</ele>
				<time>2014-08-17T15:12:05Z</time>
				<extensions>
					<speed>0.0</speed>
				</extensions>
			</trkpt>
			<trkpt lat="53.25749238" lon="-8.92158324">
				<ele>68.0</ele>
				<time>2014-08-17T15:12:06Z</time>
				<extensions>
					<speed>0.0</speed>
				</extensions>
			</trkpt>
			<trkpt lat="53.25748916" lon="-8.92157771">
				<ele>68.0</ele>
				<time>2014-08-17T15:12:07Z</time>
				<extensions>
					<speed>0.0</speed>
				</extensions>
			</trkpt>
			<trkpt lat="53.25748956" lon="-8.92157843">
				<ele>68.0</ele>
				<time>2014-08-17T15:12:08Z</time>
				<extensions>
					<speed>0.5</speed>
				</extensions>
			</trkpt>
			<trkpt lat="53.25749032" lon="-8.92159072">
				<ele>67.0</ele>
				<time>2014-08-17T15:12:09Z</time>
				<extensions>
					<speed>1.0</speed>
				</extensions>
			</trkpt>
			<trkpt lat="53.25749155" lon="-8.92160991">
				<ele>66.0</ele>
				<time>2014-08-17T15:12:10Z</time>
				<extensions>
					<speed>2.0</speed>
				</extensions>
			</trkpt>
			<trkpt lat="53.2574931" lon="-8.92164106">
				<ele>67.0</ele>
				<time>2014-08-17T15:12:11Z</time>
				<extensions>
					<speed>2.25</speed>
				</extensions>
			</trkpt>
			<trkpt lat="53.25748106" lon="-8.92168128">
				<ele>67.0</ele>
				<time>2014-08-17T15:12:12Z</time>
				<extensions>
					<speed>3.25</speed>
				</extensions>
			</trkpt>
			<trkpt lat="53.2574598" lon="-8.92172668">
				<ele>66.0</ele>
				<time>2014-08-17T15:12:13Z</time>
				<extensions>
					<speed>3.25</speed>
				</extensions>
			</trkpt>
			<trkpt lat="53.25743136" lon="-8.92176761">
				<ele>65.0</ele>
				<time>2014-08-17T15:12:14Z</time>
				<extensions>
					<speed>4.0</speed>
				</extensions>
			</trkpt>
			<trkpt lat="53.25740657" lon="-8.9217969">
				<ele>66.0</ele>
				<time>2014-08-17T15:12:15Z</time>
				<extensions>
					<speed>3.75</speed>
				</extensions>
			</trkpt>
			<trkpt lat="53.25737405" lon="-8.92182312">
				<ele>65.0</ele>
				<time>2014-08-17T15:12:16Z</time>
				<extensions>
					<speed>3.75</speed>
				</extensions>
			</trkpt>
			<trkpt lat="53.25734151" lon="-8.92184163">
				<ele>65.0</ele>
				<time>2014-08-17T15:12:17Z</time>
				<extensions>
					<speed>3.75</speed>
				</extensions>
			</trkpt>
			<trkpt lat="53.25730756" lon="-8.92184345">
				<ele>64.0</ele>
				<time>2014-08-17T15:12:18Z</time>
				<extensions>
					<speed>3.75</speed>
				</extensions>
			</trkpt>
			<trkpt lat="53.25727103" lon="-8.92182566">
				<ele>64.0</ele>
				<time>2014-08-17T15:12:19Z</time>
				<extensions>
					<speed>3.5</speed>
				</extensions>
			</trkpt>
			<trkpt lat="53.25724862" lon="-8.92179524">
				<ele>65.0</ele>
				<time>2014-08-17T15:12:20Z</time>
				<extensions>
					<speed>3.25</speed>
				</extensions>
			</trkpt>
			<trkpt lat="53.25722746" lon="-8.92176211">
				<ele>66.0</ele>
				<time>2014-08-17T15:12:21Z</time>
				<extensions>
					<speed>3.0</speed>
				</extensions>
			</trkpt>
			<trkpt lat="53.25722226" lon="-8.92171983">
				<ele>65.0</ele>
				<time>2014-08-17T15:12:22Z</time>
				<extensions>
					<speed>3.25</speed>
				</extensions>
			</trkpt>
			<trkpt lat="53.25721931" lon="-8.92166655">
				<ele>66.0</ele>
				<time>2014-08-17T15:12:23Z</time>
				<extensions>
					<speed>2.75</speed>
				</extensions>
			</trkpt>
			<trkpt lat="53.25722611" lon="-8.92163053">
				<ele>67.0</ele>
				<time>2014-08-17T15:12:24Z</time>
				<extensions>
					<speed>2.25</speed>
				</extensions>
			</trkpt>
			<trkpt lat="53.25723233" lon="-8.92160108">
				<ele>67.0</ele>
				<time>2014-08-17T15:12:25Z</time>
				<extensions>
					<speed>1.75</speed>
				</extensions>
			</trkpt>
			<trkpt lat="53.25724181" lon="-8.92157227">
				<ele>66.0</ele>
				<time>2014-08-17T15:12:26Z</time>
				<extensions>
					<speed>1.5</speed>
				</extensions>
			</trkpt>
			<trkpt lat="53.25725219" lon="-8.92154227">
				<ele>67.0</ele>
				<time>2014-08-17T15:12:27Z</time>
				<extensions>
					<speed>1.25</speed>
				</extensions>
			</trkpt>
			<trkpt lat="53.25725891" lon="-8.92153377">
				<ele>66.0</ele>
				<time>2014-08-17T15:12:28Z</time>
				<extensions>
					<speed>1.25</speed>
				</extensions>
			</trkpt>
			<trkpt lat="53.25726447" lon="-8.92151868">
				<ele>66.0</ele>
				<time>2014-08-17T15:12:29Z</time>
				<extensions>
					<speed>1.5</speed>
				</extensions>
			</trkpt>
			<trkpt lat="53.25727084" lon="-8.9214963">
				<ele>66.0</ele>
				<time>2014-08-17T15:12:30Z</time>
				<extensions>
					<speed>2.25</speed>
				</extensions>
			</trkpt>
			<trkpt lat="53.25728405" lon="-8.92146888">
				<ele>67.0</ele>
				<time>2014-08-17T15:12:31Z</time>
				<extensions>
					<speed>2.5</speed>
				</extensions>
			</trkpt>
			<trkpt lat="53.25729536" lon="-8.92144091">
				<ele>67.0</ele>
				<time>2014-08-17T15:12:32Z</time>
				<extensions>
					<speed>2.75</speed>
				</extensions>
			</trkpt>
			<trkpt lat="53.25730603" lon="-8.92140733">
				<ele>68.0</ele>
				<time>2014-08-17T15:12:33Z</time>
				<extensions>
					<speed>3.0</speed>
				</extensions>
			</trkpt>
			<trkpt lat="53.25732066" lon="-8.92137495">
				<ele>68.0</ele>
				<time>2014-08-17T15:12:34Z</time>
				<extensions>
					<speed>2.75</speed>
				</extensions>
			</trkpt>
			<trkpt lat="53.25733439" lon="-8.92134172">
				<ele>68.0</ele>
				<time>2014-08-17T15:12:35Z</time>
				<extensions>
					<speed>2.75</speed>
				</extensions>
			</trkpt>
			<trkpt lat="53.25734811" lon="-8.92130849">
				<ele>68.0</ele>
				<time>2014-08-17T15:12:36Z</time>
				<extensions>
					<speed>2.75</speed>
				</extensions>
			</trkpt>
			<trkpt lat="53.25735719" lon="-8.92127821">
				<ele>68.0</ele>
				<time>2014-08-17T15:12:37Z</time>
				<extensions>
					<speed>2.25</speed>
				</extensions>
			</trkpt>
			<trkpt lat="53.25735871" lon="-8.92125325">
				<ele>68.0</ele>
				<time>2014-08-17T15:12:38Z</time>
				<extensions>
					<speed>1.75</speed>
				</extensions>
			</trkpt>
			<trkpt lat="53.25736664" lon="-8.92123234">
				<ele>68.0</ele>
				<time>2014-08-17T15:12:39Z</time>
				<extensions>
					<speed>1.25</speed>
				</extensions>
			</trkpt>
			<trkpt lat="53.25737167" lon="-8.92122227">
				<ele>68.0</ele>
				<time>2014-08-17T15:12:40Z</time>
				<extensions>
					<speed>0.5</speed>
				</extensions>
			</trkpt>
			<trkpt lat="53.25737195" lon="-8.92122462">
				<ele>68.0</ele>
				<time>2014-08-17T15:12:41Z</time>
				<extensions>
					<speed>0.0</speed>
				</extensions>
			</trkpt>
			<trkpt lat="53.2573699" lon="-8.92122705">
				<ele>69.0</ele>
				<time>2014-08-17T15:12:42Z</time>
				<extensions>
					<speed>0.0</speed>
				</extensions>
			</trkpt>
			<trkpt lat="53.257367" lon="-8.92122596">
				<ele>69.0</ele>
				<time>2014-08-17T15:12:43Z</time>
				<extensions>
					<speed>0.0</speed>
				</extensions>
			</trkpt>
			<trkpt lat="53.25736434" lon="-8.921227">
				<ele>69.0</ele>
				<time>2014-08-17T15:12:44Z</time>
				<extensions>
					<speed>0.0</speed>
				</extensions>
			</trkpt>
			<trkpt lat="53.25736252" lon="-8.92122932">
				<ele>69.0</ele>
				<time>2014-08-17T15:12:45Z</time>
				<extensions>
					<speed>0.0</speed>
				</extensions>
			</trkpt>
			<trkpt lat="53.25736098" lon="-8.92123173">
				<ele>69.0</ele>
				<time>2014-08-17T15:12:46Z</time>
				<extensions>
					<speed>0.0</speed>
				</extensions>
			</trkpt>
			<trkpt lat="53.25736152" lon="-8.92122891">
				<ele>69.0</ele>
				<time>2014-08-17T15:12:47Z</time>
				<extensions>
					<speed>0.0</speed>
				</extensions>
			</trkpt>
			<trkpt lat="53.25735967" lon="-8.92123076">
				<ele>70.0</ele>
				<time>2014-08-17T15:12:48Z</time>
				<extensions>
					<speed>0.0</speed>
				</extensions>
			</trkpt>
			<trkpt lat="53.25735839" lon="-8.92123051">
				<ele>70.0</ele>
				<time>2014-08-17T15:12:49Z</time>
				<extensions>
					<speed>0.0</speed>
				</extensions>
			</trkpt>
			<trkpt lat="53.25735752" lon="-8.92123244">
				<ele>70.0</ele>
				<time>2014-08-17T15:12:50Z</time>
				<extensions>
					<speed>0.0</speed>
				</extensions>
			</trkpt>
			<trkpt lat="53.25736018" lon="-8.92122862">
				<ele>70.0</ele>
				<time>2014-08-17T15:12:51Z</time>
				<extensions>
					<speed>0.0</speed>
				</extensions>
			</trkpt>
			<trkpt lat="53.25736001" lon="-8.92122843">
				<ele>70.0</ele>
				<time>2014-08-17T15:12:52Z</time>
				<extensions>
					<speed>0.0</speed>
				</extensions>
			</trkpt>
			<trkpt lat="53.25736005" lon="-8.92122863">
				<ele>70.0</ele>
				<time>2014-08-17T15:12:53Z</time>
				<extensions>
					<speed>0.0</speed>
				</extensions>
			</trkpt>
			<trkpt lat="53.25735964" lon="-8.92122963">
				<ele>70.0</ele>
				<time>2014-08-17T15:12:54Z</time>
				<extensions>
					<speed>0.5</speed>
				</extensions>
			</trkpt>
			<trkpt lat="53.25735295" lon="-8.92124104">
				<ele>70.0</ele>
				<time>2014-08-17T15:12:55Z</time>
				<extensions>
					<speed>1.25</speed>
				</extensions>
			</trkpt>
			<trkpt lat="53.25734433" lon="-8.92126508">
				<ele>70.0</ele>
				<time>2014-08-17T15:12:56Z</time>
				<extensions>
					<speed>1.75</speed>
				</extensions>
			</trkpt>
			<trkpt lat="53.25733712" lon="-8.92129089">
				<ele>70.0</ele>
				<time>2014-08-17T15:12:57Z</time>
				<extensions>
					<speed>2.0</speed>
				</extensions>
			</trkpt>
			<trkpt lat="53.25733387" lon="-8.92131987">
				<ele>71.0</ele>
				<time>2014-08-17T15:12:58Z</time>
				<extensions>
					<speed>2.0</speed>
				</extensions>
			</trkpt>
			<trkpt lat="53.2573219" lon="-8.92134608">
				<ele>71.0</ele>
				<time>2014-08-17T15:12:59Z</time>
				<extensions>
					<speed>2.0</speed>
				</extensions>
			</trkpt>
			<trkpt lat="53.25731142" lon="-8.92137224">
				<ele>71.0</ele>
				<time>2014-08-17T15:13:00Z</time>
				<extensions>
					<speed>2.0</speed>
				</extensions>
			</trkpt>
			<trkpt lat="53.25730094" lon="-8.92139841">
				<ele>71.0</ele>
				<time>2014-08-17T15:13:01Z</time>
				<extensions>
					<speed>2.0</speed>
				</extensions>
			</trkpt>
			<trkpt lat="53.25729313" lon="-8.92141699">
				<ele>72.0</ele>
				<time>2014-08-17T15:13:02Z</time>
				<extensions>
					<speed>1.75</speed>
				</extensions>
			</trkpt>
			<trkpt lat="53.25729266" lon="-8.9214457">
				<ele>72.0</ele>
				<time>2014-08-17T15:13:03Z</time>
				<extensions>
					<speed>1.5</speed>
				</extensions>
			</trkpt>
			<trkpt lat="53.25729106" lon="-8.92146394">
				<ele>72.0</ele>
				<time>2014-08-17T15:13:04Z</time>
				<extensions>
					<speed>1.5</speed>
				</extensions>
			</trkpt>
			<trkpt lat="53.25729019" lon="-8.92148833">
				<ele>72.0</ele>
				<time>2014-08-17T15:13:05Z</time>
				<extensions>
					<speed>1.25</speed>
				</extensions>
			</trkpt>
			<trkpt lat="53.25729311" lon="-8.92150873">
				<ele>72.0</ele>
				<time>2014-08-17T15:13:06Z</time>
				<extensions>
					<speed>1.25</speed>
				</extensions>
			</trkpt>
			<trkpt lat="53.25729788" lon="-8.92152272">
				<ele>72.0</ele>
				<time>2014-08-17T15:13:07Z</time>
				<extensions>
					<speed>1.0</speed>
				</extensions>
			</trkpt>
			<trkpt lat="53.25729882" lon="-8.92153376">
				<ele>72.0</ele>
				<time>2014-08-17T15:13:08Z</time>
				<extensions>
					<speed>0.5</speed>
				</extensions>
			</trkpt>
			<trkpt lat="53.25729767" lon="-8.92153241">
				<ele>72.0</ele>
				<time>2014-08-17T15:13:09Z</time>
				<extensions>
					<speed>0.0</speed>
				</extensions>
			</trkpt>
			<trkpt lat="53.25729752" lon="-8.92153248">
				<ele>72.0</ele>
				<time>2014-08-17T15:13:10Z</time>
				<extensions>
					<speed>0.0</speed>
				</extensions>
			</trkpt>
			<trkpt lat="53.25729674" lon="-8.92153284">
				<ele>72.0</ele>
				<time>2014-08-17T15:13:11Z</time>
				<extensions>
					<speed>0.0</speed>
				</extensions>
			</trkpt>
			<trkpt lat="53.25729596" lon="-8.92153321">
				<ele>72.0</ele>
				<time>2014-08-17T15:13:12Z</time>
				<extensions>
					<speed>0.0</speed>
				</extensions>
			</trkpt>
			<trkpt lat="53.25724685" lon="-8.92159656">
				<ele>70.0</ele>
				<time>2014-08-17T15:13:13Z</time>
				<extensions>
					<speed>2.5</speed>
				</extensions>
			</trkpt>
			<trkpt lat="53.25723" lon="-8.92163214">
				<ele>69.0</ele>
				<time>2014-08-17T15:13:14Z</time>
				<extensions>
					<speed>2.75</speed>
				</extensions>
			</trkpt>
			<trkpt lat="53.25720424" lon="-8.92167319">
				<ele>68.0</ele>
				<time>2014-08-17T15:13:15Z</time>
				<extensions>
					<speed>3.25</speed>
				</extensions>
			</trkpt>
			<trkpt lat="53.25720032" lon="-8.9217326">
				<ele>68.0</ele>
				<time>2014-08-17T15:13:16Z</time>
				<extensions>
					<speed>3.75</speed>
				</extensions>
			</trkpt>
			<trkpt lat="53.25720122" lon="-8.92177882">
				<ele>67.0</ele>
				<time>2014-08-17T15:13:17Z</time>
				<extensions>
					<speed>3.5</speed>
				</extensions>
			</trkpt>
			<trkpt lat="53.25720452" lon="-8.92183126">
				<ele>67.0</ele>
				<time>2014-08-17T15:13:18Z</time>
				<extensions>
					<speed>3.5</speed>
				</extensions>
			</trkpt>
			<trkpt lat="53.25720037" lon="-8.92187496">
				<ele>66.0</ele>
				<time>2014-08-17T15:13:19Z</time>
				<extensions>
					<speed>3.5</speed>
				</extensions>
			</trkpt>
			<trkpt lat="53.25718707" lon="-8.92191549">
				<ele>65.0</ele>
				<time>2014-08-17T15:13:20Z</time>
				<extensions>
					<speed>2.75</speed>
				</extensions>
			</trkpt>
			<trkpt lat="53.25718256" lon="-8.92193173">
				<ele>65.0</ele>
				<time>2014-08-17T15:13:21Z</time>
				<extensions>
					<speed>1.5</speed>
				</extensions>
			</trkpt>
			<trkpt lat="53.25717683" lon="-8.92195178">
				<ele>65.0</ele>
				<time>2014-08-17T15:13:22Z</time>
				<extensions>
					<speed>1.0</speed>
				</extensions>
			</trkpt>
			<trkpt lat="53.25717433" lon="-8.92197388">
				<ele>65.0</ele>
				<time>2014-08-17T15:13:23Z</time>
				<extensions>
					<speed>1.25</speed>
				</extensions>
			</trkpt>
			<trkpt lat="53.2571665" lon="-8.92200375">
				<ele>65.0</ele>
				<time>2014-08-17T15:13:24Z</time>
				<extensions>
					<speed>2.5</speed>
				</extensions>
			</trkpt>
			<trkpt lat="53.25717559" lon="-8.92204428">
				<ele>65.0</ele>
				<time>2014-08-17T15:13:25Z</time>
				<extensions>
					<speed>3.5</speed>
				</extensions>
			</trkpt>
			<trkpt lat="53.25718884" lon="-8.92208389">
				<ele>65.0</ele>
				<time>2014-08-17T15:13:26Z</time>
				<extensions>
					<speed>4.0</speed>
				</extensions>
			</trkpt>
			<trkpt lat="53.25721251" lon="-8.92212087">
				<ele>64.0</ele>
				<time>2014-08-17T15:13:27Z</time>
				<extensions>
					<speed>3.75</speed>
				</extensions>
			</trkpt>
			<trkpt lat="53.25723499" lon="-8.9221603">
				<ele>64.0</ele>
				<time>2014-08-17T15:13:28Z</time>
				<extensions>
					<speed>3.5</speed>
				</extensions>
			</trkpt>
			<trkpt lat="53.25726181" lon="-8.92218564">
				<ele>64.0</ele>
				<time>2014-08-17T15:13:29Z</time>
				<extensions>
					<speed>3.75</speed>
				</extensions>
			</trkpt>
			<trkpt lat="53.25729519" lon="-8.92222982">
				<ele>64.0</ele>
				<time>2014-08-17T15:13:30Z</time>
				<extensions>
					<speed>4.5</speed>
				</extensions>
			</trkpt>
			<trkpt lat="53.25733372" lon="-8.9222783">
				<ele>64.0</ele>
				<time>2014-08-17T15:13:31Z</time>
				<extensions>
					<speed>5.25</speed>
				</extensions>
			</trkpt>
			<trkpt lat="53.25737158" lon="-8.92232994">
				<ele>64.0</ele>
				<time>2014-08-17T15:13:32Z</time>
				<extensions>
					<speed>5.5</speed>
				</extensions>
			</trkpt>
			<trkpt lat="53.25741827" lon="-8.92237564">
				<ele>65.0</ele>
				<time>2014-08-17T15:13:33Z</time>
				<extensions>
					<speed>5.75</speed>
				</extensions>
			</trkpt>
			<trkpt lat="53.25747271" lon="-8.92236484">
				<ele>65.0</ele>
				<time>2014-08-17T15:13:34Z</time>
				<extensions>
					<speed>5.75</speed>
				</extensions>
			</trkpt>
			<trkpt lat="53.25751517" lon="-8.92233048">
				<ele>65.0</ele>
				<time>2014-08-17T15:13:35Z</time>
				<extensions>
					<speed>5.75</speed>
				</extensions>
			</trkpt>
			<trkpt lat="53.25755668" lon="-8.92226027">
				<ele>64.0</ele>
				<time>2014-08-17T15:13:36Z</time>
				<extensions>
					<speed>5.75</speed>
				</extensions>
			</trkpt>
			<trkpt lat="53.25758043" lon="-8.92219715">
				<ele>65.0</ele>
				<time>2014-08-17T15:13:37Z</time>
				<extensions>
					<speed>4.75</speed>
				</extensions>
			</trkpt>
			<trkpt lat="53.25760658" lon="-8.92214838">
				<ele>65.0</ele>
				<time>2014-08-17T15:13:38Z</time>
				<extensions>
					<speed>4.0</speed>
				</extensions>
			</trkpt>
			<trkpt lat="53.25763277" lon="-8.92211357">
				<ele>66.0</ele>
				<time>2014-08-17T15:13:39Z</time>
				<extensions>
					<speed>3.0</speed>
				</extensions>
			</trkpt>
			<trkpt lat="53.2576519" lon="-8.92210252">
				<ele>65.0</ele>
				<time>2014-08-17T15:13:40Z</time>
				<extensions>
					<speed>2.25</speed>
				</extensions>
			</trkpt>
			<trkpt lat="53.25765901" lon="-8.92209093">
				<ele>65.0</ele>
				<time>2014-08-17T15:13:41Z</time>
				<extensions>
					<speed>0.75</speed>
				</extensions>
			</trkpt>
			<trkpt lat="53.25765924" lon="-8.92207897">
				<ele>65.0</ele>
				<time>2014-08-17T15:13:42Z</time>
				<extensions>
					<speed>0.0</speed>
				</extensions>
			</trkpt>
			<trkpt lat="53.25765927" lon="-8.9220793">
				<ele>65.0</ele>
				<time>2014-08-17T15:13:43Z</time>
				<extensions>
					<speed>0.0</speed>
				</extensions>
			</trkpt>
			<trkpt lat="53.2576573" lon="-8.9220851">
				<ele>66.0</ele>
				<time>2014-08-17T15:13:44Z</time>
				<extensions>
					<speed>0.0</speed>
				</extensions>
			</trkpt>
			<trkpt lat="53.25765605" lon="-8.92208671">
				<ele>66.0</ele>
				<time>2014-08-17T15:13:45Z</time>
				<extensions>
					<speed>0.0</speed>
				</extensions>
			</trkpt>
			<trkpt lat="53.25765696" lon="-8.92208423">
				<ele>66.0</ele>
				<time>2014-08-17T15:13:46Z</time>
				<extensions>
					<speed>0.0</speed>
				</extensions>
			</trkpt>
			<trkpt lat="53.25765768" lon="-8.92208354">
				<ele>66.0</ele>
				<time>2014-08-17T15:13:47Z</time>
				<extensions>
					<speed>0.0</speed>
				</extensions>
			</trkpt>
			<trkpt lat="53.25765757" lon="-8.92208313">
				<ele>66.0</ele>
				<time>2014-08-17T15:13:48Z</time>
				<extensions>
					<speed>0.0</speed>
				</extensions>
			</trkpt>
			<trkpt lat="53.25766088" lon="-8.92208469">
				<ele>66.0</ele>
				<time>2014-08-17T15:13:49Z</time>
				<extensions>
					<speed>0.0</speed>
				</extensions>
			</trkpt>
			<trkpt lat="53.25766114" lon="-8.92208289">
				<ele>66.0</ele>
				<time>2014-08-17T15:13:50Z</time>
				<extensions>
					<speed>0.0</speed>
				</extensions>
			</trkpt>
			<trkpt lat="53.25765982" lon="-8.92208565">
				<ele>66.0</ele>
				<time>2014-08-17T15:13:51Z</time>
				<extensions>
					<speed>0.0</speed>
				</extensions>
			</trkpt>
			<trkpt lat="53.25765947" lon="-8.92208571">
				<ele>66.0</ele>
				<time>2014-08-17T15:13:52Z</time>
				<extensions>
					<speed>0.0</speed>
				</extensions>
			</trkpt>
			<trkpt lat="53.2576602" lon="-8.92208677">
				<ele>66.0</ele>
				<time>2014-08-17T15:13:53Z</time>
				<extensions>
					<speed>0.0</speed>
				</extensions>
			</trkpt>
			<trkpt lat="53.25766122" lon="-8.92208827">
				<ele>66.0</ele>
				<time>2014-08-17T15:13:54Z</time>
				<extensions>
					<speed>0.0</speed>
				</extensions>
			</trkpt>
			<trkpt lat="53.25766146" lon="-8.9220886">
				<ele>66.0</ele>
				<time>2014-08-17T15:13:55Z</time>
				<extensions>
					<speed>0.0</speed>
				</extensions>
			</trkpt>
			<trkpt lat="53.25766117" lon="-8.92208824">
				<ele>66.0</ele>
				<time>2014-08-17T15:13:56Z</time>
				<extensions>
					<speed>0.0</speed>
				</extensions>
			</trkpt>
			<trkpt lat="53.25766125" lon="-8.92208848">
				<ele>66.0</ele>
				<time>2014-08-17T15:13:57Z</time>
				<extensions>
					<speed>0.0</speed>
				</extensions>
			</trkpt>
			<trkpt lat="53.25766134" lon="-8.92208866">
				<ele>66.0</ele>
				<time>2014-08-17T15:13:58Z</time>
				<extensions>
					<speed>0.0</speed>
				</extensions>
			</trkpt>
			<trkpt lat="53.25766147" lon="-8.92208893">
				<ele>66.0</ele>
				<time>2014-08-17T15:13:59Z</time>
				<extensions>
					<speed>0.0</speed>
				</extensions>
			</trkpt>
			<trkpt lat="53.25766153" lon="-8.92208904">
				<ele>66.0</ele>
				<time>2014-08-17T15:14:00Z</time>
				<extensions>
					<speed>0.0</speed>
				</extensions>
			</trkpt>
			<trkpt lat="53.25766158" lon="-8.92208916">
				<ele>66.0</ele>
				<time>2014-08-17T15:14:01Z</time>
				<extensions>
					<speed>0.0</speed>
				</extensions>
			</trkpt>
			<trkpt lat="53.25766159" lon="-8.92208913">
				<ele>66.0</ele>
				<time>2014-08-17T15:14:02Z</time>
				<extensions>
					<speed>0.0</speed>
				</extensions>
			</trkpt>
			<trkpt lat="53.25766159" lon="-8.9220891">
				<ele>66.0</ele>
				<time>2014-08-17T15:14:03Z</time>
				<extensions>
					<speed>0.0</speed>
				</extensions>
			</trkpt>
			<trkpt lat="53.25766162" lon="-8.92208911">
				<ele>66.0</ele>
				<time>2014-08-17T15:14:04Z</time>
				<extensions>
					<speed>0.0</speed>
				</extensions>
			</trkpt>
			<trkpt lat="53.25766161" lon="-8.9220891">
				<ele>66.0</ele>
				<time>2014-08-17T15:14:05Z</time>
				<extensions>
					<speed>0.0</speed>
				</extensions>
			</trkpt>
			<trkpt lat="53.25766162" lon="-8.92208909">
				<ele>66.0</ele>
				<time>2014-08-17T15:14:06Z</time>
				<extensions>
					<speed>0.0</speed>
				</extensions>
			</trkpt>
			<trkpt lat="53.25766164" lon="-8.92208911">
				<ele>66.0</ele>
				<time>2014-08-17T15:14:07Z</time>
				<extensions>
					<speed>0.0</speed>
				</extensions>
			</trkpt>
			<trkpt lat="53.25766167" lon="-8.9220891">
				<ele>66.0</ele>
				<time>2014-08-17T15:14:08Z</time>
				<extensions>
					<speed>0.0</speed>
				</extensions>
			</trkpt>
			<trkpt lat="53.25766167" lon="-8.9220891">
				<ele>66.0</ele>
				<time>2014-08-17T15:14:09Z</time>
				<extensions>
					<speed>0.0</speed>
				</extensions>
			</trkpt>
			<trkpt lat="53.25766167" lon="-8.9220891">
				<ele>66.0</ele>
				<time>2014-08-17T15:14:10Z</time>
				<extensions>
					<speed>0.0</speed>
				</extensions>
			</trkpt>
			<trkpt lat="53.25766201" lon="-8.92208779">
				<ele>66.0</ele>
				<time>2014-08-17T15:14:11Z</time>
				<extensions>
					<speed>0.0</speed>
				</extensions>
			</trkpt>
			<trkpt lat="53.2576623" lon="-8.92208747">
				<ele>66.0</ele>
				<time>2014-08-17T15:14:12Z</time>
				<extensions>
					<speed>0.0</speed>
				</extensions>
			</trkpt>
			<trkpt lat="53.25766238" lon="-8.9220874">
				<ele>66.0</ele>
				<time>2014-08-17T15:14:13Z</time>
				<extensions>
					<speed>0.0</speed>
				</extensions>
			</trkpt>
			<trkpt lat="53.25766238" lon="-8.9220874">
				<ele>66.0</ele>
				<time>2014-08-17T15:14:14Z</time>
				<extensions>
					<speed>0.0</speed>
				</extensions>
			</trkpt>
			<trkpt lat="53.25766238" lon="-8.9220874">
				<ele>66.0</ele>
				<time>2014-08-17T15:14:15Z</time>
				<extensions>
					<speed>0.0</speed>
				</extensions>
			</trkpt>
			<trkpt lat="53.25766245" lon="-8.92208785">
				<ele>66.0</ele>
				<time>2014-08-17T15:14:16Z</time>
				<extensions>
					<speed>0.0</speed>
				</extensions>
			</trkpt>
			<trkpt lat="53.25766245" lon="-8.92208784">
				<ele>66.0</ele>
				<time>2014-08-17T15:14:17Z</time>
				<extensions>
					<speed>0.0</speed>
				</extensions>
			</trkpt>
			<trkpt lat="53.25766246" lon="-8.92208783">
				<ele>66.0</ele>
				<time>2014-08-17T15:14:18Z</time>
				<extensions>
					<speed>0.0</speed>
				</extensions>
			</trkpt>
			<trkpt lat="53.25766246" lon="-8.92208781">
				<ele>66.0</ele>
				<time>2014-08-17T15:14:19Z</time>
				<extensions>
					<speed>0.0</speed>
				</extensions>
			</trkpt>
			<trkpt lat="53.25766245" lon="-8.9220878">
				<ele>66.0</ele>
				<time>2014-08-17T15:14:20Z</time>
				<extensions>
					<speed>0.0</speed>
				</extensions>
			</trkpt>
			<trkpt lat="53.25766244" lon="-8.92208781">
				<ele>66.0</ele>
				<time>2014-08-17T15:14:21Z</time>
				<extensions>
					<speed>0.0</speed>
				</extensions>
			</trkpt>
			<trkpt lat="53.25766244" lon="-8.92208779">
				<ele>66.0</ele>
				<time>2014-08-17T15:14:22Z</time>
				<extensions>
					<speed>0.0</speed>
				</extensions>
			</trkpt>
			<trkpt lat="53.25766243" lon="-8.92208779">
				<ele>66.0</ele>
				<time>2014-08-17T15:14:23Z</time>
				<extensions>
					<speed>0.0</speed>
				</extensions>
			</trkpt>
			<trkpt lat="53.25766244" lon="-8.92208783">
				<ele>66.0</ele>
				<time>2014-08-17T15:14:24Z</time>
				<extensions>
					<speed>0.0</speed>
				</extensions>
			</trkpt>
			<trkpt lat="53.25766244" lon="-8.92208785">
				<ele>66.0</ele>
				<time>2014-08-17T15:14:25Z</time>
				<extensions>
					<speed>0.0</speed>
				</extensions>
			</trkpt>
			<trkpt lat="53.25766245" lon="-8.92208788">
				<ele>66.0</ele>
				<time>2014-08-17T15:14:26Z</time>
				<extensions>
					<speed>0.0</speed>
				</extensions>
			</trkpt>
			<trkpt lat="53.25766247" lon="-8.92208788">
				<ele>66.0</ele>
				<time>2014-08-17T15:14:27Z</time>
				<extensions>
					<speed>0.0</speed>
				</extensions>
			</trkpt>
			<trkpt lat="53.25766247" lon="-8.92208787">
				<ele>66.0</ele>
				<time>2014-08-17T15:14:28Z</time>
				<extensions>
					<speed>0.0</speed>
				</extensions>
			</trkpt>
			<trkpt lat="53.25766248" lon="-8.9220879">
				<ele>66.0</ele>
				<time>2014-08-17T15:14:29Z</time>
				<extensions>
					<speed>0.0</speed>
				</extensions>
			</trkpt>
			<trkpt lat="53.25766304" lon="-8.92208524">
				<ele>66.0</ele>
				<time>2014-08-17T15:14:30Z</time>
				<extensions>
					<speed>1.5</speed>
				</extensions>
			</trkpt>
			<trkpt lat="53.25766415" lon="-8.92204638">
				<ele>68.0</ele>
				<time>2014-08-17T15:14:31Z</time>
				<extensions>
					<speed>2.0</speed>
				</extensions>
			</trkpt>
			<trkpt lat="53.25765626" lon="-8.92202755">
				<ele>68.0</ele>
				<time>2014-08-17T15:14:32Z</time>
				<extensions>
					<speed>1.25</speed>
				</extensions>
			</trkpt>
			<trkpt lat="53.25765187" lon="-8.92201086">
				<ele>69.0</ele>
				<time>2014-08-17T15:14:33Z</time>
				<extensions>
					<speed>0.75</speed>
				</extensions>
			</trkpt>
			<trkpt lat="53.2576491" lon="-8.92200239">
				<ele>70.0</ele>
				<time>2014-08-17T15:14:34Z</time>
				<extensions>
					<speed>0.0</speed>
				</extensions>
			</trkpt>
			<trkpt lat="53.25765064" lon="-8.92199672">
				<ele>70.0</ele>
				<time>2014-08-17T15:14:35Z</time>
				<extensions>
					<speed>0.0</speed>
				</extensions>
			</trkpt>
			<trkpt lat="53.25765061" lon="-8.92199865">
				<ele>70.0</ele>
				<time>2014-08-17T15:14:36Z</time>
				<extensions>
					<speed>1.0</speed>
				</extensions>
			</trkpt>
			<trkpt lat="53.25763862" lon="-8.9220095">
				<ele>70.0</ele>
				<time>2014-08-17T15:14:37Z</time>
				<extensions>
					<speed>1.0</speed>
				</extensions>
			</trkpt>
			<trkpt lat="53.25764315" lon="-8.92203108">
				<ele>70.0</ele>
				<time>2014-08-17T15:14:38Z</time>
				<extensions>
					<speed>1.25</speed>
				</extensions>
			</trkpt>
			<trkpt lat="53.25765286" lon="-8.92203153">
				<ele>70.0</ele>
				<time>2014-08-17T15:14:39Z</time>
				<extensions>
					<speed>0.75</speed>
				</extensions>
			</trkpt>
			<trkpt lat="53.25765482" lon="-8.92203402">
				<ele>70.0</ele>
				<time>2014-08-17T15:14:40Z</time>
				<extensions>
					<speed>0.0</speed>
				</extensions>
			</trkpt>
			<trkpt lat="53.25765398" lon="-8.92203345">
				<ele>70.0</ele>
				<time>2014-08-17T15:14:41Z</time>
				<extensions>
					<speed>0.75</speed>
				</extensions>
			</trkpt>
			<trkpt lat="53.25764349" lon="-8.92203671">
				<ele>70.0</ele>
				<time>2014-08-17T15:14:42Z</time>
				<extensions>
					<speed>1.25</speed>
				</extensions>
			</trkpt>
			<trkpt lat="53.2576229" lon="-8.92206114">
				<ele>70.0</ele>
				<time>2014-08-17T15:14:43Z</time>
				<extensions>
					<speed>2.75</speed>
				</extensions>
			</trkpt>
			<trkpt lat="53.25760499" lon="-8.92209903">
				<ele>69.0</ele>
				<time>2014-08-17T15:14:44Z</time>
				<extensions>
					<speed>3.5</speed>
				</extensions>
			</trkpt>
			<trkpt lat="53.25758348" lon="-8.92214372">
				<ele>68.0</ele>
				<time>2014-08-17T15:14:45Z</time>
				<extensions>
					<speed>3.5</speed>
				</extensions>
			</trkpt>
			<trkpt lat="53.25755871" lon="-8.92219067">
				<ele>68.0</ele>
				<time>2014-08-17T15:14:46Z</time>
				<extensions>
					<speed>4.0</speed>
				</extensions>
			</trkpt>
			<trkpt lat="53.25753392" lon="-8.92224105">
				<ele>67.0</ele>
				<time>2014-08-17T15:14:47Z</time>
				<extensions>
					<speed>4.25</speed>
				</extensions>
			</trkpt>
			<trkpt lat="53.25751018" lon="-8.92228205">
				<ele>67.0</ele>
				<time>2014-08-17T15:14:48Z</time>
				<extensions>
					<speed>3.25</speed>
				</extensions>
			</trkpt>
			<trkpt lat="53.25749554" lon="-8.92233345">
				<ele>66.0</ele>
				<time>2014-08-17T15:14:49Z</time>
				<extensions>
					<speed>3.25</speed>
				</extensions>
			</trkpt>
			<trkpt lat="53.25749649" lon="-8.9223885">
				<ele>66.0</ele>
				<time>2014-08-17T15:14:50Z</time>
				<extensions>
					<speed>3.75</speed>
				</extensions>
			</trkpt>
			<trkpt lat="53.25750471" lon="-8.92246286">
				<ele>65.0</ele>
				<time>2014-08-17T15:14:51Z</time>
				<extensions>
					<speed>5.5</speed>
				</extensions>
			</trkpt>
			<trkpt lat="53.25753164" lon="-8.92254648">
				<ele>66.0</ele>
				<time>2014-08-17T15:14:52Z</time>
				<extensions>
					<speed>6.5</speed>
				</extensions>
			</trkpt>
			<trkpt lat="53.25757408" lon="-8.92262728">
				<ele>65.0</ele>
				<time>2014-08-17T15:14:53Z</time>
				<extensions>
					<speed>7.0</speed>
				</extensions>
			</trkpt>
			<trkpt lat="53.2576097" lon="-8.92270901">
				<ele>65.0</ele>
				<time>2014-08-17T15:14:54Z</time>
				<extensions>
					<speed>6.75</speed>
				</extensions>
			</trkpt>
			<trkpt lat="53.25764859" lon="-8.92278737">
				<ele>65.0</ele>
				<time>2014-08-17T15:14:55Z</time>
				<extensions>
					<speed>6.75</speed>
				</extensions>
			</trkpt>
			<trkpt lat="53.25768747" lon="-8.92286574">
				<ele>65.0</ele>
				<time>2014-08-17T15:14:56Z</time>
				<extensions>
					<speed>6.75</speed>
				</extensions>
			</trkpt>
			<trkpt lat="53.2577323" lon="-8.92296804">
				<ele>67.0</ele>
				<time>2014-08-17T15:14:57Z</time>
				<extensions>
					<speed>7.75</speed>
				</extensions>
			</trkpt>
			<trkpt lat="53.25777258" lon="-8.9230833">
				<ele>67.0</ele>
				<time>2014-08-17T15:14:58Z</time>
				<extensions>
					<speed>8.5</speed>
				</extensions>
			</trkpt>
			<trkpt lat="53.25781372" lon="-8.92322324">
				<ele>68.0</ele>
				<time>2014-08-17T15:14:59Z</time>
				<extensions>
					<speed>9.5</speed>
				</extensions>
			</trkpt>
			<trkpt lat="53.25784666" lon="-8.92335977">
				<ele>68.0</ele>
				<time>2014-08-17T15:15:00Z</time>
				<extensions>
					<speed>10.0</speed>
				</extensions>
			</trkpt>
			<trkpt lat="53.25787132" lon="-8.92347361">
				<ele>68.0</ele>
				<time>2014-08-17T15:15:01Z</time>
				<extensions>
					<speed>10.0</speed>
				</extensions>
			</trkpt>
			<trkpt lat="53.25788281" lon="-8.92362488">
				<ele>68.0</ele>
				<time>2014-08-17T15:15:02Z</time>
				<extensions>
					<speed>10.0</speed>
				</extensions>
			</trkpt>
			<trkpt lat="53.25788671" lon="-8.92377983">
				<ele>67.0</ele>
				<time>2014-08-17T15:15:03Z</time>
				<extensions>
					<speed>10.0</speed>
				</extensions>
			</trkpt>
			<trkpt lat="53.25785871" lon="-8.92392008">
				<ele>66.0</ele>
				<time>2014-08-17T15:15:04Z</time>
				<extensions>
					<speed>9.5</speed>
				</extensions>
			</trkpt>
			<trkpt lat="53.2578216" lon="-8.92404446">
				<ele>66.0</ele>
				<time>2014-08-17T15:15:05Z</time>
				<extensions>
					<speed>8.75</speed>
				</extensions>
			</trkpt>
			<trkpt lat="53.25777936" lon="-8.92414795">
				<ele>66.0</ele>
				<time>2014-08-17T15:15:06Z</time>
				<extensions>
					<speed>7.75</speed>
				</extensions>
			</trkpt>
			<trkpt lat="53.25773558" lon="-8.92423131">
				<ele>65.0</ele>
				<time>2014-08-17T15:15:07Z</time>
				<extensions>
					<speed>6.25</speed>
				</extensions>
			</trkpt>
			<trkpt lat="53.25769802" lon="-8.92430351">
				<ele>65.0</ele>
				<time>2014-08-17T15:15:08Z</time>
				<extensions>
					<speed>5.75</speed>
				</extensions>
			</trkpt>
			<trkpt lat="53.25765815" lon="-8.92436526">
				<ele>65.0</ele>
				<time>2014-08-17T15:15:09Z</time>
				<extensions>
					<speed>5.25</speed>
				</extensions>
			</trkpt>
			<trkpt lat="53.25762647" lon="-8.92441105">
				<ele>64.0</ele>
				<time>2014-08-17T15:15:10Z</time>
				<extensions>
					<speed>4.75</speed>
				</extensions>
			</trkpt>
			<trkpt lat="53.25759751" lon="-8.92446781">
				<ele>65.0</ele>
				<time>2014-08-17T15:15:11Z</time>
				<extensions>
					<speed>4.0</speed>
				</extensions>
			</trkpt>
			<trkpt lat="53.25757806" lon="-8.92450547">
				<ele>64.0</ele>
				<time>2014-08-17T15:15:12Z</time>
				<extensions>
					<speed>3.25</speed>
				</extensions>
			</trkpt>
			<trkpt lat="53.25755983" lon="-8.92453616">
				<ele>64.0</ele>
				<time>2014-08-17T15:15:13Z</time>
				<extensions>
					<speed>2.5</speed>
				</extensions>
			</trkpt>
			<trkpt lat="53.25754732" lon="-8.92455025">
				<ele>65.0</ele>
				<time>2014-08-17T15:15:14Z</time>
				<extensions>
					<speed>1.5</speed>
				</extensions>
			</trkpt>
			<trkpt lat="53.25753904" lon="-8.92456371">
				<ele>65.0</ele>
				<time>2014-08-17T15:15:15Z</time>
				<extensions>
					<speed>1.0</speed>
				</extensions>
			</trkpt>
			<trkpt lat="53.25753304" lon="-8.92457093">
				<ele>66.0</ele>
				<time>2014-08-17T15:15:16Z</time>
				<extensions>
					<speed>0.0</speed>
				</extensions>
			</trkpt>
			<trkpt lat="53.25753469" lon="-8.92457173">
				<ele>65.0</ele>
				<time>2014-08-17T15:15:17Z</time>
				<extensions>
					<speed>0.0</speed>
				</extensions>
			</trkpt>
			<trkpt lat="53.25753725" lon="-8.92457365">
				<ele>65.0</ele>
				<time>2014-08-17T15:15:18Z</time>
				<extensions>
					<speed>0.0</speed>
				</extensions>
			</trkpt>
			<trkpt lat="53.25753747" lon="-8.92457643">
				<ele>65.0</ele>
				<time>2014-08-17T15:15:19Z</time>
				<extensions>
					<speed>0.0</speed>
				</extensions>
			</trkpt>
			<trkpt lat="53.25753593" lon="-8.92457845">
				<ele>65.0</ele>
				<time>2014-08-17T15:15:20Z</time>
				<extensions>
					<speed>0.0</speed>
				</extensions>
			</trkpt>
			<trkpt lat="53.25753364" lon="-8.92457901">
				<ele>65.0</ele>
				<time>2014-08-17T15:15:21Z</time>
				<extensions>
					<speed>0.0</speed>
				</extensions>
			</trkpt>
			<trkpt lat="53.2575345" lon="-8.92458155">
				<ele>65.0</ele>
				<time>2014-08-17T15:15:22Z</time>
				<extensions>
					<speed>0.0</speed>
				</extensions>
			</trkpt>
			<trkpt lat="53.25753522" lon="-8.92458234">
				<ele>66.0</ele>
				<time>2014-08-17T15:15:23Z</time>
				<extensions>
					<speed>0.0</speed>
				</extensions>
			</trkpt>
			<trkpt lat="53.25753416" lon="-8.92458078">
				<ele>65.0</ele>
				<time>2014-08-17T15:15:24Z</time>
				<extensions>
					<speed>0.0</speed>
				</extensions>
			</trkpt>
			<trkpt lat="53.25753404" lon="-8.92458127">
				<ele>65.0</ele>
				<time>2014-08-17T15:15:25Z</time>
				<extensions>
					<speed>0.0</speed>
				</extensions>
			</trkpt>
			<trkpt lat="53.25753367" lon="-8.92458143">
				<ele>65.0</ele>
				<time>2014-08-17T15:15:26Z</time>
				<extensions>
					<speed>0.0</speed>
				</extensions>
			</trkpt>
			<trkpt lat="53.2575339" lon="-8.92458132">
				<ele>65.0</ele>
				<time>2014-08-17T15:15:27Z</time>
				<extensions>
					<speed>0.0</speed>
				</extensions>
			</trkpt>
			<trkpt lat="53.2575338" lon="-8.92458137">
				<ele>65.0</ele>
				<time>2014-08-17T15:15:28Z</time>
				<extensions>
					<speed>0.0</speed>
				</extensions>
			</trkpt>
			<trkpt lat="53.2575339" lon="-8.92458147">
				<ele>65.0</ele>
				<time>2014-08-17T15:15:29Z</time>
				<extensions>
					<speed>0.0</speed>
				</extensions>
			</trkpt>
			<trkpt lat="53.25753389" lon="-8.92458149">
				<ele>65.0</ele>
				<time>2014-08-17T15:15:30Z</time>
				<extensions>
					<speed>0.0</speed>
				</extensions>
			</trkpt>
			<trkpt lat="53.25753386" lon="-8.92458146">
				<ele>65.0</ele>
				<time>2014-08-17T15:15:31Z</time>
				<extensions>
					<speed>0.0</speed>
				</extensions>
			</trkpt>
			<trkpt lat="53.25753386" lon="-8.92458145">
				<ele>65.0</ele>
				<time>2014-08-17T15:15:32Z</time>
				<extensions>
					<speed>0.0</speed>
				</extensions>
			</trkpt>
			<trkpt lat="53.25753386" lon="-8.9245814">
				<ele>65.0</ele>
				<time>2014-08-17T15:15:33Z</time>
				<extensions>
					<speed>0.0</speed>
				</extensions>
			</trkpt>
			<trkpt lat="53.25753387" lon="-8.92458143">
				<ele>65.0</ele>
				<time>2014-08-17T15:15:34Z</time>
				<extensions>
					<speed>0.0</speed>
				</extensions>
			</trkpt>
			<trkpt lat="53.25753321" lon="-8.92458337">
				<ele>65.0</ele>
				<time>2014-08-17T15:15:35Z</time>
				<extensions>
					<speed>0.75</speed>
				</extensions>
			</trkpt>
			<trkpt lat="53.25753148" lon="-8.92458045">
				<ele>63.0</ele>
				<time>2014-08-17T15:15:36Z</time>
				<extensions>
					<speed>2.25</speed>
				</extensions>
			</trkpt>
			<trkpt lat="53.25751027" lon="-8.92461773">
				<ele>63.0</ele>
				<time>2014-08-17T15:15:37Z</time>
				<extensions>
					<speed>3.25</speed>
				</extensions>
			</trkpt>
			<trkpt lat="53.25748947" lon="-8.9246681">
				<ele>63.0</ele>
				<time>2014-08-17T15:15:38Z</time>
				<extensions>
					<speed>4.25</speed>
				</extensions>
			</trkpt>
			<trkpt lat="53.257462" lon="-8.92472108">
				<ele>63.0</ele>
				<time>2014-08-17T15:15:39Z</time>
				<extensions>
					<speed>4.25</speed>
				</extensions>
			</trkpt>
			<trkpt lat="53.25744526" lon="-8.92477209">
				<ele>63.0</ele>
				<time>2014-08-17T15:15:40Z</time>
				<extensions>
					<speed>4.0</speed>
				</extensions>
			</trkpt>
			<trkpt lat="53.25742893" lon="-8.92482127">
				<ele>63.0</ele>
				<time>2014-08-17T15:15:41Z</time>
				<extensions>
					<speed>4.5</speed>
				</extensions>
			</trkpt>
			<trkpt lat="53.25740715" lon="-8.92487761">
				<ele>64.0</ele>
				<time>2014-08-17T15:15:42Z</time>
				<extensions>
					<speed>4.5</speed>
				</extensions>
			</trkpt>
			<trkpt lat="53.25738753" lon="-8.92492444">
				<ele>64.0</ele>
				<time>2014-08-17T15:15:43Z</time>
				<extensions>
					<speed>3.5</speed>
				</extensions>
			</trkpt>
			<trkpt lat="53.25736962" lon="-8.92496457">
				<ele>63.0</ele>
				<time>2014-08-17T15:15:44Z</time>
				<extensions>
					<speed>3.25</speed>
				</extensions>
			</trkpt>
			<trkpt lat="53.2573661" lon="-8.92498616">
				<ele>62.0</ele>
				<time>2014-08-17T15:15:45Z</time>
				<extensions>
					<speed>2.75</speed>
				</extensions>
			</trkpt>
			<trkpt lat="53.25734823" lon="-8.92500332">
				<ele>62.0</ele>
				<time>2014-08-17T15:15:46Z</time>
				<extensions>
					<speed>2.75</speed>
				</extensions>
			</trkpt>
			<trkpt lat="53.25733502" lon="-8.92504026">
				<ele>62.0</ele>
				<time>2014-08-17T15:15:47Z</time>
				<extensions>
					<speed>2.5</speed>
				</extensions>
			</trkpt>
			<trkpt lat="53.25732458" lon="-8.92506687">
				<ele>61.0</ele>
				<time>2014-08-17T15:15:48Z</time>
				<extensions>
					<speed>2.0</speed>
				</extensions>
			</trkpt>
			<trkpt lat="53.25731548" lon="-8.92509343">
				<ele>61.0</ele>
				<time>2014-08-17T15:15:49Z</time>
				<extensions>
					<speed>1.75</speed>
				</extensions>
			</trkpt>
			<trkpt lat="53.25730599" lon="-8.92511284">
				<ele>62.0</ele>
				<time>2014-08-17T15:15:50Z</time>
				<extensions>
					<speed>1.25</speed>
				</extensions>
			</trkpt>
			<trkpt lat="53.25730154" lon="-8.92512096">
				<ele>62.0</ele>
				<time>2014-08-17T15:15:51Z</time>
				<extensions>
					<speed>0.5</speed>
				</extensions>
			</trkpt>
			<trkpt lat="53.25729887" lon="-8.92511047">
				<ele>62.0</ele>
				<time>2014-08-17T15:15:52Z</time>
				<extensions>
					<speed>0.0</speed>
				</extensions>
			</trkpt>
			<trkpt lat="53.25729989" lon="-8.92511503">
				<ele>62.0</ele>
				<time>2014-08-17T15:15:53Z</time>
				<extensions>
					<speed>0.0</speed>
				</extensions>
			</trkpt>
			<trkpt lat="53.2572947" lon="-8.92511815">
				<ele>62.0</ele>
				<time>2014-08-17T15:15:54Z</time>
				<extensions>
					<speed>0.0</speed>
				</extensions>
			</trkpt>
			<trkpt lat="53.25729366" lon="-8.92512116">
				<ele>62.0</ele>
				<time>2014-08-17T15:15:55Z</time>
				<extensions>
					<speed>1.25</speed>
				</extensions>
			</trkpt>
			<trkpt lat="53.25728415" lon="-8.9251584">
				<ele>63.0</ele>
				<time>2014-08-17T15:15:56Z</time>
				<extensions>
					<speed>2.5</speed>
				</extensions>
			</trkpt>
			<trkpt lat="53.25727014" lon="-8.92520311">
				<ele>64.0</ele>
				<time>2014-08-17T15:15:57Z</time>
				<extensions>
					<speed>3.75</speed>
				</extensions>
			</trkpt>
			<trkpt lat="53.25725253" lon="-8.92525224">
				<ele>64.0</ele>
				<time>2014-08-17T15:15:58Z</time>
				<extensions>
					<speed>3.75</speed>
				</extensions>
			</trkpt>
			<trkpt lat="53.25723144" lon="-8.92530126">
				<ele>64.0</ele>
				<time>2014-08-17T15:15:59Z</time>
				<extensions>
					<speed>3.75</speed>
				</extensions>
			</trkpt>
			<trkpt lat="53.25722058" lon="-8.92533196">
				<ele>63.0</ele>
				<time>2014-08-17T15:16:00Z</time>
				<extensions>
					<speed>3.5</speed>
				</extensions>
			</trkpt>
			<trkpt lat="53.25720321" lon="-8.92538538">
				<ele>63.0</ele>
				<time>2014-08-17T15:16:01Z</time>
				<extensions>
					<speed>3.25</speed>
				</extensions>
			</trkpt>
			<trkpt lat="53.25718944" lon="-8.9254338">
				<ele>64.0</ele>
				<time>2014-08-17T15:16:02Z</time>
				<extensions>
					<speed>3.0</speed>
				</extensions>
			</trkpt>
			<trkpt lat="53.25717544" lon="-8.92547167">
				<ele>64.0</ele>
				<time>2014-08-17T15:16:03Z</time>
				<extensions>
					<speed>2.0</speed>
				</extensions>
			</trkpt>
			<trkpt lat="53.2571713" lon="-8.92549477">
				<ele>64.0</ele>
				<time>2014-08-17T15:16:04Z</time>
				<extensions>
					<speed>1.0</speed>
				</extensions>
			</trkpt>
			<trkpt lat="53.2571726" lon="-8.9255042">
				<ele>64.0</ele>
				<time>2014-08-17T15:16:05Z</time>
				<extensions>
					<speed>0.0</speed>
				</extensions>
			</trkpt>
			<trkpt lat="53.25717037" lon="-8.92550478">
				<ele>64.0</ele>
				<time>2014-08-17T15:16:06Z</time>
				<extensions>
					<speed>0.0</speed>
				</extensions>
			</trkpt>
			<trkpt lat="53.25717212" lon="-8.92550244">
				<ele>64.0</ele>
				<time>2014-08-17T15:16:07Z</time>
				<extensions>
					<speed>0.0</speed>
				</extensions>
			</trkpt>
			<trkpt lat="53.25717368" lon="-8.92550442">
				<ele>64.0</ele>
				<time>2014-08-17T15:16:08Z</time>
				<extensions>
					<speed>0.0</speed>
				</extensions>
			</trkpt>
			<trkpt lat="53.25717643" lon="-8.92550163">
				<ele>64.0</ele>
				<time>2014-08-17T15:16:09Z</time>
				<extensions>
					<speed>0.0</speed>
				</extensions>
			</trkpt>
			<trkpt lat="53.25717582" lon="-8.92550452">
				<ele>64.0</ele>
				<time>2014-08-17T15:16:10Z</time>
				<extensions>
					<speed>1.0</speed>
				</extensions>
			</trkpt>
			<trkpt lat="53.25716757" lon="-8.92553361">
				<ele>65.0</ele>
				<time>2014-08-17T15:16:11Z</time>
				<extensions>
					<speed>2.5</speed>
				</extensions>
			</trkpt>
			<trkpt lat="53.25715625" lon="-8.92558182">
				<ele>64.0</ele>
				<time>2014-08-17T15:16:12Z</time>
				<extensions>
					<speed>3.75</speed>
				</extensions>
			</trkpt>
			<trkpt lat="53.25714481" lon="-8.92563895">
				<ele>64.0</ele>
				<time>2014-08-17T15:16:13Z</time>
				<extensions>
					<speed>4.0</speed>
				</extensions>
			</trkpt>
			<trkpt lat="53.2571333" lon="-8.92569304">
				<ele>64.0</ele>
				<time>2014-08-17T15:16:14Z</time>
				<extensions>
					<speed>4.0</speed>
				</extensions>
			</trkpt>
			<trkpt lat="53.25712232" lon="-8.92575858">
				<ele>64.0</ele>
				<time>2014-08-17T15:16:15Z</time>
				<extensions>
					<speed>4.75</speed>
				</extensions>
			</trkpt>
			<trkpt lat="53.25710682" lon="-8.92582707">
				<ele>64.0</ele>
				<time>2014-08-17T15:16:16Z</time>
				<extensions>
					<speed>5.0</speed>
				</extensions>
			</trkpt>
			<trkpt lat="53.25708695" lon="-8.92589302">
				<ele>64.0</ele>
				<time>2014-08-17T15:16:17Z</time>
				<extensions>
					<speed>5.0</speed>
				</extensions>
			</trkpt>
			<trkpt lat="53.25707255" lon="-8.92596007">
				<ele>64.0</ele>
				<time>2014-08-17T15:16:18Z</time>
				<extensions>
					<speed>4.25</speed>
				</extensions>
			</trkpt>
			<trkpt lat="53.25706065" lon="-8.92601989">
				<ele>64.0</ele>
				<time>2014-08-17T15:16:19Z</time>
				<extensions>
					<speed>4.0</speed>
				</extensions>
			</trkpt>
			<trkpt lat="53.2570492" lon="-8.92607348">
				<ele>64.0</ele>
				<time>2014-08-17T15:16:20Z</time>
				<extensions>
					<speed>3.75</speed>
				</extensions>
			</trkpt>
			<trkpt lat="53.25703416" lon="-8.92612472">
				<ele>65.0</ele>
				<time>2014-08-17T15:16:21Z</time>
				<extensions>
					<speed>3.5</speed>
				</extensions>
			</trkpt>
			<trkpt lat="53.25702086" lon="-8.92616681">
				<ele>66.0</ele>
				<time>2014-08-17T15:16:22Z</time>
				<extensions>
					<speed>2.75</speed>
				</extensions>
			</trkpt>
			<trkpt lat="53.25701262" lon="-8.92619687">
				<ele>66.0</ele>
				<time>2014-08-17T15:16:23Z</time>
				<extensions>
					<speed>2.0</speed>
				</extensions>
			</trkpt>
			<trkpt lat="53.25700599" lon="-8.92622283">
				<ele>66.0</ele>
				<time>2014-08-17T15:16:24Z</time>
				<extensions>
					<speed>2.0</speed>
				</extensions>
			</trkpt>
			<trkpt lat="53.25699935" lon="-8.92624878">
				<ele>66.0</ele>
				<time>2014-08-17T15:16:25Z</time>
				<extensions>
					<speed>2.0</speed>
				</extensions>
			</trkpt>
			<trkpt lat="53.25700811" lon="-8.9262274">
				<ele>66.0</ele>
				<time>2014-08-17T15:16:26Z</time>
				<extensions>
					<speed>0.0</speed>
				</extensions>
			</trkpt>
			<trkpt lat="53.25701039" lon="-8.92623775">
				<ele>66.0</ele>
				<time>2014-08-17T15:16:27Z</time>
				<extensions>
					<speed>0.0</speed>
				</extensions>
			</trkpt>
			<trkpt lat="53.25701" lon="-8.9262396">
				<ele>66.0</ele>
				<time>2014-08-17T15:16:28Z</time>
				<extensions>
					<speed>1.0</speed>
				</extensions>
			</trkpt>
			<trkpt lat="53.25700714" lon="-8.92627196">
				<ele>67.0</ele>
				<time>2014-08-17T15:16:29Z</time>
				<extensions>
					<speed>2.5</speed>
				</extensions>
			</trkpt>
			<trkpt lat="53.25700445" lon="-8.92630529">
				<ele>67.0</ele>
				<time>2014-08-17T15:16:30Z</time>
				<extensions>
					<speed>2.75</speed>
				</extensions>
			</trkpt>
			<trkpt lat="53.25698765" lon="-8.92634455">
				<ele>67.0</ele>
				<time>2014-08-17T15:16:31Z</time>
				<extensions>
					<speed>3.5</speed>
				</extensions>
			</trkpt>
			<trkpt lat="53.25697899" lon="-8.92639542">
				<ele>67.0</ele>
				<time>2014-08-17T15:16:32Z</time>
				<extensions>
					<speed>4.25</speed>
				</extensions>
			</trkpt>
			<trkpt lat="53.25696132" lon="-8.92645791">
				<ele>67.0</ele>
				<time>2014-08-17T15:16:33Z</time>
				<extensions>
					<speed>4.0</speed>
				</extensions>
			</trkpt>
			<trkpt lat="53.2569541" lon="-8.92651708">
				<ele>67.0</ele>
				<time>2014-08-17T15:16:34Z</time>
				<extensions>
					<speed>4.5</speed>
				</extensions>
			</trkpt>
			<trkpt lat="53.25693776" lon="-8.92658997">
				<ele>67.0</ele>
				<time>2014-08-17T15:16:35Z</time>
				<extensions>
					<speed>4.5</speed>
				</extensions>
			</trkpt>
			<trkpt lat="53.25692883" lon="-8.92665186">
				<ele>67.0</ele>
				<time>2014-08-17T15:16:36Z</time>
				<extensions>
					<speed>4.0</speed>
				</extensions>
			</trkpt>
			<trkpt lat="53.25691711" lon="-8.92671291">
				<ele>67.0</ele>
				<time>2014-08-17T15:16:37Z</time>
				<extensions>
					<speed>3.5</speed>
				</extensions>
			</trkpt>
			<trkpt lat="53.2569072" lon="-8.92675101">
				<ele>67.0</ele>
				<time>2014-08-17T15:16:38Z</time>
				<extensions>
					<speed>2.25</speed>
				</extensions>
			</trkpt>
			<trkpt lat="53.25690184" lon="-8.92676103">
				<ele>66.0</ele>
				<time>2014-08-17T15:16:39Z</time>
				<extensions>
					<speed>1.25</speed>
				</extensions>
			</trkpt>
			<trkpt lat="53.2569044" lon="-8.92677315">
				<ele>66.0</ele>
				<time>2014-08-17T15:16:40Z</time>
				<extensions>
					<speed>0.0</speed>
				</extensions>
			</trkpt>
			<trkpt lat="53.25691182" lon="-8.92675854">
				<ele>65.0</ele>
				<time>2014-08-17T15:16:41Z</time>
				<extensions>
					<speed>0.0</speed>
				</extensions>
			</trkpt>
			<trkpt lat="53.25690759" lon="-8.92675874">
				<ele>65.0</ele>
				<time>2014-08-17T15:16:42Z</time>
				<extensions>
					<speed>0.0</speed>
				</extensions>
			</trkpt>
			<trkpt lat="53.25690858" lon="-8.92675821">
				<ele>65.0</ele>
				<time>2014-08-17T15:16:43Z</time>
				<extensions>
					<speed>0.0</speed>
				</extensions>
			</trkpt>
			<trkpt lat="53.2569075" lon="-8.92675888">
				<ele>65.0</ele>
				<time>2014-08-17T15:16:44Z</time>
				<extensions>
					<speed>0.0</speed>
				</extensions>
			</trkpt>
			<trkpt lat="53.2569064" lon="-8.92676338">
				<ele>65.0</ele>
				<time>2014-08-17T15:16:45Z</time>
				<extensions>
					<speed>0.0</speed>
				</extensions>
			</trkpt>
			<trkpt lat="53.25690646" lon="-8.92676401">
				<ele>65.0</ele>
				<time>2014-08-17T15:16:46Z</time>
				<extensions>
					<speed>0.0</speed>
				</extensions>
			</trkpt>
			<trkpt lat="53.25691067" lon="-8.92675911">
				<ele>65.0</ele>
				<time>2014-08-17T15:16:47Z</time>
				<extensions>
					<speed>0.0</speed>
				</extensions>
			</trkpt>
			<trkpt lat="53.25690696" lon="-8.92676009">
				<ele>65.0</ele>
				<time>2014-08-17T15:16:48Z</time>
				<extensions>
					<speed>0.0</speed>
				</extensions>
			</trkpt>
			<trkpt lat="53.25690452" lon="-8.92676273">
				<ele>65.0</ele>
				<time>2014-08-17T15:16:49Z</time>
				<extensions>
					<speed>0.0</speed>
				</extensions>
			</trkpt>
			<trkpt lat="53.25690456" lon="-8.92676162">
				<ele>65.0</ele>
				<time>2014-08-17T15:16:50Z</time>
				<extensions>
					<speed>0.0</speed>
				</extensions>
			</trkpt>
			<trkpt lat="53.25690484" lon="-8.92676109">
				<ele>65.0</ele>
				<time>2014-08-17T15:16:51Z</time>
				<extensions>
					<speed>0.0</speed>
				</extensions>
			</trkpt>
			<trkpt lat="53.25690482" lon="-8.92676131">
				<ele>65.0</ele>
				<time>2014-08-17T15:16:52Z</time>
				<extensions>
					<speed>0.0</speed>
				</extensions>
			</trkpt>
			<trkpt lat="53.25690473" lon="-8.92676132">
				<ele>65.0</ele>
				<time>2014-08-17T15:16:53Z</time>
				<extensions>
					<speed>0.0</speed>
				</extensions>
			</trkpt>
			<trkpt lat="53.25690469" lon="-8.9267613">
				<ele>65.0</ele>
				<time>2014-08-17T15:16:54Z</time>
				<extensions>
					<speed>0.0</speed>
				</extensions>
			</trkpt>
			<trkpt lat="53.25690469" lon="-8.9267613">
				<ele>65.0</ele>
				<time>2014-08-17T15:16:55Z</time>
				<extensions>
					<speed>0.0</speed>
				</extensions>
			</trkpt>
			<trkpt lat="53.25690469" lon="-8.9267613">
				<ele>65.0</ele>
				<time>2014-08-17T15:16:56Z</time>
				<extensions>
					<speed>0.0</speed>
				</extensions>
			</trkpt>
			<trkpt lat="53.25690873" lon="-8.92675992">
				<ele>65.0</ele>
				<time>2014-08-17T15:16:57Z</time>
				<extensions>
					<speed>0.0</speed>
				</extensions>
			</trkpt>
			<trkpt lat="53.25690943" lon="-8.92676018">
				<ele>65.0</ele>
				<time>2014-08-17T15:16:58Z</time>
				<extensions>
					<speed>0.0</speed>
				</extensions>
			</trkpt>
			<trkpt lat="53.25690939" lon="-8.92676029">
				<ele>65.0</ele>
				<time>2014-08-17T15:16:59Z</time>
				<extensions>
					<speed>0.0</speed>
				</extensions>
			</trkpt>
			<trkpt lat="53.25690939" lon="-8.92676024">
				<ele>65.0</ele>
				<time>2014-08-17T15:17:00Z</time>
				<extensions>
					<speed>0.0</speed>
				</extensions>
			</trkpt>
			<trkpt lat="53.25690939" lon="-8.92676022">
				<ele>65.0</ele>
				<time>2014-08-17T15:17:01Z</time>
				<extensions>
					<speed>0.0</speed>
				</extensions>
			</trkpt>
			<trkpt lat="53.25690939" lon="-8.92676022">
				<ele>65.0</ele>
				<time>2014-08-17T15:17:02Z</time>
				<extensions>
					<speed>0.0</speed>
				</extensions>
			</trkpt>
			<trkpt lat="53.25690939" lon="-8.92676022">
				<ele>65.0</ele>
				<time>2014-08-17T15:17:03Z</time>
				<extensions>
					<speed>0.0</speed>
				</extensions>
			</trkpt>
			<trkpt lat="53.25691282" lon="-8.92676453">
				<ele>66.0</ele>
				<time>2014-08-17T15:17:04Z</time>
				<extensions>
					<speed>0.0</speed>
				</extensions>
			</trkpt>
			<trkpt lat="53.25691339" lon="-8.92676578">
				<ele>66.0</ele>
				<time>2014-08-17T15:17:05Z</time>
				<extensions>
					<speed>0.0</speed>
				</extensions>
			</trkpt>
			<trkpt lat="53.25691341" lon="-8.92676573">
				<ele>66.0</ele>
				<time>2014-08-17T15:17:06Z</time>
				<extensions>
					<speed>0.0</speed>
				</extensions>
			</trkpt>
			<trkpt lat="53.2569134" lon="-8.92676571">
				<ele>66.0</ele>
				<time>2014-08-17T15:17:07Z</time>
				<extensions>
					<speed>0.0</speed>
				</extensions>
			</trkpt>
			<trkpt lat="53.25691341" lon="-8.92676569">
				<ele>66.0</ele>
				<time>2014-08-17T15:17:08Z</time>
				<extensions>
					<speed>0.0</speed>
				</extensions>
			</trkpt>
			<trkpt lat="53.25691342" lon="-8.92676566">
				<ele>66.0</ele>
				<time>2014-08-17T15:17:09Z</time>
				<extensions>
					<speed>0.0</speed>
				</extensions>
			</trkpt>
			<trkpt lat="53.25691342" lon="-8.92676567">
				<ele>66.0</ele>
				<time>2014-08-17T15:17:10Z</time>
				<extensions>
					<speed>0.0</speed>
				</extensions>
			</trkpt>
			<trkpt lat="53.25691343" lon="-8.92676567">
				<ele>66.0</ele>
				<time>2014-08-17T15:17:11Z</time>
				<extensions>
					<speed>0.0</speed>
				</extensions>
			</trkpt>
			<trkpt lat="53.25691343" lon="-8.92676565">
				<ele>66.0</ele>
				<time>2014-08-17T15:17:12Z</time>
				<extensions>
					<speed>0.0</speed>
				</extensions>
			</trkpt>
			<trkpt lat="53.25691342" lon="-8.92676563">
				<ele>66.0</ele>
				<time>2014-08-17T15:17:13Z</time>
				<extensions>
					<speed>0.0</speed>
				</extensions>
			</trkpt>
			<trkpt lat="53.25691345" lon="-8.92676559">
				<ele>66.0</ele>
				<time>2014-08-17T15:17:14Z</time>
				<extensions>
					<speed>0.0</speed>
				</extensions>
			</trkpt>
			<trkpt lat="53.2569135" lon="-8.92676551">
				<ele>66.0</ele>
				<time>2014-08-17T15:17:15Z</time>
				<extensions>
					<speed>0.0</speed>
				</extensions>
			</trkpt>
			<trkpt lat="53.2569135" lon="-8.9267655">
				<ele>66.0</ele>
				<time>2014-08-17T15:17:16Z</time>
				<extensions>
					<speed>0.0</speed>
				</extensions>
			</trkpt>
			<trkpt lat="53.25691352" lon="-8.92676544">
				<ele>66.0</ele>
				<time>2014-08-17T15:17:17Z</time>
				<extensions>
					<speed>0.0</speed>
				</extensions>
			</trkpt>
			<trkpt lat="53.2569135" lon="-8.92676543">
				<ele>66.0</ele>
				<time>2014-08-17T15:17:18Z</time>
				<extensions>
					<speed>0.0</speed>
				</extensions>
			</trkpt>
			<trkpt lat="53.25691353" lon="-8.92676536">
				<ele>66.0</ele>
				<time>2014-08-17T15:17:19Z</time>
				<extensions>
					<speed>0.0</speed>
				</extensions>
			</trkpt>
			<trkpt lat="53.25691351" lon="-8.92676536">
				<ele>66.0</ele>
				<time>2014-08-17T15:17:20Z</time>
				<extensions>
					<speed>0.0</speed>
				</extensions>
			</trkpt>
			<trkpt lat="53.25691354" lon="-8.92676531">
				<ele>66.0</ele>
				<time>2014-08-17T15:17:21Z</time>
				<extensions>
					<speed>0.0</speed>
				</extensions>
			</trkpt>
			<trkpt lat="53.25691357" lon="-8.92676527">
				<ele>66.0</ele>
				<time>2014-08-17T15:17:22Z</time>
				<extensions>
					<speed>0.0</speed>
				</extensions>
			</trkpt>
			<trkpt lat="53.25691356" lon="-8.92676529">
				<ele>66.0</ele>
				<time>2014-08-17T15:17:23Z</time>
				<extensions>
					<speed>0.0</speed>
				</extensions>
			</trkpt>
			<trkpt lat="53.25691359" lon="-8.92676524">
				<ele>66.0</ele>
				<time>2014-08-17T15:17:24Z</time>
				<extensions>
					<speed>0.0</speed>
				</extensions>
			</trkpt>
			<trkpt lat="53.25691362" lon="-8.92676526">
				<ele>66.0</ele>
				<time>2014-08-17T15:17:25Z</time>
				<extensions>
					<speed>0.0</speed>
				</extensions>
			</trkpt>
			<trkpt lat="53.2569135" lon="-8.9267665">
				<ele>66.0</ele>
				<time>2014-08-17T15:17:26Z</time>
				<extensions>
					<speed>0.75</speed>
				</extensions>
			</trkpt>
			<trkpt lat="53.25691044" lon="-8.9267829">
				<ele>66.0</ele>
				<time>2014-08-17T15:17:27Z</time>
				<extensions>
					<speed>1.25</speed>
				</extensions>
			</trkpt>
			<trkpt lat="53.25690939" lon="-8.92682096">
				<ele>66.0</ele>
				<time>2014-08-17T15:17:28Z</time>
				<extensions>
					<speed>2.75</speed>
				</extensions>
			</trkpt>
			<trkpt lat="53.25690995" lon="-8.92686609">
				<ele>66.0</ele>
				<time>2014-08-17T15:17:29Z</time>
				<extensions>
					<speed>3.5</speed>
				</extensions>
			</trkpt>
			<trkpt lat="53.25690481" lon="-8.92692609">
				<ele>66.0</ele>
				<time>2014-08-17T15:17:30Z</time>
				<extensions>
					<speed>4.25</speed>
				</extensions>
			</trkpt>
			<trkpt lat="53.25690074" lon="-8.926982">
				<ele>65.0</ele>
				<time>2014-08-17T15:17:31Z</time>
				<extensions>
					<speed>4.0</speed>
				</extensions>
			</trkpt>
			<trkpt lat="53.25689292" lon="-8.92704278">
				<ele>65.0</ele>
				<time>2014-08-17T15:17:32Z</time>
				<extensions>
					<speed>4.25</speed>
				</extensions>
			</trkpt>
			<trkpt lat="53.25688614" lon="-8.92711205">
				<ele>65.0</ele>
				<time>2014-08-17T15:17:33Z</time>
				<extensions>
					<speed>4.75</speed>
				</extensions>
			</trkpt>
			<trkpt lat="53.2568809" lon="-8.92718939">
				<ele>65.0</ele>
				<time>2014-08-17T15:17:34Z</time>
				<extensions>
					<speed>5.0</speed>
				</extensions>
			</trkpt>
			<trkpt lat="53.25687006" lon="-8.9272685">
				<ele>65.0</ele>
				<time>2014-08-17T15:17:35Z</time>
				<extensions>
					<speed>5.25</speed>
				</extensions>
			</trkpt>
			<trkpt lat="53.25686578" lon="-8.92734274">
				<ele>65.0</ele>
				<time>2014-08-17T15:17:36Z</time>
				<extensions>
					<speed>5.25</speed>
				</extensions>
			</trkpt>
			<trkpt lat="53.25685775" lon="-8.92741914">
				<ele>65.0</ele>
				<time>2014-08-17T15:17:37Z</time>
				<extensions>
					<speed>4.75</speed>
				</extensions>
			</trkpt>
			<trkpt lat="53.25684925" lon="-8.92749088">
				<ele>64.0</ele>
				<time>2014-08-17T15:17:38Z</time>
				<extensions>
					<speed>4.75</speed>
				</extensions>
			</trkpt>
			<trkpt lat="53.25684765" lon="-8.92755863">
				<ele>64.0</ele>
				<time>2014-08-17T15:17:39Z</time>
				<extensions>
					<speed>4.5</speed>
				</extensions>
			</trkpt>
			<trkpt lat="53.25683723" lon="-8.92762055">
				<ele>64.0</ele>
				<time>2014-08-17T15:17:40Z</time>
				<extensions>
					<speed>4.0</speed>
				</extensions>
			</trkpt>
			<trkpt lat="53.25683262" lon="-8.92768158">
				<ele>64.0</ele>
				<time>2014-08-17T15:17:41Z</time>
				<extensions>
					<speed>4.0</speed>
				</extensions>
			</trkpt>
			<trkpt lat="53.25682801" lon="-8.92774261">
				<ele>64.0</ele>
				<time>2014-08-17T15:17:42Z</time>
				<extensions>
					<speed>4.0</speed>
				</extensions>
			</trkpt>
			<trkpt lat="53.25682535" lon="-8.92781952">
				<ele>64.0</ele>
				<time>2014-08-17T15:17:43Z</time>
				<extensions>
					<speed>4.5</speed>
				</extensions>
			</trkpt>
			<trkpt lat="53.25681424" lon="-8.92789989">
				<ele>63.0</ele>
				<time>2014-08-17T15:17:44Z</time>
				<extensions>
					<speed>4.5</speed>
				</extensions>
			</trkpt>
			<trkpt lat="53.25680985" lon="-8.92796864">
				<ele>63.0</ele>
				<time>2014-08-17T15:17:45Z</time>
				<extensions>
					<speed>4.5</speed>
				</extensions>
			</trkpt>
			<trkpt lat="53.25680006" lon="-8.92801815">
				<ele>63.0</ele>
				<time>2014-08-17T15:17:46Z</time>
				<extensions>
					<speed>4.5</speed>
				</extensions>
			</trkpt>
			<trkpt lat="53.25679301" lon="-8.92808419">
				<ele>63.0</ele>
				<time>2014-08-17T15:17:47Z</time>
				<extensions>
					<speed>4.0</speed>
				</extensions>
			</trkpt>
			<trkpt lat="53.25679491" lon="-8.92814833">
				<ele>64.0</ele>
				<time>2014-08-17T15:17:48Z</time>
				<extensions>
					<speed>4.25</speed>
				</extensions>
			</trkpt>
			<trkpt lat="53.25679046" lon="-8.92821543">
				<ele>63.0</ele>
				<time>2014-08-17T15:17:49Z</time>
				<extensions>
					<speed>4.25</speed>
				</extensions>
			</trkpt>
			<trkpt lat="53.25679657" lon="-8.92828827">
				<ele>62.0</ele>
				<time>2014-08-17T15:17:50Z</time>
				<extensions>
					<speed>5.0</speed>
				</extensions>
			</trkpt>
			<trkpt lat="53.25680996" lon="-8.92836056">
				<ele>62.0</ele>
				<time>2014-08-17T15:17:51Z</time>
				<extensions>
					<speed>5.25</speed>
				</extensions>
			</trkpt>
			<trkpt lat="53.25684329" lon="-8.92841178">
				<ele>63.0</ele>
				<time>2014-08-17T15:17:52Z</time>
				<extensions>
					<speed>5.25</speed>
				</extensions>
			</trkpt>
			<trkpt lat="53.25687923" lon="-8.92845832">
				<ele>62.0</ele>
				<time>2014-08-17T15:17:53Z</time>
				<extensions>
					<speed>5.5</speed>
				</extensions>
			</trkpt>
			<trkpt lat="53.25692627" lon="-8.92848703">
				<ele>61.0</ele>
				<time>2014-08-17T15:17:54Z</time>
				<extensions>
					<speed>5.75</speed>
				</extensions>
			</trkpt>
			<trkpt lat="53.25697985" lon="-8.92848664">
				<ele>62.0</ele>
				<time>2014-08-17T15:17:55Z</time>
				<extensions>
					<speed>6.5</speed>
				</extensions>
			</trkpt>
			<trkpt lat="53.25703804" lon="-8.92848062">
				<ele>62.0</ele>
				<time>2014-08-17T15:17:56Z</time>
				<extensions>
					<speed>6.5</speed>
				</extensions>
			</trkpt>
			<trkpt lat="53.25709817" lon="-8.92848965">
				<ele>63.0</ele>
				<time>2014-08-17T15:17:57Z</time>
				<extensions>
					<speed>5.75</speed>
				</extensions>
			</trkpt>
			<trkpt lat="53.25715038" lon="-8.92848354">
				<ele>62.0</ele>
				<time>2014-08-17T15:17:58Z</time>
				<extensions>
					<speed>5.75</speed>
				</extensions>
			</trkpt>
			<trkpt lat="53.25720467" lon="-8.92850023">
				<ele>63.0</ele>
				<time>2014-08-17T15:17:59Z</time>
				<extensions>
					<speed>6.0</speed>
				</extensions>
			</trkpt>
			<trkpt lat="53.25726325" lon="-8.92852299">
				<ele>62.0</ele>
				<time>2014-08-17T15:18:00Z</time>
				<extensions>
					<speed>6.25</speed>
				</extensions>
			</trkpt>
			<trkpt lat="53.25731179" lon="-8.92854507">
				<ele>61.0</ele>
				<time>2014-08-17T15:18:01Z</time>
				<extensions>
					<speed>6.75</speed>
				</extensions>
			</trkpt>
			<trkpt lat="53.25737597" lon="-8.92858081">
				<ele>61.0</ele>
				<time>2014-08-17T15:18:02Z</time>
				<extensions>
					<speed>7.5</speed>
				</extensions>
			</trkpt>
			<trkpt lat="53.25744177" lon="-8.92862939">
				<ele>61.0</ele>
				<time>2014-08-17T15:18:03Z</time>
				<extensions>
					<speed>7.5</speed>
				</extensions>
			</trkpt>
			<trkpt lat="53.25750474" lon="-8.92869405">
				<ele>61.0</ele>
				<time>2014-08-17T15:18:04Z</time>
				<extensions>
					<speed>8.25</speed>
				</extensions>
			</trkpt>
			<trkpt lat="53.25756971" lon="-8.92875529">
				<ele>62.0</ele>
				<time>2014-08-17T15:18:05Z</time>
				<extensions>
					<speed>8.5</speed>
				</extensions>
			</trkpt>
			<trkpt lat="53.25763847" lon="-8.92881527">
				<ele>63.0</ele>
				<time>2014-08-17T15:18:06Z</time>
				<extensions>
					<speed>8.5</speed>
				</extensions>
			</trkpt>
			<trkpt lat="53.25770508" lon="-8.92888543">
				<ele>63.0</ele>
				<time>2014-08-17T15:18:07Z</time>
				<extensions>
					<speed>8.75</speed>
				</extensions>
			</trkpt>
			<trkpt lat="53.25777603" lon="-8.92895444">
				<ele>63.0</ele>
				<time>2014-08-17T15:18:08Z</time>
				<extensions>
					<speed>8.75</speed>
				</extensions>
			</trkpt>
			<trkpt lat="53.25782745" lon="-8.92902013">
				<ele>62.0</ele>
				<time>2014-08-17T15:18:09Z</time>
				<extensions>
					<speed>8.25</speed>
				</extensions>
			</trkpt>
			<trkpt lat="53.25788369" lon="-8.92908733">
				<ele>61.0</ele>
				<time>2014-08-17T15:18:10Z</time>
				<extensions>
					<speed>8.25</speed>
				</extensions>
			</trkpt>
			<trkpt lat="53.25794536" lon="-8.92915469">
				<ele>61.0</ele>
				<time>2014-08-17T15:18:11Z</time>
				<extensions>
					<speed>7.5</speed>
				</extensions>
			</trkpt>
			<trkpt lat="53.25799776" lon="-8.92921801">
				<ele>61.0</ele>
				<time>2014-08-17T15:18:12Z</time>
				<extensions>
					<speed>7.25</speed>
				</extensions>
			</trkpt>
			<trkpt lat="53.25803723" lon="-8.92929426">
				<ele>60.0</ele>
				<time>2014-08-17T15:18:13Z</time>
				<extensions>
					<speed>6.5</speed>
				</extensions>
			</trkpt>
			<trkpt lat="53.25805354" lon="-8.92938186">
				<ele>58.0</ele>
				<time>2014-08-17T15:18:14Z</time>
				<extensions>
					<speed>5.75</speed>
				</extensions>
			</trkpt>
			<trkpt lat="53.25805435" lon="-8.92946942">
				<ele>58.0</ele>
				<time>2014-08-17T15:18:15Z</time>
				<extensions>
					<speed>5.75</speed>
				</extensions>
			</trkpt>
			<trkpt lat="53.25804707" lon="-8.92955523">
				<ele>59.0</ele>
				<time>2014-08-17T15:18:16Z</time>
				<extensions>
					<speed>5.25</speed>
				</extensions>
			</trkpt>
			<trkpt lat="53.25803662" lon="-8.92962033">
				<ele>59.0</ele>
				<time>2014-08-17T15:18:17Z</time>
				<extensions>
					<speed>5.0</speed>
				</extensions>
			</trkpt>
			<trkpt lat="53.25803771" lon="-8.9296933">
				<ele>59.0</ele>
				<time>2014-08-17T15:18:18Z</time>
				<extensions>
					<speed>5.0</speed>
				</extensions>
			</trkpt>
			<trkpt lat="53.25803247" lon="-8.92976728">
				<ele>60.0</ele>
				<time>2014-08-17T15:18:19Z</time>
				<extensions>
					<speed>5.0</speed>
				</extensions>
			</trkpt>
			<trkpt lat="53.25802463" lon="-8.92984522">
				<ele>59.0</ele>
				<time>2014-08-17T15:18:20Z</time>
				<extensions>
					<speed>4.75</speed>
				</extensions>
			</trkpt>
			<trkpt lat="53.25801025" lon="-8.92991078">
				<ele>60.0</ele>
				<time>2014-08-17T15:18:21Z</time>
				<extensions>
					<speed>4.25</speed>
				</extensions>
			</trkpt>
			<trkpt lat="53.25799175" lon="-8.9299617">
				<ele>60.0</ele>
				<time>2014-08-17T15:18:22Z</time>
				<extensions>
					<speed>4.0</speed>
				</extensions>
			</trkpt>
			<trkpt lat="53.25797069" lon="-8.92999404">
				<ele>60.0</ele>
				<time>2014-08-17T15:18:23Z</time>
				<extensions>
					<speed>3.75</speed>
				</extensions>
			</trkpt>
			<trkpt lat="53.25793941" lon="-8.93001307">
				<ele>59.0</ele>
				<time>2014-08-17T15:18:24Z</time>
				<extensions>
					<speed>3.25</speed>
				</extensions>
			</trkpt>
			<trkpt lat="53.25790309" lon="-8.93001559">
				<ele>59.0</ele>
				<time>2014-08-17T15:18:25Z</time>
				<extensions>
					<speed>2.75</speed>
				</extensions>
			</trkpt>
			<trkpt lat="53.25788552" lon="-8.93001665">
				<ele>59.0</ele>
				<time>2014-08-17T15:18:26Z</time>
				<extensions>
					<speed>2.25</speed>
				</extensions>
			</trkpt>
			<trkpt lat="53.25786922" lon="-8.93003264">
				<ele>59.0</ele>
				<time>2014-08-17T15:18:27Z</time>
				<extensions>
					<speed>1.75</speed>
				</extensions>
			</trkpt>
			<trkpt lat="53.25785574" lon="-8.93004665">
				<ele>59.0</ele>
				<time>2014-08-17T15:18:28Z</time>
				<extensions>
					<speed>1.75</speed>
				</extensions>
			</trkpt>
			<trkpt lat="53.25786981" lon="-8.93003965">
				<ele>58.0</ele>
				<time>2014-08-17T15:18:29Z</time>
				<extensions>
					<speed>0.5</speed>
				</extensions>
			</trkpt>
			<trkpt lat="53.25786982" lon="-8.9300417">
				<ele>59.0</ele>
				<time>2014-08-17T15:18:30Z</time>
				<extensions>
					<speed>0.0</speed>
				</extensions>
			</trkpt>
			<trkpt lat="53.25786979" lon="-8.93004306">
				<ele>59.0</ele>
				<time>2014-08-17T15:18:31Z</time>
				<extensions>
					<speed>0.0</speed>
				</extensions>
			</trkpt>
			<trkpt lat="53.25786933" lon="-8.93004579">
				<ele>59.0</ele>
				<time>2014-08-17T15:18:32Z</time>
				<extensions>
					<speed>0.0</speed>
				</extensions>
			</trkpt>
			<trkpt lat="53.25787138" lon="-8.93004702">
				<ele>60.0</ele>
				<time>2014-08-17T15:18:33Z</time>
				<extensions>
					<speed>0.0</speed>
				</extensions>
			</trkpt>
			<trkpt lat="53.25787377" lon="-8.93004065">
				<ele>59.0</ele>
				<time>2014-08-17T15:18:34Z</time>
				<extensions>
					<speed>0.0</speed>
				</extensions>
			</trkpt>
			<trkpt lat="53.25787873" lon="-8.93004685">
				<ele>59.0</ele>
				<time>2014-08-17T15:18:35Z</time>
				<extensions>
					<speed>0.0</speed>
				</extensions>
			</trkpt>
			<trkpt lat="53.25787998" lon="-8.93005167">
				<ele>60.0</ele>
				<time>2014-08-17T15:18:36Z</time>
				<extensions>
					<speed>0.0</speed>
				</extensions>
			</trkpt>
			<trkpt lat="53.25787999" lon="-8.9300525">
				<ele>60.0</ele>
				<time>2014-08-17T15:18:37Z</time>
				<extensions>
					<speed>0.0</speed>
				</extensions>
			</trkpt>
			<trkpt lat="53.25788063" lon="-8.93004965">
				<ele>60.0</ele>
				<time>2014-08-17T15:18:38Z</time>
				<extensions>
					<speed>0.0</speed>
				</extensions>
			</trkpt>
			<trkpt lat="53.257879" lon="-8.93005071">
				<ele>60.0</ele>
				<time>2014-08-17T15:18:39Z</time>
				<extensions>
					<speed>0.0</speed>
				</extensions>
			</trkpt>
			<trkpt lat="53.25787955" lon="-8.93005219">
				<ele>60.0</ele>
				<time>2014-08-17T15:18:40Z</time>
				<extensions>
					<speed>0.0</speed>
				</extensions>
			</trkpt>
			<trkpt lat="53.2578799" lon="-8.93005222">
				<ele>60.0</ele>
				<time>2014-08-17T15:18:41Z</time>
				<extensions>
					<speed>0.0</speed>
				</extensions>
			</trkpt>
			<trkpt lat="53.25787979" lon="-8.93005164">
				<ele>60.0</ele>
				<time>2014-08-17T15:18:42Z</time>
				<extensions>
					<speed>0.0</speed>
				</extensions>
			</trkpt>
			<trkpt lat="53.25787972" lon="-8.9300516">
				<ele>60.0</ele>
				<time>2014-08-17T15:18:43Z</time>
				<extensions>
					<speed>0.0</speed>
				</extensions>
			</trkpt>
			<trkpt lat="53.25787972" lon="-8.93005166">
				<ele>60.0</ele>
				<time>2014-08-17T15:18:44Z</time>
				<extensions>
					<speed>0.0</speed>
				</extensions>
			</trkpt>
			<trkpt lat="53.25787973" lon="-8.93005169">
				<ele>60.0</ele>
				<time>2014-08-17T15:18:45Z</time>
				<extensions>
					<speed>0.0</speed>
				</extensions>
			</trkpt>
			<trkpt lat="53.25787974" lon="-8.93005168">
				<ele>60.0</ele>
				<time>2014-08-17T15:18:46Z</time>
				<extensions>
					<speed>0.0</speed>
				</extensions>
			</trkpt>
			<trkpt lat="53.25787973" lon="-8.93005167">
				<ele>60.0</ele>
				<time>2014-08-17T15:18:47Z</time>
				<extensions>
					<speed>0.0</speed>
				</extensions>
			</trkpt>
			<trkpt lat="53.25787978" lon="-8.93005167">
				<ele>60.0</ele>
				<time>2014-08-17T15:18:48Z</time>
				<extensions>
					<speed>0.0</speed>
				</extensions>
			</trkpt>
			<trkpt lat="53.25787972" lon="-8.93005166">
				<ele>60.0</ele>
				<time>2014-08-17T15:18:49Z</time>
				<extensions>
					<speed>0.0</speed>
				</extensions>
			</trkpt>
			<trkpt lat="53.25787971" lon="-8.93005167">
				<ele>59.0</ele>
				<time>2014-08-17T15:18:50Z</time>
				<extensions>
					<speed>0.0</speed>
				</extensions>
			</trkpt>
			<trkpt lat="53.25787924" lon="-8.93005236">
				<ele>59.0</ele>
				<time>2014-08-17T15:18:51Z</time>
				<extensions>
					<speed>0.25</speed>
				</extensions>
			</trkpt>
			<trkpt lat="53.25788107" lon="-8.93005703">
				<ele>59.0</ele>
				<time>2014-08-17T15:18:52Z</time>
				<extensions>
					<speed>0.25</speed>
				</extensions>
			</trkpt>
			<trkpt lat="53.25787617" lon="-8.93006343">
				<ele>60.0</ele>
				<time>2014-08-17T15:18:53Z</time>
				<extensions>
					<speed>0.75</speed>
				</extensions>
			</trkpt>
			<trkpt lat="53.25787041" lon="-8.93008175">
				<ele>59.0</ele>
				<time>2014-08-17T15:18:54Z</time>
				<extensions>
					<speed>1.25</speed>
				</extensions>
			</trkpt>
			<trkpt lat="53.25786435" lon="-8.93010506">
				<ele>60.0</ele>
				<time>2014-08-17T15:18:55Z</time>
				<extensions>
					<speed>1.5</speed>
				</extensions>
			</trkpt>
			<trkpt lat="53.25785374" lon="-8.93012751">
				<ele>60.0</ele>
				<time>2014-08-17T15:18:56Z</time>
				<extensions>
					<speed>1.75</speed>
				</extensions>
			</trkpt>
			<trkpt lat="53.25784058" lon="-8.9301497">
				<ele>60.0</ele>
				<time>2014-08-17T15:18:57Z</time>
				<extensions>
					<speed>1.75</speed>
				</extensions>
			</trkpt>
			<trkpt lat="53.25783024" lon="-8.9301738">
				<ele>60.0</ele>
				<time>2014-08-17T15:18:58Z</time>
				<extensions>
					<speed>2.0</speed>
				</extensions>
			</trkpt>
			<trkpt lat="53.25782105" lon="-8.93019726">
				<ele>60.0</ele>
				<time>2014-08-17T15:18:59Z</time>
				<extensions>
					<speed>1.5</speed>
				</extensions>
			</trkpt>
			<trkpt lat="53.25781352" lon="-8.9302169">
				<ele>61.0</ele>
				<time>2014-08-17T15:19:00Z</time>
				<extensions>
					<speed>1.0</speed>
				</extensions>
			</trkpt>
			<trkpt lat="53.25780684" lon="-8.93022817">
				<ele>62.0</ele>
				<time>2014-08-17T15:19:01Z</time>
				<extensions>
					<speed>0.0</speed>
				</extensions>
			</trkpt>
			<trkpt lat="53.25780719" lon="-8.93023196">
				<ele>62.0</ele>
				<time>2014-08-17T15:19:02Z</time>
				<extensions>
					<speed>0.0</speed>
				</extensions>
			</trkpt>
			<trkpt lat="53.25780172" lon="-8.93023888">
				<ele>62.0</ele>
				<time>2014-08-17T15:19:03Z</time>
				<extensions>
					<speed>0.0</speed>
				</extensions>
			</trkpt>
			<trkpt lat="53.25780172" lon="-8.93023888">
				<ele>62.0</ele>
				<time>2014-08-17T15:19:04Z</time>
				<extensions>
					<speed>0.0</speed>
				</extensions>
			</trkpt>
			<trkpt lat="53.25780357" lon="-8.93024134">
				<ele>63.0</ele>
				<time>2014-08-17T15:19:05Z</time>
				<extensions>
					<speed>0.0</speed>
				</extensions>
			</trkpt>
			<trkpt lat="53.25780237" lon="-8.93024404">
				<ele>63.0</ele>
				<time>2014-08-17T15:19:06Z</time>
				<extensions>
					<speed>0.0</speed>
				</extensions>
			</trkpt>
			<trkpt lat="53.25780406" lon="-8.93024314">
				<ele>63.0</ele>
				<time>2014-08-17T15:19:07Z</time>
				<extensions>
					<speed>0.0</speed>
				</extensions>
			</trkpt>
			<trkpt lat="53.25780337" lon="-8.93024576">
				<ele>63.0</ele>
				<time>2014-08-17T15:19:08Z</time>
				<extensions>
					<speed>0.0</speed>
				</extensions>
			</trkpt>
			<trkpt lat="53.25780337" lon="-8.93024576">
				<ele>63.0</ele>
				<time>2014-08-17T15:19:09Z</time>
				<extensions>
					<speed>0.0</speed>
				</extensions>
			</trkpt>
			<trkpt lat="53.25780245" lon="-8.93024241">
				<ele>63.0</ele>
				<time>2014-08-17T15:19:10Z</time>
				<extensions>
					<speed>0.0</speed>
				</extensions>
			</trkpt>
			<trkpt lat="53.25780296" lon="-8.93024338">
				<ele>63.0</ele>
				<time>2014-08-17T15:19:11Z</time>
				<extensions>
					<speed>0.0</speed>
				</extensions>
			</trkpt>
			<trkpt lat="53.2578028" lon="-8.93024295">
				<ele>63.0</ele>
				<time>2014-08-17T15:19:12Z</time>
				<extensions>
					<speed>0.0</speed>
				</extensions>
			</trkpt>
			<trkpt lat="53.25780247" lon="-8.93024279">
				<ele>63.0</ele>
				<time>2014-08-17T15:19:13Z</time>
				<extensions>
					<speed>0.0</speed>
				</extensions>
			</trkpt>
			<trkpt lat="53.25780302" lon="-8.93024277">
				<ele>63.0</ele>
				<time>2014-08-17T15:19:14Z</time>
				<extensions>
					<speed>0.0</speed>
				</extensions>
			</trkpt>
			<trkpt lat="53.25780317" lon="-8.93024268">
				<ele>63.0</ele>
				<time>2014-08-17T15:19:15Z</time>
				<extensions>
					<speed>0.0</speed>
				</extensions>
			</trkpt>
			<trkpt lat="53.25780411" lon="-8.93024233">
				<ele>63.0</ele>
				<time>2014-08-17T15:19:16Z</time>
				<extensions>
					<speed>0.0</speed>
				</extensions>
			</trkpt>
			<trkpt lat="53.2578033" lon="-8.93024277">
				<ele>63.0</ele>
				<time>2014-08-17T15:19:17Z</time>
				<extensions>
					<speed>0.0</speed>
				</extensions>
			</trkpt>
			<trkpt lat="53.25780186" lon="-8.93024384">
				<ele>63.0</ele>
				<time>2014-08-17T15:19:18Z</time>
				<extensions>
					<speed>0.0</speed>
				</extensions>
			</trkpt>
			<trkpt lat="53.25780134" lon="-8.93024373">
				<ele>63.0</ele>
				<time>2014-08-17T15:19:19Z</time>
				<extensions>
					<speed>0.0</speed>
				</extensions>
			</trkpt>
			<trkpt lat="53.25780078" lon="-8.93024326">
				<ele>63.0</ele>
				<time>2014-08-17T15:19:20Z</time>
				<extensions>
					<speed>0.0</speed>
				</extensions>
			</trkpt>
			<trkpt lat="53.2578004" lon="-8.93024342">
				<ele>63.0</ele>
				<time>2014-08-17T15:19:21Z</time>
				<extensions>
					<speed>0.0</speed>
				</extensions>
			</trkpt>
			<trkpt lat="53.25779964" lon="-8.9302437">
				<ele>63.0</ele>
				<time>2014-08-17T15:19:22Z</time>
				<extensions>
					<speed>0.0</speed>
				</extensions>
			</trkpt>
			<trkpt lat="53.25780043" lon="-8.930243">
				<ele>63.0</ele>
				<time>2014-08-17T15:19:23Z</time>
				<extensions>
					<speed>0.0</speed>
				</extensions>
			</trkpt>
			<trkpt lat="53.2578008" lon="-8.93024284">
				<ele>63.0</ele>
				<time>2014-08-17T15:19:24Z</time>
				<extensions>
					<speed>0.0</speed>
				</extensions>
			</trkpt>
			<trkpt lat="53.25780055" lon="-8.93024313">
				<ele>63.0</ele>
				<time>2014-08-17T15:19:25Z</time>
				<extensions>
					<speed>0.0</speed>
				</extensions>
			</trkpt>
			<trkpt lat="53.25780002" lon="-8.9302436">
				<ele>64.0</ele>
				<time>2014-08-17T15:19:26Z</time>
				<extensions>
					<speed>0.0</speed>
				</extensions>
			</trkpt>
			<trkpt lat="53.25779933" lon="-8.9302442">
				<ele>64.0</ele>
				<time>2014-08-17T15:19:27Z</time>
				<extensions>
					<speed>0.0</speed>
				</extensions>
			</trkpt>
			<trkpt lat="53.25779896" lon="-8.9302445">
				<ele>64.0</ele>
				<time>2014-08-17T15:19:28Z</time>
				<extensions>
					<speed>0.0</speed>
				</extensions>
			</trkpt>
			<trkpt lat="53.25779849" lon="-8.93024489">
				<ele>64.0</ele>
				<time>2014-08-17T15:19:29Z</time>
				<extensions>
					<speed>0.0</speed>
				</extensions>
			</trkpt>
			<trkpt lat="53.25779809" lon="-8.93024519">
				<ele>64.0</ele>
				<time>2014-08-17T15:19:30Z</time>
				<extensions>
					<speed>0.0</speed>
				</extensions>
			</trkpt>
			<trkpt lat="53.25779776" lon="-8.93024542">
				<ele>64.0</ele>
				<time>2014-08-17T15:19:31Z</time>
				<extensions>
					<speed>0.0</speed>
				</extensions>
			</trkpt>
			<trkpt lat="53.25779757" lon="-8.93024558">
				<ele>64.0</ele>
				<time>2014-08-17T15:19:32Z</time>
				<extensions>
					<speed>0.0</speed>
				</extensions>
			</trkpt>
			<trkpt lat="53.2577974" lon="-8.93024561">
				<ele>64.0</ele>
				<time>2014-08-17T15:19:33Z</time>
				<extensions>
					<speed>0.0</speed>
				</extensions>
			</trkpt>
			<trkpt lat="53.25779738" lon="-8.93024562">
				<ele>64.0</ele>
				<time>2014-08-17T15:19:34Z</time>
				<extensions>
					<speed>0.0</speed>
				</extensions>
			</trkpt>
			<trkpt lat="53.25779738" lon="-8.93024562">
				<ele>64.0</ele>
				<time>2014-08-17T15:19:35Z</time>
				<extensions>
					<speed>0.0</speed>
				</extensions>
			</trkpt>
			<trkpt lat="53.25779738" lon="-8.93024564">
				<ele>64.0</ele>
				<time>2014-08-17T15:19:36Z</time>
				<extensions>
					<speed>0.0</speed>
				</extensions>
			</trkpt>
			<trkpt lat="53.25779738" lon="-8.93024565">
				<ele>64.0</ele>
				<time>2014-08-17T15:19:37Z</time>
				<extensions>
					<speed>0.0</speed>
				</extensions>
			</trkpt>
			<trkpt lat="53.25779739" lon="-8.93024564">
				<ele>64.0</ele>
				<time>2014-08-17T15:19:38Z</time>
				<extensions>
					<speed>0.0</speed>
				</extensions>
			</trkpt>
			<trkpt lat="53.25779739" lon="-8.93024566">
				<ele>64.0</ele>
				<time>2014-08-17T15:19:39Z</time>
				<extensions>
					<speed>0.0</speed>
				</extensions>
			</trkpt>
			<trkpt lat="53.25779739" lon="-8.93024567">
				<ele>64.0</ele>
				<time>2014-08-17T15:19:40Z</time>
				<extensions>
					<speed>0.0</speed>
				</extensions>
			</trkpt>
			<trkpt lat="53.25779737" lon="-8.93024564">
				<ele>64.0</ele>
				<time>2014-08-17T15:19:41Z</time>
				<extensions>
					<speed>0.0</speed>
				</extensions>
			</trkpt>
			<trkpt lat="53.25779738" lon="-8.93024564">
				<ele>64.0</ele>
				<time>2014-08-17T15:19:42Z</time>
				<extensions>
					<speed>0.0</speed>
				</extensions>
			</trkpt>
			<trkpt lat="53.25779737" lon="-8.9302456">
				<ele>64.0</ele>
				<time>2014-08-17T15:19:43Z</time>
				<extensions>
					<speed>0.0</speed>
				</extensions>
			</trkpt>
			<trkpt lat="53.2577974" lon="-8.93024559">
				<ele>64.0</ele>
				<time>2014-08-17T15:19:44Z</time>
				<extensions>
					<speed>0.0</speed>
				</extensions>
			</trkpt>
			<trkpt lat="53.25779741" lon="-8.9302456">
				<ele>64.0</ele>
				<time>2014-08-17T15:19:45Z</time>
				<extensions>
					<speed>0.0</speed>
				</extensions>
			</trkpt>
			<trkpt lat="53.25779743" lon="-8.93024558">
				<ele>64.0</ele>
				<time>2014-08-17T15:19:46Z</time>
				<extensions>
					<speed>0.0</speed>
				</extensions>
			</trkpt>
			<trkpt lat="53.25779742" lon="-8.93024558">
				<ele>64.0</ele>
				<time>2014-08-17T15:19:47Z</time>
				<extensions>
					<speed>0.0</speed>
				</extensions>
			</trkpt>
			<trkpt lat="53.25779742" lon="-8.93024558">
				<ele>64.0</ele>
				<time>2014-08-17T15:19:48Z</time>
				<extensions>
					<speed>0.0</speed>
				</extensions>
			</trkpt>
			<trkpt lat="53.25779746" lon="-8.93024556">
				<ele>64.0</ele>
				<time>2014-08-17T15:19:49Z</time>
				<extensions>
					<speed>0.0</speed>
				</extensions>
			</trkpt>
			<trkpt lat="53.25779749" lon="-8.93024555">
				<ele>64.0</ele>
				<time>2014-08-17T15:19:50Z</time>
				<extensions>
					<speed>0.0</speed>
				</extensions>
			</trkpt>
			<trkpt lat="53.25779749" lon="-8.93024555">
				<ele>64.0</ele>
				<time>2014-08-17T15:19:51Z</time>
				<extensions>
					<speed>0.0</speed>
				</extensions>
			</trkpt>
			<trkpt lat="53.2577975" lon="-8.93024556">
				<ele>64.0</ele>
				<time>2014-08-17T15:19:52Z</time>
				<extensions>
					<speed>0.0</speed>
				</extensions>
			</trkpt>
			<trkpt lat="53.25779751" lon="-8.93024556">
				<ele>64.0</ele>
				<time>2014-08-17T15:19:53Z</time>
				<extensions>
					<speed>0.0</speed>
				</extensions>
			</trkpt>
			<trkpt lat="53.25779754" lon="-8.93024551">
				<ele>64.0</ele>
				<time>2014-08-17T15:19:54Z</time>
				<extensions>
					<speed>0.0</speed>
				</extensions>
			</trkpt>
			<trkpt lat="53.2577976" lon="-8.93024545">
				<ele>64.0</ele>
				<time>2014-08-17T15:19:55Z</time>
				<extensions>
					<speed>0.0</speed>
				</extensions>
			</trkpt>
			<trkpt lat="53.2577976" lon="-8.93024545">
				<ele>64.0</ele>
				<time>2014-08-17T15:19:56Z</time>
				<extensions>
					<speed>0.0</speed>
				</extensions>
			</trkpt>
			<trkpt lat="53.25779765" lon="-8.93024532">
				<ele>64.0</ele>
				<time>2014-08-17T15:19:57Z</time>
				<extensions>
					<speed>0.0</speed>
				</extensions>
			</trkpt>
			<trkpt lat="53.25779768" lon="-8.93024527">
				<ele>64.0</ele>
				<time>2014-08-17T15:19:58Z</time>
				<extensions>
					<speed>0.0</speed>
				</extensions>
			</trkpt>
			<trkpt lat="53.25779773" lon="-8.93024522">
				<ele>64.0</ele>
				<time>2014-08-17T15:19:59Z</time>
				<extensions>
					<speed>0.0</speed>
				</extensions>
			</trkpt>
			<trkpt lat="53.25779768" lon="-8.93024527">
				<ele>64.0</ele>
				<time>2014-08-17T15:20:00Z</time>
				<extensions>
					<speed>0.0</speed>
				</extensions>
			</trkpt>
			<trkpt lat="53.25779768" lon="-8.9302453">
				<ele>64.0</ele>
				<time>2014-08-17T15:20:01Z</time>
				<extensions>
					<speed>0.0</speed>
				</extensions>
			</trkpt>
			<trkpt lat="53.25779768" lon="-8.93024531">
				<ele>64.0</ele>
				<time>2014-08-17T15:20:02Z</time>
				<extensions>
					<speed>0.0</speed>
				</extensions>
			</trkpt>
			<trkpt lat="53.25779768" lon="-8.93024535">
				<ele>64.0</ele>
				<time>2014-08-17T15:20:03Z</time>
				<extensions>
					<speed>0.0</speed>
				</extensions>
			</trkpt>
			<trkpt lat="53.25779768" lon="-8.93024534">
				<ele>64.0</ele>
				<time>2014-08-17T15:20:04Z</time>
				<extensions>
					<speed>0.0</speed>
				</extensions>
			</trkpt>
			<trkpt lat="53.25779768" lon="-8.93024534">
				<ele>64.0</ele>
				<time>2014-08-17T15:20:05Z</time>
				<extensions>
					<speed>0.0</speed>
				</extensions>
			</trkpt>
			<trkpt lat="53.25779766" lon="-8.93024531">
				<ele>64.0</ele>
				<time>2014-08-17T15:20:06Z</time>
				<extensions>
					<speed>0.0</speed>
				</extensions>
			</trkpt>
			<trkpt lat="53.25779766" lon="-8.93024527">
				<ele>64.0</ele>
				<time>2014-08-17T15:20:07Z</time>
				<extensions>
					<speed>0.0</speed>
				</extensions>
			</trkpt>
			<trkpt lat="53.25779767" lon="-8.93024526">
				<ele>64.0</ele>
				<time>2014-08-17T15:20:08Z</time>
				<extensions>
					<speed>0.0</speed>
				</extensions>
			</trkpt>
			<trkpt lat="53.25779767" lon="-8.93024526">
				<ele>64.0</ele>
				<time>2014-08-17T15:20:09Z</time>
				<extensions>
					<speed>0.0</speed>
				</extensions>
			</trkpt>
			<trkpt lat="53.25779771" lon="-8.93024521">
				<ele>64.0</ele>
				<time>2014-08-17T15:20:10Z</time>
				<extensions>
					<speed>0.0</speed>
				</extensions>
			</trkpt>
			<trkpt lat="53.25779772" lon="-8.93024521">
				<ele>64.0</ele>
				<time>2014-08-17T15:20:11Z</time>
				<extensions>
					<speed>0.0</speed>
				</extensions>
			</trkpt>
			<trkpt lat="53.25779771" lon="-8.9302452">
				<ele>64.0</ele>
				<time>2014-08-17T15:20:12Z</time>
				<extensions>
					<speed>0.0</speed>
				</extensions>
			</trkpt>
			<trkpt lat="53.2577977" lon="-8.93024524">
				<ele>64.0</ele>
				<time>2014-08-17T15:20:13Z</time>
				<extensions>
					<speed>0.0</speed>
				</extensions>
			</trkpt>
			<trkpt lat="53.2577977" lon="-8.93024526">
				<ele>64.0</ele>
				<time>2014-08-17T15:20:14Z</time>
				<extensions>
					<speed>0.0</speed>
				</extensions>
			</trkpt>
			<trkpt lat="53.25779772" lon="-8.93024525">
				<ele>64.0</ele>
				<time>2014-08-17T15:20:15Z</time>
				<extensions>
					<speed>0.0</speed>
				</extensions>
			</trkpt>
			<trkpt lat="53.25779771" lon="-8.93024526">
				<ele>64.0</ele>
				<time>2014-08-17T15:20:16Z</time>
				<extensions>
					<speed>0.0</speed>
				</extensions>
			</trkpt>
			<trkpt lat="53.25779659" lon="-8.93024913">
				<ele>64.0</ele>
				<time>2014-08-17T15:20:17Z</time>
				<extensions>
					<speed>0.5</speed>
				</extensions>
			</trkpt>
			<trkpt lat="53.25778603" lon="-8.93026357">
				<ele>63.0</ele>
				<time>2014-08-17T15:20:18Z</time>
				<extensions>
					<speed>1.25</speed>
				</extensions>
			</trkpt>
			<trkpt lat="53.25778485" lon="-8.93027232">
				<ele>63.0</ele>
				<time>2014-08-17T15:20:19Z</time>
				<extensions>
					<speed>2.0</speed>
				</extensions>
			</trkpt>
			<trkpt lat="53.25776541" lon="-8.93031727">
				<ele>65.0</ele>
				<time>2014-08-17T15:20:20Z</time>
				<extensions>
					<speed>2.25</speed>
				</extensions>
			</trkpt>
			<trkpt lat="53.257749" lon="-8.93034613">
				<ele>64.0</ele>
				<time>2014-08-17T15:20:21Z</time>
				<extensions>
					<speed>2.25</speed>
				</extensions>
			</trkpt>
			<trkpt lat="53.25773958" lon="-8.93036281">
				<ele>64.0</ele>
				<time>2014-08-17T15:20:22Z</time>
				<extensions>
					<speed>2.0</speed>
				</extensions>
			</trkpt>
			<trkpt lat="53.25772855" lon="-8.93037561">
				<ele>63.0</ele>
				<time>2014-08-17T15:20:23Z</time>
				<extensions>
					<speed>1.75</speed>
				</extensions>
			</trkpt>
			<trkpt lat="53.25772512" lon="-8.93037863">
				<ele>63.0</ele>
				<time>2014-08-17T15:20:24Z</time>
				<extensions>
					<speed>1.25</speed>
				</extensions>
			</trkpt>
			<trkpt lat="53.25772223" lon="-8.93038587">
				<ele>64.0</ele>
				<time>2014-08-17T15:20:25Z</time>
				<extensions>
					<speed>0.75</speed>
				</extensions>
			</trkpt>
			<trkpt lat="53.25771788" lon="-8.9303985">
				<ele>64.0</ele>
				<time>2014-08-17T15:20:26Z</time>
				<extensions>
					<speed>0.75</speed>
				</extensions>
			</trkpt>
			<trkpt lat="53.2577153" lon="-8.93040752">
				<ele>65.0</ele>
				<time>2014-08-17T15:20:27Z</time>
				<extensions>
					<speed>0.5</speed>
				</extensions>
			</trkpt>
			<trkpt lat="53.25771278" lon="-8.93039784">
				<ele>65.0</ele>
				<time>2014-08-17T15:20:28Z</time>
				<extensions>
					<speed>0.25</speed>
				</extensions>
			</trkpt>
			<trkpt lat="53.25771243" lon="-8.93040293">
				<ele>65.0</ele>
				<time>2014-08-17T15:20:29Z</time>
				<extensions>
					<speed>0.0</speed>
				</extensions>
			</trkpt>
			<trkpt lat="53.2577122" lon="-8.93040768">
				<ele>66.0</ele>
				<time>2014-08-17T15:20:30Z</time>
				<extensions>
					<speed>0.0</speed>
				</extensions>
			</trkpt>
			<trkpt lat="53.25771359" lon="-8.93040754">
				<ele>66.0</ele>
				<time>2014-08-17T15:20:31Z</time>
				<extensions>
					<speed>0.0</speed>
				</extensions>
			</trkpt>
			<trkpt lat="53.25771117" lon="-8.93042046">
				<ele>66.0</ele>
				<time>2014-08-17T15:20:32Z</time>
				<extensions>
					<speed>0.0</speed>
				</extensions>
			</trkpt>
			<trkpt lat="53.25770793" lon="-8.93042225">
				<ele>66.0</ele>
				<time>2014-08-17T15:20:33Z</time>
				<extensions>
					<speed>0.0</speed>
				</extensions>
			</trkpt>
			<trkpt lat="53.25770937" lon="-8.930423">
				<ele>66.0</ele>
				<time>2014-08-17T15:20:34Z</time>
				<extensions>
					<speed>0.0</speed>
				</extensions>
			</trkpt>
			<trkpt lat="53.25770577" lon="-8.93043172">
				<ele>66.0</ele>
				<time>2014-08-17T15:20:35Z</time>
				<extensions>
					<speed>1.25</speed>
				</extensions>
			</trkpt>
			<trkpt lat="53.257699" lon="-8.93046501">
				<ele>66.0</ele>
				<time>2014-08-17T15:20:36Z</time>
				<extensions>
					<speed>2.5</speed>
				</extensions>
			</trkpt>
			<trkpt lat="53.25769107" lon="-8.93051712">
				<ele>65.0</ele>
				<time>2014-08-17T15:20:37Z</time>
				<extensions>
					<speed>4.0</speed>
				</extensions>
			</trkpt>
			<trkpt lat="53.25767698" lon="-8.93057464">
				<ele>65.0</ele>
				<time>2014-08-17T15:20:38Z</time>
				<extensions>
					<speed>4.25</speed>
				</extensions>
			</trkpt>
			<trkpt lat="53.25765688" lon="-8.93063254">
				<ele>65.0</ele>
				<time>2014-08-17T15:20:39Z</time>
				<extensions>
					<speed>4.5</speed>
				</extensions>
			</trkpt>
			<trkpt lat="53.25763399" lon="-8.93068797">
				<ele>65.0</ele>
				<time>2014-08-17T15:20:40Z</time>
				<extensions>
					<speed>4.75</speed>
				</extensions>
			</trkpt>
			<trkpt lat="53.25760916" lon="-8.93073832">
				<ele>65.0</ele>
				<time>2014-08-17T15:20:41Z</time>
				<extensions>
					<speed>4.25</speed>
				</extensions>
			</trkpt>
			<trkpt lat="53.25758319" lon="-8.9307801">
				<ele>65.0</ele>
				<time>2014-08-17T15:20:42Z</time>
				<extensions>
					<speed>4.25</speed>
				</extensions>
			</trkpt>
			<trkpt lat="53.25756041" lon="-8.93082522">
				<ele>65.0</ele>
				<time>2014-08-17T15:20:43Z</time>
				<extensions>
					<speed>4.0</speed>
				</extensions>
			</trkpt>
			<trkpt lat="53.25753854" lon="-8.93087716">
				<ele>64.0</ele>
				<time>2014-08-17T15:20:44Z</time>
				<extensions>
					<speed>3.75</speed>
				</extensions>
			</trkpt>
			<trkpt lat="53.25751824" lon="-8.93092071">
				<ele>64.0</ele>
				<time>2014-08-17T15:20:45Z</time>
				<extensions>
					<speed>3.25</speed>
				</extensions>
			</trkpt>
			<trkpt lat="53.25750342" lon="-8.93095182">
				<ele>64.0</ele>
				<time>2014-08-17T15:20:46Z</time>
				<extensions>
					<speed>2.5</speed>
				</extensions>
			</trkpt>
			<trkpt lat="53.25749258" lon="-8.93098007">
				<ele>65.0</ele>
				<time>2014-08-17T15:20:47Z</time>
				<extensions>
					<speed>2.0</speed>
				</extensions>
			</trkpt>
			<trkpt lat="53.25748082" lon="-8.93100339">
				<ele>65.0</ele>
				<time>2014-08-17T15:20:48Z</time>
				<extensions>
					<speed>2.0</speed>
				</extensions>
			</trkpt>
			<trkpt lat="53.25748602" lon="-8.93100428">
				<ele>65.0</ele>
				<time>2014-08-17T15:20:49Z</time>
				<extensions>
					<speed>0.25</speed>
				</extensions>
			</trkpt>
			<trkpt lat="53.25748586" lon="-8.93100649">
				<ele>65.0</ele>
				<time>2014-08-17T15:20:50Z</time>
				<extensions>
					<speed>0.0</speed>
				</extensions>
			</trkpt>
			<trkpt lat="53.25748632" lon="-8.93101043">
				<ele>65.0</ele>
				<time>2014-08-17T15:20:51Z</time>
				<extensions>
					<speed>0.0</speed>
				</extensions>
			</trkpt>
			<trkpt lat="53.25748665" lon="-8.93101314">
				<ele>65.0</ele>
				<time>2014-08-17T15:20:52Z</time>
				<extensions>
					<speed>0.0</speed>
				</extensions>
			</trkpt>
			<trkpt lat="53.25748815" lon="-8.93101253">
				<ele>65.0</ele>
				<time>2014-08-17T15:20:53Z</time>
				<extensions>
					<speed>0.0</speed>
				</extensions>
			</trkpt>
			<trkpt lat="53.25748945" lon="-8.93101434">
				<ele>65.0</ele>
				<time>2014-08-17T15:20:54Z</time>
				<extensions>
					<speed>0.0</speed>
				</extensions>
			</trkpt>
			<trkpt lat="53.25748941" lon="-8.93101775">
				<ele>65.0</ele>
				<time>2014-08-17T15:20:55Z</time>
				<extensions>
					<speed>0.0</speed>
				</extensions>
			</trkpt>
			<trkpt lat="53.25749061" lon="-8.93102066">
				<ele>65.0</ele>
				<time>2014-08-17T15:20:56Z</time>
				<extensions>
					<speed>0.0</speed>
				</extensions>
			</trkpt>
			<trkpt lat="53.25749173" lon="-8.93101938">
				<ele>65.0</ele>
				<time>2014-08-17T15:20:57Z</time>
				<extensions>
					<speed>0.0</speed>
				</extensions>
			</trkpt>
			<trkpt lat="53.25749173" lon="-8.93101938">
				<ele>65.0</ele>
				<time>2014-08-17T15:20:58Z</time>
				<extensions>
					<speed>0.0</speed>
				</extensions>
			</trkpt>
			<trkpt lat="53.25749276" lon="-8.93102155">
				<ele>65.0</ele>
				<time>2014-08-17T15:20:59Z</time>
				<extensions>
					<speed>0.0</speed>
				</extensions>
			</trkpt>
			<trkpt lat="53.25749351" lon="-8.93102182">
				<ele>64.0</ele>
				<time>2014-08-17T15:21:00Z</time>
				<extensions>
					<speed>0.0</speed>
				</extensions>
			</trkpt>
			<trkpt lat="53.25749403" lon="-8.9310219">
				<ele>64.0</ele>
				<time>2014-08-17T15:21:01Z</time>
				<extensions>
					<speed>0.0</speed>
				</extensions>
			</trkpt>
			<trkpt lat="53.25749394" lon="-8.93102175">
				<ele>64.0</ele>
				<time>2014-08-17T15:21:02Z</time>
				<extensions>
					<speed>0.0</speed>
				</extensions>
			</trkpt>
			<trkpt lat="53.25749387" lon="-8.93102181">
				<ele>64.0</ele>
				<time>2014-08-17T15:21:03Z</time>
				<extensions>
					<speed>0.0</speed>
				</extensions>
			</trkpt>
			<trkpt lat="53.25749392" lon="-8.93102185">
				<ele>64.0</ele>
				<time>2014-08-17T15:21:04Z</time>
				<extensions>
					<speed>0.0</speed>
				</extensions>
			</trkpt>
			<trkpt lat="53.25749299" lon="-8.93102387">
				<ele>64.0</ele>
				<time>2014-08-17T15:21:05Z</time>
				<extensions>
					<speed>1.25</speed>
				</extensions>
			</trkpt>
			<trkpt lat="53.25748246" lon="-8.93104536">
				<ele>65.0</ele>
				<time>2014-08-17T15:21:06Z</time>
				<extensions>
					<speed>2.25</speed>
				</extensions>
			</trkpt>
			<trkpt lat="53.25747376" lon="-8.93107176">
				<ele>64.0</ele>
				<time>2014-08-17T15:21:07Z</time>
				<extensions>
					<speed>2.5</speed>
				</extensions>
			</trkpt>
			<trkpt lat="53.25745709" lon="-8.93111378">
				<ele>64.0</ele>
				<time>2014-08-17T15:21:08Z</time>
				<extensions>
					<speed>2.75</speed>
				</extensions>
			</trkpt>
			<trkpt lat="53.25744557" lon="-8.93114923">
				<ele>64.0</ele>
				<time>2014-08-17T15:21:09Z</time>
				<extensions>
					<speed>2.5</speed>
				</extensions>
			</trkpt>
			<trkpt lat="53.25743384" lon="-8.9311844">
				<ele>63.0</ele>
				<time>2014-08-17T15:21:10Z</time>
				<extensions>
					<speed>2.75</speed>
				</extensions>
			</trkpt>
			<trkpt lat="53.2574213" lon="-8.93122983">
				<ele>63.0</ele>
				<time>2014-08-17T15:21:11Z</time>
				<extensions>
					<speed>3.5</speed>
				</extensions>
			</trkpt>
			<trkpt lat="53.25740761" lon="-8.93127747">
				<ele>63.0</ele>
				<time>2014-08-17T15:21:12Z</time>
				<extensions>
					<speed>3.75</speed>
				</extensions>
			</trkpt>
			<trkpt lat="53.25739194" lon="-8.93132163">
				<ele>63.0</ele>
				<time>2014-08-17T15:21:13Z</time>
				<extensions>
					<speed>3.5</speed>
				</extensions>
			</trkpt>
			<trkpt lat="53.25737647" lon="-8.93136434">
				<ele>63.0</ele>
				<time>2014-08-17T15:21:14Z</time>
				<extensions>
					<speed>3.25</speed>
				</extensions>
			</trkpt>
			<trkpt lat="53.25736134" lon="-8.93140681">
				<ele>63.0</ele>
				<time>2014-08-17T15:21:15Z</time>
				<extensions>
					<speed>3.25</speed>
				</extensions>
			</trkpt>
			<trkpt lat="53.25735182" lon="-8.9314418">
				<ele>62.0</ele>
				<time>2014-08-17T15:21:16Z</time>
				<extensions>
					<speed>2.75</speed>
				</extensions>
			</trkpt>
			<trkpt lat="53.2573426" lon="-8.9314778">
				<ele>63.0</ele>
				<time>2014-08-17T15:21:17Z</time>
				<extensions>
					<speed>2.5</speed>
				</extensions>
			</trkpt>
			<trkpt lat="53.25733576" lon="-8.9315006">
				<ele>63.0</ele>
				<time>2014-08-17T15:21:18Z</time>
				<extensions>
					<speed>2.0</speed>
				</extensions>
			</trkpt>
			<trkpt lat="53.25732766" lon="-8.93152988">
				<ele>63.0</ele>
				<time>2014-08-17T15:21:19Z</time>
				<extensions>
					<speed>1.75</speed>
				</extensions>
			</trkpt>
			<trkpt lat="53.25732234" lon="-8.93154569">
				<ele>62.0</ele>
				<time>2014-08-17T15:21:20Z</time>
				<extensions>
					<speed>1.25</speed>
				</extensions>
			</trkpt>
			<trkpt lat="53.25731838" lon="-8.93156196">
				<ele>62.0</ele>
				<time>2014-08-17T15:21:21Z</time>
				<extensions>
					<speed>1.25</speed>
				</extensions>
			</trkpt>
			<trkpt lat="53.25731475" lon="-8.93157565">
				<ele>62.0</ele>
				<time>2014-08-17T15:21:22Z</time>
				<extensions>
					<speed>1.0</speed>
				</extensions>
			</trkpt>
			<trkpt lat="53.25730823" lon="-8.93158739">
				<ele>62.0</ele>
				<time>2014-08-17T15:21:23Z</time>
				<extensions>
					<speed>0.75</speed>
				</extensions>
			</trkpt>
			<trkpt lat="53.25730485" lon="-8.9315971">
				<ele>62.0</ele>
				<time>2014-08-17T15:21:24Z</time>
				<extensions>
					<speed>0.75</speed>
				</extensions>
			</trkpt>
			<trkpt lat="53.25730378" lon="-8.93160187">
				<ele>61.0</ele>
				<time>2014-08-17T15:21:25Z</time>
				<extensions>
					<speed>0.5</speed>
				</extensions>
			</trkpt>
			<trkpt lat="53.25729594" lon="-8.93161735">
				<ele>61.0</ele>
				<time>2014-08-17T15:21:26Z</time>
				<extensions>
					<speed>1.0</speed>
				</extensions>
			</trkpt>
			<trkpt lat="53.25729005" lon="-8.93164477">
				<ele>61.0</ele>
				<time>2014-08-17T15:21:27Z</time>
				<extensions>
					<speed>2.25</speed>
				</extensions>
			</trkpt>
			<trkpt lat="53.25728091" lon="-8.93168304">
				<ele>61.0</ele>
				<time>2014-08-17T15:21:28Z</time>
				<extensions>
					<speed>2.75</speed>
				</extensions>
			</trkpt>
			<trkpt lat="53.25727075" lon="-8.9317322">
				<ele>61.0</ele>
				<time>2014-08-17T15:21:29Z</time>
				<extensions>
					<speed>3.5</speed>
				</extensions>
			</trkpt>
			<trkpt lat="53.25726011" lon="-8.93177998">
				<ele>61.0</ele>
				<time>2014-08-17T15:21:30Z</time>
				<extensions>
					<speed>3.5</speed>
				</extensions>
			</trkpt>
			<trkpt lat="53.25725407" lon="-8.93182875">
				<ele>61.0</ele>
				<time>2014-08-17T15:21:31Z</time>
				<extensions>
					<speed>3.75</speed>
				</extensions>
			</trkpt>
			<trkpt lat="53.25723761" lon="-8.93189033">
				<ele>60.0</ele>
				<time>2014-08-17T15:21:32Z</time>
				<extensions>
					<speed>4.5</speed>
				</extensions>
			</trkpt>
			<trkpt lat="53.25722588" lon="-8.93194721">
				<ele>60.0</ele>
				<time>2014-08-17T15:21:33Z</time>
				<extensions>
					<speed>4.0</speed>
				</extensions>
			</trkpt>
			<trkpt lat="53.25721531" lon="-8.93200333">
				<ele>60.0</ele>
				<time>2014-08-17T15:21:34Z</time>
				<extensions>
					<speed>4.0</speed>
				</extensions>
			</trkpt>
			<trkpt lat="53.25720148" lon="-8.93205777">
				<ele>60.0</ele>
				<time>2014-08-17T15:21:35Z</time>
				<extensions>
					<speed>4.0</speed>
				</extensions>
			</trkpt>
			<trkpt lat="53.25718722" lon="-8.93211199">
				<ele>61.0</ele>
				<time>2014-08-17T15:21:36Z</time>
				<extensions>
					<speed>3.75</speed>
				</extensions>
			</trkpt>
			<trkpt lat="53.25717493" lon="-8.93216289">
				<ele>60.0</ele>
				<time>2014-08-17T15:21:37Z</time>
				<extensions>
					<speed>3.5</speed>
				</extensions>
			</trkpt>
			<trkpt lat="53.25717086" lon="-8.93218818">
				<ele>59.0</ele>
				<time>2014-08-17T15:21:38Z</time>
				<extensions>
					<speed>2.5</speed>
				</extensions>
			</trkpt>
			<trkpt lat="53.25716037" lon="-8.9322194">
				<ele>60.0</ele>
				<time>2014-08-17T15:21:39Z</time>
				<extensions>
					<speed>2.25</speed>
				</extensions>
			</trkpt>
			<trkpt lat="53.25715073" lon="-8.93223451">
				<ele>61.0</ele>
				<time>2014-08-17T15:21:40Z</time>
				<extensions>
					<speed>1.5</speed>
				</extensions>
			</trkpt>
			<trkpt lat="53.25714931" lon="-8.93224537">
				<ele>60.0</ele>
				<time>2014-08-17T15:21:41Z</time>
				<extensions>
					<speed>0.75</speed>
				</extensions>
			</trkpt>
			<trkpt lat="53.25714896" lon="-8.93224495">
				<ele>61.0</ele>
				<time>2014-08-17T15:21:42Z</time>
				<extensions>
					<speed>0.0</speed>
				</extensions>
			</trkpt>
			<trkpt lat="53.2571462" lon="-8.93225186">
				<ele>61.0</ele>
				<time>2014-08-17T15:21:43Z</time>
				<extensions>
					<speed>0.0</speed>
				</extensions>
			</trkpt>
			<trkpt lat="53.25713806" lon="-8.9322556">
				<ele>62.0</ele>
				<time>2014-08-17T15:21:44Z</time>
				<extensions>
					<speed>0.0</speed>
				</extensions>
			</trkpt>
			<trkpt lat="53.2571372" lon="-8.93225736">
				<ele>62.0</ele>
				<time>2014-08-17T15:21:45Z</time>
				<extensions>
					<speed>0.0</speed>
				</extensions>
			</trkpt>
			<trkpt lat="53.25714091" lon="-8.93225818">
				<ele>62.0</ele>
				<time>2014-08-17T15:21:46Z</time>
				<extensions>
					<speed>0.0</speed>
				</extensions>
			</trkpt>
			<trkpt lat="53.25713982" lon="-8.93225992">
				<ele>62.0</ele>
				<time>2014-08-17T15:21:47Z</time>
				<extensions>
					<speed>0.0</speed>
				</extensions>
			</trkpt>
			<trkpt lat="53.25713397" lon="-8.93225977">
				<ele>62.0</ele>
				<time>2014-08-17T15:21:48Z</time>
				<extensions>
					<speed>0.0</speed>
				</extensions>
			</trkpt>
			<trkpt lat="53.25713706" lon="-8.9322565">
				<ele>63.0</ele>
				<time>2014-08-17T15:21:49Z</time>
				<extensions>
					<speed>0.0</speed>
				</extensions>
			</trkpt>
			<trkpt lat="53.25713658" lon="-8.93225813">
				<ele>63.0</ele>
				<time>2014-08-17T15:21:50Z</time>
				<extensions>
					<speed>1.0</speed>
				</extensions>
			</trkpt>
			<trkpt lat="53.25713281" lon="-8.93227084">
				<ele>63.0</ele>
				<time>2014-08-17T15:21:51Z</time>
				<extensions>
					<speed>1.0</speed>
				</extensions>
			</trkpt>
			<trkpt lat="53.25712652" lon="-8.9323013">
				<ele>63.0</ele>
				<time>2014-08-17T15:21:52Z</time>
				<extensions>
					<speed>1.75</speed>
				</extensions>
			</trkpt>
			<trkpt lat="53.25712158" lon="-8.9323275">
				<ele>63.0</ele>
				<time>2014-08-17T15:21:53Z</time>
				<extensions>
					<speed>1.75</speed>
				</extensions>
			</trkpt>
			<trkpt lat="53.25712518" lon="-8.93235881">
				<ele>63.0</ele>
				<time>2014-08-17T15:21:54Z</time>
				<extensions>
					<speed>1.0</speed>
				</extensions>
			</trkpt>
			<trkpt lat="53.25712502" lon="-8.93237514">
				<ele>62.0</ele>
				<time>2014-08-17T15:21:55Z</time>
				<extensions>
					<speed>1.0</speed>
				</extensions>
			</trkpt>
			<trkpt lat="53.2571217" lon="-8.93236815">
				<ele>64.0</ele>
				<time>2014-08-17T15:21:56Z</time>
				<extensions>
					<speed>0.0</speed>
				</extensions>
			</trkpt>
			<trkpt lat="53.25712013" lon="-8.93236619">
				<ele>64.0</ele>
				<time>2014-08-17T15:21:57Z</time>
				<extensions>
					<speed>0.0</speed>
				</extensions>
			</trkpt>
			<trkpt lat="53.25712013" lon="-8.93236619">
				<ele>64.0</ele>
				<time>2014-08-17T15:21:58Z</time>
				<extensions>
					<speed>0.0</speed>
				</extensions>
			</trkpt>
			<trkpt lat="53.25712137" lon="-8.93236311">
				<ele>63.0</ele>
				<time>2014-08-17T15:21:59Z</time>
				<extensions>
					<speed>0.0</speed>
				</extensions>
			</trkpt>
			<trkpt lat="53.25712213" lon="-8.93235834">
				<ele>63.0</ele>
				<time>2014-08-17T15:22:00Z</time>
				<extensions>
					<speed>1.0</speed>
				</extensions>
			</trkpt>
			<trkpt lat="53.25712323" lon="-8.93234819">
				<ele>63.0</ele>
				<time>2014-08-17T15:22:01Z</time>
				<extensions>
					<speed>0.75</speed>
				</extensions>
			</trkpt>
			<trkpt lat="53.25711514" lon="-8.9323009">
				<ele>64.0</ele>
				<time>2014-08-17T15:22:02Z</time>
				<extensions>
					<speed>0.5</speed>
				</extensions>
			</trkpt>
			<trkpt lat="53.25711385" lon="-8.93229738">
				<ele>64.0</ele>
				<time>2014-08-17T15:22:03Z</time>
				<extensions>
					<speed>0.5</speed>
				</extensions>
			</trkpt>
			<trkpt lat="53.25711049" lon="-8.93228753">
				<ele>64.0</ele>
				<time>2014-08-17T15:22:04Z</time>
				<extensions>
					<speed>0.75</speed>
				</extensions>
			</trkpt>
			<trkpt lat="53.25711214" lon="-8.93227717">
				<ele>64.0</ele>
				<time>2014-08-17T15:22:05Z</time>
				<extensions>
					<speed>1.25</speed>
				</extensions>
			</trkpt>
			<trkpt lat="53.2571063" lon="-8.93226666">
				<ele>64.0</ele>
				<time>2014-08-17T15:22:06Z</time>
				<extensions>
					<speed>1.0</speed>
				</extensions>
			</trkpt>
			<trkpt lat="53.25709858" lon="-8.93225874">
				<ele>65.0</ele>
				<time>2014-08-17T15:22:07Z</time>
				<extensions>
					<speed>0.75</speed>
				</extensions>
			</trkpt>
			<trkpt lat="53.25710034" lon="-8.93225071">
				<ele>64.0</ele>
				<time>2014-08-17T15:22:08Z</time>
				<extensions>
					<speed>0.0</speed>
				</extensions>
			</trkpt>
			<trkpt lat="53.25710163" lon="-8.93224546">
				<ele>65.0</ele>
				<time>2014-08-17T15:22:09Z</time>
				<extensions>
					<speed>0.0</speed>
				</extensions>
			</trkpt>
			<trkpt lat="53.25710365" lon="-8.93224416">
				<ele>65.0</ele>
				<time>2014-08-17T15:22:10Z</time>
				<extensions>
					<speed>2.0</speed>
				</extensions>
			</trkpt>
			<trkpt lat="53.25711734" lon="-8.93222488">
				<ele>65.0</ele>
				<time>2014-08-17T15:22:11Z</time>
				<extensions>
					<speed>2.0</speed>
				</extensions>
			</trkpt>
			<trkpt lat="53.25713103" lon="-8.93220273">
				<ele>64.0</ele>
				<time>2014-08-17T15:22:12Z</time>
				<extensions>
					<speed>2.0</speed>
				</extensions>
			</trkpt>
			<trkpt lat="53.2571481" lon="-8.93213871">
				<ele>64.0</ele>
				<time>2014-08-17T15:22:13Z</time>
				<extensions>
					<speed>3.25</speed>
				</extensions>
			</trkpt>
			<trkpt lat="53.25716127" lon="-8.9320779">
				<ele>63.0</ele>
				<time>2014-08-17T15:22:14Z</time>
				<extensions>
					<speed>4.0</speed>
				</extensions>
			</trkpt>
			<trkpt lat="53.25717331" lon="-8.93201098">
				<ele>63.0</ele>
				<time>2014-08-17T15:22:15Z</time>
				<extensions>
					<speed>4.5</speed>
				</extensions>
			</trkpt>
			<trkpt lat="53.25718459" lon="-8.93194096">
				<ele>64.0</ele>
				<time>2014-08-17T15:22:16Z</time>
				<extensions>
					<speed>5.5</speed>
				</extensions>
			</trkpt>
			<trkpt lat="53.25720913" lon="-8.93184731">
				<ele>62.0</ele>
				<time>2014-08-17T15:22:17Z</time>
				<extensions>
					<speed>6.5</speed>
				</extensions>
			</trkpt>
			<trkpt lat="53.25723102" lon="-8.9317566">
				<ele>62.0</ele>
				<time>2014-08-17T15:22:18Z</time>
				<extensions>
					<speed>6.5</speed>
				</extensions>
			</trkpt>
			<trkpt lat="53.25725291" lon="-8.93166589">
				<ele>62.0</ele>
				<time>2014-08-17T15:22:19Z</time>
				<extensions>
					<speed>6.5</speed>
				</extensions>
			</trkpt>
			<trkpt lat="53.25730731" lon="-8.9315774">
				<ele>60.0</ele>
				<time>2014-08-17T15:22:20Z</time>
				<extensions>
					<speed>7.25</speed>
				</extensions>
			</trkpt>
			<trkpt lat="53.25734171" lon="-8.931474">
				<ele>60.0</ele>
				<time>2014-08-17T15:22:21Z</time>
				<extensions>
					<speed>7.25</speed>
				</extensions>
			</trkpt>
			<trkpt lat="53.25738353" lon="-8.93137472">
				<ele>60.0</ele>
				<time>2014-08-17T15:22:22Z</time>
				<extensions>
					<speed>7.0</speed>
				</extensions>
			</trkpt>
			<trkpt lat="53.25742527" lon="-8.93128213">
				<ele>60.0</ele>
				<time>2014-08-17T15:22:23Z</time>
				<extensions>
					<speed>6.75</speed>
				</extensions>
			</trkpt>
			<trkpt lat="53.25745809" lon="-8.93119663">
				<ele>59.0</ele>
				<time>2014-08-17T15:22:24Z</time>
				<extensions>
					<speed>6.75</speed>
				</extensions>
			</trkpt>
			<trkpt lat="53.25749418" lon="-8.93110766">
				<ele>60.0</ele>
				<time>2014-08-17T15:22:25Z</time>
				<extensions>
					<speed>6.5</speed>
				</extensions>
			</trkpt>
			<trkpt lat="53.25752309" lon="-8.93103">
				<ele>60.0</ele>
				<time>2014-08-17T15:22:26Z</time>
				<extensions>
					<speed>6.25</speed>
				</extensions>
			</trkpt>
			<trkpt lat="53.25756124" lon="-8.9309509">
				<ele>60.0</ele>
				<time>2014-08-17T15:22:27Z</time>
				<extensions>
					<speed>6.25</speed>
				</extensions>
			</trkpt>
			<trkpt lat="53.25759228" lon="-8.93087335">
				<ele>61.0</ele>
				<time>2014-08-17T15:22:28Z</time>
				<extensions>
					<speed>6.25</speed>
				</extensions>
			</trkpt>
			<trkpt lat="53.25763148" lon="-8.93079787">
				<ele>62.0</ele>
				<time>2014-08-17T15:22:29Z</time>
				<extensions>
					<speed>6.0</speed>
				</extensions>
			</trkpt>
			<trkpt lat="53.25765872" lon="-8.93072106">
				<ele>62.0</ele>
				<time>2014-08-17T15:22:30Z</time>
				<extensions>
					<speed>5.75</speed>
				</extensions>
			</trkpt>
			<trkpt lat="53.25768962" lon="-8.93065503">
				<ele>63.0</ele>
				<time>2014-08-17T15:22:31Z</time>
				<extensions>
					<speed>5.75</speed>
				</extensions>
			</trkpt>
			<trkpt lat="53.25772063" lon="-8.93057337">
				<ele>64.0</ele>
				<time>2014-08-17T15:22:32Z</time>
				<extensions>
					<speed>5.5</speed>
				</extensions>
			</trkpt>
			<trkpt lat="53.25774438" lon="-8.93048779">
				<ele>66.0</ele>
				<time>2014-08-17T15:22:33Z</time>
				<extensions>
					<speed>5.5</speed>
				</extensions>
			</trkpt>
			<trkpt lat="53.2577493" lon="-8.93041927">
				<ele>66.0</ele>
				<time>2014-08-17T15:22:34Z</time>
				<extensions>
					<speed>5.0</speed>
				</extensions>
			</trkpt>
			<trkpt lat="53.25772419" lon="-8.93035869">
				<ele>65.0</ele>
				<time>2014-08-17T15:22:35Z</time>
				<extensions>
					<speed>5.5</speed>
				</extensions>
			</trkpt>
			<trkpt lat="53.25768969" lon="-8.93029848">
				<ele>65.0</ele>
				<time>2014-08-17T15:22:36Z</time>
				<extensions>
					<speed>5.75</speed>
				</extensions>
			</trkpt>
			<trkpt lat="53.257642" lon="-8.93025619">
				<ele>64.0</ele>
				<time>2014-08-17T15:22:37Z</time>
				<extensions>
					<speed>6.25</speed>
				</extensions>
			</trkpt>
			<trkpt lat="53.25759697" lon="-8.93020513">
				<ele>64.0</ele>
				<time>2014-08-17T15:22:38Z</time>
				<extensions>
					<speed>6.5</speed>
				</extensions>
			</trkpt>
			<trkpt lat="53.25755108" lon="-8.93013016">
				<ele>65.0</ele>
				<time>2014-08-17T15:22:39Z</time>
				<extensions>
					<speed>6.75</speed>
				</extensions>
			</trkpt>
			<trkpt lat="53.25751513" lon="-8.93005757">
				<ele>65.0</ele>
				<time>2014-08-17T15:22:40Z</time>
				<extensions>
					<speed>6.0</speed>
				</extensions>
			</trkpt>
			<trkpt lat="53.25748796" lon="-8.93000148">
				<ele>64.0</ele>
				<time>2014-08-17T15:22:41Z</time>
				<extensions>
					<speed>4.75</speed>
				</extensions>
			</trkpt>
			<trkpt lat="53.25746631" lon="-8.92996038">
				<ele>65.0</ele>
				<time>2014-08-17T15:22:42Z</time>
				<extensions>
					<speed>3.25</speed>
				</extensions>
			</trkpt>
			<trkpt lat="53.25744785" lon="-8.92993884">
				<ele>64.0</ele>
				<time>2014-08-17T15:22:43Z</time>
				<extensions>
					<speed>1.5</speed>
				</extensions>
			</trkpt>
			<trkpt lat="53.25744253" lon="-8.9299265">
				<ele>64.0</ele>
				<time>2014-08-17T15:22:44Z</time>
				<extensions>
					<speed>0.75</speed>
				</extensions>
			</trkpt>
			<trkpt lat="53.2574472" lon="-8.92992098">
				<ele>65.0</ele>
				<time>2014-08-17T15:22:45Z</time>
				<extensions>
					<speed>0.25</speed>
				</extensions>
			</trkpt>
			<trkpt lat="53.25744953" lon="-8.9299131">
				<ele>64.0</ele>
				<time>2014-08-17T15:22:46Z</time>
				<extensions>
					<speed>0.75</speed>
				</extensions>
			</trkpt>
			<trkpt lat="53.2574458" lon="-8.92990494">
				<ele>64.0</ele>
				<time>2014-08-17T15:22:47Z</time>
				<extensions>
					<speed>0.75</speed>
				</extensions>
			</trkpt>
			<trkpt lat="53.25744054" lon="-8.92990005">
				<ele>64.0</ele>
				<time>2014-08-17T15:22:48Z</time>
				<extensions>
					<speed>0.0</speed>
				</extensions>
			</trkpt>
			<trkpt lat="53.25744047" lon="-8.92990005">
				<ele>63.0</ele>
				<time>2014-08-17T15:22:49Z</time>
				<extensions>
					<speed>0.0</speed>
				</extensions>
			</trkpt>
			<trkpt lat="53.25743547" lon="-8.92990511">
				<ele>63.0</ele>
				<time>2014-08-17T15:22:50Z</time>
				<extensions>
					<speed>0.0</speed>
				</extensions>
			</trkpt>
			<trkpt lat="53.25743184" lon="-8.92991182">
				<ele>62.0</ele>
				<time>2014-08-17T15:22:51Z</time>
				<extensions>
					<speed>0.0</speed>
				</extensions>
			</trkpt>
			<trkpt lat="53.25743043" lon="-8.92991252">
				<ele>61.0</ele>
				<time>2014-08-17T15:22:52Z</time>
				<extensions>
					<speed>0.0</speed>
				</extensions>
			</trkpt>
			<trkpt lat="53.25743043" lon="-8.92991252">
				<ele>61.0</ele>
				<time>2014-08-17T15:22:53Z</time>
				<extensions>
					<speed>0.0</speed>
				</extensions>
			</trkpt>
			<trkpt lat="53.25742339" lon="-8.92992378">
				<ele>60.0</ele>
				<time>2014-08-17T15:22:54Z</time>
				<extensions>
					<speed>0.0</speed>
				</extensions>
			</trkpt>
			<trkpt lat="53.25742156" lon="-8.92992424">
				<ele>59.0</ele>
				<time>2014-08-17T15:22:55Z</time>
				<extensions>
					<speed>0.0</speed>
				</extensions>
			</trkpt>
			<trkpt lat="53.25741962" lon="-8.92992905">
				<ele>59.0</ele>
				<time>2014-08-17T15:22:56Z</time>
				<extensions>
					<speed>0.0</speed>
				</extensions>
			</trkpt>
			<trkpt lat="53.25741782" lon="-8.92993197">
				<ele>59.0</ele>
				<time>2014-08-17T15:22:57Z</time>
				<extensions>
					<speed>0.0</speed>
				</extensions>
			</trkpt>
			<trkpt lat="53.2574218" lon="-8.92994058">
				<ele>58.0</ele>
				<time>2014-08-17T15:22:58Z</time>
				<extensions>
					<speed>0.0</speed>
				</extensions>
			</trkpt>
			<trkpt lat="53.25742282" lon="-8.92994349">
				<ele>57.0</ele>
				<time>2014-08-17T15:22:59Z</time>
				<extensions>
					<speed>0.0</speed>
				</extensions>
			</trkpt>
			<trkpt lat="53.25742445" lon="-8.9299439">
				<ele>57.0</ele>
				<time>2014-08-17T15:23:00Z</time>
				<extensions>
					<speed>0.0</speed>
				</extensions>
			</trkpt>
			<trkpt lat="53.25742417" lon="-8.92994402">
				<ele>57.0</ele>
				<time>2014-08-17T15:23:01Z</time>
				<extensions>
					<speed>0.0</speed>
				</extensions>
			</trkpt>
			<trkpt lat="53.25742346" lon="-8.92994244">
				<ele>57.0</ele>
				<time>2014-08-17T15:23:02Z</time>
				<extensions>
					<speed>1.0</speed>
				</extensions>
			</trkpt>
			<trkpt lat="53.25741422" lon="-8.92992047">
				<ele>58.0</ele>
				<time>2014-08-17T15:23:03Z</time>
				<extensions>
					<speed>2.25</speed>
				</extensions>
			</trkpt>
			<trkpt lat="53.25740031" lon="-8.92988974">
				<ele>58.0</ele>
				<time>2014-08-17T15:23:04Z</time>
				<extensions>
					<speed>3.25</speed>
				</extensions>
			</trkpt>
			<trkpt lat="53.25737701" lon="-8.92984901">
				<ele>59.0</ele>
				<time>2014-08-17T15:23:05Z</time>
				<extensions>
					<speed>3.75</speed>
				</extensions>
			</trkpt>
			<trkpt lat="53.2573437" lon="-8.92981535">
				<ele>59.0</ele>
				<time>2014-08-17T15:23:06Z</time>
				<extensions>
					<speed>4.25</speed>
				</extensions>
			</trkpt>
			<trkpt lat="53.25730937" lon="-8.92977272">
				<ele>60.0</ele>
				<time>2014-08-17T15:23:07Z</time>
				<extensions>
					<speed>4.0</speed>
				</extensions>
			</trkpt>
			<trkpt lat="53.25727998" lon="-8.92973407">
				<ele>60.0</ele>
				<time>2014-08-17T15:23:08Z</time>
				<extensions>
					<speed>4.25</speed>
				</extensions>
			</trkpt>
			<trkpt lat="53.25724597" lon="-8.92970266">
				<ele>60.0</ele>
				<time>2014-08-17T15:23:09Z</time>
				<extensions>
					<speed>3.75</speed>
				</extensions>
			</trkpt>
			<trkpt lat="53.25721982" lon="-8.92967379">
				<ele>60.0</ele>
				<time>2014-08-17T15:23:10Z</time>
				<extensions>
					<speed>2.75</speed>
				</extensions>
			</trkpt>
			<trkpt lat="53.25720303" lon="-8.9296591">
				<ele>60.0</ele>
				<time>2014-08-17T15:23:11Z</time>
				<extensions>
					<speed>2.0</speed>
				</extensions>
			</trkpt>
			<trkpt lat="53.25719113" lon="-8.92965092">
				<ele>60.0</ele>
				<time>2014-08-17T15:23:12Z</time>
				<extensions>
					<speed>0.75</speed>
				</extensions>
			</trkpt>
			<trkpt lat="53.25718583" lon="-8.92964551">
				<ele>61.0</ele>
				<time>2014-08-17T15:23:13Z</time>
				<extensions>
					<speed>0.0</speed>
				</extensions>
			</trkpt>
			<trkpt lat="53.25718034" lon="-8.92964705">
				<ele>60.0</ele>
				<time>2014-08-17T15:23:14Z</time>
				<extensions>
					<speed>0.0</speed>
				</extensions>
			</trkpt>
			<trkpt lat="53.25717612" lon="-8.92964024">
				<ele>61.0</ele>
				<time>2014-08-17T15:23:15Z</time>
				<extensions>
					<speed>0.0</speed>
				</extensions>
			</trkpt>
			<trkpt lat="53.25717036" lon="-8.9296419">
				<ele>61.0</ele>
				<time>2014-08-17T15:23:16Z</time>
				<extensions>
					<speed>0.0</speed>
				</extensions>
			</trkpt>
			<trkpt lat="53.25716992" lon="-8.92964143">
				<ele>61.0</ele>
				<time>2014-08-17T15:23:17Z</time>
				<extensions>
					<speed>0.0</speed>
				</extensions>
			</trkpt>
			<trkpt lat="53.25716681" lon="-8.92964196">
				<ele>61.0</ele>
				<time>2014-08-17T15:23:18Z</time>
				<extensions>
					<speed>0.0</speed>
				</extensions>
			</trkpt>
			<trkpt lat="53.25716867" lon="-8.92964354">
				<ele>62.0</ele>
				<time>2014-08-17T15:23:19Z</time>
				<extensions>
					<speed>0.0</speed>
				</extensions>
			</trkpt>
			<trkpt lat="53.25717261" lon="-8.92964191">
				<ele>61.0</ele>
				<time>2014-08-17T15:23:20Z</time>
				<extensions>
					<speed>0.0</speed>
				</extensions>
			</trkpt>
			<trkpt lat="53.25717291" lon="-8.92964015">
				<ele>61.0</ele>
				<time>2014-08-17T15:23:21Z</time>
				<extensions>
					<speed>0.0</speed>
				</extensions>
			</trkpt>
			<trkpt lat="53.25717688" lon="-8.9296371">
				<ele>61.0</ele>
				<time>2014-08-17T15:23:22Z</time>
				<extensions>
					<speed>0.0</speed>
				</extensions>
			</trkpt>
			<trkpt lat="53.25717976" lon="-8.92963031">
				<ele>61.0</ele>
				<time>2014-08-17T15:23:23Z</time>
				<extensions>
					<speed>0.0</speed>
				</extensions>
			</trkpt>
			<trkpt lat="53.25717886" lon="-8.92963044">
				<ele>61.0</ele>
				<time>2014-08-17T15:23:24Z</time>
				<extensions>
					<speed>0.0</speed>
				</extensions>
			</trkpt>
			<trkpt lat="53.25718016" lon="-8.92962771">
				<ele>61.0</ele>
				<time>2014-08-17T15:23:25Z</time>
				<extensions>
					<speed>0.0</speed>
				</extensions>
			</trkpt>
			<trkpt lat="53.25717784" lon="-8.92962478">
				<ele>61.0</ele>
				<time>2014-08-17T15:23:26Z</time>
				<extensions>
					<speed>1.75</speed>
				</extensions>
			</trkpt>
			<trkpt lat="53.2571606" lon="-8.92960708">
				<ele>61.0</ele>
				<time>2014-08-17T15:23:27Z</time>
				<extensions>
					<speed>2.75</speed>
				</extensions>
			</trkpt>
			<trkpt lat="53.2571292" lon="-8.92958033">
				<ele>62.0</ele>
				<time>2014-08-17T15:23:28Z</time>
				<extensions>
					<speed>4.0</speed>
				</extensions>
			</trkpt>
			<trkpt lat="53.25709726" lon="-8.92955049">
				<ele>62.0</ele>
				<time>2014-08-17T15:23:29Z</time>
				<extensions>
					<speed>4.5</speed>
				</extensions>
			</trkpt>
			<trkpt lat="53.25706264" lon="-8.92952684">
				<ele>62.0</ele>
				<time>2014-08-17T15:23:30Z</time>
				<extensions>
					<speed>4.0</speed>
				</extensions>
			</trkpt>
			<trkpt lat="53.25702485" lon="-8.92949567">
				<ele>62.0</ele>
				<time>2014-08-17T15:23:31Z</time>
				<extensions>
					<speed>4.75</speed>
				</extensions>
			</trkpt>
			<trkpt lat="53.25698967" lon="-8.92947014">
				<ele>62.0</ele>
				<time>2014-08-17T15:23:32Z</time>
				<extensions>
					<speed>4.5</speed>
				</extensions>
			</trkpt>
			<trkpt lat="53.2569483" lon="-8.92944832">
				<ele>62.0</ele>
				<time>2014-08-17T15:23:33Z</time>
				<extensions>
					<speed>4.0</speed>
				</extensions>
			</trkpt>
			<trkpt lat="53.2569281" lon="-8.92943296">
				<ele>63.0</ele>
				<time>2014-08-17T15:23:34Z</time>
				<extensions>
					<speed>1.75</speed>
				</extensions>
			</trkpt>
			<trkpt lat="53.25691893" lon="-8.929426">
				<ele>63.0</ele>
				<time>2014-08-17T15:23:35Z</time>
				<extensions>
					<speed>0.75</speed>
				</extensions>
			</trkpt>
			<trkpt lat="53.25691957" lon="-8.92942209">
				<ele>63.0</ele>
				<time>2014-08-17T15:23:36Z</time>
				<extensions>
					<speed>0.0</speed>
				</extensions>
			</trkpt>
			<trkpt lat="53.25692068" lon="-8.92941228">
				<ele>63.0</ele>
				<time>2014-08-17T15:23:37Z</time>
				<extensions>
					<speed>0.0</speed>
				</extensions>
			</trkpt>
			<trkpt lat="53.25691874" lon="-8.92941008">
				<ele>63.0</ele>
				<time>2014-08-17T15:23:38Z</time>
				<extensions>
					<speed>0.0</speed>
				</extensions>
			</trkpt>
			<trkpt lat="53.25691999" lon="-8.9294118">
				<ele>63.0</ele>
				<time>2014-08-17T15:23:39Z</time>
				<extensions>
					<speed>0.0</speed>
				</extensions>
			</trkpt>
			<trkpt lat="53.25691953" lon="-8.92940977">
				<ele>63.0</ele>
				<time>2014-08-17T15:23:40Z</time>
				<extensions>
					<speed>0.0</speed>
				</extensions>
			</trkpt>
			<trkpt lat="53.2569199" lon="-8.92941298">
				<ele>63.0</ele>
				<time>2014-08-17T15:23:41Z</time>
				<extensions>
					<speed>0.0</speed>
				</extensions>
			</trkpt>
			<trkpt lat="53.2569185" lon="-8.92941448">
				<ele>64.0</ele>
				<time>2014-08-17T15:23:42Z</time>
				<extensions>
					<speed>0.0</speed>
				</extensions>
			</trkpt>
			<trkpt lat="53.25691696" lon="-8.92941322">
				<ele>64.0</ele>
				<time>2014-08-17T15:23:43Z</time>
				<extensions>
					<speed>1.5</speed>
				</extensions>
			</trkpt>
			<trkpt lat="53.25689644" lon="-8.92938404">
				<ele>64.0</ele>
				<time>2014-08-17T15:23:44Z</time>
				<extensions>
					<speed>2.75</speed>
				</extensions>
			</trkpt>
			<trkpt lat="53.25687152" lon="-8.92934728">
				<ele>65.0</ele>
				<time>2014-08-17T15:23:45Z</time>
				<extensions>
					<speed>4.25</speed>
				</extensions>
			</trkpt>
			<trkpt lat="53.25685518" lon="-8.9292873">
				<ele>65.0</ele>
				<time>2014-08-17T15:23:46Z</time>
				<extensions>
					<speed>4.25</speed>
				</extensions>
			</trkpt>
			<trkpt lat="53.25684736" lon="-8.92922479">
				<ele>65.0</ele>
				<time>2014-08-17T15:23:47Z</time>
				<extensions>
					<speed>4.25</speed>
				</extensions>
			</trkpt>
			<trkpt lat="53.25684122" lon="-8.92914703">
				<ele>65.0</ele>
				<time>2014-08-17T15:23:48Z</time>
				<extensions>
					<speed>5.5</speed>
				</extensions>
			</trkpt>
			<trkpt lat="53.25682969" lon="-8.92905492">
				<ele>66.0</ele>
				<time>2014-08-17T15:23:49Z</time>
				<extensions>
					<speed>6.25</speed>
				</extensions>
			</trkpt>
			<trkpt lat="53.25682839" lon="-8.92896717">
				<ele>65.0</ele>
				<time>2014-08-17T15:23:50Z</time>
				<extensions>
					<speed>6.0</speed>
				</extensions>
			</trkpt>
			<trkpt lat="53.2568227" lon="-8.92887693">
				<ele>66.0</ele>
				<time>2014-08-17T15:23:51Z</time>
				<extensions>
					<speed>5.75</speed>
				</extensions>
			</trkpt>
			<trkpt lat="53.25681972" lon="-8.92879101">
				<ele>66.0</ele>
				<time>2014-08-17T15:23:52Z</time>
				<extensions>
					<speed>5.25</speed>
				</extensions>
			</trkpt>
			<trkpt lat="53.25682059" lon="-8.92870726">
				<ele>66.0</ele>
				<time>2014-08-17T15:23:53Z</time>
				<extensions>
					<speed>5.0</speed>
				</extensions>
			</trkpt>
			<trkpt lat="53.25682774" lon="-8.92863401">
				<ele>66.0</ele>
				<time>2014-08-17T15:23:54Z</time>
				<extensions>
					<speed>4.75</speed>
				</extensions>
			</trkpt>
			<trkpt lat="53.25683969" lon="-8.92856548">
				<ele>66.0</ele>
				<time>2014-08-17T15:23:55Z</time>
				<extensions>
					<speed>4.5</speed>
				</extensions>
			</trkpt>
			<trkpt lat="53.2568586" lon="-8.92851307">
				<ele>66.0</ele>
				<time>2014-08-17T15:23:56Z</time>
				<extensions>
					<speed>4.25</speed>
				</extensions>
			</trkpt>
			<trkpt lat="53.25688513" lon="-8.92847895">
				<ele>66.0</ele>
				<time>2014-08-17T15:23:57Z</time>
				<extensions>
					<speed>4.5</speed>
				</extensions>
			</trkpt>
			<trkpt lat="53.25692651" lon="-8.92845859">
				<ele>65.0</ele>
				<time>2014-08-17T15:23:58Z</time>
				<extensions>
					<speed>5.0</speed>
				</extensions>
			</trkpt>
			<trkpt lat="53.2569791" lon="-8.92845454">
				<ele>65.0</ele>
				<time>2014-08-17T15:23:59Z</time>
				<extensions>
					<speed>5.5</speed>
				</extensions>
			</trkpt>
			<trkpt lat="53.25703334" lon="-8.92845213">
				<ele>66.0</ele>
				<time>2014-08-17T15:24:00Z</time>
				<extensions>
					<speed>5.75</speed>
				</extensions>
			</trkpt>
			<trkpt lat="53.25708809" lon="-8.92845874">
				<ele>65.0</ele>
				<time>2014-08-17T15:24:01Z</time>
				<extensions>
					<speed>6.0</speed>
				</extensions>
			</trkpt>
			<trkpt lat="53.25714482" lon="-8.92846268">
				<ele>65.0</ele>
				<time>2014-08-17T15:24:02Z</time>
				<extensions>
					<speed>6.0</speed>
				</extensions>
			</trkpt>
			<trkpt lat="53.25720165" lon="-8.92848031">
				<ele>65.0</ele>
				<time>2014-08-17T15:24:03Z</time>
				<extensions>
					<speed>6.5</speed>
				</extensions>
			</trkpt>
			<trkpt lat="53.25725481" lon="-8.92850403">
				<ele>65.0</ele>
				<time>2014-08-17T15:24:04Z</time>
				<extensions>
					<speed>6.5</speed>
				</extensions>
			</trkpt>
			<trkpt lat="53.2573097" lon="-8.92853268">
				<ele>65.0</ele>
				<time>2014-08-17T15:24:05Z</time>
				<extensions>
					<speed>7.5</speed>
				</extensions>
			</trkpt>
			<trkpt lat="53.25737496" lon="-8.92857044">
				<ele>65.0</ele>
				<time>2014-08-17T15:24:06Z</time>
				<extensions>
					<speed>8.25</speed>
				</extensions>
			</trkpt>
			<trkpt lat="53.2574515" lon="-8.92863022">
				<ele>64.0</ele>
				<time>2014-08-17T15:24:07Z</time>
				<extensions>
					<speed>9.0</speed>
				</extensions>
			</trkpt>
			<trkpt lat="53.25752699" lon="-8.92868789">
				<ele>65.0</ele>
				<time>2014-08-17T15:24:08Z</time>
				<extensions>
					<speed>9.5</speed>
				</extensions>
			</trkpt>
			<trkpt lat="53.25760066" lon="-8.92876789">
				<ele>64.0</ele>
				<time>2014-08-17T15:24:09Z</time>
				<extensions>
					<speed>9.75</speed>
				</extensions>
			</trkpt>
			<trkpt lat="53.25767262" lon="-8.92884547">
				<ele>64.0</ele>
				<time>2014-08-17T15:24:10Z</time>
				<extensions>
					<speed>9.75</speed>
				</extensions>
			</trkpt>
			<trkpt lat="53.25774428" lon="-8.92892014">
				<ele>63.0</ele>
				<time>2014-08-17T15:24:11Z</time>
				<extensions>
					<speed>10.0</speed>
				</extensions>
			</trkpt>
			<trkpt lat="53.25781369" lon="-8.92900732">
				<ele>62.0</ele>
				<time>2014-08-17T15:24:12Z</time>
				<extensions>
					<speed>10.0</speed>
				</extensions>
			</trkpt>
			<trkpt lat="53.25788865" lon="-8.9291008">
				<ele>62.0</ele>
				<time>2014-08-17T15:24:13Z</time>
				<extensions>
					<speed>10.0</speed>
				</extensions>
			</trkpt>
			<trkpt lat="53.25796243" lon="-8.92919321">
				<ele>61.0</ele>
				<time>2014-08-17T15:24:14Z</time>
				<extensions>
					<speed>10.0</speed>
				</extensions>
			</trkpt>
			<trkpt lat="53.25803875" lon="-8.92929902">
				<ele>62.0</ele>
				<time>2014-08-17T15:24:15Z</time>
				<extensions>
					<speed>10.0</speed>
				</extensions>
			</trkpt>
			<trkpt lat="53.25810606" lon="-8.9294104">
				<ele>62.0</ele>
				<time>2014-08-17T15:24:16Z</time>
				<extensions>
					<speed>9.75</speed>
				</extensions>
			</trkpt>
			<trkpt lat="53.25815536" lon="-8.92952001">
				<ele>61.0</ele>
				<time>2014-08-17T15:24:17Z</time>
				<extensions>
					<speed>8.5</speed>
				</extensions>
			</trkpt>
			<trkpt lat="53.25819344" lon="-8.92961208">
				<ele>62.0</ele>
				<time>2014-08-17T15:24:18Z</time>
				<extensions>
					<speed>7.25</speed>
				</extensions>
			</trkpt>
			<trkpt lat="53.25822752" lon="-8.92968084">
				<ele>61.0</ele>
				<time>2014-08-17T15:24:19Z</time>
				<extensions>
					<speed>6.25</speed>
				</extensions>
			</trkpt>
			<trkpt lat="53.25824666" lon="-8.92976655">
				<ele>61.0</ele>
				<time>2014-08-17T15:24:20Z</time>
				<extensions>
					<speed>6.0</speed>
				</extensions>
			</trkpt>
			<trkpt lat="53.25826546" lon="-8.9298521">
				<ele>61.0</ele>
				<time>2014-08-17T15:24:21Z</time>
				<extensions>
					<speed>5.75</speed>
				</extensions>
			</trkpt>
			<trkpt lat="53.25828657" lon="-8.92992368">
				<ele>61.0</ele>
				<time>2014-08-17T15:24:22Z</time>
				<extensions>
					<speed>5.75</speed>
				</extensions>
			</trkpt>
			<trkpt lat="53.25830751" lon="-8.9300102">
				<ele>61.0</ele>
				<time>2014-08-17T15:24:23Z</time>
				<extensions>
					<speed>6.0</speed>
				</extensions>
			</trkpt>
			<trkpt lat="53.25833622" lon="-8.93009202">
				<ele>61.0</ele>
				<time>2014-08-17T15:24:24Z</time>
				<extensions>
					<speed>6.25</speed>
				</extensions>
			</trkpt>
			<trkpt lat="53.258364" lon="-8.93016645">
				<ele>61.0</ele>
				<time>2014-08-17T15:24:25Z</time>
				<extensions>
					<speed>5.75</speed>
				</extensions>
			</trkpt>
			<trkpt lat="53.25838304" lon="-8.9302265">
				<ele>60.0</ele>
				<time>2014-08-17T15:24:26Z</time>
				<extensions>
					<speed>4.75</speed>
				</extensions>
			</trkpt>
			<trkpt lat="53.25839028" lon="-8.9303011">
				<ele>61.0</ele>
				<time>2014-08-17T15:24:27Z</time>
				<extensions>
					<speed>4.0</speed>
				</extensions>
			</trkpt>
			<trkpt lat="53.25839536" lon="-8.93035162">
				<ele>61.0</ele>
				<time>2014-08-17T15:24:28Z</time>
				<extensions>
					<speed>3.5</speed>
				</extensions>
			</trkpt>
			<trkpt lat="53.25840038" lon="-8.93037765">
				<ele>61.0</ele>
				<time>2014-08-17T15:24:29Z</time>
				<extensions>
					<speed>2.5</speed>
				</extensions>
			</trkpt>
			<trkpt lat="53.25841199" lon="-8.93040212">
				<ele>60.0</ele>
				<time>2014-08-17T15:24:30Z</time>
				<extensions>
					<speed>1.5</speed>
				</extensions>
			</trkpt>
			<trkpt lat="53.25841411" lon="-8.93042544">
				<ele>60.0</ele>
				<time>2014-08-17T15:24:31Z</time>
				<extensions>
					<speed>1.0</speed>
				</extensions>
			</trkpt>
			<trkpt lat="53.2584176" lon="-8.9304407">
				<ele>60.0</ele>
				<time>2014-08-17T15:24:32Z</time>
				<extensions>
					<speed>0.75</speed>
				</extensions>
			</trkpt>
			<trkpt lat="53.2584164" lon="-8.93044797">
				<ele>60.0</ele>
				<time>2014-08-17T15:24:33Z</time>
				<extensions>
					<speed>0.0</speed>
				</extensions>
			</trkpt>
			<trkpt lat="53.25841938" lon="-8.9304526">
				<ele>60.0</ele>
				<time>2014-08-17T15:24:34Z</time>
				<extensions>
					<speed>0.0</speed>
				</extensions>
			</trkpt>
			<trkpt lat="53.25842221" lon="-8.93045822">
				<ele>61.0</ele>
				<time>2014-08-17T15:24:35Z</time>
				<extensions>
					<speed>0.0</speed>
				</extensions>
			</trkpt>
			<trkpt lat="53.25842331" lon="-8.93045863">
				<ele>61.0</ele>
				<time>2014-08-17T15:24:36Z</time>
				<extensions>
					<speed>0.0</speed>
				</extensions>
			</trkpt>
			<trkpt lat="53.25842456" lon="-8.93046316">
				<ele>62.0</ele>
				<time>2014-08-17T15:24:37Z</time>
				<extensions>
					<speed>0.0</speed>
				</extensions>
			</trkpt>
			<trkpt lat="53.25842655" lon="-8.93046695">
				<ele>62.0</ele>
				<time>2014-08-17T15:24:38Z</time>
				<extensions>
					<speed>0.0</speed>
				</extensions>
			</trkpt>
			<trkpt lat="53.25842639" lon="-8.93046562">
				<ele>61.0</ele>
				<time>2014-08-17T15:24:39Z</time>
				<extensions>
					<speed>0.0</speed>
				</extensions>
			</trkpt>
			<trkpt lat="53.25842665" lon="-8.93046286">
				<ele>61.0</ele>
				<time>2014-08-17T15:24:40Z</time>
				<extensions>
					<speed>0.0</speed>
				</extensions>
			</trkpt>
			<trkpt lat="53.25842893" lon="-8.93046372">
				<ele>62.0</ele>
				<time>2014-08-17T15:24:41Z</time>
				<extensions>
					<speed>0.0</speed>
				</extensions>
			</trkpt>
			<trkpt lat="53.25843142" lon="-8.93046547">
				<ele>63.0</ele>
				<time>2014-08-17T15:24:42Z</time>
				<extensions>
					<speed>0.0</speed>
				</extensions>
			</trkpt>
			<trkpt lat="53.25843284" lon="-8.93046566">
				<ele>63.0</ele>
				<time>2014-08-17T15:24:43Z</time>
				<extensions>
					<speed>0.0</speed>
				</extensions>
			</trkpt>
			<trkpt lat="53.25843317" lon="-8.93046592">
				<ele>63.0</ele>
				<time>2014-08-17T15:24:44Z</time>
				<extensions>
					<speed>0.0</speed>
				</extensions>
			</trkpt>
			<trkpt lat="53.25843349" lon="-8.93046687">
				<ele>63.0</ele>
				<time>2014-08-17T15:24:45Z</time>
				<extensions>
					<speed>0.5</speed>
				</extensions>
			</trkpt>
			<trkpt lat="53.25843394" lon="-8.93047945">
				<ele>64.0</ele>
				<time>2014-08-17T15:24:46Z</time>
				<extensions>
					<speed>1.75</speed>
				</extensions>
			</trkpt>
			<trkpt lat="53.25844619" lon="-8.93051091">
				<ele>63.0</ele>
				<time>2014-08-17T15:24:47Z</time>
				<extensions>
					<speed>2.75</speed>
				</extensions>
			</trkpt>
			<trkpt lat="53.25846168" lon="-8.93055533">
				<ele>63.0</ele>
				<time>2014-08-17T15:24:48Z</time>
				<extensions>
					<speed>3.75</speed>
				</extensions>
			</trkpt>
			<trkpt lat="53.25847533" lon="-8.93061253">
				<ele>63.0</ele>
				<time>2014-08-17T15:24:49Z</time>
				<extensions>
					<speed>4.0</speed>
				</extensions>
			</trkpt>
			<trkpt lat="53.25849568" lon="-8.93066772">
				<ele>63.0</ele>
				<time>2014-08-17T15:24:50Z</time>
				<extensions>
					<speed>4.75</speed>
				</extensions>
			</trkpt>
			<trkpt lat="53.25852014" lon="-8.93073191">
				<ele>63.0</ele>
				<time>2014-08-17T15:24:51Z</time>
				<extensions>
					<speed>5.25</speed>
				</extensions>
			</trkpt>
			<trkpt lat="53.25854034" lon="-8.93080215">
				<ele>63.0</ele>
				<time>2014-08-17T15:24:52Z</time>
				<extensions>
					<speed>5.0</speed>
				</extensions>
			</trkpt>
			<trkpt lat="53.25855939" lon="-8.93087117">
				<ele>63.0</ele>
				<time>2014-08-17T15:24:53Z</time>
				<extensions>
					<speed>5.0</speed>
				</extensions>
			</trkpt>
			<trkpt lat="53.25857844" lon="-8.93094019">
				<ele>63.0</ele>
				<time>2014-08-17T15:24:54Z</time>
				<extensions>
					<speed>5.0</speed>
				</extensions>
			</trkpt>
			<trkpt lat="53.25860227" lon="-8.93099154">
				<ele>62.0</ele>
				<time>2014-08-17T15:24:55Z</time>
				<extensions>
					<speed>4.75</speed>
				</extensions>
			</trkpt>
			<trkpt lat="53.25861679" lon="-8.9310611">
				<ele>62.0</ele>
				<time>2014-08-17T15:24:56Z</time>
				<extensions>
					<speed>4.75</speed>
				</extensions>
			</trkpt>
			<trkpt lat="53.25863145" lon="-8.93112056">
				<ele>61.0</ele>
				<time>2014-08-17T15:24:57Z</time>
				<extensions>
					<speed>4.75</speed>
				</extensions>
			</trkpt>
			<trkpt lat="53.25864491" lon="-8.93118635">
				<ele>61.0</ele>
				<time>2014-08-17T15:24:58Z</time>
				<extensions>
					<speed>4.25</speed>
				</extensions>
			</trkpt>
			<trkpt lat="53.25866185" lon="-8.93124378">
				<ele>61.0</ele>
				<time>2014-08-17T15:24:59Z</time>
				<extensions>
					<speed>4.25</speed>
				</extensions>
			</trkpt>
			<trkpt lat="53.25867837" lon="-8.93130206">
				<ele>61.0</ele>
				<time>2014-08-17T15:25:00Z</time>
				<extensions>
					<speed>4.0</speed>
				</extensions>
			</trkpt>
			<trkpt lat="53.2586923" lon="-8.93135242">
				<ele>60.0</ele>
				<time>2014-08-17T15:25:01Z</time>
				<extensions>
					<speed>4.0</speed>
				</extensions>
			</trkpt>
			<trkpt lat="53.25870264" lon="-8.93140542">
				<ele>60.0</ele>
				<time>2014-08-17T15:25:02Z</time>
				<extensions>
					<speed>3.75</speed>
				</extensions>
			</trkpt>
			<trkpt lat="53.2587153" lon="-8.93145813">
				<ele>60.0</ele>
				<time>2014-08-17T15:25:03Z</time>
				<extensions>
					<speed>3.75</speed>
				</extensions>
			</trkpt>
			<trkpt lat="53.2587324" lon="-8.93150982">
				<ele>60.0</ele>
				<time>2014-08-17T15:25:04Z</time>
				<extensions>
					<speed>3.75</speed>
				</extensions>
			</trkpt>
			<trkpt lat="53.25874591" lon="-8.93156315">
				<ele>60.0</ele>
				<time>2014-08-17T15:25:05Z</time>
				<extensions>
					<speed>3.5</speed>
				</extensions>
			</trkpt>
			<trkpt lat="53.2587508" lon="-8.93160639">
				<ele>59.0</ele>
				<time>2014-08-17T15:25:06Z</time>
				<extensions>
					<speed>3.5</speed>
				</extensions>
			</trkpt>
			<trkpt lat="53.25876234" lon="-8.93165484">
				<ele>60.0</ele>
				<time>2014-08-17T15:25:07Z</time>
				<extensions>
					<speed>3.25</speed>
				</extensions>
			</trkpt>
			<trkpt lat="53.25877447" lon="-8.93169832">
				<ele>60.0</ele>
				<time>2014-08-17T15:25:08Z</time>
				<extensions>
					<speed>3.0</speed>
				</extensions>
			</trkpt>
			<trkpt lat="53.25878196" lon="-8.93173438">
				<ele>60.0</ele>
				<time>2014-08-17T15:25:09Z</time>
				<extensions>
					<speed>2.25</speed>
				</extensions>
			</trkpt>
			<trkpt lat="53.25878969" lon="-8.93175472">
				<ele>60.0</ele>
				<time>2014-08-17T15:25:10Z</time>
				<extensions>
					<speed>1.25</speed>
				</extensions>
			</trkpt>
			<trkpt lat="53.25879334" lon="-8.93176159">
				<ele>60.0</ele>
				<time>2014-08-17T15:25:11Z</time>
				<extensions>
					<speed>0.5</speed>
				</extensions>
			</trkpt>
			<trkpt lat="53.25879393" lon="-8.93176572">
				<ele>61.0</ele>
				<time>2014-08-17T15:25:12Z</time>
				<extensions>
					<speed>0.0</speed>
				</extensions>
			</trkpt>
			<trkpt lat="53.25879055" lon="-8.93176569">
				<ele>61.0</ele>
				<time>2014-08-17T15:25:13Z</time>
				<extensions>
					<speed>0.0</speed>
				</extensions>
			</trkpt>
			<trkpt lat="53.2587846" lon="-8.93176677">
				<ele>60.0</ele>
				<time>2014-08-17T15:25:14Z</time>
				<extensions>
					<speed>0.0</speed>
				</extensions>
			</trkpt>
			<trkpt lat="53.2587863" lon="-8.93176586">
				<ele>60.0</ele>
				<time>2014-08-17T15:25:15Z</time>
				<extensions>
					<speed>0.0</speed>
				</extensions>
			</trkpt>
			<trkpt lat="53.25878559" lon="-8.93176542">
				<ele>60.0</ele>
				<time>2014-08-17T15:25:16Z</time>
				<extensions>
					<speed>0.0</speed>
				</extensions>
			</trkpt>
			<trkpt lat="53.25878544" lon="-8.9317641">
				<ele>60.0</ele>
				<time>2014-08-17T15:25:17Z</time>
				<extensions>
					<speed>0.0</speed>
				</extensions>
			</trkpt>
			<trkpt lat="53.25878338" lon="-8.93176403">
				<ele>60.0</ele>
				<time>2014-08-17T15:25:18Z</time>
				<extensions>
					<speed>0.0</speed>
				</extensions>
			</trkpt>
			<trkpt lat="53.25878382" lon="-8.93176654">
				<ele>60.0</ele>
				<time>2014-08-17T15:25:19Z</time>
				<extensions>
					<speed>0.0</speed>
				</extensions>
			</trkpt>
			<trkpt lat="53.2587839" lon="-8.93176575">
				<ele>60.0</ele>
				<time>2014-08-17T15:25:20Z</time>
				<extensions>
					<speed>0.0</speed>
				</extensions>
			</trkpt>
			<trkpt lat="53.25878524" lon="-8.93176377">
				<ele>60.0</ele>
				<time>2014-08-17T15:25:21Z</time>
				<extensions>
					<speed>0.0</speed>
				</extensions>
			</trkpt>
			<trkpt lat="53.25878501" lon="-8.93176465">
				<ele>60.0</ele>
				<time>2014-08-17T15:25:22Z</time>
				<extensions>
					<speed>0.0</speed>
				</extensions>
			</trkpt>
			<trkpt lat="53.25878463" lon="-8.93176512">
				<ele>60.0</ele>
				<time>2014-08-17T15:25:23Z</time>
				<extensions>
					<speed>0.0</speed>
				</extensions>
			</trkpt>
			<trkpt lat="53.25878488" lon="-8.93176512">
				<ele>60.0</ele>
				<time>2014-08-17T15:25:24Z</time>
				<extensions>
					<speed>0.0</speed>
				</extensions>
			</trkpt>
			<trkpt lat="53.25878484" lon="-8.93176525">
				<ele>60.0</ele>
				<time>2014-08-17T15:25:25Z</time>
				<extensions>
					<speed>0.0</speed>
				</extensions>
			</trkpt>
			<trkpt lat="53.25878486" lon="-8.93176519">
				<ele>60.0</ele>
				<time>2014-08-17T15:25:26Z</time>
				<extensions>
					<speed>0.0</speed>
				</extensions>
			</trkpt>
			<trkpt lat="53.25878488" lon="-8.93176517">
				<ele>60.0</ele>
				<time>2014-08-17T15:25:27Z</time>
				<extensions>
					<speed>0.0</speed>
				</extensions>
			</trkpt>
			<trkpt lat="53.25878486" lon="-8.93176515">
				<ele>60.0</ele>
				<time>2014-08-17T15:25:28Z</time>
				<extensions>
					<speed>0.0</speed>
				</extensions>
			</trkpt>
			<trkpt lat="53.25878486" lon="-8.93176518">
				<ele>60.0</ele>
				<time>2014-08-17T15:25:29Z</time>
				<extensions>
					<speed>0.0</speed>
				</extensions>
			</trkpt>
			<trkpt lat="53.25878591" lon="-8.93176895">
				<ele>60.0</ele>
				<time>2014-08-17T15:25:30Z</time>
				<extensions>
					<speed>1.5</speed>
				</extensions>
			</trkpt>
			<trkpt lat="53.25879794" lon="-8.93180498">
				<ele>60.0</ele>
				<time>2014-08-17T15:25:31Z</time>
				<extensions>
					<speed>2.75</speed>
				</extensions>
			</trkpt>
			<trkpt lat="53.25880814" lon="-8.93185265">
				<ele>60.0</ele>
				<time>2014-08-17T15:25:32Z</time>
				<extensions>
					<speed>3.75</speed>
				</extensions>
			</trkpt>
			<trkpt lat="53.25882714" lon="-8.93190015">
				<ele>60.0</ele>
				<time>2014-08-17T15:25:33Z</time>
				<extensions>
					<speed>3.5</speed>
				</extensions>
			</trkpt>
			<trkpt lat="53.25882844" lon="-8.9319433">
				<ele>59.0</ele>
				<time>2014-08-17T15:25:34Z</time>
				<extensions>
					<speed>3.5</speed>
				</extensions>
			</trkpt>
			<trkpt lat="53.25882368" lon="-8.93199535">
				<ele>59.0</ele>
				<time>2014-08-17T15:25:35Z</time>
				<extensions>
					<speed>3.5</speed>
				</extensions>
			</trkpt>
			<trkpt lat="53.25880467" lon="-8.93203863">
				<ele>59.0</ele>
				<time>2014-08-17T15:25:36Z</time>
				<extensions>
					<speed>3.25</speed>
				</extensions>
			</trkpt>
			<trkpt lat="53.25878938" lon="-8.93205551">
				<ele>58.0</ele>
				<time>2014-08-17T15:25:37Z</time>
				<extensions>
					<speed>2.5</speed>
				</extensions>
			</trkpt>
			<trkpt lat="53.25876736" lon="-8.93207829">
				<ele>59.0</ele>
				<time>2014-08-17T15:25:38Z</time>
				<extensions>
					<speed>2.5</speed>
				</extensions>
			</trkpt>
			<trkpt lat="53.25874501" lon="-8.93208319">
				<ele>59.0</ele>
				<time>2014-08-17T15:25:39Z</time>
				<extensions>
					<speed>2.5</speed>
				</extensions>
			</trkpt>
			<trkpt lat="53.25872243" lon="-8.93210562">
				<ele>59.0</ele>
				<time>2014-08-17T15:25:40Z</time>
				<extensions>
					<speed>2.5</speed>
				</extensions>
			</trkpt>
			<trkpt lat="53.25870255" lon="-8.93212176">
				<ele>59.0</ele>
				<time>2014-08-17T15:25:41Z</time>
				<extensions>
					<speed>2.75</speed>
				</extensions>
			</trkpt>
			<trkpt lat="53.2586812" lon="-8.93213891">
				<ele>59.0</ele>
				<time>2014-08-17T15:25:42Z</time>
				<extensions>
					<speed>3.0</speed>
				</extensions>
			</trkpt>
			<trkpt lat="53.25865902" lon="-8.93216108">
				<ele>60.0</ele>
				<time>2014-08-17T15:25:43Z</time>
				<extensions>
					<speed>3.0</speed>
				</extensions>
			</trkpt>
			<trkpt lat="53.2586406" lon="-8.93217535">
				<ele>60.0</ele>
				<time>2014-08-17T15:25:44Z</time>
				<extensions>
					<speed>2.25</speed>
				</extensions>
			</trkpt>
			<trkpt lat="53.25862577" lon="-8.93219124">
				<ele>60.0</ele>
				<time>2014-08-17T15:25:45Z</time>
				<extensions>
					<speed>1.75</speed>
				</extensions>
			</trkpt>
			<trkpt lat="53.25861922" lon="-8.93219308">
				<ele>60.0</ele>
				<time>2014-08-17T15:25:46Z</time>
				<extensions>
					<speed>1.0</speed>
				</extensions>
			</trkpt>
			<trkpt lat="53.2586119" lon="-8.93220087">
				<ele>60.0</ele>
				<time>2014-08-17T15:25:47Z</time>
				<extensions>
					<speed>0.5</speed>
				</extensions>
			</trkpt>
			<trkpt lat="53.25860864" lon="-8.9322077">
				<ele>60.0</ele>
				<time>2014-08-17T15:25:48Z</time>
				<extensions>
					<speed>0.0</speed>
				</extensions>
			</trkpt>
			<trkpt lat="53.25860794" lon="-8.93220973">
				<ele>60.0</ele>
				<time>2014-08-17T15:25:49Z</time>
				<extensions>
					<speed>0.0</speed>
				</extensions>
			</trkpt>
			<trkpt lat="53.25860771" lon="-8.93221451">
				<ele>61.0</ele>
				<time>2014-08-17T15:25:50Z</time>
				<extensions>
					<speed>0.0</speed>
				</extensions>
			</trkpt>
			<trkpt lat="53.25860668" lon="-8.93221801">
				<ele>61.0</ele>
				<time>2014-08-17T15:25:51Z</time>
				<extensions>
					<speed>0.0</speed>
				</extensions>
			</trkpt>
			<trkpt lat="53.25860469" lon="-8.93221947">
				<ele>61.0</ele>
				<time>2014-08-17T15:25:52Z</time>
				<extensions>
					<speed>1.25</speed>
				</extensions>
			</trkpt>
			<trkpt lat="53.25858165" lon="-8.93223306">
				<ele>61.0</ele>
				<time>2014-08-17T15:25:53Z</time>
				<extensions>
					<speed>2.0</speed>
				</extensions>
			</trkpt>
			<trkpt lat="53.25856206" lon="-8.93225359">
				<ele>60.0</ele>
				<time>2014-08-17T15:25:54Z</time>
				<extensions>
					<speed>2.25</speed>
				</extensions>
			</trkpt>
			<trkpt lat="53.25854417" lon="-8.93227421">
				<ele>61.0</ele>
				<time>2014-08-17T15:25:55Z</time>
				<extensions>
					<speed>2.25</speed>
				</extensions>
			</trkpt>
			<trkpt lat="53.25852101" lon="-8.93229257">
				<ele>61.0</ele>
				<time>2014-08-17T15:25:56Z</time>
				<extensions>
					<speed>2.0</speed>
				</extensions>
			</trkpt>
			<trkpt lat="53.25850576" lon="-8.9323048">
				<ele>60.0</ele>
				<time>2014-08-17T15:25:57Z</time>
				<extensions>
					<speed>2.0</speed>
				</extensions>
			</trkpt>
			<trkpt lat="53.25849071" lon="-8.93231343">
				<ele>59.0</ele>
				<time>2014-08-17T15:25:58Z</time>
				<extensions>
					<speed>1.5</speed>
				</extensions>
			</trkpt>
			<trkpt lat="53.25847524" lon="-8.93232944">
				<ele>60.0</ele>
				<time>2014-08-17T15:25:59Z</time>
				<extensions>
					<speed>2.0</speed>
				</extensions>
			</trkpt>
			<trkpt lat="53.25846055" lon="-8.93234102">
				<ele>59.0</ele>
				<time>2014-08-17T15:26:00Z</time>
				<extensions>
					<speed>2.5</speed>
				</extensions>
			</trkpt>
			<trkpt lat="53.25843765" lon="-8.93235009">
				<ele>59.0</ele>
				<time>2014-08-17T15:26:01Z</time>
				<extensions>
					<speed>2.25</speed>
				</extensions>
			</trkpt>
			<trkpt lat="53.25841518" lon="-8.93235916">
				<ele>59.0</ele>
				<time>2014-08-17T15:26:02Z</time>
				<extensions>
					<speed>2.25</speed>
				</extensions>
			</trkpt>
			<trkpt lat="53.2583998" lon="-8.93236145">
				<ele>59.0</ele>
				<time>2014-08-17T15:26:03Z</time>
				<extensions>
					<speed>1.5</speed>
				</extensions>
			</trkpt>
			<trkpt lat="53.25839406" lon="-8.93236557">
				<ele>59.0</ele>
				<time>2014-08-17T15:26:04Z</time>
				<extensions>
					<speed>0.75</speed>
				</extensions>
			</trkpt>
			<trkpt lat="53.25838739" lon="-8.93235184">
				<ele>59.0</ele>
				<time>2014-08-17T15:26:05Z</time>
				<extensions>
					<speed>0.0</speed>
				</extensions>
			</trkpt>
			<trkpt lat="53.25838689" lon="-8.93235344">
				<ele>58.0</ele>
				<time>2014-08-17T15:26:06Z</time>
				<extensions>
					<speed>0.0</speed>
				</extensions>
			</trkpt>
			<trkpt lat="53.25839277" lon="-8.93235142">
				<ele>58.0</ele>
				<time>2014-08-17T15:26:07Z</time>
				<extensions>
					<speed>0.0</speed>
				</extensions>
			</trkpt>
			<trkpt lat="53.25839034" lon="-8.93235408">
				<ele>58.0</ele>
				<time>2014-08-17T15:26:08Z</time>
				<extensions>
					<speed>0.0</speed>
				</extensions>
			</trkpt>
			<trkpt lat="53.25838957" lon="-8.93235094">
				<ele>58.0</ele>
				<time>2014-08-17T15:26:09Z</time>
				<extensions>
					<speed>0.0</speed>
				</extensions>
			</trkpt>
			<trkpt lat="53.25838862" lon="-8.93234659">
				<ele>58.0</ele>
				<time>2014-08-17T15:26:10Z</time>
				<extensions>
					<speed>0.0</speed>
				</extensions>
			</trkpt>
			<trkpt lat="53.25838995" lon="-8.93234731">
				<ele>58.0</ele>
				<time>2014-08-17T15:26:11Z</time>
				<extensions>
					<speed>0.0</speed>
				</extensions>
			</trkpt>
			<trkpt lat="53.25839109" lon="-8.93234753">
				<ele>57.0</ele>
				<time>2014-08-17T15:26:12Z</time>
				<extensions>
					<speed>0.0</speed>
				</extensions>
			</trkpt>
			<trkpt lat="53.25839276" lon="-8.93234216">
				<ele>57.0</ele>
				<time>2014-08-17T15:26:13Z</time>
				<extensions>
					<speed>0.0</speed>
				</extensions>
			</trkpt>
			<trkpt lat="53.25839227" lon="-8.93233832">
				<ele>58.0</ele>
				<time>2014-08-17T15:26:14Z</time>
				<extensions>
					<speed>0.0</speed>
				</extensions>
			</trkpt>
			<trkpt lat="53.25839288" lon="-8.93233785">
				<ele>58.0</ele>
				<time>2014-08-17T15:26:15Z</time>
				<extensions>
					<speed>0.0</speed>
				</extensions>
			</trkpt>
			<trkpt lat="53.25839273" lon="-8.93233842">
				<ele>58.0</ele>
				<time>2014-08-17T15:26:16Z</time>
				<extensions>
					<speed>0.0</speed>
				</extensions>
			</trkpt>
			<trkpt lat="53.25839297" lon="-8.93233859">
				<ele>58.0</ele>
				<time>2014-08-17T15:26:17Z</time>
				<extensions>
					<speed>0.0</speed>
				</extensions>
			</trkpt>
			<trkpt lat="53.25839311" lon="-8.9323383">
				<ele>58.0</ele>
				<time>2014-08-17T15:26:18Z</time>
				<extensions>
					<speed>0.0</speed>
				</extensions>
			</trkpt>
			<trkpt lat="53.25839308" lon="-8.93233828">
				<ele>58.0</ele>
				<time>2014-08-17T15:26:19Z</time>
				<extensions>
					<speed>0.0</speed>
				</extensions>
			</trkpt>
			<trkpt lat="53.25839309" lon="-8.93233829">
				<ele>58.0</ele>
				<time>2014-08-17T15:26:20Z</time>
				<extensions>
					<speed>0.0</speed>
				</extensions>
			</trkpt>
			<trkpt lat="53.25839308" lon="-8.9323383">
				<ele>58.0</ele>
				<time>2014-08-17T15:26:21Z</time>
				<extensions>
					<speed>0.0</speed>
				</extensions>
			</trkpt>
			<trkpt lat="53.25839309" lon="-8.93233828">
				<ele>58.0</ele>
				<time>2014-08-17T15:26:22Z</time>
				<extensions>
					<speed>0.0</speed>
				</extensions>
			</trkpt>
			<trkpt lat="53.2583931" lon="-8.93233828">
				<ele>58.0</ele>
				<time>2014-08-17T15:26:23Z</time>
				<extensions>
					<speed>0.0</speed>
				</extensions>
			</trkpt>
			<trkpt lat="53.25839307" lon="-8.93233832">
				<ele>58.0</ele>
				<time>2014-08-17T15:26:24Z</time>
				<extensions>
					<speed>0.0</speed>
				</extensions>
			</trkpt>
			<trkpt lat="53.25839307" lon="-8.93233835">
				<ele>58.0</ele>
				<time>2014-08-17T15:26:25Z</time>
				<extensions>
					<speed>0.0</speed>
				</extensions>
			</trkpt>
			<trkpt lat="53.25839307" lon="-8.93233835">
				<ele>58.0</ele>
				<time>2014-08-17T15:26:26Z</time>
				<extensions>
					<speed>0.0</speed>
				</extensions>
			</trkpt>
			<trkpt lat="53.25839306" lon="-8.93233839">
				<ele>58.0</ele>
				<time>2014-08-17T15:26:27Z</time>
				<extensions>
					<speed>0.0</speed>
				</extensions>
			</trkpt>
			<trkpt lat="53.25839308" lon="-8.93233838">
				<ele>58.0</ele>
				<time>2014-08-17T15:26:28Z</time>
				<extensions>
					<speed>0.0</speed>
				</extensions>
			</trkpt>
			<trkpt lat="53.25839309" lon="-8.9323384">
				<ele>58.0</ele>
				<time>2014-08-17T15:26:29Z</time>
				<extensions>
					<speed>0.0</speed>
				</extensions>
			</trkpt>
			<trkpt lat="53.25839305" lon="-8.93233845">
				<ele>58.0</ele>
				<time>2014-08-17T15:26:30Z</time>
				<extensions>
					<speed>0.0</speed>
				</extensions>
			</trkpt>
			<trkpt lat="53.25839302" lon="-8.93233847">
				<ele>58.0</ele>
				<time>2014-08-17T15:26:31Z</time>
				<extensions>
					<speed>0.0</speed>
				</extensions>
			</trkpt>
			<trkpt lat="53.25839299" lon="-8.93233853">
				<ele>58.0</ele>
				<time>2014-08-17T15:26:32Z</time>
				<extensions>
					<speed>0.0</speed>
				</extensions>
			</trkpt>
			<trkpt lat="53.25839301" lon="-8.93233855">
				<ele>58.0</ele>
				<time>2014-08-17T15:26:33Z</time>
				<extensions>
					<speed>0.0</speed>
				</extensions>
			</trkpt>
			<trkpt lat="53.25839302" lon="-8.93233858">
				<ele>58.0</ele>
				<time>2014-08-17T15:26:34Z</time>
				<extensions>
					<speed>0.0</speed>
				</extensions>
			</trkpt>
			<trkpt lat="53.25839303" lon="-8.93233859">
				<ele>58.0</ele>
				<time>2014-08-17T15:26:35Z</time>
				<extensions>
					<speed>0.0</speed>
				</extensions>
			</trkpt>
			<trkpt lat="53.25839301" lon="-8.93233861">
				<ele>58.0</ele>
				<time>2014-08-17T15:26:36Z</time>
				<extensions>
					<speed>0.0</speed>
				</extensions>
			</trkpt>
			<trkpt lat="53.25839301" lon="-8.93233865">
				<ele>58.0</ele>
				<time>2014-08-17T15:26:37Z</time>
				<extensions>
					<speed>0.0</speed>
				</extensions>
			</trkpt>
			<trkpt lat="53.25839303" lon="-8.93233868">
				<ele>58.0</ele>
				<time>2014-08-17T15:26:38Z</time>
				<extensions>
					<speed>0.0</speed>
				</extensions>
			</trkpt>
			<trkpt lat="53.25839302" lon="-8.93233875">
				<ele>58.0</ele>
				<time>2014-08-17T15:26:39Z</time>
				<extensions>
					<speed>0.0</speed>
				</extensions>
			</trkpt>
			<trkpt lat="53.25839305" lon="-8.93233875">
				<ele>58.0</ele>
				<time>2014-08-17T15:26:40Z</time>
				<extensions>
					<speed>0.0</speed>
				</extensions>
			</trkpt>
			<trkpt lat="53.25839309" lon="-8.93233876">
				<ele>58.0</ele>
				<time>2014-08-17T15:26:41Z</time>
				<extensions>
					<speed>0.0</speed>
				</extensions>
			</trkpt>
			<trkpt lat="53.2583931" lon="-8.93233879">
				<ele>58.0</ele>
				<time>2014-08-17T15:26:42Z</time>
				<extensions>
					<speed>0.0</speed>
				</extensions>
			</trkpt>
			<trkpt lat="53.25839309" lon="-8.93233879">
				<ele>58.0</ele>
				<time>2014-08-17T15:26:43Z</time>
				<extensions>
					<speed>0.0</speed>
				</extensions>
			</trkpt>
			<trkpt lat="53.25839131" lon="-8.93233846">
				<ele>58.0</ele>
				<time>2014-08-17T15:26:44Z</time>
				<extensions>
					<speed>1.5</speed>
				</extensions>
			</trkpt>
			<trkpt lat="53.25836464" lon="-8.93233535">
				<ele>59.0</ele>
				<time>2014-08-17T15:26:45Z</time>
				<extensions>
					<speed>3.0</speed>
				</extensions>
			</trkpt>
			<trkpt lat="53.25833567" lon="-8.93231824">
				<ele>58.0</ele>
				<time>2014-08-17T15:26:46Z</time>
				<extensions>
					<speed>4.0</speed>
				</extensions>
			</trkpt>
			<trkpt lat="53.25830546" lon="-8.93228969">
				<ele>59.0</ele>
				<time>2014-08-17T15:26:47Z</time>
				<extensions>
					<speed>3.75</speed>
				</extensions>
			</trkpt>
			<trkpt lat="53.25827714" lon="-8.93224363">
				<ele>59.0</ele>
				<time>2014-08-17T15:26:48Z</time>
				<extensions>
					<speed>4.75</speed>
				</extensions>
			</trkpt>
			<trkpt lat="53.25824566" lon="-8.93218259">
				<ele>59.0</ele>
				<time>2014-08-17T15:26:49Z</time>
				<extensions>
					<speed>5.75</speed>
				</extensions>
			</trkpt>
			<trkpt lat="53.25821387" lon="-8.93209941">
				<ele>59.0</ele>
				<time>2014-08-17T15:26:50Z</time>
				<extensions>
					<speed>7.0</speed>
				</extensions>
			</trkpt>
			<trkpt lat="53.25817859" lon="-8.93200994">
				<ele>60.0</ele>
				<time>2014-08-17T15:26:51Z</time>
				<extensions>
					<speed>6.75</speed>
				</extensions>
			</trkpt>
			<trkpt lat="53.25815006" lon="-8.9319154">
				<ele>59.0</ele>
				<time>2014-08-17T15:26:52Z</time>
				<extensions>
					<speed>6.75</speed>
				</extensions>
			</trkpt>
			<trkpt lat="53.25812096" lon="-8.93183439">
				<ele>59.0</ele>
				<time>2014-08-17T15:26:53Z</time>
				<extensions>
					<speed>6.5</speed>
				</extensions>
			</trkpt>
			<trkpt lat="53.25808994" lon="-8.93173591">
				<ele>59.0</ele>
				<time>2014-08-17T15:26:54Z</time>
				<extensions>
					<speed>6.25</speed>
				</extensions>
			</trkpt>
			<trkpt lat="53.25808374" lon="-8.9316554">
				<ele>59.0</ele>
				<time>2014-08-17T15:26:55Z</time>
				<extensions>
					<speed>5.75</speed>
				</extensions>
			</trkpt>
			<trkpt lat="53.25808349" lon="-8.93157549">
				<ele>60.0</ele>
				<time>2014-08-17T15:26:56Z</time>
				<extensions>
					<speed>5.0</speed>
				</extensions>
			</trkpt>
			<trkpt lat="53.25809413" lon="-8.93150001">
				<ele>59.0</ele>
				<time>2014-08-17T15:26:57Z</time>
				<extensions>
					<speed>4.5</speed>
				</extensions>
			</trkpt>
			<trkpt lat="53.2581138" lon="-8.93144167">
				<ele>59.0</ele>
				<time>2014-08-17T15:26:58Z</time>
				<extensions>
					<speed>4.0</speed>
				</extensions>
			</trkpt>
			<trkpt lat="53.2581333" lon="-8.93140682">
				<ele>59.0</ele>
				<time>2014-08-17T15:26:59Z</time>
				<extensions>
					<speed>3.5</speed>
				</extensions>
			</trkpt>
			<trkpt lat="53.25815032" lon="-8.93137407">
				<ele>60.0</ele>
				<time>2014-08-17T15:27:00Z</time>
				<extensions>
					<speed>2.25</speed>
				</extensions>
			</trkpt>
			<trkpt lat="53.25816382" lon="-8.93136255">
				<ele>60.0</ele>
				<time>2014-08-17T15:27:01Z</time>
				<extensions>
					<speed>1.5</speed>
				</extensions>
			</trkpt>
			<trkpt lat="53.25817106" lon="-8.931342">
				<ele>62.0</ele>
				<time>2014-08-17T15:27:02Z</time>
				<extensions>
					<speed>0.75</speed>
				</extensions>
			</trkpt>
			<trkpt lat="53.25817453" lon="-8.93134746">
				<ele>62.0</ele>
				<time>2014-08-17T15:27:03Z</time>
				<extensions>
					<speed>0.0</speed>
				</extensions>
			</trkpt>
			<trkpt lat="53.25817461" lon="-8.93134741">
				<ele>62.0</ele>
				<time>2014-08-17T15:27:04Z</time>
				<extensions>
					<speed>0.0</speed>
				</extensions>
			</trkpt>
			<trkpt lat="53.25817232" lon="-8.93135118">
				<ele>61.0</ele>
				<time>2014-08-17T15:27:05Z</time>
				<extensions>
					<speed>0.0</speed>
				</extensions>
			</trkpt>
			<trkpt lat="53.25817232" lon="-8.93135118">
				<ele>61.0</ele>
				<time>2014-08-17T15:27:06Z</time>
				<extensions>
					<speed>0.0</speed>
				</extensions>
			</trkpt>
			<trkpt lat="53.25817232" lon="-8.93135118">
				<ele>61.0</ele>
				<time>2014-08-17T15:27:07Z</time>
				<extensions>
					<speed>0.0</speed>
				</extensions>
			</trkpt>
			<trkpt lat="53.25817602" lon="-8.93135813">
				<ele>62.0</ele>
				<time>2014-08-17T15:27:08Z</time>
				<extensions>
					<speed>0.0</speed>
				</extensions>
			</trkpt>
			<trkpt lat="53.2581805" lon="-8.93135768">
				<ele>63.0</ele>
				<time>2014-08-17T15:27:09Z</time>
				<extensions>
					<speed>0.0</speed>
				</extensions>
			</trkpt>
			<trkpt lat="53.25818225" lon="-8.93136111">
				<ele>63.0</ele>
				<time>2014-08-17T15:27:10Z</time>
				<extensions>
					<speed>0.0</speed>
				</extensions>
			</trkpt>
			<trkpt lat="53.25818234" lon="-8.93136233">
				<ele>63.0</ele>
				<time>2014-08-17T15:27:11Z</time>
				<extensions>
					<speed>0.0</speed>
				</extensions>
			</trkpt>
			<trkpt lat="53.25818234" lon="-8.93136233">
				<ele>63.0</ele>
				<time>2014-08-17T15:27:12Z</time>
				<extensions>
					<speed>0.0</speed>
				</extensions>
			</trkpt>
			<trkpt lat="53.25818234" lon="-8.93136233">
				<ele>63.0</ele>
				<time>2014-08-17T15:27:13Z</time>
				<extensions>
					<speed>0.0</speed>
				</extensions>
			</trkpt>
			<trkpt lat="53.25818368" lon="-8.93136112">
				<ele>64.0</ele>
				<time>2014-08-17T15:27:14Z</time>
				<extensions>
					<speed>0.0</speed>
				</extensions>
			</trkpt>
			<trkpt lat="53.25818062" lon="-8.93136703">
				<ele>64.0</ele>
				<time>2014-08-17T15:27:15Z</time>
				<extensions>
					<speed>0.0</speed>
				</extensions>
			</trkpt>
			<trkpt lat="53.25818075" lon="-8.93136903">
				<ele>64.0</ele>
				<time>2014-08-17T15:27:16Z</time>
				<extensions>
					<speed>0.0</speed>
				</extensions>
			</trkpt>
			<trkpt lat="53.25818081" lon="-8.93136913">
				<ele>64.0</ele>
				<time>2014-08-17T15:27:17Z</time>
				<extensions>
					<speed>0.0</speed>
				</extensions>
			</trkpt>
			<trkpt lat="53.25818084" lon="-8.93136933">
				<ele>64.0</ele>
				<time>2014-08-17T15:27:18Z</time>
				<extensions>
					<speed>0.0</speed>
				</extensions>
			</trkpt>
			<trkpt lat="53.25818083" lon="-8.93136937">
				<ele>64.0</ele>
				<time>2014-08-17T15:27:19Z</time>
				<extensions>
					<speed>0.0</speed>
				</extensions>
			</trkpt>
			<trkpt lat="53.25818085" lon="-8.93136934">
				<ele>64.0</ele>
				<time>2014-08-17T15:27:20Z</time>
				<extensions>
					<speed>0.0</speed>
				</extensions>
			</trkpt>
			<trkpt lat="53.25818089" lon="-8.93136934">
				<ele>64.0</ele>
				<time>2014-08-17T15:27:21Z</time>
				<extensions>
					<speed>0.0</speed>
				</extensions>
			</trkpt>
			<trkpt lat="53.25818089" lon="-8.93136934">
				<ele>64.0</ele>
				<time>2014-08-17T15:27:22Z</time>
				<extensions>
					<speed>0.0</speed>
				</extensions>
			</trkpt>
			<trkpt lat="53.25818089" lon="-8.93136934">
				<ele>64.0</ele>
				<time>2014-08-17T15:27:23Z</time>
				<extensions>
					<speed>0.0</speed>
				</extensions>
			</trkpt>
			<trkpt lat="53.25817983" lon="-8.93136838">
				<ele>64.0</ele>
				<time>2014-08-17T15:27:24Z</time>
				<extensions>
					<speed>0.0</speed>
				</extensions>
			</trkpt>
			<trkpt lat="53.25817983" lon="-8.93136838">
				<ele>64.0</ele>
				<time>2014-08-17T15:27:25Z</time>
				<extensions>
					<speed>0.0</speed>
				</extensions>
			</trkpt>
			<trkpt lat="53.25817982" lon="-8.93136837">
				<ele>64.0</ele>
				<time>2014-08-17T15:27:26Z</time>
				<extensions>
					<speed>0.0</speed>
				</extensions>
			</trkpt>
			<trkpt lat="53.2581798" lon="-8.93136834">
				<ele>64.0</ele>
				<time>2014-08-17T15:27:27Z</time>
				<extensions>
					<speed>0.0</speed>
				</extensions>
			</trkpt>
			<trkpt lat="53.25817977" lon="-8.93136838">
				<ele>64.0</ele>
				<time>2014-08-17T15:27:28Z</time>
				<extensions>
					<speed>0.0</speed>
				</extensions>
			</trkpt>
			<trkpt lat="53.25818076" lon="-8.93136735">
				<ele>64.0</ele>
				<time>2014-08-17T15:27:29Z</time>
				<extensions>
					<speed>1.0</speed>
				</extensions>
			</trkpt>
			<trkpt lat="53.25819252" lon="-8.93135233">
				<ele>63.0</ele>
				<time>2014-08-17T15:27:30Z</time>
				<extensions>
					<speed>2.5</speed>
				</extensions>
			</trkpt>
			<trkpt lat="53.25821372" lon="-8.93132245">
				<ele>64.0</ele>
				<time>2014-08-17T15:27:31Z</time>
				<extensions>
					<speed>3.0</speed>
				</extensions>
			</trkpt>
			<trkpt lat="53.25822113" lon="-8.93128858">
				<ele>64.0</ele>
				<time>2014-08-17T15:27:32Z</time>
				<extensions>
					<speed>3.0</speed>
				</extensions>
			</trkpt>
			<trkpt lat="53.25821888" lon="-8.93124781">
				<ele>64.0</ele>
				<time>2014-08-17T15:27:33Z</time>
				<extensions>
					<speed>2.25</speed>
				</extensions>
			</trkpt>
			<trkpt lat="53.25821012" lon="-8.93122446">
				<ele>65.0</ele>
				<time>2014-08-17T15:27:34Z</time>
				<extensions>
					<speed>1.0</speed>
				</extensions>
			</trkpt>
			<trkpt lat="53.25821033" lon="-8.9312185">
				<ele>66.0</ele>
				<time>2014-08-17T15:27:35Z</time>
				<extensions>
					<speed>0.0</speed>
				</extensions>
			</trkpt>
			<trkpt lat="53.2582113" lon="-8.93121862">
				<ele>66.0</ele>
				<time>2014-08-17T15:27:36Z</time>
				<extensions>
					<speed>0.0</speed>
				</extensions>
			</trkpt>
			<trkpt lat="53.25821638" lon="-8.93121839">
				<ele>66.0</ele>
				<time>2014-08-17T15:27:37Z</time>
				<extensions>
					<speed>0.0</speed>
				</extensions>
			</trkpt>
			<trkpt lat="53.25821696" lon="-8.93122164">
				<ele>66.0</ele>
				<time>2014-08-17T15:27:38Z</time>
				<extensions>
					<speed>1.75</speed>
				</extensions>
			</trkpt>
			<trkpt lat="53.25822029" lon="-8.93125473">
				<ele>65.0</ele>
				<time>2014-08-17T15:27:39Z</time>
				<extensions>
					<speed>2.0</speed>
				</extensions>
			</trkpt>
			<trkpt lat="53.25822576" lon="-8.93128416">
				<ele>64.0</ele>
				<time>2014-08-17T15:27:40Z</time>
				<extensions>
					<speed>1.75</speed>
				</extensions>
			</trkpt>
			<trkpt lat="53.25823214" lon="-8.93130429">
				<ele>64.0</ele>
				<time>2014-08-17T15:27:41Z</time>
				<extensions>
					<speed>1.5</speed>
				</extensions>
			</trkpt>
			<trkpt lat="53.25823861" lon="-8.93132261">
				<ele>64.0</ele>
				<time>2014-08-17T15:27:42Z</time>
				<extensions>
					<speed>0.75</speed>
				</extensions>
			</trkpt>
			<trkpt lat="53.25824247" lon="-8.93133085">
				<ele>64.0</ele>
				<time>2014-08-17T15:27:43Z</time>
				<extensions>
					<speed>0.5</speed>
				</extensions>
			</trkpt>
			<trkpt lat="53.25824688" lon="-8.93132559">
				<ele>63.0</ele>
				<time>2014-08-17T15:27:44Z</time>
				<extensions>
					<speed>0.0</speed>
				</extensions>
			</trkpt>
			<trkpt lat="53.25824072" lon="-8.93132312">
				<ele>63.0</ele>
				<time>2014-08-17T15:27:45Z</time>
				<extensions>
					<speed>1.0</speed>
				</extensions>
			</trkpt>
			<trkpt lat="53.25822488" lon="-8.93132071">
				<ele>63.0</ele>
				<time>2014-08-17T15:27:46Z</time>
				<extensions>
					<speed>1.75</speed>
				</extensions>
			</trkpt>
			<trkpt lat="53.25820091" lon="-8.93132112">
				<ele>62.0</ele>
				<time>2014-08-17T15:27:47Z</time>
				<extensions>
					<speed>2.25</speed>
				</extensions>
			</trkpt>
			<trkpt lat="53.25817942" lon="-8.93133537">
				<ele>63.0</ele>
				<time>2014-08-17T15:27:48Z</time>
				<extensions>
					<speed>2.25</speed>
				</extensions>
			</trkpt>
			<trkpt lat="53.25815858" lon="-8.93135775">
				<ele>62.0</ele>
				<time>2014-08-17T15:27:49Z</time>
				<extensions>
					<speed>2.5</speed>
				</extensions>
			</trkpt>
			<trkpt lat="53.25814109" lon="-8.93139013">
				<ele>62.0</ele>
				<time>2014-08-17T15:27:50Z</time>
				<extensions>
					<speed>3.25</speed>
				</extensions>
			</trkpt>
			<trkpt lat="53.25811739" lon="-8.93142066">
				<ele>62.0</ele>
				<time>2014-08-17T15:27:51Z</time>
				<extensions>
					<speed>3.75</speed>
				</extensions>
			</trkpt>
			<trkpt lat="53.25809849" lon="-8.93147284">
				<ele>62.0</ele>
				<time>2014-08-17T15:27:52Z</time>
				<extensions>
					<speed>4.0</speed>
				</extensions>
			</trkpt>
			<trkpt lat="53.25808267" lon="-8.93153701">
				<ele>62.0</ele>
				<time>2014-08-17T15:27:53Z</time>
				<extensions>
					<speed>5.0</speed>
				</extensions>
			</trkpt>
			<trkpt lat="53.25807924" lon="-8.93163083">
				<ele>62.0</ele>
				<time>2014-08-17T15:27:54Z</time>
				<extensions>
					<speed>6.25</speed>
				</extensions>
			</trkpt>
			<trkpt lat="53.25809119" lon="-8.93172906">
				<ele>62.0</ele>
				<time>2014-08-17T15:27:55Z</time>
				<extensions>
					<speed>7.25</speed>
				</extensions>
			</trkpt>
			<trkpt lat="53.25811146" lon="-8.93182075">
				<ele>61.0</ele>
				<time>2014-08-17T15:27:56Z</time>
				<extensions>
					<speed>6.75</speed>
				</extensions>
			</trkpt>
			<trkpt lat="53.25813539" lon="-8.93191963">
				<ele>61.0</ele>
				<time>2014-08-17T15:27:57Z</time>
				<extensions>
					<speed>6.75</speed>
				</extensions>
			</trkpt>
			<trkpt lat="53.25816149" lon="-8.93201505">
				<ele>61.0</ele>
				<time>2014-08-17T15:27:58Z</time>
				<extensions>
					<speed>6.75</speed>
				</extensions>
			</trkpt>
			<trkpt lat="53.25819547" lon="-8.93209614">
				<ele>61.0</ele>
				<time>2014-08-17T15:27:59Z</time>
				<extensions>
					<speed>7.0</speed>
				</extensions>
			</trkpt>
			<trkpt lat="53.25822705" lon="-8.93217886">
				<ele>60.0</ele>
				<time>2014-08-17T15:28:00Z</time>
				<extensions>
					<speed>6.75</speed>
				</extensions>
			</trkpt>
			<trkpt lat="53.2582664" lon="-8.93226494">
				<ele>61.0</ele>
				<time>2014-08-17T15:28:01Z</time>
				<extensions>
					<speed>6.25</speed>
				</extensions>
			</trkpt>
			<trkpt lat="53.25831038" lon="-8.93233699">
				<ele>60.0</ele>
				<time>2014-08-17T15:28:02Z</time>
				<extensions>
					<speed>7.25</speed>
				</extensions>
			</trkpt>
			<trkpt lat="53.25836024" lon="-8.93237861">
				<ele>60.0</ele>
				<time>2014-08-17T15:28:03Z</time>
				<extensions>
					<speed>5.75</speed>
				</extensions>
			</trkpt>
			<trkpt lat="53.25840153" lon="-8.93241258">
				<ele>59.0</ele>
				<time>2014-08-17T15:28:04Z</time>
				<extensions>
					<speed>5.5</speed>
				</extensions>
			</trkpt>
			<trkpt lat="53.25844818" lon="-8.93240736">
				<ele>61.0</ele>
				<time>2014-08-17T15:28:05Z</time>
				<extensions>
					<speed>5.5</speed>
				</extensions>
			</trkpt>
			<trkpt lat="53.25848814" lon="-8.93237756">
				<ele>61.0</ele>
				<time>2014-08-17T15:28:06Z</time>
				<extensions>
					<speed>5.25</speed>
				</extensions>
			</trkpt>
			<trkpt lat="53.25853383" lon="-8.93234758">
				<ele>61.0</ele>
				<time>2014-08-17T15:28:07Z</time>
				<extensions>
					<speed>5.0</speed>
				</extensions>
			</trkpt>
			<trkpt lat="53.25857742" lon="-8.9323042">
				<ele>61.0</ele>
				<time>2014-08-17T15:28:08Z</time>
				<extensions>
					<speed>5.0</speed>
				</extensions>
			</trkpt>
			<trkpt lat="53.25861563" lon="-8.93226968">
				<ele>60.0</ele>
				<time>2014-08-17T15:28:09Z</time>
				<extensions>
					<speed>4.75</speed>
				</extensions>
			</trkpt>
			<trkpt lat="53.25865244" lon="-8.9322326">
				<ele>61.0</ele>
				<time>2014-08-17T15:28:10Z</time>
				<extensions>
					<speed>4.75</speed>
				</extensions>
			</trkpt>
			<trkpt lat="53.25868363" lon="-8.93218923">
				<ele>61.0</ele>
				<time>2014-08-17T15:28:11Z</time>
				<extensions>
					<speed>4.75</speed>
				</extensions>
			</trkpt>
			<trkpt lat="53.25872343" lon="-8.93216509">
				<ele>62.0</ele>
				<time>2014-08-17T15:28:12Z</time>
				<extensions>
					<speed>4.5</speed>
				</extensions>
			</trkpt>
			<trkpt lat="53.25875772" lon="-8.93214499">
				<ele>62.0</ele>
				<time>2014-08-17T15:28:13Z</time>
				<extensions>
					<speed>4.0</speed>
				</extensions>
			</trkpt>
			<trkpt lat="53.25878942" lon="-8.93213035">
				<ele>62.0</ele>
				<time>2014-08-17T15:28:14Z</time>
				<extensions>
					<speed>3.25</speed>
				</extensions>
			</trkpt>
			<trkpt lat="53.25881209" lon="-8.9321171">
				<ele>62.0</ele>
				<time>2014-08-17T15:28:15Z</time>
				<extensions>
					<speed>2.0</speed>
				</extensions>
			</trkpt>
			<trkpt lat="53.2588237" lon="-8.93210681">
				<ele>62.0</ele>
				<time>2014-08-17T15:28:16Z</time>
				<extensions>
					<speed>1.0</speed>
				</extensions>
			</trkpt>
			<trkpt lat="53.25882718" lon="-8.93210427">
				<ele>62.0</ele>
				<time>2014-08-17T15:28:17Z</time>
				<extensions>
					<speed>0.0</speed>
				</extensions>
			</trkpt>
			<trkpt lat="53.2588289" lon="-8.93210511">
				<ele>62.0</ele>
				<time>2014-08-17T15:28:18Z</time>
				<extensions>
					<speed>0.0</speed>
				</extensions>
			</trkpt>
			<trkpt lat="53.25883193" lon="-8.93210765">
				<ele>62.0</ele>
				<time>2014-08-17T15:28:19Z</time>
				<extensions>
					<speed>0.0</speed>
				</extensions>
			</trkpt>
			<trkpt lat="53.25883098" lon="-8.9321077">
				<ele>62.0</ele>
				<time>2014-08-17T15:28:20Z</time>
				<extensions>
					<speed>0.75</speed>
				</extensions>
			</trkpt>
			<trkpt lat="53.2588242" lon="-8.93210799">
				<ele>62.0</ele>
				<time>2014-08-17T15:28:21Z</time>
				<extensions>
					<speed>0.75</speed>
				</extensions>
			</trkpt>
			<trkpt lat="53.25883155" lon="-8.93210169">
				<ele>62.0</ele>
				<time>2014-08-17T15:28:22Z</time>
				<extensions>
					<speed>0.25</speed>
				</extensions>
			</trkpt>
			<trkpt lat="53.25884232" lon="-8.9321009">
				<ele>63.0</ele>
				<time>2014-08-17T15:28:23Z</time>
				<extensions>
					<speed>0.0</speed>
				</extensions>
			</trkpt>
			<trkpt lat="53.25884623" lon="-8.93209992">
				<ele>62.0</ele>
				<time>2014-08-17T15:28:24Z</time>
				<extensions>
					<speed>0.0</speed>
				</extensions>
			</trkpt>
			<trkpt lat="53.25884874" lon="-8.93210106">
				<ele>62.0</ele>
				<time>2014-08-17T15:28:25Z</time>
				<extensions>
					<speed>0.0</speed>
				</extensions>
			</trkpt>
			<trkpt lat="53.25884573" lon="-8.93209853">
				<ele>62.0</ele>
				<time>2014-08-17T15:28:26Z</time>
				<extensions>
					<speed>0.0</speed>
				</extensions>
			</trkpt>
			<trkpt lat="53.25884985" lon="-8.93209578">
				<ele>62.0</ele>
				<time>2014-08-17T15:28:27Z</time>
				<extensions>
					<speed>0.0</speed>
				</extensions>
			</trkpt>
			<trkpt lat="53.2588525" lon="-8.93209004">
				<ele>62.0</ele>
				<time>2014-08-17T15:28:28Z</time>
				<extensions>
					<speed>0.0</speed>
				</extensions>
			</trkpt>
			<trkpt lat="53.25885396" lon="-8.93208545">
				<ele>62.0</ele>
				<time>2014-08-17T15:28:29Z</time>
				<extensions>
					<speed>0.0</speed>
				</extensions>
			</trkpt>
			<trkpt lat="53.25885629" lon="-8.93209226">
				<ele>61.0</ele>
				<time>2014-08-17T15:28:30Z</time>
				<extensions>
					<speed>0.0</speed>
				</extensions>
			</trkpt>
			<trkpt lat="53.25885629" lon="-8.93209226">
				<ele>61.0</ele>
				<time>2014-08-17T15:28:31Z</time>
				<extensions>
					<speed>0.0</speed>
				</extensions>
			</trkpt>
			<trkpt lat="53.25885731" lon="-8.93207661">
				<ele>61.0</ele>
				<time>2014-08-17T15:28:32Z</time>
				<extensions>
					<speed>0.0</speed>
				</extensions>
			</trkpt>
			<trkpt lat="53.25885852" lon="-8.93206824">
				<ele>60.0</ele>
				<time>2014-08-17T15:28:33Z</time>
				<extensions>
					<speed>0.0</speed>
				</extensions>
			</trkpt>
			<trkpt lat="53.25886207" lon="-8.93206491">
				<ele>60.0</ele>
				<time>2014-08-17T15:28:34Z</time>
				<extensions>
					<speed>0.75</speed>
				</extensions>
			</trkpt>
			<trkpt lat="53.25886981" lon="-8.93205992">
				<ele>61.0</ele>
				<time>2014-08-17T15:28:35Z</time>
				<extensions>
					<speed>2.0</speed>
				</extensions>
			</trkpt>
			<trkpt lat="53.25889554" lon="-8.93201018">
				<ele>62.0</ele>
				<time>2014-08-17T15:28:36Z</time>
				<extensions>
					<speed>3.25</speed>
				</extensions>
			</trkpt>
			<trkpt lat="53.25889378" lon="-8.93194991">
				<ele>63.0</ele>
				<time>2014-08-17T15:28:37Z</time>
				<extensions>
					<speed>4.25</speed>
				</extensions>
			</trkpt>
			<trkpt lat="53.25887646" lon="-8.93189077">
				<ele>63.0</ele>
				<time>2014-08-17T15:28:38Z</time>
				<extensions>
					<speed>4.5</speed>
				</extensions>
			</trkpt>
			<trkpt lat="53.25885889" lon="-8.93181681">
				<ele>64.0</ele>
				<time>2014-08-17T15:28:39Z</time>
				<extensions>
					<speed>5.5</speed>
				</extensions>
			</trkpt>
			<trkpt lat="53.25883479" lon="-8.93172483">
				<ele>64.0</ele>
				<time>2014-08-17T15:28:40Z</time>
				<extensions>
					<speed>6.75</speed>
				</extensions>
			</trkpt>
			<trkpt lat="53.25880658" lon="-8.93160999">
				<ele>64.0</ele>
				<time>2014-08-17T15:28:41Z</time>
				<extensions>
					<speed>8.25</speed>
				</extensions>
			</trkpt>
			<trkpt lat="53.25877679" lon="-8.93148774">
				<ele>65.0</ele>
				<time>2014-08-17T15:28:42Z</time>
				<extensions>
					<speed>8.75</speed>
				</extensions>
			</trkpt>
			<trkpt lat="53.25873805" lon="-8.93136536">
				<ele>65.0</ele>
				<time>2014-08-17T15:28:43Z</time>
				<extensions>
					<speed>9.25</speed>
				</extensions>
			</trkpt>
			<trkpt lat="53.25868866" lon="-8.93123606">
				<ele>64.0</ele>
				<time>2014-08-17T15:28:44Z</time>
				<extensions>
					<speed>10.25</speed>
				</extensions>
			</trkpt>
			<trkpt lat="53.25864615" lon="-8.93109776">
				<ele>64.0</ele>
				<time>2014-08-17T15:28:45Z</time>
				<extensions>
					<speed>10.75</speed>
				</extensions>
			</trkpt>
			<trkpt lat="53.25860061" lon="-8.93095625">
				<ele>63.0</ele>
				<time>2014-08-17T15:28:46Z</time>
				<extensions>
					<speed>10.5</speed>
				</extensions>
			</trkpt>
			<trkpt lat="53.25856232" lon="-8.93081249">
				<ele>63.0</ele>
				<time>2014-08-17T15:28:47Z</time>
				<extensions>
					<speed>10.25</speed>
				</extensions>
			</trkpt>
			<trkpt lat="53.25851893" lon="-8.93067169">
				<ele>63.0</ele>
				<time>2014-08-17T15:28:48Z</time>
				<extensions>
					<speed>10.0</speed>
				</extensions>
			</trkpt>
			<trkpt lat="53.25848037" lon="-8.93054185">
				<ele>63.0</ele>
				<time>2014-08-17T15:28:49Z</time>
				<extensions>
					<speed>9.75</speed>
				</extensions>
			</trkpt>
			<trkpt lat="53.25844067" lon="-8.93041368">
				<ele>63.0</ele>
				<time>2014-08-17T15:28:50Z</time>
				<extensions>
					<speed>9.5</speed>
				</extensions>
			</trkpt>
			<trkpt lat="53.25840862" lon="-8.93028704">
				<ele>63.0</ele>
				<time>2014-08-17T15:28:51Z</time>
				<extensions>
					<speed>9.0</speed>
				</extensions>
			</trkpt>
			<trkpt lat="53.25837696" lon="-8.93017593">
				<ele>64.0</ele>
				<time>2014-08-17T15:28:52Z</time>
				<extensions>
					<speed>7.75</speed>
				</extensions>
			</trkpt>
			<trkpt lat="53.2583478" lon="-8.93009127">
				<ele>63.0</ele>
				<time>2014-08-17T15:28:53Z</time>
				<extensions>
					<speed>7.0</speed>
				</extensions>
			</trkpt>
			<trkpt lat="53.25832273" lon="-8.93000995">
				<ele>63.0</ele>
				<time>2014-08-17T15:28:54Z</time>
				<extensions>
					<speed>6.0</speed>
				</extensions>
			</trkpt>
			<trkpt lat="53.25829935" lon="-8.92992985">
				<ele>63.0</ele>
				<time>2014-08-17T15:28:55Z</time>
				<extensions>
					<speed>6.0</speed>
				</extensions>
			</trkpt>
			<trkpt lat="53.25829447" lon="-8.92989664">
				<ele>62.0</ele>
				<time>2014-08-17T15:28:56Z</time>
				<extensions>
					<speed>4.25</speed>
				</extensions>
			</trkpt>
			<trkpt lat="53.25827293" lon="-8.92983487">
				<ele>62.0</ele>
				<time>2014-08-17T15:28:57Z</time>
				<extensions>
					<speed>4.5</speed>
				</extensions>
			</trkpt>
			<trkpt lat="53.2582539" lon="-8.9298001">
				<ele>62.0</ele>
				<time>2014-08-17T15:28:58Z</time>
				<extensions>
					<speed>3.75</speed>
				</extensions>
			</trkpt>
			<trkpt lat="53.25825175" lon="-8.9297893">
				<ele>62.0</ele>
				<time>2014-08-17T15:28:59Z</time>
				<extensions>
					<speed>2.25</speed>
				</extensions>
			</trkpt>
			<trkpt lat="53.2582426" lon="-8.92976052">
				<ele>62.0</ele>
				<time>2014-08-17T15:29:00Z</time>
				<extensions>
					<speed>2.25</speed>
				</extensions>
			</trkpt>
			<trkpt lat="53.25828698" lon="-8.92971674">
				<ele>58.0</ele>
				<time>2014-08-17T15:29:01Z</time>
				<extensions>
					<speed>1.0</speed>
				</extensions>
			</trkpt>
			<trkpt lat="53.25827081" lon="-8.92971627">
				<ele>59.0</ele>
				<time>2014-08-17T15:29:02Z</time>
				<extensions>
					<speed>0.5</speed>
				</extensions>
			</trkpt>
			<trkpt lat="53.25826221" lon="-8.92974007">
				<ele>58.0</ele>
				<time>2014-08-17T15:29:03Z</time>
				<extensions>
					<speed>0.0</speed>
				</extensions>
			</trkpt>
			<trkpt lat="53.25825462" lon="-8.9297556">
				<ele>58.0</ele>
				<time>2014-08-17T15:29:04Z</time>
				<extensions>
					<speed>0.0</speed>
				</extensions>
			</trkpt>
			<trkpt lat="53.25825638" lon="-8.92976867">
				<ele>59.0</ele>
				<time>2014-08-17T15:29:05Z</time>
				<extensions>
					<speed>0.0</speed>
				</extensions>
			</trkpt>
			<trkpt lat="53.25826214" lon="-8.92976908">
				<ele>59.0</ele>
				<time>2014-08-17T15:29:06Z</time>
				<extensions>
					<speed>0.0</speed>
				</extensions>
			</trkpt>
			<trkpt lat="53.25827123" lon="-8.92976523">
				<ele>58.0</ele>
				<time>2014-08-17T15:29:07Z</time>
				<extensions>
					<speed>0.0</speed>
				</extensions>
			</trkpt>
			<trkpt lat="53.25827014" lon="-8.92976608">
				<ele>58.0</ele>
				<time>2014-08-17T15:29:08Z</time>
				<extensions>
					<speed>0.0</speed>
				</extensions>
			</trkpt>
			<trkpt lat="53.25827679" lon="-8.92975809">
				<ele>59.0</ele>
				<time>2014-08-17T15:29:09Z</time>
				<extensions>
					<speed>0.0</speed>
				</extensions>
			</trkpt>
			<trkpt lat="53.25828025" lon="-8.92975017">
				<ele>59.0</ele>
				<time>2014-08-17T15:29:10Z</time>
				<extensions>
					<speed>0.0</speed>
				</extensions>
			</trkpt>
			<trkpt lat="53.25828067" lon="-8.92974721">
				<ele>59.0</ele>
				<time>2014-08-17T15:29:11Z</time>
				<extensions>
					<speed>0.0</speed>
				</extensions>
			</trkpt>
			<trkpt lat="53.25827797" lon="-8.92974261">
				<ele>59.0</ele>
				<time>2014-08-17T15:29:12Z</time>
				<extensions>
					<speed>0.0</speed>
				</extensions>
			</trkpt>
			<trkpt lat="53.25827513" lon="-8.9297392">
				<ele>59.0</ele>
				<time>2014-08-17T15:29:13Z</time>
				<extensions>
					<speed>0.0</speed>
				</extensions>
			</trkpt>
			<trkpt lat="53.25827396" lon="-8.92973616">
				<ele>59.0</ele>
				<time>2014-08-17T15:29:14Z</time>
				<extensions>
					<speed>0.0</speed>
				</extensions>
			</trkpt>
			<trkpt lat="53.25827396" lon="-8.92973616">
				<ele>59.0</ele>
				<time>2014-08-17T15:29:15Z</time>
				<extensions>
					<speed>0.0</speed>
				</extensions>
			</trkpt>
			<trkpt lat="53.25827396" lon="-8.92973616">
				<ele>59.0</ele>
				<time>2014-08-17T15:29:16Z</time>
				<extensions>
					<speed>0.0</speed>
				</extensions>
			</trkpt>
			<trkpt lat="53.2582687" lon="-8.92973565">
				<ele>59.0</ele>
				<time>2014-08-17T15:29:17Z</time>
				<extensions>
					<speed>0.0</speed>
				</extensions>
			</trkpt>
			<trkpt lat="53.25826802" lon="-8.92973397">
				<ele>59.0</ele>
				<time>2014-08-17T15:29:18Z</time>
				<extensions>
					<speed>0.0</speed>
				</extensions>
			</trkpt>
			<trkpt lat="53.25826808" lon="-8.92973403">
				<ele>59.0</ele>
				<time>2014-08-17T15:29:19Z</time>
				<extensions>
					<speed>0.0</speed>
				</extensions>
			</trkpt>
			<trkpt lat="53.25826811" lon="-8.92973406">
				<ele>59.0</ele>
				<time>2014-08-17T15:29:20Z</time>
				<extensions>
					<speed>0.0</speed>
				</extensions>
			</trkpt>
			<trkpt lat="53.25826808" lon="-8.9297341">
				<ele>59.0</ele>
				<time>2014-08-17T15:29:21Z</time>
				<extensions>
					<speed>0.0</speed>
				</extensions>
			</trkpt>
			<trkpt lat="53.25826807" lon="-8.92973414">
				<ele>59.0</ele>
				<time>2014-08-17T15:29:22Z</time>
				<extensions>
					<speed>0.0</speed>
				</extensions>
			</trkpt>
			<trkpt lat="53.25826806" lon="-8.92973409">
				<ele>59.0</ele>
				<time>2014-08-17T15:29:23Z</time>
				<extensions>
					<speed>0.0</speed>
				</extensions>
			</trkpt>
			<trkpt lat="53.25826803" lon="-8.92973406">
				<ele>59.0</ele>
				<time>2014-08-17T15:29:24Z</time>
				<extensions>
					<speed>0.0</speed>
				</extensions>
			</trkpt>
			<trkpt lat="53.25826804" lon="-8.92973412">
				<ele>59.0</ele>
				<time>2014-08-17T15:29:25Z</time>
				<extensions>
					<speed>0.0</speed>
				</extensions>
			</trkpt>
			<trkpt lat="53.25826805" lon="-8.92973419">
				<ele>59.0</ele>
				<time>2014-08-17T15:29:26Z</time>
				<extensions>
					<speed>0.0</speed>
				</extensions>
			</trkpt>
			<trkpt lat="53.25826803" lon="-8.92973425">
				<ele>59.0</ele>
				<time>2014-08-17T15:29:27Z</time>
				<extensions>
					<speed>0.0</speed>
				</extensions>
			</trkpt>
			<trkpt lat="53.25826808" lon="-8.92973425">
				<ele>59.0</ele>
				<time>2014-08-17T15:29:28Z</time>
				<extensions>
					<speed>0.0</speed>
				</extensions>
			</trkpt>
			<trkpt lat="53.25826722" lon="-8.92973191">
				<ele>59.0</ele>
				<time>2014-08-17T15:29:29Z</time>
				<extensions>
					<speed>1.25</speed>
				</extensions>
			</trkpt>
			<trkpt lat="53.25826332" lon="-8.9296979">
				<ele>59.0</ele>
				<time>2014-08-17T15:29:30Z</time>
				<extensions>
					<speed>2.5</speed>
				</extensions>
			</trkpt>
			<trkpt lat="53.25824708" lon="-8.92964526">
				<ele>59.0</ele>
				<time>2014-08-17T15:29:31Z</time>
				<extensions>
					<speed>4.0</speed>
				</extensions>
			</trkpt>
			<trkpt lat="53.25822951" lon="-8.92959727">
				<ele>59.0</ele>
				<time>2014-08-17T15:29:32Z</time>
				<extensions>
					<speed>4.0</speed>
				</extensions>
			</trkpt>
			<trkpt lat="53.25821175" lon="-8.92954491">
				<ele>59.0</ele>
				<time>2014-08-17T15:29:33Z</time>
				<extensions>
					<speed>4.0</speed>
				</extensions>
			</trkpt>
			<trkpt lat="53.25818696" lon="-8.92948811">
				<ele>60.0</ele>
				<time>2014-08-17T15:29:34Z</time>
				<extensions>
					<speed>4.75</speed>
				</extensions>
			</trkpt>
			<trkpt lat="53.25816211" lon="-8.92943566">
				<ele>60.0</ele>
				<time>2014-08-17T15:29:35Z</time>
				<extensions>
					<speed>5.0</speed>
				</extensions>
			</trkpt>
			<trkpt lat="53.25813116" lon="-8.92936806">
				<ele>60.0</ele>
				<time>2014-08-17T15:29:36Z</time>
				<extensions>
					<speed>5.5</speed>
				</extensions>
			</trkpt>
			<trkpt lat="53.25809147" lon="-8.92930269">
				<ele>60.0</ele>
				<time>2014-08-17T15:29:37Z</time>
				<extensions>
					<speed>6.25</speed>
				</extensions>
			</trkpt>
			<trkpt lat="53.25804241" lon="-8.92924515">
				<ele>59.0</ele>
				<time>2014-08-17T15:29:38Z</time>
				<extensions>
					<speed>6.75</speed>
				</extensions>
			</trkpt>
			<trkpt lat="53.25798905" lon="-8.92917146">
				<ele>60.0</ele>
				<time>2014-08-17T15:29:39Z</time>
				<extensions>
					<speed>7.0</speed>
				</extensions>
			</trkpt>
			<trkpt lat="53.25793601" lon="-8.92910908">
				<ele>60.0</ele>
				<time>2014-08-17T15:29:40Z</time>
				<extensions>
					<speed>6.75</speed>
				</extensions>
			</trkpt>
			<trkpt lat="53.25788178" lon="-8.92904713">
				<ele>61.0</ele>
				<time>2014-08-17T15:29:41Z</time>
				<extensions>
					<speed>7.25</speed>
				</extensions>
			</trkpt>
			<trkpt lat="53.25782797" lon="-8.92899038">
				<ele>61.0</ele>
				<time>2014-08-17T15:29:42Z</time>
				<extensions>
					<speed>7.25</speed>
				</extensions>
			</trkpt>
			<trkpt lat="53.25777871" lon="-8.92892337">
				<ele>61.0</ele>
				<time>2014-08-17T15:29:43Z</time>
				<extensions>
					<speed>7.5</speed>
				</extensions>
			</trkpt>
			<trkpt lat="53.25772029" lon="-8.92885764">
				<ele>62.0</ele>
				<time>2014-08-17T15:29:44Z</time>
				<extensions>
					<speed>7.75</speed>
				</extensions>
			</trkpt>
			<trkpt lat="53.25765983" lon="-8.92879927">
				<ele>62.0</ele>
				<time>2014-08-17T15:29:45Z</time>
				<extensions>
					<speed>8.0</speed>
				</extensions>
			</trkpt>
			<trkpt lat="53.25758821" lon="-8.9287278">
				<ele>64.0</ele>
				<time>2014-08-17T15:29:46Z</time>
				<extensions>
					<speed>8.25</speed>
				</extensions>
			</trkpt>
			<trkpt lat="53.25752317" lon="-8.92865524">
				<ele>63.0</ele>
				<time>2014-08-17T15:29:47Z</time>
				<extensions>
					<speed>8.5</speed>
				</extensions>
			</trkpt>
			<trkpt lat="53.25745216" lon="-8.92859474">
				<ele>64.0</ele>
				<time>2014-08-17T15:29:48Z</time>
				<extensions>
					<speed>9.0</speed>
				</extensions>
			</trkpt>
			<trkpt lat="53.25738145" lon="-8.92853808">
				<ele>64.0</ele>
				<time>2014-08-17T15:29:49Z</time>
				<extensions>
					<speed>9.0</speed>
				</extensions>
			</trkpt>
			<trkpt lat="53.25730723" lon="-8.92849716">
				<ele>65.0</ele>
				<time>2014-08-17T15:29:50Z</time>
				<extensions>
					<speed>8.5</speed>
				</extensions>
			</trkpt>
			<trkpt lat="53.25723703" lon="-8.92847547">
				<ele>65.0</ele>
				<time>2014-08-17T15:29:51Z</time>
				<extensions>
					<speed>8.0</speed>
				</extensions>
			</trkpt>
			<trkpt lat="53.25716621" lon="-8.92845854">
				<ele>65.0</ele>
				<time>2014-08-17T15:29:52Z</time>
				<extensions>
					<speed>7.25</speed>
				</extensions>
			</trkpt>
			<trkpt lat="53.25710874" lon="-8.92844341">
				<ele>65.0</ele>
				<time>2014-08-17T15:29:53Z</time>
				<extensions>
					<speed>6.5</speed>
				</extensions>
			</trkpt>
			<trkpt lat="53.25704903" lon="-8.92844661">
				<ele>65.0</ele>
				<time>2014-08-17T15:29:54Z</time>
				<extensions>
					<speed>6.0</speed>
				</extensions>
			</trkpt>
			<trkpt lat="53.25699916" lon="-8.92844593">
				<ele>65.0</ele>
				<time>2014-08-17T15:29:55Z</time>
				<extensions>
					<speed>5.25</speed>
				</extensions>
			</trkpt>
			<trkpt lat="53.25696186" lon="-8.9284491">
				<ele>65.0</ele>
				<time>2014-08-17T15:29:56Z</time>
				<extensions>
					<speed>4.75</speed>
				</extensions>
			</trkpt>
			<trkpt lat="53.2569191" lon="-8.92844731">
				<ele>66.0</ele>
				<time>2014-08-17T15:29:57Z</time>
				<extensions>
					<speed>4.0</speed>
				</extensions>
			</trkpt>
			<trkpt lat="53.25688949" lon="-8.92842795">
				<ele>65.0</ele>
				<time>2014-08-17T15:29:58Z</time>
				<extensions>
					<speed>3.5</speed>
				</extensions>
			</trkpt>
			<trkpt lat="53.25686946" lon="-8.92839994">
				<ele>65.0</ele>
				<time>2014-08-17T15:29:59Z</time>
				<extensions>
					<speed>3.0</speed>
				</extensions>
			</trkpt>
			<trkpt lat="53.25685266" lon="-8.92836446">
				<ele>65.0</ele>
				<time>2014-08-17T15:30:00Z</time>
				<extensions>
					<speed>3.25</speed>
				</extensions>
			</trkpt>
			<trkpt lat="53.25684803" lon="-8.92831038">
				<ele>66.0</ele>
				<time>2014-08-17T15:30:01Z</time>
				<extensions>
					<speed>4.5</speed>
				</extensions>
			</trkpt>
			<trkpt lat="53.25684813" lon="-8.92824014">
				<ele>65.0</ele>
				<time>2014-08-17T15:30:02Z</time>
				<extensions>
					<speed>4.5</speed>
				</extensions>
			</trkpt>
			<trkpt lat="53.25684838" lon="-8.92816729">
				<ele>66.0</ele>
				<time>2014-08-17T15:30:03Z</time>
				<extensions>
					<speed>5.25</speed>
				</extensions>
			</trkpt>
			<trkpt lat="53.25685302" lon="-8.92808483">
				<ele>66.0</ele>
				<time>2014-08-17T15:30:04Z</time>
				<extensions>
					<speed>5.75</speed>
				</extensions>
			</trkpt>
			<trkpt lat="53.25686264" lon="-8.92800026">
				<ele>66.0</ele>
				<time>2014-08-17T15:30:05Z</time>
				<extensions>
					<speed>6.5</speed>
				</extensions>
			</trkpt>
			<trkpt lat="53.25687294" lon="-8.92789417">
				<ele>66.0</ele>
				<time>2014-08-17T15:30:06Z</time>
				<extensions>
					<speed>7.0</speed>
				</extensions>
			</trkpt>
			<trkpt lat="53.25688115" lon="-8.92779392">
				<ele>65.0</ele>
				<time>2014-08-17T15:30:07Z</time>
				<extensions>
					<speed>6.75</speed>
				</extensions>
			</trkpt>
			<trkpt lat="53.25689203" lon="-8.92769547">
				<ele>65.0</ele>
				<time>2014-08-17T15:30:08Z</time>
				<extensions>
					<speed>6.75</speed>
				</extensions>
			</trkpt>
			<trkpt lat="53.25691078" lon="-8.92763599">
				<ele>64.0</ele>
				<time>2014-08-17T15:30:09Z</time>
				<extensions>
					<speed>5.0</speed>
				</extensions>
			</trkpt>
			<trkpt lat="53.2569295" lon="-8.92758204">
				<ele>64.0</ele>
				<time>2014-08-17T15:30:10Z</time>
				<extensions>
					<speed>4.25</speed>
				</extensions>
			</trkpt>
			<trkpt lat="53.25693266" lon="-8.92752589">
				<ele>65.0</ele>
				<time>2014-08-17T15:30:11Z</time>
				<extensions>
					<speed>3.0</speed>
				</extensions>
			</trkpt>
			<trkpt lat="53.25693723" lon="-8.92748043">
				<ele>65.0</ele>
				<time>2014-08-17T15:30:12Z</time>
				<extensions>
					<speed>3.0</speed>
				</extensions>
			</trkpt>
			<trkpt lat="53.25693475" lon="-8.92746143">
				<ele>65.0</ele>
				<time>2014-08-17T15:30:13Z</time>
				<extensions>
					<speed>1.25</speed>
				</extensions>
			</trkpt>
			<trkpt lat="53.25694022" lon="-8.927449">
				<ele>65.0</ele>
				<time>2014-08-17T15:30:14Z</time>
				<extensions>
					<speed>0.75</speed>
				</extensions>
			</trkpt>
			<trkpt lat="53.25694014" lon="-8.92745308">
				<ele>65.0</ele>
				<time>2014-08-17T15:30:15Z</time>
				<extensions>
					<speed>0.0</speed>
				</extensions>
			</trkpt>
			<trkpt lat="53.25693639" lon="-8.92745467">
				<ele>65.0</ele>
				<time>2014-08-17T15:30:16Z</time>
				<extensions>
					<speed>0.0</speed>
				</extensions>
			</trkpt>
			<trkpt lat="53.25693746" lon="-8.92745489">
				<ele>65.0</ele>
				<time>2014-08-17T15:30:17Z</time>
				<extensions>
					<speed>0.0</speed>
				</extensions>
			</trkpt>
			<trkpt lat="53.25693636" lon="-8.92745274">
				<ele>65.0</ele>
				<time>2014-08-17T15:30:18Z</time>
				<extensions>
					<speed>0.0</speed>
				</extensions>
			</trkpt>
			<trkpt lat="53.25693618" lon="-8.92745551">
				<ele>65.0</ele>
				<time>2014-08-17T15:30:19Z</time>
				<extensions>
					<speed>0.0</speed>
				</extensions>
			</trkpt>
			<trkpt lat="53.25693485" lon="-8.92745562">
				<ele>65.0</ele>
				<time>2014-08-17T15:30:20Z</time>
				<extensions>
					<speed>0.0</speed>
				</extensions>
			</trkpt>
			<trkpt lat="53.25693447" lon="-8.92745386">
				<ele>65.0</ele>
				<time>2014-08-17T15:30:21Z</time>
				<extensions>
					<speed>0.0</speed>
				</extensions>
			</trkpt>
			<trkpt lat="53.25693455" lon="-8.9274524">
				<ele>65.0</ele>
				<time>2014-08-17T15:30:22Z</time>
				<extensions>
					<speed>0.0</speed>
				</extensions>
			</trkpt>
			<trkpt lat="53.25693455" lon="-8.9274524">
				<ele>65.0</ele>
				<time>2014-08-17T15:30:23Z</time>
				<extensions>
					<speed>0.0</speed>
				</extensions>
			</trkpt>
			<trkpt lat="53.25693468" lon="-8.9274495">
				<ele>65.0</ele>
				<time>2014-08-17T15:30:24Z</time>
				<extensions>
					<speed>0.0</speed>
				</extensions>
			</trkpt>
			<trkpt lat="53.25693468" lon="-8.9274495">
				<ele>65.0</ele>
				<time>2014-08-17T15:30:25Z</time>
				<extensions>
					<speed>0.0</speed>
				</extensions>
			</trkpt>
			<trkpt lat="53.25693428" lon="-8.92744619">
				<ele>65.0</ele>
				<time>2014-08-17T15:30:26Z</time>
				<extensions>
					<speed>0.0</speed>
				</extensions>
			</trkpt>
			<trkpt lat="53.25693428" lon="-8.92744532">
				<ele>65.0</ele>
				<time>2014-08-17T15:30:27Z</time>
				<extensions>
					<speed>0.0</speed>
				</extensions>
			</trkpt>
			<trkpt lat="53.25693426" lon="-8.9274444">
				<ele>65.0</ele>
				<time>2014-08-17T15:30:28Z</time>
				<extensions>
					<speed>0.0</speed>
				</extensions>
			</trkpt>
			<trkpt lat="53.25693424" lon="-8.9274445">
				<ele>65.0</ele>
				<time>2014-08-17T15:30:29Z</time>
				<extensions>
					<speed>0.0</speed>
				</extensions>
			</trkpt>
			<trkpt lat="53.25693486" lon="-8.92744423">
				<ele>65.0</ele>
				<time>2014-08-17T15:30:30Z</time>
				<extensions>
					<speed>0.0</speed>
				</extensions>
			</trkpt>
			<trkpt lat="53.25693486" lon="-8.92744423">
				<ele>65.0</ele>
				<time>2014-08-17T15:30:31Z</time>
				<extensions>
					<speed>0.0</speed>
				</extensions>
			</trkpt>
			<trkpt lat="53.25693483" lon="-8.92744388">
				<ele>65.0</ele>
				<time>2014-08-17T15:30:32Z</time>
				<extensions>
					<speed>0.0</speed>
				</extensions>
			</trkpt>
			<trkpt lat="53.25693468" lon="-8.92744349">
				<ele>65.0</ele>
				<time>2014-08-17T15:30:33Z</time>
				<extensions>
					<speed>0.0</speed>
				</extensions>
			</trkpt>
			<trkpt lat="53.25693475" lon="-8.92744358">
				<ele>65.0</ele>
				<time>2014-08-17T15:30:34Z</time>
				<extensions>
					<speed>0.0</speed>
				</extensions>
			</trkpt>
			<trkpt lat="53.25693478" lon="-8.92744361">
				<ele>65.0</ele>
				<time>2014-08-17T15:30:35Z</time>
				<extensions>
					<speed>0.0</speed>
				</extensions>
			</trkpt>
			<trkpt lat="53.25693475" lon="-8.92744363">
				<ele>65.0</ele>
				<time>2014-08-17T15:30:36Z</time>
				<extensions>
					<speed>0.0</speed>
				</extensions>
			</trkpt>
			<trkpt lat="53.25693475" lon="-8.92744363">
				<ele>65.0</ele>
				<time>2014-08-17T15:30:37Z</time>
				<extensions>
					<speed>0.0</speed>
				</extensions>
			</trkpt>
			<trkpt lat="53.25693482" lon="-8.92744367">
				<ele>65.0</ele>
				<time>2014-08-17T15:30:38Z</time>
				<extensions>
					<speed>0.0</speed>
				</extensions>
			</trkpt>
			<trkpt lat="53.25693482" lon="-8.92744367">
				<ele>65.0</ele>
				<time>2014-08-17T15:30:39Z</time>
				<extensions>
					<speed>0.0</speed>
				</extensions>
			</trkpt>
			<trkpt lat="53.25693482" lon="-8.92744367">
				<ele>65.0</ele>
				<time>2014-08-17T15:30:40Z</time>
				<extensions>
					<speed>0.0</speed>
				</extensions>
			</trkpt>
			<trkpt lat="53.25693474" lon="-8.92744408">
				<ele>65.0</ele>
				<time>2014-08-17T15:30:41Z</time>
				<extensions>
					<speed>0.0</speed>
				</extensions>
			</trkpt>
			<trkpt lat="53.25693493" lon="-8.9274432">
				<ele>65.0</ele>
				<time>2014-08-17T15:30:42Z</time>
				<extensions>
					<speed>0.0</speed>
				</extensions>
			</trkpt>
			<trkpt lat="53.2569347" lon="-8.92744358">
				<ele>65.0</ele>
				<time>2014-08-17T15:30:43Z</time>
				<extensions>
					<speed>0.0</speed>
				</extensions>
			</trkpt>
			<trkpt lat="53.25693441" lon="-8.92744415">
				<ele>65.0</ele>
				<time>2014-08-17T15:30:44Z</time>
				<extensions>
					<speed>0.0</speed>
				</extensions>
			</trkpt>
			<trkpt lat="53.25693421" lon="-8.92744473">
				<ele>65.0</ele>
				<time>2014-08-17T15:30:45Z</time>
				<extensions>
					<speed>0.0</speed>
				</extensions>
			</trkpt>
			<trkpt lat="53.25693429" lon="-8.92744417">
				<ele>65.0</ele>
				<time>2014-08-17T15:30:46Z</time>
				<extensions>
					<speed>0.0</speed>
				</extensions>
			</trkpt>
			<trkpt lat="53.2569343" lon="-8.92744417">
				<ele>65.0</ele>
				<time>2014-08-17T15:30:47Z</time>
				<extensions>
					<speed>0.0</speed>
				</extensions>
			</trkpt>
			<trkpt lat="53.25693434" lon="-8.92744416">
				<ele>65.0</ele>
				<time>2014-08-17T15:30:48Z</time>
				<extensions>
					<speed>0.0</speed>
				</extensions>
			</trkpt>
			<trkpt lat="53.25693403" lon="-8.92744383">
				<ele>65.0</ele>
				<time>2014-08-17T15:30:49Z</time>
				<extensions>
					<speed>0.0</speed>
				</extensions>
			</trkpt>
			<trkpt lat="53.25693342" lon="-8.92744356">
				<ele>65.0</ele>
				<time>2014-08-17T15:30:50Z</time>
				<extensions>
					<speed>0.0</speed>
				</extensions>
			</trkpt>
			<trkpt lat="53.25693363" lon="-8.92744325">
				<ele>65.0</ele>
				<time>2014-08-17T15:30:51Z</time>
				<extensions>
					<speed>0.0</speed>
				</extensions>
			</trkpt>
			<trkpt lat="53.25693297" lon="-8.92744285">
				<ele>65.0</ele>
				<time>2014-08-17T15:30:52Z</time>
				<extensions>
					<speed>0.0</speed>
				</extensions>
			</trkpt>
			<trkpt lat="53.25693339" lon="-8.92744281">
				<ele>65.0</ele>
				<time>2014-08-17T15:30:53Z</time>
				<extensions>
					<speed>0.0</speed>
				</extensions>
			</trkpt>
			<trkpt lat="53.25693482" lon="-8.92744166">
				<ele>66.0</ele>
				<time>2014-08-17T15:30:54Z</time>
				<extensions>
					<speed>0.0</speed>
				</extensions>
			</trkpt>
			<trkpt lat="53.25693307" lon="-8.92743998">
				<ele>66.0</ele>
				<time>2014-08-17T15:30:55Z</time>
				<extensions>
					<speed>0.0</speed>
				</extensions>
			</trkpt>
			<trkpt lat="53.2569332" lon="-8.92744065">
				<ele>66.0</ele>
				<time>2014-08-17T15:30:56Z</time>
				<extensions>
					<speed>0.0</speed>
				</extensions>
			</trkpt>
			<trkpt lat="53.256934" lon="-8.92743889">
				<ele>66.0</ele>
				<time>2014-08-17T15:30:57Z</time>
				<extensions>
					<speed>0.0</speed>
				</extensions>
			</trkpt>
			<trkpt lat="53.25693329" lon="-8.92743904">
				<ele>66.0</ele>
				<time>2014-08-17T15:30:58Z</time>
				<extensions>
					<speed>0.0</speed>
				</extensions>
			</trkpt>
			<trkpt lat="53.25693269" lon="-8.92743809">
				<ele>66.0</ele>
				<time>2014-08-17T15:30:59Z</time>
				<extensions>
					<speed>0.0</speed>
				</extensions>
			</trkpt>
			<trkpt lat="53.25693211" lon="-8.92743705">
				<ele>66.0</ele>
				<time>2014-08-17T15:31:00Z</time>
				<extensions>
					<speed>0.0</speed>
				</extensions>
			</trkpt>
			<trkpt lat="53.25693216" lon="-8.92743734">
				<ele>66.0</ele>
				<time>2014-08-17T15:31:01Z</time>
				<extensions>
					<speed>0.0</speed>
				</extensions>
			</trkpt>
			<trkpt lat="53.25693261" lon="-8.92743091">
				<ele>66.0</ele>
				<time>2014-08-17T15:31:02Z</time>
				<extensions>
					<speed>0.75</speed>
				</extensions>
			</trkpt>
			<trkpt lat="53.25692853" lon="-8.92739891">
				<ele>66.0</ele>
				<time>2014-08-17T15:31:03Z</time>
				<extensions>
					<speed>2.25</speed>
				</extensions>
			</trkpt>
			<trkpt lat="53.25693319" lon="-8.92733877">
				<ele>67.0</ele>
				<time>2014-08-17T15:31:04Z</time>
				<extensions>
					<speed>3.75</speed>
				</extensions>
			</trkpt>
			<trkpt lat="53.25694155" lon="-8.9272664">
				<ele>67.0</ele>
				<time>2014-08-17T15:31:05Z</time>
				<extensions>
					<speed>4.5</speed>
				</extensions>
			</trkpt>
			<trkpt lat="53.25694724" lon="-8.92719587">
				<ele>67.0</ele>
				<time>2014-08-17T15:31:06Z</time>
				<extensions>
					<speed>4.75</speed>
				</extensions>
			</trkpt>
			<trkpt lat="53.25695507" lon="-8.92712239">
				<ele>68.0</ele>
				<time>2014-08-17T15:31:07Z</time>
				<extensions>
					<speed>4.75</speed>
				</extensions>
			</trkpt>
			<trkpt lat="53.25696524" lon="-8.927038">
				<ele>68.0</ele>
				<time>2014-08-17T15:31:08Z</time>
				<extensions>
					<speed>5.5</speed>
				</extensions>
			</trkpt>
			<trkpt lat="53.25697852" lon="-8.92695912">
				<ele>69.0</ele>
				<time>2014-08-17T15:31:09Z</time>
				<extensions>
					<speed>5.5</speed>
				</extensions>
			</trkpt>
			<trkpt lat="53.25699071" lon="-8.92687856">
				<ele>69.0</ele>
				<time>2014-08-17T15:31:10Z</time>
				<extensions>
					<speed>5.5</speed>
				</extensions>
			</trkpt>
			<trkpt lat="53.25700294" lon="-8.92679593">
				<ele>69.0</ele>
				<time>2014-08-17T15:31:11Z</time>
				<extensions>
					<speed>5.5</speed>
				</extensions>
			</trkpt>
			<trkpt lat="53.25701458" lon="-8.92672514">
				<ele>69.0</ele>
				<time>2014-08-17T15:31:12Z</time>
				<extensions>
					<speed>4.75</speed>
				</extensions>
			</trkpt>
			<trkpt lat="53.25702395" lon="-8.92666352">
				<ele>69.0</ele>
				<time>2014-08-17T15:31:13Z</time>
				<extensions>
					<speed>4.25</speed>
				</extensions>
			</trkpt>
			<trkpt lat="53.25703864" lon="-8.92659886">
				<ele>69.0</ele>
				<time>2014-08-17T15:31:14Z</time>
				<extensions>
					<speed>4.25</speed>
				</extensions>
			</trkpt>
			<trkpt lat="53.25704399" lon="-8.92656103">
				<ele>70.0</ele>
				<time>2014-08-17T15:31:15Z</time>
				<extensions>
					<speed>3.25</speed>
				</extensions>
			</trkpt>
			<trkpt lat="53.25704111" lon="-8.92654433">
				<ele>69.0</ele>
				<time>2014-08-17T15:31:16Z</time>
				<extensions>
					<speed>2.0</speed>
				</extensions>
			</trkpt>
			<trkpt lat="53.25704779" lon="-8.92654743">
				<ele>69.0</ele>
				<time>2014-08-17T15:31:17Z</time>
				<extensions>
					<speed>1.25</speed>
				</extensions>
			</trkpt>
			<trkpt lat="53.25703707" lon="-8.9265563">
				<ele>69.0</ele>
				<time>2014-08-17T15:31:18Z</time>
				<extensions>
					<speed>0.25</speed>
				</extensions>
			</trkpt>
			<trkpt lat="53.25704579" lon="-8.92654703">
				<ele>69.0</ele>
				<time>2014-08-17T15:31:19Z</time>
				<extensions>
					<speed>0.0</speed>
				</extensions>
			</trkpt>
			<trkpt lat="53.2570548" lon="-8.92654871">
				<ele>70.0</ele>
				<time>2014-08-17T15:31:20Z</time>
				<extensions>
					<speed>0.0</speed>
				</extensions>
			</trkpt>
			<trkpt lat="53.25706022" lon="-8.92651003">
				<ele>70.0</ele>
				<time>2014-08-17T15:31:21Z</time>
				<extensions>
					<speed>1.75</speed>
				</extensions>
			</trkpt>
			<trkpt lat="53.25706659" lon="-8.9264697">
				<ele>70.0</ele>
				<time>2014-08-17T15:31:22Z</time>
				<extensions>
					<speed>2.75</speed>
				</extensions>
			</trkpt>
			<trkpt lat="53.2570747" lon="-8.92641229">
				<ele>70.0</ele>
				<time>2014-08-17T15:31:23Z</time>
				<extensions>
					<speed>4.0</speed>
				</extensions>
			</trkpt>
			<trkpt lat="53.25708066" lon="-8.92635242">
				<ele>71.0</ele>
				<time>2014-08-17T15:31:24Z</time>
				<extensions>
					<speed>4.75</speed>
				</extensions>
			</trkpt>
			<trkpt lat="53.25709737" lon="-8.92630675">
				<ele>69.0</ele>
				<time>2014-08-17T15:31:25Z</time>
				<extensions>
					<speed>4.5</speed>
				</extensions>
			</trkpt>
			<trkpt lat="53.25711018" lon="-8.92624064">
				<ele>69.0</ele>
				<time>2014-08-17T15:31:26Z</time>
				<extensions>
					<speed>4.75</speed>
				</extensions>
			</trkpt>
			<trkpt lat="53.2571214" lon="-8.92617302">
				<ele>69.0</ele>
				<time>2014-08-17T15:31:27Z</time>
				<extensions>
					<speed>4.75</speed>
				</extensions>
			</trkpt>
			<trkpt lat="53.25713412" lon="-8.92607056">
				<ele>70.0</ele>
				<time>2014-08-17T15:31:28Z</time>
				<extensions>
					<speed>6.5</speed>
				</extensions>
			</trkpt>
			<trkpt lat="53.25715086" lon="-8.92597918">
				<ele>70.0</ele>
				<time>2014-08-17T15:31:29Z</time>
				<extensions>
					<speed>6.5</speed>
				</extensions>
			</trkpt>
			<trkpt lat="53.25717118" lon="-8.925869">
				<ele>69.0</ele>
				<time>2014-08-17T15:31:30Z</time>
				<extensions>
					<speed>6.75</speed>
				</extensions>
			</trkpt>
			<trkpt lat="53.2571907" lon="-8.92576775">
				<ele>69.0</ele>
				<time>2014-08-17T15:31:31Z</time>
				<extensions>
					<speed>6.5</speed>
				</extensions>
			</trkpt>
			<trkpt lat="53.25721149" lon="-8.92567695">
				<ele>69.0</ele>
				<time>2014-08-17T15:31:32Z</time>
				<extensions>
					<speed>6.5</speed>
				</extensions>
			</trkpt>
			<trkpt lat="53.25722637" lon="-8.92559937">
				<ele>71.0</ele>
				<time>2014-08-17T15:31:33Z</time>
				<extensions>
					<speed>5.75</speed>
				</extensions>
			</trkpt>
			<trkpt lat="53.25724924" lon="-8.92553042">
				<ele>73.0</ele>
				<time>2014-08-17T15:31:34Z</time>
				<extensions>
					<speed>4.75</speed>
				</extensions>
			</trkpt>
			<trkpt lat="53.25726744" lon="-8.92548439">
				<ele>72.0</ele>
				<time>2014-08-17T15:31:35Z</time>
				<extensions>
					<speed>3.75</speed>
				</extensions>
			</trkpt>
			<trkpt lat="53.25728566" lon="-8.92544005">
				<ele>72.0</ele>
				<time>2014-08-17T15:31:36Z</time>
				<extensions>
					<speed>3.0</speed>
				</extensions>
			</trkpt>
			<trkpt lat="53.25729264" lon="-8.92541663">
				<ele>71.0</ele>
				<time>2014-08-17T15:31:37Z</time>
				<extensions>
					<speed>1.5</speed>
				</extensions>
			</trkpt>
			<trkpt lat="53.25730143" lon="-8.92541649">
				<ele>71.0</ele>
				<time>2014-08-17T15:31:38Z</time>
				<extensions>
					<speed>0.75</speed>
				</extensions>
			</trkpt>
			<trkpt lat="53.2573069" lon="-8.92540794">
				<ele>71.0</ele>
				<time>2014-08-17T15:31:39Z</time>
				<extensions>
					<speed>0.0</speed>
				</extensions>
			</trkpt>
			<trkpt lat="53.25730832" lon="-8.92540578">
				<ele>71.0</ele>
				<time>2014-08-17T15:31:40Z</time>
				<extensions>
					<speed>0.0</speed>
				</extensions>
			</trkpt>
			<trkpt lat="53.25730832" lon="-8.92540578">
				<ele>71.0</ele>
				<time>2014-08-17T15:31:41Z</time>
				<extensions>
					<speed>0.0</speed>
				</extensions>
			</trkpt>
			<trkpt lat="53.2573059" lon="-8.92540316">
				<ele>71.0</ele>
				<time>2014-08-17T15:31:42Z</time>
				<extensions>
					<speed>0.0</speed>
				</extensions>
			</trkpt>
			<trkpt lat="53.25730535" lon="-8.92540261">
				<ele>71.0</ele>
				<time>2014-08-17T15:31:43Z</time>
				<extensions>
					<speed>0.0</speed>
				</extensions>
			</trkpt>
			<trkpt lat="53.25730535" lon="-8.92540261">
				<ele>71.0</ele>
				<time>2014-08-17T15:31:44Z</time>
				<extensions>
					<speed>0.0</speed>
				</extensions>
			</trkpt>
			<trkpt lat="53.25730358" lon="-8.92541012">
				<ele>70.0</ele>
				<time>2014-08-17T15:31:45Z</time>
				<extensions>
					<speed>0.0</speed>
				</extensions>
			</trkpt>
			<trkpt lat="53.25730347" lon="-8.92541128">
				<ele>70.0</ele>
				<time>2014-08-17T15:31:46Z</time>
				<extensions>
					<speed>0.0</speed>
				</extensions>
			</trkpt>
			<trkpt lat="53.2573003" lon="-8.92541275">
				<ele>70.0</ele>
				<time>2014-08-17T15:31:47Z</time>
				<extensions>
					<speed>0.0</speed>
				</extensions>
			</trkpt>
			<trkpt lat="53.25729986" lon="-8.92541072">
				<ele>70.0</ele>
				<time>2014-08-17T15:31:48Z</time>
				<extensions>
					<speed>0.0</speed>
				</extensions>
			</trkpt>
			<trkpt lat="53.25730002" lon="-8.92541057">
				<ele>70.0</ele>
				<time>2014-08-17T15:31:49Z</time>
				<extensions>
					<speed>0.0</speed>
				</extensions>
			</trkpt>
			<trkpt lat="53.25730159" lon="-8.9254124">
				<ele>70.0</ele>
				<time>2014-08-17T15:31:50Z</time>
				<extensions>
					<speed>0.0</speed>
				</extensions>
			</trkpt>
			<trkpt lat="53.25730193" lon="-8.92541128">
				<ele>71.0</ele>
				<time>2014-08-17T15:31:51Z</time>
				<extensions>
					<speed>0.0</speed>
				</extensions>
			</trkpt>
			<trkpt lat="53.25730198" lon="-8.92541106">
				<ele>71.0</ele>
				<time>2014-08-17T15:31:52Z</time>
				<extensions>
					<speed>0.0</speed>
				</extensions>
			</trkpt>
			<trkpt lat="53.25730414" lon="-8.92540363">
				<ele>71.0</ele>
				<time>2014-08-17T15:31:53Z</time>
				<extensions>
					<speed>1.0</speed>
				</extensions>
			</trkpt>
			<trkpt lat="53.25731362" lon="-8.92536419">
				<ele>71.0</ele>
				<time>2014-08-17T15:31:54Z</time>
				<extensions>
					<speed>2.25</speed>
				</extensions>
			</trkpt>
			<trkpt lat="53.25733134" lon="-8.92529683">
				<ele>72.0</ele>
				<time>2014-08-17T15:31:55Z</time>
				<extensions>
					<speed>3.75</speed>
				</extensions>
			</trkpt>
			<trkpt lat="53.25734826" lon="-8.9252407">
				<ele>71.0</ele>
				<time>2014-08-17T15:31:56Z</time>
				<extensions>
					<speed>4.5</speed>
				</extensions>
			</trkpt>
			<trkpt lat="53.2573675" lon="-8.92517329">
				<ele>71.0</ele>
				<time>2014-08-17T15:31:57Z</time>
				<extensions>
					<speed>4.75</speed>
				</extensions>
			</trkpt>
			<trkpt lat="53.25739235" lon="-8.92509176">
				<ele>71.0</ele>
				<time>2014-08-17T15:31:58Z</time>
				<extensions>
					<speed>5.75</speed>
				</extensions>
			</trkpt>
			<trkpt lat="53.25742364" lon="-8.92499145">
				<ele>72.0</ele>
				<time>2014-08-17T15:31:59Z</time>
				<extensions>
					<speed>7.25</speed>
				</extensions>
			</trkpt>
			<trkpt lat="53.25746667" lon="-8.92491581">
				<ele>71.0</ele>
				<time>2014-08-17T15:32:00Z</time>
				<extensions>
					<speed>7.5</speed>
				</extensions>
			</trkpt>
			<trkpt lat="53.25750676" lon="-8.92482684">
				<ele>71.0</ele>
				<time>2014-08-17T15:32:01Z</time>
				<extensions>
					<speed>7.5</speed>
				</extensions>
			</trkpt>
			<trkpt lat="53.25754606" lon="-8.92473665">
				<ele>71.0</ele>
				<time>2014-08-17T15:32:02Z</time>
				<extensions>
					<speed>7.5</speed>
				</extensions>
			</trkpt>
			<trkpt lat="53.2575863" lon="-8.92464613">
				<ele>73.0</ele>
				<time>2014-08-17T15:32:03Z</time>
				<extensions>
					<speed>6.75</speed>
				</extensions>
			</trkpt>
			<trkpt lat="53.25762489" lon="-8.92457172">
				<ele>72.0</ele>
				<time>2014-08-17T15:32:04Z</time>
				<extensions>
					<speed>5.75</speed>
				</extensions>
			</trkpt>
			<trkpt lat="53.25765196" lon="-8.9245185">
				<ele>72.0</ele>
				<time>2014-08-17T15:32:05Z</time>
				<extensions>
					<speed>4.25</speed>
				</extensions>
			</trkpt>
			<trkpt lat="53.2576751" lon="-8.92446615">
				<ele>73.0</ele>
				<time>2014-08-17T15:32:06Z</time>
				<extensions>
					<speed>4.25</speed>
				</extensions>
			</trkpt>
			<trkpt lat="53.25769032" lon="-8.92444649">
				<ele>76.0</ele>
				<time>2014-08-17T15:32:07Z</time>
				<extensions>
					<speed>2.5</speed>
				</extensions>
			</trkpt>
			<trkpt lat="53.25770301" lon="-8.92442522">
				<ele>77.0</ele>
				<time>2014-08-17T15:32:08Z</time>
				<extensions>
					<speed>2.0</speed>
				</extensions>
			</trkpt>
			<trkpt lat="53.25771411" lon="-8.92441739">
				<ele>76.0</ele>
				<time>2014-08-17T15:32:09Z</time>
				<extensions>
					<speed>1.0</speed>
				</extensions>
			</trkpt>
			<trkpt lat="53.257715" lon="-8.9243961">
				<ele>77.0</ele>
				<time>2014-08-17T15:32:10Z</time>
				<extensions>
					<speed>0.75</speed>
				</extensions>
			</trkpt>
			<trkpt lat="53.25771731" lon="-8.92438285">
				<ele>77.0</ele>
				<time>2014-08-17T15:32:11Z</time>
				<extensions>
					<speed>0.5</speed>
				</extensions>
			</trkpt>
			<trkpt lat="53.25772234" lon="-8.9244047">
				<ele>77.0</ele>
				<time>2014-08-17T15:32:12Z</time>
				<extensions>
					<speed>0.25</speed>
				</extensions>
			</trkpt>
			<trkpt lat="53.25772265" lon="-8.92440017">
				<ele>77.0</ele>
				<time>2014-08-17T15:32:13Z</time>
				<extensions>
					<speed>0.0</speed>
				</extensions>
			</trkpt>
			<trkpt lat="53.25772577" lon="-8.92440817">
				<ele>78.0</ele>
				<time>2014-08-17T15:32:14Z</time>
				<extensions>
					<speed>0.0</speed>
				</extensions>
			</trkpt>
			<trkpt lat="53.25772465" lon="-8.92440736">
				<ele>78.0</ele>
				<time>2014-08-17T15:32:15Z</time>
				<extensions>
					<speed>0.0</speed>
				</extensions>
			</trkpt>
			<trkpt lat="53.25772065" lon="-8.92440121">
				<ele>78.0</ele>
				<time>2014-08-17T15:32:16Z</time>
				<extensions>
					<speed>0.0</speed>
				</extensions>
			</trkpt>
			<trkpt lat="53.25771838" lon="-8.92440425">
				<ele>78.0</ele>
				<time>2014-08-17T15:32:17Z</time>
				<extensions>
					<speed>0.0</speed>
				</extensions>
			</trkpt>
			<trkpt lat="53.25771783" lon="-8.92441208">
				<ele>79.0</ele>
				<time>2014-08-17T15:32:18Z</time>
				<extensions>
					<speed>0.0</speed>
				</extensions>
			</trkpt>
			<trkpt lat="53.25771605" lon="-8.92441511">
				<ele>78.0</ele>
				<time>2014-08-17T15:32:19Z</time>
				<extensions>
					<speed>0.0</speed>
				</extensions>
			</trkpt>
			<trkpt lat="53.25771648" lon="-8.92441728">
				<ele>79.0</ele>
				<time>2014-08-17T15:32:20Z</time>
				<extensions>
					<speed>0.0</speed>
				</extensions>
			</trkpt>
			<trkpt lat="53.2577144" lon="-8.924416">
				<ele>78.0</ele>
				<time>2014-08-17T15:32:21Z</time>
				<extensions>
					<speed>0.0</speed>
				</extensions>
			</trkpt>
			<trkpt lat="53.25771467" lon="-8.92441767">
				<ele>79.0</ele>
				<time>2014-08-17T15:32:22Z</time>
				<extensions>
					<speed>0.0</speed>
				</extensions>
			</trkpt>
			<trkpt lat="53.25771335" lon="-8.92441994">
				<ele>78.0</ele>
				<time>2014-08-17T15:32:23Z</time>
				<extensions>
					<speed>0.0</speed>
				</extensions>
			</trkpt>
			<trkpt lat="53.25771335" lon="-8.92441994">
				<ele>78.0</ele>
				<time>2014-08-17T15:32:24Z</time>
				<extensions>
					<speed>0.0</speed>
				</extensions>
			</trkpt>
			<trkpt lat="53.25771338" lon="-8.92442059">
				<ele>78.0</ele>
				<time>2014-08-17T15:32:25Z</time>
				<extensions>
					<speed>0.0</speed>
				</extensions>
			</trkpt>
			<trkpt lat="53.25771325" lon="-8.92442098">
				<ele>78.0</ele>
				<time>2014-08-17T15:32:26Z</time>
				<extensions>
					<speed>0.0</speed>
				</extensions>
			</trkpt>
			<trkpt lat="53.25771324" lon="-8.924421">
				<ele>78.0</ele>
				<time>2014-08-17T15:32:27Z</time>
				<extensions>
					<speed>0.0</speed>
				</extensions>
			</trkpt>
			<trkpt lat="53.25771325" lon="-8.92442092">
				<ele>78.0</ele>
				<time>2014-08-17T15:32:28Z</time>
				<extensions>
					<speed>0.0</speed>
				</extensions>
			</trkpt>
			<trkpt lat="53.25771325" lon="-8.92442092">
				<ele>78.0</ele>
				<time>2014-08-17T15:32:29Z</time>
				<extensions>
					<speed>0.0</speed>
				</extensions>
			</trkpt>
			<trkpt lat="53.25771326" lon="-8.92442093">
				<ele>78.0</ele>
				<time>2014-08-17T15:32:30Z</time>
				<extensions>
					<speed>0.0</speed>
				</extensions>
			</trkpt>
			<trkpt lat="53.25771324" lon="-8.92442094">
				<ele>78.0</ele>
				<time>2014-08-17T15:32:31Z</time>
				<extensions>
					<speed>0.0</speed>
				</extensions>
			</trkpt>
			<trkpt lat="53.25771407" lon="-8.92442148">
				<ele>78.0</ele>
				<time>2014-08-17T15:32:32Z</time>
				<extensions>
					<speed>0.0</speed>
				</extensions>
			</trkpt>
			<trkpt lat="53.25771427" lon="-8.92442047">
				<ele>78.0</ele>
				<time>2014-08-17T15:32:33Z</time>
				<extensions>
					<speed>0.0</speed>
				</extensions>
			</trkpt>
			<trkpt lat="53.25771557" lon="-8.92441824">
				<ele>78.0</ele>
				<time>2014-08-17T15:32:34Z</time>
				<extensions>
					<speed>1.5</speed>
				</extensions>
			</trkpt>
			<trkpt lat="53.25772891" lon="-8.92438695">
				<ele>79.0</ele>
				<time>2014-08-17T15:32:35Z</time>
				<extensions>
					<speed>2.25</speed>
				</extensions>
			</trkpt>
			<trkpt lat="53.25773228" lon="-8.92434297">
				<ele>78.0</ele>
				<time>2014-08-17T15:32:36Z</time>
				<extensions>
					<speed>3.25</speed>
				</extensions>
			</trkpt>
			<trkpt lat="53.2577318" lon="-8.92429387">
				<ele>78.0</ele>
				<time>2014-08-17T15:32:37Z</time>
				<extensions>
					<speed>3.25</speed>
				</extensions>
			</trkpt>
			<trkpt lat="53.25773131" lon="-8.92424478">
				<ele>78.0</ele>
				<time>2014-08-17T15:32:38Z</time>
				<extensions>
					<speed>3.25</speed>
				</extensions>
			</trkpt>
			<trkpt lat="53.25769323" lon="-8.92433644">
				<ele>75.0</ele>
				<time>2014-08-17T15:32:39Z</time>
				<extensions>
					<speed>2.75</speed>
				</extensions>
			</trkpt>
			<trkpt lat="53.25768161" lon="-8.92436267">
				<ele>75.0</ele>
				<time>2014-08-17T15:32:40Z</time>
				<extensions>
					<speed>2.0</speed>
				</extensions>
			</trkpt>
			<trkpt lat="53.25767056" lon="-8.92439869">
				<ele>75.0</ele>
				<time>2014-08-17T15:32:41Z</time>
				<extensions>
					<speed>2.75</speed>
				</extensions>
			</trkpt>
			<trkpt lat="53.25766137" lon="-8.92443996">
				<ele>74.0</ele>
				<time>2014-08-17T15:32:42Z</time>
				<extensions>
					<speed>4.25</speed>
				</extensions>
			</trkpt>
			<trkpt lat="53.25764151" lon="-8.92450391">
				<ele>74.0</ele>
				<time>2014-08-17T15:32:43Z</time>
				<extensions>
					<speed>4.75</speed>
				</extensions>
			</trkpt>
			<trkpt lat="53.2576107" lon="-8.92457935">
				<ele>73.0</ele>
				<time>2014-08-17T15:32:44Z</time>
				<extensions>
					<speed>5.75</speed>
				</extensions>
			</trkpt>
			<trkpt lat="53.25756937" lon="-8.92466079">
				<ele>72.0</ele>
				<time>2014-08-17T15:32:45Z</time>
				<extensions>
					<speed>7.5</speed>
				</extensions>
			</trkpt>
			<trkpt lat="53.25752831" lon="-8.92475908">
				<ele>72.0</ele>
				<time>2014-08-17T15:32:46Z</time>
				<extensions>
					<speed>8.75</speed>
				</extensions>
			</trkpt>
			<trkpt lat="53.25746837" lon="-8.92486705">
				<ele>72.0</ele>
				<time>2014-08-17T15:32:47Z</time>
				<extensions>
					<speed>9.5</speed>
				</extensions>
			</trkpt>
			<trkpt lat="53.25741581" lon="-8.92499368">
				<ele>71.0</ele>
				<time>2014-08-17T15:32:48Z</time>
				<extensions>
					<speed>10.5</speed>
				</extensions>
			</trkpt>
			<trkpt lat="53.25736382" lon="-8.92513955">
				<ele>71.0</ele>
				<time>2014-08-17T15:32:49Z</time>
				<extensions>
					<speed>11.25</speed>
				</extensions>
			</trkpt>
			<trkpt lat="53.25731114" lon="-8.92529306">
				<ele>70.0</ele>
				<time>2014-08-17T15:32:50Z</time>
				<extensions>
					<speed>11.25</speed>
				</extensions>
			</trkpt>
			<trkpt lat="53.25726556" lon="-8.92543899">
				<ele>70.0</ele>
				<time>2014-08-17T15:32:51Z</time>
				<extensions>
					<speed>11.0</speed>
				</extensions>
			</trkpt>
			<trkpt lat="53.25721907" lon="-8.92558238">
				<ele>70.0</ele>
				<time>2014-08-17T15:32:52Z</time>
				<extensions>
					<speed>10.75</speed>
				</extensions>
			</trkpt>
			<trkpt lat="53.25717866" lon="-8.92573198">
				<ele>70.0</ele>
				<time>2014-08-17T15:32:53Z</time>
				<extensions>
					<speed>10.25</speed>
				</extensions>
			</trkpt>
			<trkpt lat="53.25713664" lon="-8.92588015">
				<ele>70.0</ele>
				<time>2014-08-17T15:32:54Z</time>
				<extensions>
					<speed>10.0</speed>
				</extensions>
			</trkpt>
			<trkpt lat="53.25711666" lon="-8.92600524">
				<ele>70.0</ele>
				<time>2014-08-17T15:32:55Z</time>
				<extensions>
					<speed>9.5</speed>
				</extensions>
			</trkpt>
			<trkpt lat="53.25709214" lon="-8.92612627">
				<ele>70.0</ele>
				<time>2014-08-17T15:32:56Z</time>
				<extensions>
					<speed>8.5</speed>
				</extensions>
			</trkpt>
			<trkpt lat="53.25706033" lon="-8.92622941">
				<ele>69.0</ele>
				<time>2014-08-17T15:32:57Z</time>
				<extensions>
					<speed>7.0</speed>
				</extensions>
			</trkpt>
			<trkpt lat="53.25704182" lon="-8.92632744">
				<ele>69.0</ele>
				<time>2014-08-17T15:32:58Z</time>
				<extensions>
					<speed>6.5</speed>
				</extensions>
			</trkpt>
			<trkpt lat="53.25702962" lon="-8.92642601">
				<ele>68.0</ele>
				<time>2014-08-17T15:32:59Z</time>
				<extensions>
					<speed>6.5</speed>
				</extensions>
			</trkpt>
			<trkpt lat="53.25701336" lon="-8.9265272">
				<ele>67.0</ele>
				<time>2014-08-17T15:33:00Z</time>
				<extensions>
					<speed>7.25</speed>
				</extensions>
			</trkpt>
			<trkpt lat="53.25699503" lon="-8.92664428">
				<ele>67.0</ele>
				<time>2014-08-17T15:33:01Z</time>
				<extensions>
					<speed>7.75</speed>
				</extensions>
			</trkpt>
			<trkpt lat="53.25697511" lon="-8.92676662">
				<ele>68.0</ele>
				<time>2014-08-17T15:33:02Z</time>
				<extensions>
					<speed>8.5</speed>
				</extensions>
			</trkpt>
			<trkpt lat="53.25696012" lon="-8.92689214">
				<ele>68.0</ele>
				<time>2014-08-17T15:33:03Z</time>
				<extensions>
					<speed>9.0</speed>
				</extensions>
			</trkpt>
			<trkpt lat="53.25693601" lon="-8.92703694">
				<ele>68.0</ele>
				<time>2014-08-17T15:33:04Z</time>
				<extensions>
					<speed>9.75</speed>
				</extensions>
			</trkpt>
			<trkpt lat="53.25691589" lon="-8.9271723">
				<ele>68.0</ele>
				<time>2014-08-17T15:33:05Z</time>
				<extensions>
					<speed>9.25</speed>
				</extensions>
			</trkpt>
			<trkpt lat="53.25690207" lon="-8.92730182">
				<ele>67.0</ele>
				<time>2014-08-17T15:33:06Z</time>
				<extensions>
					<speed>9.0</speed>
				</extensions>
			</trkpt>
			<trkpt lat="53.2568849" lon="-8.92742969">
				<ele>67.0</ele>
				<time>2014-08-17T15:33:07Z</time>
				<extensions>
					<speed>8.5</speed>
				</extensions>
			</trkpt>
			<trkpt lat="53.25687292" lon="-8.92754743">
				<ele>67.0</ele>
				<time>2014-08-17T15:33:08Z</time>
				<extensions>
					<speed>8.0</speed>
				</extensions>
			</trkpt>
			<trkpt lat="53.2568628" lon="-8.92766032">
				<ele>66.0</ele>
				<time>2014-08-17T15:33:09Z</time>
				<extensions>
					<speed>7.5</speed>
				</extensions>
			</trkpt>
			<trkpt lat="53.25685129" lon="-8.92776808">
				<ele>65.0</ele>
				<time>2014-08-17T15:33:10Z</time>
				<extensions>
					<speed>7.5</speed>
				</extensions>
			</trkpt>
			<trkpt lat="53.25684224" lon="-8.9278798">
				<ele>65.0</ele>
				<time>2014-08-17T15:33:11Z</time>
				<extensions>
					<speed>7.25</speed>
				</extensions>
			</trkpt>
			<trkpt lat="53.25683609" lon="-8.92797757">
				<ele>65.0</ele>
				<time>2014-08-17T15:33:12Z</time>
				<extensions>
					<speed>7.0</speed>
				</extensions>
			</trkpt>
			<trkpt lat="53.25682967" lon="-8.92807733">
				<ele>66.0</ele>
				<time>2014-08-17T15:33:13Z</time>
				<extensions>
					<speed>6.75</speed>
				</extensions>
			</trkpt>
			<trkpt lat="53.25681821" lon="-8.92818426">
				<ele>66.0</ele>
				<time>2014-08-17T15:33:14Z</time>
				<extensions>
					<speed>6.5</speed>
				</extensions>
			</trkpt>
			<trkpt lat="53.2568164" lon="-8.92827117">
				<ele>65.0</ele>
				<time>2014-08-17T15:33:15Z</time>
				<extensions>
					<speed>6.25</speed>
				</extensions>
			</trkpt>
			<trkpt lat="53.25683526" lon="-8.9283499">
				<ele>65.0</ele>
				<time>2014-08-17T15:33:16Z</time>
				<extensions>
					<speed>6.0</speed>
				</extensions>
			</trkpt>
			<trkpt lat="53.25687071" lon="-8.92841629">
				<ele>65.0</ele>
				<time>2014-08-17T15:33:17Z</time>
				<extensions>
					<speed>6.0</speed>
				</extensions>
			</trkpt>
			<trkpt lat="53.25691664" lon="-8.92846005">
				<ele>65.0</ele>
				<time>2014-08-17T15:33:18Z</time>
				<extensions>
					<speed>6.0</speed>
				</extensions>
			</trkpt>
			<trkpt lat="53.2569744" lon="-8.92847616">
				<ele>64.0</ele>
				<time>2014-08-17T15:33:19Z</time>
				<extensions>
					<speed>6.25</speed>
				</extensions>
			</trkpt>
			<trkpt lat="53.25703232" lon="-8.92849965">
				<ele>64.0</ele>
				<time>2014-08-17T15:33:20Z</time>
				<extensions>
					<speed>6.5</speed>
				</extensions>
			</trkpt>
			<trkpt lat="53.25709587" lon="-8.92850698">
				<ele>64.0</ele>
				<time>2014-08-17T15:33:21Z</time>
				<extensions>
					<speed>6.75</speed>
				</extensions>
			</trkpt>
			<trkpt lat="53.25715848" lon="-8.92851227">
				<ele>63.0</ele>
				<time>2014-08-17T15:33:22Z</time>
				<extensions>
					<speed>7.0</speed>
				</extensions>
			</trkpt>
			<trkpt lat="53.2572231" lon="-8.9285309">
				<ele>64.0</ele>
				<time>2014-08-17T15:33:23Z</time>
				<extensions>
					<speed>7.25</speed>
				</extensions>
			</trkpt>
			<trkpt lat="53.25728396" lon="-8.92854592">
				<ele>64.0</ele>
				<time>2014-08-17T15:33:24Z</time>
				<extensions>
					<speed>7.5</speed>
				</extensions>
			</trkpt>
			<trkpt lat="53.25734915" lon="-8.92856579">
				<ele>63.0</ele>
				<time>2014-08-17T15:33:25Z</time>
				<extensions>
					<speed>7.5</speed>
				</extensions>
			</trkpt>
			<trkpt lat="53.2574123" lon="-8.92859827">
				<ele>62.0</ele>
				<time>2014-08-17T15:33:26Z</time>
				<extensions>
					<speed>7.75</speed>
				</extensions>
			</trkpt>
			<trkpt lat="53.25747537" lon="-8.92865496">
				<ele>61.0</ele>
				<time>2014-08-17T15:33:27Z</time>
				<extensions>
					<speed>8.25</speed>
				</extensions>
			</trkpt>
			<trkpt lat="53.25754246" lon="-8.92871985">
				<ele>61.0</ele>
				<time>2014-08-17T15:33:28Z</time>
				<extensions>
					<speed>9.25</speed>
				</extensions>
			</trkpt>
			<trkpt lat="53.25761689" lon="-8.92879617">
				<ele>61.0</ele>
				<time>2014-08-17T15:33:29Z</time>
				<extensions>
					<speed>10.25</speed>
				</extensions>
			</trkpt>
			<trkpt lat="53.25770063" lon="-8.9288809">
				<ele>60.0</ele>
				<time>2014-08-17T15:33:30Z</time>
				<extensions>
					<speed>11.0</speed>
				</extensions>
			</trkpt>
			<trkpt lat="53.2577893" lon="-8.92897164">
				<ele>60.0</ele>
				<time>2014-08-17T15:33:31Z</time>
				<extensions>
					<speed>11.0</speed>
				</extensions>
			</trkpt>
			<trkpt lat="53.25787115" lon="-8.92906874">
				<ele>60.0</ele>
				<time>2014-08-17T15:33:32Z</time>
				<extensions>
					<speed>11.0</speed>
				</extensions>
			</trkpt>
			<trkpt lat="53.25795465" lon="-8.92917761">
				<ele>60.0</ele>
				<time>2014-08-17T15:33:33Z</time>
				<extensions>
					<speed>11.0</speed>
				</extensions>
			</trkpt>
			<trkpt lat="53.25802953" lon="-8.92927423">
				<ele>60.0</ele>
				<time>2014-08-17T15:33:34Z</time>
				<extensions>
					<speed>11.0</speed>
				</extensions>
			</trkpt>
			<trkpt lat="53.25809882" lon="-8.92938368">
				<ele>60.0</ele>
				<time>2014-08-17T15:33:35Z</time>
				<extensions>
					<speed>10.75</speed>
				</extensions>
			</trkpt>
			<trkpt lat="53.25815297" lon="-8.92951024">
				<ele>59.0</ele>
				<time>2014-08-17T15:33:36Z</time>
				<extensions>
					<speed>10.0</speed>
				</extensions>
			</trkpt>
			<trkpt lat="53.25819004" lon="-8.92962663">
				<ele>59.0</ele>
				<time>2014-08-17T15:33:37Z</time>
				<extensions>
					<speed>8.0</speed>
				</extensions>
			</trkpt>
			<trkpt lat="53.25822001" lon="-8.92972289">
				<ele>59.0</ele>
				<time>2014-08-17T15:33:38Z</time>
				<extensions>
					<speed>7.75</speed>
				</extensions>
			</trkpt>
			<trkpt lat="53.25825046" lon="-8.92982723">
				<ele>59.0</ele>
				<time>2014-08-17T15:33:39Z</time>
				<extensions>
					<speed>8.0</speed>
				</extensions>
			</trkpt>
			<trkpt lat="53.25828663" lon="-8.92994135">
				<ele>58.0</ele>
				<time>2014-08-17T15:33:40Z</time>
				<extensions>
					<speed>8.75</speed>
				</extensions>
			</trkpt>
			<trkpt lat="53.25832102" lon="-8.93006959">
				<ele>59.0</ele>
				<time>2014-08-17T15:33:41Z</time>
				<extensions>
					<speed>9.5</speed>
				</extensions>
			</trkpt>
			<trkpt lat="53.2583638" lon="-8.93019511">
				<ele>59.0</ele>
				<time>2014-08-17T15:33:42Z</time>
				<extensions>
					<speed>10.25</speed>
				</extensions>
			</trkpt>
			<trkpt lat="53.25840086" lon="-8.93034619">
				<ele>60.0</ele>
				<time>2014-08-17T15:33:43Z</time>
				<extensions>
					<speed>10.25</speed>
				</extensions>
			</trkpt>
			<trkpt lat="53.2584369" lon="-8.93050109">
				<ele>60.0</ele>
				<time>2014-08-17T15:33:44Z</time>
				<extensions>
					<speed>10.75</speed>
				</extensions>
			</trkpt>
			<trkpt lat="53.25847164" lon="-8.93065191">
				<ele>59.0</ele>
				<time>2014-08-17T15:33:45Z</time>
				<extensions>
					<speed>11.25</speed>
				</extensions>
			</trkpt>
			<trkpt lat="53.25852551" lon="-8.93080549">
				<ele>59.0</ele>
				<time>2014-08-17T15:33:46Z</time>
				<extensions>
					<speed>11.75</speed>
				</extensions>
			</trkpt>
			<trkpt lat="53.25856918" lon="-8.9309695">
				<ele>59.0</ele>
				<time>2014-08-17T15:33:47Z</time>
				<extensions>
					<speed>12.0</speed>
				</extensions>
			</trkpt>
			<trkpt lat="53.25861252" lon="-8.93112811">
				<ele>59.0</ele>
				<time>2014-08-17T15:33:48Z</time>
				<extensions>
					<speed>11.75</speed>
				</extensions>
			</trkpt>
			<trkpt lat="53.25865781" lon="-8.93129112">
				<ele>60.0</ele>
				<time>2014-08-17T15:33:49Z</time>
				<extensions>
					<speed>11.75</speed>
				</extensions>
			</trkpt>
			<trkpt lat="53.25870298" lon="-8.93143846">
				<ele>59.0</ele>
				<time>2014-08-17T15:33:50Z</time>
				<extensions>
					<speed>11.5</speed>
				</extensions>
			</trkpt>
			<trkpt lat="53.258753" lon="-8.93159254">
				<ele>60.0</ele>
				<time>2014-08-17T15:33:51Z</time>
				<extensions>
					<speed>11.5</speed>
				</extensions>
			</trkpt>
			<trkpt lat="53.25879171" lon="-8.93174705">
				<ele>59.0</ele>
				<time>2014-08-17T15:33:52Z</time>
				<extensions>
					<speed>11.25</speed>
				</extensions>
			</trkpt>
			<trkpt lat="53.25883116" lon="-8.93190189">
				<ele>59.0</ele>
				<time>2014-08-17T15:33:53Z</time>
				<extensions>
					<speed>11.0</speed>
				</extensions>
			</trkpt>
			<trkpt lat="53.25886979" lon="-8.9320357">
				<ele>59.0</ele>
				<time>2014-08-17T15:33:54Z</time>
				<extensions>
					<speed>9.75</speed>
				</extensions>
			</trkpt>
			<trkpt lat="53.2589074" lon="-8.9321637">
				<ele>59.0</ele>
				<time>2014-08-17T15:33:55Z</time>
				<extensions>
					<speed>8.0</speed>
				</extensions>
			</trkpt>
			<trkpt lat="53.2589235" lon="-8.93226272">
				<ele>58.0</ele>
				<time>2014-08-17T15:33:56Z</time>
				<extensions>
					<speed>7.0</speed>
				</extensions>
			</trkpt>
			<trkpt lat="53.25894605" lon="-8.93236262">
				<ele>58.0</ele>
				<time>2014-08-17T15:33:57Z</time>
				<extensions>
					<speed>7.0</speed>
				</extensions>
			</trkpt>
			<trkpt lat="53.25896861" lon="-8.93246252">
				<ele>57.0</ele>
				<time>2014-08-17T15:33:58Z</time>
				<extensions>
					<speed>7.0</speed>
				</extensions>
			</trkpt>
			<trkpt lat="53.25897855" lon="-8.93256387">
				<ele>60.0</ele>
				<time>2014-08-17T15:33:59Z</time>
				<extensions>
					<speed>7.0</speed>
				</extensions>
			</trkpt>
			<trkpt lat="53.25900687" lon="-8.93266531">
				<ele>59.0</ele>
				<time>2014-08-17T15:34:00Z</time>
				<extensions>
					<speed>7.0</speed>
				</extensions>
			</trkpt>
			<trkpt lat="53.25902906" lon="-8.93275378">
				<ele>59.0</ele>
				<time>2014-08-17T15:34:01Z</time>
				<extensions>
					<speed>6.75</speed>
				</extensions>
			</trkpt>
			<trkpt lat="53.25904874" lon="-8.93285453">
				<ele>59.0</ele>
				<time>2014-08-17T15:34:02Z</time>
				<extensions>
					<speed>6.75</speed>
				</extensions>
			</trkpt>
			<trkpt lat="53.25906185" lon="-8.93294993">
				<ele>59.0</ele>
				<time>2014-08-17T15:34:03Z</time>
				<extensions>
					<speed>6.5</speed>
				</extensions>
			</trkpt>
			<trkpt lat="53.25908396" lon="-8.93304044">
				<ele>59.0</ele>
				<time>2014-08-17T15:34:04Z</time>
				<extensions>
					<speed>5.5</speed>
				</extensions>
			</trkpt>
			<trkpt lat="53.25909218" lon="-8.93308119">
				<ele>58.0</ele>
				<time>2014-08-17T15:34:05Z</time>
				<extensions>
					<speed>3.75</speed>
				</extensions>
			</trkpt>
			<trkpt lat="53.25910361" lon="-8.93312604">
				<ele>60.0</ele>
				<time>2014-08-17T15:34:06Z</time>
				<extensions>
					<speed>2.0</speed>
				</extensions>
			</trkpt>
			<trkpt lat="53.25911624" lon="-8.93313113">
				<ele>60.0</ele>
				<time>2014-08-17T15:34:07Z</time>
				<extensions>
					<speed>1.0</speed>
				</extensions>
			</trkpt>
			<trkpt lat="53.25912293" lon="-8.9331299">
				<ele>59.0</ele>
				<time>2014-08-17T15:34:08Z</time>
				<extensions>
					<speed>0.25</speed>
				</extensions>
			</trkpt>
			<trkpt lat="53.25912017" lon="-8.93313256">
				<ele>59.0</ele>
				<time>2014-08-17T15:34:09Z</time>
				<extensions>
					<speed>0.0</speed>
				</extensions>
			</trkpt>
			<trkpt lat="53.25912249" lon="-8.93313184">
				<ele>60.0</ele>
				<time>2014-08-17T15:34:10Z</time>
				<extensions>
					<speed>0.0</speed>
				</extensions>
			</trkpt>
			<trkpt lat="53.25912244" lon="-8.93313731">
				<ele>61.0</ele>
				<time>2014-08-17T15:34:11Z</time>
				<extensions>
					<speed>0.0</speed>
				</extensions>
			</trkpt>
			<trkpt lat="53.25912247" lon="-8.93313734">
				<ele>61.0</ele>
				<time>2014-08-17T15:34:12Z</time>
				<extensions>
					<speed>0.0</speed>
				</extensions>
			</trkpt>
			<trkpt lat="53.25912212" lon="-8.93314813">
				<ele>60.0</ele>
				<time>2014-08-17T15:34:13Z</time>
				<extensions>
					<speed>0.0</speed>
				</extensions>
			</trkpt>
			<trkpt lat="53.25912014" lon="-8.93314804">
				<ele>61.0</ele>
				<time>2014-08-17T15:34:14Z</time>
				<extensions>
					<speed>0.0</speed>
				</extensions>
			</trkpt>
			<trkpt lat="53.25912183" lon="-8.9331509">
				<ele>61.0</ele>
				<time>2014-08-17T15:34:15Z</time>
				<extensions>
					<speed>2.0</speed>
				</extensions>
			</trkpt>
			<trkpt lat="53.25914351" lon="-8.93316629">
				<ele>61.0</ele>
				<time>2014-08-17T15:34:16Z</time>
				<extensions>
					<speed>3.5</speed>
				</extensions>
			</trkpt>
			<trkpt lat="53.25917927" lon="-8.93316679">
				<ele>60.0</ele>
				<time>2014-08-17T15:34:17Z</time>
				<extensions>
					<speed>4.25</speed>
				</extensions>
			</trkpt>
			<trkpt lat="53.25921382" lon="-8.93315363">
				<ele>60.0</ele>
				<time>2014-08-17T15:34:18Z</time>
				<extensions>
					<speed>4.5</speed>
				</extensions>
			</trkpt>
			<trkpt lat="53.25926139" lon="-8.9331221">
				<ele>60.0</ele>
				<time>2014-08-17T15:34:19Z</time>
				<extensions>
					<speed>5.25</speed>
				</extensions>
			</trkpt>
			<trkpt lat="53.25931096" lon="-8.93310256">
				<ele>60.0</ele>
				<time>2014-08-17T15:34:20Z</time>
				<extensions>
					<speed>6.75</speed>
				</extensions>
			</trkpt>
			<trkpt lat="53.25937643" lon="-8.93308303">
				<ele>60.0</ele>
				<time>2014-08-17T15:34:21Z</time>
				<extensions>
					<speed>7.75</speed>
				</extensions>
			</trkpt>
			<trkpt lat="53.25944061" lon="-8.93307927">
				<ele>59.0</ele>
				<time>2014-08-17T15:34:22Z</time>
				<extensions>
					<speed>7.75</speed>
				</extensions>
			</trkpt>
			<trkpt lat="53.25951229" lon="-8.9330711">
				<ele>59.0</ele>
				<time>2014-08-17T15:34:23Z</time>
				<extensions>
					<speed>8.0</speed>
				</extensions>
			</trkpt>
			<trkpt lat="53.25959833" lon="-8.93304774">
				<ele>60.0</ele>
				<time>2014-08-17T15:34:24Z</time>
				<extensions>
					<speed>9.0</speed>
				</extensions>
			</trkpt>
			<trkpt lat="53.25968362" lon="-8.93303112">
				<ele>60.0</ele>
				<time>2014-08-17T15:34:25Z</time>
				<extensions>
					<speed>9.5</speed>
				</extensions>
			</trkpt>
			<trkpt lat="53.25977006" lon="-8.93300278">
				<ele>60.0</ele>
				<time>2014-08-17T15:34:26Z</time>
				<extensions>
					<speed>10.25</speed>
				</extensions>
			</trkpt>
			<trkpt lat="53.25986355" lon="-8.93297754">
				<ele>60.0</ele>
				<time>2014-08-17T15:34:27Z</time>
				<extensions>
					<speed>10.75</speed>
				</extensions>
			</trkpt>
			<trkpt lat="53.25995698" lon="-8.93295108">
				<ele>61.0</ele>
				<time>2014-08-17T15:34:28Z</time>
				<extensions>
					<speed>10.25</speed>
				</extensions>
			</trkpt>
			<trkpt lat="53.26004682" lon="-8.9329195">
				<ele>61.0</ele>
				<time>2014-08-17T15:34:29Z</time>
				<extensions>
					<speed>10.25</speed>
				</extensions>
			</trkpt>
			<trkpt lat="53.2601394" lon="-8.93288378">
				<ele>61.0</ele>
				<time>2014-08-17T15:34:30Z</time>
				<extensions>
					<speed>10.0</speed>
				</extensions>
			</trkpt>
			<trkpt lat="53.26022767" lon="-8.93287292">
				<ele>62.0</ele>
				<time>2014-08-17T15:34:31Z</time>
				<extensions>
					<speed>9.5</speed>
				</extensions>
			</trkpt>
			<trkpt lat="53.26030566" lon="-8.9328739">
				<ele>62.0</ele>
				<time>2014-08-17T15:34:32Z</time>
				<extensions>
					<speed>8.5</speed>
				</extensions>
			</trkpt>
			<trkpt lat="53.26038283" lon="-8.93288227">
				<ele>61.0</ele>
				<time>2014-08-17T15:34:33Z</time>
				<extensions>
					<speed>7.75</speed>
				</extensions>
			</trkpt>
			<trkpt lat="53.26044435" lon="-8.93288349">
				<ele>60.0</ele>
				<time>2014-08-17T15:34:34Z</time>
				<extensions>
					<speed>6.75</speed>
				</extensions>
			</trkpt>
			<trkpt lat="53.26049908" lon="-8.93287561">
				<ele>60.0</ele>
				<time>2014-08-17T15:34:35Z</time>
				<extensions>
					<speed>5.75</speed>
				</extensions>
			</trkpt>
			<trkpt lat="53.26055563" lon="-8.93286915">
				<ele>61.0</ele>
				<time>2014-08-17T15:34:36Z</time>
				<extensions>
					<speed>4.25</speed>
				</extensions>
			</trkpt>
			<trkpt lat="53.26058771" lon="-8.93288213">
				<ele>61.0</ele>
				<time>2014-08-17T15:34:37Z</time>
				<extensions>
					<speed>3.25</speed>
				</extensions>
			</trkpt>
			<trkpt lat="53.26060806" lon="-8.93291384">
				<ele>60.0</ele>
				<time>2014-08-17T15:34:38Z</time>
				<extensions>
					<speed>3.0</speed>
				</extensions>
			</trkpt>
			<trkpt lat="53.26060913" lon="-8.93294108">
				<ele>60.0</ele>
				<time>2014-08-17T15:34:39Z</time>
				<extensions>
					<speed>2.75</speed>
				</extensions>
			</trkpt>
			<trkpt lat="53.26061339" lon="-8.93299111">
				<ele>60.0</ele>
				<time>2014-08-17T15:34:40Z</time>
				<extensions>
					<speed>3.25</speed>
				</extensions>
			</trkpt>
			<trkpt lat="53.26060872" lon="-8.93304211">
				<ele>60.0</ele>
				<time>2014-08-17T15:34:41Z</time>
				<extensions>
					<speed>4.0</speed>
				</extensions>
			</trkpt>
			<trkpt lat="53.26060767" lon="-8.93311701">
				<ele>59.0</ele>
				<time>2014-08-17T15:34:42Z</time>
				<extensions>
					<speed>4.5</speed>
				</extensions>
			</trkpt>
			<trkpt lat="53.26060839" lon="-8.9331754">
				<ele>60.0</ele>
				<time>2014-08-17T15:34:43Z</time>
				<extensions>
					<speed>4.5</speed>
				</extensions>
			</trkpt>
			<trkpt lat="53.26060611" lon="-8.9332481">
				<ele>59.0</ele>
				<time>2014-08-17T15:34:44Z</time>
				<extensions>
					<speed>5.0</speed>
				</extensions>
			</trkpt>
			<trkpt lat="53.26059811" lon="-8.93332965">
				<ele>59.0</ele>
				<time>2014-08-17T15:34:45Z</time>
				<extensions>
					<speed>5.75</speed>
				</extensions>
			</trkpt>
			<trkpt lat="53.2605969" lon="-8.9334114">
				<ele>57.0</ele>
				<time>2014-08-17T15:34:46Z</time>
				<extensions>
					<speed>6.25</speed>
				</extensions>
			</trkpt>
			<trkpt lat="53.26059451" lon="-8.9335207">
				<ele>57.0</ele>
				<time>2014-08-17T15:34:47Z</time>
				<extensions>
					<speed>7.25</speed>
				</extensions>
			</trkpt>
			<trkpt lat="53.26059267" lon="-8.9336188">
				<ele>57.0</ele>
				<time>2014-08-17T15:34:48Z</time>
				<extensions>
					<speed>6.25</speed>
				</extensions>
			</trkpt>
			<trkpt lat="53.26058782" lon="-8.93372428">
				<ele>57.0</ele>
				<time>2014-08-17T15:34:49Z</time>
				<extensions>
					<speed>7.0</speed>
				</extensions>
			</trkpt>
			<trkpt lat="53.26058025" lon="-8.93383466">
				<ele>58.0</ele>
				<time>2014-08-17T15:34:50Z</time>
				<extensions>
					<speed>6.75</speed>
				</extensions>
			</trkpt>
			<trkpt lat="53.26057339" lon="-8.93392358">
				<ele>58.0</ele>
				<time>2014-08-17T15:34:51Z</time>
				<extensions>
					<speed>6.0</speed>
				</extensions>
			</trkpt>
			<trkpt lat="53.26057137" lon="-8.9340154">
				<ele>59.0</ele>
				<time>2014-08-17T15:34:52Z</time>
				<extensions>
					<speed>5.25</speed>
				</extensions>
			</trkpt>
			<trkpt lat="53.26056262" lon="-8.93408476">
				<ele>58.0</ele>
				<time>2014-08-17T15:34:53Z</time>
				<extensions>
					<speed>4.0</speed>
				</extensions>
			</trkpt>
			<trkpt lat="53.26056671" lon="-8.93414253">
				<ele>59.0</ele>
				<time>2014-08-17T15:34:54Z</time>
				<extensions>
					<speed>3.25</speed>
				</extensions>
			</trkpt>
			<trkpt lat="53.26056865" lon="-8.9341846">
				<ele>59.0</ele>
				<time>2014-08-17T15:34:55Z</time>
				<extensions>
					<speed>2.75</speed>
				</extensions>
			</trkpt>
			<trkpt lat="53.26056514" lon="-8.93422227">
				<ele>59.0</ele>
				<time>2014-08-17T15:34:56Z</time>
				<extensions>
					<speed>2.5</speed>
				</extensions>
			</trkpt>
			<trkpt lat="53.26056237" lon="-8.93426007">
				<ele>58.0</ele>
				<time>2014-08-17T15:34:57Z</time>
				<extensions>
					<speed>2.75</speed>
				</extensions>
			</trkpt>
			<trkpt lat="53.26055936" lon="-8.93430867">
				<ele>58.0</ele>
				<time>2014-08-17T15:34:58Z</time>
				<extensions>
					<speed>3.0</speed>
				</extensions>
			</trkpt>
			<trkpt lat="53.26055784" lon="-8.93436625">
				<ele>59.0</ele>
				<time>2014-08-17T15:34:59Z</time>
				<extensions>
					<speed>3.25</speed>
				</extensions>
			</trkpt>
			<trkpt lat="53.26054301" lon="-8.93441427">
				<ele>59.0</ele>
				<time>2014-08-17T15:35:00Z</time>
				<extensions>
					<speed>3.0</speed>
				</extensions>
			</trkpt>
			<trkpt lat="53.26054208" lon="-8.93445246">
				<ele>59.0</ele>
				<time>2014-08-17T15:35:01Z</time>
				<extensions>
					<speed>2.25</speed>
				</extensions>
			</trkpt>
			<trkpt lat="53.26054607" lon="-8.93448252">
				<ele>60.0</ele>
				<time>2014-08-17T15:35:02Z</time>
				<extensions>
					<speed>1.25</speed>
				</extensions>
			</trkpt>
			<trkpt lat="53.26055158" lon="-8.9344937">
				<ele>61.0</ele>
				<time>2014-08-17T15:35:03Z</time>
				<extensions>
					<speed>0.5</speed>
				</extensions>
			</trkpt>
			<trkpt lat="53.26055307" lon="-8.93450155">
				<ele>60.0</ele>
				<time>2014-08-17T15:35:04Z</time>
				<extensions>
					<speed>0.0</speed>
				</extensions>
			</trkpt>
			<trkpt lat="53.26055708" lon="-8.934508">
				<ele>60.0</ele>
				<time>2014-08-17T15:35:05Z</time>
				<extensions>
					<speed>0.0</speed>
				</extensions>
			</trkpt>
			<trkpt lat="53.26056036" lon="-8.93449861">
				<ele>60.0</ele>
				<time>2014-08-17T15:35:06Z</time>
				<extensions>
					<speed>0.0</speed>
				</extensions>
			</trkpt>
			<trkpt lat="53.26056036" lon="-8.93449861">
				<ele>60.0</ele>
				<time>2014-08-17T15:35:07Z</time>
				<extensions>
					<speed>0.0</speed>
				</extensions>
			</trkpt>
			<trkpt lat="53.2605597" lon="-8.93450394">
				<ele>60.0</ele>
				<time>2014-08-17T15:35:08Z</time>
				<extensions>
					<speed>0.0</speed>
				</extensions>
			</trkpt>
			<trkpt lat="53.2605597" lon="-8.93450394">
				<ele>60.0</ele>
				<time>2014-08-17T15:35:09Z</time>
				<extensions>
					<speed>0.0</speed>
				</extensions>
			</trkpt>
			<trkpt lat="53.26056371" lon="-8.93450699">
				<ele>61.0</ele>
				<time>2014-08-17T15:35:10Z</time>
				<extensions>
					<speed>0.0</speed>
				</extensions>
			</trkpt>
			<trkpt lat="53.2605642" lon="-8.93451303">
				<ele>61.0</ele>
				<time>2014-08-17T15:35:11Z</time>
				<extensions>
					<speed>0.0</speed>
				</extensions>
			</trkpt>
			<trkpt lat="53.2605642" lon="-8.93451303">
				<ele>61.0</ele>
				<time>2014-08-17T15:35:12Z</time>
				<extensions>
					<speed>0.0</speed>
				</extensions>
			</trkpt>
			<trkpt lat="53.26056091" lon="-8.93451875">
				<ele>62.0</ele>
				<time>2014-08-17T15:35:13Z</time>
				<extensions>
					<speed>0.0</speed>
				</extensions>
			</trkpt>
			<trkpt lat="53.26056122" lon="-8.93451878">
				<ele>62.0</ele>
				<time>2014-08-17T15:35:14Z</time>
				<extensions>
					<speed>0.0</speed>
				</extensions>
			</trkpt>
			<trkpt lat="53.26055907" lon="-8.93452168">
				<ele>62.0</ele>
				<time>2014-08-17T15:35:15Z</time>
				<extensions>
					<speed>0.0</speed>
				</extensions>
			</trkpt>
			<trkpt lat="53.26056073" lon="-8.93452301">
				<ele>62.0</ele>
				<time>2014-08-17T15:35:16Z</time>
				<extensions>
					<speed>0.0</speed>
				</extensions>
			</trkpt>
			<trkpt lat="53.26056165" lon="-8.93452387">
				<ele>62.0</ele>
				<time>2014-08-17T15:35:17Z</time>
				<extensions>
					<speed>0.0</speed>
				</extensions>
			</trkpt>
			<trkpt lat="53.26056199" lon="-8.93452464">
				<ele>63.0</ele>
				<time>2014-08-17T15:35:18Z</time>
				<extensions>
					<speed>0.0</speed>
				</extensions>
			</trkpt>
			<trkpt lat="53.26056471" lon="-8.93452173">
				<ele>62.0</ele>
				<time>2014-08-17T15:35:19Z</time>
				<extensions>
					<speed>0.0</speed>
				</extensions>
			</trkpt>
			<trkpt lat="53.2605629" lon="-8.93452129">
				<ele>62.0</ele>
				<time>2014-08-17T15:35:20Z</time>
				<extensions>
					<speed>0.0</speed>
				</extensions>
			</trkpt>
			<trkpt lat="53.26056307" lon="-8.93452062">
				<ele>62.0</ele>
				<time>2014-08-17T15:35:21Z</time>
				<extensions>
					<speed>0.0</speed>
				</extensions>
			</trkpt>
			<trkpt lat="53.26056551" lon="-8.93451366">
				<ele>62.0</ele>
				<time>2014-08-17T15:35:22Z</time>
				<extensions>
					<speed>0.0</speed>
				</extensions>
			</trkpt>
			<trkpt lat="53.26057059" lon="-8.934503">
				<ele>61.0</ele>
				<time>2014-08-17T15:35:23Z</time>
				<extensions>
					<speed>0.0</speed>
				</extensions>
			</trkpt>
			<trkpt lat="53.26057207" lon="-8.934501">
				<ele>61.0</ele>
				<time>2014-08-17T15:35:24Z</time>
				<extensions>
					<speed>0.0</speed>
				</extensions>
			</trkpt>
			<trkpt lat="53.26057525" lon="-8.93449808">
				<ele>61.0</ele>
				<time>2014-08-17T15:35:25Z</time>
				<extensions>
					<speed>0.0</speed>
				</extensions>
			</trkpt>
			<trkpt lat="53.26057575" lon="-8.93449336">
				<ele>61.0</ele>
				<time>2014-08-17T15:35:26Z</time>
				<extensions>
					<speed>0.0</speed>
				</extensions>
			</trkpt>
			<trkpt lat="53.26057627" lon="-8.93449208">
				<ele>61.0</ele>
				<time>2014-08-17T15:35:27Z</time>
				<extensions>
					<speed>0.0</speed>
				</extensions>
			</trkpt>
			<trkpt lat="53.26057661" lon="-8.93449124">
				<ele>61.0</ele>
				<time>2014-08-17T15:35:28Z</time>
				<extensions>
					<speed>0.0</speed>
				</extensions>
			</trkpt>
			<trkpt lat="53.26057671" lon="-8.93449061">
				<ele>61.0</ele>
				<time>2014-08-17T15:35:29Z</time>
				<extensions>
					<speed>0.0</speed>
				</extensions>
			</trkpt>
			<trkpt lat="53.26057663" lon="-8.93449479">
				<ele>61.0</ele>
				<time>2014-08-17T15:35:30Z</time>
				<extensions>
					<speed>0.5</speed>
				</extensions>
			</trkpt>
			<trkpt lat="53.2605611" lon="-8.93451804">
				<ele>61.0</ele>
				<time>2014-08-17T15:35:31Z</time>
				<extensions>
					<speed>1.25</speed>
				</extensions>
			</trkpt>
			<trkpt lat="53.26056343" lon="-8.93454277">
				<ele>61.0</ele>
				<time>2014-08-17T15:35:32Z</time>
				<extensions>
					<speed>1.75</speed>
				</extensions>
			</trkpt>
			<trkpt lat="53.26056217" lon="-8.9345732">
				<ele>60.0</ele>
				<time>2014-08-17T15:35:33Z</time>
				<extensions>
					<speed>2.0</speed>
				</extensions>
			</trkpt>
			<trkpt lat="53.26056982" lon="-8.93459615">
				<ele>60.0</ele>
				<time>2014-08-17T15:35:34Z</time>
				<extensions>
					<speed>2.25</speed>
				</extensions>
			</trkpt>
			<trkpt lat="53.26057859" lon="-8.93463151">
				<ele>59.0</ele>
				<time>2014-08-17T15:35:35Z</time>
				<extensions>
					<speed>2.75</speed>
				</extensions>
			</trkpt>
			<trkpt lat="53.26058997" lon="-8.93466203">
				<ele>61.0</ele>
				<time>2014-08-17T15:35:36Z</time>
				<extensions>
					<speed>2.0</speed>
				</extensions>
			</trkpt>
			<trkpt lat="53.2606011" lon="-8.9346779">
				<ele>61.0</ele>
				<time>2014-08-17T15:35:37Z</time>
				<extensions>
					<speed>1.25</speed>
				</extensions>
			</trkpt>
			<trkpt lat="53.26060141" lon="-8.93468502">
				<ele>61.0</ele>
				<time>2014-08-17T15:35:38Z</time>
				<extensions>
					<speed>0.75</speed>
				</extensions>
			</trkpt>
			<trkpt lat="53.26061609" lon="-8.93468339">
				<ele>61.0</ele>
				<time>2014-08-17T15:35:39Z</time>
				<extensions>
					<speed>1.25</speed>
				</extensions>
			</trkpt>
			<trkpt lat="53.26062657" lon="-8.9347008">
				<ele>61.0</ele>
				<time>2014-08-17T15:35:40Z</time>
				<extensions>
					<speed>2.0</speed>
				</extensions>
			</trkpt>
			<trkpt lat="53.26063095" lon="-8.93472872">
				<ele>61.0</ele>
				<time>2014-08-17T15:35:41Z</time>
				<extensions>
					<speed>2.25</speed>
				</extensions>
			</trkpt>
			<trkpt lat="53.26064313" lon="-8.93475772">
				<ele>61.0</ele>
				<time>2014-08-17T15:35:42Z</time>
				<extensions>
					<speed>2.5</speed>
				</extensions>
			</trkpt>
			<trkpt lat="53.26065711" lon="-8.93479027">
				<ele>61.0</ele>
				<time>2014-08-17T15:35:43Z</time>
				<extensions>
					<speed>2.5</speed>
				</extensions>
			</trkpt>
			<trkpt lat="53.2606764" lon="-8.93481958">
				<ele>61.0</ele>
				<time>2014-08-17T15:35:44Z</time>
				<extensions>
					<speed>2.5</speed>
				</extensions>
			</trkpt>
			<trkpt lat="53.26068645" lon="-8.93484555">
				<ele>60.0</ele>
				<time>2014-08-17T15:35:45Z</time>
				<extensions>
					<speed>2.0</speed>
				</extensions>
			</trkpt>
			<trkpt lat="53.26069997" lon="-8.93487482">
				<ele>60.0</ele>
				<time>2014-08-17T15:35:46Z</time>
				<extensions>
					<speed>1.75</speed>
				</extensions>
			</trkpt>
			<trkpt lat="53.26071223" lon="-8.93488336">
				<ele>59.0</ele>
				<time>2014-08-17T15:35:47Z</time>
				<extensions>
					<speed>0.75</speed>
				</extensions>
			</trkpt>
			<trkpt lat="53.26071556" lon="-8.93489352">
				<ele>61.0</ele>
				<time>2014-08-17T15:35:48Z</time>
				<extensions>
					<speed>0.0</speed>
				</extensions>
			</trkpt>
			<trkpt lat="53.26071519" lon="-8.93489243">
				<ele>61.0</ele>
				<time>2014-08-17T15:35:49Z</time>
				<extensions>
					<speed>0.0</speed>
				</extensions>
			</trkpt>
			<trkpt lat="53.26071521" lon="-8.93489249">
				<ele>61.0</ele>
				<time>2014-08-17T15:35:50Z</time>
				<extensions>
					<speed>0.0</speed>
				</extensions>
			</trkpt>
			<trkpt lat="53.2607163" lon="-8.93489302">
				<ele>61.0</ele>
				<time>2014-08-17T15:35:51Z</time>
				<extensions>
					<speed>0.0</speed>
				</extensions>
			</trkpt>
			<trkpt lat="53.26071468" lon="-8.93489704">
				<ele>61.0</ele>
				<time>2014-08-17T15:35:52Z</time>
				<extensions>
					<speed>0.0</speed>
				</extensions>
			</trkpt>
			<trkpt lat="53.26071623" lon="-8.93490111">
				<ele>62.0</ele>
				<time>2014-08-17T15:35:53Z</time>
				<extensions>
					<speed>0.0</speed>
				</extensions>
			</trkpt>
			<trkpt lat="53.26071528" lon="-8.93490739">
				<ele>62.0</ele>
				<time>2014-08-17T15:35:54Z</time>
				<extensions>
					<speed>0.0</speed>
				</extensions>
			</trkpt>
			<trkpt lat="53.26071819" lon="-8.93491109">
				<ele>62.0</ele>
				<time>2014-08-17T15:35:55Z</time>
				<extensions>
					<speed>0.0</speed>
				</extensions>
			</trkpt>
			<trkpt lat="53.26072054" lon="-8.93491128">
				<ele>63.0</ele>
				<time>2014-08-17T15:35:56Z</time>
				<extensions>
					<speed>0.0</speed>
				</extensions>
			</trkpt>
			<trkpt lat="53.26072121" lon="-8.93491505">
				<ele>63.0</ele>
				<time>2014-08-17T15:35:57Z</time>
				<extensions>
					<speed>0.0</speed>
				</extensions>
			</trkpt>
			<trkpt lat="53.26072064" lon="-8.93491882">
				<ele>63.0</ele>
				<time>2014-08-17T15:35:58Z</time>
				<extensions>
					<speed>0.0</speed>
				</extensions>
			</trkpt>
			<trkpt lat="53.26071789" lon="-8.93492344">
				<ele>63.0</ele>
				<time>2014-08-17T15:35:59Z</time>
				<extensions>
					<speed>0.0</speed>
				</extensions>
			</trkpt>
			<trkpt lat="53.2607157" lon="-8.93492574">
				<ele>63.0</ele>
				<time>2014-08-17T15:36:00Z</time>
				<extensions>
					<speed>0.0</speed>
				</extensions>
			</trkpt>
			<trkpt lat="53.26071747" lon="-8.93492637">
				<ele>63.0</ele>
				<time>2014-08-17T15:36:01Z</time>
				<extensions>
					<speed>0.0</speed>
				</extensions>
			</trkpt>
			<trkpt lat="53.26071778" lon="-8.93492788">
				<ele>63.0</ele>
				<time>2014-08-17T15:36:02Z</time>
				<extensions>
					<speed>0.0</speed>
				</extensions>
			</trkpt>
			<trkpt lat="53.26071805" lon="-8.93492838">
				<ele>63.0</ele>
				<time>2014-08-17T15:36:03Z</time>
				<extensions>
					<speed>0.0</speed>
				</extensions>
			</trkpt>
			<trkpt lat="53.26071787" lon="-8.93492866">
				<ele>63.0</ele>
				<time>2014-08-17T15:36:04Z</time>
				<extensions>
					<speed>0.0</speed>
				</extensions>
			</trkpt>
			<trkpt lat="53.26071793" lon="-8.93492874">
				<ele>63.0</ele>
				<time>2014-08-17T15:36:05Z</time>
				<extensions>
					<speed>0.0</speed>
				</extensions>
			</trkpt>
			<trkpt lat="53.26071791" lon="-8.93492877">
				<ele>63.0</ele>
				<time>2014-08-17T15:36:06Z</time>
				<extensions>
					<speed>0.0</speed>
				</extensions>
			</trkpt>
			<trkpt lat="53.26071791" lon="-8.93492876">
				<ele>63.0</ele>
				<time>2014-08-17T15:36:07Z</time>
				<extensions>
					<speed>0.0</speed>
				</extensions>
			</trkpt>
			<trkpt lat="53.2607179" lon="-8.93492871">
				<ele>63.0</ele>
				<time>2014-08-17T15:36:08Z</time>
				<extensions>
					<speed>0.0</speed>
				</extensions>
			</trkpt>
			<trkpt lat="53.26071786" lon="-8.93492871">
				<ele>63.0</ele>
				<time>2014-08-17T15:36:09Z</time>
				<extensions>
					<speed>0.0</speed>
				</extensions>
			</trkpt>
			<trkpt lat="53.26071785" lon="-8.93492872">
				<ele>63.0</ele>
				<time>2014-08-17T15:36:10Z</time>
				<extensions>
					<speed>0.0</speed>
				</extensions>
			</trkpt>
			<trkpt lat="53.26071783" lon="-8.93492876">
				<ele>63.0</ele>
				<time>2014-08-17T15:36:11Z</time>
				<extensions>
					<speed>0.0</speed>
				</extensions>
			</trkpt>
			<trkpt lat="53.26071782" lon="-8.93492875">
				<ele>63.0</ele>
				<time>2014-08-17T15:36:12Z</time>
				<extensions>
					<speed>0.0</speed>
				</extensions>
			</trkpt>
			<trkpt lat="53.26071783" lon="-8.93492875">
				<ele>63.0</ele>
				<time>2014-08-17T15:36:13Z</time>
				<extensions>
					<speed>0.0</speed>
				</extensions>
			</trkpt>
			<trkpt lat="53.26071783" lon="-8.93492876">
				<ele>63.0</ele>
				<time>2014-08-17T15:36:14Z</time>
				<extensions>
					<speed>0.0</speed>
				</extensions>
			</trkpt>
			<trkpt lat="53.26071786" lon="-8.93492877">
				<ele>63.0</ele>
				<time>2014-08-17T15:36:15Z</time>
				<extensions>
					<speed>0.0</speed>
				</extensions>
			</trkpt>
			<trkpt lat="53.26071786" lon="-8.93492878">
				<ele>63.0</ele>
				<time>2014-08-17T15:36:16Z</time>
				<extensions>
					<speed>0.0</speed>
				</extensions>
			</trkpt>
			<trkpt lat="53.26071788" lon="-8.93492874">
				<ele>63.0</ele>
				<time>2014-08-17T15:36:17Z</time>
				<extensions>
					<speed>0.0</speed>
				</extensions>
			</trkpt>
			<trkpt lat="53.26071787" lon="-8.93492873">
				<ele>63.0</ele>
				<time>2014-08-17T15:36:18Z</time>
				<extensions>
					<speed>0.0</speed>
				</extensions>
			</trkpt>
			<trkpt lat="53.26071787" lon="-8.9349288">
				<ele>63.0</ele>
				<time>2014-08-17T15:36:19Z</time>
				<extensions>
					<speed>0.0</speed>
				</extensions>
			</trkpt>
			<trkpt lat="53.2607179" lon="-8.9349288">
				<ele>63.0</ele>
				<time>2014-08-17T15:36:20Z</time>
				<extensions>
					<speed>0.0</speed>
				</extensions>
			</trkpt>
			<trkpt lat="53.26071792" lon="-8.93492882">
				<ele>63.0</ele>
				<time>2014-08-17T15:36:21Z</time>
				<extensions>
					<speed>0.0</speed>
				</extensions>
			</trkpt>
			<trkpt lat="53.26071793" lon="-8.93492883">
				<ele>63.0</ele>
				<time>2014-08-17T15:36:22Z</time>
				<extensions>
					<speed>0.0</speed>
				</extensions>
			</trkpt>
			<trkpt lat="53.26071796" lon="-8.9349288">
				<ele>63.0</ele>
				<time>2014-08-17T15:36:23Z</time>
				<extensions>
					<speed>0.0</speed>
				</extensions>
			</trkpt>
			<trkpt lat="53.26071797" lon="-8.93492881">
				<ele>63.0</ele>
				<time>2014-08-17T15:36:24Z</time>
				<extensions>
					<speed>0.0</speed>
				</extensions>
			</trkpt>
			<trkpt lat="53.26071798" lon="-8.9349288">
				<ele>63.0</ele>
				<time>2014-08-17T15:36:25Z</time>
				<extensions>
					<speed>0.0</speed>
				</extensions>
			</trkpt>
			<trkpt lat="53.26071803" lon="-8.93492879">
				<ele>63.0</ele>
				<time>2014-08-17T15:36:26Z</time>
				<extensions>
					<speed>0.0</speed>
				</extensions>
			</trkpt>
			<trkpt lat="53.26071805" lon="-8.93492871">
				<ele>63.0</ele>
				<time>2014-08-17T15:36:27Z</time>
				<extensions>
					<speed>0.0</speed>
				</extensions>
			</trkpt>
			<trkpt lat="53.26071808" lon="-8.93492873">
				<ele>63.0</ele>
				<time>2014-08-17T15:36:28Z</time>
				<extensions>
					<speed>0.0</speed>
				</extensions>
			</trkpt>
			<trkpt lat="53.26071809" lon="-8.93492872">
				<ele>63.0</ele>
				<time>2014-08-17T15:36:29Z</time>
				<extensions>
					<speed>0.0</speed>
				</extensions>
			</trkpt>
			<trkpt lat="53.26071812" lon="-8.93492869">
				<ele>63.0</ele>
				<time>2014-08-17T15:36:30Z</time>
				<extensions>
					<speed>0.0</speed>
				</extensions>
			</trkpt>
			<trkpt lat="53.26071811" lon="-8.93492869">
				<ele>63.0</ele>
				<time>2014-08-17T15:36:31Z</time>
				<extensions>
					<speed>0.0</speed>
				</extensions>
			</trkpt>
			<trkpt lat="53.26071813" lon="-8.93492868">
				<ele>63.0</ele>
				<time>2014-08-17T15:36:32Z</time>
				<extensions>
					<speed>0.0</speed>
				</extensions>
			</trkpt>
			<trkpt lat="53.26071815" lon="-8.93492866">
				<ele>63.0</ele>
				<time>2014-08-17T15:36:33Z</time>
				<extensions>
					<speed>0.0</speed>
				</extensions>
			</trkpt>
			<trkpt lat="53.26071815" lon="-8.93492864">
				<ele>63.0</ele>
				<time>2014-08-17T15:36:34Z</time>
				<extensions>
					<speed>0.0</speed>
				</extensions>
			</trkpt>
			<trkpt lat="53.26071819" lon="-8.9349286">
				<ele>63.0</ele>
				<time>2014-08-17T15:36:35Z</time>
				<extensions>
					<speed>0.0</speed>
				</extensions>
			</trkpt>
			<trkpt lat="53.26071823" lon="-8.93492864">
				<ele>63.0</ele>
				<time>2014-08-17T15:36:36Z</time>
				<extensions>
					<speed>0.0</speed>
				</extensions>
			</trkpt>
			<trkpt lat="53.26071822" lon="-8.93492855">
				<ele>63.0</ele>
				<time>2014-08-17T15:36:37Z</time>
				<extensions>
					<speed>0.0</speed>
				</extensions>
			</trkpt>
			<trkpt lat="53.26071824" lon="-8.93492854">
				<ele>63.0</ele>
				<time>2014-08-17T15:36:38Z</time>
				<extensions>
					<speed>0.0</speed>
				</extensions>
			</trkpt>
			<trkpt lat="53.26071828" lon="-8.93492854">
				<ele>63.0</ele>
				<time>2014-08-17T15:36:39Z</time>
				<extensions>
					<speed>0.0</speed>
				</extensions>
			</trkpt>
			<trkpt lat="53.26071829" lon="-8.93492854">
				<ele>63.0</ele>
				<time>2014-08-17T15:36:40Z</time>
				<extensions>
					<speed>0.0</speed>
				</extensions>
			</trkpt>
			<trkpt lat="53.26071829" lon="-8.93492856">
				<ele>63.0</ele>
				<time>2014-08-17T15:36:41Z</time>
				<extensions>
					<speed>0.0</speed>
				</extensions>
			</trkpt>
			<trkpt lat="53.26071828" lon="-8.93492855">
				<ele>63.0</ele>
				<time>2014-08-17T15:36:42Z</time>
				<extensions>
					<speed>0.0</speed>
				</extensions>
			</trkpt>
			<trkpt lat="53.26071828" lon="-8.93492859">
				<ele>63.0</ele>
				<time>2014-08-17T15:36:43Z</time>
				<extensions>
					<speed>0.0</speed>
				</extensions>
			</trkpt>
			<trkpt lat="53.26071827" lon="-8.93492859">
				<ele>63.0</ele>
				<time>2014-08-17T15:36:44Z</time>
				<extensions>
					<speed>0.0</speed>
				</extensions>
			</trkpt>
			<trkpt lat="53.26071823" lon="-8.93492864">
				<ele>63.0</ele>
				<time>2014-08-17T15:36:45Z</time>
				<extensions>
					<speed>0.0</speed>
				</extensions>
			</trkpt>
			<trkpt lat="53.26071822" lon="-8.93492867">
				<ele>63.0</ele>
				<time>2014-08-17T15:36:46Z</time>
				<extensions>
					<speed>0.0</speed>
				</extensions>
			</trkpt>
			<trkpt lat="53.26071887" lon="-8.93493094">
				<ele>64.0</ele>
				<time>2014-08-17T15:36:47Z</time>
				<extensions>
					<speed>1.25</speed>
				</extensions>
			</trkpt>
			<trkpt lat="53.26073298" lon="-8.93495295">
				<ele>63.0</ele>
				<time>2014-08-17T15:36:48Z</time>
				<extensions>
					<speed>2.5</speed>
				</extensions>
			</trkpt>
			<trkpt lat="53.26074899" lon="-8.93499044">
				<ele>63.0</ele>
				<time>2014-08-17T15:36:49Z</time>
				<extensions>
					<speed>3.25</speed>
				</extensions>
			</trkpt>
			<trkpt lat="53.2607677" lon="-8.93503355">
				<ele>62.0</ele>
				<time>2014-08-17T15:36:50Z</time>
				<extensions>
					<speed>3.5</speed>
				</extensions>
			</trkpt>
			<trkpt lat="53.26078574" lon="-8.93507556">
				<ele>63.0</ele>
				<time>2014-08-17T15:36:51Z</time>
				<extensions>
					<speed>3.5</speed>
				</extensions>
			</trkpt>
			<trkpt lat="53.26080465" lon="-8.93511552">
				<ele>63.0</ele>
				<time>2014-08-17T15:36:52Z</time>
				<extensions>
					<speed>3.25</speed>
				</extensions>
			</trkpt>
			<trkpt lat="53.26082167" lon="-8.93515737">
				<ele>63.0</ele>
				<time>2014-08-17T15:36:53Z</time>
				<extensions>
					<speed>2.75</speed>
				</extensions>
			</trkpt>
			<trkpt lat="53.26083594" lon="-8.93518911">
				<ele>63.0</ele>
				<time>2014-08-17T15:36:54Z</time>
				<extensions>
					<speed>2.5</speed>
				</extensions>
			</trkpt>
			<trkpt lat="53.26084661" lon="-8.93521862">
				<ele>63.0</ele>
				<time>2014-08-17T15:36:55Z</time>
				<extensions>
					<speed>2.0</speed>
				</extensions>
			</trkpt>
			<trkpt lat="53.26085922" lon="-8.9352378">
				<ele>63.0</ele>
				<time>2014-08-17T15:36:56Z</time>
				<extensions>
					<speed>1.75</speed>
				</extensions>
			</trkpt>
			<trkpt lat="53.26087177" lon="-8.93525344">
				<ele>63.0</ele>
				<time>2014-08-17T15:36:57Z</time>
				<extensions>
					<speed>1.25</speed>
				</extensions>
			</trkpt>
			<trkpt lat="53.26087412" lon="-8.93527155">
				<ele>63.0</ele>
				<time>2014-08-17T15:36:58Z</time>
				<extensions>
					<speed>1.0</speed>
				</extensions>
			</trkpt>
			<trkpt lat="53.26088181" lon="-8.93529539">
				<ele>63.0</ele>
				<time>2014-08-17T15:36:59Z</time>
				<extensions>
					<speed>1.75</speed>
				</extensions>
			</trkpt>
			<trkpt lat="53.26088453" lon="-8.935306">
				<ele>63.0</ele>
				<time>2014-08-17T15:37:00Z</time>
				<extensions>
					<speed>1.5</speed>
				</extensions>
			</trkpt>
			<trkpt lat="53.26088647" lon="-8.93532647">
				<ele>63.0</ele>
				<time>2014-08-17T15:37:01Z</time>
				<extensions>
					<speed>1.25</speed>
				</extensions>
			</trkpt>
			<trkpt lat="53.2608885" lon="-8.93534332">
				<ele>62.0</ele>
				<time>2014-08-17T15:37:02Z</time>
				<extensions>
					<speed>0.75</speed>
				</extensions>
			</trkpt>
			<trkpt lat="53.26088974" lon="-8.93535422">
				<ele>63.0</ele>
				<time>2014-08-17T15:37:03Z</time>
				<extensions>
					<speed>0.5</speed>
				</extensions>
			</trkpt>
			<trkpt lat="53.26088979" lon="-8.93536567">
				<ele>62.0</ele>
				<time>2014-08-17T15:37:04Z</time>
				<extensions>
					<speed>0.5</speed>
				</extensions>
			</trkpt>
			<trkpt lat="53.26089488" lon="-8.93537463">
				<ele>62.0</ele>
				<time>2014-08-17T15:37:05Z</time>
				<extensions>
					<speed>0.5</speed>
				</extensions>
			</trkpt>
			<trkpt lat="53.26090125" lon="-8.93538688">
				<ele>63.0</ele>
				<time>2014-08-17T15:37:06Z</time>
				<extensions>
					<speed>0.75</speed>
				</extensions>
			</trkpt>
			<trkpt lat="53.2609053" lon="-8.93539713">
				<ele>63.0</ele>
				<time>2014-08-17T15:37:07Z</time>
				<extensions>
					<speed>0.75</speed>
				</extensions>
			</trkpt>
			<trkpt lat="53.26091375" lon="-8.93540125">
				<ele>64.0</ele>
				<time>2014-08-17T15:37:08Z</time>
				<extensions>
					<speed>1.0</speed>
				</extensions>
			</trkpt>
			<trkpt lat="53.26091679" lon="-8.93541601">
				<ele>64.0</ele>
				<time>2014-08-17T15:37:09Z</time>
				<extensions>
					<speed>1.5</speed>
				</extensions>
			</trkpt>
			<trkpt lat="53.26092293" lon="-8.93544198">
				<ele>64.0</ele>
				<time>2014-08-17T15:37:10Z</time>
				<extensions>
					<speed>2.0</speed>
				</extensions>
			</trkpt>
			<trkpt lat="53.26092659" lon="-8.93547411">
				<ele>63.0</ele>
				<time>2014-08-17T15:37:11Z</time>
				<extensions>
					<speed>2.0</speed>
				</extensions>
			</trkpt>
			<trkpt lat="53.26093947" lon="-8.93548723">
				<ele>63.0</ele>
				<time>2014-08-17T15:37:12Z</time>
				<extensions>
					<speed>1.75</speed>
				</extensions>
			</trkpt>
			<trkpt lat="53.26094832" lon="-8.93551891">
				<ele>63.0</ele>
				<time>2014-08-17T15:37:13Z</time>
				<extensions>
					<speed>2.25</speed>
				</extensions>
			</trkpt>
			<trkpt lat="53.26095798" lon="-8.93555136">
				<ele>64.0</ele>
				<time>2014-08-17T15:37:14Z</time>
				<extensions>
					<speed>2.5</speed>
				</extensions>
			</trkpt>
			<trkpt lat="53.26096658" lon="-8.93558238">
				<ele>64.0</ele>
				<time>2014-08-17T15:37:15Z</time>
				<extensions>
					<speed>2.25</speed>
				</extensions>
			</trkpt>
			<trkpt lat="53.26097392" lon="-8.93561229">
				<ele>63.0</ele>
				<time>2014-08-17T15:37:16Z</time>
				<extensions>
					<speed>2.0</speed>
				</extensions>
			</trkpt>
			<trkpt lat="53.26098158" lon="-8.93564307">
				<ele>63.0</ele>
				<time>2014-08-17T15:37:17Z</time>
				<extensions>
					<speed>2.0</speed>
				</extensions>
			</trkpt>
			<trkpt lat="53.26098694" lon="-8.93566805">
				<ele>63.0</ele>
				<time>2014-08-17T15:37:18Z</time>
				<extensions>
					<speed>2.0</speed>
				</extensions>
			</trkpt>
			<trkpt lat="53.26099604" lon="-8.93569629">
				<ele>63.0</ele>
				<time>2014-08-17T15:37:19Z</time>
				<extensions>
					<speed>2.0</speed>
				</extensions>
			</trkpt>
			<trkpt lat="53.26100223" lon="-8.93572661">
				<ele>63.0</ele>
				<time>2014-08-17T15:37:20Z</time>
				<extensions>
					<speed>1.75</speed>
				</extensions>
			</trkpt>
			<trkpt lat="53.26101068" lon="-8.93574107">
				<ele>63.0</ele>
				<time>2014-08-17T15:37:21Z</time>
				<extensions>
					<speed>1.5</speed>
				</extensions>
			</trkpt>
			<trkpt lat="53.26101117" lon="-8.93576641">
				<ele>63.0</ele>
				<time>2014-08-17T15:37:22Z</time>
				<extensions>
					<speed>1.75</speed>
				</extensions>
			</trkpt>
			<trkpt lat="53.26101387" lon="-8.93579084">
				<ele>63.0</ele>
				<time>2014-08-17T15:37:23Z</time>
				<extensions>
					<speed>1.75</speed>
				</extensions>
			</trkpt>
			<trkpt lat="53.26101857" lon="-8.93581324">
				<ele>63.0</ele>
				<time>2014-08-17T15:37:24Z</time>
				<extensions>
					<speed>1.75</speed>
				</extensions>
			</trkpt>
			<trkpt lat="53.26102352" lon="-8.93583411">
				<ele>63.0</ele>
				<time>2014-08-17T15:37:25Z</time>
				<extensions>
					<speed>1.5</speed>
				</extensions>
			</trkpt>
			<trkpt lat="53.2610243" lon="-8.93585352">
				<ele>63.0</ele>
				<time>2014-08-17T15:37:26Z</time>
				<extensions>
					<speed>1.25</speed>
				</extensions>
			</trkpt>
			<trkpt lat="53.26102831" lon="-8.93587663">
				<ele>63.0</ele>
				<time>2014-08-17T15:37:27Z</time>
				<extensions>
					<speed>1.25</speed>
				</extensions>
			</trkpt>
			<trkpt lat="53.26103066" lon="-8.93589552">
				<ele>63.0</ele>
				<time>2014-08-17T15:37:28Z</time>
				<extensions>
					<speed>1.75</speed>
				</extensions>
			</trkpt>
			<trkpt lat="53.261036" lon="-8.93591383">
				<ele>63.0</ele>
				<time>2014-08-17T15:37:29Z</time>
				<extensions>
					<speed>1.75</speed>
				</extensions>
			</trkpt>
			<trkpt lat="53.26104182" lon="-8.9359337">
				<ele>63.0</ele>
				<time>2014-08-17T15:37:30Z</time>
				<extensions>
					<speed>1.25</speed>
				</extensions>
			</trkpt>
			<trkpt lat="53.26104272" lon="-8.93594396">
				<ele>63.0</ele>
				<time>2014-08-17T15:37:31Z</time>
				<extensions>
					<speed>0.0</speed>
				</extensions>
			</trkpt>
			<trkpt lat="53.26104335" lon="-8.93594001">
				<ele>62.0</ele>
				<time>2014-08-17T15:37:32Z</time>
				<extensions>
					<speed>0.0</speed>
				</extensions>
			</trkpt>
			<trkpt lat="53.26104205" lon="-8.93594274">
				<ele>62.0</ele>
				<time>2014-08-17T15:37:33Z</time>
				<extensions>
					<speed>0.0</speed>
				</extensions>
			</trkpt>
			<trkpt lat="53.26104072" lon="-8.93593888">
				<ele>61.0</ele>
				<time>2014-08-17T15:37:34Z</time>
				<extensions>
					<speed>0.0</speed>
				</extensions>
			</trkpt>
			<trkpt lat="53.26104155" lon="-8.93594025">
				<ele>61.0</ele>
				<time>2014-08-17T15:37:35Z</time>
				<extensions>
					<speed>0.0</speed>
				</extensions>
			</trkpt>
			<trkpt lat="53.26104088" lon="-8.93594219">
				<ele>61.0</ele>
				<time>2014-08-17T15:37:36Z</time>
				<extensions>
					<speed>0.0</speed>
				</extensions>
			</trkpt>
			<trkpt lat="53.26104068" lon="-8.93594136">
				<ele>61.0</ele>
				<time>2014-08-17T15:37:37Z</time>
				<extensions>
					<speed>0.0</speed>
				</extensions>
			</trkpt>
			<trkpt lat="53.2610399" lon="-8.93594398">
				<ele>61.0</ele>
				<time>2014-08-17T15:37:38Z</time>
				<extensions>
					<speed>0.0</speed>
				</extensions>
			</trkpt>
			<trkpt lat="53.26103972" lon="-8.93594514">
				<ele>60.0</ele>
				<time>2014-08-17T15:37:39Z</time>
				<extensions>
					<speed>0.0</speed>
				</extensions>
			</trkpt>
			<trkpt lat="53.26104044" lon="-8.93594565">
				<ele>60.0</ele>
				<time>2014-08-17T15:37:40Z</time>
				<extensions>
					<speed>0.0</speed>
				</extensions>
			</trkpt>
			<trkpt lat="53.26103969" lon="-8.93594902">
				<ele>61.0</ele>
				<time>2014-08-17T15:37:41Z</time>
				<extensions>
					<speed>0.0</speed>
				</extensions>
			</trkpt>
			<trkpt lat="53.26104081" lon="-8.93594733">
				<ele>61.0</ele>
				<time>2014-08-17T15:37:42Z</time>
				<extensions>
					<speed>0.0</speed>
				</extensions>
			</trkpt>
			<trkpt lat="53.2610413" lon="-8.93594674">
				<ele>60.0</ele>
				<time>2014-08-17T15:37:43Z</time>
				<extensions>
					<speed>0.0</speed>
				</extensions>
			</trkpt>
			<trkpt lat="53.26104135" lon="-8.93594666">
				<ele>60.0</ele>
				<time>2014-08-17T15:37:44Z</time>
				<extensions>
					<speed>0.0</speed>
				</extensions>
			</trkpt>
			<trkpt lat="53.26104141" lon="-8.93594667">
				<ele>60.0</ele>
				<time>2014-08-17T15:37:45Z</time>
				<extensions>
					<speed>0.0</speed>
				</extensions>
			</trkpt>
			<trkpt lat="53.26104141" lon="-8.93594667">
				<ele>60.0</ele>
				<time>2014-08-17T15:37:46Z</time>
				<extensions>
					<speed>0.0</speed>
				</extensions>
			</trkpt>
			<trkpt lat="53.26104141" lon="-8.93594667">
				<ele>60.0</ele>
				<time>2014-08-17T15:37:47Z</time>
				<extensions>
					<speed>0.0</speed>
				</extensions>
			</trkpt>
			<trkpt lat="53.26103931" lon="-8.93594829">
				<ele>61.0</ele>
				<time>2014-08-17T15:37:48Z</time>
				<extensions>
					<speed>0.0</speed>
				</extensions>
			</trkpt>
			<trkpt lat="53.26104214" lon="-8.93595986">
				<ele>61.0</ele>
				<time>2014-08-17T15:37:49Z</time>
				<extensions>
					<speed>1.5</speed>
				</extensions>
			</trkpt>
			<trkpt lat="53.26104701" lon="-8.93597639">
				<ele>60.0</ele>
				<time>2014-08-17T15:37:50Z</time>
				<extensions>
					<speed>2.5</speed>
				</extensions>
			</trkpt>
			<trkpt lat="53.26106048" lon="-8.9360241">
				<ele>59.0</ele>
				<time>2014-08-17T15:37:51Z</time>
				<extensions>
					<speed>3.25</speed>
				</extensions>
			</trkpt>
			<trkpt lat="53.2610758" lon="-8.93607858">
				<ele>60.0</ele>
				<time>2014-08-17T15:37:52Z</time>
				<extensions>
					<speed>3.75</speed>
				</extensions>
			</trkpt>
			<trkpt lat="53.26108835" lon="-8.93613898">
				<ele>61.0</ele>
				<time>2014-08-17T15:37:53Z</time>
				<extensions>
					<speed>3.5</speed>
				</extensions>
			</trkpt>
			<trkpt lat="53.26109677" lon="-8.93619485">
				<ele>60.0</ele>
				<time>2014-08-17T15:37:54Z</time>
				<extensions>
					<speed>4.0</speed>
				</extensions>
			</trkpt>
			<trkpt lat="53.26111197" lon="-8.9362585">
				<ele>60.0</ele>
				<time>2014-08-17T15:37:55Z</time>
				<extensions>
					<speed>4.0</speed>
				</extensions>
			</trkpt>
			<trkpt lat="53.2611295" lon="-8.93631217">
				<ele>60.0</ele>
				<time>2014-08-17T15:37:56Z</time>
				<extensions>
					<speed>4.25</speed>
				</extensions>
			</trkpt>
			<trkpt lat="53.26114236" lon="-8.93636955">
				<ele>60.0</ele>
				<time>2014-08-17T15:37:57Z</time>
				<extensions>
					<speed>4.0</speed>
				</extensions>
			</trkpt>
			<trkpt lat="53.26115346" lon="-8.93642528">
				<ele>60.0</ele>
				<time>2014-08-17T15:37:58Z</time>
				<extensions>
					<speed>3.75</speed>
				</extensions>
			</trkpt>
			<trkpt lat="53.26117058" lon="-8.93647077">
				<ele>60.0</ele>
				<time>2014-08-17T15:37:59Z</time>
				<extensions>
					<speed>3.5</speed>
				</extensions>
			</trkpt>
			<trkpt lat="53.26118565" lon="-8.93651347">
				<ele>60.0</ele>
				<time>2014-08-17T15:38:00Z</time>
				<extensions>
					<speed>3.5</speed>
				</extensions>
			</trkpt>
			<trkpt lat="53.26120679" lon="-8.93656527">
				<ele>60.0</ele>
				<time>2014-08-17T15:38:01Z</time>
				<extensions>
					<speed>3.75</speed>
				</extensions>
			</trkpt>
			<trkpt lat="53.26122557" lon="-8.93661302">
				<ele>61.0</ele>
				<time>2014-08-17T15:38:02Z</time>
				<extensions>
					<speed>3.75</speed>
				</extensions>
			</trkpt>
			<trkpt lat="53.26124387" lon="-8.93666199">
				<ele>61.0</ele>
				<time>2014-08-17T15:38:03Z</time>
				<extensions>
					<speed>4.0</speed>
				</extensions>
			</trkpt>
			<trkpt lat="53.26126592" lon="-8.93670459">
				<ele>60.0</ele>
				<time>2014-08-17T15:38:04Z</time>
				<extensions>
					<speed>3.5</speed>
				</extensions>
			</trkpt>
			<trkpt lat="53.26129004" lon="-8.93674533">
				<ele>60.0</ele>
				<time>2014-08-17T15:38:05Z</time>
				<extensions>
					<speed>3.5</speed>
				</extensions>
			</trkpt>
			<trkpt lat="53.26131451" lon="-8.93678577">
				<ele>60.0</ele>
				<time>2014-08-17T15:38:06Z</time>
				<extensions>
					<speed>3.25</speed>
				</extensions>
			</trkpt>
			<trkpt lat="53.26132876" lon="-8.93682423">
				<ele>60.0</ele>
				<time>2014-08-17T15:38:07Z</time>
				<extensions>
					<speed>2.75</speed>
				</extensions>
			</trkpt>
			<trkpt lat="53.26134472" lon="-8.93684794">
				<ele>59.0</ele>
				<time>2014-08-17T15:38:08Z</time>
				<extensions>
					<speed>2.0</speed>
				</extensions>
			</trkpt>
			<trkpt lat="53.26135412" lon="-8.93687262">
				<ele>59.0</ele>
				<time>2014-08-17T15:38:09Z</time>
				<extensions>
					<speed>2.0</speed>
				</extensions>
			</trkpt>
			<trkpt lat="53.26136352" lon="-8.9368973">
				<ele>59.0</ele>
				<time>2014-08-17T15:38:10Z</time>
				<extensions>
					<speed>2.0</speed>
				</extensions>
			</trkpt>
			<trkpt lat="53.26135884" lon="-8.93687609">
				<ele>60.0</ele>
				<time>2014-08-17T15:38:11Z</time>
				<extensions>
					<speed>0.0</speed>
				</extensions>
			</trkpt>
			<trkpt lat="53.26135929" lon="-8.93686879">
				<ele>60.0</ele>
				<time>2014-08-17T15:38:12Z</time>
				<extensions>
					<speed>0.0</speed>
				</extensions>
			</trkpt>
			<trkpt lat="53.26135942" lon="-8.93687164">
				<ele>60.0</ele>
				<time>2014-08-17T15:38:13Z</time>
				<extensions>
					<speed>0.0</speed>
				</extensions>
			</trkpt>
			<trkpt lat="53.26136052" lon="-8.9368678">
				<ele>60.0</ele>
				<time>2014-08-17T15:38:14Z</time>
				<extensions>
					<speed>0.0</speed>
				</extensions>
			</trkpt>
			<trkpt lat="53.2613585" lon="-8.93686591">
				<ele>61.0</ele>
				<time>2014-08-17T15:38:15Z</time>
				<extensions>
					<speed>0.0</speed>
				</extensions>
			</trkpt>
			<trkpt lat="53.26135461" lon="-8.93686028">
				<ele>61.0</ele>
				<time>2014-08-17T15:38:16Z</time>
				<extensions>
					<speed>0.0</speed>
				</extensions>
			</trkpt>
			<trkpt lat="53.26135451" lon="-8.93686005">
				<ele>61.0</ele>
				<time>2014-08-17T15:38:17Z</time>
				<extensions>
					<speed>0.0</speed>
				</extensions>
			</trkpt>
			<trkpt lat="53.26135835" lon="-8.93685164">
				<ele>61.0</ele>
				<time>2014-08-17T15:38:18Z</time>
				<extensions>
					<speed>0.0</speed>
				</extensions>
			</trkpt>
			<trkpt lat="53.26135481" lon="-8.93685206">
				<ele>61.0</ele>
				<time>2014-08-17T15:38:19Z</time>
				<extensions>
					<speed>0.0</speed>
				</extensions>
			</trkpt>
			<trkpt lat="53.26135157" lon="-8.93685331">
				<ele>60.0</ele>
				<time>2014-08-17T15:38:20Z</time>
				<extensions>
					<speed>0.0</speed>
				</extensions>
			</trkpt>
			<trkpt lat="53.26135385" lon="-8.93685451">
				<ele>61.0</ele>
				<time>2014-08-17T15:38:21Z</time>
				<extensions>
					<speed>0.0</speed>
				</extensions>
			</trkpt>
			<trkpt lat="53.26135386" lon="-8.93685472">
				<ele>61.0</ele>
				<time>2014-08-17T15:38:22Z</time>
				<extensions>
					<speed>0.0</speed>
				</extensions>
			</trkpt>
			<trkpt lat="53.26134969" lon="-8.93686083">
				<ele>60.0</ele>
				<time>2014-08-17T15:38:23Z</time>
				<extensions>
					<speed>0.0</speed>
				</extensions>
			</trkpt>
			<trkpt lat="53.26134742" lon="-8.93686221">
				<ele>60.0</ele>
				<time>2014-08-17T15:38:24Z</time>
				<extensions>
					<speed>0.0</speed>
				</extensions>
			</trkpt>
			<trkpt lat="53.26134933" lon="-8.93685925">
				<ele>61.0</ele>
				<time>2014-08-17T15:38:25Z</time>
				<extensions>
					<speed>0.0</speed>
				</extensions>
			</trkpt>
			<trkpt lat="53.26134614" lon="-8.93686071">
				<ele>60.0</ele>
				<time>2014-08-17T15:38:26Z</time>
				<extensions>
					<speed>0.0</speed>
				</extensions>
			</trkpt>
			<trkpt lat="53.26134668" lon="-8.93686054">
				<ele>60.0</ele>
				<time>2014-08-17T15:38:27Z</time>
				<extensions>
					<speed>0.0</speed>
				</extensions>
			</trkpt>
			<trkpt lat="53.2613466" lon="-8.93685995">
				<ele>60.0</ele>
				<time>2014-08-17T15:38:28Z</time>
				<extensions>
					<speed>0.0</speed>
				</extensions>
			</trkpt>
			<trkpt lat="53.26134584" lon="-8.93685809">
				<ele>60.0</ele>
				<time>2014-08-17T15:38:29Z</time>
				<extensions>
					<speed>0.0</speed>
				</extensions>
			</trkpt>
			<trkpt lat="53.26134642" lon="-8.93685926">
				<ele>60.0</ele>
				<time>2014-08-17T15:38:30Z</time>
				<extensions>
					<speed>0.0</speed>
				</extensions>
			</trkpt>
			<trkpt lat="53.26134548" lon="-8.93686058">
				<ele>60.0</ele>
				<time>2014-08-17T15:38:31Z</time>
				<extensions>
					<speed>0.0</speed>
				</extensions>
			</trkpt>
			<trkpt lat="53.26134536" lon="-8.93686174">
				<ele>61.0</ele>
				<time>2014-08-17T15:38:32Z</time>
				<extensions>
					<speed>0.0</speed>
				</extensions>
			</trkpt>
			<trkpt lat="53.26134602" lon="-8.93686191">
				<ele>61.0</ele>
				<time>2014-08-17T15:38:33Z</time>
				<extensions>
					<speed>0.0</speed>
				</extensions>
			</trkpt>
			<trkpt lat="53.26134497" lon="-8.93686249">
				<ele>61.0</ele>
				<time>2014-08-17T15:38:34Z</time>
				<extensions>
					<speed>0.0</speed>
				</extensions>
			</trkpt>
			<trkpt lat="53.26134541" lon="-8.93686243">
				<ele>61.0</ele>
				<time>2014-08-17T15:38:35Z</time>
				<extensions>
					<speed>0.0</speed>
				</extensions>
			</trkpt>
			<trkpt lat="53.26134543" lon="-8.93686258">
				<ele>61.0</ele>
				<time>2014-08-17T15:38:36Z</time>
				<extensions>
					<speed>0.0</speed>
				</extensions>
			</trkpt>
			<trkpt lat="53.26134548" lon="-8.93686255">
				<ele>61.0</ele>
				<time>2014-08-17T15:38:37Z</time>
				<extensions>
					<speed>0.0</speed>
				</extensions>
			</trkpt>
			<trkpt lat="53.26134549" lon="-8.93686255">
				<ele>61.0</ele>
				<time>2014-08-17T15:38:38Z</time>
				<extensions>
					<speed>0.0</speed>
				</extensions>
			</trkpt>
			<trkpt lat="53.26134601" lon="-8.93686381">
				<ele>61.0</ele>
				<time>2014-08-17T15:38:39Z</time>
				<extensions>
					<speed>0.75</speed>
				</extensions>
			</trkpt>
			<trkpt lat="53.26135285" lon="-8.93687977">
				<ele>60.0</ele>
				<time>2014-08-17T15:38:40Z</time>
				<extensions>
					<speed>1.5</speed>
				</extensions>
			</trkpt>
			<trkpt lat="53.26136728" lon="-8.93689824">
				<ele>60.0</ele>
				<time>2014-08-17T15:38:41Z</time>
				<extensions>
					<speed>2.0</speed>
				</extensions>
			</trkpt>
			<trkpt lat="53.26137965" lon="-8.93691866">
				<ele>60.0</ele>
				<time>2014-08-17T15:38:42Z</time>
				<extensions>
					<speed>2.25</speed>
				</extensions>
			</trkpt>
			<trkpt lat="53.26139548" lon="-8.93695007">
				<ele>60.0</ele>
				<time>2014-08-17T15:38:43Z</time>
				<extensions>
					<speed>2.5</speed>
				</extensions>
			</trkpt>
			<trkpt lat="53.26140969" lon="-8.93697635">
				<ele>61.0</ele>
				<time>2014-08-17T15:38:44Z</time>
				<extensions>
					<speed>2.75</speed>
				</extensions>
			</trkpt>
			<trkpt lat="53.26142596" lon="-8.93700222">
				<ele>61.0</ele>
				<time>2014-08-17T15:38:45Z</time>
				<extensions>
					<speed>2.5</speed>
				</extensions>
			</trkpt>
			<trkpt lat="53.26144339" lon="-8.93703002">
				<ele>62.0</ele>
				<time>2014-08-17T15:38:46Z</time>
				<extensions>
					<speed>2.25</speed>
				</extensions>
			</trkpt>
			<trkpt lat="53.26145795" lon="-8.93705213">
				<ele>62.0</ele>
				<time>2014-08-17T15:38:47Z</time>
				<extensions>
					<speed>2.0</speed>
				</extensions>
			</trkpt>
			<trkpt lat="53.26147377" lon="-8.93708247">
				<ele>62.0</ele>
				<time>2014-08-17T15:38:48Z</time>
				<extensions>
					<speed>2.0</speed>
				</extensions>
			</trkpt>
			<trkpt lat="53.26148881" lon="-8.93710707">
				<ele>61.0</ele>
				<time>2014-08-17T15:38:49Z</time>
				<extensions>
					<speed>2.0</speed>
				</extensions>
			</trkpt>
			<trkpt lat="53.26150839" lon="-8.93713383">
				<ele>62.0</ele>
				<time>2014-08-17T15:38:50Z</time>
				<extensions>
					<speed>2.25</speed>
				</extensions>
			</trkpt>
			<trkpt lat="53.26152216" lon="-8.93716725">
				<ele>61.0</ele>
				<time>2014-08-17T15:38:51Z</time>
				<extensions>
					<speed>2.5</speed>
				</extensions>
			</trkpt>
			<trkpt lat="53.26153678" lon="-8.93720269">
				<ele>61.0</ele>
				<time>2014-08-17T15:38:52Z</time>
				<extensions>
					<speed>2.5</speed>
				</extensions>
			</trkpt>
			<trkpt lat="53.26154437" lon="-8.93723335">
				<ele>60.0</ele>
				<time>2014-08-17T15:38:53Z</time>
				<extensions>
					<speed>2.25</speed>
				</extensions>
			</trkpt>
			<trkpt lat="53.26155313" lon="-8.93726406">
				<ele>60.0</ele>
				<time>2014-08-17T15:38:54Z</time>
				<extensions>
					<speed>2.0</speed>
				</extensions>
			</trkpt>
			<trkpt lat="53.26156546" lon="-8.93728596">
				<ele>60.0</ele>
				<time>2014-08-17T15:38:55Z</time>
				<extensions>
					<speed>2.0</speed>
				</extensions>
			</trkpt>
			<trkpt lat="53.26157654" lon="-8.93730753">
				<ele>60.0</ele>
				<time>2014-08-17T15:38:56Z</time>
				<extensions>
					<speed>2.0</speed>
				</extensions>
			</trkpt>
			<trkpt lat="53.26158761" lon="-8.9373291">
				<ele>60.0</ele>
				<time>2014-08-17T15:38:57Z</time>
				<extensions>
					<speed>2.0</speed>
				</extensions>
			</trkpt>
			<trkpt lat="53.26158347" lon="-8.93733535">
				<ele>61.0</ele>
				<time>2014-08-17T15:38:58Z</time>
				<extensions>
					<speed>1.0</speed>
				</extensions>
			</trkpt>
			<trkpt lat="53.26157996" lon="-8.93733733">
				<ele>62.0</ele>
				<time>2014-08-17T15:38:59Z</time>
				<extensions>
					<speed>0.25</speed>
				</extensions>
			</trkpt>
			<trkpt lat="53.26158409" lon="-8.9373396">
				<ele>62.0</ele>
				<time>2014-08-17T15:39:00Z</time>
				<extensions>
					<speed>0.0</speed>
				</extensions>
			</trkpt>
			<trkpt lat="53.26158396" lon="-8.93733958">
				<ele>63.0</ele>
				<time>2014-08-17T15:39:01Z</time>
				<extensions>
					<speed>0.0</speed>
				</extensions>
			</trkpt>
			<trkpt lat="53.26158524" lon="-8.93733967">
				<ele>63.0</ele>
				<time>2014-08-17T15:39:02Z</time>
				<extensions>
					<speed>0.0</speed>
				</extensions>
			</trkpt>
			<trkpt lat="53.26158397" lon="-8.93733978">
				<ele>63.0</ele>
				<time>2014-08-17T15:39:03Z</time>
				<extensions>
					<speed>0.0</speed>
				</extensions>
			</trkpt>
			<trkpt lat="53.26158281" lon="-8.93734189">
				<ele>64.0</ele>
				<time>2014-08-17T15:39:04Z</time>
				<extensions>
					<speed>0.0</speed>
				</extensions>
			</trkpt>
			<trkpt lat="53.26158266" lon="-8.93733698">
				<ele>63.0</ele>
				<time>2014-08-17T15:39:05Z</time>
				<extensions>
					<speed>0.0</speed>
				</extensions>
			</trkpt>
			<trkpt lat="53.26158286" lon="-8.93733867">
				<ele>63.0</ele>
				<time>2014-08-17T15:39:06Z</time>
				<extensions>
					<speed>0.0</speed>
				</extensions>
			</trkpt>
			<trkpt lat="53.26158486" lon="-8.93734146">
				<ele>63.0</ele>
				<time>2014-08-17T15:39:07Z</time>
				<extensions>
					<speed>0.0</speed>
				</extensions>
			</trkpt>
			<trkpt lat="53.26158509" lon="-8.93734479">
				<ele>64.0</ele>
				<time>2014-08-17T15:39:08Z</time>
				<extensions>
					<speed>0.0</speed>
				</extensions>
			</trkpt>
			<trkpt lat="53.26158477" lon="-8.93734667">
				<ele>63.0</ele>
				<time>2014-08-17T15:39:09Z</time>
				<extensions>
					<speed>0.0</speed>
				</extensions>
			</trkpt>
			<trkpt lat="53.26158561" lon="-8.93734546">
				<ele>63.0</ele>
				<time>2014-08-17T15:39:10Z</time>
				<extensions>
					<speed>0.0</speed>
				</extensions>
			</trkpt>
			<trkpt lat="53.26158721" lon="-8.9373454">
				<ele>63.0</ele>
				<time>2014-08-17T15:39:11Z</time>
				<extensions>
					<speed>0.0</speed>
				</extensions>
			</trkpt>
			<trkpt lat="53.26158731" lon="-8.93734515">
				<ele>63.0</ele>
				<time>2014-08-17T15:39:12Z</time>
				<extensions>
					<speed>0.0</speed>
				</extensions>
			</trkpt>
			<trkpt lat="53.26158736" lon="-8.93734487">
				<ele>63.0</ele>
				<time>2014-08-17T15:39:13Z</time>
				<extensions>
					<speed>0.0</speed>
				</extensions>
			</trkpt>
			<trkpt lat="53.26158732" lon="-8.93734482">
				<ele>63.0</ele>
				<time>2014-08-17T15:39:14Z</time>
				<extensions>
					<speed>0.0</speed>
				</extensions>
			</trkpt>
			<trkpt lat="53.26158731" lon="-8.93734477">
				<ele>63.0</ele>
				<time>2014-08-17T15:39:15Z</time>
				<extensions>
					<speed>0.0</speed>
				</extensions>
			</trkpt>
			<trkpt lat="53.26158737" lon="-8.93734472">
				<ele>63.0</ele>
				<time>2014-08-17T15:39:16Z</time>
				<extensions>
					<speed>0.0</speed>
				</extensions>
			</trkpt>
			<trkpt lat="53.26158738" lon="-8.93734469">
				<ele>63.0</ele>
				<time>2014-08-17T15:39:17Z</time>
				<extensions>
					<speed>0.0</speed>
				</extensions>
			</trkpt>
			<trkpt lat="53.26158742" lon="-8.9373446">
				<ele>63.0</ele>
				<time>2014-08-17T15:39:18Z</time>
				<extensions>
					<speed>0.0</speed>
				</extensions>
			</trkpt>
			<trkpt lat="53.2615884" lon="-8.93734615">
				<ele>63.0</ele>
				<time>2014-08-17T15:39:19Z</time>
				<extensions>
					<speed>1.25</speed>
				</extensions>
			</trkpt>
			<trkpt lat="53.2615992" lon="-8.93737025">
				<ele>63.0</ele>
				<time>2014-08-17T15:39:20Z</time>
				<extensions>
					<speed>1.75</speed>
				</extensions>
			</trkpt>
			<trkpt lat="53.26162073" lon="-8.93738292">
				<ele>63.0</ele>
				<time>2014-08-17T15:39:21Z</time>
				<extensions>
					<speed>2.25</speed>
				</extensions>
			</trkpt>
			<trkpt lat="53.26164087" lon="-8.93740176">
				<ele>64.0</ele>
				<time>2014-08-17T15:39:22Z</time>
				<extensions>
					<speed>2.5</speed>
				</extensions>
			</trkpt>
			<trkpt lat="53.26165671" lon="-8.93742473">
				<ele>63.0</ele>
				<time>2014-08-17T15:39:23Z</time>
				<extensions>
					<speed>2.5</speed>
				</extensions>
			</trkpt>
			<trkpt lat="53.26167162" lon="-8.93744831">
				<ele>63.0</ele>
				<time>2014-08-17T15:39:24Z</time>
				<extensions>
					<speed>2.5</speed>
				</extensions>
			</trkpt>
			<trkpt lat="53.26168657" lon="-8.93747418">
				<ele>63.0</ele>
				<time>2014-08-17T15:39:25Z</time>
				<extensions>
					<speed>2.5</speed>
				</extensions>
			</trkpt>
			<trkpt lat="53.26169943" lon="-8.93749797">
				<ele>64.0</ele>
				<time>2014-08-17T15:39:26Z</time>
				<extensions>
					<speed>2.0</speed>
				</extensions>
			</trkpt>
			<trkpt lat="53.26170978" lon="-8.93751802">
				<ele>64.0</ele>
				<time>2014-08-17T15:39:27Z</time>
				<extensions>
					<speed>1.25</speed>
				</extensions>
			</trkpt>
			<trkpt lat="53.26170799" lon="-8.9375261">
				<ele>64.0</ele>
				<time>2014-08-17T15:39:28Z</time>
				<extensions>
					<speed>0.75</speed>
				</extensions>
			</trkpt>
			<trkpt lat="53.26171088" lon="-8.93753132">
				<ele>64.0</ele>
				<time>2014-08-17T15:39:29Z</time>
				<extensions>
					<speed>0.0</speed>
				</extensions>
			</trkpt>
			<trkpt lat="53.26171088" lon="-8.93753132">
				<ele>64.0</ele>
				<time>2014-08-17T15:39:30Z</time>
				<extensions>
					<speed>0.0</speed>
				</extensions>
			</trkpt>
			<trkpt lat="53.26170941" lon="-8.93752887">
				<ele>64.0</ele>
				<time>2014-08-17T15:39:31Z</time>
				<extensions>
					<speed>0.0</speed>
				</extensions>
			</trkpt>
			<trkpt lat="53.26171058" lon="-8.93753065">
				<ele>64.0</ele>
				<time>2014-08-17T15:39:32Z</time>
				<extensions>
					<speed>0.0</speed>
				</extensions>
			</trkpt>
			<trkpt lat="53.26171208" lon="-8.93753456">
				<ele>64.0</ele>
				<time>2014-08-17T15:39:33Z</time>
				<extensions>
					<speed>0.0</speed>
				</extensions>
			</trkpt>
			<trkpt lat="53.26170992" lon="-8.93753893">
				<ele>64.0</ele>
				<time>2014-08-17T15:39:34Z</time>
				<extensions>
					<speed>0.0</speed>
				</extensions>
			</trkpt>
			<trkpt lat="53.26171183" lon="-8.93753761">
				<ele>64.0</ele>
				<time>2014-08-17T15:39:35Z</time>
				<extensions>
					<speed>0.0</speed>
				</extensions>
			</trkpt>
			<trkpt lat="53.26171341" lon="-8.93753666">
				<ele>64.0</ele>
				<time>2014-08-17T15:39:36Z</time>
				<extensions>
					<speed>0.0</speed>
				</extensions>
			</trkpt>
			<trkpt lat="53.26171533" lon="-8.93753958">
				<ele>64.0</ele>
				<time>2014-08-17T15:39:37Z</time>
				<extensions>
					<speed>2.0</speed>
				</extensions>
			</trkpt>
			<trkpt lat="53.26174027" lon="-8.93755828">
				<ele>65.0</ele>
				<time>2014-08-17T15:39:38Z</time>
				<extensions>
					<speed>3.0</speed>
				</extensions>
			</trkpt>
			<trkpt lat="53.26176191" lon="-8.93760556">
				<ele>64.0</ele>
				<time>2014-08-17T15:39:39Z</time>
				<extensions>
					<speed>3.5</speed>
				</extensions>
			</trkpt>
			<trkpt lat="53.26178457" lon="-8.93764976">
				<ele>65.0</ele>
				<time>2014-08-17T15:39:40Z</time>
				<extensions>
					<speed>3.5</speed>
				</extensions>
			</trkpt>
			<trkpt lat="53.26179378" lon="-8.93770124">
				<ele>65.0</ele>
				<time>2014-08-17T15:39:41Z</time>
				<extensions>
					<speed>3.25</speed>
				</extensions>
			</trkpt>
			<trkpt lat="53.2617912" lon="-8.93774904">
				<ele>65.0</ele>
				<time>2014-08-17T15:39:42Z</time>
				<extensions>
					<speed>2.75</speed>
				</extensions>
			</trkpt>
			<trkpt lat="53.26178573" lon="-8.93779751">
				<ele>65.0</ele>
				<time>2014-08-17T15:39:43Z</time>
				<extensions>
					<speed>2.75</speed>
				</extensions>
			</trkpt>
			<trkpt lat="53.26177985" lon="-8.93782557">
				<ele>66.0</ele>
				<time>2014-08-17T15:39:44Z</time>
				<extensions>
					<speed>2.25</speed>
				</extensions>
			</trkpt>
			<trkpt lat="53.261773" lon="-8.93784344">
				<ele>66.0</ele>
				<time>2014-08-17T15:39:45Z</time>
				<extensions>
					<speed>1.5</speed>
				</extensions>
			</trkpt>
			<trkpt lat="53.26177006" lon="-8.93785693">
				<ele>66.0</ele>
				<time>2014-08-17T15:39:46Z</time>
				<extensions>
					<speed>0.75</speed>
				</extensions>
			</trkpt>
			<trkpt lat="53.26176521" lon="-8.93786587">
				<ele>68.0</ele>
				<time>2014-08-17T15:39:47Z</time>
				<extensions>
					<speed>0.0</speed>
				</extensions>
			</trkpt>
			<trkpt lat="53.26176484" lon="-8.93785657">
				<ele>68.0</ele>
				<time>2014-08-17T15:39:48Z</time>
				<extensions>
					<speed>0.0</speed>
				</extensions>
			</trkpt>
			<trkpt lat="53.26176508" lon="-8.93785988">
				<ele>67.0</ele>
				<time>2014-08-17T15:39:49Z</time>
				<extensions>
					<speed>0.0</speed>
				</extensions>
			</trkpt>
			<trkpt lat="53.26176282" lon="-8.93785622">
				<ele>67.0</ele>
				<time>2014-08-17T15:39:50Z</time>
				<extensions>
					<speed>0.0</speed>
				</extensions>
			</trkpt>
			<trkpt lat="53.26176077" lon="-8.93785855">
				<ele>67.0</ele>
				<time>2014-08-17T15:39:51Z</time>
				<extensions>
					<speed>0.0</speed>
				</extensions>
			</trkpt>
			<trkpt lat="53.26175871" lon="-8.93785903">
				<ele>67.0</ele>
				<time>2014-08-17T15:39:52Z</time>
				<extensions>
					<speed>0.0</speed>
				</extensions>
			</trkpt>
			<trkpt lat="53.26176086" lon="-8.93785955">
				<ele>67.0</ele>
				<time>2014-08-17T15:39:53Z</time>
				<extensions>
					<speed>0.0</speed>
				</extensions>
			</trkpt>
			<trkpt lat="53.26175871" lon="-8.9378594">
				<ele>67.0</ele>
				<time>2014-08-17T15:39:54Z</time>
				<extensions>
					<speed>0.0</speed>
				</extensions>
			</trkpt>
			<trkpt lat="53.26175572" lon="-8.93785983">
				<ele>67.0</ele>
				<time>2014-08-17T15:39:55Z</time>
				<extensions>
					<speed>0.0</speed>
				</extensions>
			</trkpt>
			<trkpt lat="53.26175458" lon="-8.9378587">
				<ele>68.0</ele>
				<time>2014-08-17T15:39:56Z</time>
				<extensions>
					<speed>0.0</speed>
				</extensions>
			</trkpt>
			<trkpt lat="53.26175271" lon="-8.93785988">
				<ele>68.0</ele>
				<time>2014-08-17T15:39:57Z</time>
				<extensions>
					<speed>0.0</speed>
				</extensions>
			</trkpt>
			<trkpt lat="53.26175242" lon="-8.93786113">
				<ele>68.0</ele>
				<time>2014-08-17T15:39:58Z</time>
				<extensions>
					<speed>0.0</speed>
				</extensions>
			</trkpt>
			<trkpt lat="53.26175224" lon="-8.93786141">
				<ele>68.0</ele>
				<time>2014-08-17T15:39:59Z</time>
				<extensions>
					<speed>0.0</speed>
				</extensions>
			</trkpt>
			<trkpt lat="53.26175213" lon="-8.93786135">
				<ele>68.0</ele>
				<time>2014-08-17T15:40:00Z</time>
				<extensions>
					<speed>0.0</speed>
				</extensions>
			</trkpt>
			<trkpt lat="53.26175159" lon="-8.93786129">
				<ele>68.0</ele>
				<time>2014-08-17T15:40:01Z</time>
				<extensions>
					<speed>0.0</speed>
				</extensions>
			</trkpt>
			<trkpt lat="53.26175158" lon="-8.93786131">
				<ele>68.0</ele>
				<time>2014-08-17T15:40:02Z</time>
				<extensions>
					<speed>0.0</speed>
				</extensions>
			</trkpt>
			<trkpt lat="53.26175152" lon="-8.93786132">
				<ele>68.0</ele>
				<time>2014-08-17T15:40:03Z</time>
				<extensions>
					<speed>0.0</speed>
				</extensions>
			</trkpt>
			<trkpt lat="53.26175146" lon="-8.9378614">
				<ele>68.0</ele>
				<time>2014-08-17T15:40:04Z</time>
				<extensions>
					<speed>0.0</speed>
				</extensions>
			</trkpt>
			<trkpt lat="53.26175142" lon="-8.93786144">
				<ele>68.0</ele>
				<time>2014-08-17T15:40:05Z</time>
				<extensions>
					<speed>0.0</speed>
				</extensions>
			</trkpt>
			<trkpt lat="53.2617514" lon="-8.93786148">
				<ele>68.0</ele>
				<time>2014-08-17T15:40:06Z</time>
				<extensions>
					<speed>0.0</speed>
				</extensions>
			</trkpt>
			<trkpt lat="53.26175136" lon="-8.93786152">
				<ele>68.0</ele>
				<time>2014-08-17T15:40:07Z</time>
				<extensions>
					<speed>0.0</speed>
				</extensions>
			</trkpt>
			<trkpt lat="53.26175183" lon="-8.93786184">
				<ele>68.0</ele>
				<time>2014-08-17T15:40:08Z</time>
				<extensions>
					<speed>0.0</speed>
				</extensions>
			</trkpt>
			<trkpt lat="53.26175185" lon="-8.93786183">
				<ele>68.0</ele>
				<time>2014-08-17T15:40:09Z</time>
				<extensions>
					<speed>0.0</speed>
				</extensions>
			</trkpt>
			<trkpt lat="53.26175189" lon="-8.9378618">
				<ele>68.0</ele>
				<time>2014-08-17T15:40:10Z</time>
				<extensions>
					<speed>0.0</speed>
				</extensions>
			</trkpt>
			<trkpt lat="53.26175188" lon="-8.93786184">
				<ele>68.0</ele>
				<time>2014-08-17T15:40:11Z</time>
				<extensions>
					<speed>0.0</speed>
				</extensions>
			</trkpt>
			<trkpt lat="53.26175192" lon="-8.93786184">
				<ele>68.0</ele>
				<time>2014-08-17T15:40:12Z</time>
				<extensions>
					<speed>0.0</speed>
				</extensions>
			</trkpt>
			<trkpt lat="53.26175112" lon="-8.93786329">
				<ele>68.0</ele>
				<time>2014-08-17T15:40:13Z</time>
				<extensions>
					<speed>0.75</speed>
				</extensions>
			</trkpt>
			<trkpt lat="53.26174672" lon="-8.93787887">
				<ele>67.0</ele>
				<time>2014-08-17T15:40:14Z</time>
				<extensions>
					<speed>2.0</speed>
				</extensions>
			</trkpt>
			<trkpt lat="53.26172559" lon="-8.93791511">
				<ele>66.0</ele>
				<time>2014-08-17T15:40:15Z</time>
				<extensions>
					<speed>3.0</speed>
				</extensions>
			</trkpt>
			<trkpt lat="53.26170192" lon="-8.93796273">
				<ele>65.0</ele>
				<time>2014-08-17T15:40:16Z</time>
				<extensions>
					<speed>3.75</speed>
				</extensions>
			</trkpt>
			<trkpt lat="53.26168938" lon="-8.93800684">
				<ele>66.0</ele>
				<time>2014-08-17T15:40:17Z</time>
				<extensions>
					<speed>3.75</speed>
				</extensions>
			</trkpt>
			<trkpt lat="53.26166025" lon="-8.93804851">
				<ele>66.0</ele>
				<time>2014-08-17T15:40:18Z</time>
				<extensions>
					<speed>3.75</speed>
				</extensions>
			</trkpt>
			<trkpt lat="53.26163525" lon="-8.93808995">
				<ele>65.0</ele>
				<time>2014-08-17T15:40:19Z</time>
				<extensions>
					<speed>3.5</speed>
				</extensions>
			</trkpt>
			<trkpt lat="53.26160559" lon="-8.93813198">
				<ele>66.0</ele>
				<time>2014-08-17T15:40:20Z</time>
				<extensions>
					<speed>3.75</speed>
				</extensions>
			</trkpt>
			<trkpt lat="53.26158683" lon="-8.93816747">
				<ele>65.0</ele>
				<time>2014-08-17T15:40:21Z</time>
				<extensions>
					<speed>3.0</speed>
				</extensions>
			</trkpt>
			<trkpt lat="53.26157002" lon="-8.93819731">
				<ele>65.0</ele>
				<time>2014-08-17T15:40:22Z</time>
				<extensions>
					<speed>2.5</speed>
				</extensions>
			</trkpt>
			<trkpt lat="53.26156013" lon="-8.93822569">
				<ele>64.0</ele>
				<time>2014-08-17T15:40:23Z</time>
				<extensions>
					<speed>2.25</speed>
				</extensions>
			</trkpt>
			<trkpt lat="53.26155971" lon="-8.93823847">
				<ele>64.0</ele>
				<time>2014-08-17T15:40:24Z</time>
				<extensions>
					<speed>1.5</speed>
				</extensions>
			</trkpt>
			<trkpt lat="53.26156871" lon="-8.93823915">
				<ele>62.0</ele>
				<time>2014-08-17T15:40:25Z</time>
				<extensions>
					<speed>0.75</speed>
				</extensions>
			</trkpt>
			<trkpt lat="53.26156051" lon="-8.9382475">
				<ele>62.0</ele>
				<time>2014-08-17T15:40:26Z</time>
				<extensions>
					<speed>0.75</speed>
				</extensions>
			</trkpt>
			<trkpt lat="53.26154785" lon="-8.93826293">
				<ele>62.0</ele>
				<time>2014-08-17T15:40:27Z</time>
				<extensions>
					<speed>1.5</speed>
				</extensions>
			</trkpt>
			<trkpt lat="53.26153182" lon="-8.9382858">
				<ele>62.0</ele>
				<time>2014-08-17T15:40:28Z</time>
				<extensions>
					<speed>2.25</speed>
				</extensions>
			</trkpt>
			<trkpt lat="53.26151434" lon="-8.93831243">
				<ele>62.0</ele>
				<time>2014-08-17T15:40:29Z</time>
				<extensions>
					<speed>2.5</speed>
				</extensions>
			</trkpt>
			<trkpt lat="53.2614931" lon="-8.93833725">
				<ele>61.0</ele>
				<time>2014-08-17T15:40:30Z</time>
				<extensions>
					<speed>2.75</speed>
				</extensions>
			</trkpt>
			<trkpt lat="53.26147157" lon="-8.93837197">
				<ele>62.0</ele>
				<time>2014-08-17T15:40:31Z</time>
				<extensions>
					<speed>2.75</speed>
				</extensions>
			</trkpt>
			<trkpt lat="53.26144928" lon="-8.93840056">
				<ele>62.0</ele>
				<time>2014-08-17T15:40:32Z</time>
				<extensions>
					<speed>2.25</speed>
				</extensions>
			</trkpt>
			<trkpt lat="53.26143839" lon="-8.93841813">
				<ele>62.0</ele>
				<time>2014-08-17T15:40:33Z</time>
				<extensions>
					<speed>1.25</speed>
				</extensions>
			</trkpt>
			<trkpt lat="53.26142892" lon="-8.93843219">
				<ele>62.0</ele>
				<time>2014-08-17T15:40:34Z</time>
				<extensions>
					<speed>0.75</speed>
				</extensions>
			</trkpt>
			<trkpt lat="53.26142787" lon="-8.9384409">
				<ele>63.0</ele>
				<time>2014-08-17T15:40:35Z</time>
				<extensions>
					<speed>0.0</speed>
				</extensions>
			</trkpt>
			<trkpt lat="53.2614287" lon="-8.93844175">
				<ele>63.0</ele>
				<time>2014-08-17T15:40:36Z</time>
				<extensions>
					<speed>0.0</speed>
				</extensions>
			</trkpt>
			<trkpt lat="53.26143854" lon="-8.93842934">
				<ele>61.0</ele>
				<time>2014-08-17T15:40:37Z</time>
				<extensions>
					<speed>0.0</speed>
				</extensions>
			</trkpt>
			<trkpt lat="53.26143897" lon="-8.93843275">
				<ele>61.0</ele>
				<time>2014-08-17T15:40:38Z</time>
				<extensions>
					<speed>0.0</speed>
				</extensions>
			</trkpt>
			<trkpt lat="53.26143444" lon="-8.93843782">
				<ele>61.0</ele>
				<time>2014-08-17T15:40:39Z</time>
				<extensions>
					<speed>0.0</speed>
				</extensions>
			</trkpt>
			<trkpt lat="53.26143387" lon="-8.93843612">
				<ele>61.0</ele>
				<time>2014-08-17T15:40:40Z</time>
				<extensions>
					<speed>0.0</speed>
				</extensions>
			</trkpt>
			<trkpt lat="53.26143312" lon="-8.93843158">
				<ele>61.0</ele>
				<time>2014-08-17T15:40:41Z</time>
				<extensions>
					<speed>0.0</speed>
				</extensions>
			</trkpt>
			<trkpt lat="53.26143231" lon="-8.93843225">
				<ele>61.0</ele>
				<time>2014-08-17T15:40:42Z</time>
				<extensions>
					<speed>0.0</speed>
				</extensions>
			</trkpt>
			<trkpt lat="53.26143467" lon="-8.93842963">
				<ele>61.0</ele>
				<time>2014-08-17T15:40:43Z</time>
				<extensions>
					<speed>0.0</speed>
				</extensions>
			</trkpt>
			<trkpt lat="53.2614372" lon="-8.9384271">
				<ele>61.0</ele>
				<time>2014-08-17T15:40:44Z</time>
				<extensions>
					<speed>0.0</speed>
				</extensions>
			</trkpt>
			<trkpt lat="53.2614366" lon="-8.93842672">
				<ele>61.0</ele>
				<time>2014-08-17T15:40:45Z</time>
				<extensions>
					<speed>0.0</speed>
				</extensions>
			</trkpt>
			<trkpt lat="53.26143653" lon="-8.93842731">
				<ele>61.0</ele>
				<time>2014-08-17T15:40:46Z</time>
				<extensions>
					<speed>0.0</speed>
				</extensions>
			</trkpt>
			<trkpt lat="53.26143728" lon="-8.93842641">
				<ele>61.0</ele>
				<time>2014-08-17T15:40:47Z</time>
				<extensions>
					<speed>0.0</speed>
				</extensions>
			</trkpt>
			<trkpt lat="53.26143731" lon="-8.93842637">
				<ele>61.0</ele>
				<time>2014-08-17T15:40:48Z</time>
				<extensions>
					<speed>0.0</speed>
				</extensions>
			</trkpt>
			<trkpt lat="53.26143726" lon="-8.93842639">
				<ele>61.0</ele>
				<time>2014-08-17T15:40:49Z</time>
				<extensions>
					<speed>0.0</speed>
				</extensions>
			</trkpt>
			<trkpt lat="53.26143727" lon="-8.93842642">
				<ele>61.0</ele>
				<time>2014-08-17T15:40:50Z</time>
				<extensions>
					<speed>0.0</speed>
				</extensions>
			</trkpt>
			<trkpt lat="53.26143727" lon="-8.93842641">
				<ele>61.0</ele>
				<time>2014-08-17T15:40:51Z</time>
				<extensions>
					<speed>0.0</speed>
				</extensions>
			</trkpt>
			<trkpt lat="53.26143735" lon="-8.93842641">
				<ele>61.0</ele>
				<time>2014-08-17T15:40:52Z</time>
				<extensions>
					<speed>0.0</speed>
				</extensions>
			</trkpt>
			<trkpt lat="53.26143736" lon="-8.93842643">
				<ele>61.0</ele>
				<time>2014-08-17T15:40:53Z</time>
				<extensions>
					<speed>0.0</speed>
				</extensions>
			</trkpt>
			<trkpt lat="53.26143732" lon="-8.93842645">
				<ele>61.0</ele>
				<time>2014-08-17T15:40:54Z</time>
				<extensions>
					<speed>0.0</speed>
				</extensions>
			</trkpt>
			<trkpt lat="53.26143728" lon="-8.93842648">
				<ele>61.0</ele>
				<time>2014-08-17T15:40:55Z</time>
				<extensions>
					<speed>0.0</speed>
				</extensions>
			</trkpt>
			<trkpt lat="53.26143728" lon="-8.93842652">
				<ele>61.0</ele>
				<time>2014-08-17T15:40:56Z</time>
				<extensions>
					<speed>0.0</speed>
				</extensions>
			</trkpt>
			<trkpt lat="53.26143725" lon="-8.93842649">
				<ele>61.0</ele>
				<time>2014-08-17T15:40:57Z</time>
				<extensions>
					<speed>0.0</speed>
				</extensions>
			</trkpt>
			<trkpt lat="53.26143728" lon="-8.93842648">
				<ele>61.0</ele>
				<time>2014-08-17T15:40:58Z</time>
				<extensions>
					<speed>0.0</speed>
				</extensions>
			</trkpt>
			<trkpt lat="53.26143729" lon="-8.93842647">
				<ele>61.0</ele>
				<time>2014-08-17T15:40:59Z</time>
				<extensions>
					<speed>0.0</speed>
				</extensions>
			</trkpt>
			<trkpt lat="53.26143729" lon="-8.9384265">
				<ele>61.0</ele>
				<time>2014-08-17T15:41:00Z</time>
				<extensions>
					<speed>0.0</speed>
				</extensions>
			</trkpt>
			<trkpt lat="53.26143727" lon="-8.93842651">
				<ele>61.0</ele>
				<time>2014-08-17T15:41:01Z</time>
				<extensions>
					<speed>0.0</speed>
				</extensions>
			</trkpt>
			<trkpt lat="53.26143642" lon="-8.93842873">
				<ele>61.0</ele>
				<time>2014-08-17T15:41:02Z</time>
				<extensions>
					<speed>1.0</speed>
				</extensions>
			</trkpt>
			<trkpt lat="53.26142411" lon="-8.93845441">
				<ele>62.0</ele>
				<time>2014-08-17T15:41:03Z</time>
				<extensions>
					<speed>2.25</speed>
				</extensions>
			</trkpt>
			<trkpt lat="53.26140227" lon="-8.93849291">
				<ele>62.0</ele>
				<time>2014-08-17T15:41:04Z</time>
				<extensions>
					<speed>3.25</speed>
				</extensions>
			</trkpt>
			<trkpt lat="53.26136948" lon="-8.93854324">
				<ele>62.0</ele>
				<time>2014-08-17T15:41:05Z</time>
				<extensions>
					<speed>4.5</speed>
				</extensions>
			</trkpt>
			<trkpt lat="53.26135494" lon="-8.93858754">
				<ele>62.0</ele>
				<time>2014-08-17T15:41:06Z</time>
				<extensions>
					<speed>4.25</speed>
				</extensions>
			</trkpt>
			<trkpt lat="53.26132058" lon="-8.93863331">
				<ele>62.0</ele>
				<time>2014-08-17T15:41:07Z</time>
				<extensions>
					<speed>4.0</speed>
				</extensions>
			</trkpt>
			<trkpt lat="53.26130709" lon="-8.93865639">
				<ele>61.0</ele>
				<time>2014-08-17T15:41:08Z</time>
				<extensions>
					<speed>3.75</speed>
				</extensions>
			</trkpt>
			<trkpt lat="53.2612805" lon="-8.938693">
				<ele>62.0</ele>
				<time>2014-08-17T15:41:09Z</time>
				<extensions>
					<speed>3.75</speed>
				</extensions>
			</trkpt>
			<trkpt lat="53.26126027" lon="-8.93872799">
				<ele>62.0</ele>
				<time>2014-08-17T15:41:10Z</time>
				<extensions>
					<speed>2.75</speed>
				</extensions>
			</trkpt>
			<trkpt lat="53.26125175" lon="-8.93875583">
				<ele>62.0</ele>
				<time>2014-08-17T15:41:11Z</time>
				<extensions>
					<speed>2.25</speed>
				</extensions>
			</trkpt>
			<trkpt lat="53.26125166" lon="-8.93877462">
				<ele>62.0</ele>
				<time>2014-08-17T15:41:12Z</time>
				<extensions>
					<speed>1.25</speed>
				</extensions>
			</trkpt>
			<trkpt lat="53.26124032" lon="-8.93878228">
				<ele>62.0</ele>
				<time>2014-08-17T15:41:13Z</time>
				<extensions>
					<speed>0.75</speed>
				</extensions>
			</trkpt>
			<trkpt lat="53.26124306" lon="-8.93878842">
				<ele>61.0</ele>
				<time>2014-08-17T15:41:14Z</time>
				<extensions>
					<speed>0.0</speed>
				</extensions>
			</trkpt>
			<trkpt lat="53.2612457" lon="-8.93878589">
				<ele>61.0</ele>
				<time>2014-08-17T15:41:15Z</time>
				<extensions>
					<speed>0.0</speed>
				</extensions>
			</trkpt>
			<trkpt lat="53.26124509" lon="-8.93878623">
				<ele>61.0</ele>
				<time>2014-08-17T15:41:16Z</time>
				<extensions>
					<speed>0.0</speed>
				</extensions>
			</trkpt>
			<trkpt lat="53.26124385" lon="-8.93877868">
				<ele>61.0</ele>
				<time>2014-08-17T15:41:17Z</time>
				<extensions>
					<speed>0.0</speed>
				</extensions>
			</trkpt>
			<trkpt lat="53.26124407" lon="-8.93877812">
				<ele>60.0</ele>
				<time>2014-08-17T15:41:18Z</time>
				<extensions>
					<speed>0.0</speed>
				</extensions>
			</trkpt>
			<trkpt lat="53.2612434" lon="-8.93877915">
				<ele>60.0</ele>
				<time>2014-08-17T15:41:19Z</time>
				<extensions>
					<speed>0.0</speed>
				</extensions>
			</trkpt>
			<trkpt lat="53.26124331" lon="-8.93877919">
				<ele>60.0</ele>
				<time>2014-08-17T15:41:20Z</time>
				<extensions>
					<speed>0.0</speed>
				</extensions>
			</trkpt>
			<trkpt lat="53.26125542" lon="-8.93877626">
				<ele>60.0</ele>
				<time>2014-08-17T15:41:21Z</time>
				<extensions>
					<speed>0.0</speed>
				</extensions>
			</trkpt>
			<trkpt lat="53.26125487" lon="-8.93876496">
				<ele>60.0</ele>
				<time>2014-08-17T15:41:22Z</time>
				<extensions>
					<speed>0.0</speed>
				</extensions>
			</trkpt>
			<trkpt lat="53.26125152" lon="-8.93876461">
				<ele>60.0</ele>
				<time>2014-08-17T15:41:23Z</time>
				<extensions>
					<speed>0.0</speed>
				</extensions>
			</trkpt>
			<trkpt lat="53.26125052" lon="-8.93876579">
				<ele>61.0</ele>
				<time>2014-08-17T15:41:24Z</time>
				<extensions>
					<speed>0.0</speed>
				</extensions>
			</trkpt>
			<trkpt lat="53.26124402" lon="-8.93876308">
				<ele>60.0</ele>
				<time>2014-08-17T15:41:25Z</time>
				<extensions>
					<speed>0.0</speed>
				</extensions>
			</trkpt>
			<trkpt lat="53.2612451" lon="-8.9387611">
				<ele>60.0</ele>
				<time>2014-08-17T15:41:26Z</time>
				<extensions>
					<speed>0.0</speed>
				</extensions>
			</trkpt>
			<trkpt lat="53.26124496" lon="-8.93875675">
				<ele>59.0</ele>
				<time>2014-08-17T15:41:27Z</time>
				<extensions>
					<speed>0.0</speed>
				</extensions>
			</trkpt>
			<trkpt lat="53.26124111" lon="-8.93876026">
				<ele>59.0</ele>
				<time>2014-08-17T15:41:28Z</time>
				<extensions>
					<speed>0.0</speed>
				</extensions>
			</trkpt>
			<trkpt lat="53.26123979" lon="-8.93876325">
				<ele>59.0</ele>
				<time>2014-08-17T15:41:29Z</time>
				<extensions>
					<speed>0.0</speed>
				</extensions>
			</trkpt>
			<trkpt lat="53.26123899" lon="-8.93876311">
				<ele>59.0</ele>
				<time>2014-08-17T15:41:30Z</time>
				<extensions>
					<speed>0.0</speed>
				</extensions>
			</trkpt>
			<trkpt lat="53.26123827" lon="-8.93876334">
				<ele>59.0</ele>
				<time>2014-08-17T15:41:31Z</time>
				<extensions>
					<speed>0.0</speed>
				</extensions>
			</trkpt>
			<trkpt lat="53.26123839" lon="-8.93876341">
				<ele>59.0</ele>
				<time>2014-08-17T15:41:32Z</time>
				<extensions>
					<speed>0.0</speed>
				</extensions>
			</trkpt>
			<trkpt lat="53.26123839" lon="-8.93876341">
				<ele>59.0</ele>
				<time>2014-08-17T15:41:33Z</time>
				<extensions>
					<speed>0.0</speed>
				</extensions>
			</trkpt>
			<trkpt lat="53.26123839" lon="-8.93876341">
				<ele>59.0</ele>
				<time>2014-08-17T15:41:34Z</time>
				<extensions>
					<speed>0.0</speed>
				</extensions>
			</trkpt>
			<trkpt lat="53.26123832" lon="-8.93876378">
				<ele>60.0</ele>
				<time>2014-08-17T15:41:35Z</time>
				<extensions>
					<speed>0.0</speed>
				</extensions>
			</trkpt>
			<trkpt lat="53.26123434" lon="-8.93877085">
				<ele>60.0</ele>
				<time>2014-08-17T15:41:36Z</time>
				<extensions>
					<speed>1.0</speed>
				</extensions>
			</trkpt>
			<trkpt lat="53.26123367" lon="-8.93878569">
				<ele>59.0</ele>
				<time>2014-08-17T15:41:37Z</time>
				<extensions>
					<speed>2.5</speed>
				</extensions>
			</trkpt>
			<trkpt lat="53.26120877" lon="-8.93882818">
				<ele>58.0</ele>
				<time>2014-08-17T15:41:38Z</time>
				<extensions>
					<speed>3.75</speed>
				</extensions>
			</trkpt>
			<trkpt lat="53.26118825" lon="-8.93887393">
				<ele>58.0</ele>
				<time>2014-08-17T15:41:39Z</time>
				<extensions>
					<speed>3.75</speed>
				</extensions>
			</trkpt>
			<trkpt lat="53.26116175" lon="-8.93891893">
				<ele>58.0</ele>
				<time>2014-08-17T15:41:40Z</time>
				<extensions>
					<speed>3.75</speed>
				</extensions>
			</trkpt>
			<trkpt lat="53.26113926" lon="-8.93895411">
				<ele>57.0</ele>
				<time>2014-08-17T15:41:41Z</time>
				<extensions>
					<speed>3.5</speed>
				</extensions>
			</trkpt>
			<trkpt lat="53.2611145" lon="-8.93899267">
				<ele>57.0</ele>
				<time>2014-08-17T15:41:42Z</time>
				<extensions>
					<speed>3.25</speed>
				</extensions>
			</trkpt>
			<trkpt lat="53.26109664" lon="-8.93902847">
				<ele>57.0</ele>
				<time>2014-08-17T15:41:43Z</time>
				<extensions>
					<speed>3.0</speed>
				</extensions>
			</trkpt>
			<trkpt lat="53.26108368" lon="-8.93905842">
				<ele>56.0</ele>
				<time>2014-08-17T15:41:44Z</time>
				<extensions>
					<speed>2.5</speed>
				</extensions>
			</trkpt>
			<trkpt lat="53.26107316" lon="-8.9390834">
				<ele>57.0</ele>
				<time>2014-08-17T15:41:45Z</time>
				<extensions>
					<speed>2.0</speed>
				</extensions>
			</trkpt>
			<trkpt lat="53.2610635" lon="-8.93910064">
				<ele>57.0</ele>
				<time>2014-08-17T15:41:46Z</time>
				<extensions>
					<speed>1.25</speed>
				</extensions>
			</trkpt>
			<trkpt lat="53.26105666" lon="-8.93910345">
				<ele>57.0</ele>
				<time>2014-08-17T15:41:47Z</time>
				<extensions>
					<speed>0.5</speed>
				</extensions>
			</trkpt>
			<trkpt lat="53.26106315" lon="-8.93909077">
				<ele>56.0</ele>
				<time>2014-08-17T15:41:48Z</time>
				<extensions>
					<speed>0.0</speed>
				</extensions>
			</trkpt>
			<trkpt lat="53.26106066" lon="-8.93909337">
				<ele>56.0</ele>
				<time>2014-08-17T15:41:49Z</time>
				<extensions>
					<speed>0.0</speed>
				</extensions>
			</trkpt>
			<trkpt lat="53.26105679" lon="-8.93909358">
				<ele>56.0</ele>
				<time>2014-08-17T15:41:50Z</time>
				<extensions>
					<speed>0.0</speed>
				</extensions>
			</trkpt>
			<trkpt lat="53.26105799" lon="-8.93909185">
				<ele>55.0</ele>
				<time>2014-08-17T15:41:51Z</time>
				<extensions>
					<speed>0.0</speed>
				</extensions>
			</trkpt>
			<trkpt lat="53.26105573" lon="-8.9390933">
				<ele>55.0</ele>
				<time>2014-08-17T15:41:52Z</time>
				<extensions>
					<speed>0.0</speed>
				</extensions>
			</trkpt>
			<trkpt lat="53.2610529" lon="-8.93909355">
				<ele>55.0</ele>
				<time>2014-08-17T15:41:53Z</time>
				<extensions>
					<speed>0.0</speed>
				</extensions>
			</trkpt>
			<trkpt lat="53.26105026" lon="-8.93909464">
				<ele>55.0</ele>
				<time>2014-08-17T15:41:54Z</time>
				<extensions>
					<speed>0.0</speed>
				</extensions>
			</trkpt>
			<trkpt lat="53.26104999" lon="-8.93909895">
				<ele>55.0</ele>
				<time>2014-08-17T15:41:55Z</time>
				<extensions>
					<speed>0.0</speed>
				</extensions>
			</trkpt>
			<trkpt lat="53.26104868" lon="-8.93909877">
				<ele>55.0</ele>
				<time>2014-08-17T15:41:56Z</time>
				<extensions>
					<speed>0.0</speed>
				</extensions>
			</trkpt>
			<trkpt lat="53.26104761" lon="-8.93909887">
				<ele>56.0</ele>
				<time>2014-08-17T15:41:57Z</time>
				<extensions>
					<speed>0.0</speed>
				</extensions>
			</trkpt>
			<trkpt lat="53.26104751" lon="-8.93910141">
				<ele>56.0</ele>
				<time>2014-08-17T15:41:58Z</time>
				<extensions>
					<speed>0.0</speed>
				</extensions>
			</trkpt>
			<trkpt lat="53.26104731" lon="-8.93910159">
				<ele>56.0</ele>
				<time>2014-08-17T15:41:59Z</time>
				<extensions>
					<speed>0.0</speed>
				</extensions>
			</trkpt>
			<trkpt lat="53.26104629" lon="-8.93910341">
				<ele>56.0</ele>
				<time>2014-08-17T15:42:00Z</time>
				<extensions>
					<speed>1.0</speed>
				</extensions>
			</trkpt>
			<trkpt lat="53.2610367" lon="-8.93912163">
				<ele>56.0</ele>
				<time>2014-08-17T15:42:01Z</time>
				<extensions>
					<speed>1.75</speed>
				</extensions>
			</trkpt>
			<trkpt lat="53.26101692" lon="-8.93914874">
				<ele>56.0</ele>
				<time>2014-08-17T15:42:02Z</time>
				<extensions>
					<speed>2.75</speed>
				</extensions>
			</trkpt>
			<trkpt lat="53.26099351" lon="-8.93918279">
				<ele>56.0</ele>
				<time>2014-08-17T15:42:03Z</time>
				<extensions>
					<speed>3.5</speed>
				</extensions>
			</trkpt>
			<trkpt lat="53.26097535" lon="-8.9392135">
				<ele>56.0</ele>
				<time>2014-08-17T15:42:04Z</time>
				<extensions>
					<speed>3.0</speed>
				</extensions>
			</trkpt>
			<trkpt lat="53.26095335" lon="-8.93924532">
				<ele>56.0</ele>
				<time>2014-08-17T15:42:05Z</time>
				<extensions>
					<speed>3.0</speed>
				</extensions>
			</trkpt>
			<trkpt lat="53.26093582" lon="-8.93927634">
				<ele>56.0</ele>
				<time>2014-08-17T15:42:06Z</time>
				<extensions>
					<speed>2.75</speed>
				</extensions>
			</trkpt>
			<trkpt lat="53.26091422" lon="-8.93931071">
				<ele>56.0</ele>
				<time>2014-08-17T15:42:07Z</time>
				<extensions>
					<speed>2.5</speed>
				</extensions>
			</trkpt>
			<trkpt lat="53.26090948" lon="-8.93932275">
				<ele>55.0</ele>
				<time>2014-08-17T15:42:08Z</time>
				<extensions>
					<speed>2.0</speed>
				</extensions>
			</trkpt>
			<trkpt lat="53.26089606" lon="-8.93933509">
				<ele>55.0</ele>
				<time>2014-08-17T15:42:09Z</time>
				<extensions>
					<speed>1.5</speed>
				</extensions>
			</trkpt>
			<trkpt lat="53.26088228" lon="-8.93935316">
				<ele>55.0</ele>
				<time>2014-08-17T15:42:10Z</time>
				<extensions>
					<speed>1.25</speed>
				</extensions>
			</trkpt>
			<trkpt lat="53.26087497" lon="-8.93936522">
				<ele>55.0</ele>
				<time>2014-08-17T15:42:11Z</time>
				<extensions>
					<speed>1.0</speed>
				</extensions>
			</trkpt>
			<trkpt lat="53.26087328" lon="-8.93936826">
				<ele>55.0</ele>
				<time>2014-08-17T15:42:12Z</time>
				<extensions>
					<speed>0.5</speed>
				</extensions>
			</trkpt>
			<trkpt lat="53.26086915" lon="-8.93937327">
				<ele>56.0</ele>
				<time>2014-08-17T15:42:13Z</time>
				<extensions>
					<speed>0.0</speed>
				</extensions>
			</trkpt>
			<trkpt lat="53.26086848" lon="-8.93937615">
				<ele>56.0</ele>
				<time>2014-08-17T15:42:14Z</time>
				<extensions>
					<speed>0.0</speed>
				</extensions>
			</trkpt>
			<trkpt lat="53.26086853" lon="-8.93937646">
				<ele>56.0</ele>
				<time>2014-08-17T15:42:15Z</time>
				<extensions>
					<speed>0.25</speed>
				</extensions>
			</trkpt>
			<trkpt lat="53.2608689" lon="-8.93937885">
				<ele>56.0</ele>
				<time>2014-08-17T15:42:16Z</time>
				<extensions>
					<speed>0.25</speed>
				</extensions>
			</trkpt>
			<trkpt lat="53.26086926" lon="-8.93938124">
				<ele>57.0</ele>
				<time>2014-08-17T15:42:17Z</time>
				<extensions>
					<speed>0.25</speed>
				</extensions>
			</trkpt>
			<trkpt lat="53.26088338" lon="-8.93938013">
				<ele>57.0</ele>
				<time>2014-08-17T15:42:18Z</time>
				<extensions>
					<speed>0.75</speed>
				</extensions>
			</trkpt>
			<trkpt lat="53.26086609" lon="-8.93937913">
				<ele>56.0</ele>
				<time>2014-08-17T15:42:19Z</time>
				<extensions>
					<speed>0.0</speed>
				</extensions>
			</trkpt>
			<trkpt lat="53.26086996" lon="-8.93938436">
				<ele>57.0</ele>
				<time>2014-08-17T15:42:20Z</time>
				<extensions>
					<speed>0.0</speed>
				</extensions>
			</trkpt>
			<trkpt lat="53.26087306" lon="-8.93938376">
				<ele>57.0</ele>
				<time>2014-08-17T15:42:21Z</time>
				<extensions>
					<speed>0.0</speed>
				</extensions>
			</trkpt>
			<trkpt lat="53.26087219" lon="-8.93938277">
				<ele>57.0</ele>
				<time>2014-08-17T15:42:22Z</time>
				<extensions>
					<speed>0.0</speed>
				</extensions>
			</trkpt>
			<trkpt lat="53.26087307" lon="-8.93938659">
				<ele>58.0</ele>
				<time>2014-08-17T15:42:23Z</time>
				<extensions>
					<speed>0.0</speed>
				</extensions>
			</trkpt>
			<trkpt lat="53.26087124" lon="-8.93938875">
				<ele>58.0</ele>
				<time>2014-08-17T15:42:24Z</time>
				<extensions>
					<speed>1.25</speed>
				</extensions>
			</trkpt>
			<trkpt lat="53.26084827" lon="-8.93940933">
				<ele>58.0</ele>
				<time>2014-08-17T15:42:25Z</time>
				<extensions>
					<speed>2.75</speed>
				</extensions>
			</trkpt>
			<trkpt lat="53.26081561" lon="-8.93941901">
				<ele>58.0</ele>
				<time>2014-08-17T15:42:26Z</time>
				<extensions>
					<speed>3.75</speed>
				</extensions>
			</trkpt>
			<trkpt lat="53.26078" lon="-8.93942051">
				<ele>58.0</ele>
				<time>2014-08-17T15:42:27Z</time>
				<extensions>
					<speed>3.25</speed>
				</extensions>
			</trkpt>
			<trkpt lat="53.26075041" lon="-8.93942152">
				<ele>58.0</ele>
				<time>2014-08-17T15:42:28Z</time>
				<extensions>
					<speed>3.0</speed>
				</extensions>
			</trkpt>
			<trkpt lat="53.26072405" lon="-8.93940448">
				<ele>58.0</ele>
				<time>2014-08-17T15:42:29Z</time>
				<extensions>
					<speed>3.0</speed>
				</extensions>
			</trkpt>
			<trkpt lat="53.26070166" lon="-8.93937685">
				<ele>58.0</ele>
				<time>2014-08-17T15:42:30Z</time>
				<extensions>
					<speed>3.0</speed>
				</extensions>
			</trkpt>
			<trkpt lat="53.2606816" lon="-8.93934447">
				<ele>59.0</ele>
				<time>2014-08-17T15:42:31Z</time>
				<extensions>
					<speed>3.5</speed>
				</extensions>
			</trkpt>
			<trkpt lat="53.26066095" lon="-8.93930763">
				<ele>59.0</ele>
				<time>2014-08-17T15:42:32Z</time>
				<extensions>
					<speed>3.25</speed>
				</extensions>
			</trkpt>
			<trkpt lat="53.26064968" lon="-8.93926703">
				<ele>60.0</ele>
				<time>2014-08-17T15:42:33Z</time>
				<extensions>
					<speed>3.25</speed>
				</extensions>
			</trkpt>
			<trkpt lat="53.26063854" lon="-8.93921198">
				<ele>60.0</ele>
				<time>2014-08-17T15:42:34Z</time>
				<extensions>
					<speed>4.25</speed>
				</extensions>
			</trkpt>
			<trkpt lat="53.2606288" lon="-8.93915371">
				<ele>61.0</ele>
				<time>2014-08-17T15:42:35Z</time>
				<extensions>
					<speed>4.75</speed>
				</extensions>
			</trkpt>
			<trkpt lat="53.26061428" lon="-8.93907649">
				<ele>62.0</ele>
				<time>2014-08-17T15:42:36Z</time>
				<extensions>
					<speed>5.5</speed>
				</extensions>
			</trkpt>
			<trkpt lat="53.26059808" lon="-8.93900189">
				<ele>62.0</ele>
				<time>2014-08-17T15:42:37Z</time>
				<extensions>
					<speed>5.5</speed>
				</extensions>
			</trkpt>
			<trkpt lat="53.26057737" lon="-8.93892519">
				<ele>62.0</ele>
				<time>2014-08-17T15:42:38Z</time>
				<extensions>
					<speed>5.25</speed>
				</extensions>
			</trkpt>
			<trkpt lat="53.26056382" lon="-8.93885535">
				<ele>62.0</ele>
				<time>2014-08-17T15:42:39Z</time>
				<extensions>
					<speed>5.0</speed>
				</extensions>
			</trkpt>
			<trkpt lat="53.26054719" lon="-8.9387832">
				<ele>61.0</ele>
				<time>2014-08-17T15:42:40Z</time>
				<extensions>
					<speed>4.25</speed>
				</extensions>
			</trkpt>
			<trkpt lat="53.26053004" lon="-8.93873532">
				<ele>61.0</ele>
				<time>2014-08-17T15:42:41Z</time>
				<extensions>
					<speed>3.5</speed>
				</extensions>
			</trkpt>
			<trkpt lat="53.26051415" lon="-8.93869743">
				<ele>61.0</ele>
				<time>2014-08-17T15:42:42Z</time>
				<extensions>
					<speed>2.75</speed>
				</extensions>
			</trkpt>
			<trkpt lat="53.26050854" lon="-8.93868014">
				<ele>62.0</ele>
				<time>2014-08-17T15:42:43Z</time>
				<extensions>
					<speed>2.0</speed>
				</extensions>
			</trkpt>
			<trkpt lat="53.26050112" lon="-8.9386639">
				<ele>62.0</ele>
				<time>2014-08-17T15:42:44Z</time>
				<extensions>
					<speed>1.75</speed>
				</extensions>
			</trkpt>
			<trkpt lat="53.26048933" lon="-8.93864312">
				<ele>62.0</ele>
				<time>2014-08-17T15:42:45Z</time>
				<extensions>
					<speed>1.75</speed>
				</extensions>
			</trkpt>
			<trkpt lat="53.2604755" lon="-8.93861233">
				<ele>62.0</ele>
				<time>2014-08-17T15:42:46Z</time>
				<extensions>
					<speed>2.25</speed>
				</extensions>
			</trkpt>
			<trkpt lat="53.26046392" lon="-8.93857791">
				<ele>62.0</ele>
				<time>2014-08-17T15:42:47Z</time>
				<extensions>
					<speed>2.75</speed>
				</extensions>
			</trkpt>
			<trkpt lat="53.26044729" lon="-8.93853882">
				<ele>62.0</ele>
				<time>2014-08-17T15:42:48Z</time>
				<extensions>
					<speed>3.5</speed>
				</extensions>
			</trkpt>
			<trkpt lat="53.26043089" lon="-8.93849282">
				<ele>62.0</ele>
				<time>2014-08-17T15:42:49Z</time>
				<extensions>
					<speed>3.5</speed>
				</extensions>
			</trkpt>
			<trkpt lat="53.26041585" lon="-8.93844426">
				<ele>61.0</ele>
				<time>2014-08-17T15:42:50Z</time>
				<extensions>
					<speed>3.5</speed>
				</extensions>
			</trkpt>
			<trkpt lat="53.2604018" lon="-8.93840283">
				<ele>62.0</ele>
				<time>2014-08-17T15:42:51Z</time>
				<extensions>
					<speed>3.25</speed>
				</extensions>
			</trkpt>
			<trkpt lat="53.26038464" lon="-8.93835459">
				<ele>63.0</ele>
				<time>2014-08-17T15:42:52Z</time>
				<extensions>
					<speed>3.0</speed>
				</extensions>
			</trkpt>
			<trkpt lat="53.26036822" lon="-8.93831596">
				<ele>63.0</ele>
				<time>2014-08-17T15:42:53Z</time>
				<extensions>
					<speed>2.75</speed>
				</extensions>
			</trkpt>
			<trkpt lat="53.26035478" lon="-8.9382821">
				<ele>63.0</ele>
				<time>2014-08-17T15:42:54Z</time>
				<extensions>
					<speed>2.5</speed>
				</extensions>
			</trkpt>
			<trkpt lat="53.26034397" lon="-8.93825264">
				<ele>63.0</ele>
				<time>2014-08-17T15:42:55Z</time>
				<extensions>
					<speed>2.5</speed>
				</extensions>
			</trkpt>
			<trkpt lat="53.26033116" lon="-8.93821546">
				<ele>63.0</ele>
				<time>2014-08-17T15:42:56Z</time>
				<extensions>
					<speed>2.75</speed>
				</extensions>
			</trkpt>
			<trkpt lat="53.26031514" lon="-8.93817741">
				<ele>63.0</ele>
				<time>2014-08-17T15:42:57Z</time>
				<extensions>
					<speed>3.0</speed>
				</extensions>
			</trkpt>
			<trkpt lat="53.26029179" lon="-8.9381439">
				<ele>62.0</ele>
				<time>2014-08-17T15:42:58Z</time>
				<extensions>
					<speed>3.5</speed>
				</extensions>
			</trkpt>
			<trkpt lat="53.26026507" lon="-8.93811325">
				<ele>62.0</ele>
				<time>2014-08-17T15:42:59Z</time>
				<extensions>
					<speed>3.75</speed>
				</extensions>
			</trkpt>
			<trkpt lat="53.2602479" lon="-8.93807586">
				<ele>63.0</ele>
				<time>2014-08-17T15:43:00Z</time>
				<extensions>
					<speed>3.5</speed>
				</extensions>
			</trkpt>
			<trkpt lat="53.26024868" lon="-8.93802679">
				<ele>63.0</ele>
				<time>2014-08-17T15:43:01Z</time>
				<extensions>
					<speed>3.0</speed>
				</extensions>
			</trkpt>
			<trkpt lat="53.26026279" lon="-8.93798973">
				<ele>63.0</ele>
				<time>2014-08-17T15:43:02Z</time>
				<extensions>
					<speed>2.75</speed>
				</extensions>
			</trkpt>
			<trkpt lat="53.26027777" lon="-8.93797581">
				<ele>62.0</ele>
				<time>2014-08-17T15:43:03Z</time>
				<extensions>
					<speed>2.25</speed>
				</extensions>
			</trkpt>
			<trkpt lat="53.26029739" lon="-8.93797401">
				<ele>63.0</ele>
				<time>2014-08-17T15:43:04Z</time>
				<extensions>
					<speed>1.75</speed>
				</extensions>
			</trkpt>
			<trkpt lat="53.26031161" lon="-8.93798272">
				<ele>63.0</ele>
				<time>2014-08-17T15:43:05Z</time>
				<extensions>
					<speed>1.5</speed>
				</extensions>
			</trkpt>
			<trkpt lat="53.26032607" lon="-8.93799042">
				<ele>62.0</ele>
				<time>2014-08-17T15:43:06Z</time>
				<extensions>
					<speed>1.5</speed>
				</extensions>
			</trkpt>
			<trkpt lat="53.26032746" lon="-8.93800033">
				<ele>63.0</ele>
				<time>2014-08-17T15:43:07Z</time>
				<extensions>
					<speed>0.75</speed>
				</extensions>
			</trkpt>
			<trkpt lat="53.2603346" lon="-8.93800571">
				<ele>63.0</ele>
				<time>2014-08-17T15:43:08Z</time>
				<extensions>
					<speed>0.5</speed>
				</extensions>
			</trkpt>
			<trkpt lat="53.26033761" lon="-8.93801116">
				<ele>63.0</ele>
				<time>2014-08-17T15:43:09Z</time>
				<extensions>
					<speed>0.0</speed>
				</extensions>
			</trkpt>
			<trkpt lat="53.26033678" lon="-8.93801694">
				<ele>64.0</ele>
				<time>2014-08-17T15:43:10Z</time>
				<extensions>
					<speed>0.0</speed>
				</extensions>
			</trkpt>
			<trkpt lat="53.26033529" lon="-8.93801731">
				<ele>64.0</ele>
				<time>2014-08-17T15:43:11Z</time>
				<extensions>
					<speed>0.0</speed>
				</extensions>
			</trkpt>
			<trkpt lat="53.26033447" lon="-8.93801634">
				<ele>64.0</ele>
				<time>2014-08-17T15:43:12Z</time>
				<extensions>
					<speed>1.0</speed>
				</extensions>
			</trkpt>
			<trkpt lat="53.26032176" lon="-8.93801087">
				<ele>63.0</ele>
				<time>2014-08-17T15:43:13Z</time>
				<extensions>
					<speed>1.0</speed>
				</extensions>
			</trkpt>
			<trkpt lat="53.2603148" lon="-8.93800109">
				<ele>64.0</ele>
				<time>2014-08-17T15:43:14Z</time>
				<extensions>
					<speed>1.0</speed>
				</extensions>
			</trkpt>
			<trkpt lat="53.26032073" lon="-8.93799209">
				<ele>65.0</ele>
				<time>2014-08-17T15:43:15Z</time>
				<extensions>
					<speed>0.0</speed>
				</extensions>
			</trkpt>
			<trkpt lat="53.26031819" lon="-8.93799283">
				<ele>66.0</ele>
				<time>2014-08-17T15:43:16Z</time>
				<extensions>
					<speed>0.0</speed>
				</extensions>
			</trkpt>
			<trkpt lat="53.2603176" lon="-8.93799609">
				<ele>65.0</ele>
				<time>2014-08-17T15:43:17Z</time>
				<extensions>
					<speed>0.0</speed>
				</extensions>
			</trkpt>
			<trkpt lat="53.26031777" lon="-8.93799789">
				<ele>65.0</ele>
				<time>2014-08-17T15:43:18Z</time>
				<extensions>
					<speed>0.0</speed>
				</extensions>
			</trkpt>
			<trkpt lat="53.26031779" lon="-8.93799785">
				<ele>65.0</ele>
				<time>2014-08-17T15:43:19Z</time>
				<extensions>
					<speed>0.0</speed>
				</extensions>
			</trkpt>
			<trkpt lat="53.26031838" lon="-8.93800031">
				<ele>65.0</ele>
				<time>2014-08-17T15:43:20Z</time>
				<extensions>
					<speed>0.0</speed>
				</extensions>
			</trkpt>
			<trkpt lat="53.26031883" lon="-8.93800299">
				<ele>65.0</ele>
				<time>2014-08-17T15:43:21Z</time>
				<extensions>
					<speed>1.0</speed>
				</extensions>
			</trkpt>
			<trkpt lat="53.26032338" lon="-8.93803682">
				<ele>65.0</ele>
				<time>2014-08-17T15:43:22Z</time>
				<extensions>
					<speed>2.5</speed>
				</extensions>
			</trkpt>
			<trkpt lat="53.26032419" lon="-8.93808895">
				<ele>64.0</ele>
				<time>2014-08-17T15:43:23Z</time>
				<extensions>
					<speed>3.75</speed>
				</extensions>
			</trkpt>
			<trkpt lat="53.2603347" lon="-8.93814999">
				<ele>65.0</ele>
				<time>2014-08-17T15:43:24Z</time>
				<extensions>
					<speed>4.0</speed>
				</extensions>
			</trkpt>
			<trkpt lat="53.26034995" lon="-8.93821096">
				<ele>64.0</ele>
				<time>2014-08-17T15:43:25Z</time>
				<extensions>
					<speed>4.5</speed>
				</extensions>
			</trkpt>
			<trkpt lat="53.2603648" lon="-8.93828305">
				<ele>65.0</ele>
				<time>2014-08-17T15:43:26Z</time>
				<extensions>
					<speed>5.75</speed>
				</extensions>
			</trkpt>
			<trkpt lat="53.26038754" lon="-8.93837228">
				<ele>65.0</ele>
				<time>2014-08-17T15:43:27Z</time>
				<extensions>
					<speed>6.5</speed>
				</extensions>
			</trkpt>
			<trkpt lat="53.26041275" lon="-8.9384677">
				<ele>64.0</ele>
				<time>2014-08-17T15:43:28Z</time>
				<extensions>
					<speed>7.25</speed>
				</extensions>
			</trkpt>
			<trkpt lat="53.26044873" lon="-8.93855056">
				<ele>63.0</ele>
				<time>2014-08-17T15:43:29Z</time>
				<extensions>
					<speed>7.0</speed>
				</extensions>
			</trkpt>
			<trkpt lat="53.26047815" lon="-8.93865187">
				<ele>64.0</ele>
				<time>2014-08-17T15:43:30Z</time>
				<extensions>
					<speed>7.25</speed>
				</extensions>
			</trkpt>
			<trkpt lat="53.26050742" lon="-8.93874934">
				<ele>63.0</ele>
				<time>2014-08-17T15:43:31Z</time>
				<extensions>
					<speed>7.25</speed>
				</extensions>
			</trkpt>
			<trkpt lat="53.2605372" lon="-8.93884606">
				<ele>63.0</ele>
				<time>2014-08-17T15:43:32Z</time>
				<extensions>
					<speed>7.5</speed>
				</extensions>
			</trkpt>
			<trkpt lat="53.26056719" lon="-8.93895207">
				<ele>62.0</ele>
				<time>2014-08-17T15:43:33Z</time>
				<extensions>
					<speed>7.5</speed>
				</extensions>
			</trkpt>
			<trkpt lat="53.26059263" lon="-8.93904282">
				<ele>62.0</ele>
				<time>2014-08-17T15:43:34Z</time>
				<extensions>
					<speed>7.5</speed>
				</extensions>
			</trkpt>
			<trkpt lat="53.26062433" lon="-8.93914562">
				<ele>61.0</ele>
				<time>2014-08-17T15:43:35Z</time>
				<extensions>
					<speed>7.25</speed>
				</extensions>
			</trkpt>
			<trkpt lat="53.26064769" lon="-8.93924769">
				<ele>61.0</ele>
				<time>2014-08-17T15:43:36Z</time>
				<extensions>
					<speed>7.25</speed>
				</extensions>
			</trkpt>
			<trkpt lat="53.26067798" lon="-8.93934616">
				<ele>60.0</ele>
				<time>2014-08-17T15:43:37Z</time>
				<extensions>
					<speed>7.0</speed>
				</extensions>
			</trkpt>
			<trkpt lat="53.26072734" lon="-8.93941281">
				<ele>61.0</ele>
				<time>2014-08-17T15:43:38Z</time>
				<extensions>
					<speed>7.0</speed>
				</extensions>
			</trkpt>
			<trkpt lat="53.26077997" lon="-8.93945161">
				<ele>61.0</ele>
				<time>2014-08-17T15:43:39Z</time>
				<extensions>
					<speed>6.75</speed>
				</extensions>
			</trkpt>
			<trkpt lat="53.2608358" lon="-8.93945416">
				<ele>60.0</ele>
				<time>2014-08-17T15:43:40Z</time>
				<extensions>
					<speed>6.5</speed>
				</extensions>
			</trkpt>
			<trkpt lat="53.26089303" lon="-8.93940095">
				<ele>60.0</ele>
				<time>2014-08-17T15:43:41Z</time>
				<extensions>
					<speed>6.5</speed>
				</extensions>
			</trkpt>
			<trkpt lat="53.26093353" lon="-8.93932609">
				<ele>60.0</ele>
				<time>2014-08-17T15:43:42Z</time>
				<extensions>
					<speed>6.25</speed>
				</extensions>
			</trkpt>
			<trkpt lat="53.26097706" lon="-8.93926833">
				<ele>60.0</ele>
				<time>2014-08-17T15:43:43Z</time>
				<extensions>
					<speed>6.25</speed>
				</extensions>
			</trkpt>
			<trkpt lat="53.26102025" lon="-8.9392002">
				<ele>61.0</ele>
				<time>2014-08-17T15:43:44Z</time>
				<extensions>
					<speed>6.75</speed>
				</extensions>
			</trkpt>
			<trkpt lat="53.26105856" lon="-8.93913355">
				<ele>60.0</ele>
				<time>2014-08-17T15:43:45Z</time>
				<extensions>
					<speed>7.0</speed>
				</extensions>
			</trkpt>
			<trkpt lat="53.26109835" lon="-8.93906668">
				<ele>59.0</ele>
				<time>2014-08-17T15:43:46Z</time>
				<extensions>
					<speed>7.0</speed>
				</extensions>
			</trkpt>
			<trkpt lat="53.26114505" lon="-8.9390019">
				<ele>59.0</ele>
				<time>2014-08-17T15:43:47Z</time>
				<extensions>
					<speed>7.0</speed>
				</extensions>
			</trkpt>
			<trkpt lat="53.26118581" lon="-8.938929">
				<ele>59.0</ele>
				<time>2014-08-17T15:43:48Z</time>
				<extensions>
					<speed>6.75</speed>
				</extensions>
			</trkpt>
			<trkpt lat="53.26123572" lon="-8.93885095">
				<ele>60.0</ele>
				<time>2014-08-17T15:43:49Z</time>
				<extensions>
					<speed>6.75</speed>
				</extensions>
			</trkpt>
			<trkpt lat="53.2612803" lon="-8.93878995">
				<ele>59.0</ele>
				<time>2014-08-17T15:43:50Z</time>
				<extensions>
					<speed>6.5</speed>
				</extensions>
			</trkpt>
			<trkpt lat="53.26131899" lon="-8.93870813">
				<ele>60.0</ele>
				<time>2014-08-17T15:43:51Z</time>
				<extensions>
					<speed>6.0</speed>
				</extensions>
			</trkpt>
			<trkpt lat="53.26134827" lon="-8.93863083">
				<ele>59.0</ele>
				<time>2014-08-17T15:43:52Z</time>
				<extensions>
					<speed>5.75</speed>
				</extensions>
			</trkpt>
			<trkpt lat="53.26136418" lon="-8.93855322">
				<ele>59.0</ele>
				<time>2014-08-17T15:43:53Z</time>
				<extensions>
					<speed>5.75</speed>
				</extensions>
			</trkpt>
			<trkpt lat="53.26134175" lon="-8.93850278">
				<ele>60.0</ele>
				<time>2014-08-17T15:43:54Z</time>
				<extensions>
					<speed>5.0</speed>
				</extensions>
			</trkpt>
			<trkpt lat="53.26131943" lon="-8.93844912">
				<ele>60.0</ele>
				<time>2014-08-17T15:43:55Z</time>
				<extensions>
					<speed>5.0</speed>
				</extensions>
			</trkpt>
			<trkpt lat="53.26129501" lon="-8.93839431">
				<ele>60.0</ele>
				<time>2014-08-17T15:43:56Z</time>
				<extensions>
					<speed>4.75</speed>
				</extensions>
			</trkpt>
			<trkpt lat="53.26126386" lon="-8.93833963">
				<ele>62.0</ele>
				<time>2014-08-17T15:43:57Z</time>
				<extensions>
					<speed>5.0</speed>
				</extensions>
			</trkpt>
			<trkpt lat="53.26123569" lon="-8.93828257">
				<ele>61.0</ele>
				<time>2014-08-17T15:43:58Z</time>
				<extensions>
					<speed>4.5</speed>
				</extensions>
			</trkpt>
			<trkpt lat="53.26122131" lon="-8.93822974">
				<ele>60.0</ele>
				<time>2014-08-17T15:43:59Z</time>
				<extensions>
					<speed>3.5</speed>
				</extensions>
			</trkpt>
			<trkpt lat="53.26120522" lon="-8.93820798">
				<ele>60.0</ele>
				<time>2014-08-17T15:44:00Z</time>
				<extensions>
					<speed>2.0</speed>
				</extensions>
			</trkpt>
			<trkpt lat="53.26120335" lon="-8.93818363">
				<ele>61.0</ele>
				<time>2014-08-17T15:44:01Z</time>
				<extensions>
					<speed>1.25</speed>
				</extensions>
			</trkpt>
			<trkpt lat="53.26119881" lon="-8.93817736">
				<ele>61.0</ele>
				<time>2014-08-17T15:44:02Z</time>
				<extensions>
					<speed>0.5</speed>
				</extensions>
			</trkpt>
			<trkpt lat="53.261191" lon="-8.93819143">
				<ele>61.0</ele>
				<time>2014-08-17T15:44:03Z</time>
				<extensions>
					<speed>0.0</speed>
				</extensions>
			</trkpt>
			<trkpt lat="53.26118963" lon="-8.93819469">
				<ele>61.0</ele>
				<time>2014-08-17T15:44:04Z</time>
				<extensions>
					<speed>0.0</speed>
				</extensions>
			</trkpt>
			<trkpt lat="53.26118535" lon="-8.93819453">
				<ele>60.0</ele>
				<time>2014-08-17T15:44:05Z</time>
				<extensions>
					<speed>0.0</speed>
				</extensions>
			</trkpt>
			<trkpt lat="53.26118503" lon="-8.93819532">
				<ele>61.0</ele>
				<time>2014-08-17T15:44:06Z</time>
				<extensions>
					<speed>0.0</speed>
				</extensions>
			</trkpt>
			<trkpt lat="53.26118497" lon="-8.93819494">
				<ele>61.0</ele>
				<time>2014-08-17T15:44:07Z</time>
				<extensions>
					<speed>0.25</speed>
				</extensions>
			</trkpt>
			<trkpt lat="53.26118323" lon="-8.93819797">
				<ele>61.0</ele>
				<time>2014-08-17T15:44:08Z</time>
				<extensions>
					<speed>0.0</speed>
				</extensions>
			</trkpt>
			<trkpt lat="53.26118114" lon="-8.93820173">
				<ele>60.0</ele>
				<time>2014-08-17T15:44:09Z</time>
				<extensions>
					<speed>0.0</speed>
				</extensions>
			</trkpt>
			<trkpt lat="53.26117688" lon="-8.9382066">
				<ele>60.0</ele>
				<time>2014-08-17T15:44:10Z</time>
				<extensions>
					<speed>0.0</speed>
				</extensions>
			</trkpt>
			<trkpt lat="53.26118002" lon="-8.93820443">
				<ele>60.0</ele>
				<time>2014-08-17T15:44:11Z</time>
				<extensions>
					<speed>0.0</speed>
				</extensions>
			</trkpt>
			<trkpt lat="53.26117916" lon="-8.93820116">
				<ele>60.0</ele>
				<time>2014-08-17T15:44:12Z</time>
				<extensions>
					<speed>1.75</speed>
				</extensions>
			</trkpt>
			<trkpt lat="53.26116875" lon="-8.93817558">
				<ele>60.0</ele>
				<time>2014-08-17T15:44:13Z</time>
				<extensions>
					<speed>2.25</speed>
				</extensions>
			</trkpt>
			<trkpt lat="53.26115907" lon="-8.93814451">
				<ele>61.0</ele>
				<time>2014-08-17T15:44:14Z</time>
				<extensions>
					<speed>2.25</speed>
				</extensions>
			</trkpt>
			<trkpt lat="53.26115322" lon="-8.93811645">
				<ele>61.0</ele>
				<time>2014-08-17T15:44:15Z</time>
				<extensions>
					<speed>2.25</speed>
				</extensions>
			</trkpt>
			<trkpt lat="53.26115077" lon="-8.93809174">
				<ele>61.0</ele>
				<time>2014-08-17T15:44:16Z</time>
				<extensions>
					<speed>1.5</speed>
				</extensions>
			</trkpt>
			<trkpt lat="53.26114271" lon="-8.93807273">
				<ele>62.0</ele>
				<time>2014-08-17T15:44:17Z</time>
				<extensions>
					<speed>1.25</speed>
				</extensions>
			</trkpt>
			<trkpt lat="53.26113397" lon="-8.93805615">
				<ele>61.0</ele>
				<time>2014-08-17T15:44:18Z</time>
				<extensions>
					<speed>1.75</speed>
				</extensions>
			</trkpt>
			<trkpt lat="53.26112249" lon="-8.93803272">
				<ele>61.0</ele>
				<time>2014-08-17T15:44:19Z</time>
				<extensions>
					<speed>2.5</speed>
				</extensions>
			</trkpt>
			<trkpt lat="53.26111001" lon="-8.93800492">
				<ele>62.0</ele>
				<time>2014-08-17T15:44:20Z</time>
				<extensions>
					<speed>2.5</speed>
				</extensions>
			</trkpt>
			<trkpt lat="53.26109758" lon="-8.93797674">
				<ele>62.0</ele>
				<time>2014-08-17T15:44:21Z</time>
				<extensions>
					<speed>2.5</speed>
				</extensions>
			</trkpt>
			<trkpt lat="53.26108899" lon="-8.93794913">
				<ele>61.0</ele>
				<time>2014-08-17T15:44:22Z</time>
				<extensions>
					<speed>2.25</speed>
				</extensions>
			</trkpt>
			<trkpt lat="53.26108335" lon="-8.93791413">
				<ele>60.0</ele>
				<time>2014-08-17T15:44:23Z</time>
				<extensions>
					<speed>1.75</speed>
				</extensions>
			</trkpt>
			<trkpt lat="53.26107009" lon="-8.93788453">
				<ele>60.0</ele>
				<time>2014-08-17T15:44:24Z</time>
				<extensions>
					<speed>1.5</speed>
				</extensions>
			</trkpt>
			<trkpt lat="53.26106437" lon="-8.93786638">
				<ele>60.0</ele>
				<time>2014-08-17T15:44:25Z</time>
				<extensions>
					<speed>1.0</speed>
				</extensions>
			</trkpt>
			<trkpt lat="53.26105868" lon="-8.93785408">
				<ele>61.0</ele>
				<time>2014-08-17T15:44:26Z</time>
				<extensions>
					<speed>0.75</speed>
				</extensions>
			</trkpt>
			<trkpt lat="53.26104531" lon="-8.93786456">
				<ele>62.0</ele>
				<time>2014-08-17T15:44:27Z</time>
				<extensions>
					<speed>0.0</speed>
				</extensions>
			</trkpt>
			<trkpt lat="53.26104611" lon="-8.93786298">
				<ele>62.0</ele>
				<time>2014-08-17T15:44:28Z</time>
				<extensions>
					<speed>0.0</speed>
				</extensions>
			</trkpt>
			<trkpt lat="53.26104681" lon="-8.93786332">
				<ele>61.0</ele>
				<time>2014-08-17T15:44:29Z</time>
				<extensions>
					<speed>0.0</speed>
				</extensions>
			</trkpt>
			<trkpt lat="53.26104573" lon="-8.93785874">
				<ele>61.0</ele>
				<time>2014-08-17T15:44:30Z</time>
				<extensions>
					<speed>0.0</speed>
				</extensions>
			</trkpt>
			<trkpt lat="53.26104462" lon="-8.93785979">
				<ele>61.0</ele>
				<time>2014-08-17T15:44:31Z</time>
				<extensions>
					<speed>0.0</speed>
				</extensions>
			</trkpt>
			<trkpt lat="53.26104387" lon="-8.93785976">
				<ele>61.0</ele>
				<time>2014-08-17T15:44:32Z</time>
				<extensions>
					<speed>0.0</speed>
				</extensions>
			</trkpt>
			<trkpt lat="53.26104441" lon="-8.93785959">
				<ele>61.0</ele>
				<time>2014-08-17T15:44:33Z</time>
				<extensions>
					<speed>0.0</speed>
				</extensions>
			</trkpt>
			<trkpt lat="53.26104356" lon="-8.93785592">
				<ele>61.0</ele>
				<time>2014-08-17T15:44:34Z</time>
				<extensions>
					<speed>0.0</speed>
				</extensions>
			</trkpt>
			<trkpt lat="53.26104351" lon="-8.93785447">
				<ele>61.0</ele>
				<time>2014-08-17T15:44:35Z</time>
				<extensions>
					<speed>0.0</speed>
				</extensions>
			</trkpt>
			<trkpt lat="53.26104419" lon="-8.93785469">
				<ele>61.0</ele>
				<time>2014-08-17T15:44:36Z</time>
				<extensions>
					<speed>0.0</speed>
				</extensions>
			</trkpt>
			<trkpt lat="53.26104449" lon="-8.93785498">
				<ele>61.0</ele>
				<time>2014-08-17T15:44:37Z</time>
				<extensions>
					<speed>0.0</speed>
				</extensions>
			</trkpt>
			<trkpt lat="53.26104468" lon="-8.93785463">
				<ele>61.0</ele>
				<time>2014-08-17T15:44:38Z</time>
				<extensions>
					<speed>0.0</speed>
				</extensions>
			</trkpt>
			<trkpt lat="53.26104509" lon="-8.93785454">
				<ele>61.0</ele>
				<time>2014-08-17T15:44:39Z</time>
				<extensions>
					<speed>0.0</speed>
				</extensions>
			</trkpt>
			<trkpt lat="53.26104503" lon="-8.9378543">
				<ele>62.0</ele>
				<time>2014-08-17T15:44:40Z</time>
				<extensions>
					<speed>0.0</speed>
				</extensions>
			</trkpt>
			<trkpt lat="53.26104516" lon="-8.93785428">
				<ele>62.0</ele>
				<time>2014-08-17T15:44:41Z</time>
				<extensions>
					<speed>0.0</speed>
				</extensions>
			</trkpt>
			<trkpt lat="53.26104512" lon="-8.93785398">
				<ele>62.0</ele>
				<time>2014-08-17T15:44:42Z</time>
				<extensions>
					<speed>0.0</speed>
				</extensions>
			</trkpt>
			<trkpt lat="53.2610451" lon="-8.93785396">
				<ele>62.0</ele>
				<time>2014-08-17T15:44:43Z</time>
				<extensions>
					<speed>0.0</speed>
				</extensions>
			</trkpt>
			<trkpt lat="53.26104513" lon="-8.93785395">
				<ele>62.0</ele>
				<time>2014-08-17T15:44:44Z</time>
				<extensions>
					<speed>0.0</speed>
				</extensions>
			</trkpt>
			<trkpt lat="53.26104516" lon="-8.93785399">
				<ele>62.0</ele>
				<time>2014-08-17T15:44:45Z</time>
				<extensions>
					<speed>0.0</speed>
				</extensions>
			</trkpt>
			<trkpt lat="53.26104519" lon="-8.93785402">
				<ele>62.0</ele>
				<time>2014-08-17T15:44:46Z</time>
				<extensions>
					<speed>0.0</speed>
				</extensions>
			</trkpt>
			<trkpt lat="53.2610452" lon="-8.93785402">
				<ele>62.0</ele>
				<time>2014-08-17T15:44:47Z</time>
				<extensions>
					<speed>0.0</speed>
				</extensions>
			</trkpt>
			<trkpt lat="53.26104521" lon="-8.93785405">
				<ele>62.0</ele>
				<time>2014-08-17T15:44:48Z</time>
				<extensions>
					<speed>0.0</speed>
				</extensions>
			</trkpt>
			<trkpt lat="53.26104521" lon="-8.93785403">
				<ele>62.0</ele>
				<time>2014-08-17T15:44:49Z</time>
				<extensions>
					<speed>0.0</speed>
				</extensions>
			</trkpt>
			<trkpt lat="53.26104524" lon="-8.93785405">
				<ele>62.0</ele>
				<time>2014-08-17T15:44:50Z</time>
				<extensions>
					<speed>0.0</speed>
				</extensions>
			</trkpt>
			<trkpt lat="53.26104521" lon="-8.937854">
				<ele>62.0</ele>
				<time>2014-08-17T15:44:51Z</time>
				<extensions>
					<speed>0.0</speed>
				</extensions>
			</trkpt>
			<trkpt lat="53.2610452" lon="-8.93785401">
				<ele>62.0</ele>
				<time>2014-08-17T15:44:52Z</time>
				<extensions>
					<speed>0.0</speed>
				</extensions>
			</trkpt>
			<trkpt lat="53.26104521" lon="-8.93785401">
				<ele>62.0</ele>
				<time>2014-08-17T15:44:53Z</time>
				<extensions>
					<speed>0.0</speed>
				</extensions>
			</trkpt>
			<trkpt lat="53.2610452" lon="-8.937854">
				<ele>62.0</ele>
				<time>2014-08-17T15:44:54Z</time>
				<extensions>
					<speed>0.0</speed>
				</extensions>
			</trkpt>
			<trkpt lat="53.2610452" lon="-8.93785402">
				<ele>62.0</ele>
				<time>2014-08-17T15:44:55Z</time>
				<extensions>
					<speed>0.0</speed>
				</extensions>
			</trkpt>
			<trkpt lat="53.2610452" lon="-8.93785408">
				<ele>62.0</ele>
				<time>2014-08-17T15:44:56Z</time>
				<extensions>
					<speed>0.0</speed>
				</extensions>
			</trkpt>
			<trkpt lat="53.26104521" lon="-8.9378541">
				<ele>62.0</ele>
				<time>2014-08-17T15:44:57Z</time>
				<extensions>
					<speed>0.0</speed>
				</extensions>
			</trkpt>
			<trkpt lat="53.26104524" lon="-8.9378541">
				<ele>62.0</ele>
				<time>2014-08-17T15:44:58Z</time>
				<extensions>
					<speed>0.0</speed>
				</extensions>
			</trkpt>
			<trkpt lat="53.26104526" lon="-8.93785412">
				<ele>62.0</ele>
				<time>2014-08-17T15:44:59Z</time>
				<extensions>
					<speed>0.0</speed>
				</extensions>
			</trkpt>
			<trkpt lat="53.26104524" lon="-8.9378541">
				<ele>62.0</ele>
				<time>2014-08-17T15:45:00Z</time>
				<extensions>
					<speed>0.0</speed>
				</extensions>
			</trkpt>
			<trkpt lat="53.2610452" lon="-8.93785414">
				<ele>62.0</ele>
				<time>2014-08-17T15:45:01Z</time>
				<extensions>
					<speed>0.0</speed>
				</extensions>
			</trkpt>
			<trkpt lat="53.26104524" lon="-8.93785413">
				<ele>62.0</ele>
				<time>2014-08-17T15:45:02Z</time>
				<extensions>
					<speed>0.0</speed>
				</extensions>
			</trkpt>
			<trkpt lat="53.26104523" lon="-8.93785409">
				<ele>62.0</ele>
				<time>2014-08-17T15:45:03Z</time>
				<extensions>
					<speed>0.0</speed>
				</extensions>
			</trkpt>
			<trkpt lat="53.26104372" lon="-8.93785156">
				<ele>62.0</ele>
				<time>2014-08-17T15:45:04Z</time>
				<extensions>
					<speed>1.75</speed>
				</extensions>
			</trkpt>
			<trkpt lat="53.26103708" lon="-8.93781571">
				<ele>61.0</ele>
				<time>2014-08-17T15:45:05Z</time>
				<extensions>
					<speed>2.5</speed>
				</extensions>
			</trkpt>
			<trkpt lat="53.26102637" lon="-8.93777904">
				<ele>62.0</ele>
				<time>2014-08-17T15:45:06Z</time>
				<extensions>
					<speed>3.0</speed>
				</extensions>
			</trkpt>
			<trkpt lat="53.26100985" lon="-8.93774147">
				<ele>63.0</ele>
				<time>2014-08-17T15:45:07Z</time>
				<extensions>
					<speed>3.5</speed>
				</extensions>
			</trkpt>
			<trkpt lat="53.26098803" lon="-8.93768834">
				<ele>63.0</ele>
				<time>2014-08-17T15:45:08Z</time>
				<extensions>
					<speed>3.75</speed>
				</extensions>
			</trkpt>
			<trkpt lat="53.26096508" lon="-8.93764068">
				<ele>64.0</ele>
				<time>2014-08-17T15:45:09Z</time>
				<extensions>
					<speed>3.5</speed>
				</extensions>
			</trkpt>
			<trkpt lat="53.26094358" lon="-8.93760928">
				<ele>64.0</ele>
				<time>2014-08-17T15:45:10Z</time>
				<extensions>
					<speed>3.5</speed>
				</extensions>
			</trkpt>
			<trkpt lat="53.26091825" lon="-8.93758971">
				<ele>63.0</ele>
				<time>2014-08-17T15:45:11Z</time>
				<extensions>
					<speed>3.25</speed>
				</extensions>
			</trkpt>
			<trkpt lat="53.26089813" lon="-8.9375642">
				<ele>63.0</ele>
				<time>2014-08-17T15:45:12Z</time>
				<extensions>
					<speed>2.5</speed>
				</extensions>
			</trkpt>
			<trkpt lat="53.26088084" lon="-8.93753337">
				<ele>63.0</ele>
				<time>2014-08-17T15:45:13Z</time>
				<extensions>
					<speed>2.5</speed>
				</extensions>
			</trkpt>
			<trkpt lat="53.26087507" lon="-8.93750723">
				<ele>64.0</ele>
				<time>2014-08-17T15:45:14Z</time>
				<extensions>
					<speed>2.0</speed>
				</extensions>
			</trkpt>
			<trkpt lat="53.26087657" lon="-8.93747834">
				<ele>64.0</ele>
				<time>2014-08-17T15:45:15Z</time>
				<extensions>
					<speed>1.75</speed>
				</extensions>
			</trkpt>
			<trkpt lat="53.26088266" lon="-8.93745791">
				<ele>64.0</ele>
				<time>2014-08-17T15:45:16Z</time>
				<extensions>
					<speed>1.25</speed>
				</extensions>
			</trkpt>
			<trkpt lat="53.26089355" lon="-8.93743511">
				<ele>64.0</ele>
				<time>2014-08-17T15:45:17Z</time>
				<extensions>
					<speed>1.75</speed>
				</extensions>
			</trkpt>
			<trkpt lat="53.26090921" lon="-8.93742529">
				<ele>64.0</ele>
				<time>2014-08-17T15:45:18Z</time>
				<extensions>
					<speed>2.0</speed>
				</extensions>
			</trkpt>
			<trkpt lat="53.26091849" lon="-8.93742405">
				<ele>64.0</ele>
				<time>2014-08-17T15:45:19Z</time>
				<extensions>
					<speed>2.0</speed>
				</extensions>
			</trkpt>
			<trkpt lat="53.26093437" lon="-8.93742357">
				<ele>64.0</ele>
				<time>2014-08-17T15:45:20Z</time>
				<extensions>
					<speed>1.5</speed>
				</extensions>
			</trkpt>
			<trkpt lat="53.26094231" lon="-8.93743041">
				<ele>64.0</ele>
				<time>2014-08-17T15:45:21Z</time>
				<extensions>
					<speed>0.25</speed>
				</extensions>
			</trkpt>
			<trkpt lat="53.26094487" lon="-8.93743058">
				<ele>64.0</ele>
				<time>2014-08-17T15:45:22Z</time>
				<extensions>
					<speed>0.0</speed>
				</extensions>
			</trkpt>
			<trkpt lat="53.26094675" lon="-8.93742868">
				<ele>63.0</ele>
				<time>2014-08-17T15:45:23Z</time>
				<extensions>
					<speed>0.0</speed>
				</extensions>
			</trkpt>
			<trkpt lat="53.26094515" lon="-8.93743013">
				<ele>64.0</ele>
				<time>2014-08-17T15:45:24Z</time>
				<extensions>
					<speed>0.0</speed>
				</extensions>
			</trkpt>
			<trkpt lat="53.26094619" lon="-8.93743173">
				<ele>63.0</ele>
				<time>2014-08-17T15:45:25Z</time>
				<extensions>
					<speed>0.0</speed>
				</extensions>
			</trkpt>
			<trkpt lat="53.2609464" lon="-8.93742987">
				<ele>63.0</ele>
				<time>2014-08-17T15:45:26Z</time>
				<extensions>
					<speed>0.0</speed>
				</extensions>
			</trkpt>
			<trkpt lat="53.26094753" lon="-8.93742841">
				<ele>63.0</ele>
				<time>2014-08-17T15:45:27Z</time>
				<extensions>
					<speed>0.0</speed>
				</extensions>
			</trkpt>
			<trkpt lat="53.26094718" lon="-8.93742647">
				<ele>63.0</ele>
				<time>2014-08-17T15:45:28Z</time>
				<extensions>
					<speed>0.0</speed>
				</extensions>
			</trkpt>
			<trkpt lat="53.26094787" lon="-8.93742534">
				<ele>63.0</ele>
				<time>2014-08-17T15:45:29Z</time>
				<extensions>
					<speed>0.0</speed>
				</extensions>
			</trkpt>
			<trkpt lat="53.26094892" lon="-8.93742432">
				<ele>63.0</ele>
				<time>2014-08-17T15:45:30Z</time>
				<extensions>
					<speed>0.0</speed>
				</extensions>
			</trkpt>
			<trkpt lat="53.26094951" lon="-8.93742346">
				<ele>63.0</ele>
				<time>2014-08-17T15:45:31Z</time>
				<extensions>
					<speed>0.0</speed>
				</extensions>
			</trkpt>
			<trkpt lat="53.26094984" lon="-8.93742299">
				<ele>63.0</ele>
				<time>2014-08-17T15:45:32Z</time>
				<extensions>
					<speed>0.0</speed>
				</extensions>
			</trkpt>
			<trkpt lat="53.2609497" lon="-8.93742206">
				<ele>63.0</ele>
				<time>2014-08-17T15:45:33Z</time>
				<extensions>
					<speed>0.0</speed>
				</extensions>
			</trkpt>
			<trkpt lat="53.26094919" lon="-8.93742119">
				<ele>63.0</ele>
				<time>2014-08-17T15:45:34Z</time>
				<extensions>
					<speed>0.0</speed>
				</extensions>
			</trkpt>
			<trkpt lat="53.26094908" lon="-8.93742094">
				<ele>63.0</ele>
				<time>2014-08-17T15:45:35Z</time>
				<extensions>
					<speed>0.0</speed>
				</extensions>
			</trkpt>
			<trkpt lat="53.26094841" lon="-8.9374206">
				<ele>63.0</ele>
				<time>2014-08-17T15:45:36Z</time>
				<extensions>
					<speed>0.0</speed>
				</extensions>
			</trkpt>
			<trkpt lat="53.26094663" lon="-8.9374206">
				<ele>63.0</ele>
				<time>2014-08-17T15:45:37Z</time>
				<extensions>
					<speed>1.0</speed>
				</extensions>
			</trkpt>
			<trkpt lat="53.26094104" lon="-8.93742065">
				<ele>62.0</ele>
				<time>2014-08-17T15:45:38Z</time>
				<extensions>
					<speed>0.5</speed>
				</extensions>
			</trkpt>
			<trkpt lat="53.26094185" lon="-8.93742058">
				<ele>62.0</ele>
				<time>2014-08-17T15:45:39Z</time>
				<extensions>
					<speed>0.0</speed>
				</extensions>
			</trkpt>
			<trkpt lat="53.26094281" lon="-8.9374232">
				<ele>62.0</ele>
				<time>2014-08-17T15:45:40Z</time>
				<extensions>
					<speed>1.5</speed>
				</extensions>
			</trkpt>
			<trkpt lat="53.26095586" lon="-8.93746293">
				<ele>63.0</ele>
				<time>2014-08-17T15:45:41Z</time>
				<extensions>
					<speed>3.25</speed>
				</extensions>
			</trkpt>
			<trkpt lat="53.26096582" lon="-8.93752357">
				<ele>63.0</ele>
				<time>2014-08-17T15:45:42Z</time>
				<extensions>
					<speed>5.0</speed>
				</extensions>
			</trkpt>
			<trkpt lat="53.26098745" lon="-8.93759553">
				<ele>63.0</ele>
				<time>2014-08-17T15:45:43Z</time>
				<extensions>
					<speed>5.5</speed>
				</extensions>
			</trkpt>
			<trkpt lat="53.26100632" lon="-8.9376746">
				<ele>63.0</ele>
				<time>2014-08-17T15:45:44Z</time>
				<extensions>
					<speed>5.75</speed>
				</extensions>
			</trkpt>
			<trkpt lat="53.26102808" lon="-8.9377573">
				<ele>64.0</ele>
				<time>2014-08-17T15:45:45Z</time>
				<extensions>
					<speed>7.0</speed>
				</extensions>
			</trkpt>
			<trkpt lat="53.26106965" lon="-8.93785638">
				<ele>64.0</ele>
				<time>2014-08-17T15:45:46Z</time>
				<extensions>
					<speed>8.0</speed>
				</extensions>
			</trkpt>
			<trkpt lat="53.26110477" lon="-8.9379721">
				<ele>64.0</ele>
				<time>2014-08-17T15:45:47Z</time>
				<extensions>
					<speed>8.25</speed>
				</extensions>
			</trkpt>
			<trkpt lat="53.26113868" lon="-8.93808375">
				<ele>64.0</ele>
				<time>2014-08-17T15:45:48Z</time>
				<extensions>
					<speed>8.25</speed>
				</extensions>
			</trkpt>
			<trkpt lat="53.26116852" lon="-8.93819574">
				<ele>64.0</ele>
				<time>2014-08-17T15:45:49Z</time>
				<extensions>
					<speed>7.75</speed>
				</extensions>
			</trkpt>
			<trkpt lat="53.26120295" lon="-8.93830491">
				<ele>63.0</ele>
				<time>2014-08-17T15:45:50Z</time>
				<extensions>
					<speed>7.5</speed>
				</extensions>
			</trkpt>
			<trkpt lat="53.26123671" lon="-8.93839209">
				<ele>63.0</ele>
				<time>2014-08-17T15:45:51Z</time>
				<extensions>
					<speed>7.0</speed>
				</extensions>
			</trkpt>
			<trkpt lat="53.2612697" lon="-8.93846158">
				<ele>64.0</ele>
				<time>2014-08-17T15:45:52Z</time>
				<extensions>
					<speed>5.5</speed>
				</extensions>
			</trkpt>
			<trkpt lat="53.26129436" lon="-8.93851447">
				<ele>64.0</ele>
				<time>2014-08-17T15:45:53Z</time>
				<extensions>
					<speed>4.25</speed>
				</extensions>
			</trkpt>
			<trkpt lat="53.26131527" lon="-8.93854953">
				<ele>63.0</ele>
				<time>2014-08-17T15:45:54Z</time>
				<extensions>
					<speed>3.25</speed>
				</extensions>
			</trkpt>
			<trkpt lat="53.26134395" lon="-8.93856604">
				<ele>63.0</ele>
				<time>2014-08-17T15:45:55Z</time>
				<extensions>
					<speed>3.5</speed>
				</extensions>
			</trkpt>
			<trkpt lat="53.26137701" lon="-8.93857406">
				<ele>62.0</ele>
				<time>2014-08-17T15:45:56Z</time>
				<extensions>
					<speed>4.0</speed>
				</extensions>
			</trkpt>
			<trkpt lat="53.26142062" lon="-8.93854335">
				<ele>62.0</ele>
				<time>2014-08-17T15:45:57Z</time>
				<extensions>
					<speed>5.25</speed>
				</extensions>
			</trkpt>
			<trkpt lat="53.26145468" lon="-8.93848559">
				<ele>62.0</ele>
				<time>2014-08-17T15:45:58Z</time>
				<extensions>
					<speed>6.25</speed>
				</extensions>
			</trkpt>
			<trkpt lat="53.26150261" lon="-8.93840016">
				<ele>63.0</ele>
				<time>2014-08-17T15:45:59Z</time>
				<extensions>
					<speed>7.0</speed>
				</extensions>
			</trkpt>
			<trkpt lat="53.26153655" lon="-8.93832815">
				<ele>62.0</ele>
				<time>2014-08-17T15:46:00Z</time>
				<extensions>
					<speed>7.0</speed>
				</extensions>
			</trkpt>
			<trkpt lat="53.26158395" lon="-8.93825093">
				<ele>63.0</ele>
				<time>2014-08-17T15:46:01Z</time>
				<extensions>
					<speed>7.0</speed>
				</extensions>
			</trkpt>
			<trkpt lat="53.26162899" lon="-8.93817732">
				<ele>63.0</ele>
				<time>2014-08-17T15:46:02Z</time>
				<extensions>
					<speed>6.75</speed>
				</extensions>
			</trkpt>
			<trkpt lat="53.26167654" lon="-8.93810462">
				<ele>63.0</ele>
				<time>2014-08-17T15:46:03Z</time>
				<extensions>
					<speed>6.75</speed>
				</extensions>
			</trkpt>
			<trkpt lat="53.2617155" lon="-8.93802968">
				<ele>64.0</ele>
				<time>2014-08-17T15:46:04Z</time>
				<extensions>
					<speed>6.5</speed>
				</extensions>
			</trkpt>
			<trkpt lat="53.26175429" lon="-8.93796125">
				<ele>64.0</ele>
				<time>2014-08-17T15:46:05Z</time>
				<extensions>
					<speed>6.5</speed>
				</extensions>
			</trkpt>
			<trkpt lat="53.26178858" lon="-8.93787691">
				<ele>64.0</ele>
				<time>2014-08-17T15:46:06Z</time>
				<extensions>
					<speed>6.25</speed>
				</extensions>
			</trkpt>
			<trkpt lat="53.26180254" lon="-8.93777953">
				<ele>64.0</ele>
				<time>2014-08-17T15:46:07Z</time>
				<extensions>
					<speed>6.0</speed>
				</extensions>
			</trkpt>
			<trkpt lat="53.2618078" lon="-8.93769439">
				<ele>64.0</ele>
				<time>2014-08-17T15:46:08Z</time>
				<extensions>
					<speed>5.75</speed>
				</extensions>
			</trkpt>
			<trkpt lat="53.2617988" lon="-8.93762709">
				<ele>64.0</ele>
				<time>2014-08-17T15:46:09Z</time>
				<extensions>
					<speed>5.5</speed>
				</extensions>
			</trkpt>
			<trkpt lat="53.26177147" lon="-8.93756247">
				<ele>63.0</ele>
				<time>2014-08-17T15:46:10Z</time>
				<extensions>
					<speed>5.5</speed>
				</extensions>
			</trkpt>
			<trkpt lat="53.2617438" lon="-8.93750289">
				<ele>63.0</ele>
				<time>2014-08-17T15:46:11Z</time>
				<extensions>
					<speed>5.25</speed>
				</extensions>
			</trkpt>
			<trkpt lat="53.26170519" lon="-8.93744363">
				<ele>64.0</ele>
				<time>2014-08-17T15:46:12Z</time>
				<extensions>
					<speed>6.0</speed>
				</extensions>
			</trkpt>
			<trkpt lat="53.26166419" lon="-8.93737852">
				<ele>64.0</ele>
				<time>2014-08-17T15:46:13Z</time>
				<extensions>
					<speed>6.75</speed>
				</extensions>
			</trkpt>
			<trkpt lat="53.26161712" lon="-8.93730227">
				<ele>64.0</ele>
				<time>2014-08-17T15:46:14Z</time>
				<extensions>
					<speed>7.25</speed>
				</extensions>
			</trkpt>
			<trkpt lat="53.26157097" lon="-8.93722052">
				<ele>64.0</ele>
				<time>2014-08-17T15:46:15Z</time>
				<extensions>
					<speed>7.25</speed>
				</extensions>
			</trkpt>
			<trkpt lat="53.26153215" lon="-8.93713982">
				<ele>64.0</ele>
				<time>2014-08-17T15:46:16Z</time>
				<extensions>
					<speed>7.25</speed>
				</extensions>
			</trkpt>
			<trkpt lat="53.26148823" lon="-8.93706609">
				<ele>63.0</ele>
				<time>2014-08-17T15:46:17Z</time>
				<extensions>
					<speed>7.25</speed>
				</extensions>
			</trkpt>
			<trkpt lat="53.26144474" lon="-8.93697817">
				<ele>63.0</ele>
				<time>2014-08-17T15:46:18Z</time>
				<extensions>
					<speed>7.0</speed>
				</extensions>
			</trkpt>
			<trkpt lat="53.26140724" lon="-8.93690213">
				<ele>63.0</ele>
				<time>2014-08-17T15:46:19Z</time>
				<extensions>
					<speed>6.75</speed>
				</extensions>
			</trkpt>
			<trkpt lat="53.26136241" lon="-8.93681897">
				<ele>63.0</ele>
				<time>2014-08-17T15:46:20Z</time>
				<extensions>
					<speed>7.25</speed>
				</extensions>
			</trkpt>
			<trkpt lat="53.26132605" lon="-8.93672487">
				<ele>63.0</ele>
				<time>2014-08-17T15:46:21Z</time>
				<extensions>
					<speed>7.5</speed>
				</extensions>
			</trkpt>
			<trkpt lat="53.26129184" lon="-8.93662874">
				<ele>63.0</ele>
				<time>2014-08-17T15:46:22Z</time>
				<extensions>
					<speed>7.5</speed>
				</extensions>
			</trkpt>
			<trkpt lat="53.26125213" lon="-8.9365131">
				<ele>63.0</ele>
				<time>2014-08-17T15:46:23Z</time>
				<extensions>
					<speed>8.75</speed>
				</extensions>
			</trkpt>
			<trkpt lat="53.26120725" lon="-8.93639405">
				<ele>63.0</ele>
				<time>2014-08-17T15:46:24Z</time>
				<extensions>
					<speed>9.25</speed>
				</extensions>
			</trkpt>
			<trkpt lat="53.26117213" lon="-8.93626287">
				<ele>62.0</ele>
				<time>2014-08-17T15:46:25Z</time>
				<extensions>
					<speed>10.25</speed>
				</extensions>
			</trkpt>
			<trkpt lat="53.26113749" lon="-8.93612412">
				<ele>62.0</ele>
				<time>2014-08-17T15:46:26Z</time>
				<extensions>
					<speed>10.25</speed>
				</extensions>
			</trkpt>
			<trkpt lat="53.2610996" lon="-8.93598735">
				<ele>62.0</ele>
				<time>2014-08-17T15:46:27Z</time>
				<extensions>
					<speed>10.0</speed>
				</extensions>
			</trkpt>
			<trkpt lat="53.26106686" lon="-8.93586121">
				<ele>61.0</ele>
				<time>2014-08-17T15:46:28Z</time>
				<extensions>
					<speed>9.75</speed>
				</extensions>
			</trkpt>
			<trkpt lat="53.26103506" lon="-8.93573655">
				<ele>61.0</ele>
				<time>2014-08-17T15:46:29Z</time>
				<extensions>
					<speed>9.5</speed>
				</extensions>
			</trkpt>
			<trkpt lat="53.26099974" lon="-8.93561631">
				<ele>62.0</ele>
				<time>2014-08-17T15:46:30Z</time>
				<extensions>
					<speed>9.0</speed>
				</extensions>
			</trkpt>
			<trkpt lat="53.26096277" lon="-8.93550165">
				<ele>62.0</ele>
				<time>2014-08-17T15:46:31Z</time>
				<extensions>
					<speed>9.0</speed>
				</extensions>
			</trkpt>
			<trkpt lat="53.26092831" lon="-8.93539285">
				<ele>61.0</ele>
				<time>2014-08-17T15:46:32Z</time>
				<extensions>
					<speed>9.0</speed>
				</extensions>
			</trkpt>
			<trkpt lat="53.26088726" lon="-8.93529112">
				<ele>60.0</ele>
				<time>2014-08-17T15:46:33Z</time>
				<extensions>
					<speed>8.5</speed>
				</extensions>
			</trkpt>
			<trkpt lat="53.26084291" lon="-8.93518022">
				<ele>62.0</ele>
				<time>2014-08-17T15:46:34Z</time>
				<extensions>
					<speed>9.0</speed>
				</extensions>
			</trkpt>
			<trkpt lat="53.26078685" lon="-8.93506074">
				<ele>63.0</ele>
				<time>2014-08-17T15:46:35Z</time>
				<extensions>
					<speed>8.75</speed>
				</extensions>
			</trkpt>
			<trkpt lat="53.26073582" lon="-8.93496422">
				<ele>62.0</ele>
				<time>2014-08-17T15:46:36Z</time>
				<extensions>
					<speed>8.5</speed>
				</extensions>
			</trkpt>
			<trkpt lat="53.26068332" lon="-8.93485498">
				<ele>63.0</ele>
				<time>2014-08-17T15:46:37Z</time>
				<extensions>
					<speed>8.0</speed>
				</extensions>
			</trkpt>
			<trkpt lat="53.26064893" lon="-8.93475721">
				<ele>64.0</ele>
				<time>2014-08-17T15:46:38Z</time>
				<extensions>
					<speed>7.75</speed>
				</extensions>
			</trkpt>
			<trkpt lat="53.26062181" lon="-8.93466391">
				<ele>63.0</ele>
				<time>2014-08-17T15:46:39Z</time>
				<extensions>
					<speed>7.25</speed>
				</extensions>
			</trkpt>
			<trkpt lat="53.2606053" lon="-8.93454288">
				<ele>65.0</ele>
				<time>2014-08-17T15:46:40Z</time>
				<extensions>
					<speed>7.0</speed>
				</extensions>
			</trkpt>
			<trkpt lat="53.26059731" lon="-8.93443238">
				<ele>65.0</ele>
				<time>2014-08-17T15:46:41Z</time>
				<extensions>
					<speed>7.25</speed>
				</extensions>
			</trkpt>
			<trkpt lat="53.26059909" lon="-8.93432003">
				<ele>64.0</ele>
				<time>2014-08-17T15:46:42Z</time>
				<extensions>
					<speed>7.25</speed>
				</extensions>
			</trkpt>
			<trkpt lat="53.26060312" lon="-8.93421404">
				<ele>65.0</ele>
				<time>2014-08-17T15:46:43Z</time>
				<extensions>
					<speed>7.25</speed>
				</extensions>
			</trkpt>
			<trkpt lat="53.26060726" lon="-8.934103">
				<ele>65.0</ele>
				<time>2014-08-17T15:46:44Z</time>
				<extensions>
					<speed>7.0</speed>
				</extensions>
			</trkpt>
			<trkpt lat="53.26060901" lon="-8.93400751">
				<ele>65.0</ele>
				<time>2014-08-17T15:46:45Z</time>
				<extensions>
					<speed>7.5</speed>
				</extensions>
			</trkpt>
			<trkpt lat="53.26060335" lon="-8.93389355">
				<ele>66.0</ele>
				<time>2014-08-17T15:46:46Z</time>
				<extensions>
					<speed>7.5</speed>
				</extensions>
			</trkpt>
			<trkpt lat="53.2606053" lon="-8.93376335">
				<ele>67.0</ele>
				<time>2014-08-17T15:46:47Z</time>
				<extensions>
					<speed>7.75</speed>
				</extensions>
			</trkpt>
			<trkpt lat="53.26061057" lon="-8.93364813">
				<ele>67.0</ele>
				<time>2014-08-17T15:46:48Z</time>
				<extensions>
					<speed>7.5</speed>
				</extensions>
			</trkpt>
			<trkpt lat="53.26060791" lon="-8.9335439">
				<ele>68.0</ele>
				<time>2014-08-17T15:46:49Z</time>
				<extensions>
					<speed>7.25</speed>
				</extensions>
			</trkpt>
			<trkpt lat="53.26062085" lon="-8.93343345">
				<ele>68.0</ele>
				<time>2014-08-17T15:46:50Z</time>
				<extensions>
					<speed>7.25</speed>
				</extensions>
			</trkpt>
			<trkpt lat="53.26062288" lon="-8.9333157">
				<ele>67.0</ele>
				<time>2014-08-17T15:46:51Z</time>
				<extensions>
					<speed>7.25</speed>
				</extensions>
			</trkpt>
			<trkpt lat="53.26063288" lon="-8.93321406">
				<ele>66.0</ele>
				<time>2014-08-17T15:46:52Z</time>
				<extensions>
					<speed>6.5</speed>
				</extensions>
			</trkpt>
			<trkpt lat="53.26063284" lon="-8.93312696">
				<ele>65.0</ele>
				<time>2014-08-17T15:46:53Z</time>
				<extensions>
					<speed>5.75</speed>
				</extensions>
			</trkpt>
			<trkpt lat="53.26063228" lon="-8.93305418">
				<ele>65.0</ele>
				<time>2014-08-17T15:46:54Z</time>
				<extensions>
					<speed>4.0</speed>
				</extensions>
			</trkpt>
			<trkpt lat="53.2606348" lon="-8.93301149">
				<ele>66.0</ele>
				<time>2014-08-17T15:46:55Z</time>
				<extensions>
					<speed>2.75</speed>
				</extensions>
			</trkpt>
			<trkpt lat="53.26064205" lon="-8.932978">
				<ele>65.0</ele>
				<time>2014-08-17T15:46:56Z</time>
				<extensions>
					<speed>1.75</speed>
				</extensions>
			</trkpt>
			<trkpt lat="53.26064832" lon="-8.93295498">
				<ele>64.0</ele>
				<time>2014-08-17T15:46:57Z</time>
				<extensions>
					<speed>1.0</speed>
				</extensions>
			</trkpt>
			<trkpt lat="53.26064615" lon="-8.93294018">
				<ele>64.0</ele>
				<time>2014-08-17T15:46:58Z</time>
				<extensions>
					<speed>0.75</speed>
				</extensions>
			</trkpt>
			<trkpt lat="53.26065757" lon="-8.93292267">
				<ele>63.0</ele>
				<time>2014-08-17T15:46:59Z</time>
				<extensions>
					<speed>1.5</speed>
				</extensions>
			</trkpt>
			<trkpt lat="53.26066609" lon="-8.93290676">
				<ele>63.0</ele>
				<time>2014-08-17T15:47:00Z</time>
				<extensions>
					<speed>2.75</speed>
				</extensions>
			</trkpt>
			<trkpt lat="53.26069236" lon="-8.93287672">
				<ele>64.0</ele>
				<time>2014-08-17T15:47:01Z</time>
				<extensions>
					<speed>4.0</speed>
				</extensions>
			</trkpt>
			<trkpt lat="53.26073134" lon="-8.93288062">
				<ele>63.0</ele>
				<time>2014-08-17T15:47:02Z</time>
				<extensions>
					<speed>4.25</speed>
				</extensions>
			</trkpt>
			<trkpt lat="53.26077419" lon="-8.93287079">
				<ele>63.0</ele>
				<time>2014-08-17T15:47:03Z</time>
				<extensions>
					<speed>4.5</speed>
				</extensions>
			</trkpt>
			<trkpt lat="53.2608262" lon="-8.93286678">
				<ele>63.0</ele>
				<time>2014-08-17T15:47:04Z</time>
				<extensions>
					<speed>5.5</speed>
				</extensions>
			</trkpt>
			<trkpt lat="53.26088234" lon="-8.93287636">
				<ele>63.0</ele>
				<time>2014-08-17T15:47:05Z</time>
				<extensions>
					<speed>6.75</speed>
				</extensions>
			</trkpt>
			<trkpt lat="53.26094724" lon="-8.93287327">
				<ele>64.0</ele>
				<time>2014-08-17T15:47:06Z</time>
				<extensions>
					<speed>7.5</speed>
				</extensions>
			</trkpt>
			<trkpt lat="53.26102107" lon="-8.93287139">
				<ele>63.0</ele>
				<time>2014-08-17T15:47:07Z</time>
				<extensions>
					<speed>7.5</speed>
				</extensions>
			</trkpt>
			<trkpt lat="53.26109617" lon="-8.93286631">
				<ele>63.0</ele>
				<time>2014-08-17T15:47:08Z</time>
				<extensions>
					<speed>8.0</speed>
				</extensions>
			</trkpt>
			<trkpt lat="53.26116818" lon="-8.93286644">
				<ele>64.0</ele>
				<time>2014-08-17T15:47:09Z</time>
				<extensions>
					<speed>9.25</speed>
				</extensions>
			</trkpt>
			<trkpt lat="53.26125444" lon="-8.9328817">
				<ele>64.0</ele>
				<time>2014-08-17T15:47:10Z</time>
				<extensions>
					<speed>10.25</speed>
				</extensions>
			</trkpt>
			<trkpt lat="53.2613425" lon="-8.93288052">
				<ele>64.0</ele>
				<time>2014-08-17T15:47:11Z</time>
				<extensions>
					<speed>10.0</speed>
				</extensions>
			</trkpt>
			<trkpt lat="53.26143157" lon="-8.93288606">
				<ele>64.0</ele>
				<time>2014-08-17T15:47:12Z</time>
				<extensions>
					<speed>9.75</speed>
				</extensions>
			</trkpt>
			<trkpt lat="53.26151719" lon="-8.9328896">
				<ele>64.0</ele>
				<time>2014-08-17T15:47:13Z</time>
				<extensions>
					<speed>9.25</speed>
				</extensions>
			</trkpt>
			<trkpt lat="53.26160532" lon="-8.93288764">
				<ele>64.0</ele>
				<time>2014-08-17T15:47:14Z</time>
				<extensions>
					<speed>9.0</speed>
				</extensions>
			</trkpt>
			<trkpt lat="53.26167362" lon="-8.93288223">
				<ele>64.0</ele>
				<time>2014-08-17T15:47:15Z</time>
				<extensions>
					<speed>7.5</speed>
				</extensions>
			</trkpt>
			<trkpt lat="53.26172657" lon="-8.93287058">
				<ele>65.0</ele>
				<time>2014-08-17T15:47:16Z</time>
				<extensions>
					<speed>6.0</speed>
				</extensions>
			</trkpt>
			<trkpt lat="53.26178512" lon="-8.93287641">
				<ele>65.0</ele>
				<time>2014-08-17T15:47:17Z</time>
				<extensions>
					<speed>5.25</speed>
				</extensions>
			</trkpt>
			<trkpt lat="53.26182842" lon="-8.93290883">
				<ele>64.0</ele>
				<time>2014-08-17T15:47:18Z</time>
				<extensions>
					<speed>4.75</speed>
				</extensions>
			</trkpt>
			<trkpt lat="53.2618372" lon="-8.93296461">
				<ele>64.0</ele>
				<time>2014-08-17T15:47:19Z</time>
				<extensions>
					<speed>4.0</speed>
				</extensions>
			</trkpt>
			<trkpt lat="53.26184002" lon="-8.93302797">
				<ele>64.0</ele>
				<time>2014-08-17T15:47:20Z</time>
				<extensions>
					<speed>4.5</speed>
				</extensions>
			</trkpt>
			<trkpt lat="53.26183708" lon="-8.93310947">
				<ele>64.0</ele>
				<time>2014-08-17T15:47:21Z</time>
				<extensions>
					<speed>5.25</speed>
				</extensions>
			</trkpt>
			<trkpt lat="53.26182999" lon="-8.93320147">
				<ele>64.0</ele>
				<time>2014-08-17T15:47:22Z</time>
				<extensions>
					<speed>6.25</speed>
				</extensions>
			</trkpt>
			<trkpt lat="53.26182162" lon="-8.93329439">
				<ele>64.0</ele>
				<time>2014-08-17T15:47:23Z</time>
				<extensions>
					<speed>6.25</speed>
				</extensions>
			</trkpt>
			<trkpt lat="53.26181988" lon="-8.93339016">
				<ele>64.0</ele>
				<time>2014-08-17T15:47:24Z</time>
				<extensions>
					<speed>6.0</speed>
				</extensions>
			</trkpt>
			<trkpt lat="53.26181218" lon="-8.93346784">
				<ele>64.0</ele>
				<time>2014-08-17T15:47:25Z</time>
				<extensions>
					<speed>5.25</speed>
				</extensions>
			</trkpt>
			<trkpt lat="53.26181187" lon="-8.93355772">
				<ele>64.0</ele>
				<time>2014-08-17T15:47:26Z</time>
				<extensions>
					<speed>5.0</speed>
				</extensions>
			</trkpt>
			<trkpt lat="53.26181013" lon="-8.93363401">
				<ele>64.0</ele>
				<time>2014-08-17T15:47:27Z</time>
				<extensions>
					<speed>4.75</speed>
				</extensions>
			</trkpt>
			<trkpt lat="53.26180144" lon="-8.93371238">
				<ele>64.0</ele>
				<time>2014-08-17T15:47:28Z</time>
				<extensions>
					<speed>5.0</speed>
				</extensions>
			</trkpt>
			<trkpt lat="53.2617858" lon="-8.93379328">
				<ele>64.0</ele>
				<time>2014-08-17T15:47:29Z</time>
				<extensions>
					<speed>5.5</speed>
				</extensions>
			</trkpt>
			<trkpt lat="53.26176988" lon="-8.93387448">
				<ele>66.0</ele>
				<time>2014-08-17T15:47:30Z</time>
				<extensions>
					<speed>6.25</speed>
				</extensions>
			</trkpt>
			<trkpt lat="53.26173063" lon="-8.93395598">
				<ele>67.0</ele>
				<time>2014-08-17T15:47:31Z</time>
				<extensions>
					<speed>5.75</speed>
				</extensions>
			</trkpt>
			<trkpt lat="53.26170451" lon="-8.93402816">
				<ele>67.0</ele>
				<time>2014-08-17T15:47:32Z</time>
				<extensions>
					<speed>6.0</speed>
				</extensions>
			</trkpt>
			<trkpt lat="53.26166773" lon="-8.93408806">
				<ele>67.0</ele>
				<time>2014-08-17T15:47:33Z</time>
				<extensions>
					<speed>5.5</speed>
				</extensions>
			</trkpt>
			<trkpt lat="53.26163676" lon="-8.93414998">
				<ele>66.0</ele>
				<time>2014-08-17T15:47:34Z</time>
				<extensions>
					<speed>4.5</speed>
				</extensions>
			</trkpt>
			<trkpt lat="53.2616226" lon="-8.93420292">
				<ele>66.0</ele>
				<time>2014-08-17T15:47:35Z</time>
				<extensions>
					<speed>3.75</speed>
				</extensions>
			</trkpt>
			<trkpt lat="53.26161493" lon="-8.93422914">
				<ele>66.0</ele>
				<time>2014-08-17T15:47:36Z</time>
				<extensions>
					<speed>2.75</speed>
				</extensions>
			</trkpt>
			<trkpt lat="53.26160561" lon="-8.93426283">
				<ele>66.0</ele>
				<time>2014-08-17T15:47:37Z</time>
				<extensions>
					<speed>2.0</speed>
				</extensions>
			</trkpt>
			<trkpt lat="53.26159348" lon="-8.93427448">
				<ele>66.0</ele>
				<time>2014-08-17T15:47:38Z</time>
				<extensions>
					<speed>1.0</speed>
				</extensions>
			</trkpt>
			<trkpt lat="53.26159298" lon="-8.93429003">
				<ele>65.0</ele>
				<time>2014-08-17T15:47:39Z</time>
				<extensions>
					<speed>0.75</speed>
				</extensions>
			</trkpt>
			<trkpt lat="53.26157997" lon="-8.93429742">
				<ele>65.0</ele>
				<time>2014-08-17T15:47:40Z</time>
				<extensions>
					<speed>1.5</speed>
				</extensions>
			</trkpt>
			<trkpt lat="53.26156513" lon="-8.93431888">
				<ele>66.0</ele>
				<time>2014-08-17T15:47:41Z</time>
				<extensions>
					<speed>1.5</speed>
				</extensions>
			</trkpt>
			<trkpt lat="53.26154418" lon="-8.93433606">
				<ele>65.0</ele>
				<time>2014-08-17T15:47:42Z</time>
				<extensions>
					<speed>1.5</speed>
				</extensions>
			</trkpt>
			<trkpt lat="53.26154501" lon="-8.93436554">
				<ele>65.0</ele>
				<time>2014-08-17T15:47:43Z</time>
				<extensions>
					<speed>2.0</speed>
				</extensions>
			</trkpt>
			<trkpt lat="53.26153873" lon="-8.93440434">
				<ele>66.0</ele>
				<time>2014-08-17T15:47:44Z</time>
				<extensions>
					<speed>2.25</speed>
				</extensions>
			</trkpt>
			<trkpt lat="53.26153077" lon="-8.93443695">
				<ele>66.0</ele>
				<time>2014-08-17T15:47:45Z</time>
				<extensions>
					<speed>2.25</speed>
				</extensions>
			</trkpt>
			<trkpt lat="53.2615296" lon="-8.9344603">
				<ele>65.0</ele>
				<time>2014-08-17T15:47:46Z</time>
				<extensions>
					<speed>2.25</speed>
				</extensions>
			</trkpt>
			<trkpt lat="53.2615239" lon="-8.93448834">
				<ele>66.0</ele>
				<time>2014-08-17T15:47:47Z</time>
				<extensions>
					<speed>1.5</speed>
				</extensions>
			</trkpt>
			<trkpt lat="53.26153335" lon="-8.93448251">
				<ele>64.0</ele>
				<time>2014-08-17T15:47:48Z</time>
				<extensions>
					<speed>1.25</speed>
				</extensions>
			</trkpt>
			<trkpt lat="53.26152322" lon="-8.93449841">
				<ele>64.0</ele>
				<time>2014-08-17T15:47:49Z</time>
				<extensions>
					<speed>1.25</speed>
				</extensions>
			</trkpt>
			<trkpt lat="53.26152597" lon="-8.93451745">
				<ele>65.0</ele>
				<time>2014-08-17T15:47:50Z</time>
				<extensions>
					<speed>1.0</speed>
				</extensions>
			</trkpt>
			<trkpt lat="53.26152484" lon="-8.93452697">
				<ele>65.0</ele>
				<time>2014-08-17T15:47:51Z</time>
				<extensions>
					<speed>0.5</speed>
				</extensions>
			</trkpt>
			<trkpt lat="53.26152321" lon="-8.93452705">
				<ele>65.0</ele>
				<time>2014-08-17T15:47:52Z</time>
				<extensions>
					<speed>0.0</speed>
				</extensions>
			</trkpt>
			<trkpt lat="53.26152618" lon="-8.93452222">
				<ele>64.0</ele>
				<time>2014-08-17T15:47:53Z</time>
				<extensions>
					<speed>0.0</speed>
				</extensions>
			</trkpt>
			<trkpt lat="53.26152371" lon="-8.93452394">
				<ele>64.0</ele>
				<time>2014-08-17T15:47:54Z</time>
				<extensions>
					<speed>0.0</speed>
				</extensions>
			</trkpt>
			<trkpt lat="53.26152886" lon="-8.93452149">
				<ele>64.0</ele>
				<time>2014-08-17T15:47:55Z</time>
				<extensions>
					<speed>0.0</speed>
				</extensions>
			</trkpt>
			<trkpt lat="53.26152821" lon="-8.93452474">
				<ele>63.0</ele>
				<time>2014-08-17T15:47:56Z</time>
				<extensions>
					<speed>0.0</speed>
				</extensions>
			</trkpt>
			<trkpt lat="53.26152587" lon="-8.93452748">
				<ele>63.0</ele>
				<time>2014-08-17T15:47:57Z</time>
				<extensions>
					<speed>0.0</speed>
				</extensions>
			</trkpt>
			<trkpt lat="53.26152547" lon="-8.93452818">
				<ele>63.0</ele>
				<time>2014-08-17T15:47:58Z</time>
				<extensions>
					<speed>0.0</speed>
				</extensions>
			</trkpt>
			<trkpt lat="53.26152348" lon="-8.93452944">
				<ele>63.0</ele>
				<time>2014-08-17T15:47:59Z</time>
				<extensions>
					<speed>0.0</speed>
				</extensions>
			</trkpt>
			<trkpt lat="53.26152211" lon="-8.93452773">
				<ele>64.0</ele>
				<time>2014-08-17T15:48:00Z</time>
				<extensions>
					<speed>0.0</speed>
				</extensions>
			</trkpt>
			<trkpt lat="53.26152016" lon="-8.93452547">
				<ele>64.0</ele>
				<time>2014-08-17T15:48:01Z</time>
				<extensions>
					<speed>0.0</speed>
				</extensions>
			</trkpt>
			<trkpt lat="53.26152068" lon="-8.93452675">
				<ele>64.0</ele>
				<time>2014-08-17T15:48:02Z</time>
				<extensions>
					<speed>0.0</speed>
				</extensions>
			</trkpt>
			<trkpt lat="53.26152106" lon="-8.93452672">
				<ele>64.0</ele>
				<time>2014-08-17T15:48:03Z</time>
				<extensions>
					<speed>0.0</speed>
				</extensions>
			</trkpt>
			<trkpt lat="53.26152108" lon="-8.93452757">
				<ele>64.0</ele>
				<time>2014-08-17T15:48:04Z</time>
				<extensions>
					<speed>0.0</speed>
				</extensions>
			</trkpt>
			<trkpt lat="53.26152092" lon="-8.93452751">
				<ele>64.0</ele>
				<time>2014-08-17T15:48:05Z</time>
				<extensions>
					<speed>0.0</speed>
				</extensions>
			</trkpt>
			<trkpt lat="53.26152089" lon="-8.93452758">
				<ele>64.0</ele>
				<time>2014-08-17T15:48:06Z</time>
				<extensions>
					<speed>0.0</speed>
				</extensions>
			</trkpt>
			<trkpt lat="53.26152093" lon="-8.93452757">
				<ele>64.0</ele>
				<time>2014-08-17T15:48:07Z</time>
				<extensions>
					<speed>0.0</speed>
				</extensions>
			</trkpt>
			<trkpt lat="53.26152095" lon="-8.93452754">
				<ele>64.0</ele>
				<time>2014-08-17T15:48:08Z</time>
				<extensions>
					<speed>0.0</speed>
				</extensions>
			</trkpt>
			<trkpt lat="53.26152068" lon="-8.9345279">
				<ele>64.0</ele>
				<time>2014-08-17T15:48:09Z</time>
				<extensions>
					<speed>0.0</speed>
				</extensions>
			</trkpt>
			<trkpt lat="53.26152067" lon="-8.93452788">
				<ele>64.0</ele>
				<time>2014-08-17T15:48:10Z</time>
				<extensions>
					<speed>0.0</speed>
				</extensions>
			</trkpt>
			<trkpt lat="53.26152071" lon="-8.93452789">
				<ele>64.0</ele>
				<time>2014-08-17T15:48:11Z</time>
				<extensions>
					<speed>0.0</speed>
				</extensions>
			</trkpt>
			<trkpt lat="53.26152068" lon="-8.93452786">
				<ele>64.0</ele>
				<time>2014-08-17T15:48:12Z</time>
				<extensions>
					<speed>0.0</speed>
				</extensions>
			</trkpt>
			<trkpt lat="53.2615207" lon="-8.9345279">
				<ele>64.0</ele>
				<time>2014-08-17T15:48:13Z</time>
				<extensions>
					<speed>0.0</speed>
				</extensions>
			</trkpt>
			<trkpt lat="53.26152067" lon="-8.9345279">
				<ele>64.0</ele>
				<time>2014-08-17T15:48:14Z</time>
				<extensions>
					<speed>0.0</speed>
				</extensions>
			</trkpt>
			<trkpt lat="53.26152067" lon="-8.9345279">
				<ele>64.0</ele>
				<time>2014-08-17T15:48:15Z</time>
				<extensions>
					<speed>0.0</speed>
				</extensions>
			</trkpt>
			<trkpt lat="53.26152066" lon="-8.93452793">
				<ele>64.0</ele>
				<time>2014-08-17T15:48:16Z</time>
				<extensions>
					<speed>0.0</speed>
				</extensions>
			</trkpt>
			<trkpt lat="53.26152065" lon="-8.93452798">
				<ele>64.0</ele>
				<time>2014-08-17T15:48:17Z</time>
				<extensions>
					<speed>0.0</speed>
				</extensions>
			</trkpt>
			<trkpt lat="53.2615206" lon="-8.93452804">
				<ele>64.0</ele>
				<time>2014-08-17T15:48:18Z</time>
				<extensions>
					<speed>0.0</speed>
				</extensions>
			</trkpt>
			<trkpt lat="53.2615206" lon="-8.93452807">
				<ele>64.0</ele>
				<time>2014-08-17T15:48:19Z</time>
				<extensions>
					<speed>0.0</speed>
				</extensions>
			</trkpt>
			<trkpt lat="53.26152058" lon="-8.93452811">
				<ele>64.0</ele>
				<time>2014-08-17T15:48:20Z</time>
				<extensions>
					<speed>0.0</speed>
				</extensions>
			</trkpt>
			<trkpt lat="53.26152053" lon="-8.93452817">
				<ele>64.0</ele>
				<time>2014-08-17T15:48:21Z</time>
				<extensions>
					<speed>0.0</speed>
				</extensions>
			</trkpt>
			<trkpt lat="53.2615205" lon="-8.9345282">
				<ele>64.0</ele>
				<time>2014-08-17T15:48:22Z</time>
				<extensions>
					<speed>0.0</speed>
				</extensions>
			</trkpt>
			<trkpt lat="53.26152051" lon="-8.93452818">
				<ele>64.0</ele>
				<time>2014-08-17T15:48:23Z</time>
				<extensions>
					<speed>0.0</speed>
				</extensions>
			</trkpt>
			<trkpt lat="53.26152052" lon="-8.93452816">
				<ele>64.0</ele>
				<time>2014-08-17T15:48:24Z</time>
				<extensions>
					<speed>0.0</speed>
				</extensions>
			</trkpt>
			<trkpt lat="53.26152049" lon="-8.93452813">
				<ele>64.0</ele>
				<time>2014-08-17T15:48:25Z</time>
				<extensions>
					<speed>0.0</speed>
				</extensions>
			</trkpt>
			<trkpt lat="53.26152047" lon="-8.93452821">
				<ele>64.0</ele>
				<time>2014-08-17T15:48:26Z</time>
				<extensions>
					<speed>0.0</speed>
				</extensions>
			</trkpt>
			<trkpt lat="53.26152047" lon="-8.93452822">
				<ele>64.0</ele>
				<time>2014-08-17T15:48:27Z</time>
				<extensions>
					<speed>0.0</speed>
				</extensions>
			</trkpt>
			<trkpt lat="53.26152047" lon="-8.93452825">
				<ele>64.0</ele>
				<time>2014-08-17T15:48:28Z</time>
				<extensions>
					<speed>0.0</speed>
				</extensions>
			</trkpt>
			<trkpt lat="53.2615205" lon="-8.93452827">
				<ele>64.0</ele>
				<time>2014-08-17T15:48:29Z</time>
				<extensions>
					<speed>0.0</speed>
				</extensions>
			</trkpt>
			<trkpt lat="53.2615205" lon="-8.93452828">
				<ele>64.0</ele>
				<time>2014-08-17T15:48:30Z</time>
				<extensions>
					<speed>0.0</speed>
				</extensions>
			</trkpt>
			<trkpt lat="53.26152053" lon="-8.93452827">
				<ele>64.0</ele>
				<time>2014-08-17T15:48:31Z</time>
				<extensions>
					<speed>0.0</speed>
				</extensions>
			</trkpt>
			<trkpt lat="53.26152054" lon="-8.93452827">
				<ele>64.0</ele>
				<time>2014-08-17T15:48:32Z</time>
				<extensions>
					<speed>0.0</speed>
				</extensions>
			</trkpt>
			<trkpt lat="53.26152059" lon="-8.93452827">
				<ele>64.0</ele>
				<time>2014-08-17T15:48:33Z</time>
				<extensions>
					<speed>0.0</speed>
				</extensions>
			</trkpt>
			<trkpt lat="53.26152072" lon="-8.93452948">
				<ele>64.0</ele>
				<time>2014-08-17T15:48:34Z</time>
				<extensions>
					<speed>0.5</speed>
				</extensions>
			</trkpt>
			<trkpt lat="53.26151973" lon="-8.93455688">
				<ele>64.0</ele>
				<time>2014-08-17T15:48:35Z</time>
				<extensions>
					<speed>1.5</speed>
				</extensions>
			</trkpt>
			<trkpt lat="53.26153049" lon="-8.93459828">
				<ele>66.0</ele>
				<time>2014-08-17T15:48:36Z</time>
				<extensions>
					<speed>2.5</speed>
				</extensions>
			</trkpt>
			<trkpt lat="53.26154126" lon="-8.93464643">
				<ele>66.0</ele>
				<time>2014-08-17T15:48:37Z</time>
				<extensions>
					<speed>3.75</speed>
				</extensions>
			</trkpt>
			<trkpt lat="53.26154826" lon="-8.93470433">
				<ele>66.0</ele>
				<time>2014-08-17T15:48:38Z</time>
				<extensions>
					<speed>4.0</speed>
				</extensions>
			</trkpt>
			<trkpt lat="53.2615594" lon="-8.93476452">
				<ele>68.0</ele>
				<time>2014-08-17T15:48:39Z</time>
				<extensions>
					<speed>4.0</speed>
				</extensions>
			</trkpt>
			<trkpt lat="53.26156686" lon="-8.9348272">
				<ele>68.0</ele>
				<time>2014-08-17T15:48:40Z</time>
				<extensions>
					<speed>4.5</speed>
				</extensions>
			</trkpt>
			<trkpt lat="53.26157591" lon="-8.93489749">
				<ele>67.0</ele>
				<time>2014-08-17T15:48:41Z</time>
				<extensions>
					<speed>5.0</speed>
				</extensions>
			</trkpt>
			<trkpt lat="53.26159933" lon="-8.93496165">
				<ele>67.0</ele>
				<time>2014-08-17T15:48:42Z</time>
				<extensions>
					<speed>5.0</speed>
				</extensions>
			</trkpt>
			<trkpt lat="53.26161589" lon="-8.93503116">
				<ele>67.0</ele>
				<time>2014-08-17T15:48:43Z</time>
				<extensions>
					<speed>5.25</speed>
				</extensions>
			</trkpt>
			<trkpt lat="53.26164474" lon="-8.93509242">
				<ele>67.0</ele>
				<time>2014-08-17T15:48:44Z</time>
				<extensions>
					<speed>5.0</speed>
				</extensions>
			</trkpt>
			<trkpt lat="53.26166557" lon="-8.93515976">
				<ele>67.0</ele>
				<time>2014-08-17T15:48:45Z</time>
				<extensions>
					<speed>5.0</speed>
				</extensions>
			</trkpt>
			<trkpt lat="53.26168715" lon="-8.93522766">
				<ele>67.0</ele>
				<time>2014-08-17T15:48:46Z</time>
				<extensions>
					<speed>5.0</speed>
				</extensions>
			</trkpt>
			<trkpt lat="53.26171916" lon="-8.93527906">
				<ele>67.0</ele>
				<time>2014-08-17T15:48:47Z</time>
				<extensions>
					<speed>5.25</speed>
				</extensions>
			</trkpt>
			<trkpt lat="53.26174424" lon="-8.93532069">
				<ele>68.0</ele>
				<time>2014-08-17T15:48:48Z</time>
				<extensions>
					<speed>4.25</speed>
				</extensions>
			</trkpt>
			<trkpt lat="53.2617672" lon="-8.9353465">
				<ele>68.0</ele>
				<time>2014-08-17T15:48:49Z</time>
				<extensions>
					<speed>3.75</speed>
				</extensions>
			</trkpt>
			<trkpt lat="53.2617937" lon="-8.93537269">
				<ele>68.0</ele>
				<time>2014-08-17T15:48:50Z</time>
				<extensions>
					<speed>3.25</speed>
				</extensions>
			</trkpt>
			<trkpt lat="53.26181409" lon="-8.93539044">
				<ele>68.0</ele>
				<time>2014-08-17T15:48:51Z</time>
				<extensions>
					<speed>2.5</speed>
				</extensions>
			</trkpt>
			<trkpt lat="53.26183025" lon="-8.93539983">
				<ele>68.0</ele>
				<time>2014-08-17T15:48:52Z</time>
				<extensions>
					<speed>1.75</speed>
				</extensions>
			</trkpt>
			<trkpt lat="53.26183777" lon="-8.9354115">
				<ele>67.0</ele>
				<time>2014-08-17T15:48:53Z</time>
				<extensions>
					<speed>1.25</speed>
				</extensions>
			</trkpt>
			<trkpt lat="53.26184963" lon="-8.93541849">
				<ele>67.0</ele>
				<time>2014-08-17T15:48:54Z</time>
				<extensions>
					<speed>0.5</speed>
				</extensions>
			</trkpt>
			<trkpt lat="53.26186443" lon="-8.9354243">
				<ele>67.0</ele>
				<time>2014-08-17T15:48:55Z</time>
				<extensions>
					<speed>1.75</speed>
				</extensions>
			</trkpt>
			<trkpt lat="53.26187795" lon="-8.93544135">
				<ele>66.0</ele>
				<time>2014-08-17T15:48:56Z</time>
				<extensions>
					<speed>2.5</speed>
				</extensions>
			</trkpt>
			<trkpt lat="53.2618977" lon="-8.93545951">
				<ele>66.0</ele>
				<time>2014-08-17T15:48:57Z</time>
				<extensions>
					<speed>2.5</speed>
				</extensions>
			</trkpt>
			<trkpt lat="53.26191745" lon="-8.93547767">
				<ele>66.0</ele>
				<time>2014-08-17T15:48:58Z</time>
				<extensions>
					<speed>2.5</speed>
				</extensions>
			</trkpt>
			<trkpt lat="53.26197255" lon="-8.93550174">
				<ele>65.0</ele>
				<time>2014-08-17T15:48:59Z</time>
				<extensions>
					<speed>3.75</speed>
				</extensions>
			</trkpt>
			<trkpt lat="53.26200384" lon="-8.93553144">
				<ele>65.0</ele>
				<time>2014-08-17T15:49:00Z</time>
				<extensions>
					<speed>4.25</speed>
				</extensions>
			</trkpt>
			<trkpt lat="53.26203872" lon="-8.93556913">
				<ele>65.0</ele>
				<time>2014-08-17T15:49:01Z</time>
				<extensions>
					<speed>5.0</speed>
				</extensions>
			</trkpt>
			<trkpt lat="53.26207651" lon="-8.93560868">
				<ele>64.0</ele>
				<time>2014-08-17T15:49:02Z</time>
				<extensions>
					<speed>5.0</speed>
				</extensions>
			</trkpt>
			<trkpt lat="53.26211283" lon="-8.93564742">
				<ele>64.0</ele>
				<time>2014-08-17T15:49:03Z</time>
				<extensions>
					<speed>4.75</speed>
				</extensions>
			</trkpt>
			<trkpt lat="53.26215414" lon="-8.93567645">
				<ele>65.0</ele>
				<time>2014-08-17T15:49:04Z</time>
				<extensions>
					<speed>4.5</speed>
				</extensions>
			</trkpt>
			<trkpt lat="53.26218467" lon="-8.93570704">
				<ele>65.0</ele>
				<time>2014-08-17T15:49:05Z</time>
				<extensions>
					<speed>4.0</speed>
				</extensions>
			</trkpt>
			<trkpt lat="53.2622186" lon="-8.93573451">
				<ele>65.0</ele>
				<time>2014-08-17T15:49:06Z</time>
				<extensions>
					<speed>4.0</speed>
				</extensions>
			</trkpt>
			<trkpt lat="53.26224321" lon="-8.93576049">
				<ele>65.0</ele>
				<time>2014-08-17T15:49:07Z</time>
				<extensions>
					<speed>3.25</speed>
				</extensions>
			</trkpt>
			<trkpt lat="53.26226542" lon="-8.93578923">
				<ele>65.0</ele>
				<time>2014-08-17T15:49:08Z</time>
				<extensions>
					<speed>2.75</speed>
				</extensions>
			</trkpt>
			<trkpt lat="53.26228232" lon="-8.93581221">
				<ele>65.0</ele>
				<time>2014-08-17T15:49:09Z</time>
				<extensions>
					<speed>2.0</speed>
				</extensions>
			</trkpt>
			<trkpt lat="53.26229121" lon="-8.93581983">
				<ele>65.0</ele>
				<time>2014-08-17T15:49:10Z</time>
				<extensions>
					<speed>1.0</speed>
				</extensions>
			</trkpt>
			<trkpt lat="53.26229777" lon="-8.93581711">
				<ele>65.0</ele>
				<time>2014-08-17T15:49:11Z</time>
				<extensions>
					<speed>0.5</speed>
				</extensions>
			</trkpt>
			<trkpt lat="53.26230046" lon="-8.93581631">
				<ele>65.0</ele>
				<time>2014-08-17T15:49:12Z</time>
				<extensions>
					<speed>0.0</speed>
				</extensions>
			</trkpt>
			<trkpt lat="53.26229996" lon="-8.93581674">
				<ele>66.0</ele>
				<time>2014-08-17T15:49:13Z</time>
				<extensions>
					<speed>0.0</speed>
				</extensions>
			</trkpt>
			<trkpt lat="53.26230034" lon="-8.9358187">
				<ele>66.0</ele>
				<time>2014-08-17T15:49:14Z</time>
				<extensions>
					<speed>0.0</speed>
				</extensions>
			</trkpt>
			<trkpt lat="53.26229829" lon="-8.9358198">
				<ele>65.0</ele>
				<time>2014-08-17T15:49:15Z</time>
				<extensions>
					<speed>0.0</speed>
				</extensions>
			</trkpt>
			<trkpt lat="53.26229933" lon="-8.93582127">
				<ele>65.0</ele>
				<time>2014-08-17T15:49:16Z</time>
				<extensions>
					<speed>0.0</speed>
				</extensions>
			</trkpt>
			<trkpt lat="53.26229998" lon="-8.93581711">
				<ele>65.0</ele>
				<time>2014-08-17T15:49:17Z</time>
				<extensions>
					<speed>0.0</speed>
				</extensions>
			</trkpt>
			<trkpt lat="53.2623009" lon="-8.93581807">
				<ele>65.0</ele>
				<time>2014-08-17T15:49:18Z</time>
				<extensions>
					<speed>0.5</speed>
				</extensions>
			</trkpt>
			<trkpt lat="53.2623101" lon="-8.93583723">
				<ele>65.0</ele>
				<time>2014-08-17T15:49:19Z</time>
				<extensions>
					<speed>1.75</speed>
				</extensions>
			</trkpt>
			<trkpt lat="53.26231601" lon="-8.93585999">
				<ele>65.0</ele>
				<time>2014-08-17T15:49:20Z</time>
				<extensions>
					<speed>2.0</speed>
				</extensions>
			</trkpt>
			<trkpt lat="53.26231302" lon="-8.93588614">
				<ele>64.0</ele>
				<time>2014-08-17T15:49:21Z</time>
				<extensions>
					<speed>1.25</speed>
				</extensions>
			</trkpt>
			<trkpt lat="53.26230381" lon="-8.93589831">
				<ele>64.0</ele>
				<time>2014-08-17T15:49:22Z</time>
				<extensions>
					<speed>0.75</speed>
				</extensions>
			</trkpt>
			<trkpt lat="53.26230181" lon="-8.93590752">
				<ele>64.0</ele>
				<time>2014-08-17T15:49:23Z</time>
				<extensions>
					<speed>0.0</speed>
				</extensions>
			</trkpt>
			<trkpt lat="53.26230322" lon="-8.93591214">
				<ele>64.0</ele>
				<time>2014-08-17T15:49:24Z</time>
				<extensions>
					<speed>0.0</speed>
				</extensions>
			</trkpt>
			<trkpt lat="53.26230101" lon="-8.93591866">
				<ele>64.0</ele>
				<time>2014-08-17T15:49:25Z</time>
				<extensions>
					<speed>0.0</speed>
				</extensions>
			</trkpt>
			<trkpt lat="53.26230113" lon="-8.93591564">
				<ele>64.0</ele>
				<time>2014-08-17T15:49:26Z</time>
				<extensions>
					<speed>1.0</speed>
				</extensions>
			</trkpt>
			<trkpt lat="53.26231754" lon="-8.93588115">
				<ele>64.0</ele>
				<time>2014-08-17T15:49:27Z</time>
				<extensions>
					<speed>2.0</speed>
				</extensions>
			</trkpt>
			<trkpt lat="53.26232096" lon="-8.93586481">
				<ele>64.0</ele>
				<time>2014-08-17T15:49:28Z</time>
				<extensions>
					<speed>1.5</speed>
				</extensions>
			</trkpt>
			<trkpt lat="53.26232896" lon="-8.93584745">
				<ele>64.0</ele>
				<time>2014-08-17T15:49:29Z</time>
				<extensions>
					<speed>1.5</speed>
				</extensions>
			</trkpt>
			<trkpt lat="53.26233615" lon="-8.935846">
				<ele>64.0</ele>
				<time>2014-08-17T15:49:30Z</time>
				<extensions>
					<speed>0.75</speed>
				</extensions>
			</trkpt>
			<trkpt lat="53.2623322" lon="-8.93584364">
				<ele>65.0</ele>
				<time>2014-08-17T15:49:31Z</time>
				<extensions>
					<speed>0.5</speed>
				</extensions>
			</trkpt>
			<trkpt lat="53.26232362" lon="-8.93584958">
				<ele>64.0</ele>
				<time>2014-08-17T15:49:32Z</time>
				<extensions>
					<speed>0.5</speed>
				</extensions>
			</trkpt>
			<trkpt lat="53.26230215" lon="-8.93583246">
				<ele>63.0</ele>
				<time>2014-08-17T15:49:33Z</time>
				<extensions>
					<speed>2.0</speed>
				</extensions>
			</trkpt>
			<trkpt lat="53.26227297" lon="-8.93580907">
				<ele>64.0</ele>
				<time>2014-08-17T15:49:34Z</time>
				<extensions>
					<speed>3.5</speed>
				</extensions>
			</trkpt>
			<trkpt lat="53.26224284" lon="-8.93577521">
				<ele>64.0</ele>
				<time>2014-08-17T15:49:35Z</time>
				<extensions>
					<speed>4.25</speed>
				</extensions>
			</trkpt>
			<trkpt lat="53.26221142" lon="-8.93574135">
				<ele>64.0</ele>
				<time>2014-08-17T15:49:36Z</time>
				<extensions>
					<speed>4.25</speed>
				</extensions>
			</trkpt>
			<trkpt lat="53.26217762" lon="-8.93570995">
				<ele>64.0</ele>
				<time>2014-08-17T15:49:37Z</time>
				<extensions>
					<speed>4.0</speed>
				</extensions>
			</trkpt>
			<trkpt lat="53.26214902" lon="-8.93567843">
				<ele>64.0</ele>
				<time>2014-08-17T15:49:38Z</time>
				<extensions>
					<speed>4.0</speed>
				</extensions>
			</trkpt>
			<trkpt lat="53.26211958" lon="-8.93564919">
				<ele>64.0</ele>
				<time>2014-08-17T15:49:39Z</time>
				<extensions>
					<speed>3.75</speed>
				</extensions>
			</trkpt>
			<trkpt lat="53.26209361" lon="-8.93562806">
				<ele>64.0</ele>
				<time>2014-08-17T15:49:40Z</time>
				<extensions>
					<speed>3.0</speed>
				</extensions>
			</trkpt>
			<trkpt lat="53.26207391" lon="-8.9356189">
				<ele>64.0</ele>
				<time>2014-08-17T15:49:41Z</time>
				<extensions>
					<speed>2.25</speed>
				</extensions>
			</trkpt>
			<trkpt lat="53.2620634" lon="-8.93561081">
				<ele>64.0</ele>
				<time>2014-08-17T15:49:42Z</time>
				<extensions>
					<speed>1.5</speed>
				</extensions>
			</trkpt>
			<trkpt lat="53.2620553" lon="-8.93560655">
				<ele>64.0</ele>
				<time>2014-08-17T15:49:43Z</time>
				<extensions>
					<speed>1.0</speed>
				</extensions>
			</trkpt>
			<trkpt lat="53.26205584" lon="-8.93560514">
				<ele>65.0</ele>
				<time>2014-08-17T15:49:44Z</time>
				<extensions>
					<speed>0.0</speed>
				</extensions>
			</trkpt>
			<trkpt lat="53.2620572" lon="-8.93560261">
				<ele>65.0</ele>
				<time>2014-08-17T15:49:45Z</time>
				<extensions>
					<speed>0.25</speed>
				</extensions>
			</trkpt>
			<trkpt lat="53.26206717" lon="-8.93560522">
				<ele>65.0</ele>
				<time>2014-08-17T15:49:46Z</time>
				<extensions>
					<speed>0.75</speed>
				</extensions>
			</trkpt>
			<trkpt lat="53.26208088" lon="-8.93561307">
				<ele>65.0</ele>
				<time>2014-08-17T15:49:47Z</time>
				<extensions>
					<speed>1.25</speed>
				</extensions>
			</trkpt>
			<trkpt lat="53.26209529" lon="-8.9356189">
				<ele>64.0</ele>
				<time>2014-08-17T15:49:48Z</time>
				<extensions>
					<speed>1.25</speed>
				</extensions>
			</trkpt>
			<trkpt lat="53.26210971" lon="-8.93562145">
				<ele>64.0</ele>
				<time>2014-08-17T15:49:49Z</time>
				<extensions>
					<speed>1.5</speed>
				</extensions>
			</trkpt>
			<trkpt lat="53.26211897" lon="-8.93562809">
				<ele>64.0</ele>
				<time>2014-08-17T15:49:50Z</time>
				<extensions>
					<speed>1.0</speed>
				</extensions>
			</trkpt>
			<trkpt lat="53.26211918" lon="-8.93562396">
				<ele>64.0</ele>
				<time>2014-08-17T15:49:51Z</time>
				<extensions>
					<speed>0.25</speed>
				</extensions>
			</trkpt>
			<trkpt lat="53.26211683" lon="-8.93562057">
				<ele>64.0</ele>
				<time>2014-08-17T15:49:52Z</time>
				<extensions>
					<speed>0.0</speed>
				</extensions>
			</trkpt>
			<trkpt lat="53.2621166" lon="-8.9356195">
				<ele>64.0</ele>
				<time>2014-08-17T15:49:53Z</time>
				<extensions>
					<speed>0.0</speed>
				</extensions>
			</trkpt>
			<trkpt lat="53.26211561" lon="-8.93561952">
				<ele>64.0</ele>
				<time>2014-08-17T15:49:54Z</time>
				<extensions>
					<speed>0.0</speed>
				</extensions>
			</trkpt>
			<trkpt lat="53.26211446" lon="-8.93561824">
				<ele>64.0</ele>
				<time>2014-08-17T15:49:55Z</time>
				<extensions>
					<speed>0.0</speed>
				</extensions>
			</trkpt>
			<trkpt lat="53.2621138" lon="-8.93561761">
				<ele>64.0</ele>
				<time>2014-08-17T15:49:56Z</time>
				<extensions>
					<speed>0.0</speed>
				</extensions>
			</trkpt>
			<trkpt lat="53.26211355" lon="-8.93561608">
				<ele>64.0</ele>
				<time>2014-08-17T15:49:57Z</time>
				<extensions>
					<speed>0.0</speed>
				</extensions>
			</trkpt>
			<trkpt lat="53.26211329" lon="-8.93561361">
				<ele>64.0</ele>
				<time>2014-08-17T15:49:58Z</time>
				<extensions>
					<speed>0.0</speed>
				</extensions>
			</trkpt>
			<trkpt lat="53.26211333" lon="-8.93561055">
				<ele>64.0</ele>
				<time>2014-08-17T15:49:59Z</time>
				<extensions>
					<speed>0.0</speed>
				</extensions>
			</trkpt>
			<trkpt lat="53.26211315" lon="-8.93561179">
				<ele>64.0</ele>
				<time>2014-08-17T15:50:00Z</time>
				<extensions>
					<speed>0.0</speed>
				</extensions>
			</trkpt>
			<trkpt lat="53.26211315" lon="-8.93561179">
				<ele>64.0</ele>
				<time>2014-08-17T15:50:01Z</time>
				<extensions>
					<speed>0.0</speed>
				</extensions>
			</trkpt>
			<trkpt lat="53.26211315" lon="-8.93561179">
				<ele>64.0</ele>
				<time>2014-08-17T15:50:02Z</time>
				<extensions>
					<speed>0.0</speed>
				</extensions>
			</trkpt>
			<trkpt lat="53.26210868" lon="-8.93560667">
				<ele>64.0</ele>
				<time>2014-08-17T15:50:03Z</time>
				<extensions>
					<speed>2.25</speed>
				</extensions>
			</trkpt>
			<trkpt lat="53.26208486" lon="-8.93558334">
				<ele>64.0</ele>
				<time>2014-08-17T15:50:04Z</time>
				<extensions>
					<speed>2.75</speed>
				</extensions>
			</trkpt>
			<trkpt lat="53.26205171" lon="-8.93558346">
				<ele>64.0</ele>
				<time>2014-08-17T15:50:05Z</time>
				<extensions>
					<speed>3.25</speed>
				</extensions>
			</trkpt>
			<trkpt lat="53.26202196" lon="-8.93558554">
				<ele>64.0</ele>
				<time>2014-08-17T15:50:06Z</time>
				<extensions>
					<speed>3.5</speed>
				</extensions>
			</trkpt>
			<trkpt lat="53.26198411" lon="-8.93560186">
				<ele>64.0</ele>
				<time>2014-08-17T15:50:07Z</time>
				<extensions>
					<speed>3.25</speed>
				</extensions>
			</trkpt>
			<trkpt lat="53.26196209" lon="-8.93562758">
				<ele>63.0</ele>
				<time>2014-08-17T15:50:08Z</time>
				<extensions>
					<speed>3.5</speed>
				</extensions>
			</trkpt>
			<trkpt lat="53.26194173" lon="-8.93566226">
				<ele>63.0</ele>
				<time>2014-08-17T15:50:09Z</time>
				<extensions>
					<speed>3.25</speed>
				</extensions>
			</trkpt>
			<trkpt lat="53.26191814" lon="-8.93569239">
				<ele>62.0</ele>
				<time>2014-08-17T15:50:10Z</time>
				<extensions>
					<speed>3.0</speed>
				</extensions>
			</trkpt>
			<trkpt lat="53.26189168" lon="-8.9357253">
				<ele>63.0</ele>
				<time>2014-08-17T15:50:11Z</time>
				<extensions>
					<speed>3.5</speed>
				</extensions>
			</trkpt>
			<trkpt lat="53.26186113" lon="-8.9357581">
				<ele>64.0</ele>
				<time>2014-08-17T15:50:12Z</time>
				<extensions>
					<speed>4.0</speed>
				</extensions>
			</trkpt>
			<trkpt lat="53.26182731" lon="-8.93578965">
				<ele>64.0</ele>
				<time>2014-08-17T15:50:13Z</time>
				<extensions>
					<speed>4.0</speed>
				</extensions>
			</trkpt>
			<trkpt lat="53.26179694" lon="-8.9358226">
				<ele>64.0</ele>
				<time>2014-08-17T15:50:14Z</time>
				<extensions>
					<speed>4.0</speed>
				</extensions>
			</trkpt>
			<trkpt lat="53.2617636" lon="-8.93584805">
				<ele>65.0</ele>
				<time>2014-08-17T15:50:15Z</time>
				<extensions>
					<speed>3.75</speed>
				</extensions>
			</trkpt>
			<trkpt lat="53.26173378" lon="-8.93587627">
				<ele>65.0</ele>
				<time>2014-08-17T15:50:16Z</time>
				<extensions>
					<speed>3.75</speed>
				</extensions>
			</trkpt>
			<trkpt lat="53.26170515" lon="-8.93590488">
				<ele>65.0</ele>
				<time>2014-08-17T15:50:17Z</time>
				<extensions>
					<speed>3.25</speed>
				</extensions>
			</trkpt>
			<trkpt lat="53.26167752" lon="-8.93593039">
				<ele>65.0</ele>
				<time>2014-08-17T15:50:18Z</time>
				<extensions>
					<speed>2.5</speed>
				</extensions>
			</trkpt>
			<trkpt lat="53.26165764" lon="-8.93594223">
				<ele>66.0</ele>
				<time>2014-08-17T15:50:19Z</time>
				<extensions>
					<speed>1.25</speed>
				</extensions>
			</trkpt>
			<trkpt lat="53.261647" lon="-8.93595613">
				<ele>66.0</ele>
				<time>2014-08-17T15:50:20Z</time>
				<extensions>
					<speed>1.0</speed>
				</extensions>
			</trkpt>
			<trkpt lat="53.26164539" lon="-8.93596064">
				<ele>66.0</ele>
				<time>2014-08-17T15:50:21Z</time>
				<extensions>
					<speed>0.0</speed>
				</extensions>
			</trkpt>
			<trkpt lat="53.26164545" lon="-8.93596217">
				<ele>66.0</ele>
				<time>2014-08-17T15:50:22Z</time>
				<extensions>
					<speed>0.0</speed>
				</extensions>
			</trkpt>
			<trkpt lat="53.26164612" lon="-8.9359623">
				<ele>65.0</ele>
				<time>2014-08-17T15:50:23Z</time>
				<extensions>
					<speed>0.0</speed>
				</extensions>
			</trkpt>
			<trkpt lat="53.26164721" lon="-8.93596499">
				<ele>65.0</ele>
				<time>2014-08-17T15:50:24Z</time>
				<extensions>
					<speed>0.0</speed>
				</extensions>
			</trkpt>
			<trkpt lat="53.2616491" lon="-8.93596502">
				<ele>65.0</ele>
				<time>2014-08-17T15:50:25Z</time>
				<extensions>
					<speed>0.0</speed>
				</extensions>
			</trkpt>
			<trkpt lat="53.26164885" lon="-8.93596672">
				<ele>65.0</ele>
				<time>2014-08-17T15:50:26Z</time>
				<extensions>
					<speed>0.0</speed>
				</extensions>
			</trkpt>
			<trkpt lat="53.26164913" lon="-8.93597057">
				<ele>65.0</ele>
				<time>2014-08-17T15:50:27Z</time>
				<extensions>
					<speed>0.0</speed>
				</extensions>
			</trkpt>
			<trkpt lat="53.26164902" lon="-8.93597289">
				<ele>65.0</ele>
				<time>2014-08-17T15:50:28Z</time>
				<extensions>
					<speed>0.0</speed>
				</extensions>
			</trkpt>
			<trkpt lat="53.26164789" lon="-8.93597479">
				<ele>65.0</ele>
				<time>2014-08-17T15:50:29Z</time>
				<extensions>
					<speed>0.0</speed>
				</extensions>
			</trkpt>
			<trkpt lat="53.26164803" lon="-8.93597518">
				<ele>65.0</ele>
				<time>2014-08-17T15:50:30Z</time>
				<extensions>
					<speed>0.0</speed>
				</extensions>
			</trkpt>
			<trkpt lat="53.26164948" lon="-8.93597552">
				<ele>65.0</ele>
				<time>2014-08-17T15:50:31Z</time>
				<extensions>
					<speed>0.0</speed>
				</extensions>
			</trkpt>
			<trkpt lat="53.26164981" lon="-8.93597565">
				<ele>65.0</ele>
				<time>2014-08-17T15:50:32Z</time>
				<extensions>
					<speed>0.0</speed>
				</extensions>
			</trkpt>
			<trkpt lat="53.26164958" lon="-8.9359761">
				<ele>65.0</ele>
				<time>2014-08-17T15:50:33Z</time>
				<extensions>
					<speed>0.0</speed>
				</extensions>
			</trkpt>
			<trkpt lat="53.26164955" lon="-8.93597624">
				<ele>65.0</ele>
				<time>2014-08-17T15:50:34Z</time>
				<extensions>
					<speed>0.0</speed>
				</extensions>
			</trkpt>
			<trkpt lat="53.26164954" lon="-8.93597625">
				<ele>65.0</ele>
				<time>2014-08-17T15:50:35Z</time>
				<extensions>
					<speed>0.0</speed>
				</extensions>
			</trkpt>
			<trkpt lat="53.26164952" lon="-8.93597626">
				<ele>65.0</ele>
				<time>2014-08-17T15:50:36Z</time>
				<extensions>
					<speed>0.0</speed>
				</extensions>
			</trkpt>
			<trkpt lat="53.26164955" lon="-8.93597626">
				<ele>65.0</ele>
				<time>2014-08-17T15:50:37Z</time>
				<extensions>
					<speed>0.0</speed>
				</extensions>
			</trkpt>
			<trkpt lat="53.26164953" lon="-8.93597624">
				<ele>65.0</ele>
				<time>2014-08-17T15:50:38Z</time>
				<extensions>
					<speed>0.0</speed>
				</extensions>
			</trkpt>
			<trkpt lat="53.26164952" lon="-8.93597626">
				<ele>65.0</ele>
				<time>2014-08-17T15:50:39Z</time>
				<extensions>
					<speed>0.0</speed>
				</extensions>
			</trkpt>
			<trkpt lat="53.2616495" lon="-8.93597623">
				<ele>65.0</ele>
				<time>2014-08-17T15:50:40Z</time>
				<extensions>
					<speed>0.0</speed>
				</extensions>
			</trkpt>
			<trkpt lat="53.26164948" lon="-8.93597624">
				<ele>65.0</ele>
				<time>2014-08-17T15:50:41Z</time>
				<extensions>
					<speed>0.0</speed>
				</extensions>
			</trkpt>
			<trkpt lat="53.26164946" lon="-8.93597621">
				<ele>65.0</ele>
				<time>2014-08-17T15:50:42Z</time>
				<extensions>
					<speed>0.0</speed>
				</extensions>
			</trkpt>
			<trkpt lat="53.26164943" lon="-8.93597615">
				<ele>65.0</ele>
				<time>2014-08-17T15:50:43Z</time>
				<extensions>
					<speed>0.0</speed>
				</extensions>
			</trkpt>
			<trkpt lat="53.26164943" lon="-8.93597612">
				<ele>65.0</ele>
				<time>2014-08-17T15:50:44Z</time>
				<extensions>
					<speed>0.0</speed>
				</extensions>
			</trkpt>
			<trkpt lat="53.26164941" lon="-8.9359761">
				<ele>65.0</ele>
				<time>2014-08-17T15:50:45Z</time>
				<extensions>
					<speed>0.0</speed>
				</extensions>
			</trkpt>
			<trkpt lat="53.26164937" lon="-8.93597606">
				<ele>65.0</ele>
				<time>2014-08-17T15:50:46Z</time>
				<extensions>
					<speed>0.0</speed>
				</extensions>
			</trkpt>
			<trkpt lat="53.26164936" lon="-8.93597602">
				<ele>65.0</ele>
				<time>2014-08-17T15:50:47Z</time>
				<extensions>
					<speed>0.0</speed>
				</extensions>
			</trkpt>
			<trkpt lat="53.26164933" lon="-8.935976">
				<ele>65.0</ele>
				<time>2014-08-17T15:50:48Z</time>
				<extensions>
					<speed>0.0</speed>
				</extensions>
			</trkpt>
			<trkpt lat="53.26164933" lon="-8.93597589">
				<ele>65.0</ele>
				<time>2014-08-17T15:50:49Z</time>
				<extensions>
					<speed>0.0</speed>
				</extensions>
			</trkpt>
			<trkpt lat="53.26164931" lon="-8.93597583">
				<ele>65.0</ele>
				<time>2014-08-17T15:50:50Z</time>
				<extensions>
					<speed>0.0</speed>
				</extensions>
			</trkpt>
			<trkpt lat="53.26164928" lon="-8.93597579">
				<ele>65.0</ele>
				<time>2014-08-17T15:50:51Z</time>
				<extensions>
					<speed>0.0</speed>
				</extensions>
			</trkpt>
			<trkpt lat="53.26164926" lon="-8.93597573">
				<ele>65.0</ele>
				<time>2014-08-17T15:50:52Z</time>
				<extensions>
					<speed>0.0</speed>
				</extensions>
			</trkpt>
			<trkpt lat="53.2616492" lon="-8.93597575">
				<ele>65.0</ele>
				<time>2014-08-17T15:50:53Z</time>
				<extensions>
					<speed>0.0</speed>
				</extensions>
			</trkpt>
			<trkpt lat="53.2616492" lon="-8.93597575">
				<ele>65.0</ele>
				<time>2014-08-17T15:50:54Z</time>
				<extensions>
					<speed>0.0</speed>
				</extensions>
			</trkpt>
			<trkpt lat="53.26164917" lon="-8.93597574">
				<ele>65.0</ele>
				<time>2014-08-17T15:50:55Z</time>
				<extensions>
					<speed>0.0</speed>
				</extensions>
			</trkpt>
			<trkpt lat="53.26164829" lon="-8.93597655">
				<ele>65.0</ele>
				<time>2014-08-17T15:50:56Z</time>
				<extensions>
					<speed>0.75</speed>
				</extensions>
			</trkpt>
			<trkpt lat="53.26164359" lon="-8.93598602">
				<ele>65.0</ele>
				<time>2014-08-17T15:50:57Z</time>
				<extensions>
					<speed>1.25</speed>
				</extensions>
			</trkpt>
			<trkpt lat="53.26163227" lon="-8.93599557">
				<ele>65.0</ele>
				<time>2014-08-17T15:50:58Z</time>
				<extensions>
					<speed>1.5</speed>
				</extensions>
			</trkpt>
			<trkpt lat="53.26161698" lon="-8.93599813">
				<ele>65.0</ele>
				<time>2014-08-17T15:50:59Z</time>
				<extensions>
					<speed>1.5</speed>
				</extensions>
			</trkpt>
			<trkpt lat="53.26160357" lon="-8.93599533">
				<ele>65.0</ele>
				<time>2014-08-17T15:51:00Z</time>
				<extensions>
					<speed>1.0</speed>
				</extensions>
			</trkpt>
			<trkpt lat="53.26159841" lon="-8.93599204">
				<ele>65.0</ele>
				<time>2014-08-17T15:51:01Z</time>
				<extensions>
					<speed>0.75</speed>
				</extensions>
			</trkpt>
			<trkpt lat="53.26159694" lon="-8.93598948">
				<ele>65.0</ele>
				<time>2014-08-17T15:51:02Z</time>
				<extensions>
					<speed>0.0</speed>
				</extensions>
			</trkpt>
			<trkpt lat="53.26159694" lon="-8.93598948">
				<ele>65.0</ele>
				<time>2014-08-17T15:51:03Z</time>
				<extensions>
					<speed>0.0</speed>
				</extensions>
			</trkpt>
			<trkpt lat="53.26159694" lon="-8.93598948">
				<ele>65.0</ele>
				<time>2014-08-17T15:51:04Z</time>
				<extensions>
					<speed>0.0</speed>
				</extensions>
			</trkpt>
			<trkpt lat="53.2615945" lon="-8.93599631">
				<ele>66.0</ele>
				<time>2014-08-17T15:51:05Z</time>
				<extensions>
					<speed>0.0</speed>
				</extensions>
			</trkpt>
			<trkpt lat="53.26159295" lon="-8.93599725">
				<ele>67.0</ele>
				<time>2014-08-17T15:51:06Z</time>
				<extensions>
					<speed>0.0</speed>
				</extensions>
			</trkpt>
			<trkpt lat="53.26159009" lon="-8.93600057">
				<ele>67.0</ele>
				<time>2014-08-17T15:51:07Z</time>
				<extensions>
					<speed>0.0</speed>
				</extensions>
			</trkpt>
			<trkpt lat="53.26158778" lon="-8.93599976">
				<ele>68.0</ele>
				<time>2014-08-17T15:51:08Z</time>
				<extensions>
					<speed>0.0</speed>
				</extensions>
			</trkpt>
			<trkpt lat="53.26158721" lon="-8.93600142">
				<ele>68.0</ele>
				<time>2014-08-17T15:51:09Z</time>
				<extensions>
					<speed>0.0</speed>
				</extensions>
			</trkpt>
			<trkpt lat="53.26158537" lon="-8.93600128">
				<ele>68.0</ele>
				<time>2014-08-17T15:51:10Z</time>
				<extensions>
					<speed>0.0</speed>
				</extensions>
			</trkpt>
			<trkpt lat="53.26158282" lon="-8.93599832">
				<ele>68.0</ele>
				<time>2014-08-17T15:51:11Z</time>
				<extensions>
					<speed>1.75</speed>
				</extensions>
			</trkpt>
			<trkpt lat="53.26156847" lon="-8.93596993">
				<ele>68.0</ele>
				<time>2014-08-17T15:51:12Z</time>
				<extensions>
					<speed>1.75</speed>
				</extensions>
			</trkpt>
			<trkpt lat="53.26156372" lon="-8.93595144">
				<ele>68.0</ele>
				<time>2014-08-17T15:51:13Z</time>
				<extensions>
					<speed>0.75</speed>
				</extensions>
			</trkpt>
			<trkpt lat="53.26155975" lon="-8.93594471">
				<ele>68.0</ele>
				<time>2014-08-17T15:51:14Z</time>
				<extensions>
					<speed>0.0</speed>
				</extensions>
			</trkpt>
			<trkpt lat="53.26156011" lon="-8.93594804">
				<ele>68.0</ele>
				<time>2014-08-17T15:51:15Z</time>
				<extensions>
					<speed>0.0</speed>
				</extensions>
			</trkpt>
			<trkpt lat="53.26155817" lon="-8.93594924">
				<ele>68.0</ele>
				<time>2014-08-17T15:51:16Z</time>
				<extensions>
					<speed>0.0</speed>
				</extensions>
			</trkpt>
			<trkpt lat="53.26155872" lon="-8.93595027">
				<ele>68.0</ele>
				<time>2014-08-17T15:51:17Z</time>
				<extensions>
					<speed>0.75</speed>
				</extensions>
			</trkpt>
			<trkpt lat="53.26156823" lon="-8.93595978">
				<ele>67.0</ele>
				<time>2014-08-17T15:51:18Z</time>
				<extensions>
					<speed>1.25</speed>
				</extensions>
			</trkpt>
			<trkpt lat="53.26157195" lon="-8.93596659">
				<ele>67.0</ele>
				<time>2014-08-17T15:51:19Z</time>
				<extensions>
					<speed>1.0</speed>
				</extensions>
			</trkpt>
			<trkpt lat="53.26157203" lon="-8.9359817">
				<ele>67.0</ele>
				<time>2014-08-17T15:51:20Z</time>
				<extensions>
					<speed>1.0</speed>
				</extensions>
			</trkpt>
			<trkpt lat="53.26157147" lon="-8.9359921">
				<ele>68.0</ele>
				<time>2014-08-17T15:51:21Z</time>
				<extensions>
					<speed>1.0</speed>
				</extensions>
			</trkpt>
			<trkpt lat="53.26157007" lon="-8.93600693">
				<ele>68.0</ele>
				<time>2014-08-17T15:51:22Z</time>
				<extensions>
					<speed>1.0</speed>
				</extensions>
			</trkpt>
			<trkpt lat="53.26156965" lon="-8.93600631">
				<ele>67.0</ele>
				<time>2014-08-17T15:51:23Z</time>
				<extensions>
					<speed>0.5</speed>
				</extensions>
			</trkpt>
			<trkpt lat="53.26156554" lon="-8.93600377">
				<ele>67.0</ele>
				<time>2014-08-17T15:51:24Z</time>
				<extensions>
					<speed>0.0</speed>
				</extensions>
			</trkpt>
			<trkpt lat="53.26155923" lon="-8.93600484">
				<ele>67.0</ele>
				<time>2014-08-17T15:51:25Z</time>
				<extensions>
					<speed>0.0</speed>
				</extensions>
			</trkpt>
			<trkpt lat="53.26156109" lon="-8.93600321">
				<ele>67.0</ele>
				<time>2014-08-17T15:51:26Z</time>
				<extensions>
					<speed>2.0</speed>
				</extensions>
			</trkpt>
			<trkpt lat="53.26158682" lon="-8.9359799">
				<ele>68.0</ele>
				<time>2014-08-17T15:51:27Z</time>
				<extensions>
					<speed>3.25</speed>
				</extensions>
			</trkpt>
			<trkpt lat="53.26162204" lon="-8.93595216">
				<ele>68.0</ele>
				<time>2014-08-17T15:51:28Z</time>
				<extensions>
					<speed>4.25</speed>
				</extensions>
			</trkpt>
			<trkpt lat="53.26166051" lon="-8.93591724">
				<ele>67.0</ele>
				<time>2014-08-17T15:51:29Z</time>
				<extensions>
					<speed>5.25</speed>
				</extensions>
			</trkpt>
			<trkpt lat="53.26170497" lon="-8.93589024">
				<ele>68.0</ele>
				<time>2014-08-17T15:51:30Z</time>
				<extensions>
					<speed>5.25</speed>
				</extensions>
			</trkpt>
			<trkpt lat="53.26175556" lon="-8.93585265">
				<ele>68.0</ele>
				<time>2014-08-17T15:51:31Z</time>
				<extensions>
					<speed>6.0</speed>
				</extensions>
			</trkpt>
			<trkpt lat="53.26180749" lon="-8.93581328">
				<ele>68.0</ele>
				<time>2014-08-17T15:51:32Z</time>
				<extensions>
					<speed>6.75</speed>
				</extensions>
			</trkpt>
			<trkpt lat="53.26185352" lon="-8.93577274">
				<ele>67.0</ele>
				<time>2014-08-17T15:51:33Z</time>
				<extensions>
					<speed>5.75</speed>
				</extensions>
			</trkpt>
			<trkpt lat="53.26189858" lon="-8.93573208">
				<ele>67.0</ele>
				<time>2014-08-17T15:51:34Z</time>
				<extensions>
					<speed>5.75</speed>
				</extensions>
			</trkpt>
			<trkpt lat="53.26194364" lon="-8.93569142">
				<ele>67.0</ele>
				<time>2014-08-17T15:51:35Z</time>
				<extensions>
					<speed>5.75</speed>
				</extensions>
			</trkpt>
			<trkpt lat="53.26195241" lon="-8.93566309">
				<ele>68.0</ele>
				<time>2014-08-17T15:51:36Z</time>
				<extensions>
					<speed>2.75</speed>
				</extensions>
			</trkpt>
			<trkpt lat="53.26195577" lon="-8.9356308">
				<ele>68.0</ele>
				<time>2014-08-17T15:51:37Z</time>
				<extensions>
					<speed>1.0</speed>
				</extensions>
			</trkpt>
			<trkpt lat="53.26196484" lon="-8.93561904">
				<ele>68.0</ele>
				<time>2014-08-17T15:51:38Z</time>
				<extensions>
					<speed>0.0</speed>
				</extensions>
			</trkpt>
			<trkpt lat="53.26197001" lon="-8.9356149">
				<ele>68.0</ele>
				<time>2014-08-17T15:51:39Z</time>
				<extensions>
					<speed>0.0</speed>
				</extensions>
			</trkpt>
			<trkpt lat="53.26197278" lon="-8.93561087">
				<ele>67.0</ele>
				<time>2014-08-17T15:51:40Z</time>
				<extensions>
					<speed>0.0</speed>
				</extensions>
			</trkpt>
			<trkpt lat="53.26197468" lon="-8.93560698">
				<ele>67.0</ele>
				<time>2014-08-17T15:51:41Z</time>
				<extensions>
					<speed>0.0</speed>
				</extensions>
			</trkpt>
			<trkpt lat="53.26197935" lon="-8.93560402">
				<ele>67.0</ele>
				<time>2014-08-17T15:51:42Z</time>
				<extensions>
					<speed>0.0</speed>
				</extensions>
			</trkpt>
			<trkpt lat="53.26197825" lon="-8.93560275">
				<ele>66.0</ele>
				<time>2014-08-17T15:51:43Z</time>
				<extensions>
					<speed>0.0</speed>
				</extensions>
			</trkpt>
			<trkpt lat="53.26197824" lon="-8.93560137">
				<ele>66.0</ele>
				<time>2014-08-17T15:51:44Z</time>
				<extensions>
					<speed>0.0</speed>
				</extensions>
			</trkpt>
			<trkpt lat="53.26197793" lon="-8.93560243">
				<ele>67.0</ele>
				<time>2014-08-17T15:51:45Z</time>
				<extensions>
					<speed>0.0</speed>
				</extensions>
			</trkpt>
			<trkpt lat="53.26197693" lon="-8.93560407">
				<ele>67.0</ele>
				<time>2014-08-17T15:51:46Z</time>
				<extensions>
					<speed>0.0</speed>
				</extensions>
			</trkpt>
			<trkpt lat="53.26197525" lon="-8.93560454">
				<ele>66.0</ele>
				<time>2014-08-17T15:51:47Z</time>
				<extensions>
					<speed>0.0</speed>
				</extensions>
			</trkpt>
			<trkpt lat="53.2619748" lon="-8.93560615">
				<ele>66.0</ele>
				<time>2014-08-17T15:51:48Z</time>
				<extensions>
					<speed>0.0</speed>
				</extensions>
			</trkpt>
			<trkpt lat="53.26197475" lon="-8.93560606">
				<ele>66.0</ele>
				<time>2014-08-17T15:51:49Z</time>
				<extensions>
					<speed>0.0</speed>
				</extensions>
			</trkpt>
			<trkpt lat="53.26197478" lon="-8.93560601">
				<ele>67.0</ele>
				<time>2014-08-17T15:51:50Z</time>
				<extensions>
					<speed>0.0</speed>
				</extensions>
			</trkpt>
			<trkpt lat="53.26197472" lon="-8.93560597">
				<ele>67.0</ele>
				<time>2014-08-17T15:51:51Z</time>
				<extensions>
					<speed>0.0</speed>
				</extensions>
			</trkpt>
			<trkpt lat="53.26197471" lon="-8.93560603">
				<ele>67.0</ele>
				<time>2014-08-17T15:51:52Z</time>
				<extensions>
					<speed>0.0</speed>
				</extensions>
			</trkpt>
			<trkpt lat="53.26197472" lon="-8.93560604">
				<ele>67.0</ele>
				<time>2014-08-17T15:51:53Z</time>
				<extensions>
					<speed>0.0</speed>
				</extensions>
			</trkpt>
			<trkpt lat="53.26197469" lon="-8.93560604">
				<ele>67.0</ele>
				<time>2014-08-17T15:51:54Z</time>
				<extensions>
					<speed>0.0</speed>
				</extensions>
			</trkpt>
			<trkpt lat="53.26197469" lon="-8.93560603">
				<ele>67.0</ele>
				<time>2014-08-17T15:51:55Z</time>
				<extensions>
					<speed>0.0</speed>
				</extensions>
			</trkpt>
			<trkpt lat="53.26197465" lon="-8.93560601">
				<ele>67.0</ele>
				<time>2014-08-17T15:51:56Z</time>
				<extensions>
					<speed>0.0</speed>
				</extensions>
			</trkpt>
			<trkpt lat="53.26197465" lon="-8.93560598">
				<ele>67.0</ele>
				<time>2014-08-17T15:51:57Z</time>
				<extensions>
					<speed>0.0</speed>
				</extensions>
			</trkpt>
			<trkpt lat="53.26197462" lon="-8.93560597">
				<ele>67.0</ele>
				<time>2014-08-17T15:51:58Z</time>
				<extensions>
					<speed>0.0</speed>
				</extensions>
			</trkpt>
			<trkpt lat="53.26197463" lon="-8.93560595">
				<ele>67.0</ele>
				<time>2014-08-17T15:51:59Z</time>
				<extensions>
					<speed>0.0</speed>
				</extensions>
			</trkpt>
			<trkpt lat="53.26197463" lon="-8.93560593">
				<ele>67.0</ele>
				<time>2014-08-17T15:52:00Z</time>
				<extensions>
					<speed>0.0</speed>
				</extensions>
			</trkpt>
			<trkpt lat="53.26197465" lon="-8.9356059">
				<ele>67.0</ele>
				<time>2014-08-17T15:52:01Z</time>
				<extensions>
					<speed>0.0</speed>
				</extensions>
			</trkpt>
			<trkpt lat="53.26197463" lon="-8.93560589">
				<ele>66.0</ele>
				<time>2014-08-17T15:52:02Z</time>
				<extensions>
					<speed>0.0</speed>
				</extensions>
			</trkpt>
			<trkpt lat="53.26197465" lon="-8.93560586">
				<ele>66.0</ele>
				<time>2014-08-17T15:52:03Z</time>
				<extensions>
					<speed>0.0</speed>
				</extensions>
			</trkpt>
			<trkpt lat="53.26197462" lon="-8.93560586">
				<ele>66.0</ele>
				<time>2014-08-17T15:52:04Z</time>
				<extensions>
					<speed>0.0</speed>
				</extensions>
			</trkpt>
			<trkpt lat="53.26197461" lon="-8.93560586">
				<ele>66.0</ele>
				<time>2014-08-17T15:52:05Z</time>
				<extensions>
					<speed>0.0</speed>
				</extensions>
			</trkpt>
			<trkpt lat="53.26197462" lon="-8.93560586">
				<ele>66.0</ele>
				<time>2014-08-17T15:52:06Z</time>
				<extensions>
					<speed>0.0</speed>
				</extensions>
			</trkpt>
			<trkpt lat="53.26197462" lon="-8.93560586">
				<ele>66.0</ele>
				<time>2014-08-17T15:52:07Z</time>
				<extensions>
					<speed>0.0</speed>
				</extensions>
			</trkpt>
			<trkpt lat="53.26197464" lon="-8.93560587">
				<ele>66.0</ele>
				<time>2014-08-17T15:52:08Z</time>
				<extensions>
					<speed>0.0</speed>
				</extensions>
			</trkpt>
			<trkpt lat="53.26197461" lon="-8.93560597">
				<ele>66.0</ele>
				<time>2014-08-17T15:52:09Z</time>
				<extensions>
					<speed>0.0</speed>
				</extensions>
			</trkpt>
			<trkpt lat="53.2619746" lon="-8.93560597">
				<ele>66.0</ele>
				<time>2014-08-17T15:52:10Z</time>
				<extensions>
					<speed>0.0</speed>
				</extensions>
			</trkpt>
			<trkpt lat="53.26197458" lon="-8.93560599">
				<ele>66.0</ele>
				<time>2014-08-17T15:52:11Z</time>
				<extensions>
					<speed>0.0</speed>
				</extensions>
			</trkpt>
			<trkpt lat="53.26197454" lon="-8.935606">
				<ele>67.0</ele>
				<time>2014-08-17T15:52:12Z</time>
				<extensions>
					<speed>0.0</speed>
				</extensions>
			</trkpt>
			<trkpt lat="53.26197452" lon="-8.935606">
				<ele>67.0</ele>
				<time>2014-08-17T15:52:13Z</time>
				<extensions>
					<speed>0.0</speed>
				</extensions>
			</trkpt>
			<trkpt lat="53.26197452" lon="-8.93560601">
				<ele>67.0</ele>
				<time>2014-08-17T15:52:14Z</time>
				<extensions>
					<speed>0.0</speed>
				</extensions>
			</trkpt>
			<trkpt lat="53.26197451" lon="-8.93560601">
				<ele>67.0</ele>
				<time>2014-08-17T15:52:15Z</time>
				<extensions>
					<speed>0.0</speed>
				</extensions>
			</trkpt>
			<trkpt lat="53.26197449" lon="-8.93560601">
				<ele>67.0</ele>
				<time>2014-08-17T15:52:16Z</time>
				<extensions>
					<speed>0.0</speed>
				</extensions>
			</trkpt>
			<trkpt lat="53.26197451" lon="-8.93560602">
				<ele>67.0</ele>
				<time>2014-08-17T15:52:17Z</time>
				<extensions>
					<speed>0.0</speed>
				</extensions>
			</trkpt>
			<trkpt lat="53.26197449" lon="-8.93560615">
				<ele>67.0</ele>
				<time>2014-08-17T15:52:18Z</time>
				<extensions>
					<speed>0.0</speed>
				</extensions>
			</trkpt>
			<trkpt lat="53.26197445" lon="-8.93560615">
				<ele>67.0</ele>
				<time>2014-08-17T15:52:19Z</time>
				<extensions>
					<speed>0.0</speed>
				</extensions>
			</trkpt>
			<trkpt lat="53.26197444" lon="-8.93560617">
				<ele>67.0</ele>
				<time>2014-08-17T15:52:20Z</time>
				<extensions>
					<speed>0.0</speed>
				</extensions>
			</trkpt>
			<trkpt lat="53.26197442" lon="-8.93560617">
				<ele>67.0</ele>
				<time>2014-08-17T15:52:21Z</time>
				<extensions>
					<speed>0.0</speed>
				</extensions>
			</trkpt>
			<trkpt lat="53.26197442" lon="-8.93560617">
				<ele>67.0</ele>
				<time>2014-08-17T15:52:22Z</time>
				<extensions>
					<speed>0.0</speed>
				</extensions>
			</trkpt>
			<trkpt lat="53.26197441" lon="-8.93560621">
				<ele>67.0</ele>
				<time>2014-08-17T15:52:23Z</time>
				<extensions>
					<speed>0.0</speed>
				</extensions>
			</trkpt>
			<trkpt lat="53.2619744" lon="-8.93560621">
				<ele>67.0</ele>
				<time>2014-08-17T15:52:24Z</time>
				<extensions>
					<speed>0.0</speed>
				</extensions>
			</trkpt>
			<trkpt lat="53.26197441" lon="-8.93560621">
				<ele>67.0</ele>
				<time>2014-08-17T15:52:25Z</time>
				<extensions>
					<speed>0.0</speed>
				</extensions>
			</trkpt>
			<trkpt lat="53.26197439" lon="-8.93560619">
				<ele>67.0</ele>
				<time>2014-08-17T15:52:26Z</time>
				<extensions>
					<speed>0.0</speed>
				</extensions>
			</trkpt>
			<trkpt lat="53.26197439" lon="-8.93560619">
				<ele>67.0</ele>
				<time>2014-08-17T15:52:27Z</time>
				<extensions>
					<speed>0.0</speed>
				</extensions>
			</trkpt>
			<trkpt lat="53.26197438" lon="-8.9356062">
				<ele>67.0</ele>
				<time>2014-08-17T15:52:28Z</time>
				<extensions>
					<speed>0.0</speed>
				</extensions>
			</trkpt>
			<trkpt lat="53.26197437" lon="-8.93560618">
				<ele>67.0</ele>
				<time>2014-08-17T15:52:29Z</time>
				<extensions>
					<speed>0.0</speed>
				</extensions>
			</trkpt>
			<trkpt lat="53.26197438" lon="-8.93560614">
				<ele>67.0</ele>
				<time>2014-08-17T15:52:30Z</time>
				<extensions>
					<speed>0.0</speed>
				</extensions>
			</trkpt>
			<trkpt lat="53.26197437" lon="-8.93560615">
				<ele>67.0</ele>
				<time>2014-08-17T15:52:31Z</time>
				<extensions>
					<speed>0.0</speed>
				</extensions>
			</trkpt>
			<trkpt lat="53.26197436" lon="-8.93560614">
				<ele>67.0</ele>
				<time>2014-08-17T15:52:32Z</time>
				<extensions>
					<speed>0.0</speed>
				</extensions>
			</trkpt>
			<trkpt lat="53.26197437" lon="-8.93560611">
				<ele>67.0</ele>
				<time>2014-08-17T15:52:33Z</time>
				<extensions>
					<speed>0.0</speed>
				</extensions>
			</trkpt>
			<trkpt lat="53.26197438" lon="-8.93560612">
				<ele>67.0</ele>
				<time>2014-08-17T15:52:34Z</time>
				<extensions>
					<speed>0.0</speed>
				</extensions>
			</trkpt>
			<trkpt lat="53.26197435" lon="-8.93560613">
				<ele>67.0</ele>
				<time>2014-08-17T15:52:35Z</time>
				<extensions>
					<speed>0.0</speed>
				</extensions>
			</trkpt>
			<trkpt lat="53.26197435" lon="-8.93560611">
				<ele>67.0</ele>
				<time>2014-08-17T15:52:36Z</time>
				<extensions>
					<speed>0.0</speed>
				</extensions>
			</trkpt>
			<trkpt lat="53.26197436" lon="-8.93560611">
				<ele>67.0</ele>
				<time>2014-08-17T15:52:37Z</time>
				<extensions>
					<speed>0.0</speed>
				</extensions>
			</trkpt>
			<trkpt lat="53.26197437" lon="-8.93560614">
				<ele>67.0</ele>
				<time>2014-08-17T15:52:38Z</time>
				<extensions>
					<speed>0.0</speed>
				</extensions>
			</trkpt>
			<trkpt lat="53.26197435" lon="-8.93560613">
				<ele>67.0</ele>
				<time>2014-08-17T15:52:39Z</time>
				<extensions>
					<speed>0.0</speed>
				</extensions>
			</trkpt>
			<trkpt lat="53.26197432" lon="-8.93560617">
				<ele>67.0</ele>
				<time>2014-08-17T15:52:40Z</time>
				<extensions>
					<speed>0.0</speed>
				</extensions>
			</trkpt>
			<trkpt lat="53.26197431" lon="-8.93560619">
				<ele>67.0</ele>
				<time>2014-08-17T15:52:41Z</time>
				<extensions>
					<speed>0.0</speed>
				</extensions>
			</trkpt>
			<trkpt lat="53.26197426" lon="-8.93560617">
				<ele>67.0</ele>
				<time>2014-08-17T15:52:42Z</time>
				<extensions>
					<speed>0.0</speed>
				</extensions>
			</trkpt>
			<trkpt lat="53.26197424" lon="-8.93560618">
				<ele>67.0</ele>
				<time>2014-08-17T15:52:43Z</time>
				<extensions>
					<speed>0.0</speed>
				</extensions>
			</trkpt>
			<trkpt lat="53.26197423" lon="-8.93560621">
				<ele>67.0</ele>
				<time>2014-08-17T15:52:44Z</time>
				<extensions>
					<speed>0.0</speed>
				</extensions>
			</trkpt>
			<trkpt lat="53.26197422" lon="-8.93560624">
				<ele>67.0</ele>
				<time>2014-08-17T15:52:45Z</time>
				<extensions>
					<speed>0.0</speed>
				</extensions>
			</trkpt>
			<trkpt lat="53.26197417" lon="-8.93560619">
				<ele>67.0</ele>
				<time>2014-08-17T15:52:46Z</time>
				<extensions>
					<speed>0.0</speed>
				</extensions>
			</trkpt>
			<trkpt lat="53.26197415" lon="-8.93560619">
				<ele>67.0</ele>
				<time>2014-08-17T15:52:47Z</time>
				<extensions>
					<speed>0.0</speed>
				</extensions>
			</trkpt>
			<trkpt lat="53.26197411" lon="-8.93560622">
				<ele>67.0</ele>
				<time>2014-08-17T15:52:48Z</time>
				<extensions>
					<speed>0.0</speed>
				</extensions>
			</trkpt>
			<trkpt lat="53.2619741" lon="-8.93560624">
				<ele>67.0</ele>
				<time>2014-08-17T15:52:49Z</time>
				<extensions>
					<speed>0.0</speed>
				</extensions>
			</trkpt>
			<trkpt lat="53.26197407" lon="-8.93560628">
				<ele>67.0</ele>
				<time>2014-08-17T15:52:50Z</time>
				<extensions>
					<speed>0.0</speed>
				</extensions>
			</trkpt>
			<trkpt lat="53.26197402" lon="-8.93560617">
				<ele>67.0</ele>
				<time>2014-08-17T15:52:51Z</time>
				<extensions>
					<speed>0.0</speed>
				</extensions>
			</trkpt>
			<trkpt lat="53.26197469" lon="-8.93560345">
				<ele>67.0</ele>
				<time>2014-08-17T15:52:52Z</time>
				<extensions>
					<speed>1.5</speed>
				</extensions>
			</trkpt>
			<trkpt lat="53.26197119" lon="-8.93555016">
				<ele>67.0</ele>
				<time>2014-08-17T15:52:53Z</time>
				<extensions>
					<speed>3.0</speed>
				</extensions>
			</trkpt>
			<trkpt lat="53.26195258" lon="-8.93551">
				<ele>67.0</ele>
				<time>2014-08-17T15:52:54Z</time>
				<extensions>
					<speed>4.25</speed>
				</extensions>
			</trkpt>
			<trkpt lat="53.26192464" lon="-8.93546656">
				<ele>66.0</ele>
				<time>2014-08-17T15:52:55Z</time>
				<extensions>
					<speed>4.5</speed>
				</extensions>
			</trkpt>
			<trkpt lat="53.26188872" lon="-8.93543076">
				<ele>66.0</ele>
				<time>2014-08-17T15:52:56Z</time>
				<extensions>
					<speed>4.5</speed>
				</extensions>
			</trkpt>
			<trkpt lat="53.26184419" lon="-8.9353847">
				<ele>65.0</ele>
				<time>2014-08-17T15:52:57Z</time>
				<extensions>
					<speed>5.75</speed>
				</extensions>
			</trkpt>
			<trkpt lat="53.26178663" lon="-8.93534104">
				<ele>66.0</ele>
				<time>2014-08-17T15:52:58Z</time>
				<extensions>
					<speed>7.0</speed>
				</extensions>
			</trkpt>
			<trkpt lat="53.26173514" lon="-8.93528161">
				<ele>66.0</ele>
				<time>2014-08-17T15:52:59Z</time>
				<extensions>
					<speed>6.75</speed>
				</extensions>
			</trkpt>
			<trkpt lat="53.26169316" lon="-8.93521239">
				<ele>66.0</ele>
				<time>2014-08-17T15:53:00Z</time>
				<extensions>
					<speed>6.5</speed>
				</extensions>
			</trkpt>
			<trkpt lat="53.26165828" lon="-8.93513762">
				<ele>66.0</ele>
				<time>2014-08-17T15:53:01Z</time>
				<extensions>
					<speed>6.75</speed>
				</extensions>
			</trkpt>
			<trkpt lat="53.26163249" lon="-8.93505455">
				<ele>67.0</ele>
				<time>2014-08-17T15:53:02Z</time>
				<extensions>
					<speed>6.5</speed>
				</extensions>
			</trkpt>
			<trkpt lat="53.26160976" lon="-8.93497111">
				<ele>66.0</ele>
				<time>2014-08-17T15:53:03Z</time>
				<extensions>
					<speed>6.5</speed>
				</extensions>
			</trkpt>
			<trkpt lat="53.26160041" lon="-8.93487687">
				<ele>66.0</ele>
				<time>2014-08-17T15:53:04Z</time>
				<extensions>
					<speed>6.25</speed>
				</extensions>
			</trkpt>
			<trkpt lat="53.26158205" lon="-8.93479414">
				<ele>66.0</ele>
				<time>2014-08-17T15:53:05Z</time>
				<extensions>
					<speed>6.25</speed>
				</extensions>
			</trkpt>
			<trkpt lat="53.2615605" lon="-8.93470132">
				<ele>65.0</ele>
				<time>2014-08-17T15:53:06Z</time>
				<extensions>
					<speed>6.25</speed>
				</extensions>
			</trkpt>
			<trkpt lat="53.26155678" lon="-8.9346101">
				<ele>65.0</ele>
				<time>2014-08-17T15:53:07Z</time>
				<extensions>
					<speed>6.0</speed>
				</extensions>
			</trkpt>
			<trkpt lat="53.26154999" lon="-8.93452236">
				<ele>65.0</ele>
				<time>2014-08-17T15:53:08Z</time>
				<extensions>
					<speed>6.0</speed>
				</extensions>
			</trkpt>
			<trkpt lat="53.26154801" lon="-8.934423">
				<ele>65.0</ele>
				<time>2014-08-17T15:53:09Z</time>
				<extensions>
					<speed>6.25</speed>
				</extensions>
			</trkpt>
			<trkpt lat="53.26156959" lon="-8.93432485">
				<ele>65.0</ele>
				<time>2014-08-17T15:53:10Z</time>
				<extensions>
					<speed>7.0</speed>
				</extensions>
			</trkpt>
			<trkpt lat="53.26160014" lon="-8.93423487">
				<ele>65.0</ele>
				<time>2014-08-17T15:53:11Z</time>
				<extensions>
					<speed>7.25</speed>
				</extensions>
			</trkpt>
			<trkpt lat="53.2616399" lon="-8.93412435">
				<ele>65.0</ele>
				<time>2014-08-17T15:53:12Z</time>
				<extensions>
					<speed>7.25</speed>
				</extensions>
			</trkpt>
			<trkpt lat="53.26168075" lon="-8.93404766">
				<ele>65.0</ele>
				<time>2014-08-17T15:53:13Z</time>
				<extensions>
					<speed>7.75</speed>
				</extensions>
			</trkpt>
			<trkpt lat="53.26172159" lon="-8.93395304">
				<ele>65.0</ele>
				<time>2014-08-17T15:53:14Z</time>
				<extensions>
					<speed>7.5</speed>
				</extensions>
			</trkpt>
			<trkpt lat="53.26175414" lon="-8.93386706">
				<ele>65.0</ele>
				<time>2014-08-17T15:53:15Z</time>
				<extensions>
					<speed>7.5</speed>
				</extensions>
			</trkpt>
			<trkpt lat="53.26178169" lon="-8.93375371">
				<ele>66.0</ele>
				<time>2014-08-17T15:53:16Z</time>
				<extensions>
					<speed>7.5</speed>
				</extensions>
			</trkpt>
			<trkpt lat="53.26180259" lon="-8.93364849">
				<ele>66.0</ele>
				<time>2014-08-17T15:53:17Z</time>
				<extensions>
					<speed>7.5</speed>
				</extensions>
			</trkpt>
			<trkpt lat="53.26182075" lon="-8.93353893">
				<ele>65.0</ele>
				<time>2014-08-17T15:53:18Z</time>
				<extensions>
					<speed>7.5</speed>
				</extensions>
			</trkpt>
			<trkpt lat="53.26180537" lon="-8.93342653">
				<ele>65.0</ele>
				<time>2014-08-17T15:53:19Z</time>
				<extensions>
					<speed>7.25</speed>
				</extensions>
			</trkpt>
			<trkpt lat="53.26180539" lon="-8.9333148">
				<ele>66.0</ele>
				<time>2014-08-17T15:53:20Z</time>
				<extensions>
					<speed>7.5</speed>
				</extensions>
			</trkpt>
			<trkpt lat="53.26180558" lon="-8.93320259">
				<ele>66.0</ele>
				<time>2014-08-17T15:53:21Z</time>
				<extensions>
					<speed>7.5</speed>
				</extensions>
			</trkpt>
			<trkpt lat="53.26181579" lon="-8.93310029">
				<ele>66.0</ele>
				<time>2014-08-17T15:53:22Z</time>
				<extensions>
					<speed>6.5</speed>
				</extensions>
			</trkpt>
			<trkpt lat="53.26181613" lon="-8.93302384">
				<ele>66.0</ele>
				<time>2014-08-17T15:53:23Z</time>
				<extensions>
					<speed>4.0</speed>
				</extensions>
			</trkpt>
			<trkpt lat="53.26182077" lon="-8.93298965">
				<ele>65.0</ele>
				<time>2014-08-17T15:53:24Z</time>
				<extensions>
					<speed>2.5</speed>
				</extensions>
			</trkpt>
			<trkpt lat="53.26181872" lon="-8.93295183">
				<ele>65.0</ele>
				<time>2014-08-17T15:53:25Z</time>
				<extensions>
					<speed>1.75</speed>
				</extensions>
			</trkpt>
			<trkpt lat="53.26182023" lon="-8.93294314">
				<ele>64.0</ele>
				<time>2014-08-17T15:53:26Z</time>
				<extensions>
					<speed>1.0</speed>
				</extensions>
			</trkpt>
			<trkpt lat="53.26181203" lon="-8.93294007">
				<ele>64.0</ele>
				<time>2014-08-17T15:53:27Z</time>
				<extensions>
					<speed>0.0</speed>
				</extensions>
			</trkpt>
			<trkpt lat="53.26181235" lon="-8.93293932">
				<ele>64.0</ele>
				<time>2014-08-17T15:53:28Z</time>
				<extensions>
					<speed>0.5</speed>
				</extensions>
			</trkpt>
			<trkpt lat="53.26182435" lon="-8.93292077">
				<ele>64.0</ele>
				<time>2014-08-17T15:53:29Z</time>
				<extensions>
					<speed>2.0</speed>
				</extensions>
			</trkpt>
			<trkpt lat="53.26184573" lon="-8.93289561">
				<ele>64.0</ele>
				<time>2014-08-17T15:53:30Z</time>
				<extensions>
					<speed>3.25</speed>
				</extensions>
			</trkpt>
			<trkpt lat="53.26188495" lon="-8.93287721">
				<ele>64.0</ele>
				<time>2014-08-17T15:53:31Z</time>
				<extensions>
					<speed>4.5</speed>
				</extensions>
			</trkpt>
			<trkpt lat="53.26192172" lon="-8.93287132">
				<ele>64.0</ele>
				<time>2014-08-17T15:53:32Z</time>
				<extensions>
					<speed>4.25</speed>
				</extensions>
			</trkpt>
			<trkpt lat="53.2619635" lon="-8.93286098">
				<ele>64.0</ele>
				<time>2014-08-17T15:53:33Z</time>
				<extensions>
					<speed>4.75</speed>
				</extensions>
			</trkpt>
			<trkpt lat="53.26201282" lon="-8.93284729">
				<ele>64.0</ele>
				<time>2014-08-17T15:53:34Z</time>
				<extensions>
					<speed>5.75</speed>
				</extensions>
			</trkpt>
			<trkpt lat="53.2620772" lon="-8.93283605">
				<ele>63.0</ele>
				<time>2014-08-17T15:53:35Z</time>
				<extensions>
					<speed>7.25</speed>
				</extensions>
			</trkpt>
			<trkpt lat="53.26213388" lon="-8.93280824">
				<ele>64.0</ele>
				<time>2014-08-17T15:53:36Z</time>
				<extensions>
					<speed>6.5</speed>
				</extensions>
			</trkpt>
			<trkpt lat="53.2621927" lon="-8.93277931">
				<ele>64.0</ele>
				<time>2014-08-17T15:53:37Z</time>
				<extensions>
					<speed>6.5</speed>
				</extensions>
			</trkpt>
			<trkpt lat="53.26224274" lon="-8.93275939">
				<ele>64.0</ele>
				<time>2014-08-17T15:53:38Z</time>
				<extensions>
					<speed>6.0</speed>
				</extensions>
			</trkpt>
			<trkpt lat="53.26229832" lon="-8.9327652">
				<ele>63.0</ele>
				<time>2014-08-17T15:53:39Z</time>
				<extensions>
					<speed>5.5</speed>
				</extensions>
			</trkpt>
			<trkpt lat="53.26234564" lon="-8.93278011">
				<ele>64.0</ele>
				<time>2014-08-17T15:53:40Z</time>
				<extensions>
					<speed>4.5</speed>
				</extensions>
			</trkpt>
			<trkpt lat="53.26237028" lon="-8.93283618">
				<ele>64.0</ele>
				<time>2014-08-17T15:53:41Z</time>
				<extensions>
					<speed>5.0</speed>
				</extensions>
			</trkpt>
			<trkpt lat="53.26239493" lon="-8.93290614">
				<ele>65.0</ele>
				<time>2014-08-17T15:53:42Z</time>
				<extensions>
					<speed>5.0</speed>
				</extensions>
			</trkpt>
			<trkpt lat="53.26240905" lon="-8.9329767">
				<ele>64.0</ele>
				<time>2014-08-17T15:53:43Z</time>
				<extensions>
					<speed>5.0</speed>
				</extensions>
			</trkpt>
			<trkpt lat="53.26242263" lon="-8.93304284">
				<ele>65.0</ele>
				<time>2014-08-17T15:53:44Z</time>
				<extensions>
					<speed>4.0</speed>
				</extensions>
			</trkpt>
			<trkpt lat="53.26243435" lon="-8.9330793">
				<ele>65.0</ele>
				<time>2014-08-17T15:53:45Z</time>
				<extensions>
					<speed>2.25</speed>
				</extensions>
			</trkpt>
			<trkpt lat="53.26244425" lon="-8.93308829">
				<ele>65.0</ele>
				<time>2014-08-17T15:53:46Z</time>
				<extensions>
					<speed>0.0</speed>
				</extensions>
			</trkpt>
			<trkpt lat="53.26244314" lon="-8.93308567">
				<ele>65.0</ele>
				<time>2014-08-17T15:53:47Z</time>
				<extensions>
					<speed>0.0</speed>
				</extensions>
			</trkpt>
			<trkpt lat="53.26244966" lon="-8.93308205">
				<ele>65.0</ele>
				<time>2014-08-17T15:53:48Z</time>
				<extensions>
					<speed>0.0</speed>
				</extensions>
			</trkpt>
			<trkpt lat="53.26244946" lon="-8.93308458">
				<ele>65.0</ele>
				<time>2014-08-17T15:53:49Z</time>
				<extensions>
					<speed>0.0</speed>
				</extensions>
			</trkpt>
			<trkpt lat="53.26244851" lon="-8.93308834">
				<ele>65.0</ele>
				<time>2014-08-17T15:53:50Z</time>
				<extensions>
					<speed>0.0</speed>
				</extensions>
			</trkpt>
			<trkpt lat="53.26245043" lon="-8.93308906">
				<ele>64.0</ele>
				<time>2014-08-17T15:53:51Z</time>
				<extensions>
					<speed>0.0</speed>
				</extensions>
			</trkpt>
			<trkpt lat="53.2624516" lon="-8.93308739">
				<ele>64.0</ele>
				<time>2014-08-17T15:53:52Z</time>
				<extensions>
					<speed>0.0</speed>
				</extensions>
			</trkpt>
			<trkpt lat="53.26245258" lon="-8.93308779">
				<ele>64.0</ele>
				<time>2014-08-17T15:53:53Z</time>
				<extensions>
					<speed>0.0</speed>
				</extensions>
			</trkpt>
			<trkpt lat="53.26245027" lon="-8.93308887">
				<ele>63.0</ele>
				<time>2014-08-17T15:53:54Z</time>
				<extensions>
					<speed>0.0</speed>
				</extensions>
			</trkpt>
			<trkpt lat="53.26245027" lon="-8.93308887">
				<ele>63.0</ele>
				<time>2014-08-17T15:53:55Z</time>
				<extensions>
					<speed>0.0</speed>
				</extensions>
			</trkpt>
			<trkpt lat="53.26245039" lon="-8.9330878">
				<ele>64.0</ele>
				<time>2014-08-17T15:53:56Z</time>
				<extensions>
					<speed>0.0</speed>
				</extensions>
			</trkpt>
			<trkpt lat="53.26244959" lon="-8.93308907">
				<ele>64.0</ele>
				<time>2014-08-17T15:53:57Z</time>
				<extensions>
					<speed>0.0</speed>
				</extensions>
			</trkpt>
			<trkpt lat="53.262451" lon="-8.93308955">
				<ele>63.0</ele>
				<time>2014-08-17T15:53:58Z</time>
				<extensions>
					<speed>0.0</speed>
				</extensions>
			</trkpt>
			<trkpt lat="53.26245096" lon="-8.93308959">
				<ele>63.0</ele>
				<time>2014-08-17T15:53:59Z</time>
				<extensions>
					<speed>0.0</speed>
				</extensions>
			</trkpt>
			<trkpt lat="53.26245096" lon="-8.93308959">
				<ele>63.0</ele>
				<time>2014-08-17T15:54:00Z</time>
				<extensions>
					<speed>0.0</speed>
				</extensions>
			</trkpt>
			<trkpt lat="53.26245077" lon="-8.93308954">
				<ele>63.0</ele>
				<time>2014-08-17T15:54:01Z</time>
				<extensions>
					<speed>0.0</speed>
				</extensions>
			</trkpt>
			<trkpt lat="53.26245077" lon="-8.93308954">
				<ele>63.0</ele>
				<time>2014-08-17T15:54:02Z</time>
				<extensions>
					<speed>0.0</speed>
				</extensions>
			</trkpt>
			<trkpt lat="53.26245078" lon="-8.93308952">
				<ele>63.0</ele>
				<time>2014-08-17T15:54:03Z</time>
				<extensions>
					<speed>0.0</speed>
				</extensions>
			</trkpt>
			<trkpt lat="53.26245108" lon="-8.93308961">
				<ele>64.0</ele>
				<time>2014-08-17T15:54:04Z</time>
				<extensions>
					<speed>0.0</speed>
				</extensions>
			</trkpt>
			<trkpt lat="53.26245117" lon="-8.9330897">
				<ele>64.0</ele>
				<time>2014-08-17T15:54:05Z</time>
				<extensions>
					<speed>0.0</speed>
				</extensions>
			</trkpt>
			<trkpt lat="53.2624512" lon="-8.93308974">
				<ele>64.0</ele>
				<time>2014-08-17T15:54:06Z</time>
				<extensions>
					<speed>0.0</speed>
				</extensions>
			</trkpt>
			<trkpt lat="53.2624512" lon="-8.93308974">
				<ele>64.0</ele>
				<time>2014-08-17T15:54:07Z</time>
				<extensions>
					<speed>0.0</speed>
				</extensions>
			</trkpt>
			<trkpt lat="53.26245125" lon="-8.93308974">
				<ele>64.0</ele>
				<time>2014-08-17T15:54:08Z</time>
				<extensions>
					<speed>0.0</speed>
				</extensions>
			</trkpt>
			<trkpt lat="53.26245125" lon="-8.93308975">
				<ele>64.0</ele>
				<time>2014-08-17T15:54:09Z</time>
				<extensions>
					<speed>0.0</speed>
				</extensions>
			</trkpt>
			<trkpt lat="53.26245125" lon="-8.93308975">
				<ele>64.0</ele>
				<time>2014-08-17T15:54:10Z</time>
				<extensions>
					<speed>0.0</speed>
				</extensions>
			</trkpt>
			<trkpt lat="53.26245127" lon="-8.93308976">
				<ele>64.0</ele>
				<time>2014-08-17T15:54:11Z</time>
				<extensions>
					<speed>0.0</speed>
				</extensions>
			</trkpt>
			<trkpt lat="53.26245125" lon="-8.93308973">
				<ele>64.0</ele>
				<time>2014-08-17T15:54:12Z</time>
				<extensions>
					<speed>0.0</speed>
				</extensions>
			</trkpt>
			<trkpt lat="53.26245125" lon="-8.93308973">
				<ele>64.0</ele>
				<time>2014-08-17T15:54:13Z</time>
				<extensions>
					<speed>0.0</speed>
				</extensions>
			</trkpt>
			<trkpt lat="53.26245125" lon="-8.93308974">
				<ele>64.0</ele>
				<time>2014-08-17T15:54:14Z</time>
				<extensions>
					<speed>0.0</speed>
				</extensions>
			</trkpt>
			<trkpt lat="53.26245126" lon="-8.93308972">
				<ele>64.0</ele>
				<time>2014-08-17T15:54:15Z</time>
				<extensions>
					<speed>0.0</speed>
				</extensions>
			</trkpt>
			<trkpt lat="53.26245127" lon="-8.93308971">
				<ele>63.0</ele>
				<time>2014-08-17T15:54:16Z</time>
				<extensions>
					<speed>0.0</speed>
				</extensions>
			</trkpt>
			<trkpt lat="53.26245127" lon="-8.93308971">
				<ele>63.0</ele>
				<time>2014-08-17T15:54:17Z</time>
				<extensions>
					<speed>0.0</speed>
				</extensions>
			</trkpt>
			<trkpt lat="53.26245106" lon="-8.93308955">
				<ele>64.0</ele>
				<time>2014-08-17T15:54:18Z</time>
				<extensions>
					<speed>0.0</speed>
				</extensions>
			</trkpt>
			<trkpt lat="53.26245114" lon="-8.93308957">
				<ele>64.0</ele>
				<time>2014-08-17T15:54:19Z</time>
				<extensions>
					<speed>0.0</speed>
				</extensions>
			</trkpt>
			<trkpt lat="53.26245111" lon="-8.93308958">
				<ele>64.0</ele>
				<time>2014-08-17T15:54:20Z</time>
				<extensions>
					<speed>0.0</speed>
				</extensions>
			</trkpt>
			<trkpt lat="53.26245187" lon="-8.93309169">
				<ele>64.0</ele>
				<time>2014-08-17T15:54:21Z</time>
				<extensions>
					<speed>1.25</speed>
				</extensions>
			</trkpt>
			<trkpt lat="53.26245905" lon="-8.93310972">
				<ele>64.0</ele>
				<time>2014-08-17T15:54:22Z</time>
				<extensions>
					<speed>1.5</speed>
				</extensions>
			</trkpt>
			<trkpt lat="53.26246576" lon="-8.93313203">
				<ele>64.0</ele>
				<time>2014-08-17T15:54:23Z</time>
				<extensions>
					<speed>2.0</speed>
				</extensions>
			</trkpt>
			<trkpt lat="53.26247568" lon="-8.93315958">
				<ele>63.0</ele>
				<time>2014-08-17T15:54:24Z</time>
				<extensions>
					<speed>2.5</speed>
				</extensions>
			</trkpt>
			<trkpt lat="53.26249105" lon="-8.93318928">
				<ele>63.0</ele>
				<time>2014-08-17T15:54:25Z</time>
				<extensions>
					<speed>2.25</speed>
				</extensions>
			</trkpt>
			<trkpt lat="53.26250025" lon="-8.93322524">
				<ele>63.0</ele>
				<time>2014-08-17T15:54:26Z</time>
				<extensions>
					<speed>2.25</speed>
				</extensions>
			</trkpt>
			<trkpt lat="53.26249424" lon="-8.93325452">
				<ele>63.0</ele>
				<time>2014-08-17T15:54:27Z</time>
				<extensions>
					<speed>2.5</speed>
				</extensions>
			</trkpt>
			<trkpt lat="53.26247503" lon="-8.93328821">
				<ele>63.0</ele>
				<time>2014-08-17T15:54:28Z</time>
				<extensions>
					<speed>2.5</speed>
				</extensions>
			</trkpt>
			<trkpt lat="53.26245421" lon="-8.93330042">
				<ele>63.0</ele>
				<time>2014-08-17T15:54:29Z</time>
				<extensions>
					<speed>2.5</speed>
				</extensions>
			</trkpt>
			<trkpt lat="53.26243213" lon="-8.93331547">
				<ele>63.0</ele>
				<time>2014-08-17T15:54:30Z</time>
				<extensions>
					<speed>2.75</speed>
				</extensions>
			</trkpt>
			<trkpt lat="53.26241302" lon="-8.93334355">
				<ele>63.0</ele>
				<time>2014-08-17T15:54:31Z</time>
				<extensions>
					<speed>2.75</speed>
				</extensions>
			</trkpt>
			<trkpt lat="53.26240439" lon="-8.93337882">
				<ele>64.0</ele>
				<time>2014-08-17T15:54:32Z</time>
				<extensions>
					<speed>2.5</speed>
				</extensions>
			</trkpt>
			<trkpt lat="53.2624026" lon="-8.93340523">
				<ele>64.0</ele>
				<time>2014-08-17T15:54:33Z</time>
				<extensions>
					<speed>0.75</speed>
				</extensions>
			</trkpt>
			<trkpt lat="53.26240296" lon="-8.93340989">
				<ele>65.0</ele>
				<time>2014-08-17T15:54:34Z</time>
				<extensions>
					<speed>0.0</speed>
				</extensions>
			</trkpt>
			<trkpt lat="53.26240296" lon="-8.93340989">
				<ele>65.0</ele>
				<time>2014-08-17T15:54:35Z</time>
				<extensions>
					<speed>0.0</speed>
				</extensions>
			</trkpt>
			<trkpt lat="53.26239826" lon="-8.93340827">
				<ele>64.0</ele>
				<time>2014-08-17T15:54:36Z</time>
				<extensions>
					<speed>0.0</speed>
				</extensions>
			</trkpt>
			<trkpt lat="53.26239862" lon="-8.93340689">
				<ele>64.0</ele>
				<time>2014-08-17T15:54:37Z</time>
				<extensions>
					<speed>0.75</speed>
				</extensions>
			</trkpt>
			<trkpt lat="53.26240151" lon="-8.93339609">
				<ele>64.0</ele>
				<time>2014-08-17T15:54:38Z</time>
				<extensions>
					<speed>0.75</speed>
				</extensions>
			</trkpt>
			<trkpt lat="53.26240642" lon="-8.93338285">
				<ele>64.0</ele>
				<time>2014-08-17T15:54:39Z</time>
				<extensions>
					<speed>1.0</speed>
				</extensions>
			</trkpt>
			<trkpt lat="53.26240993" lon="-8.93337374">
				<ele>63.0</ele>
				<time>2014-08-17T15:54:40Z</time>
				<extensions>
					<speed>1.0</speed>
				</extensions>
			</trkpt>
			<trkpt lat="53.2624023" lon="-8.93335924">
				<ele>64.0</ele>
				<time>2014-08-17T15:54:41Z</time>
				<extensions>
					<speed>1.0</speed>
				</extensions>
			</trkpt>
			<trkpt lat="53.26239171" lon="-8.93334511">
				<ele>63.0</ele>
				<time>2014-08-17T15:54:42Z</time>
				<extensions>
					<speed>1.0</speed>
				</extensions>
			</trkpt>
			<trkpt lat="53.26238621" lon="-8.93333753">
				<ele>63.0</ele>
				<time>2014-08-17T15:54:43Z</time>
				<extensions>
					<speed>0.5</speed>
				</extensions>
			</trkpt>
			<trkpt lat="53.26239104" lon="-8.93332453">
				<ele>63.0</ele>
				<time>2014-08-17T15:54:44Z</time>
				<extensions>
					<speed>0.5</speed>
				</extensions>
			</trkpt>
			<trkpt lat="53.26239269" lon="-8.93331014">
				<ele>64.0</ele>
				<time>2014-08-17T15:54:45Z</time>
				<extensions>
					<speed>0.25</speed>
				</extensions>
			</trkpt>
			<trkpt lat="53.26239463" lon="-8.93329457">
				<ele>64.0</ele>
				<time>2014-08-17T15:54:46Z</time>
				<extensions>
					<speed>0.0</speed>
				</extensions>
			</trkpt>
			<trkpt lat="53.26239463" lon="-8.93329457">
				<ele>64.0</ele>
				<time>2014-08-17T15:54:47Z</time>
				<extensions>
					<speed>0.0</speed>
				</extensions>
			</trkpt>
			<trkpt lat="53.26239684" lon="-8.93329421">
				<ele>64.0</ele>
				<time>2014-08-17T15:54:48Z</time>
				<extensions>
					<speed>0.0</speed>
				</extensions>
			</trkpt>
			<trkpt lat="53.26240013" lon="-8.93329304">
				<ele>64.0</ele>
				<time>2014-08-17T15:54:49Z</time>
				<extensions>
					<speed>0.0</speed>
				</extensions>
			</trkpt>
			<trkpt lat="53.26239719" lon="-8.93329265">
				<ele>64.0</ele>
				<time>2014-08-17T15:54:50Z</time>
				<extensions>
					<speed>0.0</speed>
				</extensions>
			</trkpt>
			<trkpt lat="53.26239711" lon="-8.93329646">
				<ele>65.0</ele>
				<time>2014-08-17T15:54:51Z</time>
				<extensions>
					<speed>0.0</speed>
				</extensions>
			</trkpt>
			<trkpt lat="53.26239693" lon="-8.9332947">
				<ele>65.0</ele>
				<time>2014-08-17T15:54:52Z</time>
				<extensions>
					<speed>0.0</speed>
				</extensions>
			</trkpt>
			<trkpt lat="53.26239735" lon="-8.9332935">
				<ele>65.0</ele>
				<time>2014-08-17T15:54:53Z</time>
				<extensions>
					<speed>0.0</speed>
				</extensions>
			</trkpt>
			<trkpt lat="53.26239672" lon="-8.93329293">
				<ele>65.0</ele>
				<time>2014-08-17T15:54:54Z</time>
				<extensions>
					<speed>0.0</speed>
				</extensions>
			</trkpt>
			<trkpt lat="53.26239802" lon="-8.93329219">
				<ele>65.0</ele>
				<time>2014-08-17T15:54:55Z</time>
				<extensions>
					<speed>0.0</speed>
				</extensions>
			</trkpt>
			<trkpt lat="53.26239927" lon="-8.93329239">
				<ele>65.0</ele>
				<time>2014-08-17T15:54:56Z</time>
				<extensions>
					<speed>0.0</speed>
				</extensions>
			</trkpt>
			<trkpt lat="53.26240017" lon="-8.93329234">
				<ele>65.0</ele>
				<time>2014-08-17T15:54:57Z</time>
				<extensions>
					<speed>0.0</speed>
				</extensions>
			</trkpt>
			<trkpt lat="53.26240109" lon="-8.93329207">
				<ele>65.0</ele>
				<time>2014-08-17T15:54:58Z</time>
				<extensions>
					<speed>0.0</speed>
				</extensions>
			</trkpt>
			<trkpt lat="53.26240103" lon="-8.93329228">
				<ele>65.0</ele>
				<time>2014-08-17T15:54:59Z</time>
				<extensions>
					<speed>0.0</speed>
				</extensions>
			</trkpt>
			<trkpt lat="53.26240089" lon="-8.93329233">
				<ele>65.0</ele>
				<time>2014-08-17T15:55:00Z</time>
				<extensions>
					<speed>0.0</speed>
				</extensions>
			</trkpt>
			<trkpt lat="53.26240079" lon="-8.9332917">
				<ele>65.0</ele>
				<time>2014-08-17T15:55:01Z</time>
				<extensions>
					<speed>0.0</speed>
				</extensions>
			</trkpt>
			<trkpt lat="53.26240082" lon="-8.93329172">
				<ele>65.0</ele>
				<time>2014-08-17T15:55:02Z</time>
				<extensions>
					<speed>0.0</speed>
				</extensions>
			</trkpt>
			<trkpt lat="53.26240071" lon="-8.93329155">
				<ele>65.0</ele>
				<time>2014-08-17T15:55:03Z</time>
				<extensions>
					<speed>0.0</speed>
				</extensions>
			</trkpt>
			<trkpt lat="53.2624007" lon="-8.93329149">
				<ele>65.0</ele>
				<time>2014-08-17T15:55:04Z</time>
				<extensions>
					<speed>0.0</speed>
				</extensions>
			</trkpt>
			<trkpt lat="53.26240099" lon="-8.93329183">
				<ele>65.0</ele>
				<time>2014-08-17T15:55:05Z</time>
				<extensions>
					<speed>0.0</speed>
				</extensions>
			</trkpt>
			<trkpt lat="53.26240098" lon="-8.93329182">
				<ele>65.0</ele>
				<time>2014-08-17T15:55:06Z</time>
				<extensions>
					<speed>0.0</speed>
				</extensions>
			</trkpt>
			<trkpt lat="53.26240081" lon="-8.93329182">
				<ele>65.0</ele>
				<time>2014-08-17T15:55:07Z</time>
				<extensions>
					<speed>0.0</speed>
				</extensions>
			</trkpt>
			<trkpt lat="53.26240036" lon="-8.93329181">
				<ele>65.0</ele>
				<time>2014-08-17T15:55:08Z</time>
				<extensions>
					<speed>0.0</speed>
				</extensions>
			</trkpt>
			<trkpt lat="53.26240035" lon="-8.93329181">
				<ele>65.0</ele>
				<time>2014-08-17T15:55:09Z</time>
				<extensions>
					<speed>0.0</speed>
				</extensions>
			</trkpt>
			<trkpt lat="53.26239951" lon="-8.93329181">
				<ele>65.0</ele>
				<time>2014-08-17T15:55:10Z</time>
				<extensions>
					<speed>0.0</speed>
				</extensions>
			</trkpt>
			<trkpt lat="53.2623989" lon="-8.93329179">
				<ele>65.0</ele>
				<time>2014-08-17T15:55:11Z</time>
				<extensions>
					<speed>0.0</speed>
				</extensions>
			</trkpt>
			<trkpt lat="53.2623979" lon="-8.93329144">
				<ele>65.0</ele>
				<time>2014-08-17T15:55:12Z</time>
				<extensions>
					<speed>0.0</speed>
				</extensions>
			</trkpt>
			<trkpt lat="53.26239765" lon="-8.93329137">
				<ele>65.0</ele>
				<time>2014-08-17T15:55:13Z</time>
				<extensions>
					<speed>0.0</speed>
				</extensions>
			</trkpt>
			<trkpt lat="53.26239747" lon="-8.9332915">
				<ele>65.0</ele>
				<time>2014-08-17T15:55:14Z</time>
				<extensions>
					<speed>0.0</speed>
				</extensions>
			</trkpt>
			<trkpt lat="53.2623975" lon="-8.93329148">
				<ele>65.0</ele>
				<time>2014-08-17T15:55:15Z</time>
				<extensions>
					<speed>0.0</speed>
				</extensions>
			</trkpt>
			<trkpt lat="53.26239753" lon="-8.93329145">
				<ele>65.0</ele>
				<time>2014-08-17T15:55:16Z</time>
				<extensions>
					<speed>0.0</speed>
				</extensions>
			</trkpt>
			<trkpt lat="53.26239866" lon="-8.93329375">
				<ele>65.0</ele>
				<time>2014-08-17T15:55:17Z</time>
				<extensions>
					<speed>0.25</speed>
				</extensions>
			</trkpt>
			<trkpt lat="53.26240845" lon="-8.93330111">
				<ele>65.0</ele>
				<time>2014-08-17T15:55:18Z</time>
				<extensions>
					<speed>1.0</speed>
				</extensions>
			</trkpt>
			<trkpt lat="53.26242534" lon="-8.9333019">
				<ele>64.0</ele>
				<time>2014-08-17T15:55:19Z</time>
				<extensions>
					<speed>1.75</speed>
				</extensions>
			</trkpt>
			<trkpt lat="53.26244844" lon="-8.93330087">
				<ele>64.0</ele>
				<time>2014-08-17T15:55:20Z</time>
				<extensions>
					<speed>2.25</speed>
				</extensions>
			</trkpt>
			<trkpt lat="53.26246794" lon="-8.93328857">
				<ele>65.0</ele>
				<time>2014-08-17T15:55:21Z</time>
				<extensions>
					<speed>2.25</speed>
				</extensions>
			</trkpt>
			<trkpt lat="53.26249038" lon="-8.93327519">
				<ele>65.0</ele>
				<time>2014-08-17T15:55:22Z</time>
				<extensions>
					<speed>2.25</speed>
				</extensions>
			</trkpt>
			<trkpt lat="53.26251245" lon="-8.93325482">
				<ele>65.0</ele>
				<time>2014-08-17T15:55:23Z</time>
				<extensions>
					<speed>2.75</speed>
				</extensions>
			</trkpt>
			<trkpt lat="53.26253951" lon="-8.93324583">
				<ele>66.0</ele>
				<time>2014-08-17T15:55:24Z</time>
				<extensions>
					<speed>3.0</speed>
				</extensions>
			</trkpt>
			<trkpt lat="53.26256763" lon="-8.93326499">
				<ele>66.0</ele>
				<time>2014-08-17T15:55:25Z</time>
				<extensions>
					<speed>3.5</speed>
				</extensions>
			</trkpt>
			<trkpt lat="53.26259006" lon="-8.93330206">
				<ele>66.0</ele>
				<time>2014-08-17T15:55:26Z</time>
				<extensions>
					<speed>3.5</speed>
				</extensions>
			</trkpt>
			<trkpt lat="53.26261066" lon="-8.93333826">
				<ele>66.0</ele>
				<time>2014-08-17T15:55:27Z</time>
				<extensions>
					<speed>3.25</speed>
				</extensions>
			</trkpt>
			<trkpt lat="53.26263323" lon="-8.93337174">
				<ele>66.0</ele>
				<time>2014-08-17T15:55:28Z</time>
				<extensions>
					<speed>3.0</speed>
				</extensions>
			</trkpt>
			<trkpt lat="53.26265141" lon="-8.93340808">
				<ele>66.0</ele>
				<time>2014-08-17T15:55:29Z</time>
				<extensions>
					<speed>3.0</speed>
				</extensions>
			</trkpt>
			<trkpt lat="53.2626718" lon="-8.93344554">
				<ele>66.0</ele>
				<time>2014-08-17T15:55:30Z</time>
				<extensions>
					<speed>3.25</speed>
				</extensions>
			</trkpt>
			<trkpt lat="53.26269125" lon="-8.93347066">
				<ele>67.0</ele>
				<time>2014-08-17T15:55:31Z</time>
				<extensions>
					<speed>3.0</speed>
				</extensions>
			</trkpt>
			<trkpt lat="53.2627059" lon="-8.93349339">
				<ele>67.0</ele>
				<time>2014-08-17T15:55:32Z</time>
				<extensions>
					<speed>2.0</speed>
				</extensions>
			</trkpt>
			<trkpt lat="53.2627109" lon="-8.9335087">
				<ele>66.0</ele>
				<time>2014-08-17T15:55:33Z</time>
				<extensions>
					<speed>1.5</speed>
				</extensions>
			</trkpt>
			<trkpt lat="53.26271804" lon="-8.93351604">
				<ele>66.0</ele>
				<time>2014-08-17T15:55:34Z</time>
				<extensions>
					<speed>1.0</speed>
				</extensions>
			</trkpt>
			<trkpt lat="53.26272082" lon="-8.93352442">
				<ele>66.0</ele>
				<time>2014-08-17T15:55:35Z</time>
				<extensions>
					<speed>0.0</speed>
				</extensions>
			</trkpt>
			<trkpt lat="53.26271953" lon="-8.93352767">
				<ele>66.0</ele>
				<time>2014-08-17T15:55:36Z</time>
				<extensions>
					<speed>0.0</speed>
				</extensions>
			</trkpt>
			<trkpt lat="53.26272106" lon="-8.93352425">
				<ele>66.0</ele>
				<time>2014-08-17T15:55:37Z</time>
				<extensions>
					<speed>0.0</speed>
				</extensions>
			</trkpt>
			<trkpt lat="53.26272042" lon="-8.93352609">
				<ele>66.0</ele>
				<time>2014-08-17T15:55:38Z</time>
				<extensions>
					<speed>0.0</speed>
				</extensions>
			</trkpt>
			<trkpt lat="53.26271759" lon="-8.933528">
				<ele>66.0</ele>
				<time>2014-08-17T15:55:39Z</time>
				<extensions>
					<speed>0.0</speed>
				</extensions>
			</trkpt>
			<trkpt lat="53.26271751" lon="-8.93352943">
				<ele>66.0</ele>
				<time>2014-08-17T15:55:40Z</time>
				<extensions>
					<speed>0.0</speed>
				</extensions>
			</trkpt>
			<trkpt lat="53.26271633" lon="-8.93353068">
				<ele>66.0</ele>
				<time>2014-08-17T15:55:41Z</time>
				<extensions>
					<speed>0.0</speed>
				</extensions>
			</trkpt>
			<trkpt lat="53.26271633" lon="-8.93353068">
				<ele>66.0</ele>
				<time>2014-08-17T15:55:42Z</time>
				<extensions>
					<speed>0.0</speed>
				</extensions>
			</trkpt>
			<trkpt lat="53.26271614" lon="-8.9335307">
				<ele>66.0</ele>
				<time>2014-08-17T15:55:43Z</time>
				<extensions>
					<speed>0.0</speed>
				</extensions>
			</trkpt>
			<trkpt lat="53.26271613" lon="-8.9335307">
				<ele>66.0</ele>
				<time>2014-08-17T15:55:44Z</time>
				<extensions>
					<speed>0.0</speed>
				</extensions>
			</trkpt>
			<trkpt lat="53.26271634" lon="-8.93353091">
				<ele>66.0</ele>
				<time>2014-08-17T15:55:45Z</time>
				<extensions>
					<speed>0.0</speed>
				</extensions>
			</trkpt>
			<trkpt lat="53.26271594" lon="-8.93353045">
				<ele>66.0</ele>
				<time>2014-08-17T15:55:46Z</time>
				<extensions>
					<speed>0.0</speed>
				</extensions>
			</trkpt>
			<trkpt lat="53.262716" lon="-8.93352999">
				<ele>66.0</ele>
				<time>2014-08-17T15:55:47Z</time>
				<extensions>
					<speed>0.0</speed>
				</extensions>
			</trkpt>
			<trkpt lat="53.26271589" lon="-8.93352987">
				<ele>66.0</ele>
				<time>2014-08-17T15:55:48Z</time>
				<extensions>
					<speed>0.0</speed>
				</extensions>
			</trkpt>
			<trkpt lat="53.26271565" lon="-8.93353003">
				<ele>66.0</ele>
				<time>2014-08-17T15:55:49Z</time>
				<extensions>
					<speed>0.0</speed>
				</extensions>
			</trkpt>
			<trkpt lat="53.26271592" lon="-8.93352994">
				<ele>66.0</ele>
				<time>2014-08-17T15:55:50Z</time>
				<extensions>
					<speed>0.0</speed>
				</extensions>
			</trkpt>
			<trkpt lat="53.26271616" lon="-8.93353095">
				<ele>66.0</ele>
				<time>2014-08-17T15:55:51Z</time>
				<extensions>
					<speed>0.0</speed>
				</extensions>
			</trkpt>
			<trkpt lat="53.26271621" lon="-8.93353153">
				<ele>66.0</ele>
				<time>2014-08-17T15:55:52Z</time>
				<extensions>
					<speed>0.0</speed>
				</extensions>
			</trkpt>
			<trkpt lat="53.26271494" lon="-8.93353054">
				<ele>66.0</ele>
				<time>2014-08-17T15:55:53Z</time>
				<extensions>
					<speed>0.0</speed>
				</extensions>
			</trkpt>
			<trkpt lat="53.26271582" lon="-8.93353125">
				<ele>66.0</ele>
				<time>2014-08-17T15:55:54Z</time>
				<extensions>
					<speed>0.0</speed>
				</extensions>
			</trkpt>
			<trkpt lat="53.26271599" lon="-8.93353155">
				<ele>66.0</ele>
				<time>2014-08-17T15:55:55Z</time>
				<extensions>
					<speed>0.0</speed>
				</extensions>
			</trkpt>
			<trkpt lat="53.26271571" lon="-8.93353144">
				<ele>66.0</ele>
				<time>2014-08-17T15:55:56Z</time>
				<extensions>
					<speed>0.0</speed>
				</extensions>
			</trkpt>
			<trkpt lat="53.26271571" lon="-8.93353181">
				<ele>66.0</ele>
				<time>2014-08-17T15:55:57Z</time>
				<extensions>
					<speed>0.0</speed>
				</extensions>
			</trkpt>
			<trkpt lat="53.26271633" lon="-8.93353133">
				<ele>66.0</ele>
				<time>2014-08-17T15:55:58Z</time>
				<extensions>
					<speed>0.0</speed>
				</extensions>
			</trkpt>
			<trkpt lat="53.26271597" lon="-8.93353087">
				<ele>66.0</ele>
				<time>2014-08-17T15:55:59Z</time>
				<extensions>
					<speed>0.0</speed>
				</extensions>
			</trkpt>
			<trkpt lat="53.26271601" lon="-8.93353077">
				<ele>66.0</ele>
				<time>2014-08-17T15:56:00Z</time>
				<extensions>
					<speed>0.0</speed>
				</extensions>
			</trkpt>
			<trkpt lat="53.26271535" lon="-8.93353064">
				<ele>66.0</ele>
				<time>2014-08-17T15:56:01Z</time>
				<extensions>
					<speed>0.0</speed>
				</extensions>
			</trkpt>
			<trkpt lat="53.26271554" lon="-8.93353054">
				<ele>66.0</ele>
				<time>2014-08-17T15:56:02Z</time>
				<extensions>
					<speed>0.0</speed>
				</extensions>
			</trkpt>
			<trkpt lat="53.26271565" lon="-8.93353039">
				<ele>66.0</ele>
				<time>2014-08-17T15:56:03Z</time>
				<extensions>
					<speed>0.0</speed>
				</extensions>
			</trkpt>
			<trkpt lat="53.26271559" lon="-8.93353022">
				<ele>66.0</ele>
				<time>2014-08-17T15:56:04Z</time>
				<extensions>
					<speed>0.0</speed>
				</extensions>
			</trkpt>
			<trkpt lat="53.26271577" lon="-8.93353004">
				<ele>66.0</ele>
				<time>2014-08-17T15:56:05Z</time>
				<extensions>
					<speed>0.0</speed>
				</extensions>
			</trkpt>
			<trkpt lat="53.26271585" lon="-8.93352999">
				<ele>66.0</ele>
				<time>2014-08-17T15:56:06Z</time>
				<extensions>
					<speed>0.0</speed>
				</extensions>
			</trkpt>
			<trkpt lat="53.2627158" lon="-8.93353012">
				<ele>66.0</ele>
				<time>2014-08-17T15:56:07Z</time>
				<extensions>
					<speed>0.0</speed>
				</extensions>
			</trkpt>
			<trkpt lat="53.26271568" lon="-8.93353037">
				<ele>66.0</ele>
				<time>2014-08-17T15:56:08Z</time>
				<extensions>
					<speed>0.0</speed>
				</extensions>
			</trkpt>
			<trkpt lat="53.26271571" lon="-8.93353025">
				<ele>66.0</ele>
				<time>2014-08-17T15:56:09Z</time>
				<extensions>
					<speed>0.0</speed>
				</extensions>
			</trkpt>
			<trkpt lat="53.26271572" lon="-8.93353022">
				<ele>66.0</ele>
				<time>2014-08-17T15:56:10Z</time>
				<extensions>
					<speed>0.0</speed>
				</extensions>
			</trkpt>
			<trkpt lat="53.26271575" lon="-8.93353024">
				<ele>66.0</ele>
				<time>2014-08-17T15:56:11Z</time>
				<extensions>
					<speed>0.0</speed>
				</extensions>
			</trkpt>
			<trkpt lat="53.26271579" lon="-8.93353025">
				<ele>66.0</ele>
				<time>2014-08-17T15:56:12Z</time>
				<extensions>
					<speed>0.0</speed>
				</extensions>
			</trkpt>
			<trkpt lat="53.26271583" lon="-8.93353023">
				<ele>66.0</ele>
				<time>2014-08-17T15:56:13Z</time>
				<extensions>
					<speed>0.0</speed>
				</extensions>
			</trkpt>
			<trkpt lat="53.2627159" lon="-8.93352942">
				<ele>66.0</ele>
				<time>2014-08-17T15:56:14Z</time>
				<extensions>
					<speed>0.0</speed>
				</extensions>
			</trkpt>
			<trkpt lat="53.26271641" lon="-8.93352041">
				<ele>66.0</ele>
				<time>2014-08-17T15:56:15Z</time>
				<extensions>
					<speed>0.0</speed>
				</extensions>
			</trkpt>
			<trkpt lat="53.26271991" lon="-8.93351582">
				<ele>66.0</ele>
				<time>2014-08-17T15:56:16Z</time>
				<extensions>
					<speed>0.0</speed>
				</extensions>
			</trkpt>
			<trkpt lat="53.26272099" lon="-8.93351005">
				<ele>66.0</ele>
				<time>2014-08-17T15:56:17Z</time>
				<extensions>
					<speed>0.0</speed>
				</extensions>
			</trkpt>
			<trkpt lat="53.26272384" lon="-8.93350966">
				<ele>67.0</ele>
				<time>2014-08-17T15:56:18Z</time>
				<extensions>
					<speed>0.0</speed>
				</extensions>
			</trkpt>
			<trkpt lat="53.26272352" lon="-8.93350288">
				<ele>67.0</ele>
				<time>2014-08-17T15:56:19Z</time>
				<extensions>
					<speed>0.0</speed>
				</extensions>
			</trkpt>
			<trkpt lat="53.26272381" lon="-8.9335043">
				<ele>67.0</ele>
				<time>2014-08-17T15:56:20Z</time>
				<extensions>
					<speed>0.0</speed>
				</extensions>
			</trkpt>
			<trkpt lat="53.26272341" lon="-8.93350355">
				<ele>67.0</ele>
				<time>2014-08-17T15:56:21Z</time>
				<extensions>
					<speed>0.0</speed>
				</extensions>
			</trkpt>
			<trkpt lat="53.2627235" lon="-8.93350547">
				<ele>66.0</ele>
				<time>2014-08-17T15:56:22Z</time>
				<extensions>
					<speed>0.0</speed>
				</extensions>
			</trkpt>
			<trkpt lat="53.26272426" lon="-8.93350366">
				<ele>66.0</ele>
				<time>2014-08-17T15:56:23Z</time>
				<extensions>
					<speed>0.0</speed>
				</extensions>
			</trkpt>
			<trkpt lat="53.26272277" lon="-8.93350401">
				<ele>66.0</ele>
				<time>2014-08-17T15:56:24Z</time>
				<extensions>
					<speed>0.0</speed>
				</extensions>
			</trkpt>
			<trkpt lat="53.26272276" lon="-8.93350368">
				<ele>66.0</ele>
				<time>2014-08-17T15:56:25Z</time>
				<extensions>
					<speed>0.0</speed>
				</extensions>
			</trkpt>
			<trkpt lat="53.26272266" lon="-8.93350359">
				<ele>66.0</ele>
				<time>2014-08-17T15:56:26Z</time>
				<extensions>
					<speed>0.0</speed>
				</extensions>
			</trkpt>
			<trkpt lat="53.26272258" lon="-8.93350362">
				<ele>66.0</ele>
				<time>2014-08-17T15:56:27Z</time>
				<extensions>
					<speed>0.0</speed>
				</extensions>
			</trkpt>
			<trkpt lat="53.26272228" lon="-8.93350404">
				<ele>66.0</ele>
				<time>2014-08-17T15:56:28Z</time>
				<extensions>
					<speed>0.0</speed>
				</extensions>
			</trkpt>
			<trkpt lat="53.26272229" lon="-8.93350404">
				<ele>66.0</ele>
				<time>2014-08-17T15:56:29Z</time>
				<extensions>
					<speed>0.0</speed>
				</extensions>
			</trkpt>
			<trkpt lat="53.26272229" lon="-8.93350404">
				<ele>66.0</ele>
				<time>2014-08-17T15:56:30Z</time>
				<extensions>
					<speed>0.0</speed>
				</extensions>
			</trkpt>
			<trkpt lat="53.26272229" lon="-8.93350404">
				<ele>66.0</ele>
				<time>2014-08-17T15:56:31Z</time>
				<extensions>
					<speed>0.0</speed>
				</extensions>
			</trkpt>
			<trkpt lat="53.26272251" lon="-8.93350222">
				<ele>66.0</ele>
				<time>2014-08-17T15:56:32Z</time>
				<extensions>
					<speed>0.0</speed>
				</extensions>
			</trkpt>
			<trkpt lat="53.26272243" lon="-8.9335023">
				<ele>66.0</ele>
				<time>2014-08-17T15:56:33Z</time>
				<extensions>
					<speed>0.0</speed>
				</extensions>
			</trkpt>
			<trkpt lat="53.26272238" lon="-8.93350219">
				<ele>66.0</ele>
				<time>2014-08-17T15:56:34Z</time>
				<extensions>
					<speed>0.0</speed>
				</extensions>
			</trkpt>
			<trkpt lat="53.26272119" lon="-8.93350708">
				<ele>67.0</ele>
				<time>2014-08-17T15:56:35Z</time>
				<extensions>
					<speed>0.0</speed>
				</extensions>
			</trkpt>
			<trkpt lat="53.2627134" lon="-8.9335058">
				<ele>66.0</ele>
				<time>2014-08-17T15:56:36Z</time>
				<extensions>
					<speed>0.0</speed>
				</extensions>
			</trkpt>
			<trkpt lat="53.26271209" lon="-8.93350444">
				<ele>66.0</ele>
				<time>2014-08-17T15:56:37Z</time>
				<extensions>
					<speed>0.0</speed>
				</extensions>
			</trkpt>
			<trkpt lat="53.26271166" lon="-8.93350507">
				<ele>66.0</ele>
				<time>2014-08-17T15:56:38Z</time>
				<extensions>
					<speed>0.5</speed>
				</extensions>
			</trkpt>
			<trkpt lat="53.26271466" lon="-8.93351305">
				<ele>67.0</ele>
				<time>2014-08-17T15:56:39Z</time>
				<extensions>
					<speed>0.0</speed>
				</extensions>
			</trkpt>
			<trkpt lat="53.26271156" lon="-8.93351712">
				<ele>67.0</ele>
				<time>2014-08-17T15:56:40Z</time>
				<extensions>
					<speed>0.0</speed>
				</extensions>
			</trkpt>
			<trkpt lat="53.26270821" lon="-8.9335181">
				<ele>68.0</ele>
				<time>2014-08-17T15:56:41Z</time>
				<extensions>
					<speed>0.0</speed>
				</extensions>
			</trkpt>
			<trkpt lat="53.26270281" lon="-8.9335207">
				<ele>67.0</ele>
				<time>2014-08-17T15:56:42Z</time>
				<extensions>
					<speed>0.0</speed>
				</extensions>
			</trkpt>
			<trkpt lat="53.26270472" lon="-8.93351611">
				<ele>67.0</ele>
				<time>2014-08-17T15:56:43Z</time>
				<extensions>
					<speed>0.0</speed>
				</extensions>
			</trkpt>
			<trkpt lat="53.26270387" lon="-8.93351683">
				<ele>68.0</ele>
				<time>2014-08-17T15:56:44Z</time>
				<extensions>
					<speed>0.0</speed>
				</extensions>
			</trkpt>
			<trkpt lat="53.26270251" lon="-8.93351944">
				<ele>68.0</ele>
				<time>2014-08-17T15:56:45Z</time>
				<extensions>
					<speed>0.0</speed>
				</extensions>
			</trkpt>
			<trkpt lat="53.26270291" lon="-8.93352059">
				<ele>68.0</ele>
				<time>2014-08-17T15:56:46Z</time>
				<extensions>
					<speed>0.75</speed>
				</extensions>
			</trkpt>
			<trkpt lat="53.26270715" lon="-8.93353718">
				<ele>67.0</ele>
				<time>2014-08-17T15:56:47Z</time>
				<extensions>
					<speed>1.5</speed>
				</extensions>
			</trkpt>
			<trkpt lat="53.26271984" lon="-8.93356376">
				<ele>67.0</ele>
				<time>2014-08-17T15:56:48Z</time>
				<extensions>
					<speed>2.5</speed>
				</extensions>
			</trkpt>
			<trkpt lat="53.26273211" lon="-8.93360877">
				<ele>67.0</ele>
				<time>2014-08-17T15:56:49Z</time>
				<extensions>
					<speed>3.0</speed>
				</extensions>
			</trkpt>
			<trkpt lat="53.26274433" lon="-8.93365402">
				<ele>66.0</ele>
				<time>2014-08-17T15:56:50Z</time>
				<extensions>
					<speed>3.75</speed>
				</extensions>
			</trkpt>
			<trkpt lat="53.26276232" lon="-8.93370046">
				<ele>67.0</ele>
				<time>2014-08-17T15:56:51Z</time>
				<extensions>
					<speed>3.5</speed>
				</extensions>
			</trkpt>
			<trkpt lat="53.26278348" lon="-8.93375355">
				<ele>67.0</ele>
				<time>2014-08-17T15:56:52Z</time>
				<extensions>
					<speed>4.5</speed>
				</extensions>
			</trkpt>
			<trkpt lat="53.26281059" lon="-8.9338137">
				<ele>67.0</ele>
				<time>2014-08-17T15:56:53Z</time>
				<extensions>
					<speed>5.0</speed>
				</extensions>
			</trkpt>
			<trkpt lat="53.26284606" lon="-8.93386345">
				<ele>68.0</ele>
				<time>2014-08-17T15:56:54Z</time>
				<extensions>
					<speed>4.75</speed>
				</extensions>
			</trkpt>
			<trkpt lat="53.26287023" lon="-8.93390317">
				<ele>68.0</ele>
				<time>2014-08-17T15:56:55Z</time>
				<extensions>
					<speed>3.75</speed>
				</extensions>
			</trkpt>
			<trkpt lat="53.2628914" lon="-8.93393678">
				<ele>68.0</ele>
				<time>2014-08-17T15:56:56Z</time>
				<extensions>
					<speed>3.25</speed>
				</extensions>
			</trkpt>
			<trkpt lat="53.26291382" lon="-8.93397074">
				<ele>68.0</ele>
				<time>2014-08-17T15:56:57Z</time>
				<extensions>
					<speed>3.5</speed>
				</extensions>
			</trkpt>
			<trkpt lat="53.26294093" lon="-8.93399384">
				<ele>68.0</ele>
				<time>2014-08-17T15:56:58Z</time>
				<extensions>
					<speed>3.75</speed>
				</extensions>
			</trkpt>
			<trkpt lat="53.26297675" lon="-8.93401854">
				<ele>69.0</ele>
				<time>2014-08-17T15:56:59Z</time>
				<extensions>
					<speed>4.0</speed>
				</extensions>
			</trkpt>
			<trkpt lat="53.26301676" lon="-8.93402223">
				<ele>69.0</ele>
				<time>2014-08-17T15:57:00Z</time>
				<extensions>
					<speed>4.0</speed>
				</extensions>
			</trkpt>
			<trkpt lat="53.26305354" lon="-8.93401606">
				<ele>68.0</ele>
				<time>2014-08-17T15:57:01Z</time>
				<extensions>
					<speed>4.5</speed>
				</extensions>
			</trkpt>
			<trkpt lat="53.26309156" lon="-8.93399898">
				<ele>68.0</ele>
				<time>2014-08-17T15:57:02Z</time>
				<extensions>
					<speed>4.5</speed>
				</extensions>
			</trkpt>
			<trkpt lat="53.26311165" lon="-8.93394446">
				<ele>69.0</ele>
				<time>2014-08-17T15:57:03Z</time>
				<extensions>
					<speed>4.0</speed>
				</extensions>
			</trkpt>
			<trkpt lat="53.2631285" lon="-8.93390716">
				<ele>68.0</ele>
				<time>2014-08-17T15:57:04Z</time>
				<extensions>
					<speed>3.75</speed>
				</extensions>
			</trkpt>
			<trkpt lat="53.26315304" lon="-8.93385965">
				<ele>69.0</ele>
				<time>2014-08-17T15:57:05Z</time>
				<extensions>
					<speed>3.5</speed>
				</extensions>
			</trkpt>
			<trkpt lat="53.26316913" lon="-8.93383422">
				<ele>69.0</ele>
				<time>2014-08-17T15:57:06Z</time>
				<extensions>
					<speed>2.25</speed>
				</extensions>
			</trkpt>
			<trkpt lat="53.26317792" lon="-8.93381853">
				<ele>69.0</ele>
				<time>2014-08-17T15:57:07Z</time>
				<extensions>
					<speed>1.25</speed>
				</extensions>
			</trkpt>
			<trkpt lat="53.26318044" lon="-8.93381073">
				<ele>68.0</ele>
				<time>2014-08-17T15:57:08Z</time>
				<extensions>
					<speed>0.75</speed>
				</extensions>
			</trkpt>
			<trkpt lat="53.26318266" lon="-8.93380444">
				<ele>68.0</ele>
				<time>2014-08-17T15:57:09Z</time>
				<extensions>
					<speed>0.25</speed>
				</extensions>
			</trkpt>
			<trkpt lat="53.26318266" lon="-8.93380414">
				<ele>69.0</ele>
				<time>2014-08-17T15:57:10Z</time>
				<extensions>
					<speed>0.0</speed>
				</extensions>
			</trkpt>
			<trkpt lat="53.26318286" lon="-8.93380061">
				<ele>69.0</ele>
				<time>2014-08-17T15:57:11Z</time>
				<extensions>
					<speed>0.0</speed>
				</extensions>
			</trkpt>
			<trkpt lat="53.26318465" lon="-8.93380012">
				<ele>68.0</ele>
				<time>2014-08-17T15:57:12Z</time>
				<extensions>
					<speed>0.0</speed>
				</extensions>
			</trkpt>
			<trkpt lat="53.26318544" lon="-8.93380015">
				<ele>68.0</ele>
				<time>2014-08-17T15:57:13Z</time>
				<extensions>
					<speed>0.0</speed>
				</extensions>
			</trkpt>
			<trkpt lat="53.26318611" lon="-8.93379668">
				<ele>68.0</ele>
				<time>2014-08-17T15:57:14Z</time>
				<extensions>
					<speed>0.0</speed>
				</extensions>
			</trkpt>
			<trkpt lat="53.26318593" lon="-8.93379704">
				<ele>68.0</ele>
				<time>2014-08-17T15:57:15Z</time>
				<extensions>
					<speed>0.0</speed>
				</extensions>
			</trkpt>
			<trkpt lat="53.26318414" lon="-8.933796">
				<ele>68.0</ele>
				<time>2014-08-17T15:57:16Z</time>
				<extensions>
					<speed>0.0</speed>
				</extensions>
			</trkpt>
			<trkpt lat="53.26318423" lon="-8.93379596">
				<ele>68.0</ele>
				<time>2014-08-17T15:57:17Z</time>
				<extensions>
					<speed>0.0</speed>
				</extensions>
			</trkpt>
			<trkpt lat="53.2631829" lon="-8.93379704">
				<ele>68.0</ele>
				<time>2014-08-17T15:57:18Z</time>
				<extensions>
					<speed>0.0</speed>
				</extensions>
			</trkpt>
			<trkpt lat="53.2631834" lon="-8.93379651">
				<ele>68.0</ele>
				<time>2014-08-17T15:57:19Z</time>
				<extensions>
					<speed>0.0</speed>
				</extensions>
			</trkpt>
			<trkpt lat="53.26318294" lon="-8.93379588">
				<ele>68.0</ele>
				<time>2014-08-17T15:57:20Z</time>
				<extensions>
					<speed>0.0</speed>
				</extensions>
			</trkpt>
			<trkpt lat="53.26318266" lon="-8.93379609">
				<ele>68.0</ele>
				<time>2014-08-17T15:57:21Z</time>
				<extensions>
					<speed>0.0</speed>
				</extensions>
			</trkpt>
			<trkpt lat="53.26318255" lon="-8.93379629">
				<ele>68.0</ele>
				<time>2014-08-17T15:57:22Z</time>
				<extensions>
					<speed>0.0</speed>
				</extensions>
			</trkpt>
			<trkpt lat="53.26318254" lon="-8.93379621">
				<ele>68.0</ele>
				<time>2014-08-17T15:57:23Z</time>
				<extensions>
					<speed>0.0</speed>
				</extensions>
			</trkpt>
			<trkpt lat="53.26318255" lon="-8.93379623">
				<ele>68.0</ele>
				<time>2014-08-17T15:57:24Z</time>
				<extensions>
					<speed>0.0</speed>
				</extensions>
			</trkpt>
			<trkpt lat="53.26318252" lon="-8.93379621">
				<ele>68.0</ele>
				<time>2014-08-17T15:57:25Z</time>
				<extensions>
					<speed>0.0</speed>
				</extensions>
			</trkpt>
			<trkpt lat="53.26318254" lon="-8.93379621">
				<ele>68.0</ele>
				<time>2014-08-17T15:57:26Z</time>
				<extensions>
					<speed>0.0</speed>
				</extensions>
			</trkpt>
			<trkpt lat="53.26318253" lon="-8.9337962">
				<ele>68.0</ele>
				<time>2014-08-17T15:57:27Z</time>
				<extensions>
					<speed>0.0</speed>
				</extensions>
			</trkpt>
			<trkpt lat="53.26318253" lon="-8.93379619">
				<ele>68.0</ele>
				<time>2014-08-17T15:57:28Z</time>
				<extensions>
					<speed>0.0</speed>
				</extensions>
			</trkpt>
			<trkpt lat="53.26318253" lon="-8.93379623">
				<ele>68.0</ele>
				<time>2014-08-17T15:57:29Z</time>
				<extensions>
					<speed>0.0</speed>
				</extensions>
			</trkpt>
			<trkpt lat="53.26318254" lon="-8.93379622">
				<ele>68.0</ele>
				<time>2014-08-17T15:57:30Z</time>
				<extensions>
					<speed>0.0</speed>
				</extensions>
			</trkpt>
			<trkpt lat="53.26318254" lon="-8.93379624">
				<ele>68.0</ele>
				<time>2014-08-17T15:57:31Z</time>
				<extensions>
					<speed>0.0</speed>
				</extensions>
			</trkpt>
			<trkpt lat="53.26318256" lon="-8.93379623">
				<ele>68.0</ele>
				<time>2014-08-17T15:57:32Z</time>
				<extensions>
					<speed>0.0</speed>
				</extensions>
			</trkpt>
			<trkpt lat="53.26318257" lon="-8.93379625">
				<ele>68.0</ele>
				<time>2014-08-17T15:57:33Z</time>
				<extensions>
					<speed>0.0</speed>
				</extensions>
			</trkpt>
			<trkpt lat="53.26318255" lon="-8.93379626">
				<ele>68.0</ele>
				<time>2014-08-17T15:57:34Z</time>
				<extensions>
					<speed>0.0</speed>
				</extensions>
			</trkpt>
			<trkpt lat="53.26318256" lon="-8.93379627">
				<ele>68.0</ele>
				<time>2014-08-17T15:57:35Z</time>
				<extensions>
					<speed>0.0</speed>
				</extensions>
			</trkpt>
			<trkpt lat="53.26318253" lon="-8.93379631">
				<ele>68.0</ele>
				<time>2014-08-17T15:57:36Z</time>
				<extensions>
					<speed>0.0</speed>
				</extensions>
			</trkpt>
			<trkpt lat="53.26318297" lon="-8.93379519">
				<ele>68.0</ele>
				<time>2014-08-17T15:57:37Z</time>
				<extensions>
					<speed>0.75</speed>
				</extensions>
			</trkpt>
			<trkpt lat="53.26319002" lon="-8.93376826">
				<ele>68.0</ele>
				<time>2014-08-17T15:57:38Z</time>
				<extensions>
					<speed>1.75</speed>
				</extensions>
			</trkpt>
			<trkpt lat="53.26320446" lon="-8.93375154">
				<ele>68.0</ele>
				<time>2014-08-17T15:57:39Z</time>
				<extensions>
					<speed>2.25</speed>
				</extensions>
			</trkpt>
			<trkpt lat="53.26322421" lon="-8.93372966">
				<ele>68.0</ele>
				<time>2014-08-17T15:57:40Z</time>
				<extensions>
					<speed>2.5</speed>
				</extensions>
			</trkpt>
			<trkpt lat="53.26323389" lon="-8.93369336">
				<ele>68.0</ele>
				<time>2014-08-17T15:57:41Z</time>
				<extensions>
					<speed>2.0</speed>
				</extensions>
			</trkpt>
			<trkpt lat="53.26324417" lon="-8.93368117">
				<ele>68.0</ele>
				<time>2014-08-17T15:57:42Z</time>
				<extensions>
					<speed>1.25</speed>
				</extensions>
			</trkpt>
			<trkpt lat="53.2632481" lon="-8.93367693">
				<ele>69.0</ele>
				<time>2014-08-17T15:57:43Z</time>
				<extensions>
					<speed>0.0</speed>
				</extensions>
			</trkpt>
			<trkpt lat="53.26325085" lon="-8.93367497">
				<ele>68.0</ele>
				<time>2014-08-17T15:57:44Z</time>
				<extensions>
					<speed>0.0</speed>
				</extensions>
			</trkpt>
			<trkpt lat="53.26325004" lon="-8.93366789">
				<ele>68.0</ele>
				<time>2014-08-17T15:57:45Z</time>
				<extensions>
					<speed>0.0</speed>
				</extensions>
			</trkpt>
			<trkpt lat="53.26324647" lon="-8.93366776">
				<ele>67.0</ele>
				<time>2014-08-17T15:57:46Z</time>
				<extensions>
					<speed>0.0</speed>
				</extensions>
			</trkpt>
			<trkpt lat="53.2632454" lon="-8.93366846">
				<ele>67.0</ele>
				<time>2014-08-17T15:57:47Z</time>
				<extensions>
					<speed>0.0</speed>
				</extensions>
			</trkpt>
			<trkpt lat="53.26324468" lon="-8.93366732">
				<ele>67.0</ele>
				<time>2014-08-17T15:57:48Z</time>
				<extensions>
					<speed>0.0</speed>
				</extensions>
			</trkpt>
			<trkpt lat="53.26324279" lon="-8.9336681">
				<ele>68.0</ele>
				<time>2014-08-17T15:57:49Z</time>
				<extensions>
					<speed>0.0</speed>
				</extensions>
			</trkpt>
			<trkpt lat="53.26324402" lon="-8.93366935">
				<ele>67.0</ele>
				<time>2014-08-17T15:57:50Z</time>
				<extensions>
					<speed>0.0</speed>
				</extensions>
			</trkpt>
			<trkpt lat="53.26324277" lon="-8.93366832">
				<ele>67.0</ele>
				<time>2014-08-17T15:57:51Z</time>
				<extensions>
					<speed>0.0</speed>
				</extensions>
			</trkpt>
			<trkpt lat="53.26324191" lon="-8.93366595">
				<ele>68.0</ele>
				<time>2014-08-17T15:57:52Z</time>
				<extensions>
					<speed>0.0</speed>
				</extensions>
			</trkpt>
			<trkpt lat="53.26324154" lon="-8.93366661">
				<ele>68.0</ele>
				<time>2014-08-17T15:57:53Z</time>
				<extensions>
					<speed>0.0</speed>
				</extensions>
			</trkpt>
			<trkpt lat="53.26324154" lon="-8.93366661">
				<ele>68.0</ele>
				<time>2014-08-17T15:57:54Z</time>
				<extensions>
					<speed>0.0</speed>
				</extensions>
			</trkpt>
			<trkpt lat="53.26324154" lon="-8.93366661">
				<ele>68.0</ele>
				<time>2014-08-17T15:57:55Z</time>
				<extensions>
					<speed>0.0</speed>
				</extensions>
			</trkpt>
			<trkpt lat="53.2632526" lon="-8.93365366">
				<ele>68.0</ele>
				<time>2014-08-17T15:57:56Z</time>
				<extensions>
					<speed>2.0</speed>
				</extensions>
			</trkpt>
			<trkpt lat="53.26327512" lon="-8.93362469">
				<ele>68.0</ele>
				<time>2014-08-17T15:57:57Z</time>
				<extensions>
					<speed>2.5</speed>
				</extensions>
			</trkpt>
			<trkpt lat="53.26329727" lon="-8.93358586">
				<ele>68.0</ele>
				<time>2014-08-17T15:57:58Z</time>
				<extensions>
					<speed>2.75</speed>
				</extensions>
			</trkpt>
			<trkpt lat="53.2633222" lon="-8.93356686">
				<ele>67.0</ele>
				<time>2014-08-17T15:57:59Z</time>
				<extensions>
					<speed>2.75</speed>
				</extensions>
			</trkpt>
			<trkpt lat="53.26334363" lon="-8.9335404">
				<ele>67.0</ele>
				<time>2014-08-17T15:58:00Z</time>
				<extensions>
					<speed>3.0</speed>
				</extensions>
			</trkpt>
			<trkpt lat="53.26337004" lon="-8.93351554">
				<ele>68.0</ele>
				<time>2014-08-17T15:58:01Z</time>
				<extensions>
					<speed>3.75</speed>
				</extensions>
			</trkpt>
			<trkpt lat="53.26339843" lon="-8.93348645">
				<ele>68.0</ele>
				<time>2014-08-17T15:58:02Z</time>
				<extensions>
					<speed>3.75</speed>
				</extensions>
			</trkpt>
			<trkpt lat="53.26343472" lon="-8.93346698">
				<ele>67.0</ele>
				<time>2014-08-17T15:58:03Z</time>
				<extensions>
					<speed>4.25</speed>
				</extensions>
			</trkpt>
			<trkpt lat="53.26347054" lon="-8.93344249">
				<ele>67.0</ele>
				<time>2014-08-17T15:58:04Z</time>
				<extensions>
					<speed>4.25</speed>
				</extensions>
			</trkpt>
			<trkpt lat="53.26349512" lon="-8.93343432">
				<ele>67.0</ele>
				<time>2014-08-17T15:58:05Z</time>
				<extensions>
					<speed>3.5</speed>
				</extensions>
			</trkpt>
			<trkpt lat="53.26352606" lon="-8.93342102">
				<ele>67.0</ele>
				<time>2014-08-17T15:58:06Z</time>
				<extensions>
					<speed>3.5</speed>
				</extensions>
			</trkpt>
			<trkpt lat="53.26355889" lon="-8.93341784">
				<ele>66.0</ele>
				<time>2014-08-17T15:58:07Z</time>
				<extensions>
					<speed>3.5</speed>
				</extensions>
			</trkpt>
			<trkpt lat="53.26359133" lon="-8.93340852">
				<ele>66.0</ele>
				<time>2014-08-17T15:58:08Z</time>
				<extensions>
					<speed>3.5</speed>
				</extensions>
			</trkpt>
			<trkpt lat="53.26361986" lon="-8.933393">
				<ele>66.0</ele>
				<time>2014-08-17T15:58:09Z</time>
				<extensions>
					<speed>3.5</speed>
				</extensions>
			</trkpt>
			<trkpt lat="53.26365401" lon="-8.93336896">
				<ele>66.0</ele>
				<time>2014-08-17T15:58:10Z</time>
				<extensions>
					<speed>3.75</speed>
				</extensions>
			</trkpt>
			<trkpt lat="53.26368435" lon="-8.93334846">
				<ele>66.0</ele>
				<time>2014-08-17T15:58:11Z</time>
				<extensions>
					<speed>3.75</speed>
				</extensions>
			</trkpt>
			<trkpt lat="53.26371703" lon="-8.93333349">
				<ele>66.0</ele>
				<time>2014-08-17T15:58:12Z</time>
				<extensions>
					<speed>3.0</speed>
				</extensions>
			</trkpt>
			<trkpt lat="53.2637411" lon="-8.93331044">
				<ele>66.0</ele>
				<time>2014-08-17T15:58:13Z</time>
				<extensions>
					<speed>3.0</speed>
				</extensions>
			</trkpt>
			<trkpt lat="53.26375574" lon="-8.93329833">
				<ele>67.0</ele>
				<time>2014-08-17T15:58:14Z</time>
				<extensions>
					<speed>1.75</speed>
				</extensions>
			</trkpt>
			<trkpt lat="53.26376935" lon="-8.93328587">
				<ele>67.0</ele>
				<time>2014-08-17T15:58:15Z</time>
				<extensions>
					<speed>1.75</speed>
				</extensions>
			</trkpt>
			<trkpt lat="53.26376469" lon="-8.93327614">
				<ele>67.0</ele>
				<time>2014-08-17T15:58:16Z</time>
				<extensions>
					<speed>0.25</speed>
				</extensions>
			</trkpt>
			<trkpt lat="53.26376725" lon="-8.93327655">
				<ele>67.0</ele>
				<time>2014-08-17T15:58:17Z</time>
				<extensions>
					<speed>0.0</speed>
				</extensions>
			</trkpt>
			<trkpt lat="53.26376863" lon="-8.93327456">
				<ele>67.0</ele>
				<time>2014-08-17T15:58:18Z</time>
				<extensions>
					<speed>0.0</speed>
				</extensions>
			</trkpt>
			<trkpt lat="53.26376874" lon="-8.93327189">
				<ele>66.0</ele>
				<time>2014-08-17T15:58:19Z</time>
				<extensions>
					<speed>0.0</speed>
				</extensions>
			</trkpt>
			<trkpt lat="53.26376656" lon="-8.93326897">
				<ele>66.0</ele>
				<time>2014-08-17T15:58:20Z</time>
				<extensions>
					<speed>0.0</speed>
				</extensions>
			</trkpt>
			<trkpt lat="53.26376902" lon="-8.93326646">
				<ele>66.0</ele>
				<time>2014-08-17T15:58:21Z</time>
				<extensions>
					<speed>0.0</speed>
				</extensions>
			</trkpt>
			<trkpt lat="53.26376871" lon="-8.93326784">
				<ele>66.0</ele>
				<time>2014-08-17T15:58:22Z</time>
				<extensions>
					<speed>0.0</speed>
				</extensions>
			</trkpt>
			<trkpt lat="53.26376967" lon="-8.93326652">
				<ele>66.0</ele>
				<time>2014-08-17T15:58:23Z</time>
				<extensions>
					<speed>0.0</speed>
				</extensions>
			</trkpt>
			<trkpt lat="53.26377164" lon="-8.93327112">
				<ele>66.0</ele>
				<time>2014-08-17T15:58:24Z</time>
				<extensions>
					<speed>0.0</speed>
				</extensions>
			</trkpt>
			<trkpt lat="53.26376985" lon="-8.93326845">
				<ele>66.0</ele>
				<time>2014-08-17T15:58:25Z</time>
				<extensions>
					<speed>0.0</speed>
				</extensions>
			</trkpt>
			<trkpt lat="53.26376799" lon="-8.93326517">
				<ele>66.0</ele>
				<time>2014-08-17T15:58:26Z</time>
				<extensions>
					<speed>0.0</speed>
				</extensions>
			</trkpt>
			<trkpt lat="53.26376794" lon="-8.93326545">
				<ele>67.0</ele>
				<time>2014-08-17T15:58:27Z</time>
				<extensions>
					<speed>0.0</speed>
				</extensions>
			</trkpt>
			<trkpt lat="53.26376809" lon="-8.93326581">
				<ele>67.0</ele>
				<time>2014-08-17T15:58:28Z</time>
				<extensions>
					<speed>0.0</speed>
				</extensions>
			</trkpt>
			<trkpt lat="53.263768" lon="-8.9332658">
				<ele>67.0</ele>
				<time>2014-08-17T15:58:29Z</time>
				<extensions>
					<speed>0.0</speed>
				</extensions>
			</trkpt>
			<trkpt lat="53.26376786" lon="-8.93326585">
				<ele>67.0</ele>
				<time>2014-08-17T15:58:30Z</time>
				<extensions>
					<speed>0.0</speed>
				</extensions>
			</trkpt>
			<trkpt lat="53.2637679" lon="-8.93326585">
				<ele>67.0</ele>
				<time>2014-08-17T15:58:31Z</time>
				<extensions>
					<speed>0.0</speed>
				</extensions>
			</trkpt>
			<trkpt lat="53.26376789" lon="-8.93326586">
				<ele>67.0</ele>
				<time>2014-08-17T15:58:32Z</time>
				<extensions>
					<speed>0.0</speed>
				</extensions>
			</trkpt>
			<trkpt lat="53.26376885" lon="-8.9332647">
				<ele>67.0</ele>
				<time>2014-08-17T15:58:33Z</time>
				<extensions>
					<speed>1.0</speed>
				</extensions>
			</trkpt>
			<trkpt lat="53.26377862" lon="-8.93325066">
				<ele>67.0</ele>
				<time>2014-08-17T15:58:34Z</time>
				<extensions>
					<speed>1.75</speed>
				</extensions>
			</trkpt>
			<trkpt lat="53.26379741" lon="-8.93323116">
				<ele>67.0</ele>
				<time>2014-08-17T15:58:35Z</time>
				<extensions>
					<speed>2.5</speed>
				</extensions>
			</trkpt>
			<trkpt lat="53.26382083" lon="-8.93320326">
				<ele>68.0</ele>
				<time>2014-08-17T15:58:36Z</time>
				<extensions>
					<speed>2.75</speed>
				</extensions>
			</trkpt>
			<trkpt lat="53.26383984" lon="-8.93317622">
				<ele>68.0</ele>
				<time>2014-08-17T15:58:37Z</time>
				<extensions>
					<speed>2.75</speed>
				</extensions>
			</trkpt>
			<trkpt lat="53.26385223" lon="-8.93315923">
				<ele>68.0</ele>
				<time>2014-08-17T15:58:38Z</time>
				<extensions>
					<speed>2.0</speed>
				</extensions>
			</trkpt>
			<trkpt lat="53.26386716" lon="-8.93314005">
				<ele>68.0</ele>
				<time>2014-08-17T15:58:39Z</time>
				<extensions>
					<speed>2.0</speed>
				</extensions>
			</trkpt>
			<trkpt lat="53.26387957" lon="-8.93313756">
				<ele>68.0</ele>
				<time>2014-08-17T15:58:40Z</time>
				<extensions>
					<speed>1.0</speed>
				</extensions>
			</trkpt>
			<trkpt lat="53.26389272" lon="-8.93313938">
				<ele>67.0</ele>
				<time>2014-08-17T15:58:41Z</time>
				<extensions>
					<speed>0.0</speed>
				</extensions>
			</trkpt>
			<trkpt lat="53.2638964" lon="-8.93313995">
				<ele>66.0</ele>
				<time>2014-08-17T15:58:42Z</time>
				<extensions>
					<speed>0.0</speed>
				</extensions>
			</trkpt>
			<trkpt lat="53.26389556" lon="-8.93313691">
				<ele>66.0</ele>
				<time>2014-08-17T15:58:43Z</time>
				<extensions>
					<speed>0.0</speed>
				</extensions>
			</trkpt>
			<trkpt lat="53.26389662" lon="-8.9331357">
				<ele>66.0</ele>
				<time>2014-08-17T15:58:44Z</time>
				<extensions>
					<speed>0.0</speed>
				</extensions>
			</trkpt>
			<trkpt lat="53.26389651" lon="-8.93313356">
				<ele>66.0</ele>
				<time>2014-08-17T15:58:45Z</time>
				<extensions>
					<speed>0.0</speed>
				</extensions>
			</trkpt>
			<trkpt lat="53.26389651" lon="-8.93313356">
				<ele>66.0</ele>
				<time>2014-08-17T15:58:46Z</time>
				<extensions>
					<speed>0.0</speed>
				</extensions>
			</trkpt>
			<trkpt lat="53.26390065" lon="-8.93313195">
				<ele>65.0</ele>
				<time>2014-08-17T15:58:47Z</time>
				<extensions>
					<speed>0.0</speed>
				</extensions>
			</trkpt>
			<trkpt lat="53.26390093" lon="-8.93313174">
				<ele>65.0</ele>
				<time>2014-08-17T15:58:48Z</time>
				<extensions>
					<speed>0.0</speed>
				</extensions>
			</trkpt>
			<trkpt lat="53.26389956" lon="-8.9331328">
				<ele>66.0</ele>
				<time>2014-08-17T15:58:49Z</time>
				<extensions>
					<speed>0.0</speed>
				</extensions>
			</trkpt>
			<trkpt lat="53.26389927" lon="-8.93313207">
				<ele>66.0</ele>
				<time>2014-08-17T15:58:50Z</time>
				<extensions>
					<speed>0.0</speed>
				</extensions>
			</trkpt>
			<trkpt lat="53.26389914" lon="-8.93313164">
				<ele>66.0</ele>
				<time>2014-08-17T15:58:51Z</time>
				<extensions>
					<speed>0.25</speed>
				</extensions>
			</trkpt>
			<trkpt lat="53.26390009" lon="-8.93312942">
				<ele>67.0</ele>
				<time>2014-08-17T15:58:52Z</time>
				<extensions>
					<speed>0.0</speed>
				</extensions>
			</trkpt>
			<trkpt lat="53.26389822" lon="-8.93312842">
				<ele>67.0</ele>
				<time>2014-08-17T15:58:53Z</time>
				<extensions>
					<speed>0.0</speed>
				</extensions>
			</trkpt>
			<trkpt lat="53.26389665" lon="-8.93311917">
				<ele>68.0</ele>
				<time>2014-08-17T15:58:54Z</time>
				<extensions>
					<speed>0.0</speed>
				</extensions>
			</trkpt>
			<trkpt lat="53.26389184" lon="-8.93311005">
				<ele>68.0</ele>
				<time>2014-08-17T15:58:55Z</time>
				<extensions>
					<speed>0.0</speed>
				</extensions>
			</trkpt>
			<trkpt lat="53.26389275" lon="-8.93311021">
				<ele>69.0</ele>
				<time>2014-08-17T15:58:56Z</time>
				<extensions>
					<speed>0.0</speed>
				</extensions>
			</trkpt>
			<trkpt lat="53.26389087" lon="-8.93310399">
				<ele>69.0</ele>
				<time>2014-08-17T15:58:57Z</time>
				<extensions>
					<speed>0.0</speed>
				</extensions>
			</trkpt>
			<trkpt lat="53.26389087" lon="-8.93310399">
				<ele>69.0</ele>
				<time>2014-08-17T15:58:58Z</time>
				<extensions>
					<speed>0.0</speed>
				</extensions>
			</trkpt>
			<trkpt lat="53.26389485" lon="-8.93310761">
				<ele>68.0</ele>
				<time>2014-08-17T15:58:59Z</time>
				<extensions>
					<speed>0.0</speed>
				</extensions>
			</trkpt>
			<trkpt lat="53.26389585" lon="-8.93311218">
				<ele>68.0</ele>
				<time>2014-08-17T15:59:00Z</time>
				<extensions>
					<speed>0.0</speed>
				</extensions>
			</trkpt>
			<trkpt lat="53.2638966" lon="-8.93311198">
				<ele>68.0</ele>
				<time>2014-08-17T15:59:01Z</time>
				<extensions>
					<speed>0.0</speed>
				</extensions>
			</trkpt>
			<trkpt lat="53.26389517" lon="-8.93311034">
				<ele>69.0</ele>
				<time>2014-08-17T15:59:02Z</time>
				<extensions>
					<speed>0.0</speed>
				</extensions>
			</trkpt>
			<trkpt lat="53.26389497" lon="-8.93311048">
				<ele>69.0</ele>
				<time>2014-08-17T15:59:03Z</time>
				<extensions>
					<speed>0.0</speed>
				</extensions>
			</trkpt>
			<trkpt lat="53.26389468" lon="-8.93311042">
				<ele>69.0</ele>
				<time>2014-08-17T15:59:04Z</time>
				<extensions>
					<speed>0.0</speed>
				</extensions>
			</trkpt>
			<trkpt lat="53.26389466" lon="-8.93311035">
				<ele>69.0</ele>
				<time>2014-08-17T15:59:05Z</time>
				<extensions>
					<speed>0.0</speed>
				</extensions>
			</trkpt>
			<trkpt lat="53.26389464" lon="-8.93311033">
				<ele>69.0</ele>
				<time>2014-08-17T15:59:06Z</time>
				<extensions>
					<speed>0.0</speed>
				</extensions>
			</trkpt>
			<trkpt lat="53.26389463" lon="-8.93311034">
				<ele>69.0</ele>
				<time>2014-08-17T15:59:07Z</time>
				<extensions>
					<speed>0.0</speed>
				</extensions>
			</trkpt>
			<trkpt lat="53.26389459" lon="-8.93311031">
				<ele>69.0</ele>
				<time>2014-08-17T15:59:08Z</time>
				<extensions>
					<speed>0.0</speed>
				</extensions>
			</trkpt>
			<trkpt lat="53.26389459" lon="-8.93311037">
				<ele>69.0</ele>
				<time>2014-08-17T15:59:09Z</time>
				<extensions>
					<speed>0.0</speed>
				</extensions>
			</trkpt>
			<trkpt lat="53.26389456" lon="-8.93311032">
				<ele>69.0</ele>
				<time>2014-08-17T15:59:10Z</time>
				<extensions>
					<speed>0.0</speed>
				</extensions>
			</trkpt>
			<trkpt lat="53.26389459" lon="-8.93311039">
				<ele>69.0</ele>
				<time>2014-08-17T15:59:11Z</time>
				<extensions>
					<speed>0.0</speed>
				</extensions>
			</trkpt>
			<trkpt lat="53.26389459" lon="-8.93311036">
				<ele>69.0</ele>
				<time>2014-08-17T15:59:12Z</time>
				<extensions>
					<speed>0.0</speed>
				</extensions>
			</trkpt>
			<trkpt lat="53.2638946" lon="-8.93311039">
				<ele>69.0</ele>
				<time>2014-08-17T15:59:13Z</time>
				<extensions>
					<speed>0.0</speed>
				</extensions>
			</trkpt>
			<trkpt lat="53.2638946" lon="-8.93311038">
				<ele>69.0</ele>
				<time>2014-08-17T15:59:14Z</time>
				<extensions>
					<speed>0.0</speed>
				</extensions>
			</trkpt>
			<trkpt lat="53.26389567" lon="-8.93310933">
				<ele>69.0</ele>
				<time>2014-08-17T15:59:15Z</time>
				<extensions>
					<speed>1.0</speed>
				</extensions>
			</trkpt>
			<trkpt lat="53.26390927" lon="-8.93309154">
				<ele>68.0</ele>
				<time>2014-08-17T15:59:16Z</time>
				<extensions>
					<speed>1.75</speed>
				</extensions>
			</trkpt>
			<trkpt lat="53.26393206" lon="-8.93307102">
				<ele>68.0</ele>
				<time>2014-08-17T15:59:17Z</time>
				<extensions>
					<speed>3.25</speed>
				</extensions>
			</trkpt>
			<trkpt lat="53.26395126" lon="-8.93305034">
				<ele>67.0</ele>
				<time>2014-08-17T15:59:18Z</time>
				<extensions>
					<speed>3.0</speed>
				</extensions>
			</trkpt>
			<trkpt lat="53.2639723" lon="-8.93301867">
				<ele>68.0</ele>
				<time>2014-08-17T15:59:19Z</time>
				<extensions>
					<speed>2.75</speed>
				</extensions>
			</trkpt>
			<trkpt lat="53.26398925" lon="-8.93299054">
				<ele>69.0</ele>
				<time>2014-08-17T15:59:20Z</time>
				<extensions>
					<speed>2.5</speed>
				</extensions>
			</trkpt>
			<trkpt lat="53.26400249" lon="-8.93295686">
				<ele>69.0</ele>
				<time>2014-08-17T15:59:21Z</time>
				<extensions>
					<speed>2.25</speed>
				</extensions>
			</trkpt>
			<trkpt lat="53.26401818" lon="-8.93293394">
				<ele>70.0</ele>
				<time>2014-08-17T15:59:22Z</time>
				<extensions>
					<speed>2.0</speed>
				</extensions>
			</trkpt>
			<trkpt lat="53.26403384" lon="-8.93292595">
				<ele>70.0</ele>
				<time>2014-08-17T15:59:23Z</time>
				<extensions>
					<speed>2.25</speed>
				</extensions>
			</trkpt>
			<trkpt lat="53.26406061" lon="-8.93292304">
				<ele>69.0</ele>
				<time>2014-08-17T15:59:24Z</time>
				<extensions>
					<speed>2.75</speed>
				</extensions>
			</trkpt>
			<trkpt lat="53.26408346" lon="-8.9329303">
				<ele>68.0</ele>
				<time>2014-08-17T15:59:25Z</time>
				<extensions>
					<speed>2.75</speed>
				</extensions>
			</trkpt>
			<trkpt lat="53.26410394" lon="-8.93296">
				<ele>68.0</ele>
				<time>2014-08-17T15:59:26Z</time>
				<extensions>
					<speed>3.0</speed>
				</extensions>
			</trkpt>
			<trkpt lat="53.26412651" lon="-8.93299955">
				<ele>69.0</ele>
				<time>2014-08-17T15:59:27Z</time>
				<extensions>
					<speed>3.25</speed>
				</extensions>
			</trkpt>
			<trkpt lat="53.26414114" lon="-8.93303724">
				<ele>69.0</ele>
				<time>2014-08-17T15:59:28Z</time>
				<extensions>
					<speed>3.0</speed>
				</extensions>
			</trkpt>
			<trkpt lat="53.26415781" lon="-8.93307526">
				<ele>70.0</ele>
				<time>2014-08-17T15:59:29Z</time>
				<extensions>
					<speed>2.75</speed>
				</extensions>
			</trkpt>
			<trkpt lat="53.26417547" lon="-8.93311285">
				<ele>70.0</ele>
				<time>2014-08-17T15:59:30Z</time>
				<extensions>
					<speed>3.0</speed>
				</extensions>
			</trkpt>
			<trkpt lat="53.26418995" lon="-8.93315111">
				<ele>69.0</ele>
				<time>2014-08-17T15:59:31Z</time>
				<extensions>
					<speed>2.75</speed>
				</extensions>
			</trkpt>
			<trkpt lat="53.26420033" lon="-8.93319696">
				<ele>69.0</ele>
				<time>2014-08-17T15:59:32Z</time>
				<extensions>
					<speed>2.75</speed>
				</extensions>
			</trkpt>
			<trkpt lat="53.26419747" lon="-8.93323998">
				<ele>69.0</ele>
				<time>2014-08-17T15:59:33Z</time>
				<extensions>
					<speed>2.75</speed>
				</extensions>
			</trkpt>
			<trkpt lat="53.26419131" lon="-8.93327226">
				<ele>69.0</ele>
				<time>2014-08-17T15:59:34Z</time>
				<extensions>
					<speed>2.5</speed>
				</extensions>
			</trkpt>
			<trkpt lat="53.2641792" lon="-8.93330164">
				<ele>69.0</ele>
				<time>2014-08-17T15:59:35Z</time>
				<extensions>
					<speed>2.5</speed>
				</extensions>
			</trkpt>
			<trkpt lat="53.2641612" lon="-8.93331519">
				<ele>69.0</ele>
				<time>2014-08-17T15:59:36Z</time>
				<extensions>
					<speed>2.0</speed>
				</extensions>
			</trkpt>
			<trkpt lat="53.26415177" lon="-8.93333027">
				<ele>69.0</ele>
				<time>2014-08-17T15:59:37Z</time>
				<extensions>
					<speed>1.0</speed>
				</extensions>
			</trkpt>
			<trkpt lat="53.26413887" lon="-8.93333703">
				<ele>69.0</ele>
				<time>2014-08-17T15:59:38Z</time>
				<extensions>
					<speed>1.0</speed>
				</extensions>
			</trkpt>
			<trkpt lat="53.26412597" lon="-8.93335099">
				<ele>69.0</ele>
				<time>2014-08-17T15:59:39Z</time>
				<extensions>
					<speed>1.5</speed>
				</extensions>
			</trkpt>
			<trkpt lat="53.26410994" lon="-8.93336876">
				<ele>68.0</ele>
				<time>2014-08-17T15:59:40Z</time>
				<extensions>
					<speed>1.75</speed>
				</extensions>
			</trkpt>
			<trkpt lat="53.26409275" lon="-8.93338849">
				<ele>69.0</ele>
				<time>2014-08-17T15:59:41Z</time>
				<extensions>
					<speed>2.0</speed>
				</extensions>
			</trkpt>
			<trkpt lat="53.26407949" lon="-8.93340669">
				<ele>68.0</ele>
				<time>2014-08-17T15:59:42Z</time>
				<extensions>
					<speed>1.25</speed>
				</extensions>
			</trkpt>
			<trkpt lat="53.26407049" lon="-8.93342402">
				<ele>68.0</ele>
				<time>2014-08-17T15:59:43Z</time>
				<extensions>
					<speed>1.0</speed>
				</extensions>
			</trkpt>
			<trkpt lat="53.26406647" lon="-8.93343061">
				<ele>68.0</ele>
				<time>2014-08-17T15:59:44Z</time>
				<extensions>
					<speed>0.75</speed>
				</extensions>
			</trkpt>
			<trkpt lat="53.26405912" lon="-8.93344486">
				<ele>68.0</ele>
				<time>2014-08-17T15:59:45Z</time>
				<extensions>
					<speed>1.0</speed>
				</extensions>
			</trkpt>
			<trkpt lat="53.26405201" lon="-8.93345567">
				<ele>68.0</ele>
				<time>2014-08-17T15:59:46Z</time>
				<extensions>
					<speed>1.0</speed>
				</extensions>
			</trkpt>
			<trkpt lat="53.26404577" lon="-8.93346758">
				<ele>67.0</ele>
				<time>2014-08-17T15:59:47Z</time>
				<extensions>
					<speed>0.75</speed>
				</extensions>
			</trkpt>
			<trkpt lat="53.26403934" lon="-8.93347408">
				<ele>67.0</ele>
				<time>2014-08-17T15:59:48Z</time>
				<extensions>
					<speed>0.75</speed>
				</extensions>
			</trkpt>
			<trkpt lat="53.26403522" lon="-8.93347144">
				<ele>67.0</ele>
				<time>2014-08-17T15:59:49Z</time>
				<extensions>
					<speed>0.0</speed>
				</extensions>
			</trkpt>
			<trkpt lat="53.26403421" lon="-8.93347293">
				<ele>67.0</ele>
				<time>2014-08-17T15:59:50Z</time>
				<extensions>
					<speed>0.0</speed>
				</extensions>
			</trkpt>
			<trkpt lat="53.26403273" lon="-8.93347539">
				<ele>67.0</ele>
				<time>2014-08-17T15:59:51Z</time>
				<extensions>
					<speed>0.0</speed>
				</extensions>
			</trkpt>
			<trkpt lat="53.26403273" lon="-8.93347539">
				<ele>67.0</ele>
				<time>2014-08-17T15:59:52Z</time>
				<extensions>
					<speed>0.0</speed>
				</extensions>
			</trkpt>
			<trkpt lat="53.26403273" lon="-8.93347539">
				<ele>67.0</ele>
				<time>2014-08-17T15:59:53Z</time>
				<extensions>
					<speed>0.0</speed>
				</extensions>
			</trkpt>
			<trkpt lat="53.26405395" lon="-8.93346341">
				<ele>65.0</ele>
				<time>2014-08-17T15:59:54Z</time>
				<extensions>
					<speed>0.0</speed>
				</extensions>
			</trkpt>
			<trkpt lat="53.26405353" lon="-8.93345776">
				<ele>65.0</ele>
				<time>2014-08-17T15:59:55Z</time>
				<extensions>
					<speed>0.75</speed>
				</extensions>
			</trkpt>
			<trkpt lat="53.26405979" lon="-8.933438">
				<ele>65.0</ele>
				<time>2014-08-17T15:59:56Z</time>
				<extensions>
					<speed>1.0</speed>
				</extensions>
			</trkpt>
			<trkpt lat="53.26406258" lon="-8.93342385">
				<ele>65.0</ele>
				<time>2014-08-17T15:59:57Z</time>
				<extensions>
					<speed>1.0</speed>
				</extensions>
			</trkpt>
			<trkpt lat="53.26406735" lon="-8.93342138">
				<ele>65.0</ele>
				<time>2014-08-17T15:59:58Z</time>
				<extensions>
					<speed>0.75</speed>
				</extensions>
			</trkpt>
			<trkpt lat="53.26406107" lon="-8.93341091">
				<ele>65.0</ele>
				<time>2014-08-17T15:59:59Z</time>
				<extensions>
					<speed>0.75</speed>
				</extensions>
			</trkpt>
			<trkpt lat="53.26406056" lon="-8.93339557">
				<ele>65.0</ele>
				<time>2014-08-17T16:00:00Z</time>
				<extensions>
					<speed>0.75</speed>
				</extensions>
			</trkpt>
			<trkpt lat="53.26405856" lon="-8.93338624">
				<ele>65.0</ele>
				<time>2014-08-17T16:00:01Z</time>
				<extensions>
					<speed>0.75</speed>
				</extensions>
			</trkpt>
			<trkpt lat="53.26405656" lon="-8.93337691">
				<ele>65.0</ele>
				<time>2014-08-17T16:00:02Z</time>
				<extensions>
					<speed>0.75</speed>
				</extensions>
			</trkpt>
			<trkpt lat="53.26407148" lon="-8.93336924">
				<ele>66.0</ele>
				<time>2014-08-17T16:00:03Z</time>
				<extensions>
					<speed>0.25</speed>
				</extensions>
			</trkpt>
			<trkpt lat="53.26408275" lon="-8.93335965">
				<ele>66.0</ele>
				<time>2014-08-17T16:00:04Z</time>
				<extensions>
					<speed>0.0</speed>
				</extensions>
			</trkpt>
			<trkpt lat="53.26408447" lon="-8.93336044">
				<ele>66.0</ele>
				<time>2014-08-17T16:00:05Z</time>
				<extensions>
					<speed>0.0</speed>
				</extensions>
			</trkpt>
			<trkpt lat="53.26408584" lon="-8.933355">
				<ele>67.0</ele>
				<time>2014-08-17T16:00:06Z</time>
				<extensions>
					<speed>0.0</speed>
				</extensions>
			</trkpt>
			<trkpt lat="53.26408619" lon="-8.93335831">
				<ele>66.0</ele>
				<time>2014-08-17T16:00:07Z</time>
				<extensions>
					<speed>0.0</speed>
				</extensions>
			</trkpt>
			<trkpt lat="53.26408635" lon="-8.93335351">
				<ele>67.0</ele>
				<time>2014-08-17T16:00:08Z</time>
				<extensions>
					<speed>0.0</speed>
				</extensions>
			</trkpt>
			<trkpt lat="53.26408577" lon="-8.93335542">
				<ele>67.0</ele>
				<time>2014-08-17T16:00:09Z</time>
				<extensions>
					<speed>0.0</speed>
				</extensions>
			</trkpt>
			<trkpt lat="53.26408669" lon="-8.9333555">
				<ele>66.0</ele>
				<time>2014-08-17T16:00:10Z</time>
				<extensions>
					<speed>0.0</speed>
				</extensions>
			</trkpt>
			<trkpt lat="53.26408649" lon="-8.933356">
				<ele>66.0</ele>
				<time>2014-08-17T16:00:11Z</time>
				<extensions>
					<speed>0.0</speed>
				</extensions>
			</trkpt>
			<trkpt lat="53.26408689" lon="-8.93336054">
				<ele>66.0</ele>
				<time>2014-08-17T16:00:12Z</time>
				<extensions>
					<speed>0.0</speed>
				</extensions>
			</trkpt>
			<trkpt lat="53.26408806" lon="-8.93336229">
				<ele>65.0</ele>
				<time>2014-08-17T16:00:13Z</time>
				<extensions>
					<speed>0.0</speed>
				</extensions>
			</trkpt>
			<trkpt lat="53.26408867" lon="-8.93336281">
				<ele>65.0</ele>
				<time>2014-08-17T16:00:14Z</time>
				<extensions>
					<speed>0.0</speed>
				</extensions>
			</trkpt>
			<trkpt lat="53.26408878" lon="-8.93336285">
				<ele>65.0</ele>
				<time>2014-08-17T16:00:15Z</time>
				<extensions>
					<speed>0.0</speed>
				</extensions>
			</trkpt>
			<trkpt lat="53.26408877" lon="-8.93336282">
				<ele>65.0</ele>
				<time>2014-08-17T16:00:16Z</time>
				<extensions>
					<speed>0.0</speed>
				</extensions>
			</trkpt>
			<trkpt lat="53.26408875" lon="-8.93336285">
				<ele>65.0</ele>
				<time>2014-08-17T16:00:17Z</time>
				<extensions>
					<speed>0.0</speed>
				</extensions>
			</trkpt>
			<trkpt lat="53.26408873" lon="-8.93336283">
				<ele>65.0</ele>
				<time>2014-08-17T16:00:18Z</time>
				<extensions>
					<speed>0.0</speed>
				</extensions>
			</trkpt>
			<trkpt lat="53.26408877" lon="-8.93336284">
				<ele>65.0</ele>
				<time>2014-08-17T16:00:19Z</time>
				<extensions>
					<speed>0.0</speed>
				</extensions>
			</trkpt>
			<trkpt lat="53.26409092" lon="-8.93336539">
				<ele>65.0</ele>
				<time>2014-08-17T16:00:20Z</time>
				<extensions>
					<speed>0.0</speed>
				</extensions>
			</trkpt>
			<trkpt lat="53.2640914" lon="-8.93336845">
				<ele>65.0</ele>
				<time>2014-08-17T16:00:21Z</time>
				<extensions>
					<speed>0.0</speed>
				</extensions>
			</trkpt>
			<trkpt lat="53.26409317" lon="-8.93337209">
				<ele>64.0</ele>
				<time>2014-08-17T16:00:22Z</time>
				<extensions>
					<speed>0.0</speed>
				</extensions>
			</trkpt>
			<trkpt lat="53.26408987" lon="-8.93337202">
				<ele>64.0</ele>
				<time>2014-08-17T16:00:23Z</time>
				<extensions>
					<speed>0.0</speed>
				</extensions>
			</trkpt>
			<trkpt lat="53.26408488" lon="-8.93337042">
				<ele>64.0</ele>
				<time>2014-08-17T16:00:24Z</time>
				<extensions>
					<speed>0.0</speed>
				</extensions>
			</trkpt>
			<trkpt lat="53.26408103" lon="-8.93337226">
				<ele>63.0</ele>
				<time>2014-08-17T16:00:25Z</time>
				<extensions>
					<speed>0.0</speed>
				</extensions>
			</trkpt>
			<trkpt lat="53.26408084" lon="-8.93337192">
				<ele>63.0</ele>
				<time>2014-08-17T16:00:26Z</time>
				<extensions>
					<speed>0.0</speed>
				</extensions>
			</trkpt>
			<trkpt lat="53.2640801" lon="-8.93337608">
				<ele>62.0</ele>
				<time>2014-08-17T16:00:27Z</time>
				<extensions>
					<speed>0.0</speed>
				</extensions>
			</trkpt>
			<trkpt lat="53.26407833" lon="-8.9333779">
				<ele>62.0</ele>
				<time>2014-08-17T16:00:28Z</time>
				<extensions>
					<speed>0.0</speed>
				</extensions>
			</trkpt>
			<trkpt lat="53.26407666" lon="-8.93337655">
				<ele>62.0</ele>
				<time>2014-08-17T16:00:29Z</time>
				<extensions>
					<speed>0.0</speed>
				</extensions>
			</trkpt>
			<trkpt lat="53.26407783" lon="-8.93337641">
				<ele>62.0</ele>
				<time>2014-08-17T16:00:30Z</time>
				<extensions>
					<speed>0.0</speed>
				</extensions>
			</trkpt>
			<trkpt lat="53.26407798" lon="-8.93337572">
				<ele>62.0</ele>
				<time>2014-08-17T16:00:31Z</time>
				<extensions>
					<speed>0.0</speed>
				</extensions>
			</trkpt>
			<trkpt lat="53.26407801" lon="-8.93337595">
				<ele>62.0</ele>
				<time>2014-08-17T16:00:32Z</time>
				<extensions>
					<speed>0.0</speed>
				</extensions>
			</trkpt>
			<trkpt lat="53.26407801" lon="-8.93337601">
				<ele>62.0</ele>
				<time>2014-08-17T16:00:33Z</time>
				<extensions>
					<speed>0.0</speed>
				</extensions>
			</trkpt>
			<trkpt lat="53.26407802" lon="-8.93337605">
				<ele>62.0</ele>
				<time>2014-08-17T16:00:34Z</time>
				<extensions>
					<speed>0.0</speed>
				</extensions>
			</trkpt>
			<trkpt lat="53.26407801" lon="-8.93337607">
				<ele>62.0</ele>
				<time>2014-08-17T16:00:35Z</time>
				<extensions>
					<speed>0.0</speed>
				</extensions>
			</trkpt>
			<trkpt lat="53.264078" lon="-8.93337604">
				<ele>62.0</ele>
				<time>2014-08-17T16:00:36Z</time>
				<extensions>
					<speed>0.0</speed>
				</extensions>
			</trkpt>
			<trkpt lat="53.26407803" lon="-8.93337613">
				<ele>62.0</ele>
				<time>2014-08-17T16:00:37Z</time>
				<extensions>
					<speed>0.0</speed>
				</extensions>
			</trkpt>
			<trkpt lat="53.26407803" lon="-8.93337612">
				<ele>62.0</ele>
				<time>2014-08-17T16:00:38Z</time>
				<extensions>
					<speed>0.0</speed>
				</extensions>
			</trkpt>
			<trkpt lat="53.26407806" lon="-8.93337611">
				<ele>62.0</ele>
				<time>2014-08-17T16:00:39Z</time>
				<extensions>
					<speed>0.0</speed>
				</extensions>
			</trkpt>
			<trkpt lat="53.26407807" lon="-8.9333761">
				<ele>62.0</ele>
				<time>2014-08-17T16:00:40Z</time>
				<extensions>
					<speed>0.0</speed>
				</extensions>
			</trkpt>
			<trkpt lat="53.264078" lon="-8.93337554">
				<ele>62.0</ele>
				<time>2014-08-17T16:00:41Z</time>
				<extensions>
					<speed>0.25</speed>
				</extensions>
			</trkpt>
			<trkpt lat="53.26407684" lon="-8.93336986">
				<ele>63.0</ele>
				<time>2014-08-17T16:00:42Z</time>
				<extensions>
					<speed>0.0</speed>
				</extensions>
			</trkpt>
			<trkpt lat="53.26407938" lon="-8.93337553">
				<ele>64.0</ele>
				<time>2014-08-17T16:00:43Z</time>
				<extensions>
					<speed>0.0</speed>
				</extensions>
			</trkpt>
			<trkpt lat="53.26408003" lon="-8.93337634">
				<ele>64.0</ele>
				<time>2014-08-17T16:00:44Z</time>
				<extensions>
					<speed>0.75</speed>
				</extensions>
			</trkpt>
			<trkpt lat="53.26409691" lon="-8.93337526">
				<ele>64.0</ele>
				<time>2014-08-17T16:00:45Z</time>
				<extensions>
					<speed>1.25</speed>
				</extensions>
			</trkpt>
			<trkpt lat="53.26410756" lon="-8.9333791">
				<ele>64.0</ele>
				<time>2014-08-17T16:00:46Z</time>
				<extensions>
					<speed>1.25</speed>
				</extensions>
			</trkpt>
			<trkpt lat="53.26412497" lon="-8.93335361">
				<ele>63.0</ele>
				<time>2014-08-17T16:00:47Z</time>
				<extensions>
					<speed>2.0</speed>
				</extensions>
			</trkpt>
			<trkpt lat="53.26413733" lon="-8.93333852">
				<ele>63.0</ele>
				<time>2014-08-17T16:00:48Z</time>
				<extensions>
					<speed>2.25</speed>
				</extensions>
			</trkpt>
			<trkpt lat="53.26415918" lon="-8.93333496">
				<ele>65.0</ele>
				<time>2014-08-17T16:00:49Z</time>
				<extensions>
					<speed>1.25</speed>
				</extensions>
			</trkpt>
			<trkpt lat="53.26415738" lon="-8.9333209">
				<ele>64.0</ele>
				<time>2014-08-17T16:00:50Z</time>
				<extensions>
					<speed>0.75</speed>
				</extensions>
			</trkpt>
			<trkpt lat="53.2641624" lon="-8.93331661">
				<ele>64.0</ele>
				<time>2014-08-17T16:00:51Z</time>
				<extensions>
					<speed>0.75</speed>
				</extensions>
			</trkpt>
			<trkpt lat="53.26416563" lon="-8.93331369">
				<ele>64.0</ele>
				<time>2014-08-17T16:00:52Z</time>
				<extensions>
					<speed>0.0</speed>
				</extensions>
			</trkpt>
			<trkpt lat="53.2641676" lon="-8.93331298">
				<ele>65.0</ele>
				<time>2014-08-17T16:00:53Z</time>
				<extensions>
					<speed>0.0</speed>
				</extensions>
			</trkpt>
			<trkpt lat="53.26416687" lon="-8.93331087">
				<ele>64.0</ele>
				<time>2014-08-17T16:00:54Z</time>
				<extensions>
					<speed>0.0</speed>
				</extensions>
			</trkpt>
			<trkpt lat="53.26416747" lon="-8.93331033">
				<ele>65.0</ele>
				<time>2014-08-17T16:00:55Z</time>
				<extensions>
					<speed>0.0</speed>
				</extensions>
			</trkpt>
			<trkpt lat="53.26416747" lon="-8.93331033">
				<ele>65.0</ele>
				<time>2014-08-17T16:00:56Z</time>
				<extensions>
					<speed>0.0</speed>
				</extensions>
			</trkpt>
			<trkpt lat="53.26416772" lon="-8.93330884">
				<ele>65.0</ele>
				<time>2014-08-17T16:00:57Z</time>
				<extensions>
					<speed>0.0</speed>
				</extensions>
			</trkpt>
			<trkpt lat="53.26416893" lon="-8.93330944">
				<ele>65.0</ele>
				<time>2014-08-17T16:00:58Z</time>
				<extensions>
					<speed>0.0</speed>
				</extensions>
			</trkpt>
			<trkpt lat="53.26417011" lon="-8.93331008">
				<ele>66.0</ele>
				<time>2014-08-17T16:00:59Z</time>
				<extensions>
					<speed>0.0</speed>
				</extensions>
			</trkpt>
			<trkpt lat="53.26416782" lon="-8.93331088">
				<ele>66.0</ele>
				<time>2014-08-17T16:01:00Z</time>
				<extensions>
					<speed>0.0</speed>
				</extensions>
			</trkpt>
			<trkpt lat="53.26416625" lon="-8.93331008">
				<ele>66.0</ele>
				<time>2014-08-17T16:01:01Z</time>
				<extensions>
					<speed>0.0</speed>
				</extensions>
			</trkpt>
			<trkpt lat="53.26416545" lon="-8.9333099">
				<ele>66.0</ele>
				<time>2014-08-17T16:01:02Z</time>
				<extensions>
					<speed>0.0</speed>
				</extensions>
			</trkpt>
			<trkpt lat="53.26416532" lon="-8.93330977">
				<ele>66.0</ele>
				<time>2014-08-17T16:01:03Z</time>
				<extensions>
					<speed>0.0</speed>
				</extensions>
			</trkpt>
			<trkpt lat="53.26416526" lon="-8.9333089">
				<ele>66.0</ele>
				<time>2014-08-17T16:01:04Z</time>
				<extensions>
					<speed>0.0</speed>
				</extensions>
			</trkpt>
			<trkpt lat="53.26416524" lon="-8.93330883">
				<ele>66.0</ele>
				<time>2014-08-17T16:01:05Z</time>
				<extensions>
					<speed>0.0</speed>
				</extensions>
			</trkpt>
			<trkpt lat="53.26416518" lon="-8.93330878">
				<ele>66.0</ele>
				<time>2014-08-17T16:01:06Z</time>
				<extensions>
					<speed>0.0</speed>
				</extensions>
			</trkpt>
			<trkpt lat="53.26416521" lon="-8.93330881">
				<ele>66.0</ele>
				<time>2014-08-17T16:01:07Z</time>
				<extensions>
					<speed>0.0</speed>
				</extensions>
			</trkpt>
			<trkpt lat="53.26416517" lon="-8.9333088">
				<ele>66.0</ele>
				<time>2014-08-17T16:01:08Z</time>
				<extensions>
					<speed>0.0</speed>
				</extensions>
			</trkpt>
			<trkpt lat="53.26416516" lon="-8.93330877">
				<ele>66.0</ele>
				<time>2014-08-17T16:01:09Z</time>
				<extensions>
					<speed>0.0</speed>
				</extensions>
			</trkpt>
			<trkpt lat="53.26416516" lon="-8.93330877">
				<ele>66.0</ele>
				<time>2014-08-17T16:01:10Z</time>
				<extensions>
					<speed>0.0</speed>
				</extensions>
			</trkpt>
			<trkpt lat="53.26416506" lon="-8.93330873">
				<ele>66.0</ele>
				<time>2014-08-17T16:01:11Z</time>
				<extensions>
					<speed>0.0</speed>
				</extensions>
			</trkpt>
			<trkpt lat="53.26416506" lon="-8.93330873">
				<ele>66.0</ele>
				<time>2014-08-17T16:01:12Z</time>
				<extensions>
					<speed>0.0</speed>
				</extensions>
			</trkpt>
			<trkpt lat="53.26416509" lon="-8.93330875">
				<ele>66.0</ele>
				<time>2014-08-17T16:01:13Z</time>
				<extensions>
					<speed>0.0</speed>
				</extensions>
			</trkpt>
			<trkpt lat="53.26416514" lon="-8.9333088">
				<ele>66.0</ele>
				<time>2014-08-17T16:01:14Z</time>
				<extensions>
					<speed>0.0</speed>
				</extensions>
			</trkpt>
			<trkpt lat="53.26416509" lon="-8.93330881">
				<ele>66.0</ele>
				<time>2014-08-17T16:01:15Z</time>
				<extensions>
					<speed>0.0</speed>
				</extensions>
			</trkpt>
			<trkpt lat="53.26416508" lon="-8.9333088">
				<ele>66.0</ele>
				<time>2014-08-17T16:01:16Z</time>
				<extensions>
					<speed>0.0</speed>
				</extensions>
			</trkpt>
			<trkpt lat="53.2641651" lon="-8.9333088">
				<ele>66.0</ele>
				<time>2014-08-17T16:01:17Z</time>
				<extensions>
					<speed>0.0</speed>
				</extensions>
			</trkpt>
			<trkpt lat="53.26416512" lon="-8.93330881">
				<ele>66.0</ele>
				<time>2014-08-17T16:01:18Z</time>
				<extensions>
					<speed>0.0</speed>
				</extensions>
			</trkpt>
			<trkpt lat="53.26416517" lon="-8.93330883">
				<ele>66.0</ele>
				<time>2014-08-17T16:01:19Z</time>
				<extensions>
					<speed>0.0</speed>
				</extensions>
			</trkpt>
			<trkpt lat="53.26416517" lon="-8.93330883">
				<ele>66.0</ele>
				<time>2014-08-17T16:01:20Z</time>
				<extensions>
					<speed>0.0</speed>
				</extensions>
			</trkpt>
			<trkpt lat="53.26416515" lon="-8.93330882">
				<ele>66.0</ele>
				<time>2014-08-17T16:01:21Z</time>
				<extensions>
					<speed>0.0</speed>
				</extensions>
			</trkpt>
			<trkpt lat="53.26416511" lon="-8.93330881">
				<ele>66.0</ele>
				<time>2014-08-17T16:01:22Z</time>
				<extensions>
					<speed>0.0</speed>
				</extensions>
			</trkpt>
			<trkpt lat="53.2641651" lon="-8.93330879">
				<ele>66.0</ele>
				<time>2014-08-17T16:01:23Z</time>
				<extensions>
					<speed>0.0</speed>
				</extensions>
			</trkpt>
			<trkpt lat="53.2641651" lon="-8.93330879">
				<ele>66.0</ele>
				<time>2014-08-17T16:01:24Z</time>
				<extensions>
					<speed>0.0</speed>
				</extensions>
			</trkpt>
			<trkpt lat="53.26416512" lon="-8.93330878">
				<ele>66.0</ele>
				<time>2014-08-17T16:01:25Z</time>
				<extensions>
					<speed>0.0</speed>
				</extensions>
			</trkpt>
			<trkpt lat="53.26416512" lon="-8.93330877">
				<ele>66.0</ele>
				<time>2014-08-17T16:01:26Z</time>
				<extensions>
					<speed>0.0</speed>
				</extensions>
			</trkpt>
			<trkpt lat="53.26416512" lon="-8.93330877">
				<ele>66.0</ele>
				<time>2014-08-17T16:01:27Z</time>
				<extensions>
					<speed>0.0</speed>
				</extensions>
			</trkpt>
			<trkpt lat="53.26416514" lon="-8.93330874">
				<ele>66.0</ele>
				<time>2014-08-17T16:01:28Z</time>
				<extensions>
					<speed>0.0</speed>
				</extensions>
			</trkpt>
			<trkpt lat="53.26416514" lon="-8.93330874">
				<ele>66.0</ele>
				<time>2014-08-17T16:01:29Z</time>
				<extensions>
					<speed>0.0</speed>
				</extensions>
			</trkpt>
			<trkpt lat="53.26416496" lon="-8.93330843">
				<ele>66.0</ele>
				<time>2014-08-17T16:01:30Z</time>
				<extensions>
					<speed>0.0</speed>
				</extensions>
			</trkpt>
			<trkpt lat="53.264165" lon="-8.93330843">
				<ele>66.0</ele>
				<time>2014-08-17T16:01:31Z</time>
				<extensions>
					<speed>0.0</speed>
				</extensions>
			</trkpt>
			<trkpt lat="53.264165" lon="-8.93330843">
				<ele>66.0</ele>
				<time>2014-08-17T16:01:32Z</time>
				<extensions>
					<speed>0.0</speed>
				</extensions>
			</trkpt>
			<trkpt lat="53.26416533" lon="-8.93330884">
				<ele>66.0</ele>
				<time>2014-08-17T16:01:33Z</time>
				<extensions>
					<speed>0.0</speed>
				</extensions>
			</trkpt>
			<trkpt lat="53.2641658" lon="-8.93330948">
				<ele>66.0</ele>
				<time>2014-08-17T16:01:34Z</time>
				<extensions>
					<speed>0.0</speed>
				</extensions>
			</trkpt>
			<trkpt lat="53.2641662" lon="-8.93330996">
				<ele>66.0</ele>
				<time>2014-08-17T16:01:35Z</time>
				<extensions>
					<speed>0.0</speed>
				</extensions>
			</trkpt>
			<trkpt lat="53.26416652" lon="-8.93331033">
				<ele>66.0</ele>
				<time>2014-08-17T16:01:36Z</time>
				<extensions>
					<speed>0.0</speed>
				</extensions>
			</trkpt>
			<trkpt lat="53.26416665" lon="-8.93331051">
				<ele>66.0</ele>
				<time>2014-08-17T16:01:37Z</time>
				<extensions>
					<speed>0.0</speed>
				</extensions>
			</trkpt>
			<trkpt lat="53.26416781" lon="-8.93330968">
				<ele>66.0</ele>
				<time>2014-08-17T16:01:38Z</time>
				<extensions>
					<speed>1.0</speed>
				</extensions>
			</trkpt>
			<trkpt lat="53.26417635" lon="-8.93330354">
				<ele>66.0</ele>
				<time>2014-08-17T16:01:39Z</time>
				<extensions>
					<speed>1.0</speed>
				</extensions>
			</trkpt>
			<trkpt lat="53.26419563" lon="-8.93330186">
				<ele>65.0</ele>
				<time>2014-08-17T16:01:40Z</time>
				<extensions>
					<speed>1.0</speed>
				</extensions>
			</trkpt>
			<trkpt lat="53.26420882" lon="-8.93331636">
				<ele>64.0</ele>
				<time>2014-08-17T16:01:41Z</time>
				<extensions>
					<speed>1.75</speed>
				</extensions>
			</trkpt>
			<trkpt lat="53.26422131" lon="-8.93332975">
				<ele>64.0</ele>
				<time>2014-08-17T16:01:42Z</time>
				<extensions>
					<speed>1.75</speed>
				</extensions>
			</trkpt>
			<trkpt lat="53.26424028" lon="-8.93334011">
				<ele>65.0</ele>
				<time>2014-08-17T16:01:43Z</time>
				<extensions>
					<speed>2.0</speed>
				</extensions>
			</trkpt>
			<trkpt lat="53.26425876" lon="-8.93335578">
				<ele>67.0</ele>
				<time>2014-08-17T16:01:44Z</time>
				<extensions>
					<speed>2.25</speed>
				</extensions>
			</trkpt>
			<trkpt lat="53.26427243" lon="-8.93338746">
				<ele>66.0</ele>
				<time>2014-08-17T16:01:45Z</time>
				<extensions>
					<speed>2.25</speed>
				</extensions>
			</trkpt>
			<trkpt lat="53.26428068" lon="-8.93342318">
				<ele>66.0</ele>
				<time>2014-08-17T16:01:46Z</time>
				<extensions>
					<speed>3.0</speed>
				</extensions>
			</trkpt>
			<trkpt lat="53.26429319" lon="-8.9334621">
				<ele>67.0</ele>
				<time>2014-08-17T16:01:47Z</time>
				<extensions>
					<speed>3.0</speed>
				</extensions>
			</trkpt>
			<trkpt lat="53.26431039" lon="-8.93350016">
				<ele>66.0</ele>
				<time>2014-08-17T16:01:48Z</time>
				<extensions>
					<speed>2.75</speed>
				</extensions>
			</trkpt>
			<trkpt lat="53.2643206" lon="-8.93354092">
				<ele>66.0</ele>
				<time>2014-08-17T16:01:49Z</time>
				<extensions>
					<speed>2.75</speed>
				</extensions>
			</trkpt>
			<trkpt lat="53.26433173" lon="-8.9335761">
				<ele>66.0</ele>
				<time>2014-08-17T16:01:50Z</time>
				<extensions>
					<speed>2.5</speed>
				</extensions>
			</trkpt>
			<trkpt lat="53.26434317" lon="-8.93360243">
				<ele>66.0</ele>
				<time>2014-08-17T16:01:51Z</time>
				<extensions>
					<speed>2.25</speed>
				</extensions>
			</trkpt>
			<trkpt lat="53.26435856" lon="-8.93363191">
				<ele>66.0</ele>
				<time>2014-08-17T16:01:52Z</time>
				<extensions>
					<speed>2.0</speed>
				</extensions>
			</trkpt>
			<trkpt lat="53.26436733" lon="-8.93365933">
				<ele>65.0</ele>
				<time>2014-08-17T16:01:53Z</time>
				<extensions>
					<speed>1.75</speed>
				</extensions>
			</trkpt>
			<trkpt lat="53.26437282" lon="-8.93367883">
				<ele>66.0</ele>
				<time>2014-08-17T16:01:54Z</time>
				<extensions>
					<speed>1.0</speed>
				</extensions>
			</trkpt>
			<trkpt lat="53.26437808" lon="-8.93369149">
				<ele>66.0</ele>
				<time>2014-08-17T16:01:55Z</time>
				<extensions>
					<speed>1.0</speed>
				</extensions>
			</trkpt>
			<trkpt lat="53.26437649" lon="-8.93368776">
				<ele>66.0</ele>
				<time>2014-08-17T16:01:56Z</time>
				<extensions>
					<speed>0.5</speed>
				</extensions>
			</trkpt>
			<trkpt lat="53.26437831" lon="-8.93369254">
				<ele>66.0</ele>
				<time>2014-08-17T16:01:57Z</time>
				<extensions>
					<speed>0.5</speed>
				</extensions>
			</trkpt>
			<trkpt lat="53.26439168" lon="-8.93368243">
				<ele>66.0</ele>
				<time>2014-08-17T16:01:58Z</time>
				<extensions>
					<speed>0.0</speed>
				</extensions>
			</trkpt>
			<trkpt lat="53.26439374" lon="-8.93367592">
				<ele>66.0</ele>
				<time>2014-08-17T16:01:59Z</time>
				<extensions>
					<speed>0.0</speed>
				</extensions>
			</trkpt>
			<trkpt lat="53.26439653" lon="-8.93366858">
				<ele>66.0</ele>
				<time>2014-08-17T16:02:00Z</time>
				<extensions>
					<speed>0.0</speed>
				</extensions>
			</trkpt>
			<trkpt lat="53.26439891" lon="-8.93366357">
				<ele>66.0</ele>
				<time>2014-08-17T16:02:01Z</time>
				<extensions>
					<speed>0.0</speed>
				</extensions>
			</trkpt>
			<trkpt lat="53.2643999" lon="-8.93365952">
				<ele>66.0</ele>
				<time>2014-08-17T16:02:02Z</time>
				<extensions>
					<speed>0.0</speed>
				</extensions>
			</trkpt>
			<trkpt lat="53.26439708" lon="-8.93365996">
				<ele>66.0</ele>
				<time>2014-08-17T16:02:03Z</time>
				<extensions>
					<speed>0.0</speed>
				</extensions>
			</trkpt>
			<trkpt lat="53.26439445" lon="-8.93366013">
				<ele>66.0</ele>
				<time>2014-08-17T16:02:04Z</time>
				<extensions>
					<speed>0.0</speed>
				</extensions>
			</trkpt>
			<trkpt lat="53.26439222" lon="-8.93365842">
				<ele>66.0</ele>
				<time>2014-08-17T16:02:05Z</time>
				<extensions>
					<speed>0.0</speed>
				</extensions>
			</trkpt>
			<trkpt lat="53.26439222" lon="-8.93365842">
				<ele>66.0</ele>
				<time>2014-08-17T16:02:06Z</time>
				<extensions>
					<speed>0.0</speed>
				</extensions>
			</trkpt>
			<trkpt lat="53.26439127" lon="-8.93365578">
				<ele>66.0</ele>
				<time>2014-08-17T16:02:07Z</time>
				<extensions>
					<speed>0.75</speed>
				</extensions>
			</trkpt>
			<trkpt lat="53.26438827" lon="-8.93364316">
				<ele>65.0</ele>
				<time>2014-08-17T16:02:08Z</time>
				<extensions>
					<speed>1.0</speed>
				</extensions>
			</trkpt>
			<trkpt lat="53.26437754" lon="-8.93364025">
				<ele>65.0</ele>
				<time>2014-08-17T16:02:09Z</time>
				<extensions>
					<speed>1.0</speed>
				</extensions>
			</trkpt>
			<trkpt lat="53.26436973" lon="-8.93362839">
				<ele>65.0</ele>
				<time>2014-08-17T16:02:10Z</time>
				<extensions>
					<speed>1.25</speed>
				</extensions>
			</trkpt>
			<trkpt lat="53.26436079" lon="-8.93361049">
				<ele>65.0</ele>
				<time>2014-08-17T16:02:11Z</time>
				<extensions>
					<speed>1.25</speed>
				</extensions>
			</trkpt>
			<trkpt lat="53.26434981" lon="-8.93359555">
				<ele>65.0</ele>
				<time>2014-08-17T16:02:12Z</time>
				<extensions>
					<speed>1.5</speed>
				</extensions>
			</trkpt>
			<trkpt lat="53.26434194" lon="-8.93358104">
				<ele>65.0</ele>
				<time>2014-08-17T16:02:13Z</time>
				<extensions>
					<speed>1.25</speed>
				</extensions>
			</trkpt>
			<trkpt lat="53.26433363" lon="-8.93356945">
				<ele>65.0</ele>
				<time>2014-08-17T16:02:14Z</time>
				<extensions>
					<speed>1.5</speed>
				</extensions>
			</trkpt>
			<trkpt lat="53.26432701" lon="-8.93355897">
				<ele>66.0</ele>
				<time>2014-08-17T16:02:15Z</time>
				<extensions>
					<speed>1.0</speed>
				</extensions>
			</trkpt>
			<trkpt lat="53.26431968" lon="-8.93355187">
				<ele>66.0</ele>
				<time>2014-08-17T16:02:16Z</time>
				<extensions>
					<speed>1.25</speed>
				</extensions>
			</trkpt>
			<trkpt lat="53.26431312" lon="-8.93353715">
				<ele>66.0</ele>
				<time>2014-08-17T16:02:17Z</time>
				<extensions>
					<speed>1.25</speed>
				</extensions>
			</trkpt>
			<trkpt lat="53.26430648" lon="-8.93352252">
				<ele>65.0</ele>
				<time>2014-08-17T16:02:18Z</time>
				<extensions>
					<speed>1.25</speed>
				</extensions>
			</trkpt>
			<trkpt lat="53.26429942" lon="-8.93350241">
				<ele>65.0</ele>
				<time>2014-08-17T16:02:19Z</time>
				<extensions>
					<speed>1.25</speed>
				</extensions>
			</trkpt>
			<trkpt lat="53.26432132" lon="-8.93347894">
				<ele>68.0</ele>
				<time>2014-08-17T16:02:20Z</time>
				<extensions>
					<speed>1.5</speed>
				</extensions>
			</trkpt>
			<trkpt lat="53.26430841" lon="-8.93345555">
				<ele>67.0</ele>
				<time>2014-08-17T16:02:21Z</time>
				<extensions>
					<speed>1.5</speed>
				</extensions>
			</trkpt>
			<trkpt lat="53.26430384" lon="-8.93343437">
				<ele>68.0</ele>
				<time>2014-08-17T16:02:22Z</time>
				<extensions>
					<speed>1.5</speed>
				</extensions>
			</trkpt>
			<trkpt lat="53.26429945" lon="-8.93341521">
				<ele>68.0</ele>
				<time>2014-08-17T16:02:23Z</time>
				<extensions>
					<speed>1.5</speed>
				</extensions>
			</trkpt>
			<trkpt lat="53.26429341" lon="-8.9333986">
				<ele>68.0</ele>
				<time>2014-08-17T16:02:24Z</time>
				<extensions>
					<speed>1.25</speed>
				</extensions>
			</trkpt>
			<trkpt lat="53.26429436" lon="-8.93338394">
				<ele>68.0</ele>
				<time>2014-08-17T16:02:25Z</time>
				<extensions>
					<speed>1.25</speed>
				</extensions>
			</trkpt>
			<trkpt lat="53.26428881" lon="-8.9333671">
				<ele>67.0</ele>
				<time>2014-08-17T16:02:26Z</time>
				<extensions>
					<speed>1.5</speed>
				</extensions>
			</trkpt>
			<trkpt lat="53.26428572" lon="-8.93335285">
				<ele>67.0</ele>
				<time>2014-08-17T16:02:27Z</time>
				<extensions>
					<speed>1.25</speed>
				</extensions>
			</trkpt>
			<trkpt lat="53.26428522" lon="-8.93334073">
				<ele>67.0</ele>
				<time>2014-08-17T16:02:28Z</time>
				<extensions>
					<speed>0.5</speed>
				</extensions>
			</trkpt>
			<trkpt lat="53.26429013" lon="-8.93333941">
				<ele>67.0</ele>
				<time>2014-08-17T16:02:29Z</time>
				<extensions>
					<speed>0.0</speed>
				</extensions>
			</trkpt>
			<trkpt lat="53.26429174" lon="-8.93334066">
				<ele>67.0</ele>
				<time>2014-08-17T16:02:30Z</time>
				<extensions>
					<speed>0.0</speed>
				</extensions>
			</trkpt>
			<trkpt lat="53.26429496" lon="-8.93334252">
				<ele>67.0</ele>
				<time>2014-08-17T16:02:31Z</time>
				<extensions>
					<speed>0.0</speed>
				</extensions>
			</trkpt>
			<trkpt lat="53.26429341" lon="-8.93334248">
				<ele>67.0</ele>
				<time>2014-08-17T16:02:32Z</time>
				<extensions>
					<speed>0.0</speed>
				</extensions>
			</trkpt>
			<trkpt lat="53.2642918" lon="-8.93334042">
				<ele>67.0</ele>
				<time>2014-08-17T16:02:33Z</time>
				<extensions>
					<speed>0.0</speed>
				</extensions>
			</trkpt>
			<trkpt lat="53.26429264" lon="-8.93333806">
				<ele>67.0</ele>
				<time>2014-08-17T16:02:34Z</time>
				<extensions>
					<speed>0.0</speed>
				</extensions>
			</trkpt>
			<trkpt lat="53.26428775" lon="-8.93333996">
				<ele>67.0</ele>
				<time>2014-08-17T16:02:35Z</time>
				<extensions>
					<speed>0.0</speed>
				</extensions>
			</trkpt>
			<trkpt lat="53.26428851" lon="-8.93334027">
				<ele>67.0</ele>
				<time>2014-08-17T16:02:36Z</time>
				<extensions>
					<speed>0.0</speed>
				</extensions>
			</trkpt>
			<trkpt lat="53.26428732" lon="-8.93334067">
				<ele>67.0</ele>
				<time>2014-08-17T16:02:37Z</time>
				<extensions>
					<speed>1.0</speed>
				</extensions>
			</trkpt>
			<trkpt lat="53.26427796" lon="-8.93334383">
				<ele>67.0</ele>
				<time>2014-08-17T16:02:38Z</time>
				<extensions>
					<speed>1.0</speed>
				</extensions>
			</trkpt>
			<trkpt lat="53.26426248" lon="-8.93332842">
				<ele>67.0</ele>
				<time>2014-08-17T16:02:39Z</time>
				<extensions>
					<speed>1.0</speed>
				</extensions>
			</trkpt>
			<trkpt lat="53.26424964" lon="-8.93330467">
				<ele>67.0</ele>
				<time>2014-08-17T16:02:40Z</time>
				<extensions>
					<speed>1.75</speed>
				</extensions>
			</trkpt>
			<trkpt lat="53.26422743" lon="-8.93327797">
				<ele>65.0</ele>
				<time>2014-08-17T16:02:41Z</time>
				<extensions>
					<speed>2.5</speed>
				</extensions>
			</trkpt>
			<trkpt lat="53.26421017" lon="-8.93322612">
				<ele>65.0</ele>
				<time>2014-08-17T16:02:42Z</time>
				<extensions>
					<speed>3.75</speed>
				</extensions>
			</trkpt>
			<trkpt lat="53.26418682" lon="-8.933174">
				<ele>64.0</ele>
				<time>2014-08-17T16:02:43Z</time>
				<extensions>
					<speed>3.75</speed>
				</extensions>
			</trkpt>
			<trkpt lat="53.26417093" lon="-8.93311485">
				<ele>65.0</ele>
				<time>2014-08-17T16:02:44Z</time>
				<extensions>
					<speed>3.5</speed>
				</extensions>
			</trkpt>
			<trkpt lat="53.2641617" lon="-8.93306568">
				<ele>65.0</ele>
				<time>2014-08-17T16:02:45Z</time>
				<extensions>
					<speed>3.25</speed>
				</extensions>
			</trkpt>
			<trkpt lat="53.26414914" lon="-8.9330242">
				<ele>65.0</ele>
				<time>2014-08-17T16:02:46Z</time>
				<extensions>
					<speed>3.0</speed>
				</extensions>
			</trkpt>
			<trkpt lat="53.2641417" lon="-8.93297835">
				<ele>65.0</ele>
				<time>2014-08-17T16:02:47Z</time>
				<extensions>
					<speed>2.5</speed>
				</extensions>
			</trkpt>
			<trkpt lat="53.26413144" lon="-8.93294885">
				<ele>64.0</ele>
				<time>2014-08-17T16:02:48Z</time>
				<extensions>
					<speed>1.75</speed>
				</extensions>
			</trkpt>
			<trkpt lat="53.26412641" lon="-8.93293177">
				<ele>65.0</ele>
				<time>2014-08-17T16:02:49Z</time>
				<extensions>
					<speed>0.75</speed>
				</extensions>
			</trkpt>
			<trkpt lat="53.26412363" lon="-8.93292243">
				<ele>64.0</ele>
				<time>2014-08-17T16:02:50Z</time>
				<extensions>
					<speed>0.75</speed>
				</extensions>
			</trkpt>
			<trkpt lat="53.26412085" lon="-8.93291309">
				<ele>64.0</ele>
				<time>2014-08-17T16:02:51Z</time>
				<extensions>
					<speed>0.75</speed>
				</extensions>
			</trkpt>
			<trkpt lat="53.26411982" lon="-8.93292104">
				<ele>65.0</ele>
				<time>2014-08-17T16:02:52Z</time>
				<extensions>
					<speed>0.0</speed>
				</extensions>
			</trkpt>
			<trkpt lat="53.26411996" lon="-8.93292733">
				<ele>65.0</ele>
				<time>2014-08-17T16:02:53Z</time>
				<extensions>
					<speed>0.0</speed>
				</extensions>
			</trkpt>
			<trkpt lat="53.26411831" lon="-8.93293087">
				<ele>64.0</ele>
				<time>2014-08-17T16:02:54Z</time>
				<extensions>
					<speed>0.0</speed>
				</extensions>
			</trkpt>
			<trkpt lat="53.26411809" lon="-8.93293151">
				<ele>64.0</ele>
				<time>2014-08-17T16:02:55Z</time>
				<extensions>
					<speed>0.25</speed>
				</extensions>
			</trkpt>
			<trkpt lat="53.26411567" lon="-8.93294474">
				<ele>64.0</ele>
				<time>2014-08-17T16:02:56Z</time>
				<extensions>
					<speed>0.0</speed>
				</extensions>
			</trkpt>
			<trkpt lat="53.26411774" lon="-8.9329426">
				<ele>64.0</ele>
				<time>2014-08-17T16:02:57Z</time>
				<extensions>
					<speed>0.0</speed>
				</extensions>
			</trkpt>
			<trkpt lat="53.26411774" lon="-8.9329426">
				<ele>64.0</ele>
				<time>2014-08-17T16:02:58Z</time>
				<extensions>
					<speed>0.0</speed>
				</extensions>
			</trkpt>
			<trkpt lat="53.26411703" lon="-8.93294358">
				<ele>65.0</ele>
				<time>2014-08-17T16:02:59Z</time>
				<extensions>
					<speed>0.0</speed>
				</extensions>
			</trkpt>
			<trkpt lat="53.26411703" lon="-8.93294358">
				<ele>65.0</ele>
				<time>2014-08-17T16:03:00Z</time>
				<extensions>
					<speed>0.0</speed>
				</extensions>
			</trkpt>
			<trkpt lat="53.26411712" lon="-8.93294561">
				<ele>64.0</ele>
				<time>2014-08-17T16:03:01Z</time>
				<extensions>
					<speed>0.0</speed>
				</extensions>
			</trkpt>
			<trkpt lat="53.26411516" lon="-8.93294628">
				<ele>65.0</ele>
				<time>2014-08-17T16:03:02Z</time>
				<extensions>
					<speed>0.0</speed>
				</extensions>
			</trkpt>
			<trkpt lat="53.26411493" lon="-8.93294715">
				<ele>65.0</ele>
				<time>2014-08-17T16:03:03Z</time>
				<extensions>
					<speed>0.0</speed>
				</extensions>
			</trkpt>
			<trkpt lat="53.26411545" lon="-8.93294681">
				<ele>65.0</ele>
				<time>2014-08-17T16:03:04Z</time>
				<extensions>
					<speed>0.0</speed>
				</extensions>
			</trkpt>
			<trkpt lat="53.26411545" lon="-8.93294978">
				<ele>65.0</ele>
				<time>2014-08-17T16:03:05Z</time>
				<extensions>
					<speed>0.0</speed>
				</extensions>
			</trkpt>
			<trkpt lat="53.26411526" lon="-8.93294983">
				<ele>65.0</ele>
				<time>2014-08-17T16:03:06Z</time>
				<extensions>
					<speed>0.0</speed>
				</extensions>
			</trkpt>
			<trkpt lat="53.26412118" lon="-8.93294651">
				<ele>65.0</ele>
				<time>2014-08-17T16:03:07Z</time>
				<extensions>
					<speed>0.0</speed>
				</extensions>
			</trkpt>
			<trkpt lat="53.26412052" lon="-8.93295583">
				<ele>65.0</ele>
				<time>2014-08-17T16:03:08Z</time>
				<extensions>
					<speed>0.0</speed>
				</extensions>
			</trkpt>
			<trkpt lat="53.26411622" lon="-8.93295919">
				<ele>65.0</ele>
				<time>2014-08-17T16:03:09Z</time>
				<extensions>
					<speed>0.0</speed>
				</extensions>
			</trkpt>
			<trkpt lat="53.26411467" lon="-8.93297057">
				<ele>65.0</ele>
				<time>2014-08-17T16:03:10Z</time>
				<extensions>
					<speed>0.0</speed>
				</extensions>
			</trkpt>
			<trkpt lat="53.26411011" lon="-8.9329678">
				<ele>65.0</ele>
				<time>2014-08-17T16:03:11Z</time>
				<extensions>
					<speed>0.0</speed>
				</extensions>
			</trkpt>
			<trkpt lat="53.2641142" lon="-8.93296919">
				<ele>64.0</ele>
				<time>2014-08-17T16:03:12Z</time>
				<extensions>
					<speed>0.0</speed>
				</extensions>
			</trkpt>
			<trkpt lat="53.26411419" lon="-8.93296732">
				<ele>64.0</ele>
				<time>2014-08-17T16:03:13Z</time>
				<extensions>
					<speed>1.0</speed>
				</extensions>
			</trkpt>
			<trkpt lat="53.26411329" lon="-8.93294595">
				<ele>65.0</ele>
				<time>2014-08-17T16:03:14Z</time>
				<extensions>
					<speed>1.5</speed>
				</extensions>
			</trkpt>
			<trkpt lat="53.26412497" lon="-8.93291021">
				<ele>64.0</ele>
				<time>2014-08-17T16:03:15Z</time>
				<extensions>
					<speed>2.5</speed>
				</extensions>
			</trkpt>
			<trkpt lat="53.26413847" lon="-8.93287073">
				<ele>64.0</ele>
				<time>2014-08-17T16:03:16Z</time>
				<extensions>
					<speed>3.0</speed>
				</extensions>
			</trkpt>
			<trkpt lat="53.26416178" lon="-8.93283483">
				<ele>64.0</ele>
				<time>2014-08-17T16:03:17Z</time>
				<extensions>
					<speed>3.25</speed>
				</extensions>
			</trkpt>
			<trkpt lat="53.26418437" lon="-8.93280801">
				<ele>64.0</ele>
				<time>2014-08-17T16:03:18Z</time>
				<extensions>
					<speed>3.0</speed>
				</extensions>
			</trkpt>
			<trkpt lat="53.26420823" lon="-8.93279295">
				<ele>63.0</ele>
				<time>2014-08-17T16:03:19Z</time>
				<extensions>
					<speed>2.75</speed>
				</extensions>
			</trkpt>
			<trkpt lat="53.2642205" lon="-8.93274658">
				<ele>64.0</ele>
				<time>2014-08-17T16:03:20Z</time>
				<extensions>
					<speed>2.75</speed>
				</extensions>
			</trkpt>
			<trkpt lat="53.26423844" lon="-8.93272309">
				<ele>64.0</ele>
				<time>2014-08-17T16:03:21Z</time>
				<extensions>
					<speed>2.75</speed>
				</extensions>
			</trkpt>
			<trkpt lat="53.26426031" lon="-8.932692">
				<ele>65.0</ele>
				<time>2014-08-17T16:03:22Z</time>
				<extensions>
					<speed>2.5</speed>
				</extensions>
			</trkpt>
			<trkpt lat="53.26428606" lon="-8.93267898">
				<ele>64.0</ele>
				<time>2014-08-17T16:03:23Z</time>
				<extensions>
					<speed>2.5</speed>
				</extensions>
			</trkpt>
			<trkpt lat="53.26430859" lon="-8.93266664">
				<ele>64.0</ele>
				<time>2014-08-17T16:03:24Z</time>
				<extensions>
					<speed>2.5</speed>
				</extensions>
			</trkpt>
			<trkpt lat="53.26432619" lon="-8.93266335">
				<ele>64.0</ele>
				<time>2014-08-17T16:03:25Z</time>
				<extensions>
					<speed>2.25</speed>
				</extensions>
			</trkpt>
			<trkpt lat="53.26434496" lon="-8.9326857">
				<ele>64.0</ele>
				<time>2014-08-17T16:03:26Z</time>
				<extensions>
					<speed>2.25</speed>
				</extensions>
			</trkpt>
			<trkpt lat="53.26435617" lon="-8.93270783">
				<ele>63.0</ele>
				<time>2014-08-17T16:03:27Z</time>
				<extensions>
					<speed>2.0</speed>
				</extensions>
			</trkpt>
			<trkpt lat="53.2643627" lon="-8.93272967">
				<ele>63.0</ele>
				<time>2014-08-17T16:03:28Z</time>
				<extensions>
					<speed>1.5</speed>
				</extensions>
			</trkpt>
			<trkpt lat="53.26437067" lon="-8.93274149">
				<ele>64.0</ele>
				<time>2014-08-17T16:03:29Z</time>
				<extensions>
					<speed>1.0</speed>
				</extensions>
			</trkpt>
			<trkpt lat="53.26437194" lon="-8.9327512">
				<ele>64.0</ele>
				<time>2014-08-17T16:03:30Z</time>
				<extensions>
					<speed>0.75</speed>
				</extensions>
			</trkpt>
			<trkpt lat="53.26438468" lon="-8.93275725">
				<ele>64.0</ele>
				<time>2014-08-17T16:03:31Z</time>
				<extensions>
					<speed>0.0</speed>
				</extensions>
			</trkpt>
			<trkpt lat="53.26439036" lon="-8.93276029">
				<ele>64.0</ele>
				<time>2014-08-17T16:03:32Z</time>
				<extensions>
					<speed>0.0</speed>
				</extensions>
			</trkpt>
			<trkpt lat="53.26439342" lon="-8.93276239">
				<ele>64.0</ele>
				<time>2014-08-17T16:03:33Z</time>
				<extensions>
					<speed>0.0</speed>
				</extensions>
			</trkpt>
			<trkpt lat="53.26439446" lon="-8.93276472">
				<ele>64.0</ele>
				<time>2014-08-17T16:03:34Z</time>
				<extensions>
					<speed>1.5</speed>
				</extensions>
			</trkpt>
			<trkpt lat="53.26441136" lon="-8.93278991">
				<ele>64.0</ele>
				<time>2014-08-17T16:03:35Z</time>
				<extensions>
					<speed>2.75</speed>
				</extensions>
			</trkpt>
			<trkpt lat="53.26443241" lon="-8.93282643">
				<ele>64.0</ele>
				<time>2014-08-17T16:03:36Z</time>
				<extensions>
					<speed>3.75</speed>
				</extensions>
			</trkpt>
			<trkpt lat="53.26445765" lon="-8.93287064">
				<ele>64.0</ele>
				<time>2014-08-17T16:03:37Z</time>
				<extensions>
					<speed>4.25</speed>
				</extensions>
			</trkpt>
			<trkpt lat="53.26448504" lon="-8.9329177">
				<ele>64.0</ele>
				<time>2014-08-17T16:03:38Z</time>
				<extensions>
					<speed>4.5</speed>
				</extensions>
			</trkpt>
			<trkpt lat="53.26450517" lon="-8.93296674">
				<ele>63.0</ele>
				<time>2014-08-17T16:03:39Z</time>
				<extensions>
					<speed>4.25</speed>
				</extensions>
			</trkpt>
			<trkpt lat="53.26452729" lon="-8.93301551">
				<ele>63.0</ele>
				<time>2014-08-17T16:03:40Z</time>
				<extensions>
					<speed>4.0</speed>
				</extensions>
			</trkpt>
			<trkpt lat="53.26454522" lon="-8.93307009">
				<ele>63.0</ele>
				<time>2014-08-17T16:03:41Z</time>
				<extensions>
					<speed>3.75</speed>
				</extensions>
			</trkpt>
			<trkpt lat="53.26456134" lon="-8.93312167">
				<ele>63.0</ele>
				<time>2014-08-17T16:03:42Z</time>
				<extensions>
					<speed>3.75</speed>
				</extensions>
			</trkpt>
			<trkpt lat="53.26457759" lon="-8.93316945">
				<ele>63.0</ele>
				<time>2014-08-17T16:03:43Z</time>
				<extensions>
					<speed>3.25</speed>
				</extensions>
			</trkpt>
			<trkpt lat="53.26458863" lon="-8.93322085">
				<ele>63.0</ele>
				<time>2014-08-17T16:03:44Z</time>
				<extensions>
					<speed>3.25</speed>
				</extensions>
			</trkpt>
			<trkpt lat="53.26458412" lon="-8.93326463">
				<ele>64.0</ele>
				<time>2014-08-17T16:03:45Z</time>
				<extensions>
					<speed>2.75</speed>
				</extensions>
			</trkpt>
			<trkpt lat="53.26457148" lon="-8.93329035">
				<ele>64.0</ele>
				<time>2014-08-17T16:03:46Z</time>
				<extensions>
					<speed>1.75</speed>
				</extensions>
			</trkpt>
			<trkpt lat="53.26456443" lon="-8.93330459">
				<ele>64.0</ele>
				<time>2014-08-17T16:03:47Z</time>
				<extensions>
					<speed>1.0</speed>
				</extensions>
			</trkpt>
			<trkpt lat="53.26455977" lon="-8.93331065">
				<ele>64.0</ele>
				<time>2014-08-17T16:03:48Z</time>
				<extensions>
					<speed>0.75</speed>
				</extensions>
			</trkpt>
			<trkpt lat="53.26456014" lon="-8.93332168">
				<ele>64.0</ele>
				<time>2014-08-17T16:03:49Z</time>
				<extensions>
					<speed>0.0</speed>
				</extensions>
			</trkpt>
			<trkpt lat="53.26455941" lon="-8.93332511">
				<ele>64.0</ele>
				<time>2014-08-17T16:03:50Z</time>
				<extensions>
					<speed>0.0</speed>
				</extensions>
			</trkpt>
			<trkpt lat="53.26455941" lon="-8.93332511">
				<ele>64.0</ele>
				<time>2014-08-17T16:03:51Z</time>
				<extensions>
					<speed>0.0</speed>
				</extensions>
			</trkpt>
			<trkpt lat="53.26455795" lon="-8.93332776">
				<ele>64.0</ele>
				<time>2014-08-17T16:03:52Z</time>
				<extensions>
					<speed>0.0</speed>
				</extensions>
			</trkpt>
			<trkpt lat="53.26455409" lon="-8.93333412">
				<ele>64.0</ele>
				<time>2014-08-17T16:03:53Z</time>
				<extensions>
					<speed>0.0</speed>
				</extensions>
			</trkpt>
			<trkpt lat="53.26455456" lon="-8.93333624">
				<ele>64.0</ele>
				<time>2014-08-17T16:03:54Z</time>
				<extensions>
					<speed>0.0</speed>
				</extensions>
			</trkpt>
			<trkpt lat="53.26455491" lon="-8.93333741">
				<ele>64.0</ele>
				<time>2014-08-17T16:03:55Z</time>
				<extensions>
					<speed>0.0</speed>
				</extensions>
			</trkpt>
			<trkpt lat="53.26455368" lon="-8.93333819">
				<ele>64.0</ele>
				<time>2014-08-17T16:03:56Z</time>
				<extensions>
					<speed>0.0</speed>
				</extensions>
			</trkpt>
			<trkpt lat="53.2645548" lon="-8.93333475">
				<ele>64.0</ele>
				<time>2014-08-17T16:03:57Z</time>
				<extensions>
					<speed>0.0</speed>
				</extensions>
			</trkpt>
			<trkpt lat="53.26455481" lon="-8.93333764">
				<ele>64.0</ele>
				<time>2014-08-17T16:03:58Z</time>
				<extensions>
					<speed>0.0</speed>
				</extensions>
			</trkpt>
			<trkpt lat="53.26455552" lon="-8.93333768">
				<ele>64.0</ele>
				<time>2014-08-17T16:03:59Z</time>
				<extensions>
					<speed>0.0</speed>
				</extensions>
			</trkpt>
			<trkpt lat="53.26455528" lon="-8.93333804">
				<ele>64.0</ele>
				<time>2014-08-17T16:04:00Z</time>
				<extensions>
					<speed>0.0</speed>
				</extensions>
			</trkpt>
			<trkpt lat="53.26455512" lon="-8.93333791">
				<ele>64.0</ele>
				<time>2014-08-17T16:04:01Z</time>
				<extensions>
					<speed>0.0</speed>
				</extensions>
			</trkpt>
			<trkpt lat="53.26455512" lon="-8.93333791">
				<ele>64.0</ele>
				<time>2014-08-17T16:04:02Z</time>
				<extensions>
					<speed>0.0</speed>
				</extensions>
			</trkpt>
			<trkpt lat="53.26455504" lon="-8.93333795">
				<ele>64.0</ele>
				<time>2014-08-17T16:04:03Z</time>
				<extensions>
					<speed>0.0</speed>
				</extensions>
			</trkpt>
			<trkpt lat="53.26455504" lon="-8.93333795">
				<ele>64.0</ele>
				<time>2014-08-17T16:04:04Z</time>
				<extensions>
					<speed>0.0</speed>
				</extensions>
			</trkpt>
			<trkpt lat="53.26455503" lon="-8.93333796">
				<ele>64.0</ele>
				<time>2014-08-17T16:04:05Z</time>
				<extensions>
					<speed>0.0</speed>
				</extensions>
			</trkpt>
			<trkpt lat="53.26455503" lon="-8.93333796">
				<ele>64.0</ele>
				<time>2014-08-17T16:04:06Z</time>
				<extensions>
					<speed>0.0</speed>
				</extensions>
			</trkpt>
			<trkpt lat="53.26455503" lon="-8.93333796">
				<ele>64.0</ele>
				<time>2014-08-17T16:04:07Z</time>
				<extensions>
					<speed>0.0</speed>
				</extensions>
			</trkpt>
			<trkpt lat="53.26455687" lon="-8.93333783">
				<ele>64.0</ele>
				<time>2014-08-17T16:04:08Z</time>
				<extensions>
					<speed>0.0</speed>
				</extensions>
			</trkpt>
			<trkpt lat="53.26455811" lon="-8.93333701">
				<ele>64.0</ele>
				<time>2014-08-17T16:04:09Z</time>
				<extensions>
					<speed>0.0</speed>
				</extensions>
			</trkpt>
			<trkpt lat="53.26455773" lon="-8.93333558">
				<ele>64.0</ele>
				<time>2014-08-17T16:04:10Z</time>
				<extensions>
					<speed>0.0</speed>
				</extensions>
			</trkpt>
			<trkpt lat="53.26455753" lon="-8.9333341">
				<ele>64.0</ele>
				<time>2014-08-17T16:04:11Z</time>
				<extensions>
					<speed>0.0</speed>
				</extensions>
			</trkpt>
			<trkpt lat="53.26455774" lon="-8.93333364">
				<ele>64.0</ele>
				<time>2014-08-17T16:04:12Z</time>
				<extensions>
					<speed>0.0</speed>
				</extensions>
			</trkpt>
			<trkpt lat="53.26455909" lon="-8.93333385">
				<ele>65.0</ele>
				<time>2014-08-17T16:04:13Z</time>
				<extensions>
					<speed>0.0</speed>
				</extensions>
			</trkpt>
			<trkpt lat="53.26455909" lon="-8.93333385">
				<ele>65.0</ele>
				<time>2014-08-17T16:04:14Z</time>
				<extensions>
					<speed>0.0</speed>
				</extensions>
			</trkpt>
			<trkpt lat="53.26455908" lon="-8.93333387">
				<ele>65.0</ele>
				<time>2014-08-17T16:04:15Z</time>
				<extensions>
					<speed>0.0</speed>
				</extensions>
			</trkpt>
			<trkpt lat="53.26455908" lon="-8.93333384">
				<ele>65.0</ele>
				<time>2014-08-17T16:04:16Z</time>
				<extensions>
					<speed>0.0</speed>
				</extensions>
			</trkpt>
			<trkpt lat="53.26455908" lon="-8.93333385">
				<ele>65.0</ele>
				<time>2014-08-17T16:04:17Z</time>
				<extensions>
					<speed>0.0</speed>
				</extensions>
			</trkpt>
			<trkpt lat="53.26455907" lon="-8.93333388">
				<ele>65.0</ele>
				<time>2014-08-17T16:04:18Z</time>
				<extensions>
					<speed>0.0</speed>
				</extensions>
			</trkpt>
			<trkpt lat="53.26455907" lon="-8.9333339">
				<ele>65.0</ele>
				<time>2014-08-17T16:04:19Z</time>
				<extensions>
					<speed>0.0</speed>
				</extensions>
			</trkpt>
			<trkpt lat="53.26455907" lon="-8.93333391">
				<ele>65.0</ele>
				<time>2014-08-17T16:04:20Z</time>
				<extensions>
					<speed>0.0</speed>
				</extensions>
			</trkpt>
			<trkpt lat="53.26455906" lon="-8.93333392">
				<ele>65.0</ele>
				<time>2014-08-17T16:04:21Z</time>
				<extensions>
					<speed>0.0</speed>
				</extensions>
			</trkpt>
			<trkpt lat="53.26455905" lon="-8.93333394">
				<ele>65.0</ele>
				<time>2014-08-17T16:04:22Z</time>
				<extensions>
					<speed>0.0</speed>
				</extensions>
			</trkpt>
			<trkpt lat="53.26455905" lon="-8.93333394">
				<ele>65.0</ele>
				<time>2014-08-17T16:04:23Z</time>
				<extensions>
					<speed>0.0</speed>
				</extensions>
			</trkpt>
			<trkpt lat="53.26455905" lon="-8.93333394">
				<ele>65.0</ele>
				<time>2014-08-17T16:04:24Z</time>
				<extensions>
					<speed>0.0</speed>
				</extensions>
			</trkpt>
			<trkpt lat="53.26455863" lon="-8.93333273">
				<ele>65.0</ele>
				<time>2014-08-17T16:04:25Z</time>
				<extensions>
					<speed>0.0</speed>
				</extensions>
			</trkpt>
			<trkpt lat="53.26455938" lon="-8.93333225">
				<ele>65.0</ele>
				<time>2014-08-17T16:04:26Z</time>
				<extensions>
					<speed>0.0</speed>
				</extensions>
			</trkpt>
			<trkpt lat="53.26455943" lon="-8.93333105">
				<ele>65.0</ele>
				<time>2014-08-17T16:04:27Z</time>
				<extensions>
					<speed>0.5</speed>
				</extensions>
			</trkpt>
			<trkpt lat="53.26456641" lon="-8.93331943">
				<ele>65.0</ele>
				<time>2014-08-17T16:04:28Z</time>
				<extensions>
					<speed>1.25</speed>
				</extensions>
			</trkpt>
			<trkpt lat="53.26458663" lon="-8.93329932">
				<ele>66.0</ele>
				<time>2014-08-17T16:04:29Z</time>
				<extensions>
					<speed>1.25</speed>
				</extensions>
			</trkpt>
			<trkpt lat="53.26458506" lon="-8.93329796">
				<ele>66.0</ele>
				<time>2014-08-17T16:04:30Z</time>
				<extensions>
					<speed>0.75</speed>
				</extensions>
			</trkpt>
			<trkpt lat="53.26458826" lon="-8.93329577">
				<ele>67.0</ele>
				<time>2014-08-17T16:04:31Z</time>
				<extensions>
					<speed>0.75</speed>
				</extensions>
			</trkpt>
			<trkpt lat="53.26459738" lon="-8.93329179">
				<ele>67.0</ele>
				<time>2014-08-17T16:04:32Z</time>
				<extensions>
					<speed>1.0</speed>
				</extensions>
			</trkpt>
			<trkpt lat="53.26460569" lon="-8.93328293">
				<ele>67.0</ele>
				<time>2014-08-17T16:04:33Z</time>
				<extensions>
					<speed>0.75</speed>
				</extensions>
			</trkpt>
			<trkpt lat="53.2646074" lon="-8.93328838">
				<ele>67.0</ele>
				<time>2014-08-17T16:04:34Z</time>
				<extensions>
					<speed>0.0</speed>
				</extensions>
			</trkpt>
			<trkpt lat="53.26460646" lon="-8.93328619">
				<ele>67.0</ele>
				<time>2014-08-17T16:04:35Z</time>
				<extensions>
					<speed>1.5</speed>
				</extensions>
			</trkpt>
			<trkpt lat="53.2645975" lon="-8.93324277">
				<ele>68.0</ele>
				<time>2014-08-17T16:04:36Z</time>
				<extensions>
					<speed>2.75</speed>
				</extensions>
			</trkpt>
			<trkpt lat="53.26457086" lon="-8.93318751">
				<ele>67.0</ele>
				<time>2014-08-17T16:04:37Z</time>
				<extensions>
					<speed>4.75</speed>
				</extensions>
			</trkpt>
			<trkpt lat="53.26454684" lon="-8.93313098">
				<ele>67.0</ele>
				<time>2014-08-17T16:04:38Z</time>
				<extensions>
					<speed>4.75</speed>
				</extensions>
			</trkpt>
			<trkpt lat="53.26452351" lon="-8.93307348">
				<ele>67.0</ele>
				<time>2014-08-17T16:04:39Z</time>
				<extensions>
					<speed>4.75</speed>
				</extensions>
			</trkpt>
			<trkpt lat="53.26450024" lon="-8.93301803">
				<ele>67.0</ele>
				<time>2014-08-17T16:04:40Z</time>
				<extensions>
					<speed>4.25</speed>
				</extensions>
			</trkpt>
			<trkpt lat="53.26447538" lon="-8.9329703">
				<ele>67.0</ele>
				<time>2014-08-17T16:04:41Z</time>
				<extensions>
					<speed>4.25</speed>
				</extensions>
			</trkpt>
			<trkpt lat="53.26445283" lon="-8.93291818">
				<ele>67.0</ele>
				<time>2014-08-17T16:04:42Z</time>
				<extensions>
					<speed>4.25</speed>
				</extensions>
			</trkpt>
			<trkpt lat="53.26443464" lon="-8.93287823">
				<ele>66.0</ele>
				<time>2014-08-17T16:04:43Z</time>
				<extensions>
					<speed>4.0</speed>
				</extensions>
			</trkpt>
			<trkpt lat="53.26439592" lon="-8.93282607">
				<ele>64.0</ele>
				<time>2014-08-17T16:04:44Z</time>
				<extensions>
					<speed>3.75</speed>
				</extensions>
			</trkpt>
			<trkpt lat="53.26437395" lon="-8.93278713">
				<ele>64.0</ele>
				<time>2014-08-17T16:04:45Z</time>
				<extensions>
					<speed>3.75</speed>
				</extensions>
			</trkpt>
			<trkpt lat="53.26435384" lon="-8.93275502">
				<ele>64.0</ele>
				<time>2014-08-17T16:04:46Z</time>
				<extensions>
					<speed>3.25</speed>
				</extensions>
			</trkpt>
			<trkpt lat="53.26433596" lon="-8.93271766">
				<ele>65.0</ele>
				<time>2014-08-17T16:04:47Z</time>
				<extensions>
					<speed>3.25</speed>
				</extensions>
			</trkpt>
			<trkpt lat="53.26433616" lon="-8.93267682">
				<ele>66.0</ele>
				<time>2014-08-17T16:04:48Z</time>
				<extensions>
					<speed>2.25</speed>
				</extensions>
			</trkpt>
			<trkpt lat="53.26433433" lon="-8.93264229">
				<ele>65.0</ele>
				<time>2014-08-17T16:04:49Z</time>
				<extensions>
					<speed>1.75</speed>
				</extensions>
			</trkpt>
			<trkpt lat="53.26433766" lon="-8.93261478">
				<ele>65.0</ele>
				<time>2014-08-17T16:04:50Z</time>
				<extensions>
					<speed>1.75</speed>
				</extensions>
			</trkpt>
			<trkpt lat="53.26437478" lon="-8.93259729">
				<ele>66.0</ele>
				<time>2014-08-17T16:04:51Z</time>
				<extensions>
					<speed>2.5</speed>
				</extensions>
			</trkpt>
			<trkpt lat="53.26439513" lon="-8.93259881">
				<ele>66.0</ele>
				<time>2014-08-17T16:04:52Z</time>
				<extensions>
					<speed>2.75</speed>
				</extensions>
			</trkpt>
			<trkpt lat="53.26442289" lon="-8.93260299">
				<ele>66.0</ele>
				<time>2014-08-17T16:04:53Z</time>
				<extensions>
					<speed>3.25</speed>
				</extensions>
			</trkpt>
			<trkpt lat="53.2644532" lon="-8.93259996">
				<ele>66.0</ele>
				<time>2014-08-17T16:04:54Z</time>
				<extensions>
					<speed>3.5</speed>
				</extensions>
			</trkpt>
			<trkpt lat="53.26449086" lon="-8.93260162">
				<ele>65.0</ele>
				<time>2014-08-17T16:04:55Z</time>
				<extensions>
					<speed>3.75</speed>
				</extensions>
			</trkpt>
			<trkpt lat="53.26452149" lon="-8.93259321">
				<ele>65.0</ele>
				<time>2014-08-17T16:04:56Z</time>
				<extensions>
					<speed>3.75</speed>
				</extensions>
			</trkpt>
			<trkpt lat="53.26453326" lon="-8.9325882">
				<ele>64.0</ele>
				<time>2014-08-17T16:04:57Z</time>
				<extensions>
					<speed>2.75</speed>
				</extensions>
			</trkpt>
			<trkpt lat="53.26456447" lon="-8.93257765">
				<ele>64.0</ele>
				<time>2014-08-17T16:04:58Z</time>
				<extensions>
					<speed>2.0</speed>
				</extensions>
			</trkpt>
			<trkpt lat="53.26456995" lon="-8.93256873">
				<ele>63.0</ele>
				<time>2014-08-17T16:04:59Z</time>
				<extensions>
					<speed>1.0</speed>
				</extensions>
			</trkpt>
			<trkpt lat="53.26457375" lon="-8.93256343">
				<ele>63.0</ele>
				<time>2014-08-17T16:05:00Z</time>
				<extensions>
					<speed>0.0</speed>
				</extensions>
			</trkpt>
			<trkpt lat="53.2645763" lon="-8.93256714">
				<ele>63.0</ele>
				<time>2014-08-17T16:05:01Z</time>
				<extensions>
					<speed>0.0</speed>
				</extensions>
			</trkpt>
			<trkpt lat="53.26457687" lon="-8.93256351">
				<ele>63.0</ele>
				<time>2014-08-17T16:05:02Z</time>
				<extensions>
					<speed>0.0</speed>
				</extensions>
			</trkpt>
			<trkpt lat="53.26458097" lon="-8.93255939">
				<ele>63.0</ele>
				<time>2014-08-17T16:05:03Z</time>
				<extensions>
					<speed>0.0</speed>
				</extensions>
			</trkpt>
			<trkpt lat="53.26458137" lon="-8.93255951">
				<ele>63.0</ele>
				<time>2014-08-17T16:05:04Z</time>
				<extensions>
					<speed>0.0</speed>
				</extensions>
			</trkpt>
			<trkpt lat="53.26458268" lon="-8.93255668">
				<ele>64.0</ele>
				<time>2014-08-17T16:05:05Z</time>
				<extensions>
					<speed>0.0</speed>
				</extensions>
			</trkpt>
			<trkpt lat="53.26458439" lon="-8.93255751">
				<ele>64.0</ele>
				<time>2014-08-17T16:05:06Z</time>
				<extensions>
					<speed>0.0</speed>
				</extensions>
			</trkpt>
			<trkpt lat="53.26458516" lon="-8.93255946">
				<ele>65.0</ele>
				<time>2014-08-17T16:05:07Z</time>
				<extensions>
					<speed>0.0</speed>
				</extensions>
			</trkpt>
			<trkpt lat="53.26458542" lon="-8.93255881">
				<ele>66.0</ele>
				<time>2014-08-17T16:05:08Z</time>
				<extensions>
					<speed>0.0</speed>
				</extensions>
			</trkpt>
			<trkpt lat="53.26458175" lon="-8.93255672">
				<ele>66.0</ele>
				<time>2014-08-17T16:05:09Z</time>
				<extensions>
					<speed>0.0</speed>
				</extensions>
			</trkpt>
			<trkpt lat="53.26458226" lon="-8.93255587">
				<ele>66.0</ele>
				<time>2014-08-17T16:05:10Z</time>
				<extensions>
					<speed>0.0</speed>
				</extensions>
			</trkpt>
			<trkpt lat="53.26458229" lon="-8.93255594">
				<ele>66.0</ele>
				<time>2014-08-17T16:05:11Z</time>
				<extensions>
					<speed>0.0</speed>
				</extensions>
			</trkpt>
			<trkpt lat="53.26458257" lon="-8.93255568">
				<ele>66.0</ele>
				<time>2014-08-17T16:05:12Z</time>
				<extensions>
					<speed>0.0</speed>
				</extensions>
			</trkpt>
			<trkpt lat="53.26458257" lon="-8.93255563">
				<ele>66.0</ele>
				<time>2014-08-17T16:05:13Z</time>
				<extensions>
					<speed>0.0</speed>
				</extensions>
			</trkpt>
			<trkpt lat="53.2645825" lon="-8.93255551">
				<ele>66.0</ele>
				<time>2014-08-17T16:05:14Z</time>
				<extensions>
					<speed>0.0</speed>
				</extensions>
			</trkpt>
			<trkpt lat="53.26458248" lon="-8.9325555">
				<ele>66.0</ele>
				<time>2014-08-17T16:05:15Z</time>
				<extensions>
					<speed>0.0</speed>
				</extensions>
			</trkpt>
			<trkpt lat="53.26458248" lon="-8.93255551">
				<ele>66.0</ele>
				<time>2014-08-17T16:05:16Z</time>
				<extensions>
					<speed>0.0</speed>
				</extensions>
			</trkpt>
			<trkpt lat="53.26458245" lon="-8.9325555">
				<ele>66.0</ele>
				<time>2014-08-17T16:05:17Z</time>
				<extensions>
					<speed>0.0</speed>
				</extensions>
			</trkpt>
			<trkpt lat="53.26458243" lon="-8.93255549">
				<ele>66.0</ele>
				<time>2014-08-17T16:05:18Z</time>
				<extensions>
					<speed>0.0</speed>
				</extensions>
			</trkpt>
			<trkpt lat="53.26458241" lon="-8.93255544">
				<ele>66.0</ele>
				<time>2014-08-17T16:05:19Z</time>
				<extensions>
					<speed>0.0</speed>
				</extensions>
			</trkpt>
			<trkpt lat="53.26458236" lon="-8.93255545">
				<ele>66.0</ele>
				<time>2014-08-17T16:05:20Z</time>
				<extensions>
					<speed>0.0</speed>
				</extensions>
			</trkpt>
			<trkpt lat="53.26458228" lon="-8.93255544">
				<ele>66.0</ele>
				<time>2014-08-17T16:05:21Z</time>
				<extensions>
					<speed>0.0</speed>
				</extensions>
			</trkpt>
			<trkpt lat="53.26458257" lon="-8.93255556">
				<ele>66.0</ele>
				<time>2014-08-17T16:05:22Z</time>
				<extensions>
					<speed>0.0</speed>
				</extensions>
			</trkpt>
			<trkpt lat="53.2645835" lon="-8.93255469">
				<ele>66.0</ele>
				<time>2014-08-17T16:05:23Z</time>
				<extensions>
					<speed>1.0</speed>
				</extensions>
			</trkpt>
			<trkpt lat="53.26461463" lon="-8.93253986">
				<ele>67.0</ele>
				<time>2014-08-17T16:05:24Z</time>
				<extensions>
					<speed>1.75</speed>
				</extensions>
			</trkpt>
			<trkpt lat="53.26462639" lon="-8.93252507">
				<ele>67.0</ele>
				<time>2014-08-17T16:05:25Z</time>
				<extensions>
					<speed>1.75</speed>
				</extensions>
			</trkpt>
			<trkpt lat="53.26463816" lon="-8.93251028">
				<ele>67.0</ele>
				<time>2014-08-17T16:05:26Z</time>
				<extensions>
					<speed>1.75</speed>
				</extensions>
			</trkpt>
			<trkpt lat="53.26466911" lon="-8.93248763">
				<ele>67.0</ele>
				<time>2014-08-17T16:05:27Z</time>
				<extensions>
					<speed>2.25</speed>
				</extensions>
			</trkpt>
			<trkpt lat="53.26470095" lon="-8.93247156">
				<ele>67.0</ele>
				<time>2014-08-17T16:05:28Z</time>
				<extensions>
					<speed>2.5</speed>
				</extensions>
			</trkpt>
			<trkpt lat="53.26472417" lon="-8.93246873">
				<ele>67.0</ele>
				<time>2014-08-17T16:05:29Z</time>
				<extensions>
					<speed>2.5</speed>
				</extensions>
			</trkpt>
			<trkpt lat="53.26474361" lon="-8.93246788">
				<ele>68.0</ele>
				<time>2014-08-17T16:05:30Z</time>
				<extensions>
					<speed>2.0</speed>
				</extensions>
			</trkpt>
			<trkpt lat="53.26475887" lon="-8.93246988">
				<ele>67.0</ele>
				<time>2014-08-17T16:05:31Z</time>
				<extensions>
					<speed>1.5</speed>
				</extensions>
			</trkpt>
			<trkpt lat="53.26477149" lon="-8.93247917">
				<ele>68.0</ele>
				<time>2014-08-17T16:05:32Z</time>
				<extensions>
					<speed>1.25</speed>
				</extensions>
			</trkpt>
			<trkpt lat="53.26478058" lon="-8.93248767">
				<ele>67.0</ele>
				<time>2014-08-17T16:05:33Z</time>
				<extensions>
					<speed>1.25</speed>
				</extensions>
			</trkpt>
			<trkpt lat="53.26479039" lon="-8.9324934">
				<ele>67.0</ele>
				<time>2014-08-17T16:05:34Z</time>
				<extensions>
					<speed>1.0</speed>
				</extensions>
			</trkpt>
			<trkpt lat="53.26479528" lon="-8.93250592">
				<ele>67.0</ele>
				<time>2014-08-17T16:05:35Z</time>
				<extensions>
					<speed>1.0</speed>
				</extensions>
			</trkpt>
			<trkpt lat="53.26480214" lon="-8.93252051">
				<ele>68.0</ele>
				<time>2014-08-17T16:05:36Z</time>
				<extensions>
					<speed>1.25</speed>
				</extensions>
			</trkpt>
			<trkpt lat="53.26480854" lon="-8.93254371">
				<ele>68.0</ele>
				<time>2014-08-17T16:05:37Z</time>
				<extensions>
					<speed>1.75</speed>
				</extensions>
			</trkpt>
			<trkpt lat="53.26481714" lon="-8.93256067">
				<ele>68.0</ele>
				<time>2014-08-17T16:05:38Z</time>
				<extensions>
					<speed>2.0</speed>
				</extensions>
			</trkpt>
			<trkpt lat="53.26482658" lon="-8.93259625">
				<ele>68.0</ele>
				<time>2014-08-17T16:05:39Z</time>
				<extensions>
					<speed>2.0</speed>
				</extensions>
			</trkpt>
			<trkpt lat="53.26483543" lon="-8.93262689">
				<ele>68.0</ele>
				<time>2014-08-17T16:05:40Z</time>
				<extensions>
					<speed>2.25</speed>
				</extensions>
			</trkpt>
			<trkpt lat="53.26484926" lon="-8.93266073">
				<ele>68.0</ele>
				<time>2014-08-17T16:05:41Z</time>
				<extensions>
					<speed>2.25</speed>
				</extensions>
			</trkpt>
			<trkpt lat="53.26485859" lon="-8.93267446">
				<ele>68.0</ele>
				<time>2014-08-17T16:05:42Z</time>
				<extensions>
					<speed>2.0</speed>
				</extensions>
			</trkpt>
			<trkpt lat="53.26487616" lon="-8.93269195">
				<ele>67.0</ele>
				<time>2014-08-17T16:05:43Z</time>
				<extensions>
					<speed>1.25</speed>
				</extensions>
			</trkpt>
			<trkpt lat="53.26488225" lon="-8.93270468">
				<ele>67.0</ele>
				<time>2014-08-17T16:05:44Z</time>
				<extensions>
					<speed>0.75</speed>
				</extensions>
			</trkpt>
			<trkpt lat="53.2648885" lon="-8.93269876">
				<ele>67.0</ele>
				<time>2014-08-17T16:05:45Z</time>
				<extensions>
					<speed>0.0</speed>
				</extensions>
			</trkpt>
			<trkpt lat="53.26489094" lon="-8.93270414">
				<ele>67.0</ele>
				<time>2014-08-17T16:05:46Z</time>
				<extensions>
					<speed>0.0</speed>
				</extensions>
			</trkpt>
			<trkpt lat="53.26489437" lon="-8.93270997">
				<ele>67.0</ele>
				<time>2014-08-17T16:05:47Z</time>
				<extensions>
					<speed>0.0</speed>
				</extensions>
			</trkpt>
			<trkpt lat="53.26489679" lon="-8.93271206">
				<ele>67.0</ele>
				<time>2014-08-17T16:05:48Z</time>
				<extensions>
					<speed>0.0</speed>
				</extensions>
			</trkpt>
			<trkpt lat="53.26489576" lon="-8.93271121">
				<ele>67.0</ele>
				<time>2014-08-17T16:05:49Z</time>
				<extensions>
					<speed>0.0</speed>
				</extensions>
			</trkpt>
			<trkpt lat="53.2648964" lon="-8.93271379">
				<ele>67.0</ele>
				<time>2014-08-17T16:05:50Z</time>
				<extensions>
					<speed>0.0</speed>
				</extensions>
			</trkpt>
			<trkpt lat="53.26489911" lon="-8.93271824">
				<ele>67.0</ele>
				<time>2014-08-17T16:05:51Z</time>
				<extensions>
					<speed>0.0</speed>
				</extensions>
			</trkpt>
			<trkpt lat="53.26490013" lon="-8.93272157">
				<ele>67.0</ele>
				<time>2014-08-17T16:05:52Z</time>
				<extensions>
					<speed>0.0</speed>
				</extensions>
			</trkpt>
			<trkpt lat="53.26490158" lon="-8.93272445">
				<ele>67.0</ele>
				<time>2014-08-17T16:05:53Z</time>
				<extensions>
					<speed>0.0</speed>
				</extensions>
			</trkpt>
			<trkpt lat="53.26490054" lon="-8.93272557">
				<ele>67.0</ele>
				<time>2014-08-17T16:05:54Z</time>
				<extensions>
					<speed>0.0</speed>
				</extensions>
			</trkpt>
			<trkpt lat="53.2649003" lon="-8.932726">
				<ele>68.0</ele>
				<time>2014-08-17T16:05:55Z</time>
				<extensions>
					<speed>0.0</speed>
				</extensions>
			</trkpt>
			<trkpt lat="53.26490013" lon="-8.93272624">
				<ele>68.0</ele>
				<time>2014-08-17T16:05:56Z</time>
				<extensions>
					<speed>0.0</speed>
				</extensions>
			</trkpt>
			<trkpt lat="53.2649018" lon="-8.93273016">
				<ele>68.0</ele>
				<time>2014-08-17T16:05:57Z</time>
				<extensions>
					<speed>1.75</speed>
				</extensions>
			</trkpt>
			<trkpt lat="53.26491743" lon="-8.93276749">
				<ele>68.0</ele>
				<time>2014-08-17T16:05:58Z</time>
				<extensions>
					<speed>3.25</speed>
				</extensions>
			</trkpt>
			<trkpt lat="53.26493411" lon="-8.9328094">
				<ele>68.0</ele>
				<time>2014-08-17T16:05:59Z</time>
				<extensions>
					<speed>3.25</speed>
				</extensions>
			</trkpt>
			<trkpt lat="53.26494742" lon="-8.93285798">
				<ele>68.0</ele>
				<time>2014-08-17T16:06:00Z</time>
				<extensions>
					<speed>3.75</speed>
				</extensions>
			</trkpt>
			<trkpt lat="53.26496226" lon="-8.93290714">
				<ele>68.0</ele>
				<time>2014-08-17T16:06:01Z</time>
				<extensions>
					<speed>3.75</speed>
				</extensions>
			</trkpt>
			<trkpt lat="53.26496818" lon="-8.93294387">
				<ele>67.0</ele>
				<time>2014-08-17T16:06:02Z</time>
				<extensions>
					<speed>3.0</speed>
				</extensions>
			</trkpt>
			<trkpt lat="53.26498878" lon="-8.93298152">
				<ele>67.0</ele>
				<time>2014-08-17T16:06:03Z</time>
				<extensions>
					<speed>3.25</speed>
				</extensions>
			</trkpt>
			<trkpt lat="53.26500409" lon="-8.93302314">
				<ele>67.0</ele>
				<time>2014-08-17T16:06:04Z</time>
				<extensions>
					<speed>3.5</speed>
				</extensions>
			</trkpt>
			<trkpt lat="53.26502859" lon="-8.93304877">
				<ele>67.0</ele>
				<time>2014-08-17T16:06:05Z</time>
				<extensions>
					<speed>3.5</speed>
				</extensions>
			</trkpt>
			<trkpt lat="53.26505579" lon="-8.93305675">
				<ele>67.0</ele>
				<time>2014-08-17T16:06:06Z</time>
				<extensions>
					<speed>3.0</speed>
				</extensions>
			</trkpt>
			<trkpt lat="53.26508375" lon="-8.93305405">
				<ele>67.0</ele>
				<time>2014-08-17T16:06:07Z</time>
				<extensions>
					<speed>2.75</speed>
				</extensions>
			</trkpt>
			<trkpt lat="53.26510311" lon="-8.93305416">
				<ele>67.0</ele>
				<time>2014-08-17T16:06:08Z</time>
				<extensions>
					<speed>2.5</speed>
				</extensions>
			</trkpt>
			<trkpt lat="53.26512294" lon="-8.93304956">
				<ele>67.0</ele>
				<time>2014-08-17T16:06:09Z</time>
				<extensions>
					<speed>2.25</speed>
				</extensions>
			</trkpt>
			<trkpt lat="53.26514276" lon="-8.93304174">
				<ele>67.0</ele>
				<time>2014-08-17T16:06:10Z</time>
				<extensions>
					<speed>2.5</speed>
				</extensions>
			</trkpt>
			<trkpt lat="53.265164" lon="-8.93303653">
				<ele>66.0</ele>
				<time>2014-08-17T16:06:11Z</time>
				<extensions>
					<speed>2.5</speed>
				</extensions>
			</trkpt>
			<trkpt lat="53.26518732" lon="-8.93303053">
				<ele>66.0</ele>
				<time>2014-08-17T16:06:12Z</time>
				<extensions>
					<speed>2.5</speed>
				</extensions>
			</trkpt>
			<trkpt lat="53.26521418" lon="-8.93301532">
				<ele>66.0</ele>
				<time>2014-08-17T16:06:13Z</time>
				<extensions>
					<speed>2.5</speed>
				</extensions>
			</trkpt>
			<trkpt lat="53.26523922" lon="-8.93301051">
				<ele>66.0</ele>
				<time>2014-08-17T16:06:14Z</time>
				<extensions>
					<speed>2.25</speed>
				</extensions>
			</trkpt>
			<trkpt lat="53.26525522" lon="-8.93301834">
				<ele>66.0</ele>
				<time>2014-08-17T16:06:15Z</time>
				<extensions>
					<speed>2.25</speed>
				</extensions>
			</trkpt>
			<trkpt lat="53.26527779" lon="-8.93302711">
				<ele>65.0</ele>
				<time>2014-08-17T16:06:16Z</time>
				<extensions>
					<speed>2.25</speed>
				</extensions>
			</trkpt>
			<trkpt lat="53.26529652" lon="-8.93304129">
				<ele>65.0</ele>
				<time>2014-08-17T16:06:17Z</time>
				<extensions>
					<speed>2.5</speed>
				</extensions>
			</trkpt>
			<trkpt lat="53.26531126" lon="-8.93307126">
				<ele>65.0</ele>
				<time>2014-08-17T16:06:18Z</time>
				<extensions>
					<speed>2.25</speed>
				</extensions>
			</trkpt>
			<trkpt lat="53.26530668" lon="-8.93309404">
				<ele>65.0</ele>
				<time>2014-08-17T16:06:19Z</time>
				<extensions>
					<speed>1.75</speed>
				</extensions>
			</trkpt>
			<trkpt lat="53.26530301" lon="-8.93311294">
				<ele>64.0</ele>
				<time>2014-08-17T16:06:20Z</time>
				<extensions>
					<speed>1.25</speed>
				</extensions>
			</trkpt>
			<trkpt lat="53.2653055" lon="-8.93313151">
				<ele>64.0</ele>
				<time>2014-08-17T16:06:21Z</time>
				<extensions>
					<speed>1.25</speed>
				</extensions>
			</trkpt>
			<trkpt lat="53.26530307" lon="-8.93313541">
				<ele>64.0</ele>
				<time>2014-08-17T16:06:22Z</time>
				<extensions>
					<speed>0.75</speed>
				</extensions>
			</trkpt>
			<trkpt lat="53.26529759" lon="-8.93311635">
				<ele>63.0</ele>
				<time>2014-08-17T16:06:23Z</time>
				<extensions>
					<speed>0.0</speed>
				</extensions>
			</trkpt>
			<trkpt lat="53.26530431" lon="-8.93310924">
				<ele>64.0</ele>
				<time>2014-08-17T16:06:24Z</time>
				<extensions>
					<speed>0.0</speed>
				</extensions>
			</trkpt>
			<trkpt lat="53.26530729" lon="-8.93310619">
				<ele>64.0</ele>
				<time>2014-08-17T16:06:25Z</time>
				<extensions>
					<speed>0.0</speed>
				</extensions>
			</trkpt>
			<trkpt lat="53.2653055" lon="-8.9331085">
				<ele>63.0</ele>
				<time>2014-08-17T16:06:26Z</time>
				<extensions>
					<speed>0.0</speed>
				</extensions>
			</trkpt>
			<trkpt lat="53.26530322" lon="-8.93311303">
				<ele>63.0</ele>
				<time>2014-08-17T16:06:27Z</time>
				<extensions>
					<speed>0.0</speed>
				</extensions>
			</trkpt>
			<trkpt lat="53.26530325" lon="-8.93311236">
				<ele>63.0</ele>
				<time>2014-08-17T16:06:28Z</time>
				<extensions>
					<speed>0.0</speed>
				</extensions>
			</trkpt>
			<trkpt lat="53.26530372" lon="-8.9331093">
				<ele>63.0</ele>
				<time>2014-08-17T16:06:29Z</time>
				<extensions>
					<speed>0.0</speed>
				</extensions>
			</trkpt>
			<trkpt lat="53.26530313" lon="-8.93310891">
				<ele>63.0</ele>
				<time>2014-08-17T16:06:30Z</time>
				<extensions>
					<speed>0.5</speed>
				</extensions>
			</trkpt>
			<trkpt lat="53.26530816" lon="-8.93310791">
				<ele>63.0</ele>
				<time>2014-08-17T16:06:31Z</time>
				<extensions>
					<speed>0.0</speed>
				</extensions>
			</trkpt>
			<trkpt lat="53.26530816" lon="-8.93310791">
				<ele>63.0</ele>
				<time>2014-08-17T16:06:32Z</time>
				<extensions>
					<speed>0.0</speed>
				</extensions>
			</trkpt>
			<trkpt lat="53.26530699" lon="-8.93311218">
				<ele>63.0</ele>
				<time>2014-08-17T16:06:33Z</time>
				<extensions>
					<speed>0.0</speed>
				</extensions>
			</trkpt>
			<trkpt lat="53.26530699" lon="-8.93311218">
				<ele>63.0</ele>
				<time>2014-08-17T16:06:34Z</time>
				<extensions>
					<speed>0.0</speed>
				</extensions>
			</trkpt>
			<trkpt lat="53.26531036" lon="-8.93311142">
				<ele>63.0</ele>
				<time>2014-08-17T16:06:35Z</time>
				<extensions>
					<speed>0.0</speed>
				</extensions>
			</trkpt>
			<trkpt lat="53.2653137" lon="-8.93311727">
				<ele>63.0</ele>
				<time>2014-08-17T16:06:36Z</time>
				<extensions>
					<speed>0.0</speed>
				</extensions>
			</trkpt>
			<trkpt lat="53.2653137" lon="-8.93311727">
				<ele>63.0</ele>
				<time>2014-08-17T16:06:37Z</time>
				<extensions>
					<speed>0.0</speed>
				</extensions>
			</trkpt>
			<trkpt lat="53.2653195" lon="-8.93311752">
				<ele>64.0</ele>
				<time>2014-08-17T16:06:38Z</time>
				<extensions>
					<speed>0.0</speed>
				</extensions>
			</trkpt>
			<trkpt lat="53.2653189" lon="-8.93311465">
				<ele>65.0</ele>
				<time>2014-08-17T16:06:39Z</time>
				<extensions>
					<speed>0.0</speed>
				</extensions>
			</trkpt>
			<trkpt lat="53.26531726" lon="-8.93311521">
				<ele>65.0</ele>
				<time>2014-08-17T16:06:40Z</time>
				<extensions>
					<speed>0.0</speed>
				</extensions>
			</trkpt>
			<trkpt lat="53.26531726" lon="-8.93311521">
				<ele>65.0</ele>
				<time>2014-08-17T16:06:41Z</time>
				<extensions>
					<speed>0.0</speed>
				</extensions>
			</trkpt>
			<trkpt lat="53.26531726" lon="-8.93311521">
				<ele>65.0</ele>
				<time>2014-08-17T16:06:42Z</time>
				<extensions>
					<speed>0.0</speed>
				</extensions>
			</trkpt>
			<trkpt lat="53.26531876" lon="-8.93311845">
				<ele>64.0</ele>
				<time>2014-08-17T16:06:43Z</time>
				<extensions>
					<speed>0.0</speed>
				</extensions>
			</trkpt>
			<trkpt lat="53.26532162" lon="-8.93311764">
				<ele>65.0</ele>
				<time>2014-08-17T16:06:44Z</time>
				<extensions>
					<speed>0.0</speed>
				</extensions>
			</trkpt>
			<trkpt lat="53.26532189" lon="-8.93311796">
				<ele>65.0</ele>
				<time>2014-08-17T16:06:45Z</time>
				<extensions>
					<speed>0.0</speed>
				</extensions>
			</trkpt>
			<trkpt lat="53.26532261" lon="-8.93311805">
				<ele>65.0</ele>
				<time>2014-08-17T16:06:46Z</time>
				<extensions>
					<speed>0.0</speed>
				</extensions>
			</trkpt>
			<trkpt lat="53.26532353" lon="-8.93311908">
				<ele>65.0</ele>
				<time>2014-08-17T16:06:47Z</time>
				<extensions>
					<speed>1.0</speed>
				</extensions>
			</trkpt>
			<trkpt lat="53.26533968" lon="-8.93312295">
				<ele>65.0</ele>
				<time>2014-08-17T16:06:48Z</time>
				<extensions>
					<speed>1.0</speed>
				</extensions>
			</trkpt>
			<trkpt lat="53.26534855" lon="-8.93312608">
				<ele>64.0</ele>
				<time>2014-08-17T16:06:49Z</time>
				<extensions>
					<speed>1.25</speed>
				</extensions>
			</trkpt>
			<trkpt lat="53.26536471" lon="-8.93313573">
				<ele>65.0</ele>
				<time>2014-08-17T16:06:50Z</time>
				<extensions>
					<speed>1.25</speed>
				</extensions>
			</trkpt>
			<trkpt lat="53.26537826" lon="-8.93316381">
				<ele>64.0</ele>
				<time>2014-08-17T16:06:51Z</time>
				<extensions>
					<speed>1.0</speed>
				</extensions>
			</trkpt>
			<trkpt lat="53.26538526" lon="-8.93318361">
				<ele>63.0</ele>
				<time>2014-08-17T16:06:52Z</time>
				<extensions>
					<speed>0.5</speed>
				</extensions>
			</trkpt>
			<trkpt lat="53.26538123" lon="-8.93318067">
				<ele>64.0</ele>
				<time>2014-08-17T16:06:53Z</time>
				<extensions>
					<speed>0.5</speed>
				</extensions>
			</trkpt>
			<trkpt lat="53.26537507" lon="-8.93317357">
				<ele>63.0</ele>
				<time>2014-08-17T16:06:54Z</time>
				<extensions>
					<speed>0.0</speed>
				</extensions>
			</trkpt>
			<trkpt lat="53.2653742" lon="-8.93317243">
				<ele>63.0</ele>
				<time>2014-08-17T16:06:55Z</time>
				<extensions>
					<speed>0.75</speed>
				</extensions>
			</trkpt>
			<trkpt lat="53.26536539" lon="-8.93317758">
				<ele>64.0</ele>
				<time>2014-08-17T16:06:56Z</time>
				<extensions>
					<speed>1.0</speed>
				</extensions>
			</trkpt>
			<trkpt lat="53.26535314" lon="-8.9331766">
				<ele>64.0</ele>
				<time>2014-08-17T16:06:57Z</time>
				<extensions>
					<speed>0.75</speed>
				</extensions>
			</trkpt>
			<trkpt lat="53.26534937" lon="-8.9331743">
				<ele>63.0</ele>
				<time>2014-08-17T16:06:58Z</time>
				<extensions>
					<speed>0.25</speed>
				</extensions>
			</trkpt>
			<trkpt lat="53.26534144" lon="-8.93317548">
				<ele>63.0</ele>
				<time>2014-08-17T16:06:59Z</time>
				<extensions>
					<speed>0.5</speed>
				</extensions>
			</trkpt>
			<trkpt lat="53.26533562" lon="-8.93318096">
				<ele>63.0</ele>
				<time>2014-08-17T16:07:00Z</time>
				<extensions>
					<speed>0.5</speed>
				</extensions>
			</trkpt>
			<trkpt lat="53.2653294" lon="-8.93317891">
				<ele>63.0</ele>
				<time>2014-08-17T16:07:01Z</time>
				<extensions>
					<speed>0.5</speed>
				</extensions>
			</trkpt>
			<trkpt lat="53.26532427" lon="-8.93317741">
				<ele>63.0</ele>
				<time>2014-08-17T16:07:02Z</time>
				<extensions>
					<speed>0.5</speed>
				</extensions>
			</trkpt>
			<trkpt lat="53.26532695" lon="-8.93318106">
				<ele>63.0</ele>
				<time>2014-08-17T16:07:03Z</time>
				<extensions>
					<speed>0.0</speed>
				</extensions>
			</trkpt>
			<trkpt lat="53.26532721" lon="-8.93318008">
				<ele>64.0</ele>
				<time>2014-08-17T16:07:04Z</time>
				<extensions>
					<speed>0.0</speed>
				</extensions>
			</trkpt>
			<trkpt lat="53.26532392" lon="-8.93318346">
				<ele>64.0</ele>
				<time>2014-08-17T16:07:05Z</time>
				<extensions>
					<speed>0.0</speed>
				</extensions>
			</trkpt>
			<trkpt lat="53.26532153" lon="-8.93318071">
				<ele>64.0</ele>
				<time>2014-08-17T16:07:06Z</time>
				<extensions>
					<speed>0.0</speed>
				</extensions>
			</trkpt>
			<trkpt lat="53.26531988" lon="-8.93317865">
				<ele>65.0</ele>
				<time>2014-08-17T16:07:07Z</time>
				<extensions>
					<speed>0.0</speed>
				</extensions>
			</trkpt>
			<trkpt lat="53.26533145" lon="-8.93318218">
				<ele>64.0</ele>
				<time>2014-08-17T16:07:08Z</time>
				<extensions>
					<speed>0.0</speed>
				</extensions>
			</trkpt>
			<trkpt lat="53.26533145" lon="-8.93318218">
				<ele>64.0</ele>
				<time>2014-08-17T16:07:09Z</time>
				<extensions>
					<speed>0.0</speed>
				</extensions>
			</trkpt>
			<trkpt lat="53.26532878" lon="-8.9331826">
				<ele>64.0</ele>
				<time>2014-08-17T16:07:10Z</time>
				<extensions>
					<speed>0.0</speed>
				</extensions>
			</trkpt>
			<trkpt lat="53.26532936" lon="-8.93318324">
				<ele>64.0</ele>
				<time>2014-08-17T16:07:11Z</time>
				<extensions>
					<speed>0.5</speed>
				</extensions>
			</trkpt>
			<trkpt lat="53.26532629" lon="-8.93318794">
				<ele>63.0</ele>
				<time>2014-08-17T16:07:12Z</time>
				<extensions>
					<speed>0.25</speed>
				</extensions>
			</trkpt>
			<trkpt lat="53.26531689" lon="-8.93318981">
				<ele>62.0</ele>
				<time>2014-08-17T16:07:13Z</time>
				<extensions>
					<speed>1.0</speed>
				</extensions>
			</trkpt>
			<trkpt lat="53.26532487" lon="-8.93317994">
				<ele>62.0</ele>
				<time>2014-08-17T16:07:14Z</time>
				<extensions>
					<speed>1.25</speed>
				</extensions>
			</trkpt>
			<trkpt lat="53.26533469" lon="-8.93317217">
				<ele>62.0</ele>
				<time>2014-08-17T16:07:15Z</time>
				<extensions>
					<speed>1.25</speed>
				</extensions>
			</trkpt>
			<trkpt lat="53.26533822" lon="-8.93317524">
				<ele>62.0</ele>
				<time>2014-08-17T16:07:16Z</time>
				<extensions>
					<speed>0.75</speed>
				</extensions>
			</trkpt>
			<trkpt lat="53.2653451" lon="-8.93317623">
				<ele>62.0</ele>
				<time>2014-08-17T16:07:17Z</time>
				<extensions>
					<speed>0.75</speed>
				</extensions>
			</trkpt>
			<trkpt lat="53.26534359" lon="-8.93316963">
				<ele>62.0</ele>
				<time>2014-08-17T16:07:18Z</time>
				<extensions>
					<speed>0.5</speed>
				</extensions>
			</trkpt>
			<trkpt lat="53.26533981" lon="-8.93317363">
				<ele>63.0</ele>
				<time>2014-08-17T16:07:19Z</time>
				<extensions>
					<speed>0.75</speed>
				</extensions>
			</trkpt>
			<trkpt lat="53.26533652" lon="-8.93317396">
				<ele>63.0</ele>
				<time>2014-08-17T16:07:20Z</time>
				<extensions>
					<speed>0.5</speed>
				</extensions>
			</trkpt>
			<trkpt lat="53.26532937" lon="-8.93317248">
				<ele>62.0</ele>
				<time>2014-08-17T16:07:21Z</time>
				<extensions>
					<speed>0.0</speed>
				</extensions>
			</trkpt>
			<trkpt lat="53.26532902" lon="-8.93316223">
				<ele>62.0</ele>
				<time>2014-08-17T16:07:22Z</time>
				<extensions>
					<speed>0.0</speed>
				</extensions>
			</trkpt>
			<trkpt lat="53.26532832" lon="-8.93316235">
				<ele>62.0</ele>
				<time>2014-08-17T16:07:23Z</time>
				<extensions>
					<speed>0.5</speed>
				</extensions>
			</trkpt>
			<trkpt lat="53.26532108" lon="-8.9331691">
				<ele>62.0</ele>
				<time>2014-08-17T16:07:24Z</time>
				<extensions>
					<speed>0.0</speed>
				</extensions>
			</trkpt>
			<trkpt lat="53.26532173" lon="-8.93317167">
				<ele>62.0</ele>
				<time>2014-08-17T16:07:25Z</time>
				<extensions>
					<speed>0.0</speed>
				</extensions>
			</trkpt>
			<trkpt lat="53.26532247" lon="-8.93317075">
				<ele>63.0</ele>
				<time>2014-08-17T16:07:26Z</time>
				<extensions>
					<speed>0.0</speed>
				</extensions>
			</trkpt>
			<trkpt lat="53.26532272" lon="-8.93316989">
				<ele>63.0</ele>
				<time>2014-08-17T16:07:27Z</time>
				<extensions>
					<speed>0.0</speed>
				</extensions>
			</trkpt>
			<trkpt lat="53.26532232" lon="-8.93317255">
				<ele>62.0</ele>
				<time>2014-08-17T16:07:28Z</time>
				<extensions>
					<speed>0.0</speed>
				</extensions>
			</trkpt>
			<trkpt lat="53.26532159" lon="-8.93317276">
				<ele>62.0</ele>
				<time>2014-08-17T16:07:29Z</time>
				<extensions>
					<speed>0.5</speed>
				</extensions>
			</trkpt>
			<trkpt lat="53.26531756" lon="-8.93319599">
				<ele>62.0</ele>
				<time>2014-08-17T16:07:30Z</time>
				<extensions>
					<speed>0.75</speed>
				</extensions>
			</trkpt>
			<trkpt lat="53.2653086" lon="-8.93318513">
				<ele>61.0</ele>
				<time>2014-08-17T16:07:31Z</time>
				<extensions>
					<speed>0.5</speed>
				</extensions>
			</trkpt>
			<trkpt lat="53.26529908" lon="-8.93318758">
				<ele>61.0</ele>
				<time>2014-08-17T16:07:32Z</time>
				<extensions>
					<speed>0.75</speed>
				</extensions>
			</trkpt>
			<trkpt lat="53.26527378" lon="-8.93319038">
				<ele>63.0</ele>
				<time>2014-08-17T16:07:33Z</time>
				<extensions>
					<speed>1.0</speed>
				</extensions>
			</trkpt>
			<trkpt lat="53.26526713" lon="-8.93318747">
				<ele>63.0</ele>
				<time>2014-08-17T16:07:34Z</time>
				<extensions>
					<speed>0.75</speed>
				</extensions>
			</trkpt>
			<trkpt lat="53.26525434" lon="-8.93319288">
				<ele>62.0</ele>
				<time>2014-08-17T16:07:35Z</time>
				<extensions>
					<speed>1.25</speed>
				</extensions>
			</trkpt>
			<trkpt lat="53.26523503" lon="-8.93319293">
				<ele>62.0</ele>
				<time>2014-08-17T16:07:36Z</time>
				<extensions>
					<speed>0.75</speed>
				</extensions>
			</trkpt>
			<trkpt lat="53.26522671" lon="-8.93319811">
				<ele>61.0</ele>
				<time>2014-08-17T16:07:37Z</time>
				<extensions>
					<speed>0.75</speed>
				</extensions>
			</trkpt>
			<trkpt lat="53.2652216" lon="-8.93320116">
				<ele>61.0</ele>
				<time>2014-08-17T16:07:38Z</time>
				<extensions>
					<speed>1.0</speed>
				</extensions>
			</trkpt>
			<trkpt lat="53.26521423" lon="-8.93320613">
				<ele>61.0</ele>
				<time>2014-08-17T16:07:39Z</time>
				<extensions>
					<speed>1.0</speed>
				</extensions>
			</trkpt>
			<trkpt lat="53.26519592" lon="-8.93320931">
				<ele>61.0</ele>
				<time>2014-08-17T16:07:40Z</time>
				<extensions>
					<speed>1.25</speed>
				</extensions>
			</trkpt>
			<trkpt lat="53.26518173" lon="-8.93319985">
				<ele>60.0</ele>
				<time>2014-08-17T16:07:41Z</time>
				<extensions>
					<speed>0.75</speed>
				</extensions>
			</trkpt>
			<trkpt lat="53.26517508" lon="-8.93320346">
				<ele>60.0</ele>
				<time>2014-08-17T16:07:42Z</time>
				<extensions>
					<speed>0.75</speed>
				</extensions>
			</trkpt>
			<trkpt lat="53.26516844" lon="-8.93320707">
				<ele>59.0</ele>
				<time>2014-08-17T16:07:43Z</time>
				<extensions>
					<speed>0.75</speed>
				</extensions>
			</trkpt>
			<trkpt lat="53.26516081" lon="-8.93319715">
				<ele>60.0</ele>
				<time>2014-08-17T16:07:44Z</time>
				<extensions>
					<speed>0.75</speed>
				</extensions>
			</trkpt>
			<trkpt lat="53.26514058" lon="-8.93317504">
				<ele>61.0</ele>
				<time>2014-08-17T16:07:45Z</time>
				<extensions>
					<speed>0.25</speed>
				</extensions>
			</trkpt>
			<trkpt lat="53.26513614" lon="-8.93318456">
				<ele>61.0</ele>
				<time>2014-08-17T16:07:46Z</time>
				<extensions>
					<speed>0.5</speed>
				</extensions>
			</trkpt>
			<trkpt lat="53.26513466" lon="-8.93320024">
				<ele>60.0</ele>
				<time>2014-08-17T16:07:47Z</time>
				<extensions>
					<speed>0.5</speed>
				</extensions>
			</trkpt>
			<trkpt lat="53.26513443" lon="-8.93321078">
				<ele>61.0</ele>
				<time>2014-08-17T16:07:48Z</time>
				<extensions>
					<speed>0.5</speed>
				</extensions>
			</trkpt>
			<trkpt lat="53.26512464" lon="-8.93321575">
				<ele>60.0</ele>
				<time>2014-08-17T16:07:49Z</time>
				<extensions>
					<speed>1.0</speed>
				</extensions>
			</trkpt>
			<trkpt lat="53.26510737" lon="-8.93322187">
				<ele>60.0</ele>
				<time>2014-08-17T16:07:50Z</time>
				<extensions>
					<speed>0.5</speed>
				</extensions>
			</trkpt>
			<trkpt lat="53.26510089" lon="-8.93322179">
				<ele>60.0</ele>
				<time>2014-08-17T16:07:51Z</time>
				<extensions>
					<speed>0.75</speed>
				</extensions>
			</trkpt>
			<trkpt lat="53.26509324" lon="-8.93322647">
				<ele>61.0</ele>
				<time>2014-08-17T16:07:52Z</time>
				<extensions>
					<speed>0.0</speed>
				</extensions>
			</trkpt>
			<trkpt lat="53.26509316" lon="-8.93322579">
				<ele>61.0</ele>
				<time>2014-08-17T16:07:53Z</time>
				<extensions>
					<speed>0.25</speed>
				</extensions>
			</trkpt>
			<trkpt lat="53.2650887" lon="-8.9332223">
				<ele>61.0</ele>
				<time>2014-08-17T16:07:54Z</time>
				<extensions>
					<speed>0.0</speed>
				</extensions>
			</trkpt>
			<trkpt lat="53.26508647" lon="-8.93322891">
				<ele>61.0</ele>
				<time>2014-08-17T16:07:55Z</time>
				<extensions>
					<speed>0.0</speed>
				</extensions>
			</trkpt>
			<trkpt lat="53.26508728" lon="-8.93323319">
				<ele>61.0</ele>
				<time>2014-08-17T16:07:56Z</time>
				<extensions>
					<speed>0.0</speed>
				</extensions>
			</trkpt>
			<trkpt lat="53.26508645" lon="-8.93323278">
				<ele>61.0</ele>
				<time>2014-08-17T16:07:57Z</time>
				<extensions>
					<speed>0.75</speed>
				</extensions>
			</trkpt>
			<trkpt lat="53.26509669" lon="-8.93323093">
				<ele>63.0</ele>
				<time>2014-08-17T16:07:58Z</time>
				<extensions>
					<speed>0.0</speed>
				</extensions>
			</trkpt>
			<trkpt lat="53.26509616" lon="-8.93322263">
				<ele>63.0</ele>
				<time>2014-08-17T16:07:59Z</time>
				<extensions>
					<speed>0.0</speed>
				</extensions>
			</trkpt>
			<trkpt lat="53.265092" lon="-8.93322491">
				<ele>63.0</ele>
				<time>2014-08-17T16:08:00Z</time>
				<extensions>
					<speed>0.0</speed>
				</extensions>
			</trkpt>
			<trkpt lat="53.26509009" lon="-8.93322592">
				<ele>64.0</ele>
				<time>2014-08-17T16:08:01Z</time>
				<extensions>
					<speed>0.0</speed>
				</extensions>
			</trkpt>
			<trkpt lat="53.26508895" lon="-8.93322654">
				<ele>64.0</ele>
				<time>2014-08-17T16:08:02Z</time>
				<extensions>
					<speed>1.0</speed>
				</extensions>
			</trkpt>
			<trkpt lat="53.26508007" lon="-8.93323138">
				<ele>64.0</ele>
				<time>2014-08-17T16:08:03Z</time>
				<extensions>
					<speed>1.0</speed>
				</extensions>
			</trkpt>
			<trkpt lat="53.26507118" lon="-8.93323622">
				<ele>64.0</ele>
				<time>2014-08-17T16:08:04Z</time>
				<extensions>
					<speed>1.0</speed>
				</extensions>
			</trkpt>
			<trkpt lat="53.26504338" lon="-8.93322895">
				<ele>63.0</ele>
				<time>2014-08-17T16:08:05Z</time>
				<extensions>
					<speed>1.5</speed>
				</extensions>
			</trkpt>
			<trkpt lat="53.2650352" lon="-8.93323138">
				<ele>63.0</ele>
				<time>2014-08-17T16:08:06Z</time>
				<extensions>
					<speed>1.25</speed>
				</extensions>
			</trkpt>
			<trkpt lat="53.26503382" lon="-8.93322774">
				<ele>62.0</ele>
				<time>2014-08-17T16:08:07Z</time>
				<extensions>
					<speed>0.75</speed>
				</extensions>
			</trkpt>
			<trkpt lat="53.26502968" lon="-8.93323236">
				<ele>62.0</ele>
				<time>2014-08-17T16:08:08Z</time>
				<extensions>
					<speed>0.5</speed>
				</extensions>
			</trkpt>
			<trkpt lat="53.26501591" lon="-8.93323381">
				<ele>63.0</ele>
				<time>2014-08-17T16:08:09Z</time>
				<extensions>
					<speed>0.75</speed>
				</extensions>
			</trkpt>
			<trkpt lat="53.26500637" lon="-8.93323732">
				<ele>64.0</ele>
				<time>2014-08-17T16:08:10Z</time>
				<extensions>
					<speed>1.0</speed>
				</extensions>
			</trkpt>
			<trkpt lat="53.26499407" lon="-8.93324043">
				<ele>64.0</ele>
				<time>2014-08-17T16:08:11Z</time>
				<extensions>
					<speed>0.5</speed>
				</extensions>
			</trkpt>
			<trkpt lat="53.26498954" lon="-8.93323962">
				<ele>65.0</ele>
				<time>2014-08-17T16:08:12Z</time>
				<extensions>
					<speed>0.5</speed>
				</extensions>
			</trkpt>
			<trkpt lat="53.26498447" lon="-8.93323821">
				<ele>65.0</ele>
				<time>2014-08-17T16:08:13Z</time>
				<extensions>
					<speed>0.75</speed>
				</extensions>
			</trkpt>
			<trkpt lat="53.26499129" lon="-8.93324188">
				<ele>64.0</ele>
				<time>2014-08-17T16:08:14Z</time>
				<extensions>
					<speed>0.5</speed>
				</extensions>
			</trkpt>
			<trkpt lat="53.26499581" lon="-8.93325058">
				<ele>64.0</ele>
				<time>2014-08-17T16:08:15Z</time>
				<extensions>
					<speed>0.75</speed>
				</extensions>
			</trkpt>
			<trkpt lat="53.26499386" lon="-8.93325466">
				<ele>64.0</ele>
				<time>2014-08-17T16:08:16Z</time>
				<extensions>
					<speed>0.25</speed>
				</extensions>
			</trkpt>
			<trkpt lat="53.26500142" lon="-8.93324972">
				<ele>65.0</ele>
				<time>2014-08-17T16:08:17Z</time>
				<extensions>
					<speed>1.25</speed>
				</extensions>
			</trkpt>
			<trkpt lat="53.26501223" lon="-8.93323115">
				<ele>65.0</ele>
				<time>2014-08-17T16:08:18Z</time>
				<extensions>
					<speed>1.5</speed>
				</extensions>
			</trkpt>
			<trkpt lat="53.26501164" lon="-8.93320069">
				<ele>66.0</ele>
				<time>2014-08-17T16:08:19Z</time>
				<extensions>
					<speed>2.0</speed>
				</extensions>
			</trkpt>
			<trkpt lat="53.26500962" lon="-8.93317368">
				<ele>66.0</ele>
				<time>2014-08-17T16:08:20Z</time>
				<extensions>
					<speed>1.75</speed>
				</extensions>
			</trkpt>
			<trkpt lat="53.26500964" lon="-8.93316215">
				<ele>65.0</ele>
				<time>2014-08-17T16:08:21Z</time>
				<extensions>
					<speed>1.25</speed>
				</extensions>
			</trkpt>
			<trkpt lat="53.26501644" lon="-8.93314533">
				<ele>66.0</ele>
				<time>2014-08-17T16:08:22Z</time>
				<extensions>
					<speed>1.0</speed>
				</extensions>
			</trkpt>
			<trkpt lat="53.26501638" lon="-8.9331261">
				<ele>65.0</ele>
				<time>2014-08-17T16:08:23Z</time>
				<extensions>
					<speed>1.25</speed>
				</extensions>
			</trkpt>
			<trkpt lat="53.26502654" lon="-8.93312444">
				<ele>65.0</ele>
				<time>2014-08-17T16:08:24Z</time>
				<extensions>
					<speed>1.5</speed>
				</extensions>
			</trkpt>
			<trkpt lat="53.26503518" lon="-8.93311317">
				<ele>65.0</ele>
				<time>2014-08-17T16:08:25Z</time>
				<extensions>
					<speed>1.25</speed>
				</extensions>
			</trkpt>
			<trkpt lat="53.26503925" lon="-8.93308737">
				<ele>66.0</ele>
				<time>2014-08-17T16:08:26Z</time>
				<extensions>
					<speed>1.0</speed>
				</extensions>
			</trkpt>
			<trkpt lat="53.26504733" lon="-8.93308088">
				<ele>66.0</ele>
				<time>2014-08-17T16:08:27Z</time>
				<extensions>
					<speed>1.0</speed>
				</extensions>
			</trkpt>
			<trkpt lat="53.26505622" lon="-8.93307152">
				<ele>66.0</ele>
				<time>2014-08-17T16:08:28Z</time>
				<extensions>
					<speed>1.5</speed>
				</extensions>
			</trkpt>
			<trkpt lat="53.26506424" lon="-8.93305161">
				<ele>67.0</ele>
				<time>2014-08-17T16:08:29Z</time>
				<extensions>
					<speed>1.25</speed>
				</extensions>
			</trkpt>
			<trkpt lat="53.26506856" lon="-8.93305854">
				<ele>66.0</ele>
				<time>2014-08-17T16:08:30Z</time>
				<extensions>
					<speed>0.75</speed>
				</extensions>
			</trkpt>
			<trkpt lat="53.26506788" lon="-8.93305151">
				<ele>67.0</ele>
				<time>2014-08-17T16:08:31Z</time>
				<extensions>
					<speed>0.5</speed>
				</extensions>
			</trkpt>
			<trkpt lat="53.26507559" lon="-8.93305403">
				<ele>67.0</ele>
				<time>2014-08-17T16:08:32Z</time>
				<extensions>
					<speed>0.0</speed>
				</extensions>
			</trkpt>
			<trkpt lat="53.26507655" lon="-8.93305597">
				<ele>67.0</ele>
				<time>2014-08-17T16:08:33Z</time>
				<extensions>
					<speed>0.0</speed>
				</extensions>
			</trkpt>
			<trkpt lat="53.26507835" lon="-8.93305579">
				<ele>67.0</ele>
				<time>2014-08-17T16:08:34Z</time>
				<extensions>
					<speed>1.75</speed>
				</extensions>
			</trkpt>
			<trkpt lat="53.26509152" lon="-8.93305554">
				<ele>66.0</ele>
				<time>2014-08-17T16:08:35Z</time>
				<extensions>
					<speed>1.25</speed>
				</extensions>
			</trkpt>
			<trkpt lat="53.26510254" lon="-8.93306195">
				<ele>66.0</ele>
				<time>2014-08-17T16:08:36Z</time>
				<extensions>
					<speed>1.25</speed>
				</extensions>
			</trkpt>
			<trkpt lat="53.26511409" lon="-8.93307117">
				<ele>67.0</ele>
				<time>2014-08-17T16:08:37Z</time>
				<extensions>
					<speed>1.25</speed>
				</extensions>
			</trkpt>
			<trkpt lat="53.26512456" lon="-8.93308145">
				<ele>68.0</ele>
				<time>2014-08-17T16:08:38Z</time>
				<extensions>
					<speed>1.75</speed>
				</extensions>
			</trkpt>
			<trkpt lat="53.26512696" lon="-8.93308608">
				<ele>68.0</ele>
				<time>2014-08-17T16:08:39Z</time>
				<extensions>
					<speed>1.0</speed>
				</extensions>
			</trkpt>
			<trkpt lat="53.26513459" lon="-8.93309445">
				<ele>68.0</ele>
				<time>2014-08-17T16:08:40Z</time>
				<extensions>
					<speed>0.5</speed>
				</extensions>
			</trkpt>
			<trkpt lat="53.26512735" lon="-8.93309986">
				<ele>68.0</ele>
				<time>2014-08-17T16:08:41Z</time>
				<extensions>
					<speed>0.5</speed>
				</extensions>
			</trkpt>
			<trkpt lat="53.26512919" lon="-8.93309811">
				<ele>67.0</ele>
				<time>2014-08-17T16:08:42Z</time>
				<extensions>
					<speed>0.25</speed>
				</extensions>
			</trkpt>
			<trkpt lat="53.26513483" lon="-8.93310056">
				<ele>66.0</ele>
				<time>2014-08-17T16:08:43Z</time>
				<extensions>
					<speed>0.0</speed>
				</extensions>
			</trkpt>
			<trkpt lat="53.26514751" lon="-8.93309363">
				<ele>64.0</ele>
				<time>2014-08-17T16:08:44Z</time>
				<extensions>
					<speed>0.75</speed>
				</extensions>
			</trkpt>
			<trkpt lat="53.26517167" lon="-8.93310235">
				<ele>65.0</ele>
				<time>2014-08-17T16:08:45Z</time>
				<extensions>
					<speed>2.25</speed>
				</extensions>
			</trkpt>
			<trkpt lat="53.26519674" lon="-8.93310899">
				<ele>65.0</ele>
				<time>2014-08-17T16:08:46Z</time>
				<extensions>
					<speed>2.5</speed>
				</extensions>
			</trkpt>
			<trkpt lat="53.26522673" lon="-8.93312253">
				<ele>65.0</ele>
				<time>2014-08-17T16:08:47Z</time>
				<extensions>
					<speed>2.5</speed>
				</extensions>
			</trkpt>
			<trkpt lat="53.26523978" lon="-8.93313458">
				<ele>64.0</ele>
				<time>2014-08-17T16:08:48Z</time>
				<extensions>
					<speed>2.5</speed>
				</extensions>
			</trkpt>
			<trkpt lat="53.26526736" lon="-8.93310724">
				<ele>62.0</ele>
				<time>2014-08-17T16:08:49Z</time>
				<extensions>
					<speed>1.5</speed>
				</extensions>
			</trkpt>
			<trkpt lat="53.26527538" lon="-8.93311034">
				<ele>62.0</ele>
				<time>2014-08-17T16:08:50Z</time>
				<extensions>
					<speed>1.0</speed>
				</extensions>
			</trkpt>
			<trkpt lat="53.26528208" lon="-8.93311318">
				<ele>61.0</ele>
				<time>2014-08-17T16:08:51Z</time>
				<extensions>
					<speed>1.0</speed>
				</extensions>
			</trkpt>
			<trkpt lat="53.26528183" lon="-8.93311405">
				<ele>63.0</ele>
				<time>2014-08-17T16:08:52Z</time>
				<extensions>
					<speed>0.75</speed>
				</extensions>
			</trkpt>
			<trkpt lat="53.26528868" lon="-8.93311256">
				<ele>64.0</ele>
				<time>2014-08-17T16:08:53Z</time>
				<extensions>
					<speed>0.75</speed>
				</extensions>
			</trkpt>
			<trkpt lat="53.26528988" lon="-8.93311779">
				<ele>64.0</ele>
				<time>2014-08-17T16:08:54Z</time>
				<extensions>
					<speed>1.0</speed>
				</extensions>
			</trkpt>
			<trkpt lat="53.26528627" lon="-8.93313311">
				<ele>65.0</ele>
				<time>2014-08-17T16:08:55Z</time>
				<extensions>
					<speed>1.0</speed>
				</extensions>
			</trkpt>
			<trkpt lat="53.26529533" lon="-8.93313029">
				<ele>66.0</ele>
				<time>2014-08-17T16:08:56Z</time>
				<extensions>
					<speed>1.0</speed>
				</extensions>
			</trkpt>
			<trkpt lat="53.2652988" lon="-8.93313861">
				<ele>66.0</ele>
				<time>2014-08-17T16:08:57Z</time>
				<extensions>
					<speed>0.5</speed>
				</extensions>
			</trkpt>
			<trkpt lat="53.26530239" lon="-8.93314125">
				<ele>65.0</ele>
				<time>2014-08-17T16:08:58Z</time>
				<extensions>
					<speed>0.5</speed>
				</extensions>
			</trkpt>
			<trkpt lat="53.26529712" lon="-8.9331329">
				<ele>65.0</ele>
				<time>2014-08-17T16:08:59Z</time>
				<extensions>
					<speed>0.75</speed>
				</extensions>
			</trkpt>
			<trkpt lat="53.26529678" lon="-8.93312678">
				<ele>65.0</ele>
				<time>2014-08-17T16:09:00Z</time>
				<extensions>
					<speed>0.0</speed>
				</extensions>
			</trkpt>
			<trkpt lat="53.26529597" lon="-8.93312825">
				<ele>65.0</ele>
				<time>2014-08-17T16:09:01Z</time>
				<extensions>
					<speed>0.0</speed>
				</extensions>
			</trkpt>
			<trkpt lat="53.26529834" lon="-8.93313039">
				<ele>65.0</ele>
				<time>2014-08-17T16:09:02Z</time>
				<extensions>
					<speed>0.0</speed>
				</extensions>
			</trkpt>
			<trkpt lat="53.26529834" lon="-8.93313039">
				<ele>65.0</ele>
				<time>2014-08-17T16:09:03Z</time>
				<extensions>
					<speed>0.0</speed>
				</extensions>
			</trkpt>
			<trkpt lat="53.26529866" lon="-8.93313126">
				<ele>65.0</ele>
				<time>2014-08-17T16:09:04Z</time>
				<extensions>
					<speed>0.0</speed>
				</extensions>
			</trkpt>
			<trkpt lat="53.26530645" lon="-8.93312863">
				<ele>65.0</ele>
				<time>2014-08-17T16:09:05Z</time>
				<extensions>
					<speed>0.0</speed>
				</extensions>
			</trkpt>
			<trkpt lat="53.26531939" lon="-8.93313564">
				<ele>65.0</ele>
				<time>2014-08-17T16:09:06Z</time>
				<extensions>
					<speed>0.0</speed>
				</extensions>
			</trkpt>
			<trkpt lat="53.26532792" lon="-8.93313761">
				<ele>65.0</ele>
				<time>2014-08-17T16:09:07Z</time>
				<extensions>
					<speed>0.0</speed>
				</extensions>
			</trkpt>
			<trkpt lat="53.26532969" lon="-8.93313577">
				<ele>65.0</ele>
				<time>2014-08-17T16:09:08Z</time>
				<extensions>
					<speed>0.0</speed>
				</extensions>
			</trkpt>
			<trkpt lat="53.26533913" lon="-8.93313963">
				<ele>65.0</ele>
				<time>2014-08-17T16:09:09Z</time>
				<extensions>
					<speed>0.0</speed>
				</extensions>
			</trkpt>
			<trkpt lat="53.26534468" lon="-8.93314224">
				<ele>65.0</ele>
				<time>2014-08-17T16:09:10Z</time>
				<extensions>
					<speed>0.0</speed>
				</extensions>
			</trkpt>
			<trkpt lat="53.26535245" lon="-8.9331452">
				<ele>64.0</ele>
				<time>2014-08-17T16:09:11Z</time>
				<extensions>
					<speed>0.0</speed>
				</extensions>
			</trkpt>
			<trkpt lat="53.26535392" lon="-8.93314315">
				<ele>64.0</ele>
				<time>2014-08-17T16:09:12Z</time>
				<extensions>
					<speed>0.0</speed>
				</extensions>
			</trkpt>
			<trkpt lat="53.26535415" lon="-8.93314287">
				<ele>64.0</ele>
				<time>2014-08-17T16:09:13Z</time>
				<extensions>
					<speed>0.0</speed>
				</extensions>
			</trkpt>
			<trkpt lat="53.26535367" lon="-8.9331443">
				<ele>64.0</ele>
				<time>2014-08-17T16:09:14Z</time>
				<extensions>
					<speed>0.0</speed>
				</extensions>
			</trkpt>
			<trkpt lat="53.26535466" lon="-8.93314448">
				<ele>64.0</ele>
				<time>2014-08-17T16:09:15Z</time>
				<extensions>
					<speed>0.0</speed>
				</extensions>
			</trkpt>
			<trkpt lat="53.26535527" lon="-8.93314533">
				<ele>64.0</ele>
				<time>2014-08-17T16:09:16Z</time>
				<extensions>
					<speed>0.0</speed>
				</extensions>
			</trkpt>
			<trkpt lat="53.26535535" lon="-8.93314533">
				<ele>64.0</ele>
				<time>2014-08-17T16:09:17Z</time>
				<extensions>
					<speed>0.0</speed>
				</extensions>
			</trkpt>
			<trkpt lat="53.26535622" lon="-8.93314626">
				<ele>64.0</ele>
				<time>2014-08-17T16:09:18Z</time>
				<extensions>
					<speed>0.0</speed>
				</extensions>
			</trkpt>
			<trkpt lat="53.26535641" lon="-8.93314648">
				<ele>64.0</ele>
				<time>2014-08-17T16:09:19Z</time>
				<extensions>
					<speed>0.0</speed>
				</extensions>
			</trkpt>
			<trkpt lat="53.26535654" lon="-8.93314662">
				<ele>64.0</ele>
				<time>2014-08-17T16:09:20Z</time>
				<extensions>
					<speed>0.0</speed>
				</extensions>
			</trkpt>
			<trkpt lat="53.2653566" lon="-8.93314666">
				<ele>64.0</ele>
				<time>2014-08-17T16:09:21Z</time>
				<extensions>
					<speed>0.0</speed>
				</extensions>
			</trkpt>
			<trkpt lat="53.26535666" lon="-8.93314664">
				<ele>64.0</ele>
				<time>2014-08-17T16:09:22Z</time>
				<extensions>
					<speed>0.0</speed>
				</extensions>
			</trkpt>
			<trkpt lat="53.26535638" lon="-8.93314763">
				<ele>64.0</ele>
				<time>2014-08-17T16:09:23Z</time>
				<extensions>
					<speed>0.0</speed>
				</extensions>
			</trkpt>
			<trkpt lat="53.26534375" lon="-8.93313885">
				<ele>64.0</ele>
				<time>2014-08-17T16:09:24Z</time>
				<extensions>
					<speed>0.0</speed>
				</extensions>
			</trkpt>
			<trkpt lat="53.26533289" lon="-8.93313167">
				<ele>63.0</ele>
				<time>2014-08-17T16:09:25Z</time>
				<extensions>
					<speed>0.0</speed>
				</extensions>
			</trkpt>
			<trkpt lat="53.2653248" lon="-8.93312653">
				<ele>62.0</ele>
				<time>2014-08-17T16:09:26Z</time>
				<extensions>
					<speed>0.0</speed>
				</extensions>
			</trkpt>
			<trkpt lat="53.26532517" lon="-8.93312602">
				<ele>62.0</ele>
				<time>2014-08-17T16:09:27Z</time>
				<extensions>
					<speed>0.0</speed>
				</extensions>
			</trkpt>
			<trkpt lat="53.2653252" lon="-8.93312079">
				<ele>63.0</ele>
				<time>2014-08-17T16:09:28Z</time>
				<extensions>
					<speed>0.0</speed>
				</extensions>
			</trkpt>
			<trkpt lat="53.26532672" lon="-8.93312167">
				<ele>63.0</ele>
				<time>2014-08-17T16:09:29Z</time>
				<extensions>
					<speed>0.0</speed>
				</extensions>
			</trkpt>
			<trkpt lat="53.26532096" lon="-8.93311669">
				<ele>63.0</ele>
				<time>2014-08-17T16:09:30Z</time>
				<extensions>
					<speed>0.0</speed>
				</extensions>
			</trkpt>
			<trkpt lat="53.26531953" lon="-8.93311446">
				<ele>63.0</ele>
				<time>2014-08-17T16:09:31Z</time>
				<extensions>
					<speed>0.0</speed>
				</extensions>
			</trkpt>
			<trkpt lat="53.26532086" lon="-8.93311325">
				<ele>64.0</ele>
				<time>2014-08-17T16:09:32Z</time>
				<extensions>
					<speed>0.0</speed>
				</extensions>
			</trkpt>
			<trkpt lat="53.26531944" lon="-8.93311241">
				<ele>64.0</ele>
				<time>2014-08-17T16:09:33Z</time>
				<extensions>
					<speed>0.0</speed>
				</extensions>
			</trkpt>
			<trkpt lat="53.26531871" lon="-8.93311259">
				<ele>64.0</ele>
				<time>2014-08-17T16:09:34Z</time>
				<extensions>
					<speed>0.0</speed>
				</extensions>
			</trkpt>
			<trkpt lat="53.26531844" lon="-8.93311266">
				<ele>64.0</ele>
				<time>2014-08-17T16:09:35Z</time>
				<extensions>
					<speed>0.0</speed>
				</extensions>
			</trkpt>
			<trkpt lat="53.2653184" lon="-8.93311223">
				<ele>64.0</ele>
				<time>2014-08-17T16:09:36Z</time>
				<extensions>
					<speed>0.0</speed>
				</extensions>
			</trkpt>
			<trkpt lat="53.26531823" lon="-8.93311206">
				<ele>64.0</ele>
				<time>2014-08-17T16:09:37Z</time>
				<extensions>
					<speed>0.0</speed>
				</extensions>
			</trkpt>
			<trkpt lat="53.26531819" lon="-8.93311201">
				<ele>64.0</ele>
				<time>2014-08-17T16:09:38Z</time>
				<extensions>
					<speed>0.0</speed>
				</extensions>
			</trkpt>
			<trkpt lat="53.26531821" lon="-8.93311202">
				<ele>64.0</ele>
				<time>2014-08-17T16:09:39Z</time>
				<extensions>
					<speed>0.0</speed>
				</extensions>
			</trkpt>
			<trkpt lat="53.26531824" lon="-8.93311205">
				<ele>64.0</ele>
				<time>2014-08-17T16:09:40Z</time>
				<extensions>
					<speed>0.0</speed>
				</extensions>
			</trkpt>
			<trkpt lat="53.26531732" lon="-8.93311218">
				<ele>64.0</ele>
				<time>2014-08-17T16:09:41Z</time>
				<extensions>
					<speed>0.25</speed>
				</extensions>
			</trkpt>
			<trkpt lat="53.26531384" lon="-8.93311097">
				<ele>65.0</ele>
				<time>2014-08-17T16:09:42Z</time>
				<extensions>
					<speed>0.0</speed>
				</extensions>
			</trkpt>
			<trkpt lat="53.26531119" lon="-8.93310768">
				<ele>65.0</ele>
				<time>2014-08-17T16:09:43Z</time>
				<extensions>
					<speed>0.0</speed>
				</extensions>
			</trkpt>
			<trkpt lat="53.26531349" lon="-8.93310921">
				<ele>65.0</ele>
				<time>2014-08-17T16:09:44Z</time>
				<extensions>
					<speed>0.0</speed>
				</extensions>
			</trkpt>
			<trkpt lat="53.265314" lon="-8.93311017">
				<ele>65.0</ele>
				<time>2014-08-17T16:09:45Z</time>
				<extensions>
					<speed>0.0</speed>
				</extensions>
			</trkpt>
			<trkpt lat="53.26530932" lon="-8.93310907">
				<ele>65.0</ele>
				<time>2014-08-17T16:09:46Z</time>
				<extensions>
					<speed>0.0</speed>
				</extensions>
			</trkpt>
			<trkpt lat="53.26530722" lon="-8.93310788">
				<ele>64.0</ele>
				<time>2014-08-17T16:09:47Z</time>
				<extensions>
					<speed>0.0</speed>
				</extensions>
			</trkpt>
			<trkpt lat="53.26530691" lon="-8.93310436">
				<ele>64.0</ele>
				<time>2014-08-17T16:09:48Z</time>
				<extensions>
					<speed>0.5</speed>
				</extensions>
			</trkpt>
			<trkpt lat="53.26530682" lon="-8.93309949">
				<ele>64.0</ele>
				<time>2014-08-17T16:09:49Z</time>
				<extensions>
					<speed>0.75</speed>
				</extensions>
			</trkpt>
			<trkpt lat="53.26530776" lon="-8.93309106">
				<ele>65.0</ele>
				<time>2014-08-17T16:09:50Z</time>
				<extensions>
					<speed>0.75</speed>
				</extensions>
			</trkpt>
			<trkpt lat="53.26530904" lon="-8.9330776">
				<ele>65.0</ele>
				<time>2014-08-17T16:09:51Z</time>
				<extensions>
					<speed>1.0</speed>
				</extensions>
			</trkpt>
			<trkpt lat="53.26531539" lon="-8.93306543">
				<ele>65.0</ele>
				<time>2014-08-17T16:09:52Z</time>
				<extensions>
					<speed>1.0</speed>
				</extensions>
			</trkpt>
			<trkpt lat="53.26531012" lon="-8.93305175">
				<ele>65.0</ele>
				<time>2014-08-17T16:09:53Z</time>
				<extensions>
					<speed>0.75</speed>
				</extensions>
			</trkpt>
			<trkpt lat="53.26531095" lon="-8.93304042">
				<ele>64.0</ele>
				<time>2014-08-17T16:09:54Z</time>
				<extensions>
					<speed>0.75</speed>
				</extensions>
			</trkpt>
			<trkpt lat="53.26531316" lon="-8.93303083">
				<ele>64.0</ele>
				<time>2014-08-17T16:09:55Z</time>
				<extensions>
					<speed>0.5</speed>
				</extensions>
			</trkpt>
			<trkpt lat="53.26531401" lon="-8.93302847">
				<ele>64.0</ele>
				<time>2014-08-17T16:09:56Z</time>
				<extensions>
					<speed>0.25</speed>
				</extensions>
			</trkpt>
			<trkpt lat="53.26531452" lon="-8.93302982">
				<ele>65.0</ele>
				<time>2014-08-17T16:09:57Z</time>
				<extensions>
					<speed>0.0</speed>
				</extensions>
			</trkpt>
			<trkpt lat="53.26531109" lon="-8.93303264">
				<ele>65.0</ele>
				<time>2014-08-17T16:09:58Z</time>
				<extensions>
					<speed>0.75</speed>
				</extensions>
			</trkpt>
			<trkpt lat="53.26529715" lon="-8.93304111">
				<ele>65.0</ele>
				<time>2014-08-17T16:09:59Z</time>
				<extensions>
					<speed>1.5</speed>
				</extensions>
			</trkpt>
			<trkpt lat="53.26527599" lon="-8.9330483">
				<ele>65.0</ele>
				<time>2014-08-17T16:10:00Z</time>
				<extensions>
					<speed>2.25</speed>
				</extensions>
			</trkpt>
			<trkpt lat="53.26525131" lon="-8.93305525">
				<ele>65.0</ele>
				<time>2014-08-17T16:10:01Z</time>
				<extensions>
					<speed>3.0</speed>
				</extensions>
			</trkpt>
			<trkpt lat="53.26521545" lon="-8.9330643">
				<ele>65.0</ele>
				<time>2014-08-17T16:10:02Z</time>
				<extensions>
					<speed>3.75</speed>
				</extensions>
			</trkpt>
			<trkpt lat="53.26517302" lon="-8.9330743">
				<ele>64.0</ele>
				<time>2014-08-17T16:10:03Z</time>
				<extensions>
					<speed>4.0</speed>
				</extensions>
			</trkpt>
			<trkpt lat="53.26513421" lon="-8.93308201">
				<ele>63.0</ele>
				<time>2014-08-17T16:10:04Z</time>
				<extensions>
					<speed>4.0</speed>
				</extensions>
			</trkpt>
			<trkpt lat="53.26509848" lon="-8.93309031">
				<ele>64.0</ele>
				<time>2014-08-17T16:10:05Z</time>
				<extensions>
					<speed>3.75</speed>
				</extensions>
			</trkpt>
			<trkpt lat="53.26506806" lon="-8.93308955">
				<ele>63.0</ele>
				<time>2014-08-17T16:10:06Z</time>
				<extensions>
					<speed>3.5</speed>
				</extensions>
			</trkpt>
			<trkpt lat="53.26503541" lon="-8.93306519">
				<ele>63.0</ele>
				<time>2014-08-17T16:10:07Z</time>
				<extensions>
					<speed>3.75</speed>
				</extensions>
			</trkpt>
			<trkpt lat="53.26500579" lon="-8.93302142">
				<ele>63.0</ele>
				<time>2014-08-17T16:10:08Z</time>
				<extensions>
					<speed>4.25</speed>
				</extensions>
			</trkpt>
			<trkpt lat="53.2649788" lon="-8.93296562">
				<ele>62.0</ele>
				<time>2014-08-17T16:10:09Z</time>
				<extensions>
					<speed>5.0</speed>
				</extensions>
			</trkpt>
			<trkpt lat="53.26495615" lon="-8.93289343">
				<ele>62.0</ele>
				<time>2014-08-17T16:10:10Z</time>
				<extensions>
					<speed>5.75</speed>
				</extensions>
			</trkpt>
			<trkpt lat="53.26492315" lon="-8.93281308">
				<ele>63.0</ele>
				<time>2014-08-17T16:10:11Z</time>
				<extensions>
					<speed>6.5</speed>
				</extensions>
			</trkpt>
			<trkpt lat="53.26489673" lon="-8.93272006">
				<ele>63.0</ele>
				<time>2014-08-17T16:10:12Z</time>
				<extensions>
					<speed>7.0</speed>
				</extensions>
			</trkpt>
			<trkpt lat="53.264866" lon="-8.93263503">
				<ele>63.0</ele>
				<time>2014-08-17T16:10:13Z</time>
				<extensions>
					<speed>7.0</speed>
				</extensions>
			</trkpt>
			<trkpt lat="53.26482614" lon="-8.93255911">
				<ele>63.0</ele>
				<time>2014-08-17T16:10:14Z</time>
				<extensions>
					<speed>6.75</speed>
				</extensions>
			</trkpt>
			<trkpt lat="53.26477814" lon="-8.93250185">
				<ele>63.0</ele>
				<time>2014-08-17T16:10:15Z</time>
				<extensions>
					<speed>6.5</speed>
				</extensions>
			</trkpt>
			<trkpt lat="53.26472294" lon="-8.93248834">
				<ele>63.0</ele>
				<time>2014-08-17T16:10:16Z</time>
				<extensions>
					<speed>6.0</speed>
				</extensions>
			</trkpt>
			<trkpt lat="53.26466749" lon="-8.93249945">
				<ele>63.0</ele>
				<time>2014-08-17T16:10:17Z</time>
				<extensions>
					<speed>6.0</speed>
				</extensions>
			</trkpt>
			<trkpt lat="53.26461683" lon="-8.93252418">
				<ele>63.0</ele>
				<time>2014-08-17T16:10:18Z</time>
				<extensions>
					<speed>5.75</speed>
				</extensions>
			</trkpt>
			<trkpt lat="53.26458016" lon="-8.93254755">
				<ele>63.0</ele>
				<time>2014-08-17T16:10:19Z</time>
				<extensions>
					<speed>5.25</speed>
				</extensions>
			</trkpt>
			<trkpt lat="53.26453339" lon="-8.93256985">
				<ele>64.0</ele>
				<time>2014-08-17T16:10:20Z</time>
				<extensions>
					<speed>4.75</speed>
				</extensions>
			</trkpt>
			<trkpt lat="53.26449659" lon="-8.93260005">
				<ele>63.0</ele>
				<time>2014-08-17T16:10:21Z</time>
				<extensions>
					<speed>4.25</speed>
				</extensions>
			</trkpt>
			<trkpt lat="53.26446557" lon="-8.93261586">
				<ele>64.0</ele>
				<time>2014-08-17T16:10:22Z</time>
				<extensions>
					<speed>3.5</speed>
				</extensions>
			</trkpt>
			<trkpt lat="53.26444165" lon="-8.93262087">
				<ele>64.0</ele>
				<time>2014-08-17T16:10:23Z</time>
				<extensions>
					<speed>2.25</speed>
				</extensions>
			</trkpt>
			<trkpt lat="53.26441412" lon="-8.93261761">
				<ele>63.0</ele>
				<time>2014-08-17T16:10:24Z</time>
				<extensions>
					<speed>2.0</speed>
				</extensions>
			</trkpt>
			<trkpt lat="53.26439846" lon="-8.93260995">
				<ele>63.0</ele>
				<time>2014-08-17T16:10:25Z</time>
				<extensions>
					<speed>2.0</speed>
				</extensions>
			</trkpt>
			<trkpt lat="53.26437495" lon="-8.9326094">
				<ele>63.0</ele>
				<time>2014-08-17T16:10:26Z</time>
				<extensions>
					<speed>2.25</speed>
				</extensions>
			</trkpt>
			<trkpt lat="53.26435104" lon="-8.93260868">
				<ele>63.0</ele>
				<time>2014-08-17T16:10:27Z</time>
				<extensions>
					<speed>2.5</speed>
				</extensions>
			</trkpt>
			<trkpt lat="53.26433201" lon="-8.93260068">
				<ele>64.0</ele>
				<time>2014-08-17T16:10:28Z</time>
				<extensions>
					<speed>2.75</speed>
				</extensions>
			</trkpt>
			<trkpt lat="53.26431692" lon="-8.93258436">
				<ele>63.0</ele>
				<time>2014-08-17T16:10:29Z</time>
				<extensions>
					<speed>2.75</speed>
				</extensions>
			</trkpt>
			<trkpt lat="53.26429745" lon="-8.93255785">
				<ele>63.0</ele>
				<time>2014-08-17T16:10:30Z</time>
				<extensions>
					<speed>2.75</speed>
				</extensions>
			</trkpt>
			<trkpt lat="53.26427798" lon="-8.93253134">
				<ele>63.0</ele>
				<time>2014-08-17T16:10:31Z</time>
				<extensions>
					<speed>2.75</speed>
				</extensions>
			</trkpt>
			<trkpt lat="53.26427174" lon="-8.93249304">
				<ele>64.0</ele>
				<time>2014-08-17T16:10:32Z</time>
				<extensions>
					<speed>2.75</speed>
				</extensions>
			</trkpt>
			<trkpt lat="53.26426453" lon="-8.93246389">
				<ele>64.0</ele>
				<time>2014-08-17T16:10:33Z</time>
				<extensions>
					<speed>2.25</speed>
				</extensions>
			</trkpt>
			<trkpt lat="53.26425151" lon="-8.93243923">
				<ele>63.0</ele>
				<time>2014-08-17T16:10:34Z</time>
				<extensions>
					<speed>1.5</speed>
				</extensions>
			</trkpt>
			<trkpt lat="53.26425209" lon="-8.93242259">
				<ele>63.0</ele>
				<time>2014-08-17T16:10:35Z</time>
				<extensions>
					<speed>1.0</speed>
				</extensions>
			</trkpt>
			<trkpt lat="53.26425115" lon="-8.93240871">
				<ele>63.0</ele>
				<time>2014-08-17T16:10:36Z</time>
				<extensions>
					<speed>1.0</speed>
				</extensions>
			</trkpt>
			<trkpt lat="53.26422933" lon="-8.9323739">
				<ele>64.0</ele>
				<time>2014-08-17T16:10:37Z</time>
				<extensions>
					<speed>2.0</speed>
				</extensions>
			</trkpt>
			<trkpt lat="53.26422034" lon="-8.93234437">
				<ele>64.0</ele>
				<time>2014-08-17T16:10:38Z</time>
				<extensions>
					<speed>2.25</speed>
				</extensions>
			</trkpt>
			<trkpt lat="53.26421524" lon="-8.93232423">
				<ele>63.0</ele>
				<time>2014-08-17T16:10:39Z</time>
				<extensions>
					<speed>2.25</speed>
				</extensions>
			</trkpt>
			<trkpt lat="53.2641986" lon="-8.93229471">
				<ele>63.0</ele>
				<time>2014-08-17T16:10:40Z</time>
				<extensions>
					<speed>2.0</speed>
				</extensions>
			</trkpt>
			<trkpt lat="53.26419222" lon="-8.93226601">
				<ele>63.0</ele>
				<time>2014-08-17T16:10:41Z</time>
				<extensions>
					<speed>2.0</speed>
				</extensions>
			</trkpt>
			<trkpt lat="53.26418553" lon="-8.93224637">
				<ele>64.0</ele>
				<time>2014-08-17T16:10:42Z</time>
				<extensions>
					<speed>1.75</speed>
				</extensions>
			</trkpt>
			<trkpt lat="53.26416847" lon="-8.93224097">
				<ele>64.0</ele>
				<time>2014-08-17T16:10:43Z</time>
				<extensions>
					<speed>0.75</speed>
				</extensions>
			</trkpt>
			<trkpt lat="53.26416048" lon="-8.93223406">
				<ele>64.0</ele>
				<time>2014-08-17T16:10:44Z</time>
				<extensions>
					<speed>0.0</speed>
				</extensions>
			</trkpt>
			<trkpt lat="53.26415937" lon="-8.93223704">
				<ele>64.0</ele>
				<time>2014-08-17T16:10:45Z</time>
				<extensions>
					<speed>0.0</speed>
				</extensions>
			</trkpt>
			<trkpt lat="53.26415452" lon="-8.93224725">
				<ele>64.0</ele>
				<time>2014-08-17T16:10:46Z</time>
				<extensions>
					<speed>0.0</speed>
				</extensions>
			</trkpt>
			<trkpt lat="53.26415452" lon="-8.93224725">
				<ele>64.0</ele>
				<time>2014-08-17T16:10:47Z</time>
				<extensions>
					<speed>0.0</speed>
				</extensions>
			</trkpt>
			<trkpt lat="53.26415135" lon="-8.93224832">
				<ele>64.0</ele>
				<time>2014-08-17T16:10:48Z</time>
				<extensions>
					<speed>0.0</speed>
				</extensions>
			</trkpt>
			<trkpt lat="53.26415034" lon="-8.93225083">
				<ele>64.0</ele>
				<time>2014-08-17T16:10:49Z</time>
				<extensions>
					<speed>0.0</speed>
				</extensions>
			</trkpt>
			<trkpt lat="53.26414694" lon="-8.93225391">
				<ele>63.0</ele>
				<time>2014-08-17T16:10:50Z</time>
				<extensions>
					<speed>0.0</speed>
				</extensions>
			</trkpt>
			<trkpt lat="53.26414694" lon="-8.93225391">
				<ele>63.0</ele>
				<time>2014-08-17T16:10:51Z</time>
				<extensions>
					<speed>0.0</speed>
				</extensions>
			</trkpt>
			<trkpt lat="53.26414451" lon="-8.93226244">
				<ele>63.0</ele>
				<time>2014-08-17T16:10:52Z</time>
				<extensions>
					<speed>0.0</speed>
				</extensions>
			</trkpt>
			<trkpt lat="53.26414087" lon="-8.93225747">
				<ele>63.0</ele>
				<time>2014-08-17T16:10:53Z</time>
				<extensions>
					<speed>0.0</speed>
				</extensions>
			</trkpt>
			<trkpt lat="53.26414087" lon="-8.93225747">
				<ele>63.0</ele>
				<time>2014-08-17T16:10:54Z</time>
				<extensions>
					<speed>0.0</speed>
				</extensions>
			</trkpt>
			<trkpt lat="53.26414097" lon="-8.93226054">
				<ele>63.0</ele>
				<time>2014-08-17T16:10:55Z</time>
				<extensions>
					<speed>0.0</speed>
				</extensions>
			</trkpt>
			<trkpt lat="53.26414066" lon="-8.93226087">
				<ele>63.0</ele>
				<time>2014-08-17T16:10:56Z</time>
				<extensions>
					<speed>0.0</speed>
				</extensions>
			</trkpt>
			<trkpt lat="53.26414078" lon="-8.93226127">
				<ele>63.0</ele>
				<time>2014-08-17T16:10:57Z</time>
				<extensions>
					<speed>0.25</speed>
				</extensions>
			</trkpt>
			<trkpt lat="53.26414168" lon="-8.93226416">
				<ele>63.0</ele>
				<time>2014-08-17T16:10:58Z</time>
				<extensions>
					<speed>0.25</speed>
				</extensions>
			</trkpt>
			<trkpt lat="53.26412842" lon="-8.93227711">
				<ele>62.0</ele>
				<time>2014-08-17T16:10:59Z</time>
				<extensions>
					<speed>0.0</speed>
				</extensions>
			</trkpt>
			<trkpt lat="53.26412842" lon="-8.93227711">
				<ele>62.0</ele>
				<time>2014-08-17T16:11:00Z</time>
				<extensions>
					<speed>0.0</speed>
				</extensions>
			</trkpt>
			<trkpt lat="53.26412149" lon="-8.93227009">
				<ele>62.0</ele>
				<time>2014-08-17T16:11:01Z</time>
				<extensions>
					<speed>0.0</speed>
				</extensions>
			</trkpt>
			<trkpt lat="53.26411531" lon="-8.9322655">
				<ele>62.0</ele>
				<time>2014-08-17T16:11:02Z</time>
				<extensions>
					<speed>0.0</speed>
				</extensions>
			</trkpt>
			<trkpt lat="53.26411564" lon="-8.93226283">
				<ele>62.0</ele>
				<time>2014-08-17T16:11:03Z</time>
				<extensions>
					<speed>0.0</speed>
				</extensions>
			</trkpt>
			<trkpt lat="53.26411564" lon="-8.93226283">
				<ele>62.0</ele>
				<time>2014-08-17T16:11:04Z</time>
				<extensions>
					<speed>0.0</speed>
				</extensions>
			</trkpt>
			<trkpt lat="53.26410793" lon="-8.93225863">
				<ele>62.0</ele>
				<time>2014-08-17T16:11:05Z</time>
				<extensions>
					<speed>0.0</speed>
				</extensions>
			</trkpt>
			<trkpt lat="53.26410495" lon="-8.9322551">
				<ele>62.0</ele>
				<time>2014-08-17T16:11:06Z</time>
				<extensions>
					<speed>0.0</speed>
				</extensions>
			</trkpt>
			<trkpt lat="53.26410495" lon="-8.9322551">
				<ele>62.0</ele>
				<time>2014-08-17T16:11:07Z</time>
				<extensions>
					<speed>0.0</speed>
				</extensions>
			</trkpt>
			<trkpt lat="53.26410138" lon="-8.932258">
				<ele>62.0</ele>
				<time>2014-08-17T16:11:08Z</time>
				<extensions>
					<speed>0.0</speed>
				</extensions>
			</trkpt>
			<trkpt lat="53.26410057" lon="-8.93225815">
				<ele>62.0</ele>
				<time>2014-08-17T16:11:09Z</time>
				<extensions>
					<speed>0.0</speed>
				</extensions>
			</trkpt>
			<trkpt lat="53.26410057" lon="-8.93225815">
				<ele>62.0</ele>
				<time>2014-08-17T16:11:10Z</time>
				<extensions>
					<speed>0.0</speed>
				</extensions>
			</trkpt>
			<trkpt lat="53.26410085" lon="-8.93225851">
				<ele>62.0</ele>
				<time>2014-08-17T16:11:11Z</time>
				<extensions>
					<speed>0.0</speed>
				</extensions>
			</trkpt>
			<trkpt lat="53.26410096" lon="-8.93225822">
				<ele>62.0</ele>
				<time>2014-08-17T16:11:12Z</time>
				<extensions>
					<speed>0.0</speed>
				</extensions>
			</trkpt>
			<trkpt lat="53.26410107" lon="-8.93225801">
				<ele>62.0</ele>
				<time>2014-08-17T16:11:13Z</time>
				<extensions>
					<speed>0.0</speed>
				</extensions>
			</trkpt>
			<trkpt lat="53.26410116" lon="-8.93225785">
				<ele>62.0</ele>
				<time>2014-08-17T16:11:14Z</time>
				<extensions>
					<speed>0.0</speed>
				</extensions>
			</trkpt>
			<trkpt lat="53.26410164" lon="-8.93225854">
				<ele>62.0</ele>
				<time>2014-08-17T16:11:15Z</time>
				<extensions>
					<speed>0.5</speed>
				</extensions>
			</trkpt>
			<trkpt lat="53.26410742" lon="-8.9322626">
				<ele>63.0</ele>
				<time>2014-08-17T16:11:16Z</time>
				<extensions>
					<speed>0.0</speed>
				</extensions>
			</trkpt>
			<trkpt lat="53.26410437" lon="-8.93226053">
				<ele>63.0</ele>
				<time>2014-08-17T16:11:17Z</time>
				<extensions>
					<speed>0.0</speed>
				</extensions>
			</trkpt>
			<trkpt lat="53.26411026" lon="-8.93225746">
				<ele>63.0</ele>
				<time>2014-08-17T16:11:18Z</time>
				<extensions>
					<speed>0.0</speed>
				</extensions>
			</trkpt>
			<trkpt lat="53.26411277" lon="-8.93225508">
				<ele>62.0</ele>
				<time>2014-08-17T16:11:19Z</time>
				<extensions>
					<speed>0.0</speed>
				</extensions>
			</trkpt>
			<trkpt lat="53.26411122" lon="-8.93224782">
				<ele>63.0</ele>
				<time>2014-08-17T16:11:20Z</time>
				<extensions>
					<speed>0.0</speed>
				</extensions>
			</trkpt>
			<trkpt lat="53.26410956" lon="-8.93224483">
				<ele>62.0</ele>
				<time>2014-08-17T16:11:21Z</time>
				<extensions>
					<speed>0.0</speed>
				</extensions>
			</trkpt>
			<trkpt lat="53.26410956" lon="-8.93224483">
				<ele>62.0</ele>
				<time>2014-08-17T16:11:22Z</time>
				<extensions>
					<speed>0.0</speed>
				</extensions>
			</trkpt>
			<trkpt lat="53.26410956" lon="-8.93224483">
				<ele>62.0</ele>
				<time>2014-08-17T16:11:23Z</time>
				<extensions>
					<speed>0.0</speed>
				</extensions>
			</trkpt>
			<trkpt lat="53.26412302" lon="-8.93224281">
				<ele>64.0</ele>
				<time>2014-08-17T16:11:24Z</time>
				<extensions>
					<speed>0.0</speed>
				</extensions>
			</trkpt>
			<trkpt lat="53.26413622" lon="-8.93223869">
				<ele>66.0</ele>
				<time>2014-08-17T16:11:25Z</time>
				<extensions>
					<speed>0.0</speed>
				</extensions>
			</trkpt>
			<trkpt lat="53.26414432" lon="-8.93223605">
				<ele>67.0</ele>
				<time>2014-08-17T16:11:26Z</time>
				<extensions>
					<speed>0.0</speed>
				</extensions>
			</trkpt>
			<trkpt lat="53.26414594" lon="-8.93223687">
				<ele>67.0</ele>
				<time>2014-08-17T16:11:27Z</time>
				<extensions>
					<speed>0.0</speed>
				</extensions>
			</trkpt>
			<trkpt lat="53.26414581" lon="-8.93223712">
				<ele>67.0</ele>
				<time>2014-08-17T16:11:28Z</time>
				<extensions>
					<speed>0.0</speed>
				</extensions>
			</trkpt>
			<trkpt lat="53.26414558" lon="-8.9322371">
				<ele>67.0</ele>
				<time>2014-08-17T16:11:29Z</time>
				<extensions>
					<speed>0.0</speed>
				</extensions>
			</trkpt>
			<trkpt lat="53.26414558" lon="-8.9322371">
				<ele>67.0</ele>
				<time>2014-08-17T16:11:30Z</time>
				<extensions>
					<speed>0.0</speed>
				</extensions>
			</trkpt>
			<trkpt lat="53.26414554" lon="-8.93223712">
				<ele>67.0</ele>
				<time>2014-08-17T16:11:31Z</time>
				<extensions>
					<speed>0.0</speed>
				</extensions>
			</trkpt>
			<trkpt lat="53.26414554" lon="-8.93223709">
				<ele>67.0</ele>
				<time>2014-08-17T16:11:32Z</time>
				<extensions>
					<speed>0.0</speed>
				</extensions>
			</trkpt>
			<trkpt lat="53.26414554" lon="-8.93223709">
				<ele>67.0</ele>
				<time>2014-08-17T16:11:33Z</time>
				<extensions>
					<speed>0.0</speed>
				</extensions>
			</trkpt>
			<trkpt lat="53.26414554" lon="-8.93223709">
				<ele>67.0</ele>
				<time>2014-08-17T16:11:34Z</time>
				<extensions>
					<speed>0.0</speed>
				</extensions>
			</trkpt>
			<trkpt lat="53.26414554" lon="-8.93223709">
				<ele>67.0</ele>
				<time>2014-08-17T16:11:35Z</time>
				<extensions>
					<speed>0.0</speed>
				</extensions>
			</trkpt>
			<trkpt lat="53.2641554" lon="-8.93223465">
				<ele>69.0</ele>
				<time>2014-08-17T16:11:36Z</time>
				<extensions>
					<speed>0.0</speed>
				</extensions>
			</trkpt>
			<trkpt lat="53.2641554" lon="-8.93223469">
				<ele>69.0</ele>
				<time>2014-08-17T16:11:37Z</time>
				<extensions>
					<speed>0.0</speed>
				</extensions>
			</trkpt>
			<trkpt lat="53.26415541" lon="-8.93223465">
				<ele>69.0</ele>
				<time>2014-08-17T16:11:38Z</time>
				<extensions>
					<speed>0.0</speed>
				</extensions>
			</trkpt>
			<trkpt lat="53.26415541" lon="-8.93223465">
				<ele>69.0</ele>
				<time>2014-08-17T16:11:39Z</time>
				<extensions>
					<speed>0.0</speed>
				</extensions>
			</trkpt>
			<trkpt lat="53.26415544" lon="-8.93223462">
				<ele>69.0</ele>
				<time>2014-08-17T16:11:40Z</time>
				<extensions>
					<speed>0.0</speed>
				</extensions>
			</trkpt>
			<trkpt lat="53.26415542" lon="-8.93223463">
				<ele>69.0</ele>
				<time>2014-08-17T16:11:41Z</time>
				<extensions>
					<speed>0.0</speed>
				</extensions>
			</trkpt>
			<trkpt lat="53.26415541" lon="-8.93223463">
				<ele>69.0</ele>
				<time>2014-08-17T16:11:42Z</time>
				<extensions>
					<speed>0.0</speed>
				</extensions>
			</trkpt>
			<trkpt lat="53.2641554" lon="-8.93223471">
				<ele>69.0</ele>
				<time>2014-08-17T16:11:43Z</time>
				<extensions>
					<speed>0.0</speed>
				</extensions>
			</trkpt>
			<trkpt lat="53.2641554" lon="-8.93223471">
				<ele>69.0</ele>
				<time>2014-08-17T16:11:44Z</time>
				<extensions>
					<speed>0.0</speed>
				</extensions>
			</trkpt>
			<trkpt lat="53.26415539" lon="-8.93223475">
				<ele>69.0</ele>
				<time>2014-08-17T16:11:45Z</time>
				<extensions>
					<speed>0.0</speed>
				</extensions>
			</trkpt>
			<trkpt lat="53.26415539" lon="-8.93223475">
				<ele>69.0</ele>
				<time>2014-08-17T16:11:46Z</time>
				<extensions>
					<speed>0.0</speed>
				</extensions>
			</trkpt>
			<trkpt lat="53.2641554" lon="-8.93223475">
				<ele>69.0</ele>
				<time>2014-08-17T16:11:47Z</time>
				<extensions>
					<speed>0.0</speed>
				</extensions>
			</trkpt>
			<trkpt lat="53.26415547" lon="-8.93223482">
				<ele>69.0</ele>
				<time>2014-08-17T16:11:48Z</time>
				<extensions>
					<speed>0.0</speed>
				</extensions>
			</trkpt>
			<trkpt lat="53.26415613" lon="-8.9322369">
				<ele>69.0</ele>
				<time>2014-08-17T16:11:49Z</time>
				<extensions>
					<speed>0.75</speed>
				</extensions>
			</trkpt>
			<trkpt lat="53.2641628" lon="-8.93224064">
				<ele>69.0</ele>
				<time>2014-08-17T16:11:50Z</time>
				<extensions>
					<speed>0.0</speed>
				</extensions>
			</trkpt>
			<trkpt lat="53.26416958" lon="-8.9322395">
				<ele>68.0</ele>
				<time>2014-08-17T16:11:51Z</time>
				<extensions>
					<speed>0.0</speed>
				</extensions>
			</trkpt>
			<trkpt lat="53.26416799" lon="-8.93223841">
				<ele>68.0</ele>
				<time>2014-08-17T16:11:52Z</time>
				<extensions>
					<speed>1.5</speed>
				</extensions>
			</trkpt>
			<trkpt lat="53.26414864" lon="-8.93223848">
				<ele>69.0</ele>
				<time>2014-08-17T16:11:53Z</time>
				<extensions>
					<speed>2.0</speed>
				</extensions>
			</trkpt>
			<trkpt lat="53.26413646" lon="-8.93225196">
				<ele>68.0</ele>
				<time>2014-08-17T16:11:54Z</time>
				<extensions>
					<speed>1.5</speed>
				</extensions>
			</trkpt>
			<trkpt lat="53.26413121" lon="-8.93225052">
				<ele>68.0</ele>
				<time>2014-08-17T16:11:55Z</time>
				<extensions>
					<speed>0.5</speed>
				</extensions>
			</trkpt>
			<trkpt lat="53.264128" lon="-8.93225265">
				<ele>68.0</ele>
				<time>2014-08-17T16:11:56Z</time>
				<extensions>
					<speed>0.5</speed>
				</extensions>
			</trkpt>
			<trkpt lat="53.2641248" lon="-8.93225478">
				<ele>68.0</ele>
				<time>2014-08-17T16:11:57Z</time>
				<extensions>
					<speed>0.5</speed>
				</extensions>
			</trkpt>
			<trkpt lat="53.26415014" lon="-8.93227689">
				<ele>68.0</ele>
				<time>2014-08-17T16:11:58Z</time>
				<extensions>
					<speed>0.25</speed>
				</extensions>
			</trkpt>
			<trkpt lat="53.26415741" lon="-8.93226843">
				<ele>68.0</ele>
				<time>2014-08-17T16:11:59Z</time>
				<extensions>
					<speed>0.0</speed>
				</extensions>
			</trkpt>
			<trkpt lat="53.26417556" lon="-8.93226716">
				<ele>70.0</ele>
				<time>2014-08-17T16:12:00Z</time>
				<extensions>
					<speed>0.0</speed>
				</extensions>
			</trkpt>
			<trkpt lat="53.26416147" lon="-8.93227768">
				<ele>70.0</ele>
				<time>2014-08-17T16:12:01Z</time>
				<extensions>
					<speed>0.0</speed>
				</extensions>
			</trkpt>
			<trkpt lat="53.26416147" lon="-8.93227768">
				<ele>70.0</ele>
				<time>2014-08-17T16:12:02Z</time>
				<extensions>
					<speed>0.0</speed>
				</extensions>
			</trkpt>
			<trkpt lat="53.26415868" lon="-8.9322873">
				<ele>70.0</ele>
				<time>2014-08-17T16:12:03Z</time>
				<extensions>
					<speed>0.0</speed>
				</extensions>
			</trkpt>
			<trkpt lat="53.26415868" lon="-8.9322873">
				<ele>70.0</ele>
				<time>2014-08-17T16:12:04Z</time>
				<extensions>
					<speed>0.0</speed>
				</extensions>
			</trkpt>
			<trkpt lat="53.26416375" lon="-8.9322772">
				<ele>69.0</ele>
				<time>2014-08-17T16:12:05Z</time>
				<extensions>
					<speed>0.0</speed>
				</extensions>
			</trkpt>
			<trkpt lat="53.26415869" lon="-8.9322815">
				<ele>69.0</ele>
				<time>2014-08-17T16:12:06Z</time>
				<extensions>
					<speed>0.0</speed>
				</extensions>
			</trkpt>
			<trkpt lat="53.26416685" lon="-8.93228105">
				<ele>69.0</ele>
				<time>2014-08-17T16:12:07Z</time>
				<extensions>
					<speed>0.0</speed>
				</extensions>
			</trkpt>
			<trkpt lat="53.26416685" lon="-8.93228105">
				<ele>69.0</ele>
				<time>2014-08-17T16:12:08Z</time>
				<extensions>
					<speed>0.0</speed>
				</extensions>
			</trkpt>
			<trkpt lat="53.26416685" lon="-8.93228105">
				<ele>69.0</ele>
				<time>2014-08-17T16:12:09Z</time>
				<extensions>
					<speed>0.0</speed>
				</extensions>
			</trkpt>
			<trkpt lat="53.26416608" lon="-8.9322764">
				<ele>69.0</ele>
				<time>2014-08-17T16:12:10Z</time>
				<extensions>
					<speed>0.0</speed>
				</extensions>
			</trkpt>
			<trkpt lat="53.26416129" lon="-8.93227915">
				<ele>69.0</ele>
				<time>2014-08-17T16:12:11Z</time>
				<extensions>
					<speed>0.0</speed>
				</extensions>
			</trkpt>
			<trkpt lat="53.26415467" lon="-8.93227814">
				<ele>69.0</ele>
				<time>2014-08-17T16:12:12Z</time>
				<extensions>
					<speed>0.0</speed>
				</extensions>
			</trkpt>
			<trkpt lat="53.26415508" lon="-8.93227821">
				<ele>69.0</ele>
				<time>2014-08-17T16:12:13Z</time>
				<extensions>
					<speed>0.0</speed>
				</extensions>
			</trkpt>
			<trkpt lat="53.26415957" lon="-8.93227826">
				<ele>70.0</ele>
				<time>2014-08-17T16:12:14Z</time>
				<extensions>
					<speed>0.0</speed>
				</extensions>
			</trkpt>
			<trkpt lat="53.26416348" lon="-8.93227748">
				<ele>70.0</ele>
				<time>2014-08-17T16:12:15Z</time>
				<extensions>
					<speed>0.0</speed>
				</extensions>
			</trkpt>
			<trkpt lat="53.26416688" lon="-8.9322768">
				<ele>70.0</ele>
				<time>2014-08-17T16:12:16Z</time>
				<extensions>
					<speed>0.0</speed>
				</extensions>
			</trkpt>
			<trkpt lat="53.26416938" lon="-8.93227634">
				<ele>70.0</ele>
				<time>2014-08-17T16:12:17Z</time>
				<extensions>
					<speed>0.0</speed>
				</extensions>
			</trkpt>
			<trkpt lat="53.2641693" lon="-8.93227802">
				<ele>70.0</ele>
				<time>2014-08-17T16:12:18Z</time>
				<extensions>
					<speed>1.0</speed>
				</extensions>
			</trkpt>
			<trkpt lat="53.26417301" lon="-8.93229766">
				<ele>70.0</ele>
				<time>2014-08-17T16:12:19Z</time>
				<extensions>
					<speed>2.0</speed>
				</extensions>
			</trkpt>
			<trkpt lat="53.26418551" lon="-8.93232434">
				<ele>70.0</ele>
				<time>2014-08-17T16:12:20Z</time>
				<extensions>
					<speed>2.5</speed>
				</extensions>
			</trkpt>
			<trkpt lat="53.26420828" lon="-8.93234757">
				<ele>70.0</ele>
				<time>2014-08-17T16:12:21Z</time>
				<extensions>
					<speed>2.75</speed>
				</extensions>
			</trkpt>
			<trkpt lat="53.26422798" lon="-8.93238614">
				<ele>70.0</ele>
				<time>2014-08-17T16:12:22Z</time>
				<extensions>
					<speed>3.0</speed>
				</extensions>
			</trkpt>
			<trkpt lat="53.26425673" lon="-8.93241686">
				<ele>70.0</ele>
				<time>2014-08-17T16:12:23Z</time>
				<extensions>
					<speed>2.75</speed>
				</extensions>
			</trkpt>
			<trkpt lat="53.26427671" lon="-8.9324408">
				<ele>71.0</ele>
				<time>2014-08-17T16:12:24Z</time>
				<extensions>
					<speed>2.5</speed>
				</extensions>
			</trkpt>
			<trkpt lat="53.26428557" lon="-8.9324776">
				<ele>71.0</ele>
				<time>2014-08-17T16:12:25Z</time>
				<extensions>
					<speed>2.75</speed>
				</extensions>
			</trkpt>
			<trkpt lat="53.26429763" lon="-8.93250414">
				<ele>71.0</ele>
				<time>2014-08-17T16:12:26Z</time>
				<extensions>
					<speed>2.25</speed>
				</extensions>
			</trkpt>
			<trkpt lat="53.26430938" lon="-8.9325296">
				<ele>70.0</ele>
				<time>2014-08-17T16:12:27Z</time>
				<extensions>
					<speed>2.25</speed>
				</extensions>
			</trkpt>
			<trkpt lat="53.26431082" lon="-8.93256167">
				<ele>69.0</ele>
				<time>2014-08-17T16:12:28Z</time>
				<extensions>
					<speed>2.0</speed>
				</extensions>
			</trkpt>
			<trkpt lat="53.26431294" lon="-8.93258095">
				<ele>69.0</ele>
				<time>2014-08-17T16:12:29Z</time>
				<extensions>
					<speed>1.25</speed>
				</extensions>
			</trkpt>
			<trkpt lat="53.26431325" lon="-8.93260304">
				<ele>69.0</ele>
				<time>2014-08-17T16:12:30Z</time>
				<extensions>
					<speed>1.5</speed>
				</extensions>
			</trkpt>
			<trkpt lat="53.26430884" lon="-8.93263437">
				<ele>69.0</ele>
				<time>2014-08-17T16:12:31Z</time>
				<extensions>
					<speed>2.25</speed>
				</extensions>
			</trkpt>
			<trkpt lat="53.26429175" lon="-8.93267086">
				<ele>69.0</ele>
				<time>2014-08-17T16:12:32Z</time>
				<extensions>
					<speed>3.0</speed>
				</extensions>
			</trkpt>
			<trkpt lat="53.26426852" lon="-8.93270528">
				<ele>69.0</ele>
				<time>2014-08-17T16:12:33Z</time>
				<extensions>
					<speed>3.5</speed>
				</extensions>
			</trkpt>
			<trkpt lat="53.26423853" lon="-8.93273672">
				<ele>68.0</ele>
				<time>2014-08-17T16:12:34Z</time>
				<extensions>
					<speed>3.5</speed>
				</extensions>
			</trkpt>
			<trkpt lat="53.26422504" lon="-8.93276647">
				<ele>70.0</ele>
				<time>2014-08-17T16:12:35Z</time>
				<extensions>
					<speed>3.25</speed>
				</extensions>
			</trkpt>
			<trkpt lat="53.26419655" lon="-8.93279735">
				<ele>69.0</ele>
				<time>2014-08-17T16:12:36Z</time>
				<extensions>
					<speed>3.25</speed>
				</extensions>
			</trkpt>
			<trkpt lat="53.26416684" lon="-8.93281346">
				<ele>69.0</ele>
				<time>2014-08-17T16:12:37Z</time>
				<extensions>
					<speed>3.5</speed>
				</extensions>
			</trkpt>
			<trkpt lat="53.26413569" lon="-8.93283379">
				<ele>69.0</ele>
				<time>2014-08-17T16:12:38Z</time>
				<extensions>
					<speed>3.25</speed>
				</extensions>
			</trkpt>
			<trkpt lat="53.26410552" lon="-8.93284423">
				<ele>68.0</ele>
				<time>2014-08-17T16:12:39Z</time>
				<extensions>
					<speed>3.0</speed>
				</extensions>
			</trkpt>
			<trkpt lat="53.26407819" lon="-8.93284089">
				<ele>68.0</ele>
				<time>2014-08-17T16:12:40Z</time>
				<extensions>
					<speed>2.5</speed>
				</extensions>
			</trkpt>
			<trkpt lat="53.26405639" lon="-8.93282889">
				<ele>68.0</ele>
				<time>2014-08-17T16:12:41Z</time>
				<extensions>
					<speed>2.75</speed>
				</extensions>
			</trkpt>
			<trkpt lat="53.2640361" lon="-8.93279866">
				<ele>68.0</ele>
				<time>2014-08-17T16:12:42Z</time>
				<extensions>
					<speed>2.75</speed>
				</extensions>
			</trkpt>
			<trkpt lat="53.26402122" lon="-8.93276647">
				<ele>69.0</ele>
				<time>2014-08-17T16:12:43Z</time>
				<extensions>
					<speed>2.5</speed>
				</extensions>
			</trkpt>
			<trkpt lat="53.26400985" lon="-8.93272694">
				<ele>68.0</ele>
				<time>2014-08-17T16:12:44Z</time>
				<extensions>
					<speed>2.5</speed>
				</extensions>
			</trkpt>
			<trkpt lat="53.26400682" lon="-8.93268333">
				<ele>67.0</ele>
				<time>2014-08-17T16:12:45Z</time>
				<extensions>
					<speed>2.25</speed>
				</extensions>
			</trkpt>
			<trkpt lat="53.26400985" lon="-8.93265477">
				<ele>68.0</ele>
				<time>2014-08-17T16:12:46Z</time>
				<extensions>
					<speed>2.0</speed>
				</extensions>
			</trkpt>
			<trkpt lat="53.2639955" lon="-8.93262961">
				<ele>68.0</ele>
				<time>2014-08-17T16:12:47Z</time>
				<extensions>
					<speed>2.0</speed>
				</extensions>
			</trkpt>
			<trkpt lat="53.26400844" lon="-8.93261615">
				<ele>67.0</ele>
				<time>2014-08-17T16:12:48Z</time>
				<extensions>
					<speed>1.5</speed>
				</extensions>
			</trkpt>
			<trkpt lat="53.26400346" lon="-8.93259126">
				<ele>67.0</ele>
				<time>2014-08-17T16:12:49Z</time>
				<extensions>
					<speed>1.0</speed>
				</extensions>
			</trkpt>
			<trkpt lat="53.26400461" lon="-8.9325827">
				<ele>68.0</ele>
				<time>2014-08-17T16:12:50Z</time>
				<extensions>
					<speed>0.75</speed>
				</extensions>
			</trkpt>
			<trkpt lat="53.26400549" lon="-8.93258273">
				<ele>67.0</ele>
				<time>2014-08-17T16:12:51Z</time>
				<extensions>
					<speed>0.0</speed>
				</extensions>
			</trkpt>
			<trkpt lat="53.26400549" lon="-8.93258273">
				<ele>67.0</ele>
				<time>2014-08-17T16:12:52Z</time>
				<extensions>
					<speed>0.0</speed>
				</extensions>
			</trkpt>
			<trkpt lat="53.26399812" lon="-8.93258201">
				<ele>67.0</ele>
				<time>2014-08-17T16:12:53Z</time>
				<extensions>
					<speed>0.0</speed>
				</extensions>
			</trkpt>
			<trkpt lat="53.26399529" lon="-8.93257759">
				<ele>67.0</ele>
				<time>2014-08-17T16:12:54Z</time>
				<extensions>
					<speed>0.0</speed>
				</extensions>
			</trkpt>
			<trkpt lat="53.26399529" lon="-8.93257759">
				<ele>67.0</ele>
				<time>2014-08-17T16:12:55Z</time>
				<extensions>
					<speed>0.0</speed>
				</extensions>
			</trkpt>
			<trkpt lat="53.26399369" lon="-8.93257988">
				<ele>67.0</ele>
				<time>2014-08-17T16:12:56Z</time>
				<extensions>
					<speed>0.0</speed>
				</extensions>
			</trkpt>
			<trkpt lat="53.26399369" lon="-8.93257988">
				<ele>67.0</ele>
				<time>2014-08-17T16:12:57Z</time>
				<extensions>
					<speed>0.0</speed>
				</extensions>
			</trkpt>
			<trkpt lat="53.26399312" lon="-8.93258102">
				<ele>66.0</ele>
				<time>2014-08-17T16:12:58Z</time>
				<extensions>
					<speed>0.0</speed>
				</extensions>
			</trkpt>
			<trkpt lat="53.26399312" lon="-8.93258102">
				<ele>66.0</ele>
				<time>2014-08-17T16:12:59Z</time>
				<extensions>
					<speed>0.0</speed>
				</extensions>
			</trkpt>
			<trkpt lat="53.26398843" lon="-8.93258059">
				<ele>66.0</ele>
				<time>2014-08-17T16:13:00Z</time>
				<extensions>
					<speed>0.0</speed>
				</extensions>
			</trkpt>
			<trkpt lat="53.26398805" lon="-8.93257977">
				<ele>66.0</ele>
				<time>2014-08-17T16:13:01Z</time>
				<extensions>
					<speed>0.0</speed>
				</extensions>
			</trkpt>
			<trkpt lat="53.2639879" lon="-8.93257955">
				<ele>66.0</ele>
				<time>2014-08-17T16:13:02Z</time>
				<extensions>
					<speed>0.0</speed>
				</extensions>
			</trkpt>
			<trkpt lat="53.26398791" lon="-8.93257972">
				<ele>66.0</ele>
				<time>2014-08-17T16:13:03Z</time>
				<extensions>
					<speed>0.0</speed>
				</extensions>
			</trkpt>
			<trkpt lat="53.26398789" lon="-8.93257975">
				<ele>66.0</ele>
				<time>2014-08-17T16:13:04Z</time>
				<extensions>
					<speed>0.0</speed>
				</extensions>
			</trkpt>
			<trkpt lat="53.26398788" lon="-8.93257975">
				<ele>66.0</ele>
				<time>2014-08-17T16:13:05Z</time>
				<extensions>
					<speed>0.0</speed>
				</extensions>
			</trkpt>
			<trkpt lat="53.26398789" lon="-8.93257975">
				<ele>66.0</ele>
				<time>2014-08-17T16:13:06Z</time>
				<extensions>
					<speed>0.0</speed>
				</extensions>
			</trkpt>
			<trkpt lat="53.26398787" lon="-8.93257978">
				<ele>66.0</ele>
				<time>2014-08-17T16:13:07Z</time>
				<extensions>
					<speed>0.0</speed>
				</extensions>
			</trkpt>
			<trkpt lat="53.26398786" lon="-8.93257976">
				<ele>66.0</ele>
				<time>2014-08-17T16:13:08Z</time>
				<extensions>
					<speed>0.0</speed>
				</extensions>
			</trkpt>
			<trkpt lat="53.26398786" lon="-8.93257977">
				<ele>66.0</ele>
				<time>2014-08-17T16:13:09Z</time>
				<extensions>
					<speed>0.0</speed>
				</extensions>
			</trkpt>
			<trkpt lat="53.26398784" lon="-8.93257976">
				<ele>66.0</ele>
				<time>2014-08-17T16:13:10Z</time>
				<extensions>
					<speed>0.0</speed>
				</extensions>
			</trkpt>
			<trkpt lat="53.26398784" lon="-8.93257976">
				<ele>66.0</ele>
				<time>2014-08-17T16:13:11Z</time>
				<extensions>
					<speed>0.0</speed>
				</extensions>
			</trkpt>
			<trkpt lat="53.26398783" lon="-8.93257971">
				<ele>66.0</ele>
				<time>2014-08-17T16:13:12Z</time>
				<extensions>
					<speed>0.0</speed>
				</extensions>
			</trkpt>
			<trkpt lat="53.26398792" lon="-8.93257972">
				<ele>66.0</ele>
				<time>2014-08-17T16:13:13Z</time>
				<extensions>
					<speed>0.0</speed>
				</extensions>
			</trkpt>
			<trkpt lat="53.26398802" lon="-8.93257976">
				<ele>66.0</ele>
				<time>2014-08-17T16:13:14Z</time>
				<extensions>
					<speed>0.0</speed>
				</extensions>
			</trkpt>
			<trkpt lat="53.263988" lon="-8.93257977">
				<ele>66.0</ele>
				<time>2014-08-17T16:13:15Z</time>
				<extensions>
					<speed>0.0</speed>
				</extensions>
			</trkpt>
			<trkpt lat="53.26398799" lon="-8.9325798">
				<ele>66.0</ele>
				<time>2014-08-17T16:13:16Z</time>
				<extensions>
					<speed>0.0</speed>
				</extensions>
			</trkpt>
			<trkpt lat="53.26398797" lon="-8.9325798">
				<ele>66.0</ele>
				<time>2014-08-17T16:13:17Z</time>
				<extensions>
					<speed>0.0</speed>
				</extensions>
			</trkpt>
			<trkpt lat="53.26398792" lon="-8.9325798">
				<ele>66.0</ele>
				<time>2014-08-17T16:13:18Z</time>
				<extensions>
					<speed>0.0</speed>
				</extensions>
			</trkpt>
			<trkpt lat="53.26398793" lon="-8.93257983">
				<ele>66.0</ele>
				<time>2014-08-17T16:13:19Z</time>
				<extensions>
					<speed>0.0</speed>
				</extensions>
			</trkpt>
			<trkpt lat="53.26398793" lon="-8.93257983">
				<ele>66.0</ele>
				<time>2014-08-17T16:13:20Z</time>
				<extensions>
					<speed>0.0</speed>
				</extensions>
			</trkpt>
			<trkpt lat="53.26398793" lon="-8.93257983">
				<ele>66.0</ele>
				<time>2014-08-17T16:13:21Z</time>
				<extensions>
					<speed>0.0</speed>
				</extensions>
			</trkpt>
			<trkpt lat="53.26399192" lon="-8.93257948">
				<ele>66.0</ele>
				<time>2014-08-17T16:13:22Z</time>
				<extensions>
					<speed>0.0</speed>
				</extensions>
			</trkpt>
			<trkpt lat="53.26399191" lon="-8.93257948">
				<ele>66.0</ele>
				<time>2014-08-17T16:13:23Z</time>
				<extensions>
					<speed>0.0</speed>
				</extensions>
			</trkpt>
			<trkpt lat="53.26399191" lon="-8.93257946">
				<ele>66.0</ele>
				<time>2014-08-17T16:13:24Z</time>
				<extensions>
					<speed>0.0</speed>
				</extensions>
			</trkpt>
			<trkpt lat="53.2639919" lon="-8.93257945">
				<ele>66.0</ele>
				<time>2014-08-17T16:13:25Z</time>
				<extensions>
					<speed>0.0</speed>
				</extensions>
			</trkpt>
			<trkpt lat="53.26399187" lon="-8.93257948">
				<ele>66.0</ele>
				<time>2014-08-17T16:13:26Z</time>
				<extensions>
					<speed>0.0</speed>
				</extensions>
			</trkpt>
			<trkpt lat="53.26399184" lon="-8.93257948">
				<ele>66.0</ele>
				<time>2014-08-17T16:13:27Z</time>
				<extensions>
					<speed>0.0</speed>
				</extensions>
			</trkpt>
			<trkpt lat="53.2639918" lon="-8.93257945">
				<ele>66.0</ele>
				<time>2014-08-17T16:13:28Z</time>
				<extensions>
					<speed>0.0</speed>
				</extensions>
			</trkpt>
			<trkpt lat="53.2639918" lon="-8.93257945">
				<ele>66.0</ele>
				<time>2014-08-17T16:13:29Z</time>
				<extensions>
					<speed>0.0</speed>
				</extensions>
			</trkpt>
			<trkpt lat="53.26399176" lon="-8.93257948">
				<ele>66.0</ele>
				<time>2014-08-17T16:13:30Z</time>
				<extensions>
					<speed>0.0</speed>
				</extensions>
			</trkpt>
			<trkpt lat="53.26399173" lon="-8.93257943">
				<ele>66.0</ele>
				<time>2014-08-17T16:13:31Z</time>
				<extensions>
					<speed>0.0</speed>
				</extensions>
			</trkpt>
			<trkpt lat="53.2639917" lon="-8.93257942">
				<ele>66.0</ele>
				<time>2014-08-17T16:13:32Z</time>
				<extensions>
					<speed>0.0</speed>
				</extensions>
			</trkpt>
			<trkpt lat="53.26399166" lon="-8.93257944">
				<ele>66.0</ele>
				<time>2014-08-17T16:13:33Z</time>
				<extensions>
					<speed>0.0</speed>
				</extensions>
			</trkpt>
			<trkpt lat="53.26399167" lon="-8.93257946">
				<ele>66.0</ele>
				<time>2014-08-17T16:13:34Z</time>
				<extensions>
					<speed>0.0</speed>
				</extensions>
			</trkpt>
			<trkpt lat="53.26399163" lon="-8.93257945">
				<ele>66.0</ele>
				<time>2014-08-17T16:13:35Z</time>
				<extensions>
					<speed>0.0</speed>
				</extensions>
			</trkpt>
			<trkpt lat="53.26399162" lon="-8.93257945">
				<ele>66.0</ele>
				<time>2014-08-17T16:13:36Z</time>
				<extensions>
					<speed>0.0</speed>
				</extensions>
			</trkpt>
			<trkpt lat="53.26399161" lon="-8.93257944">
				<ele>66.0</ele>
				<time>2014-08-17T16:13:37Z</time>
				<extensions>
					<speed>0.0</speed>
				</extensions>
			</trkpt>
			<trkpt lat="53.26399162" lon="-8.93257943">
				<ele>66.0</ele>
				<time>2014-08-17T16:13:38Z</time>
				<extensions>
					<speed>0.0</speed>
				</extensions>
			</trkpt>
			<trkpt lat="53.26399162" lon="-8.93257943">
				<ele>66.0</ele>
				<time>2014-08-17T16:13:39Z</time>
				<extensions>
					<speed>0.0</speed>
				</extensions>
			</trkpt>
			<trkpt lat="53.26398886" lon="-8.93257394">
				<ele>66.0</ele>
				<time>2014-08-17T16:13:40Z</time>
				<extensions>
					<speed>1.5</speed>
				</extensions>
			</trkpt>
			<trkpt lat="53.26398068" lon="-8.93255759">
				<ele>66.0</ele>
				<time>2014-08-17T16:13:41Z</time>
				<extensions>
					<speed>1.5</speed>
				</extensions>
			</trkpt>
			<trkpt lat="53.26395297" lon="-8.93252858">
				<ele>66.0</ele>
				<time>2014-08-17T16:13:42Z</time>
				<extensions>
					<speed>2.5</speed>
				</extensions>
			</trkpt>
			<trkpt lat="53.26392833" lon="-8.93249726">
				<ele>65.0</ele>
				<time>2014-08-17T16:13:43Z</time>
				<extensions>
					<speed>2.5</speed>
				</extensions>
			</trkpt>
			<trkpt lat="53.26391197" lon="-8.93246814">
				<ele>64.0</ele>
				<time>2014-08-17T16:13:44Z</time>
				<extensions>
					<speed>2.5</speed>
				</extensions>
			</trkpt>
			<trkpt lat="53.26390395" lon="-8.93243968">
				<ele>65.0</ele>
				<time>2014-08-17T16:13:45Z</time>
				<extensions>
					<speed>2.25</speed>
				</extensions>
			</trkpt>
			<trkpt lat="53.26389233" lon="-8.93241235">
				<ele>65.0</ele>
				<time>2014-08-17T16:13:46Z</time>
				<extensions>
					<speed>2.25</speed>
				</extensions>
			</trkpt>
			<trkpt lat="53.26388773" lon="-8.93239537">
				<ele>64.0</ele>
				<time>2014-08-17T16:13:47Z</time>
				<extensions>
					<speed>1.25</speed>
				</extensions>
			</trkpt>
			<trkpt lat="53.26388543" lon="-8.93237969">
				<ele>64.0</ele>
				<time>2014-08-17T16:13:48Z</time>
				<extensions>
					<speed>1.0</speed>
				</extensions>
			</trkpt>
			<trkpt lat="53.26387861" lon="-8.93236631">
				<ele>64.0</ele>
				<time>2014-08-17T16:13:49Z</time>
				<extensions>
					<speed>1.0</speed>
				</extensions>
			</trkpt>
			<trkpt lat="53.26388052" lon="-8.93237608">
				<ele>64.0</ele>
				<time>2014-08-17T16:13:50Z</time>
				<extensions>
					<speed>0.0</speed>
				</extensions>
			</trkpt>
			<trkpt lat="53.26388052" lon="-8.93237608">
				<ele>64.0</ele>
				<time>2014-08-17T16:13:51Z</time>
				<extensions>
					<speed>0.0</speed>
				</extensions>
			</trkpt>
			<trkpt lat="53.26388052" lon="-8.93237608">
				<ele>64.0</ele>
				<time>2014-08-17T16:13:52Z</time>
				<extensions>
					<speed>0.0</speed>
				</extensions>
			</trkpt>
			<trkpt lat="53.26387874" lon="-8.93237194">
				<ele>64.0</ele>
				<time>2014-08-17T16:13:53Z</time>
				<extensions>
					<speed>0.0</speed>
				</extensions>
			</trkpt>
			<trkpt lat="53.26388294" lon="-8.93237219">
				<ele>63.0</ele>
				<time>2014-08-17T16:13:54Z</time>
				<extensions>
					<speed>0.0</speed>
				</extensions>
			</trkpt>
			<trkpt lat="53.26388315" lon="-8.93237179">
				<ele>63.0</ele>
				<time>2014-08-17T16:13:55Z</time>
				<extensions>
					<speed>0.0</speed>
				</extensions>
			</trkpt>
			<trkpt lat="53.26388407" lon="-8.93237217">
				<ele>63.0</ele>
				<time>2014-08-17T16:13:56Z</time>
				<extensions>
					<speed>0.0</speed>
				</extensions>
			</trkpt>
			<trkpt lat="53.26388323" lon="-8.93237234">
				<ele>63.0</ele>
				<time>2014-08-17T16:13:57Z</time>
				<extensions>
					<speed>0.0</speed>
				</extensions>
			</trkpt>
			<trkpt lat="53.26388018" lon="-8.93237254">
				<ele>63.0</ele>
				<time>2014-08-17T16:13:58Z</time>
				<extensions>
					<speed>0.0</speed>
				</extensions>
			</trkpt>
			<trkpt lat="53.26387894" lon="-8.93237253">
				<ele>63.0</ele>
				<time>2014-08-17T16:13:59Z</time>
				<extensions>
					<speed>0.0</speed>
				</extensions>
			</trkpt>
			<trkpt lat="53.26387831" lon="-8.93237224">
				<ele>63.0</ele>
				<time>2014-08-17T16:14:00Z</time>
				<extensions>
					<speed>0.0</speed>
				</extensions>
			</trkpt>
			<trkpt lat="53.26387713" lon="-8.93237255">
				<ele>64.0</ele>
				<time>2014-08-17T16:14:01Z</time>
				<extensions>
					<speed>0.0</speed>
				</extensions>
			</trkpt>
			<trkpt lat="53.26387664" lon="-8.93237239">
				<ele>64.0</ele>
				<time>2014-08-17T16:14:02Z</time>
				<extensions>
					<speed>0.0</speed>
				</extensions>
			</trkpt>
			<trkpt lat="53.26387722" lon="-8.93237279">
				<ele>64.0</ele>
				<time>2014-08-17T16:14:03Z</time>
				<extensions>
					<speed>0.0</speed>
				</extensions>
			</trkpt>
			<trkpt lat="53.26387761" lon="-8.93237309">
				<ele>64.0</ele>
				<time>2014-08-17T16:14:04Z</time>
				<extensions>
					<speed>0.0</speed>
				</extensions>
			</trkpt>
			<trkpt lat="53.26387722" lon="-8.93237267">
				<ele>64.0</ele>
				<time>2014-08-17T16:14:05Z</time>
				<extensions>
					<speed>0.0</speed>
				</extensions>
			</trkpt>
			<trkpt lat="53.26387648" lon="-8.93237177">
				<ele>64.0</ele>
				<time>2014-08-17T16:14:06Z</time>
				<extensions>
					<speed>0.0</speed>
				</extensions>
			</trkpt>
			<trkpt lat="53.26387566" lon="-8.93237089">
				<ele>64.0</ele>
				<time>2014-08-17T16:14:07Z</time>
				<extensions>
					<speed>0.0</speed>
				</extensions>
			</trkpt>
			<trkpt lat="53.26387576" lon="-8.93237114">
				<ele>64.0</ele>
				<time>2014-08-17T16:14:08Z</time>
				<extensions>
					<speed>0.0</speed>
				</extensions>
			</trkpt>
			<trkpt lat="53.26387585" lon="-8.93237136">
				<ele>64.0</ele>
				<time>2014-08-17T16:14:09Z</time>
				<extensions>
					<speed>0.0</speed>
				</extensions>
			</trkpt>
			<trkpt lat="53.26387569" lon="-8.93237243">
				<ele>64.0</ele>
				<time>2014-08-17T16:14:10Z</time>
				<extensions>
					<speed>0.0</speed>
				</extensions>
			</trkpt>
			<trkpt lat="53.26387625" lon="-8.93237231">
				<ele>64.0</ele>
				<time>2014-08-17T16:14:11Z</time>
				<extensions>
					<speed>0.0</speed>
				</extensions>
			</trkpt>
			<trkpt lat="53.26387622" lon="-8.93237228">
				<ele>64.0</ele>
				<time>2014-08-17T16:14:12Z</time>
				<extensions>
					<speed>0.0</speed>
				</extensions>
			</trkpt>
			<trkpt lat="53.26387624" lon="-8.93237228">
				<ele>64.0</ele>
				<time>2014-08-17T16:14:13Z</time>
				<extensions>
					<speed>0.0</speed>
				</extensions>
			</trkpt>
			<trkpt lat="53.26387622" lon="-8.93237225">
				<ele>64.0</ele>
				<time>2014-08-17T16:14:14Z</time>
				<extensions>
					<speed>0.0</speed>
				</extensions>
			</trkpt>
			<trkpt lat="53.26387586" lon="-8.93237093">
				<ele>64.0</ele>
				<time>2014-08-17T16:14:15Z</time>
				<extensions>
					<speed>0.0</speed>
				</extensions>
			</trkpt>
			<trkpt lat="53.26387544" lon="-8.93236918">
				<ele>64.0</ele>
				<time>2014-08-17T16:14:16Z</time>
				<extensions>
					<speed>0.0</speed>
				</extensions>
			</trkpt>
			<trkpt lat="53.26387518" lon="-8.93236762">
				<ele>64.0</ele>
				<time>2014-08-17T16:14:17Z</time>
				<extensions>
					<speed>0.0</speed>
				</extensions>
			</trkpt>
			<trkpt lat="53.26386983" lon="-8.93236446">
				<ele>64.0</ele>
				<time>2014-08-17T16:14:18Z</time>
				<extensions>
					<speed>1.0</speed>
				</extensions>
			</trkpt>
			<trkpt lat="53.26386074" lon="-8.93235608">
				<ele>63.0</ele>
				<time>2014-08-17T16:14:19Z</time>
				<extensions>
					<speed>2.0</speed>
				</extensions>
			</trkpt>
			<trkpt lat="53.26384425" lon="-8.93235825">
				<ele>64.0</ele>
				<time>2014-08-17T16:14:20Z</time>
				<extensions>
					<speed>1.75</speed>
				</extensions>
			</trkpt>
			<trkpt lat="53.26384186" lon="-8.9323801">
				<ele>62.0</ele>
				<time>2014-08-17T16:14:21Z</time>
				<extensions>
					<speed>1.0</speed>
				</extensions>
			</trkpt>
			<trkpt lat="53.26384242" lon="-8.93238863">
				<ele>61.0</ele>
				<time>2014-08-17T16:14:22Z</time>
				<extensions>
					<speed>0.5</speed>
				</extensions>
			</trkpt>
			<trkpt lat="53.26383982" lon="-8.93238443">
				<ele>61.0</ele>
				<time>2014-08-17T16:14:23Z</time>
				<extensions>
					<speed>0.0</speed>
				</extensions>
			</trkpt>
			<trkpt lat="53.26383893" lon="-8.93238484">
				<ele>61.0</ele>
				<time>2014-08-17T16:14:24Z</time>
				<extensions>
					<speed>0.0</speed>
				</extensions>
			</trkpt>
			<trkpt lat="53.26384043" lon="-8.93238552">
				<ele>61.0</ele>
				<time>2014-08-17T16:14:25Z</time>
				<extensions>
					<speed>1.25</speed>
				</extensions>
			</trkpt>
			<trkpt lat="53.26384587" lon="-8.93238937">
				<ele>61.0</ele>
				<time>2014-08-17T16:14:26Z</time>
				<extensions>
					<speed>1.25</speed>
				</extensions>
			</trkpt>
			<trkpt lat="53.26385675" lon="-8.93237391">
				<ele>59.0</ele>
				<time>2014-08-17T16:14:27Z</time>
				<extensions>
					<speed>1.0</speed>
				</extensions>
			</trkpt>
			<trkpt lat="53.26386469" lon="-8.93236714">
				<ele>60.0</ele>
				<time>2014-08-17T16:14:28Z</time>
				<extensions>
					<speed>0.5</speed>
				</extensions>
			</trkpt>
			<trkpt lat="53.26386831" lon="-8.93235364">
				<ele>60.0</ele>
				<time>2014-08-17T16:14:29Z</time>
				<extensions>
					<speed>0.75</speed>
				</extensions>
			</trkpt>
			<trkpt lat="53.26387295" lon="-8.93232384">
				<ele>59.0</ele>
				<time>2014-08-17T16:14:30Z</time>
				<extensions>
					<speed>0.75</speed>
				</extensions>
			</trkpt>
			<trkpt lat="53.26386888" lon="-8.93231719">
				<ele>59.0</ele>
				<time>2014-08-17T16:14:31Z</time>
				<extensions>
					<speed>0.5</speed>
				</extensions>
			</trkpt>
			<trkpt lat="53.26387035" lon="-8.93231401">
				<ele>60.0</ele>
				<time>2014-08-17T16:14:32Z</time>
				<extensions>
					<speed>0.0</speed>
				</extensions>
			</trkpt>
			<trkpt lat="53.26386875" lon="-8.93231239">
				<ele>60.0</ele>
				<time>2014-08-17T16:14:33Z</time>
				<extensions>
					<speed>0.0</speed>
				</extensions>
			</trkpt>
			<trkpt lat="53.26386928" lon="-8.93231488">
				<ele>60.0</ele>
				<time>2014-08-17T16:14:34Z</time>
				<extensions>
					<speed>1.5</speed>
				</extensions>
			</trkpt>
			<trkpt lat="53.26387584" lon="-8.93234458">
				<ele>60.0</ele>
				<time>2014-08-17T16:14:35Z</time>
				<extensions>
					<speed>2.25</speed>
				</extensions>
			</trkpt>
			<trkpt lat="53.26388778" lon="-8.93238382">
				<ele>60.0</ele>
				<time>2014-08-17T16:14:36Z</time>
				<extensions>
					<speed>3.0</speed>
				</extensions>
			</trkpt>
			<trkpt lat="53.26390687" lon="-8.93242628">
				<ele>60.0</ele>
				<time>2014-08-17T16:14:37Z</time>
				<extensions>
					<speed>3.5</speed>
				</extensions>
			</trkpt>
			<trkpt lat="53.26392797" lon="-8.93246998">
				<ele>60.0</ele>
				<time>2014-08-17T16:14:38Z</time>
				<extensions>
					<speed>3.75</speed>
				</extensions>
			</trkpt>
			<trkpt lat="53.26394312" lon="-8.9325182">
				<ele>60.0</ele>
				<time>2014-08-17T16:14:39Z</time>
				<extensions>
					<speed>3.75</speed>
				</extensions>
			</trkpt>
			<trkpt lat="53.26396465" lon="-8.93255829">
				<ele>61.0</ele>
				<time>2014-08-17T16:14:40Z</time>
				<extensions>
					<speed>3.5</speed>
				</extensions>
			</trkpt>
			<trkpt lat="53.26398431" lon="-8.93260729">
				<ele>60.0</ele>
				<time>2014-08-17T16:14:41Z</time>
				<extensions>
					<speed>3.75</speed>
				</extensions>
			</trkpt>
			<trkpt lat="53.26400126" lon="-8.9326521">
				<ele>60.0</ele>
				<time>2014-08-17T16:14:42Z</time>
				<extensions>
					<speed>3.75</speed>
				</extensions>
			</trkpt>
			<trkpt lat="53.26401828" lon="-8.93270366">
				<ele>60.0</ele>
				<time>2014-08-17T16:14:43Z</time>
				<extensions>
					<speed>3.75</speed>
				</extensions>
			</trkpt>
			<trkpt lat="53.26403619" lon="-8.93274678">
				<ele>61.0</ele>
				<time>2014-08-17T16:14:44Z</time>
				<extensions>
					<speed>3.5</speed>
				</extensions>
			</trkpt>
			<trkpt lat="53.26404384" lon="-8.93278596">
				<ele>60.0</ele>
				<time>2014-08-17T16:14:45Z</time>
				<extensions>
					<speed>2.5</speed>
				</extensions>
			</trkpt>
			<trkpt lat="53.26404443" lon="-8.93279983">
				<ele>60.0</ele>
				<time>2014-08-17T16:14:46Z</time>
				<extensions>
					<speed>1.0</speed>
				</extensions>
			</trkpt>
			<trkpt lat="53.2640524" lon="-8.93280507">
				<ele>61.0</ele>
				<time>2014-08-17T16:14:47Z</time>
				<extensions>
					<speed>0.25</speed>
				</extensions>
			</trkpt>
			<trkpt lat="53.26405635" lon="-8.93281042">
				<ele>61.0</ele>
				<time>2014-08-17T16:14:48Z</time>
				<extensions>
					<speed>0.25</speed>
				</extensions>
			</trkpt>
			<trkpt lat="53.26405729" lon="-8.93283787">
				<ele>62.0</ele>
				<time>2014-08-17T16:14:49Z</time>
				<extensions>
					<speed>1.75</speed>
				</extensions>
			</trkpt>
			<trkpt lat="53.26405769" lon="-8.93287395">
				<ele>63.0</ele>
				<time>2014-08-17T16:14:50Z</time>
				<extensions>
					<speed>2.25</speed>
				</extensions>
			</trkpt>
			<trkpt lat="53.26404433" lon="-8.93291355">
				<ele>62.0</ele>
				<time>2014-08-17T16:14:51Z</time>
				<extensions>
					<speed>3.5</speed>
				</extensions>
			</trkpt>
			<trkpt lat="53.26401885" lon="-8.93295211">
				<ele>62.0</ele>
				<time>2014-08-17T16:14:52Z</time>
				<extensions>
					<speed>4.0</speed>
				</extensions>
			</trkpt>
			<trkpt lat="53.26398932" lon="-8.93299388">
				<ele>62.0</ele>
				<time>2014-08-17T16:14:53Z</time>
				<extensions>
					<speed>4.0</speed>
				</extensions>
			</trkpt>
			<trkpt lat="53.26395098" lon="-8.9330381">
				<ele>62.0</ele>
				<time>2014-08-17T16:14:54Z</time>
				<extensions>
					<speed>5.5</speed>
				</extensions>
			</trkpt>
			<trkpt lat="53.26390327" lon="-8.9330914">
				<ele>61.0</ele>
				<time>2014-08-17T16:14:55Z</time>
				<extensions>
					<speed>6.25</speed>
				</extensions>
			</trkpt>
			<trkpt lat="53.26384942" lon="-8.93312671">
				<ele>60.0</ele>
				<time>2014-08-17T16:14:56Z</time>
				<extensions>
					<speed>6.5</speed>
				</extensions>
			</trkpt>
			<trkpt lat="53.26380329" lon="-8.93318201">
				<ele>60.0</ele>
				<time>2014-08-17T16:14:57Z</time>
				<extensions>
					<speed>6.25</speed>
				</extensions>
			</trkpt>
			<trkpt lat="53.26375612" lon="-8.933236">
				<ele>61.0</ele>
				<time>2014-08-17T16:14:58Z</time>
				<extensions>
					<speed>6.5</speed>
				</extensions>
			</trkpt>
			<trkpt lat="53.26371387" lon="-8.93327968">
				<ele>61.0</ele>
				<time>2014-08-17T16:14:59Z</time>
				<extensions>
					<speed>5.5</speed>
				</extensions>
			</trkpt>
			<trkpt lat="53.26367135" lon="-8.93332383">
				<ele>61.0</ele>
				<time>2014-08-17T16:15:00Z</time>
				<extensions>
					<speed>5.5</speed>
				</extensions>
			</trkpt>
			<trkpt lat="53.26362882" lon="-8.93336798">
				<ele>61.0</ele>
				<time>2014-08-17T16:15:01Z</time>
				<extensions>
					<speed>5.5</speed>
				</extensions>
			</trkpt>
			<trkpt lat="53.26356051" lon="-8.9333727">
				<ele>62.0</ele>
				<time>2014-08-17T16:15:02Z</time>
				<extensions>
					<speed>6.5</speed>
				</extensions>
			</trkpt>
			<trkpt lat="53.26349459" lon="-8.93339825">
				<ele>62.0</ele>
				<time>2014-08-17T16:15:03Z</time>
				<extensions>
					<speed>7.25</speed>
				</extensions>
			</trkpt>
			<trkpt lat="53.26342867" lon="-8.93343715">
				<ele>62.0</ele>
				<time>2014-08-17T16:15:04Z</time>
				<extensions>
					<speed>6.5</speed>
				</extensions>
			</trkpt>
			<trkpt lat="53.26336879" lon="-8.93349549">
				<ele>63.0</ele>
				<time>2014-08-17T16:15:05Z</time>
				<extensions>
					<speed>7.75</speed>
				</extensions>
			</trkpt>
			<trkpt lat="53.26330988" lon="-8.93354032">
				<ele>64.0</ele>
				<time>2014-08-17T16:15:06Z</time>
				<extensions>
					<speed>7.25</speed>
				</extensions>
			</trkpt>
			<trkpt lat="53.26324841" lon="-8.93361062">
				<ele>64.0</ele>
				<time>2014-08-17T16:15:07Z</time>
				<extensions>
					<speed>7.25</speed>
				</extensions>
			</trkpt>
			<trkpt lat="53.26321071" lon="-8.93368575">
				<ele>62.0</ele>
				<time>2014-08-17T16:15:08Z</time>
				<extensions>
					<speed>6.5</speed>
				</extensions>
			</trkpt>
			<trkpt lat="53.26317614" lon="-8.93373833">
				<ele>62.0</ele>
				<time>2014-08-17T16:15:09Z</time>
				<extensions>
					<speed>5.0</speed>
				</extensions>
			</trkpt>
			<trkpt lat="53.26314788" lon="-8.93379475">
				<ele>62.0</ele>
				<time>2014-08-17T16:15:10Z</time>
				<extensions>
					<speed>4.5</speed>
				</extensions>
			</trkpt>
			<trkpt lat="53.26311086" lon="-8.93384495">
				<ele>63.0</ele>
				<time>2014-08-17T16:15:11Z</time>
				<extensions>
					<speed>3.75</speed>
				</extensions>
			</trkpt>
			<trkpt lat="53.26308046" lon="-8.93387307">
				<ele>62.0</ele>
				<time>2014-08-17T16:15:12Z</time>
				<extensions>
					<speed>2.75</speed>
				</extensions>
			</trkpt>
			<trkpt lat="53.26307597" lon="-8.93388834">
				<ele>62.0</ele>
				<time>2014-08-17T16:15:13Z</time>
				<extensions>
					<speed>2.0</speed>
				</extensions>
			</trkpt>
			<trkpt lat="53.26306919" lon="-8.93391084">
				<ele>62.0</ele>
				<time>2014-08-17T16:15:14Z</time>
				<extensions>
					<speed>1.75</speed>
				</extensions>
			</trkpt>
			<trkpt lat="53.2630572" lon="-8.93392757">
				<ele>62.0</ele>
				<time>2014-08-17T16:15:15Z</time>
				<extensions>
					<speed>1.75</speed>
				</extensions>
			</trkpt>
			<trkpt lat="53.26304303" lon="-8.9339418">
				<ele>62.0</ele>
				<time>2014-08-17T16:15:16Z</time>
				<extensions>
					<speed>1.75</speed>
				</extensions>
			</trkpt>
			<trkpt lat="53.26301808" lon="-8.93395347">
				<ele>62.0</ele>
				<time>2014-08-17T16:15:17Z</time>
				<extensions>
					<speed>2.25</speed>
				</extensions>
			</trkpt>
			<trkpt lat="53.26299605" lon="-8.93396745">
				<ele>62.0</ele>
				<time>2014-08-17T16:15:18Z</time>
				<extensions>
					<speed>3.0</speed>
				</extensions>
			</trkpt>
			<trkpt lat="53.26297" lon="-8.93398351">
				<ele>62.0</ele>
				<time>2014-08-17T16:15:19Z</time>
				<extensions>
					<speed>3.0</speed>
				</extensions>
			</trkpt>
			<trkpt lat="53.26294394" lon="-8.93399957">
				<ele>62.0</ele>
				<time>2014-08-17T16:15:20Z</time>
				<extensions>
					<speed>3.0</speed>
				</extensions>
			</trkpt>
			<trkpt lat="53.26289659" lon="-8.9340434">
				<ele>62.0</ele>
				<time>2014-08-17T16:15:21Z</time>
				<extensions>
					<speed>4.5</speed>
				</extensions>
			</trkpt>
			<trkpt lat="53.26286922" lon="-8.93408237">
				<ele>60.0</ele>
				<time>2014-08-17T16:15:22Z</time>
				<extensions>
					<speed>3.75</speed>
				</extensions>
			</trkpt>
			<trkpt lat="53.26284415" lon="-8.93411748">
				<ele>60.0</ele>
				<time>2014-08-17T16:15:23Z</time>
				<extensions>
					<speed>3.5</speed>
				</extensions>
			</trkpt>
			<trkpt lat="53.26281888" lon="-8.93414236">
				<ele>60.0</ele>
				<time>2014-08-17T16:15:24Z</time>
				<extensions>
					<speed>2.75</speed>
				</extensions>
			</trkpt>
			<trkpt lat="53.2627966" lon="-8.93416384">
				<ele>60.0</ele>
				<time>2014-08-17T16:15:25Z</time>
				<extensions>
					<speed>2.0</speed>
				</extensions>
			</trkpt>
			<trkpt lat="53.26278233" lon="-8.93417728">
				<ele>60.0</ele>
				<time>2014-08-17T16:15:26Z</time>
				<extensions>
					<speed>2.0</speed>
				</extensions>
			</trkpt>
			<trkpt lat="53.26276767" lon="-8.93418869">
				<ele>60.0</ele>
				<time>2014-08-17T16:15:27Z</time>
				<extensions>
					<speed>1.75</speed>
				</extensions>
			</trkpt>
			<trkpt lat="53.26276339" lon="-8.93419628">
				<ele>61.0</ele>
				<time>2014-08-17T16:15:28Z</time>
				<extensions>
					<speed>1.5</speed>
				</extensions>
			</trkpt>
			<trkpt lat="53.2627674" lon="-8.93419436">
				<ele>61.0</ele>
				<time>2014-08-17T16:15:29Z</time>
				<extensions>
					<speed>1.0</speed>
				</extensions>
			</trkpt>
			<trkpt lat="53.26276146" lon="-8.93420413">
				<ele>61.0</ele>
				<time>2014-08-17T16:15:30Z</time>
				<extensions>
					<speed>0.75</speed>
				</extensions>
			</trkpt>
			<trkpt lat="53.26277389" lon="-8.93420462">
				<ele>60.0</ele>
				<time>2014-08-17T16:15:31Z</time>
				<extensions>
					<speed>0.0</speed>
				</extensions>
			</trkpt>
			<trkpt lat="53.26276933" lon="-8.93419802">
				<ele>60.0</ele>
				<time>2014-08-17T16:15:32Z</time>
				<extensions>
					<speed>0.0</speed>
				</extensions>
			</trkpt>
			<trkpt lat="53.26277919" lon="-8.93420323">
				<ele>60.0</ele>
				<time>2014-08-17T16:15:33Z</time>
				<extensions>
					<speed>0.0</speed>
				</extensions>
			</trkpt>
			<trkpt lat="53.26278157" lon="-8.93419926">
				<ele>60.0</ele>
				<time>2014-08-17T16:15:34Z</time>
				<extensions>
					<speed>0.0</speed>
				</extensions>
			</trkpt>
			<trkpt lat="53.26278017" lon="-8.93419714">
				<ele>61.0</ele>
				<time>2014-08-17T16:15:35Z</time>
				<extensions>
					<speed>0.0</speed>
				</extensions>
			</trkpt>
			<trkpt lat="53.26277704" lon="-8.93419378">
				<ele>61.0</ele>
				<time>2014-08-17T16:15:36Z</time>
				<extensions>
					<speed>0.0</speed>
				</extensions>
			</trkpt>
			<trkpt lat="53.26277621" lon="-8.93419242">
				<ele>61.0</ele>
				<time>2014-08-17T16:15:37Z</time>
				<extensions>
					<speed>0.0</speed>
				</extensions>
			</trkpt>
			<trkpt lat="53.26277815" lon="-8.9341937">
				<ele>61.0</ele>
				<time>2014-08-17T16:15:38Z</time>
				<extensions>
					<speed>0.0</speed>
				</extensions>
			</trkpt>
			<trkpt lat="53.26277904" lon="-8.93419325">
				<ele>61.0</ele>
				<time>2014-08-17T16:15:39Z</time>
				<extensions>
					<speed>0.0</speed>
				</extensions>
			</trkpt>
			<trkpt lat="53.26277561" lon="-8.93419409">
				<ele>62.0</ele>
				<time>2014-08-17T16:15:40Z</time>
				<extensions>
					<speed>0.0</speed>
				</extensions>
			</trkpt>
			<trkpt lat="53.26277539" lon="-8.93419282">
				<ele>62.0</ele>
				<time>2014-08-17T16:15:41Z</time>
				<extensions>
					<speed>0.0</speed>
				</extensions>
			</trkpt>
			<trkpt lat="53.26277507" lon="-8.93419274">
				<ele>62.0</ele>
				<time>2014-08-17T16:15:42Z</time>
				<extensions>
					<speed>0.0</speed>
				</extensions>
			</trkpt>
			<trkpt lat="53.26277496" lon="-8.93419262">
				<ele>62.0</ele>
				<time>2014-08-17T16:15:43Z</time>
				<extensions>
					<speed>0.0</speed>
				</extensions>
			</trkpt>
			<trkpt lat="53.26277499" lon="-8.93419246">
				<ele>62.0</ele>
				<time>2014-08-17T16:15:44Z</time>
				<extensions>
					<speed>0.0</speed>
				</extensions>
			</trkpt>
			<trkpt lat="53.26277496" lon="-8.93419242">
				<ele>62.0</ele>
				<time>2014-08-17T16:15:45Z</time>
				<extensions>
					<speed>0.0</speed>
				</extensions>
			</trkpt>
			<trkpt lat="53.26277492" lon="-8.93419242">
				<ele>62.0</ele>
				<time>2014-08-17T16:15:46Z</time>
				<extensions>
					<speed>0.0</speed>
				</extensions>
			</trkpt>
			<trkpt lat="53.26277489" lon="-8.93419238">
				<ele>62.0</ele>
				<time>2014-08-17T16:15:47Z</time>
				<extensions>
					<speed>0.0</speed>
				</extensions>
			</trkpt>
			<trkpt lat="53.26277488" lon="-8.93419241">
				<ele>62.0</ele>
				<time>2014-08-17T16:15:48Z</time>
				<extensions>
					<speed>0.0</speed>
				</extensions>
			</trkpt>
			<trkpt lat="53.26277496" lon="-8.93419245">
				<ele>62.0</ele>
				<time>2014-08-17T16:15:49Z</time>
				<extensions>
					<speed>0.0</speed>
				</extensions>
			</trkpt>
			<trkpt lat="53.26277504" lon="-8.93419244">
				<ele>62.0</ele>
				<time>2014-08-17T16:15:50Z</time>
				<extensions>
					<speed>0.0</speed>
				</extensions>
			</trkpt>
			<trkpt lat="53.26277364" lon="-8.93419439">
				<ele>62.0</ele>
				<time>2014-08-17T16:15:51Z</time>
				<extensions>
					<speed>1.0</speed>
				</extensions>
			</trkpt>
			<trkpt lat="53.26275152" lon="-8.93421603">
				<ele>62.0</ele>
				<time>2014-08-17T16:15:52Z</time>
				<extensions>
					<speed>2.25</speed>
				</extensions>
			</trkpt>
			<trkpt lat="53.2627347" lon="-8.93424317">
				<ele>63.0</ele>
				<time>2014-08-17T16:15:53Z</time>
				<extensions>
					<speed>2.5</speed>
				</extensions>
			</trkpt>
			<trkpt lat="53.26271397" lon="-8.93427197">
				<ele>63.0</ele>
				<time>2014-08-17T16:15:54Z</time>
				<extensions>
					<speed>2.5</speed>
				</extensions>
			</trkpt>
			<trkpt lat="53.26270072" lon="-8.9343041">
				<ele>63.0</ele>
				<time>2014-08-17T16:15:55Z</time>
				<extensions>
					<speed>3.0</speed>
				</extensions>
			</trkpt>
			<trkpt lat="53.26268343" lon="-8.93434374">
				<ele>63.0</ele>
				<time>2014-08-17T16:15:56Z</time>
				<extensions>
					<speed>3.75</speed>
				</extensions>
			</trkpt>
			<trkpt lat="53.26266705" lon="-8.93437937">
				<ele>63.0</ele>
				<time>2014-08-17T16:15:57Z</time>
				<extensions>
					<speed>3.5</speed>
				</extensions>
			</trkpt>
			<trkpt lat="53.26264803" lon="-8.93442952">
				<ele>64.0</ele>
				<time>2014-08-17T16:15:58Z</time>
				<extensions>
					<speed>4.0</speed>
				</extensions>
			</trkpt>
			<trkpt lat="53.26263442" lon="-8.93449127">
				<ele>64.0</ele>
				<time>2014-08-17T16:15:59Z</time>
				<extensions>
					<speed>4.25</speed>
				</extensions>
			</trkpt>
			<trkpt lat="53.26262017" lon="-8.9345529">
				<ele>64.0</ele>
				<time>2014-08-17T16:16:00Z</time>
				<extensions>
					<speed>4.0</speed>
				</extensions>
			</trkpt>
			<trkpt lat="53.26261621" lon="-8.93459756">
				<ele>63.0</ele>
				<time>2014-08-17T16:16:01Z</time>
				<extensions>
					<speed>3.5</speed>
				</extensions>
			</trkpt>
			<trkpt lat="53.26260905" lon="-8.93464652">
				<ele>64.0</ele>
				<time>2014-08-17T16:16:02Z</time>
				<extensions>
					<speed>2.75</speed>
				</extensions>
			</trkpt>
			<trkpt lat="53.26259801" lon="-8.93468917">
				<ele>64.0</ele>
				<time>2014-08-17T16:16:03Z</time>
				<extensions>
					<speed>2.25</speed>
				</extensions>
			</trkpt>
			<trkpt lat="53.2625933" lon="-8.93472329">
				<ele>64.0</ele>
				<time>2014-08-17T16:16:04Z</time>
				<extensions>
					<speed>1.75</speed>
				</extensions>
			</trkpt>
			<trkpt lat="53.26259312" lon="-8.9347508">
				<ele>64.0</ele>
				<time>2014-08-17T16:16:05Z</time>
				<extensions>
					<speed>1.5</speed>
				</extensions>
			</trkpt>
			<trkpt lat="53.26258439" lon="-8.93477064">
				<ele>64.0</ele>
				<time>2014-08-17T16:16:06Z</time>
				<extensions>
					<speed>0.75</speed>
				</extensions>
			</trkpt>
			<trkpt lat="53.26258621" lon="-8.93478502">
				<ele>64.0</ele>
				<time>2014-08-17T16:16:07Z</time>
				<extensions>
					<speed>0.0</speed>
				</extensions>
			</trkpt>
			<trkpt lat="53.26258453" lon="-8.93478787">
				<ele>64.0</ele>
				<time>2014-08-17T16:16:08Z</time>
				<extensions>
					<speed>0.0</speed>
				</extensions>
			</trkpt>
			<trkpt lat="53.2625871" lon="-8.93479362">
				<ele>64.0</ele>
				<time>2014-08-17T16:16:09Z</time>
				<extensions>
					<speed>0.0</speed>
				</extensions>
			</trkpt>
			<trkpt lat="53.26259222" lon="-8.93479973">
				<ele>65.0</ele>
				<time>2014-08-17T16:16:10Z</time>
				<extensions>
					<speed>0.0</speed>
				</extensions>
			</trkpt>
			<trkpt lat="53.26258844" lon="-8.93479895">
				<ele>64.0</ele>
				<time>2014-08-17T16:16:11Z</time>
				<extensions>
					<speed>0.0</speed>
				</extensions>
			</trkpt>
			<trkpt lat="53.26258433" lon="-8.93480232">
				<ele>64.0</ele>
				<time>2014-08-17T16:16:12Z</time>
				<extensions>
					<speed>0.0</speed>
				</extensions>
			</trkpt>
			<trkpt lat="53.26258779" lon="-8.93480804">
				<ele>65.0</ele>
				<time>2014-08-17T16:16:13Z</time>
				<extensions>
					<speed>0.0</speed>
				</extensions>
			</trkpt>
			<trkpt lat="53.26258605" lon="-8.93480528">
				<ele>64.0</ele>
				<time>2014-08-17T16:16:14Z</time>
				<extensions>
					<speed>0.0</speed>
				</extensions>
			</trkpt>
			<trkpt lat="53.26258619" lon="-8.93480675">
				<ele>65.0</ele>
				<time>2014-08-17T16:16:15Z</time>
				<extensions>
					<speed>0.0</speed>
				</extensions>
			</trkpt>
			<trkpt lat="53.26259096" lon="-8.93480936">
				<ele>65.0</ele>
				<time>2014-08-17T16:16:16Z</time>
				<extensions>
					<speed>0.0</speed>
				</extensions>
			</trkpt>
			<trkpt lat="53.26259251" lon="-8.93481044">
				<ele>65.0</ele>
				<time>2014-08-17T16:16:17Z</time>
				<extensions>
					<speed>0.0</speed>
				</extensions>
			</trkpt>
			<trkpt lat="53.26259272" lon="-8.93481136">
				<ele>65.0</ele>
				<time>2014-08-17T16:16:18Z</time>
				<extensions>
					<speed>0.0</speed>
				</extensions>
			</trkpt>
			<trkpt lat="53.26259356" lon="-8.93481209">
				<ele>65.0</ele>
				<time>2014-08-17T16:16:19Z</time>
				<extensions>
					<speed>0.0</speed>
				</extensions>
			</trkpt>
			<trkpt lat="53.26259381" lon="-8.93481227">
				<ele>65.0</ele>
				<time>2014-08-17T16:16:20Z</time>
				<extensions>
					<speed>0.0</speed>
				</extensions>
			</trkpt>
			<trkpt lat="53.26259377" lon="-8.93481228">
				<ele>65.0</ele>
				<time>2014-08-17T16:16:21Z</time>
				<extensions>
					<speed>0.0</speed>
				</extensions>
			</trkpt>
			<trkpt lat="53.26259381" lon="-8.93481229">
				<ele>65.0</ele>
				<time>2014-08-17T16:16:22Z</time>
				<extensions>
					<speed>0.0</speed>
				</extensions>
			</trkpt>
			<trkpt lat="53.26259384" lon="-8.93481233">
				<ele>65.0</ele>
				<time>2014-08-17T16:16:23Z</time>
				<extensions>
					<speed>0.0</speed>
				</extensions>
			</trkpt>
			<trkpt lat="53.26259388" lon="-8.93481238">
				<ele>65.0</ele>
				<time>2014-08-17T16:16:24Z</time>
				<extensions>
					<speed>0.0</speed>
				</extensions>
			</trkpt>
			<trkpt lat="53.26259388" lon="-8.93481241">
				<ele>65.0</ele>
				<time>2014-08-17T16:16:25Z</time>
				<extensions>
					<speed>0.0</speed>
				</extensions>
			</trkpt>
			<trkpt lat="53.2625939" lon="-8.93481242">
				<ele>65.0</ele>
				<time>2014-08-17T16:16:26Z</time>
				<extensions>
					<speed>0.0</speed>
				</extensions>
			</trkpt>
			<trkpt lat="53.26259396" lon="-8.93481244">
				<ele>65.0</ele>
				<time>2014-08-17T16:16:27Z</time>
				<extensions>
					<speed>0.0</speed>
				</extensions>
			</trkpt>
			<trkpt lat="53.262594" lon="-8.93481248">
				<ele>65.0</ele>
				<time>2014-08-17T16:16:28Z</time>
				<extensions>
					<speed>0.0</speed>
				</extensions>
			</trkpt>
			<trkpt lat="53.26259404" lon="-8.93481251">
				<ele>65.0</ele>
				<time>2014-08-17T16:16:29Z</time>
				<extensions>
					<speed>0.0</speed>
				</extensions>
			</trkpt>
			<trkpt lat="53.26259403" lon="-8.93481252">
				<ele>65.0</ele>
				<time>2014-08-17T16:16:30Z</time>
				<extensions>
					<speed>0.0</speed>
				</extensions>
			</trkpt>
			<trkpt lat="53.26259408" lon="-8.93481256">
				<ele>65.0</ele>
				<time>2014-08-17T16:16:31Z</time>
				<extensions>
					<speed>0.0</speed>
				</extensions>
			</trkpt>
			<trkpt lat="53.26259414" lon="-8.93481256">
				<ele>65.0</ele>
				<time>2014-08-17T16:16:32Z</time>
				<extensions>
					<speed>0.0</speed>
				</extensions>
			</trkpt>
			<trkpt lat="53.26259412" lon="-8.93481261">
				<ele>65.0</ele>
				<time>2014-08-17T16:16:33Z</time>
				<extensions>
					<speed>0.0</speed>
				</extensions>
			</trkpt>
			<trkpt lat="53.26259412" lon="-8.93481262">
				<ele>65.0</ele>
				<time>2014-08-17T16:16:34Z</time>
				<extensions>
					<speed>0.0</speed>
				</extensions>
			</trkpt>
			<trkpt lat="53.2625941" lon="-8.93481266">
				<ele>65.0</ele>
				<time>2014-08-17T16:16:35Z</time>
				<extensions>
					<speed>0.0</speed>
				</extensions>
			</trkpt>
			<trkpt lat="53.26259418" lon="-8.93481409">
				<ele>65.0</ele>
				<time>2014-08-17T16:16:36Z</time>
				<extensions>
					<speed>0.75</speed>
				</extensions>
			</trkpt>
			<trkpt lat="53.2625989" lon="-8.93483486">
				<ele>65.0</ele>
				<time>2014-08-17T16:16:37Z</time>
				<extensions>
					<speed>1.5</speed>
				</extensions>
			</trkpt>
			<trkpt lat="53.26260909" lon="-8.93485299">
				<ele>65.0</ele>
				<time>2014-08-17T16:16:38Z</time>
				<extensions>
					<speed>2.0</speed>
				</extensions>
			</trkpt>
			<trkpt lat="53.26262462" lon="-8.93487456">
				<ele>65.0</ele>
				<time>2014-08-17T16:16:39Z</time>
				<extensions>
					<speed>2.25</speed>
				</extensions>
			</trkpt>
			<trkpt lat="53.2626394" lon="-8.93489108">
				<ele>65.0</ele>
				<time>2014-08-17T16:16:40Z</time>
				<extensions>
					<speed>1.75</speed>
				</extensions>
			</trkpt>
			<trkpt lat="53.26265285" lon="-8.93490481">
				<ele>65.0</ele>
				<time>2014-08-17T16:16:41Z</time>
				<extensions>
					<speed>1.75</speed>
				</extensions>
			</trkpt>
			<trkpt lat="53.26265128" lon="-8.93490934">
				<ele>66.0</ele>
				<time>2014-08-17T16:16:42Z</time>
				<extensions>
					<speed>0.0</speed>
				</extensions>
			</trkpt>
			<trkpt lat="53.2626513" lon="-8.93490464">
				<ele>65.0</ele>
				<time>2014-08-17T16:16:43Z</time>
				<extensions>
					<speed>0.0</speed>
				</extensions>
			</trkpt>
			<trkpt lat="53.2626487" lon="-8.93490419">
				<ele>65.0</ele>
				<time>2014-08-17T16:16:44Z</time>
				<extensions>
					<speed>0.0</speed>
				</extensions>
			</trkpt>
			<trkpt lat="53.2626487" lon="-8.93490419">
				<ele>65.0</ele>
				<time>2014-08-17T16:16:45Z</time>
				<extensions>
					<speed>0.0</speed>
				</extensions>
			</trkpt>
			<trkpt lat="53.26264949" lon="-8.93490576">
				<ele>65.0</ele>
				<time>2014-08-17T16:16:46Z</time>
				<extensions>
					<speed>0.0</speed>
				</extensions>
			</trkpt>
			<trkpt lat="53.26264949" lon="-8.93490576">
				<ele>65.0</ele>
				<time>2014-08-17T16:16:47Z</time>
				<extensions>
					<speed>0.0</speed>
				</extensions>
			</trkpt>
			<trkpt lat="53.26264715" lon="-8.93490161">
				<ele>64.0</ele>
				<time>2014-08-17T16:16:48Z</time>
				<extensions>
					<speed>0.0</speed>
				</extensions>
			</trkpt>
			<trkpt lat="53.26264741" lon="-8.93489947">
				<ele>64.0</ele>
				<time>2014-08-17T16:16:49Z</time>
				<extensions>
					<speed>0.0</speed>
				</extensions>
			</trkpt>
			<trkpt lat="53.26264713" lon="-8.93490027">
				<ele>64.0</ele>
				<time>2014-08-17T16:16:50Z</time>
				<extensions>
					<speed>0.0</speed>
				</extensions>
			</trkpt>
			<trkpt lat="53.26264744" lon="-8.9348983">
				<ele>64.0</ele>
				<time>2014-08-17T16:16:51Z</time>
				<extensions>
					<speed>0.0</speed>
				</extensions>
			</trkpt>
			<trkpt lat="53.26264812" lon="-8.93489471">
				<ele>64.0</ele>
				<time>2014-08-17T16:16:52Z</time>
				<extensions>
					<speed>0.0</speed>
				</extensions>
			</trkpt>
			<trkpt lat="53.26264846" lon="-8.93489418">
				<ele>64.0</ele>
				<time>2014-08-17T16:16:53Z</time>
				<extensions>
					<speed>0.0</speed>
				</extensions>
			</trkpt>
			<trkpt lat="53.2626483" lon="-8.93489434">
				<ele>64.0</ele>
				<time>2014-08-17T16:16:54Z</time>
				<extensions>
					<speed>0.0</speed>
				</extensions>
			</trkpt>
			<trkpt lat="53.26264832" lon="-8.93489434">
				<ele>64.0</ele>
				<time>2014-08-17T16:16:55Z</time>
				<extensions>
					<speed>0.0</speed>
				</extensions>
			</trkpt>
			<trkpt lat="53.26264833" lon="-8.93489431">
				<ele>64.0</ele>
				<time>2014-08-17T16:16:56Z</time>
				<extensions>
					<speed>0.0</speed>
				</extensions>
			</trkpt>
			<trkpt lat="53.26264835" lon="-8.9348943">
				<ele>64.0</ele>
				<time>2014-08-17T16:16:57Z</time>
				<extensions>
					<speed>0.0</speed>
				</extensions>
			</trkpt>
			<trkpt lat="53.26264836" lon="-8.93489427">
				<ele>64.0</ele>
				<time>2014-08-17T16:16:58Z</time>
				<extensions>
					<speed>0.0</speed>
				</extensions>
			</trkpt>
			<trkpt lat="53.26264807" lon="-8.93489405">
				<ele>64.0</ele>
				<time>2014-08-17T16:16:59Z</time>
				<extensions>
					<speed>0.25</speed>
				</extensions>
			</trkpt>
			<trkpt lat="53.2626614" lon="-8.93489249">
				<ele>65.0</ele>
				<time>2014-08-17T16:17:00Z</time>
				<extensions>
					<speed>0.75</speed>
				</extensions>
			</trkpt>
			<trkpt lat="53.26266885" lon="-8.93490711">
				<ele>65.0</ele>
				<time>2014-08-17T16:17:01Z</time>
				<extensions>
					<speed>1.5</speed>
				</extensions>
			</trkpt>
			<trkpt lat="53.26271042" lon="-8.93491968">
				<ele>66.0</ele>
				<time>2014-08-17T16:17:02Z</time>
				<extensions>
					<speed>3.25</speed>
				</extensions>
			</trkpt>
			<trkpt lat="53.2627315" lon="-8.93493633">
				<ele>65.0</ele>
				<time>2014-08-17T16:17:03Z</time>
				<extensions>
					<speed>4.25</speed>
				</extensions>
			</trkpt>
			<trkpt lat="53.26276684" lon="-8.93495041">
				<ele>64.0</ele>
				<time>2014-08-17T16:17:04Z</time>
				<extensions>
					<speed>4.25</speed>
				</extensions>
			</trkpt>
			<trkpt lat="53.26281108" lon="-8.93494152">
				<ele>64.0</ele>
				<time>2014-08-17T16:17:05Z</time>
				<extensions>
					<speed>5.0</speed>
				</extensions>
			</trkpt>
			<trkpt lat="53.26286118" lon="-8.93491345">
				<ele>64.0</ele>
				<time>2014-08-17T16:17:06Z</time>
				<extensions>
					<speed>6.25</speed>
				</extensions>
			</trkpt>
			<trkpt lat="53.26291246" lon="-8.93486654">
				<ele>64.0</ele>
				<time>2014-08-17T16:17:07Z</time>
				<extensions>
					<speed>6.25</speed>
				</extensions>
			</trkpt>
			<trkpt lat="53.26296166" lon="-8.9348152">
				<ele>65.0</ele>
				<time>2014-08-17T16:17:08Z</time>
				<extensions>
					<speed>6.25</speed>
				</extensions>
			</trkpt>
			<trkpt lat="53.26300389" lon="-8.93476947">
				<ele>64.0</ele>
				<time>2014-08-17T16:17:09Z</time>
				<extensions>
					<speed>6.0</speed>
				</extensions>
			</trkpt>
			<trkpt lat="53.26304219" lon="-8.93472563">
				<ele>64.0</ele>
				<time>2014-08-17T16:17:10Z</time>
				<extensions>
					<speed>5.5</speed>
				</extensions>
			</trkpt>
			<trkpt lat="53.26308909" lon="-8.9346735">
				<ele>64.0</ele>
				<time>2014-08-17T16:17:11Z</time>
				<extensions>
					<speed>5.25</speed>
				</extensions>
			</trkpt>
			<trkpt lat="53.2631269" lon="-8.93462805">
				<ele>65.0</ele>
				<time>2014-08-17T16:17:12Z</time>
				<extensions>
					<speed>4.5</speed>
				</extensions>
			</trkpt>
			<trkpt lat="53.26316259" lon="-8.93459724">
				<ele>65.0</ele>
				<time>2014-08-17T16:17:13Z</time>
				<extensions>
					<speed>3.75</speed>
				</extensions>
			</trkpt>
			<trkpt lat="53.26318491" lon="-8.93457399">
				<ele>65.0</ele>
				<time>2014-08-17T16:17:14Z</time>
				<extensions>
					<speed>2.75</speed>
				</extensions>
			</trkpt>
			<trkpt lat="53.2632009" lon="-8.93457123">
				<ele>65.0</ele>
				<time>2014-08-17T16:17:15Z</time>
				<extensions>
					<speed>1.25</speed>
				</extensions>
			</trkpt>
			<trkpt lat="53.26320945" lon="-8.93456513">
				<ele>65.0</ele>
				<time>2014-08-17T16:17:16Z</time>
				<extensions>
					<speed>1.0</speed>
				</extensions>
			</trkpt>
			<trkpt lat="53.26320895" lon="-8.93456936">
				<ele>64.0</ele>
				<time>2014-08-17T16:17:17Z</time>
				<extensions>
					<speed>0.5</speed>
				</extensions>
			</trkpt>
			<trkpt lat="53.26321927" lon="-8.93457918">
				<ele>64.0</ele>
				<time>2014-08-17T16:17:18Z</time>
				<extensions>
					<speed>0.0</speed>
				</extensions>
			</trkpt>
			<trkpt lat="53.26321927" lon="-8.93457918">
				<ele>64.0</ele>
				<time>2014-08-17T16:17:19Z</time>
				<extensions>
					<speed>0.0</speed>
				</extensions>
			</trkpt>
			<trkpt lat="53.26321927" lon="-8.93457918">
				<ele>64.0</ele>
				<time>2014-08-17T16:17:20Z</time>
				<extensions>
					<speed>0.0</speed>
				</extensions>
			</trkpt>
			<trkpt lat="53.26322312" lon="-8.93458895">
				<ele>64.0</ele>
				<time>2014-08-17T16:17:21Z</time>
				<extensions>
					<speed>0.0</speed>
				</extensions>
			</trkpt>
			<trkpt lat="53.26322491" lon="-8.93459637">
				<ele>63.0</ele>
				<time>2014-08-17T16:17:22Z</time>
				<extensions>
					<speed>0.0</speed>
				</extensions>
			</trkpt>
			<trkpt lat="53.2632281" lon="-8.93459823">
				<ele>63.0</ele>
				<time>2014-08-17T16:17:23Z</time>
				<extensions>
					<speed>0.0</speed>
				</extensions>
			</trkpt>
			<trkpt lat="53.26322769" lon="-8.93459703">
				<ele>63.0</ele>
				<time>2014-08-17T16:17:24Z</time>
				<extensions>
					<speed>0.0</speed>
				</extensions>
			</trkpt>
			<trkpt lat="53.26323037" lon="-8.93459918">
				<ele>62.0</ele>
				<time>2014-08-17T16:17:25Z</time>
				<extensions>
					<speed>0.0</speed>
				</extensions>
			</trkpt>
			<trkpt lat="53.26323094" lon="-8.9345974">
				<ele>62.0</ele>
				<time>2014-08-17T16:17:26Z</time>
				<extensions>
					<speed>0.0</speed>
				</extensions>
			</trkpt>
			<trkpt lat="53.26323032" lon="-8.93459547">
				<ele>62.0</ele>
				<time>2014-08-17T16:17:27Z</time>
				<extensions>
					<speed>0.0</speed>
				</extensions>
			</trkpt>
			<trkpt lat="53.26323269" lon="-8.93459597">
				<ele>63.0</ele>
				<time>2014-08-17T16:17:28Z</time>
				<extensions>
					<speed>0.0</speed>
				</extensions>
			</trkpt>
			<trkpt lat="53.26323421" lon="-8.93459737">
				<ele>63.0</ele>
				<time>2014-08-17T16:17:29Z</time>
				<extensions>
					<speed>0.0</speed>
				</extensions>
			</trkpt>
			<trkpt lat="53.26323413" lon="-8.93459715">
				<ele>63.0</ele>
				<time>2014-08-17T16:17:30Z</time>
				<extensions>
					<speed>0.0</speed>
				</extensions>
			</trkpt>
			<trkpt lat="53.26323427" lon="-8.93459718">
				<ele>63.0</ele>
				<time>2014-08-17T16:17:31Z</time>
				<extensions>
					<speed>0.0</speed>
				</extensions>
			</trkpt>
			<trkpt lat="53.2632343" lon="-8.93459728">
				<ele>63.0</ele>
				<time>2014-08-17T16:17:32Z</time>
				<extensions>
					<speed>0.0</speed>
				</extensions>
			</trkpt>
			<trkpt lat="53.26323432" lon="-8.93459732">
				<ele>63.0</ele>
				<time>2014-08-17T16:17:33Z</time>
				<extensions>
					<speed>0.0</speed>
				</extensions>
			</trkpt>
			<trkpt lat="53.26323435" lon="-8.93459729">
				<ele>63.0</ele>
				<time>2014-08-17T16:17:34Z</time>
				<extensions>
					<speed>0.0</speed>
				</extensions>
			</trkpt>
			<trkpt lat="53.26323438" lon="-8.93459733">
				<ele>63.0</ele>
				<time>2014-08-17T16:17:35Z</time>
				<extensions>
					<speed>0.0</speed>
				</extensions>
			</trkpt>
			<trkpt lat="53.26323437" lon="-8.93459735">
				<ele>63.0</ele>
				<time>2014-08-17T16:17:36Z</time>
				<extensions>
					<speed>0.0</speed>
				</extensions>
			</trkpt>
			<trkpt lat="53.26323436" lon="-8.93459737">
				<ele>63.0</ele>
				<time>2014-08-17T16:17:37Z</time>
				<extensions>
					<speed>0.0</speed>
				</extensions>
			</trkpt>
			<trkpt lat="53.26323433" lon="-8.93459741">
				<ele>63.0</ele>
				<time>2014-08-17T16:17:38Z</time>
				<extensions>
					<speed>0.0</speed>
				</extensions>
			</trkpt>
			<trkpt lat="53.26323433" lon="-8.93459743">
				<ele>63.0</ele>
				<time>2014-08-17T16:17:39Z</time>
				<extensions>
					<speed>0.0</speed>
				</extensions>
			</trkpt>
			<trkpt lat="53.26323433" lon="-8.9345974">
				<ele>63.0</ele>
				<time>2014-08-17T16:17:40Z</time>
				<extensions>
					<speed>0.0</speed>
				</extensions>
			</trkpt>
			<trkpt lat="53.26323622" lon="-8.93459768">
				<ele>63.0</ele>
				<time>2014-08-17T16:17:41Z</time>
				<extensions>
					<speed>1.0</speed>
				</extensions>
			</trkpt>
			<trkpt lat="53.26324953" lon="-8.93461281">
				<ele>62.0</ele>
				<time>2014-08-17T16:17:42Z</time>
				<extensions>
					<speed>2.5</speed>
				</extensions>
			</trkpt>
			<trkpt lat="53.26326792" lon="-8.93463428">
				<ele>62.0</ele>
				<time>2014-08-17T16:17:43Z</time>
				<extensions>
					<speed>3.25</speed>
				</extensions>
			</trkpt>
			<trkpt lat="53.26328367" lon="-8.93468341">
				<ele>62.0</ele>
				<time>2014-08-17T16:17:44Z</time>
				<extensions>
					<speed>3.75</speed>
				</extensions>
			</trkpt>
			<trkpt lat="53.26329434" lon="-8.93473807">
				<ele>63.0</ele>
				<time>2014-08-17T16:17:45Z</time>
				<extensions>
					<speed>4.0</speed>
				</extensions>
			</trkpt>
			<trkpt lat="53.26330542" lon="-8.93480454">
				<ele>62.0</ele>
				<time>2014-08-17T16:17:46Z</time>
				<extensions>
					<speed>4.75</speed>
				</extensions>
			</trkpt>
			<trkpt lat="53.26331597" lon="-8.93487198">
				<ele>63.0</ele>
				<time>2014-08-17T16:17:47Z</time>
				<extensions>
					<speed>4.75</speed>
				</extensions>
			</trkpt>
			<trkpt lat="53.26332804" lon="-8.93493829">
				<ele>63.0</ele>
				<time>2014-08-17T16:17:48Z</time>
				<extensions>
					<speed>4.5</speed>
				</extensions>
			</trkpt>
			<trkpt lat="53.26334028" lon="-8.93499746">
				<ele>63.0</ele>
				<time>2014-08-17T16:17:49Z</time>
				<extensions>
					<speed>3.5</speed>
				</extensions>
			</trkpt>
			<trkpt lat="53.26335449" lon="-8.93504228">
				<ele>64.0</ele>
				<time>2014-08-17T16:17:50Z</time>
				<extensions>
					<speed>2.75</speed>
				</extensions>
			</trkpt>
			<trkpt lat="53.2633597" lon="-8.93507348">
				<ele>64.0</ele>
				<time>2014-08-17T16:17:51Z</time>
				<extensions>
					<speed>2.0</speed>
				</extensions>
			</trkpt>
			<trkpt lat="53.26336689" lon="-8.9351034">
				<ele>64.0</ele>
				<time>2014-08-17T16:17:52Z</time>
				<extensions>
					<speed>1.75</speed>
				</extensions>
			</trkpt>
			<trkpt lat="53.26336674" lon="-8.93512113">
				<ele>64.0</ele>
				<time>2014-08-17T16:17:53Z</time>
				<extensions>
					<speed>1.25</speed>
				</extensions>
			</trkpt>
			<trkpt lat="53.26337026" lon="-8.93512995">
				<ele>64.0</ele>
				<time>2014-08-17T16:17:54Z</time>
				<extensions>
					<speed>0.5</speed>
				</extensions>
			</trkpt>
			<trkpt lat="53.26337625" lon="-8.93514061">
				<ele>64.0</ele>
				<time>2014-08-17T16:17:55Z</time>
				<extensions>
					<speed>0.0</speed>
				</extensions>
			</trkpt>
			<trkpt lat="53.26337543" lon="-8.93514105">
				<ele>64.0</ele>
				<time>2014-08-17T16:17:56Z</time>
				<extensions>
					<speed>0.0</speed>
				</extensions>
			</trkpt>
			<trkpt lat="53.26337543" lon="-8.93514105">
				<ele>64.0</ele>
				<time>2014-08-17T16:17:57Z</time>
				<extensions>
					<speed>0.0</speed>
				</extensions>
			</trkpt>
			<trkpt lat="53.26337543" lon="-8.93514105">
				<ele>64.0</ele>
				<time>2014-08-17T16:17:58Z</time>
				<extensions>
					<speed>0.0</speed>
				</extensions>
			</trkpt>
			<trkpt lat="53.2633715" lon="-8.93514396">
				<ele>64.0</ele>
				<time>2014-08-17T16:17:59Z</time>
				<extensions>
					<speed>0.0</speed>
				</extensions>
			</trkpt>
			<trkpt lat="53.26337448" lon="-8.93513846">
				<ele>64.0</ele>
				<time>2014-08-17T16:18:00Z</time>
				<extensions>
					<speed>0.0</speed>
				</extensions>
			</trkpt>
			<trkpt lat="53.26337433" lon="-8.9351366">
				<ele>64.0</ele>
				<time>2014-08-17T16:18:01Z</time>
				<extensions>
					<speed>0.0</speed>
				</extensions>
			</trkpt>
			<trkpt lat="53.26337393" lon="-8.93513649">
				<ele>64.0</ele>
				<time>2014-08-17T16:18:02Z</time>
				<extensions>
					<speed>0.0</speed>
				</extensions>
			</trkpt>
			<trkpt lat="53.26337533" lon="-8.93513851">
				<ele>64.0</ele>
				<time>2014-08-17T16:18:03Z</time>
				<extensions>
					<speed>0.0</speed>
				</extensions>
			</trkpt>
			<trkpt lat="53.26337509" lon="-8.93513969">
				<ele>65.0</ele>
				<time>2014-08-17T16:18:04Z</time>
				<extensions>
					<speed>0.0</speed>
				</extensions>
			</trkpt>
			<trkpt lat="53.26337514" lon="-8.93513934">
				<ele>64.0</ele>
				<time>2014-08-17T16:18:05Z</time>
				<extensions>
					<speed>0.0</speed>
				</extensions>
			</trkpt>
			<trkpt lat="53.26337483" lon="-8.9351396">
				<ele>64.0</ele>
				<time>2014-08-17T16:18:06Z</time>
				<extensions>
					<speed>0.0</speed>
				</extensions>
			</trkpt>
			<trkpt lat="53.26337461" lon="-8.93513972">
				<ele>64.0</ele>
				<time>2014-08-17T16:18:07Z</time>
				<extensions>
					<speed>0.0</speed>
				</extensions>
			</trkpt>
			<trkpt lat="53.26337466" lon="-8.93513963">
				<ele>64.0</ele>
				<time>2014-08-17T16:18:08Z</time>
				<extensions>
					<speed>0.0</speed>
				</extensions>
			</trkpt>
			<trkpt lat="53.26337459" lon="-8.93513967">
				<ele>64.0</ele>
				<time>2014-08-17T16:18:09Z</time>
				<extensions>
					<speed>0.0</speed>
				</extensions>
			</trkpt>
			<trkpt lat="53.26337459" lon="-8.93513967">
				<ele>64.0</ele>
				<time>2014-08-17T16:18:10Z</time>
				<extensions>
					<speed>0.0</speed>
				</extensions>
			</trkpt>
			<trkpt lat="53.26337454" lon="-8.93513964">
				<ele>64.0</ele>
				<time>2014-08-17T16:18:11Z</time>
				<extensions>
					<speed>0.0</speed>
				</extensions>
			</trkpt>
			<trkpt lat="53.26337477" lon="-8.93514065">
				<ele>64.0</ele>
				<time>2014-08-17T16:18:12Z</time>
				<extensions>
					<speed>0.5</speed>
				</extensions>
			</trkpt>
			<trkpt lat="53.26337972" lon="-8.93515202">
				<ele>65.0</ele>
				<time>2014-08-17T16:18:13Z</time>
				<extensions>
					<speed>0.75</speed>
				</extensions>
			</trkpt>
			<trkpt lat="53.26338751" lon="-8.93517246">
				<ele>65.0</ele>
				<time>2014-08-17T16:18:14Z</time>
				<extensions>
					<speed>1.75</speed>
				</extensions>
			</trkpt>
			<trkpt lat="53.26339638" lon="-8.93519961">
				<ele>64.0</ele>
				<time>2014-08-17T16:18:15Z</time>
				<extensions>
					<speed>2.5</speed>
				</extensions>
			</trkpt>
			<trkpt lat="53.26340553" lon="-8.93523551">
				<ele>64.0</ele>
				<time>2014-08-17T16:18:16Z</time>
				<extensions>
					<speed>3.25</speed>
				</extensions>
			</trkpt>
			<trkpt lat="53.26341924" lon="-8.93528373">
				<ele>64.0</ele>
				<time>2014-08-17T16:18:17Z</time>
				<extensions>
					<speed>3.25</speed>
				</extensions>
			</trkpt>
			<trkpt lat="53.26343445" lon="-8.93533261">
				<ele>64.0</ele>
				<time>2014-08-17T16:18:18Z</time>
				<extensions>
					<speed>4.0</speed>
				</extensions>
			</trkpt>
			<trkpt lat="53.26344734" lon="-8.93538879">
				<ele>64.0</ele>
				<time>2014-08-17T16:18:19Z</time>
				<extensions>
					<speed>4.25</speed>
				</extensions>
			</trkpt>
			<trkpt lat="53.26346285" lon="-8.93544472">
				<ele>64.0</ele>
				<time>2014-08-17T16:18:20Z</time>
				<extensions>
					<speed>3.75</speed>
				</extensions>
			</trkpt>
			<trkpt lat="53.26347493" lon="-8.93548891">
				<ele>64.0</ele>
				<time>2014-08-17T16:18:21Z</time>
				<extensions>
					<speed>2.75</speed>
				</extensions>
			</trkpt>
			<trkpt lat="53.2634821" lon="-8.93552116">
				<ele>64.0</ele>
				<time>2014-08-17T16:18:22Z</time>
				<extensions>
					<speed>1.5</speed>
				</extensions>
			</trkpt>
			<trkpt lat="53.26348737" lon="-8.9355281">
				<ele>65.0</ele>
				<time>2014-08-17T16:18:23Z</time>
				<extensions>
					<speed>1.0</speed>
				</extensions>
			</trkpt>
			<trkpt lat="53.26348809" lon="-8.93553102">
				<ele>65.0</ele>
				<time>2014-08-17T16:18:24Z</time>
				<extensions>
					<speed>0.25</speed>
				</extensions>
			</trkpt>
			<trkpt lat="53.26348859" lon="-8.93552955">
				<ele>65.0</ele>
				<time>2014-08-17T16:18:25Z</time>
				<extensions>
					<speed>0.0</speed>
				</extensions>
			</trkpt>
			<trkpt lat="53.26349094" lon="-8.9355281">
				<ele>65.0</ele>
				<time>2014-08-17T16:18:26Z</time>
				<extensions>
					<speed>0.0</speed>
				</extensions>
			</trkpt>
			<trkpt lat="53.26349288" lon="-8.93552857">
				<ele>65.0</ele>
				<time>2014-08-17T16:18:27Z</time>
				<extensions>
					<speed>0.0</speed>
				</extensions>
			</trkpt>
			<trkpt lat="53.26349502" lon="-8.93552805">
				<ele>65.0</ele>
				<time>2014-08-17T16:18:28Z</time>
				<extensions>
					<speed>0.0</speed>
				</extensions>
			</trkpt>
			<trkpt lat="53.26349193" lon="-8.9355307">
				<ele>65.0</ele>
				<time>2014-08-17T16:18:29Z</time>
				<extensions>
					<speed>0.0</speed>
				</extensions>
			</trkpt>
			<trkpt lat="53.26349241" lon="-8.93552882">
				<ele>65.0</ele>
				<time>2014-08-17T16:18:30Z</time>
				<extensions>
					<speed>0.0</speed>
				</extensions>
			</trkpt>
			<trkpt lat="53.26349213" lon="-8.9355225">
				<ele>65.0</ele>
				<time>2014-08-17T16:18:31Z</time>
				<extensions>
					<speed>0.0</speed>
				</extensions>
			</trkpt>
			<trkpt lat="53.26349231" lon="-8.93552344">
				<ele>65.0</ele>
				<time>2014-08-17T16:18:32Z</time>
				<extensions>
					<speed>0.5</speed>
				</extensions>
			</trkpt>
			<trkpt lat="53.26349831" lon="-8.9355444">
				<ele>64.0</ele>
				<time>2014-08-17T16:18:33Z</time>
				<extensions>
					<speed>1.75</speed>
				</extensions>
			</trkpt>
			<trkpt lat="53.2635121" lon="-8.93556957">
				<ele>64.0</ele>
				<time>2014-08-17T16:18:34Z</time>
				<extensions>
					<speed>2.5</speed>
				</extensions>
			</trkpt>
			<trkpt lat="53.26352502" lon="-8.93561268">
				<ele>64.0</ele>
				<time>2014-08-17T16:18:35Z</time>
				<extensions>
					<speed>3.0</speed>
				</extensions>
			</trkpt>
			<trkpt lat="53.26353679" lon="-8.93566009">
				<ele>64.0</ele>
				<time>2014-08-17T16:18:36Z</time>
				<extensions>
					<speed>3.25</speed>
				</extensions>
			</trkpt>
			<trkpt lat="53.26354543" lon="-8.93569951">
				<ele>64.0</ele>
				<time>2014-08-17T16:18:37Z</time>
				<extensions>
					<speed>3.0</speed>
				</extensions>
			</trkpt>
			<trkpt lat="53.26355681" lon="-8.93574023">
				<ele>64.0</ele>
				<time>2014-08-17T16:18:38Z</time>
				<extensions>
					<speed>3.0</speed>
				</extensions>
			</trkpt>
			<trkpt lat="53.2635654" lon="-8.93577751">
				<ele>64.0</ele>
				<time>2014-08-17T16:18:39Z</time>
				<extensions>
					<speed>3.0</speed>
				</extensions>
			</trkpt>
			<trkpt lat="53.26358135" lon="-8.9358124">
				<ele>64.0</ele>
				<time>2014-08-17T16:18:40Z</time>
				<extensions>
					<speed>2.5</speed>
				</extensions>
			</trkpt>
			<trkpt lat="53.26359022" lon="-8.93583518">
				<ele>65.0</ele>
				<time>2014-08-17T16:18:41Z</time>
				<extensions>
					<speed>1.75</speed>
				</extensions>
			</trkpt>
			<trkpt lat="53.26359305" lon="-8.93585273">
				<ele>65.0</ele>
				<time>2014-08-17T16:18:42Z</time>
				<extensions>
					<speed>0.75</speed>
				</extensions>
			</trkpt>
			<trkpt lat="53.26359529" lon="-8.93585544">
				<ele>64.0</ele>
				<time>2014-08-17T16:18:43Z</time>
				<extensions>
					<speed>0.0</speed>
				</extensions>
			</trkpt>
			<trkpt lat="53.26359608" lon="-8.93585495">
				<ele>64.0</ele>
				<time>2014-08-17T16:18:44Z</time>
				<extensions>
					<speed>0.0</speed>
				</extensions>
			</trkpt>
			<trkpt lat="53.26359846" lon="-8.9358569">
				<ele>64.0</ele>
				<time>2014-08-17T16:18:45Z</time>
				<extensions>
					<speed>0.0</speed>
				</extensions>
			</trkpt>
			<trkpt lat="53.26359428" lon="-8.93585659">
				<ele>64.0</ele>
				<time>2014-08-17T16:18:46Z</time>
				<extensions>
					<speed>0.0</speed>
				</extensions>
			</trkpt>
			<trkpt lat="53.26359349" lon="-8.93585561">
				<ele>64.0</ele>
				<time>2014-08-17T16:18:47Z</time>
				<extensions>
					<speed>0.0</speed>
				</extensions>
			</trkpt>
			<trkpt lat="53.2635902" lon="-8.93585473">
				<ele>63.0</ele>
				<time>2014-08-17T16:18:48Z</time>
				<extensions>
					<speed>0.0</speed>
				</extensions>
			</trkpt>
			<trkpt lat="53.26358943" lon="-8.93585586">
				<ele>63.0</ele>
				<time>2014-08-17T16:18:49Z</time>
				<extensions>
					<speed>0.0</speed>
				</extensions>
			</trkpt>
			<trkpt lat="53.26358872" lon="-8.93585709">
				<ele>63.0</ele>
				<time>2014-08-17T16:18:50Z</time>
				<extensions>
					<speed>0.0</speed>
				</extensions>
			</trkpt>
			<trkpt lat="53.26358964" lon="-8.93585927">
				<ele>63.0</ele>
				<time>2014-08-17T16:18:51Z</time>
				<extensions>
					<speed>0.0</speed>
				</extensions>
			</trkpt>
			<trkpt lat="53.26358998" lon="-8.93586036">
				<ele>64.0</ele>
				<time>2014-08-17T16:18:52Z</time>
				<extensions>
					<speed>0.0</speed>
				</extensions>
			</trkpt>
			<trkpt lat="53.26358906" lon="-8.93585733">
				<ele>64.0</ele>
				<time>2014-08-17T16:18:53Z</time>
				<extensions>
					<speed>0.0</speed>
				</extensions>
			</trkpt>
			<trkpt lat="53.26358918" lon="-8.93585691">
				<ele>64.0</ele>
				<time>2014-08-17T16:18:54Z</time>
				<extensions>
					<speed>0.0</speed>
				</extensions>
			</trkpt>
			<trkpt lat="53.26358882" lon="-8.93585669">
				<ele>64.0</ele>
				<time>2014-08-17T16:18:55Z</time>
				<extensions>
					<speed>0.0</speed>
				</extensions>
			</trkpt>
			<trkpt lat="53.26358883" lon="-8.9358566">
				<ele>64.0</ele>
				<time>2014-08-17T16:18:56Z</time>
				<extensions>
					<speed>0.0</speed>
				</extensions>
			</trkpt>
			<trkpt lat="53.26358954" lon="-8.93585936">
				<ele>64.0</ele>
				<time>2014-08-17T16:18:57Z</time>
				<extensions>
					<speed>1.5</speed>
				</extensions>
			</trkpt>
			<trkpt lat="53.26359458" lon="-8.93589426">
				<ele>64.0</ele>
				<time>2014-08-17T16:18:58Z</time>
				<extensions>
					<speed>2.5</speed>
				</extensions>
			</trkpt>
			<trkpt lat="53.26360985" lon="-8.93594214">
				<ele>64.0</ele>
				<time>2014-08-17T16:18:59Z</time>
				<extensions>
					<speed>3.5</speed>
				</extensions>
			</trkpt>
			<trkpt lat="53.26363226" lon="-8.93598993">
				<ele>64.0</ele>
				<time>2014-08-17T16:19:00Z</time>
				<extensions>
					<speed>3.5</speed>
				</extensions>
			</trkpt>
			<trkpt lat="53.26364239" lon="-8.93603548">
				<ele>64.0</ele>
				<time>2014-08-17T16:19:01Z</time>
				<extensions>
					<speed>3.25</speed>
				</extensions>
			</trkpt>
			<trkpt lat="53.26365011" lon="-8.93607133">
				<ele>63.0</ele>
				<time>2014-08-17T16:19:02Z</time>
				<extensions>
					<speed>2.25</speed>
				</extensions>
			</trkpt>
			<trkpt lat="53.26365173" lon="-8.93610191">
				<ele>63.0</ele>
				<time>2014-08-17T16:19:03Z</time>
				<extensions>
					<speed>1.25</speed>
				</extensions>
			</trkpt>
			<trkpt lat="53.2636561" lon="-8.93611857">
				<ele>64.0</ele>
				<time>2014-08-17T16:19:04Z</time>
				<extensions>
					<speed>0.5</speed>
				</extensions>
			</trkpt>
			<trkpt lat="53.26366252" lon="-8.93612177">
				<ele>64.0</ele>
				<time>2014-08-17T16:19:05Z</time>
				<extensions>
					<speed>0.25</speed>
				</extensions>
			</trkpt>
			<trkpt lat="53.26366261" lon="-8.93613136">
				<ele>64.0</ele>
				<time>2014-08-17T16:19:06Z</time>
				<extensions>
					<speed>0.0</speed>
				</extensions>
			</trkpt>
			<trkpt lat="53.26366274" lon="-8.93613309">
				<ele>64.0</ele>
				<time>2014-08-17T16:19:07Z</time>
				<extensions>
					<speed>0.0</speed>
				</extensions>
			</trkpt>
			<trkpt lat="53.26366285" lon="-8.9361342">
				<ele>64.0</ele>
				<time>2014-08-17T16:19:08Z</time>
				<extensions>
					<speed>0.5</speed>
				</extensions>
			</trkpt>
			<trkpt lat="53.26366375" lon="-8.93614478">
				<ele>64.0</ele>
				<time>2014-08-17T16:19:09Z</time>
				<extensions>
					<speed>0.75</speed>
				</extensions>
			</trkpt>
			<trkpt lat="53.2636665" lon="-8.93615988">
				<ele>64.0</ele>
				<time>2014-08-17T16:19:10Z</time>
				<extensions>
					<speed>1.25</speed>
				</extensions>
			</trkpt>
			<trkpt lat="53.26366714" lon="-8.93618933">
				<ele>64.0</ele>
				<time>2014-08-17T16:19:11Z</time>
				<extensions>
					<speed>2.25</speed>
				</extensions>
			</trkpt>
			<trkpt lat="53.26366104" lon="-8.93622845">
				<ele>64.0</ele>
				<time>2014-08-17T16:19:12Z</time>
				<extensions>
					<speed>2.75</speed>
				</extensions>
			</trkpt>
			<trkpt lat="53.26365055" lon="-8.93627482">
				<ele>64.0</ele>
				<time>2014-08-17T16:19:13Z</time>
				<extensions>
					<speed>3.25</speed>
				</extensions>
			</trkpt>
			<trkpt lat="53.26363176" lon="-8.93632273">
				<ele>63.0</ele>
				<time>2014-08-17T16:19:14Z</time>
				<extensions>
					<speed>3.75</speed>
				</extensions>
			</trkpt>
			<trkpt lat="53.26360337" lon="-8.93636351">
				<ele>63.0</ele>
				<time>2014-08-17T16:19:15Z</time>
				<extensions>
					<speed>4.25</speed>
				</extensions>
			</trkpt>
			<trkpt lat="53.26356971" lon="-8.93640648">
				<ele>63.0</ele>
				<time>2014-08-17T16:19:16Z</time>
				<extensions>
					<speed>4.25</speed>
				</extensions>
			</trkpt>
			<trkpt lat="53.26351826" lon="-8.93644071">
				<ele>63.0</ele>
				<time>2014-08-17T16:19:17Z</time>
				<extensions>
					<speed>5.75</speed>
				</extensions>
			</trkpt>
			<trkpt lat="53.26346925" lon="-8.93647691">
				<ele>64.0</ele>
				<time>2014-08-17T16:19:18Z</time>
				<extensions>
					<speed>6.5</speed>
				</extensions>
			</trkpt>
			<trkpt lat="53.26341182" lon="-8.93650856">
				<ele>64.0</ele>
				<time>2014-08-17T16:19:19Z</time>
				<extensions>
					<speed>6.5</speed>
				</extensions>
			</trkpt>
			<trkpt lat="53.26335183" lon="-8.93653517">
				<ele>63.0</ele>
				<time>2014-08-17T16:19:20Z</time>
				<extensions>
					<speed>6.25</speed>
				</extensions>
			</trkpt>
			<trkpt lat="53.26329211" lon="-8.93655875">
				<ele>64.0</ele>
				<time>2014-08-17T16:19:21Z</time>
				<extensions>
					<speed>6.0</speed>
				</extensions>
			</trkpt>
			<trkpt lat="53.26324213" lon="-8.93659257">
				<ele>64.0</ele>
				<time>2014-08-17T16:19:22Z</time>
				<extensions>
					<speed>5.0</speed>
				</extensions>
			</trkpt>
			<trkpt lat="53.26319807" lon="-8.93660258">
				<ele>63.0</ele>
				<time>2014-08-17T16:19:23Z</time>
				<extensions>
					<speed>5.0</speed>
				</extensions>
			</trkpt>
			<trkpt lat="53.26315591" lon="-8.93661194">
				<ele>64.0</ele>
				<time>2014-08-17T16:19:24Z</time>
				<extensions>
					<speed>4.25</speed>
				</extensions>
			</trkpt>
			<trkpt lat="53.26312236" lon="-8.93660324">
				<ele>64.0</ele>
				<time>2014-08-17T16:19:25Z</time>
				<extensions>
					<speed>4.0</speed>
				</extensions>
			</trkpt>
			<trkpt lat="53.26309398" lon="-8.93657628">
				<ele>65.0</ele>
				<time>2014-08-17T16:19:26Z</time>
				<extensions>
					<speed>3.5</speed>
				</extensions>
			</trkpt>
			<trkpt lat="53.26306988" lon="-8.93653762">
				<ele>65.0</ele>
				<time>2014-08-17T16:19:27Z</time>
				<extensions>
					<speed>2.5</speed>
				</extensions>
			</trkpt>
			<trkpt lat="53.26306318" lon="-8.9365167">
				<ele>65.0</ele>
				<time>2014-08-17T16:19:28Z</time>
				<extensions>
					<speed>1.0</speed>
				</extensions>
			</trkpt>
			<trkpt lat="53.26305998" lon="-8.93651894">
				<ele>65.0</ele>
				<time>2014-08-17T16:19:29Z</time>
				<extensions>
					<speed>0.0</speed>
				</extensions>
			</trkpt>
			<trkpt lat="53.26305984" lon="-8.93651791">
				<ele>65.0</ele>
				<time>2014-08-17T16:19:30Z</time>
				<extensions>
					<speed>0.0</speed>
				</extensions>
			</trkpt>
			<trkpt lat="53.26305906" lon="-8.93652038">
				<ele>65.0</ele>
				<time>2014-08-17T16:19:31Z</time>
				<extensions>
					<speed>0.0</speed>
				</extensions>
			</trkpt>
			<trkpt lat="53.2630581" lon="-8.93652522">
				<ele>65.0</ele>
				<time>2014-08-17T16:19:32Z</time>
				<extensions>
					<speed>0.0</speed>
				</extensions>
			</trkpt>
			<trkpt lat="53.26305666" lon="-8.93652648">
				<ele>65.0</ele>
				<time>2014-08-17T16:19:33Z</time>
				<extensions>
					<speed>0.0</speed>
				</extensions>
			</trkpt>
			<trkpt lat="53.26305352" lon="-8.93652469">
				<ele>65.0</ele>
				<time>2014-08-17T16:19:34Z</time>
				<extensions>
					<speed>0.0</speed>
				</extensions>
			</trkpt>
			<trkpt lat="53.26305241" lon="-8.93652584">
				<ele>65.0</ele>
				<time>2014-08-17T16:19:35Z</time>
				<extensions>
					<speed>0.0</speed>
				</extensions>
			</trkpt>
			<trkpt lat="53.26305148" lon="-8.93652495">
				<ele>65.0</ele>
				<time>2014-08-17T16:19:36Z</time>
				<extensions>
					<speed>0.0</speed>
				</extensions>
			</trkpt>
			<trkpt lat="53.26305085" lon="-8.93652351">
				<ele>65.0</ele>
				<time>2014-08-17T16:19:37Z</time>
				<extensions>
					<speed>1.0</speed>
				</extensions>
			</trkpt>
			<trkpt lat="53.26304248" lon="-8.93650421">
				<ele>65.0</ele>
				<time>2014-08-17T16:19:38Z</time>
				<extensions>
					<speed>2.5</speed>
				</extensions>
			</trkpt>
			<trkpt lat="53.2630286" lon="-8.93646939">
				<ele>65.0</ele>
				<time>2014-08-17T16:19:39Z</time>
				<extensions>
					<speed>3.25</speed>
				</extensions>
			</trkpt>
			<trkpt lat="53.26301676" lon="-8.93642859">
				<ele>64.0</ele>
				<time>2014-08-17T16:19:40Z</time>
				<extensions>
					<speed>3.25</speed>
				</extensions>
			</trkpt>
			<trkpt lat="53.26299859" lon="-8.93638461">
				<ele>64.0</ele>
				<time>2014-08-17T16:19:41Z</time>
				<extensions>
					<speed>3.75</speed>
				</extensions>
			</trkpt>
			<trkpt lat="53.2629692" lon="-8.93633443">
				<ele>65.0</ele>
				<time>2014-08-17T16:19:42Z</time>
				<extensions>
					<speed>4.5</speed>
				</extensions>
			</trkpt>
			<trkpt lat="53.2629338" lon="-8.93627174">
				<ele>66.0</ele>
				<time>2014-08-17T16:19:43Z</time>
				<extensions>
					<speed>5.0</speed>
				</extensions>
			</trkpt>
			<trkpt lat="53.26291034" lon="-8.93621351">
				<ele>65.0</ele>
				<time>2014-08-17T16:19:44Z</time>
				<extensions>
					<speed>4.75</speed>
				</extensions>
			</trkpt>
			<trkpt lat="53.26289264" lon="-8.9361513">
				<ele>66.0</ele>
				<time>2014-08-17T16:19:45Z</time>
				<extensions>
					<speed>4.5</speed>
				</extensions>
			</trkpt>
			<trkpt lat="53.26287559" lon="-8.93608832">
				<ele>66.0</ele>
				<time>2014-08-17T16:19:46Z</time>
				<extensions>
					<speed>4.5</speed>
				</extensions>
			</trkpt>
			<trkpt lat="53.26286498" lon="-8.93603781">
				<ele>66.0</ele>
				<time>2014-08-17T16:19:47Z</time>
				<extensions>
					<speed>4.25</speed>
				</extensions>
			</trkpt>
			<trkpt lat="53.26285716" lon="-8.93598551">
				<ele>65.0</ele>
				<time>2014-08-17T16:19:48Z</time>
				<extensions>
					<speed>3.5</speed>
				</extensions>
			</trkpt>
			<trkpt lat="53.26284316" lon="-8.93593725">
				<ele>66.0</ele>
				<time>2014-08-17T16:19:49Z</time>
				<extensions>
					<speed>3.5</speed>
				</extensions>
			</trkpt>
			<trkpt lat="53.26283921" lon="-8.9358963">
				<ele>66.0</ele>
				<time>2014-08-17T16:19:50Z</time>
				<extensions>
					<speed>2.5</speed>
				</extensions>
			</trkpt>
			<trkpt lat="53.26283515" lon="-8.93586974">
				<ele>66.0</ele>
				<time>2014-08-17T16:19:51Z</time>
				<extensions>
					<speed>1.5</speed>
				</extensions>
			</trkpt>
			<trkpt lat="53.26283494" lon="-8.93585971">
				<ele>66.0</ele>
				<time>2014-08-17T16:19:52Z</time>
				<extensions>
					<speed>0.5</speed>
				</extensions>
			</trkpt>
			<trkpt lat="53.26283524" lon="-8.9358572">
				<ele>66.0</ele>
				<time>2014-08-17T16:19:53Z</time>
				<extensions>
					<speed>0.0</speed>
				</extensions>
			</trkpt>
			<trkpt lat="53.26283557" lon="-8.93585605">
				<ele>66.0</ele>
				<time>2014-08-17T16:19:54Z</time>
				<extensions>
					<speed>0.0</speed>
				</extensions>
			</trkpt>
			<trkpt lat="53.26283684" lon="-8.93585217">
				<ele>65.0</ele>
				<time>2014-08-17T16:19:55Z</time>
				<extensions>
					<speed>0.0</speed>
				</extensions>
			</trkpt>
			<trkpt lat="53.26283559" lon="-8.93584877">
				<ele>64.0</ele>
				<time>2014-08-17T16:19:56Z</time>
				<extensions>
					<speed>0.0</speed>
				</extensions>
			</trkpt>
			<trkpt lat="53.26283558" lon="-8.93584756">
				<ele>64.0</ele>
				<time>2014-08-17T16:19:57Z</time>
				<extensions>
					<speed>0.5</speed>
				</extensions>
			</trkpt>
			<trkpt lat="53.26283285" lon="-8.93582111">
				<ele>64.0</ele>
				<time>2014-08-17T16:19:58Z</time>
				<extensions>
					<speed>2.25</speed>
				</extensions>
			</trkpt>
			<trkpt lat="53.2628268" lon="-8.93577634">
				<ele>63.0</ele>
				<time>2014-08-17T16:19:59Z</time>
				<extensions>
					<speed>3.25</speed>
				</extensions>
			</trkpt>
			<trkpt lat="53.26281682" lon="-8.93572943">
				<ele>64.0</ele>
				<time>2014-08-17T16:20:00Z</time>
				<extensions>
					<speed>3.75</speed>
				</extensions>
			</trkpt>
			<trkpt lat="53.26280195" lon="-8.93569371">
				<ele>64.0</ele>
				<time>2014-08-17T16:20:01Z</time>
				<extensions>
					<speed>2.75</speed>
				</extensions>
			</trkpt>
			<trkpt lat="53.26278169" lon="-8.93568267">
				<ele>63.0</ele>
				<time>2014-08-17T16:20:02Z</time>
				<extensions>
					<speed>2.75</speed>
				</extensions>
			</trkpt>
			<trkpt lat="53.26276563" lon="-8.9356782">
				<ele>63.0</ele>
				<time>2014-08-17T16:20:03Z</time>
				<extensions>
					<speed>2.25</speed>
				</extensions>
			</trkpt>
			<trkpt lat="53.26274699" lon="-8.93569503">
				<ele>62.0</ele>
				<time>2014-08-17T16:20:04Z</time>
				<extensions>
					<speed>2.5</speed>
				</extensions>
			</trkpt>
			<trkpt lat="53.26274677" lon="-8.93572541">
				<ele>62.0</ele>
				<time>2014-08-17T16:20:05Z</time>
				<extensions>
					<speed>2.0</speed>
				</extensions>
			</trkpt>
			<trkpt lat="53.2627443" lon="-8.93574064">
				<ele>62.0</ele>
				<time>2014-08-17T16:20:06Z</time>
				<extensions>
					<speed>0.0</speed>
				</extensions>
			</trkpt>
			<trkpt lat="53.26274597" lon="-8.93573931">
				<ele>62.0</ele>
				<time>2014-08-17T16:20:07Z</time>
				<extensions>
					<speed>0.0</speed>
				</extensions>
			</trkpt>
			<trkpt lat="53.26274635" lon="-8.93573854">
				<ele>62.0</ele>
				<time>2014-08-17T16:20:08Z</time>
				<extensions>
					<speed>0.5</speed>
				</extensions>
			</trkpt>
			<trkpt lat="53.26274968" lon="-8.935722">
				<ele>62.0</ele>
				<time>2014-08-17T16:20:09Z</time>
				<extensions>
					<speed>1.5</speed>
				</extensions>
			</trkpt>
			<trkpt lat="53.26274981" lon="-8.93570733">
				<ele>62.0</ele>
				<time>2014-08-17T16:20:10Z</time>
				<extensions>
					<speed>1.25</speed>
				</extensions>
			</trkpt>
			<trkpt lat="53.26275061" lon="-8.93569797">
				<ele>62.0</ele>
				<time>2014-08-17T16:20:11Z</time>
				<extensions>
					<speed>0.75</speed>
				</extensions>
			</trkpt>
			<trkpt lat="53.26275227" lon="-8.93569283">
				<ele>62.0</ele>
				<time>2014-08-17T16:20:12Z</time>
				<extensions>
					<speed>0.25</speed>
				</extensions>
			</trkpt>
			<trkpt lat="53.26275768" lon="-8.93570968">
				<ele>62.0</ele>
				<time>2014-08-17T16:20:13Z</time>
				<extensions>
					<speed>1.5</speed>
				</extensions>
			</trkpt>
			<trkpt lat="53.26278418" lon="-8.93571866">
				<ele>61.0</ele>
				<time>2014-08-17T16:20:14Z</time>
				<extensions>
					<speed>2.75</speed>
				</extensions>
			</trkpt>
			<trkpt lat="53.2628085" lon="-8.93573949">
				<ele>62.0</ele>
				<time>2014-08-17T16:20:15Z</time>
				<extensions>
					<speed>3.25</speed>
				</extensions>
			</trkpt>
			<trkpt lat="53.26283434" lon="-8.93577501">
				<ele>62.0</ele>
				<time>2014-08-17T16:20:16Z</time>
				<extensions>
					<speed>3.75</speed>
				</extensions>
			</trkpt>
			<trkpt lat="53.26285985" lon="-8.935816">
				<ele>61.0</ele>
				<time>2014-08-17T16:20:17Z</time>
				<extensions>
					<speed>3.5</speed>
				</extensions>
			</trkpt>
			<trkpt lat="53.26287644" lon="-8.93586267">
				<ele>62.0</ele>
				<time>2014-08-17T16:20:18Z</time>
				<extensions>
					<speed>3.5</speed>
				</extensions>
			</trkpt>
			<trkpt lat="53.26288542" lon="-8.9359096">
				<ele>62.0</ele>
				<time>2014-08-17T16:20:19Z</time>
				<extensions>
					<speed>3.5</speed>
				</extensions>
			</trkpt>
			<trkpt lat="53.26289624" lon="-8.93596386">
				<ele>62.0</ele>
				<time>2014-08-17T16:20:20Z</time>
				<extensions>
					<speed>3.5</speed>
				</extensions>
			</trkpt>
			<trkpt lat="53.26290867" lon="-8.93600526">
				<ele>62.0</ele>
				<time>2014-08-17T16:20:21Z</time>
				<extensions>
					<speed>3.5</speed>
				</extensions>
			</trkpt>
			<trkpt lat="53.26291227" lon="-8.93605597">
				<ele>62.0</ele>
				<time>2014-08-17T16:20:22Z</time>
				<extensions>
					<speed>3.25</speed>
				</extensions>
			</trkpt>
			<trkpt lat="53.26290272" lon="-8.93610364">
				<ele>63.0</ele>
				<time>2014-08-17T16:20:23Z</time>
				<extensions>
					<speed>3.5</speed>
				</extensions>
			</trkpt>
			<trkpt lat="53.26288192" lon="-8.93613603">
				<ele>63.0</ele>
				<time>2014-08-17T16:20:24Z</time>
				<extensions>
					<speed>3.5</speed>
				</extensions>
			</trkpt>
			<trkpt lat="53.26285502" lon="-8.93615448">
				<ele>63.0</ele>
				<time>2014-08-17T16:20:25Z</time>
				<extensions>
					<speed>3.0</speed>
				</extensions>
			</trkpt>
			<trkpt lat="53.26283469" lon="-8.93617042">
				<ele>63.0</ele>
				<time>2014-08-17T16:20:26Z</time>
				<extensions>
					<speed>2.75</speed>
				</extensions>
			</trkpt>
			<trkpt lat="53.26282248" lon="-8.93618261">
				<ele>63.0</ele>
				<time>2014-08-17T16:20:27Z</time>
				<extensions>
					<speed>1.5</speed>
				</extensions>
			</trkpt>
			<trkpt lat="53.26281206" lon="-8.93619075">
				<ele>64.0</ele>
				<time>2014-08-17T16:20:28Z</time>
				<extensions>
					<speed>0.75</speed>
				</extensions>
			</trkpt>
			<trkpt lat="53.26280461" lon="-8.93619554">
				<ele>63.0</ele>
				<time>2014-08-17T16:20:29Z</time>
				<extensions>
					<speed>0.0</speed>
				</extensions>
			</trkpt>
			<trkpt lat="53.26280253" lon="-8.936195">
				<ele>63.0</ele>
				<time>2014-08-17T16:20:30Z</time>
				<extensions>
					<speed>0.0</speed>
				</extensions>
			</trkpt>
			<trkpt lat="53.26280572" lon="-8.93618998">
				<ele>63.0</ele>
				<time>2014-08-17T16:20:31Z</time>
				<extensions>
					<speed>0.0</speed>
				</extensions>
			</trkpt>
			<trkpt lat="53.26280324" lon="-8.93618695">
				<ele>62.0</ele>
				<time>2014-08-17T16:20:32Z</time>
				<extensions>
					<speed>0.0</speed>
				</extensions>
			</trkpt>
			<trkpt lat="53.26280395" lon="-8.93619026">
				<ele>62.0</ele>
				<time>2014-08-17T16:20:33Z</time>
				<extensions>
					<speed>0.0</speed>
				</extensions>
			</trkpt>
			<trkpt lat="53.26280479" lon="-8.93618896">
				<ele>63.0</ele>
				<time>2014-08-17T16:20:34Z</time>
				<extensions>
					<speed>0.0</speed>
				</extensions>
			</trkpt>
			<trkpt lat="53.2628048" lon="-8.93619083">
				<ele>63.0</ele>
				<time>2014-08-17T16:20:35Z</time>
				<extensions>
					<speed>0.0</speed>
				</extensions>
			</trkpt>
			<trkpt lat="53.26280364" lon="-8.93618855">
				<ele>62.0</ele>
				<time>2014-08-17T16:20:36Z</time>
				<extensions>
					<speed>0.0</speed>
				</extensions>
			</trkpt>
			<trkpt lat="53.26280364" lon="-8.93618855">
				<ele>62.0</ele>
				<time>2014-08-17T16:20:37Z</time>
				<extensions>
					<speed>0.0</speed>
				</extensions>
			</trkpt>
			<trkpt lat="53.26280364" lon="-8.93618855">
				<ele>62.0</ele>
				<time>2014-08-17T16:20:38Z</time>
				<extensions>
					<speed>0.0</speed>
				</extensions>
			</trkpt>
			<trkpt lat="53.26280516" lon="-8.93618752">
				<ele>63.0</ele>
				<time>2014-08-17T16:20:39Z</time>
				<extensions>
					<speed>0.0</speed>
				</extensions>
			</trkpt>
			<trkpt lat="53.26280646" lon="-8.93618724">
				<ele>63.0</ele>
				<time>2014-08-17T16:20:40Z</time>
				<extensions>
					<speed>0.0</speed>
				</extensions>
			</trkpt>
			<trkpt lat="53.26280682" lon="-8.93618784">
				<ele>63.0</ele>
				<time>2014-08-17T16:20:41Z</time>
				<extensions>
					<speed>0.0</speed>
				</extensions>
			</trkpt>
			<trkpt lat="53.26280656" lon="-8.93618786">
				<ele>63.0</ele>
				<time>2014-08-17T16:20:42Z</time>
				<extensions>
					<speed>0.0</speed>
				</extensions>
			</trkpt>
			<trkpt lat="53.26280661" lon="-8.93618789">
				<ele>63.0</ele>
				<time>2014-08-17T16:20:43Z</time>
				<extensions>
					<speed>0.0</speed>
				</extensions>
			</trkpt>
			<trkpt lat="53.26280654" lon="-8.93618778">
				<ele>63.0</ele>
				<time>2014-08-17T16:20:44Z</time>
				<extensions>
					<speed>0.0</speed>
				</extensions>
			</trkpt>
			<trkpt lat="53.26280365" lon="-8.9361897">
				<ele>63.0</ele>
				<time>2014-08-17T16:20:45Z</time>
				<extensions>
					<speed>2.0</speed>
				</extensions>
			</trkpt>
			<trkpt lat="53.26277416" lon="-8.93620235">
				<ele>63.0</ele>
				<time>2014-08-17T16:20:46Z</time>
				<extensions>
					<speed>3.0</speed>
				</extensions>
			</trkpt>
			<trkpt lat="53.26274014" lon="-8.93622716">
				<ele>63.0</ele>
				<time>2014-08-17T16:20:47Z</time>
				<extensions>
					<speed>4.0</speed>
				</extensions>
			</trkpt>
			<trkpt lat="53.26271559" lon="-8.93624711">
				<ele>63.0</ele>
				<time>2014-08-17T16:20:48Z</time>
				<extensions>
					<speed>3.75</speed>
				</extensions>
			</trkpt>
			<trkpt lat="53.26268097" lon="-8.93627917">
				<ele>63.0</ele>
				<time>2014-08-17T16:20:49Z</time>
				<extensions>
					<speed>4.5</speed>
				</extensions>
			</trkpt>
			<trkpt lat="53.26265105" lon="-8.93631193">
				<ele>63.0</ele>
				<time>2014-08-17T16:20:50Z</time>
				<extensions>
					<speed>4.5</speed>
				</extensions>
			</trkpt>
			<trkpt lat="53.26261469" lon="-8.93635434">
				<ele>63.0</ele>
				<time>2014-08-17T16:20:51Z</time>
				<extensions>
					<speed>4.5</speed>
				</extensions>
			</trkpt>
			<trkpt lat="53.26259786" lon="-8.93639094">
				<ele>64.0</ele>
				<time>2014-08-17T16:20:52Z</time>
				<extensions>
					<speed>4.25</speed>
				</extensions>
			</trkpt>
			<trkpt lat="53.26257261" lon="-8.93643819">
				<ele>64.0</ele>
				<time>2014-08-17T16:20:53Z</time>
				<extensions>
					<speed>3.75</speed>
				</extensions>
			</trkpt>
			<trkpt lat="53.26254055" lon="-8.93648077">
				<ele>64.0</ele>
				<time>2014-08-17T16:20:54Z</time>
				<extensions>
					<speed>4.0</speed>
				</extensions>
			</trkpt>
			<trkpt lat="53.26251639" lon="-8.93652039">
				<ele>63.0</ele>
				<time>2014-08-17T16:20:55Z</time>
				<extensions>
					<speed>3.5</speed>
				</extensions>
			</trkpt>
			<trkpt lat="53.26249389" lon="-8.93654705">
				<ele>63.0</ele>
				<time>2014-08-17T16:20:56Z</time>
				<extensions>
					<speed>2.5</speed>
				</extensions>
			</trkpt>
			<trkpt lat="53.26248348" lon="-8.93655813">
				<ele>64.0</ele>
				<time>2014-08-17T16:20:57Z</time>
				<extensions>
					<speed>1.5</speed>
				</extensions>
			</trkpt>
			<trkpt lat="53.26247863" lon="-8.93656436">
				<ele>63.0</ele>
				<time>2014-08-17T16:20:58Z</time>
				<extensions>
					<speed>0.0</speed>
				</extensions>
			</trkpt>
			<trkpt lat="53.26247312" lon="-8.93655804">
				<ele>63.0</ele>
				<time>2014-08-17T16:20:59Z</time>
				<extensions>
					<speed>0.0</speed>
				</extensions>
			</trkpt>
			<trkpt lat="53.26247405" lon="-8.93655931">
				<ele>63.0</ele>
				<time>2014-08-17T16:21:00Z</time>
				<extensions>
					<speed>0.0</speed>
				</extensions>
			</trkpt>
			<trkpt lat="53.26247347" lon="-8.93656092">
				<ele>63.0</ele>
				<time>2014-08-17T16:21:01Z</time>
				<extensions>
					<speed>0.0</speed>
				</extensions>
			</trkpt>
			<trkpt lat="53.26246986" lon="-8.93656265">
				<ele>63.0</ele>
				<time>2014-08-17T16:21:02Z</time>
				<extensions>
					<speed>0.0</speed>
				</extensions>
			</trkpt>
			<trkpt lat="53.26247037" lon="-8.936561">
				<ele>63.0</ele>
				<time>2014-08-17T16:21:03Z</time>
				<extensions>
					<speed>0.0</speed>
				</extensions>
			</trkpt>
			<trkpt lat="53.26246605" lon="-8.9365621">
				<ele>63.0</ele>
				<time>2014-08-17T16:21:04Z</time>
				<extensions>
					<speed>0.0</speed>
				</extensions>
			</trkpt>
			<trkpt lat="53.26246414" lon="-8.93656546">
				<ele>63.0</ele>
				<time>2014-08-17T16:21:05Z</time>
				<extensions>
					<speed>1.75</speed>
				</extensions>
			</trkpt>
			<trkpt lat="53.26244088" lon="-8.93658576">
				<ele>63.0</ele>
				<time>2014-08-17T16:21:06Z</time>
				<extensions>
					<speed>3.0</speed>
				</extensions>
			</trkpt>
			<trkpt lat="53.26240476" lon="-8.936605">
				<ele>63.0</ele>
				<time>2014-08-17T16:21:07Z</time>
				<extensions>
					<speed>4.25</speed>
				</extensions>
			</trkpt>
			<trkpt lat="53.26237417" lon="-8.93661206">
				<ele>64.0</ele>
				<time>2014-08-17T16:21:08Z</time>
				<extensions>
					<speed>3.75</speed>
				</extensions>
			</trkpt>
			<trkpt lat="53.26233574" lon="-8.93660702">
				<ele>64.0</ele>
				<time>2014-08-17T16:21:09Z</time>
				<extensions>
					<speed>3.5</speed>
				</extensions>
			</trkpt>
			<trkpt lat="53.26230923" lon="-8.93658663">
				<ele>64.0</ele>
				<time>2014-08-17T16:21:10Z</time>
				<extensions>
					<speed>3.25</speed>
				</extensions>
			</trkpt>
			<trkpt lat="53.26228208" lon="-8.9365676">
				<ele>64.0</ele>
				<time>2014-08-17T16:21:11Z</time>
				<extensions>
					<speed>3.25</speed>
				</extensions>
			</trkpt>
			<trkpt lat="53.26225493" lon="-8.93654856">
				<ele>64.0</ele>
				<time>2014-08-17T16:21:12Z</time>
				<extensions>
					<speed>3.25</speed>
				</extensions>
			</trkpt>
			<trkpt lat="53.2622775" lon="-8.93655262">
				<ele>65.0</ele>
				<time>2014-08-17T16:21:13Z</time>
				<extensions>
					<speed>1.75</speed>
				</extensions>
			</trkpt>
			<trkpt lat="53.26226527" lon="-8.93653226">
				<ele>65.0</ele>
				<time>2014-08-17T16:21:14Z</time>
				<extensions>
					<speed>1.25</speed>
				</extensions>
			</trkpt>
			<trkpt lat="53.26225758" lon="-8.93653947">
				<ele>64.0</ele>
				<time>2014-08-17T16:21:15Z</time>
				<extensions>
					<speed>0.75</speed>
				</extensions>
			</trkpt>
			<trkpt lat="53.26225451" lon="-8.93653715">
				<ele>64.0</ele>
				<time>2014-08-17T16:21:16Z</time>
				<extensions>
					<speed>0.5</speed>
				</extensions>
			</trkpt>
			<trkpt lat="53.26225106" lon="-8.93653286">
				<ele>64.0</ele>
				<time>2014-08-17T16:21:17Z</time>
				<extensions>
					<speed>0.5</speed>
				</extensions>
			</trkpt>
			<trkpt lat="53.26224915" lon="-8.93652954">
				<ele>63.0</ele>
				<time>2014-08-17T16:21:18Z</time>
				<extensions>
					<speed>0.0</speed>
				</extensions>
			</trkpt>
			<trkpt lat="53.26224915" lon="-8.93652954">
				<ele>63.0</ele>
				<time>2014-08-17T16:21:19Z</time>
				<extensions>
					<speed>0.0</speed>
				</extensions>
			</trkpt>
			<trkpt lat="53.26224424" lon="-8.93653275">
				<ele>63.0</ele>
				<time>2014-08-17T16:21:20Z</time>
				<extensions>
					<speed>0.0</speed>
				</extensions>
			</trkpt>
			<trkpt lat="53.2622438" lon="-8.9365314">
				<ele>63.0</ele>
				<time>2014-08-17T16:21:21Z</time>
				<extensions>
					<speed>0.0</speed>
				</extensions>
			</trkpt>
			<trkpt lat="53.26224277" lon="-8.93652794">
				<ele>63.0</ele>
				<time>2014-08-17T16:21:22Z</time>
				<extensions>
					<speed>0.0</speed>
				</extensions>
			</trkpt>
			<trkpt lat="53.26224551" lon="-8.93652836">
				<ele>63.0</ele>
				<time>2014-08-17T16:21:23Z</time>
				<extensions>
					<speed>0.0</speed>
				</extensions>
			</trkpt>
			<trkpt lat="53.26224432" lon="-8.93652763">
				<ele>63.0</ele>
				<time>2014-08-17T16:21:24Z</time>
				<extensions>
					<speed>0.0</speed>
				</extensions>
			</trkpt>
			<trkpt lat="53.26224328" lon="-8.93652662">
				<ele>63.0</ele>
				<time>2014-08-17T16:21:25Z</time>
				<extensions>
					<speed>1.0</speed>
				</extensions>
			</trkpt>
			<trkpt lat="53.26223397" lon="-8.93651441">
				<ele>63.0</ele>
				<time>2014-08-17T16:21:26Z</time>
				<extensions>
					<speed>1.5</speed>
				</extensions>
			</trkpt>
			<trkpt lat="53.26222343" lon="-8.93649963">
				<ele>63.0</ele>
				<time>2014-08-17T16:21:27Z</time>
				<extensions>
					<speed>1.5</speed>
				</extensions>
			</trkpt>
			<trkpt lat="53.2622208" lon="-8.93649296">
				<ele>63.0</ele>
				<time>2014-08-17T16:21:28Z</time>
				<extensions>
					<speed>0.0</speed>
				</extensions>
			</trkpt>
			<trkpt lat="53.26221839" lon="-8.93648991">
				<ele>64.0</ele>
				<time>2014-08-17T16:21:29Z</time>
				<extensions>
					<speed>0.0</speed>
				</extensions>
			</trkpt>
			<trkpt lat="53.26221839" lon="-8.93648991">
				<ele>64.0</ele>
				<time>2014-08-17T16:21:30Z</time>
				<extensions>
					<speed>0.0</speed>
				</extensions>
			</trkpt>
			<trkpt lat="53.26222639" lon="-8.93650451">
				<ele>63.0</ele>
				<time>2014-08-17T16:21:31Z</time>
				<extensions>
					<speed>1.25</speed>
				</extensions>
			</trkpt>
			<trkpt lat="53.26223623" lon="-8.93652193">
				<ele>63.0</ele>
				<time>2014-08-17T16:21:32Z</time>
				<extensions>
					<speed>1.5</speed>
				</extensions>
			</trkpt>
			<trkpt lat="53.26224472" lon="-8.9365438">
				<ele>64.0</ele>
				<time>2014-08-17T16:21:33Z</time>
				<extensions>
					<speed>1.5</speed>
				</extensions>
			</trkpt>
			<trkpt lat="53.26224838" lon="-8.93656711">
				<ele>65.0</ele>
				<time>2014-08-17T16:21:34Z</time>
				<extensions>
					<speed>1.75</speed>
				</extensions>
			</trkpt>
			<trkpt lat="53.26225674" lon="-8.93658264">
				<ele>67.0</ele>
				<time>2014-08-17T16:21:35Z</time>
				<extensions>
					<speed>1.5</speed>
				</extensions>
			</trkpt>
			<trkpt lat="53.26225423" lon="-8.93659432">
				<ele>68.0</ele>
				<time>2014-08-17T16:21:36Z</time>
				<extensions>
					<speed>0.5</speed>
				</extensions>
			</trkpt>
			<trkpt lat="53.26225581" lon="-8.93659281">
				<ele>68.0</ele>
				<time>2014-08-17T16:21:37Z</time>
				<extensions>
					<speed>0.5</speed>
				</extensions>
			</trkpt>
			<trkpt lat="53.26226159" lon="-8.93658703">
				<ele>68.0</ele>
				<time>2014-08-17T16:21:38Z</time>
				<extensions>
					<speed>0.25</speed>
				</extensions>
			</trkpt>
			<trkpt lat="53.26226698" lon="-8.93657131">
				<ele>67.0</ele>
				<time>2014-08-17T16:21:39Z</time>
				<extensions>
					<speed>0.5</speed>
				</extensions>
			</trkpt>
			<trkpt lat="53.26228105" lon="-8.93657612">
				<ele>66.0</ele>
				<time>2014-08-17T16:21:40Z</time>
				<extensions>
					<speed>0.5</speed>
				</extensions>
			</trkpt>
			<trkpt lat="53.26229879" lon="-8.93658287">
				<ele>65.0</ele>
				<time>2014-08-17T16:21:41Z</time>
				<extensions>
					<speed>1.75</speed>
				</extensions>
			</trkpt>
			<trkpt lat="53.26232682" lon="-8.9366048">
				<ele>64.0</ele>
				<time>2014-08-17T16:21:42Z</time>
				<extensions>
					<speed>2.5</speed>
				</extensions>
			</trkpt>
			<trkpt lat="53.26235164" lon="-8.93662156">
				<ele>64.0</ele>
				<time>2014-08-17T16:21:43Z</time>
				<extensions>
					<speed>3.0</speed>
				</extensions>
			</trkpt>
			<trkpt lat="53.26237408" lon="-8.93664303">
				<ele>64.0</ele>
				<time>2014-08-17T16:21:44Z</time>
				<extensions>
					<speed>3.25</speed>
				</extensions>
			</trkpt>
			<trkpt lat="53.26240202" lon="-8.93665798">
				<ele>64.0</ele>
				<time>2014-08-17T16:21:45Z</time>
				<extensions>
					<speed>3.5</speed>
				</extensions>
			</trkpt>
			<trkpt lat="53.26243544" lon="-8.9366728">
				<ele>63.0</ele>
				<time>2014-08-17T16:21:46Z</time>
				<extensions>
					<speed>3.75</speed>
				</extensions>
			</trkpt>
			<trkpt lat="53.26247529" lon="-8.93669895">
				<ele>63.0</ele>
				<time>2014-08-17T16:21:47Z</time>
				<extensions>
					<speed>4.75</speed>
				</extensions>
			</trkpt>
			<trkpt lat="53.26251241" lon="-8.93673377">
				<ele>63.0</ele>
				<time>2014-08-17T16:21:48Z</time>
				<extensions>
					<speed>4.75</speed>
				</extensions>
			</trkpt>
			<trkpt lat="53.26254165" lon="-8.9367788">
				<ele>63.0</ele>
				<time>2014-08-17T16:21:49Z</time>
				<extensions>
					<speed>4.75</speed>
				</extensions>
			</trkpt>
			<trkpt lat="53.26257526" lon="-8.93682347">
				<ele>63.0</ele>
				<time>2014-08-17T16:21:50Z</time>
				<extensions>
					<speed>4.5</speed>
				</extensions>
			</trkpt>
			<trkpt lat="53.26260609" lon="-8.93686773">
				<ele>62.0</ele>
				<time>2014-08-17T16:21:51Z</time>
				<extensions>
					<speed>4.0</speed>
				</extensions>
			</trkpt>
			<trkpt lat="53.26263593" lon="-8.93690688">
				<ele>62.0</ele>
				<time>2014-08-17T16:21:52Z</time>
				<extensions>
					<speed>3.75</speed>
				</extensions>
			</trkpt>
			<trkpt lat="53.26266074" lon="-8.9369412">
				<ele>63.0</ele>
				<time>2014-08-17T16:21:53Z</time>
				<extensions>
					<speed>3.5</speed>
				</extensions>
			</trkpt>
			<trkpt lat="53.26268852" lon="-8.93697445">
				<ele>63.0</ele>
				<time>2014-08-17T16:21:54Z</time>
				<extensions>
					<speed>3.5</speed>
				</extensions>
			</trkpt>
			<trkpt lat="53.26271153" lon="-8.93700618">
				<ele>62.0</ele>
				<time>2014-08-17T16:21:55Z</time>
				<extensions>
					<speed>3.25</speed>
				</extensions>
			</trkpt>
			<trkpt lat="53.26273741" lon="-8.93701939">
				<ele>62.0</ele>
				<time>2014-08-17T16:21:56Z</time>
				<extensions>
					<speed>3.25</speed>
				</extensions>
			</trkpt>
			<trkpt lat="53.26276626" lon="-8.93703473">
				<ele>62.0</ele>
				<time>2014-08-17T16:21:57Z</time>
				<extensions>
					<speed>3.25</speed>
				</extensions>
			</trkpt>
			<trkpt lat="53.26279605" lon="-8.93703394">
				<ele>62.0</ele>
				<time>2014-08-17T16:21:58Z</time>
				<extensions>
					<speed>3.25</speed>
				</extensions>
			</trkpt>
			<trkpt lat="53.26282477" lon="-8.93703688">
				<ele>62.0</ele>
				<time>2014-08-17T16:21:59Z</time>
				<extensions>
					<speed>3.5</speed>
				</extensions>
			</trkpt>
			<trkpt lat="53.26284718" lon="-8.93703812">
				<ele>61.0</ele>
				<time>2014-08-17T16:22:00Z</time>
				<extensions>
					<speed>3.0</speed>
				</extensions>
			</trkpt>
			<trkpt lat="53.26287547" lon="-8.93701876">
				<ele>62.0</ele>
				<time>2014-08-17T16:22:01Z</time>
				<extensions>
					<speed>3.25</speed>
				</extensions>
			</trkpt>
			<trkpt lat="53.26290053" lon="-8.93700084">
				<ele>62.0</ele>
				<time>2014-08-17T16:22:02Z</time>
				<extensions>
					<speed>3.25</speed>
				</extensions>
			</trkpt>
			<trkpt lat="53.2629329" lon="-8.93696594">
				<ele>64.0</ele>
				<time>2014-08-17T16:22:03Z</time>
				<extensions>
					<speed>3.5</speed>
				</extensions>
			</trkpt>
			<trkpt lat="53.26295967" lon="-8.9369364">
				<ele>64.0</ele>
				<time>2014-08-17T16:22:04Z</time>
				<extensions>
					<speed>3.5</speed>
				</extensions>
			</trkpt>
			<trkpt lat="53.26298383" lon="-8.93689428">
				<ele>64.0</ele>
				<time>2014-08-17T16:22:05Z</time>
				<extensions>
					<speed>3.75</speed>
				</extensions>
			</trkpt>
			<trkpt lat="53.26301306" lon="-8.93685079">
				<ele>65.0</ele>
				<time>2014-08-17T16:22:06Z</time>
				<extensions>
					<speed>3.75</speed>
				</extensions>
			</trkpt>
			<trkpt lat="53.26303402" lon="-8.93681243">
				<ele>64.0</ele>
				<time>2014-08-17T16:22:07Z</time>
				<extensions>
					<speed>3.5</speed>
				</extensions>
			</trkpt>
			<trkpt lat="53.26304803" lon="-8.93677769">
				<ele>64.0</ele>
				<time>2014-08-17T16:22:08Z</time>
				<extensions>
					<speed>3.25</speed>
				</extensions>
			</trkpt>
			<trkpt lat="53.26307031" lon="-8.93675956">
				<ele>64.0</ele>
				<time>2014-08-17T16:22:09Z</time>
				<extensions>
					<speed>2.75</speed>
				</extensions>
			</trkpt>
			<trkpt lat="53.26308399" lon="-8.93673698">
				<ele>64.0</ele>
				<time>2014-08-17T16:22:10Z</time>
				<extensions>
					<speed>1.75</speed>
				</extensions>
			</trkpt>
			<trkpt lat="53.26310019" lon="-8.9367228">
				<ele>65.0</ele>
				<time>2014-08-17T16:22:11Z</time>
				<extensions>
					<speed>2.25</speed>
				</extensions>
			</trkpt>
			<trkpt lat="53.26311171" lon="-8.93670992">
				<ele>64.0</ele>
				<time>2014-08-17T16:22:12Z</time>
				<extensions>
					<speed>2.0</speed>
				</extensions>
			</trkpt>
			<trkpt lat="53.26312847" lon="-8.93669224">
				<ele>64.0</ele>
				<time>2014-08-17T16:22:13Z</time>
				<extensions>
					<speed>2.5</speed>
				</extensions>
			</trkpt>
			<trkpt lat="53.26315081" lon="-8.93667984">
				<ele>64.0</ele>
				<time>2014-08-17T16:22:14Z</time>
				<extensions>
					<speed>2.75</speed>
				</extensions>
			</trkpt>
			<trkpt lat="53.2631989" lon="-8.93666544">
				<ele>65.0</ele>
				<time>2014-08-17T16:22:15Z</time>
				<extensions>
					<speed>4.0</speed>
				</extensions>
			</trkpt>
			<trkpt lat="53.26323787" lon="-8.93664324">
				<ele>66.0</ele>
				<time>2014-08-17T16:22:16Z</time>
				<extensions>
					<speed>4.25</speed>
				</extensions>
			</trkpt>
			<trkpt lat="53.26327718" lon="-8.93662295">
				<ele>66.0</ele>
				<time>2014-08-17T16:22:17Z</time>
				<extensions>
					<speed>5.0</speed>
				</extensions>
			</trkpt>
			<trkpt lat="53.26332364" lon="-8.93659832">
				<ele>66.0</ele>
				<time>2014-08-17T16:22:18Z</time>
				<extensions>
					<speed>6.0</speed>
				</extensions>
			</trkpt>
			<trkpt lat="53.26337481" lon="-8.93657428">
				<ele>67.0</ele>
				<time>2014-08-17T16:22:19Z</time>
				<extensions>
					<speed>6.25</speed>
				</extensions>
			</trkpt>
			<trkpt lat="53.26342855" lon="-8.93654271">
				<ele>67.0</ele>
				<time>2014-08-17T16:22:20Z</time>
				<extensions>
					<speed>5.75</speed>
				</extensions>
			</trkpt>
			<trkpt lat="53.26346974" lon="-8.93651317">
				<ele>67.0</ele>
				<time>2014-08-17T16:22:21Z</time>
				<extensions>
					<speed>5.25</speed>
				</extensions>
			</trkpt>
			<trkpt lat="53.26351935" lon="-8.93647675">
				<ele>68.0</ele>
				<time>2014-08-17T16:22:22Z</time>
				<extensions>
					<speed>5.25</speed>
				</extensions>
			</trkpt>
			<trkpt lat="53.2635584" lon="-8.93644612">
				<ele>68.0</ele>
				<time>2014-08-17T16:22:23Z</time>
				<extensions>
					<speed>4.5</speed>
				</extensions>
			</trkpt>
			<trkpt lat="53.2635903" lon="-8.93642439">
				<ele>68.0</ele>
				<time>2014-08-17T16:22:24Z</time>
				<extensions>
					<speed>4.0</speed>
				</extensions>
			</trkpt>
			<trkpt lat="53.26362361" lon="-8.93640827">
				<ele>68.0</ele>
				<time>2014-08-17T16:22:25Z</time>
				<extensions>
					<speed>3.5</speed>
				</extensions>
			</trkpt>
			<trkpt lat="53.26363917" lon="-8.93638896">
				<ele>69.0</ele>
				<time>2014-08-17T16:22:26Z</time>
				<extensions>
					<speed>2.0</speed>
				</extensions>
			</trkpt>
			<trkpt lat="53.26364991" lon="-8.93637283">
				<ele>68.0</ele>
				<time>2014-08-17T16:22:27Z</time>
				<extensions>
					<speed>1.5</speed>
				</extensions>
			</trkpt>
			<trkpt lat="53.26365789" lon="-8.93635942">
				<ele>68.0</ele>
				<time>2014-08-17T16:22:28Z</time>
				<extensions>
					<speed>1.0</speed>
				</extensions>
			</trkpt>
			<trkpt lat="53.26366594" lon="-8.93635239">
				<ele>68.0</ele>
				<time>2014-08-17T16:22:29Z</time>
				<extensions>
					<speed>0.75</speed>
				</extensions>
			</trkpt>
			<trkpt lat="53.26366678" lon="-8.93634427">
				<ele>68.0</ele>
				<time>2014-08-17T16:22:30Z</time>
				<extensions>
					<speed>0.5</speed>
				</extensions>
			</trkpt>
			<trkpt lat="53.26367089" lon="-8.93634489">
				<ele>68.0</ele>
				<time>2014-08-17T16:22:31Z</time>
				<extensions>
					<speed>1.0</speed>
				</extensions>
			</trkpt>
			<trkpt lat="53.26367134" lon="-8.9363401">
				<ele>67.0</ele>
				<time>2014-08-17T16:22:32Z</time>
				<extensions>
					<speed>0.5</speed>
				</extensions>
			</trkpt>
			<trkpt lat="53.26367112" lon="-8.93634257">
				<ele>67.0</ele>
				<time>2014-08-17T16:22:33Z</time>
				<extensions>
					<speed>0.0</speed>
				</extensions>
			</trkpt>
			<trkpt lat="53.26366869" lon="-8.9363478">
				<ele>67.0</ele>
				<time>2014-08-17T16:22:34Z</time>
				<extensions>
					<speed>0.0</speed>
				</extensions>
			</trkpt>
			<trkpt lat="53.26366744" lon="-8.93634826">
				<ele>67.0</ele>
				<time>2014-08-17T16:22:35Z</time>
				<extensions>
					<speed>0.0</speed>
				</extensions>
			</trkpt>
			<trkpt lat="53.26366422" lon="-8.93635203">
				<ele>66.0</ele>
				<time>2014-08-17T16:22:36Z</time>
				<extensions>
					<speed>0.0</speed>
				</extensions>
			</trkpt>
			<trkpt lat="53.2636609" lon="-8.93634836">
				<ele>66.0</ele>
				<time>2014-08-17T16:22:37Z</time>
				<extensions>
					<speed>0.0</speed>
				</extensions>
			</trkpt>
			<trkpt lat="53.2636609" lon="-8.93634836">
				<ele>66.0</ele>
				<time>2014-08-17T16:22:38Z</time>
				<extensions>
					<speed>0.0</speed>
				</extensions>
			</trkpt>
			<trkpt lat="53.26366197" lon="-8.93634828">
				<ele>65.0</ele>
				<time>2014-08-17T16:22:39Z</time>
				<extensions>
					<speed>0.25</speed>
				</extensions>
			</trkpt>
			<trkpt lat="53.26366007" lon="-8.93634745">
				<ele>65.0</ele>
				<time>2014-08-17T16:22:40Z</time>
				<extensions>
					<speed>0.25</speed>
				</extensions>
			</trkpt>
			<trkpt lat="53.26366605" lon="-8.93635156">
				<ele>65.0</ele>
				<time>2014-08-17T16:22:41Z</time>
				<extensions>
					<speed>0.0</speed>
				</extensions>
			</trkpt>
			<trkpt lat="53.26366443" lon="-8.9363546">
				<ele>65.0</ele>
				<time>2014-08-17T16:22:42Z</time>
				<extensions>
					<speed>0.0</speed>
				</extensions>
			</trkpt>
			<trkpt lat="53.26366746" lon="-8.9363601">
				<ele>64.0</ele>
				<time>2014-08-17T16:22:43Z</time>
				<extensions>
					<speed>0.0</speed>
				</extensions>
			</trkpt>
			<trkpt lat="53.26366782" lon="-8.93635923">
				<ele>64.0</ele>
				<time>2014-08-17T16:22:44Z</time>
				<extensions>
					<speed>0.5</speed>
				</extensions>
			</trkpt>
			<trkpt lat="53.26367863" lon="-8.93634086">
				<ele>64.0</ele>
				<time>2014-08-17T16:22:45Z</time>
				<extensions>
					<speed>2.0</speed>
				</extensions>
			</trkpt>
			<trkpt lat="53.26369632" lon="-8.93633138">
				<ele>63.0</ele>
				<time>2014-08-17T16:22:46Z</time>
				<extensions>
					<speed>3.0</speed>
				</extensions>
			</trkpt>
			<trkpt lat="53.26373968" lon="-8.93631342">
				<ele>63.0</ele>
				<time>2014-08-17T16:22:47Z</time>
				<extensions>
					<speed>3.5</speed>
				</extensions>
			</trkpt>
			<trkpt lat="53.26377308" lon="-8.9362927">
				<ele>63.0</ele>
				<time>2014-08-17T16:22:48Z</time>
				<extensions>
					<speed>4.25</speed>
				</extensions>
			</trkpt>
			<trkpt lat="53.26381155" lon="-8.93626964">
				<ele>64.0</ele>
				<time>2014-08-17T16:22:49Z</time>
				<extensions>
					<speed>5.25</speed>
				</extensions>
			</trkpt>
			<trkpt lat="53.26385936" lon="-8.93623018">
				<ele>64.0</ele>
				<time>2014-08-17T16:22:50Z</time>
				<extensions>
					<speed>5.75</speed>
				</extensions>
			</trkpt>
			<trkpt lat="53.26390171" lon="-8.93618982">
				<ele>64.0</ele>
				<time>2014-08-17T16:22:51Z</time>
				<extensions>
					<speed>5.5</speed>
				</extensions>
			</trkpt>
			<trkpt lat="53.26393801" lon="-8.93615861">
				<ele>64.0</ele>
				<time>2014-08-17T16:22:52Z</time>
				<extensions>
					<speed>5.25</speed>
				</extensions>
			</trkpt>
			<trkpt lat="53.26398348" lon="-8.93616878">
				<ele>64.0</ele>
				<time>2014-08-17T16:22:53Z</time>
				<extensions>
					<speed>5.0</speed>
				</extensions>
			</trkpt>
			<trkpt lat="53.26399198" lon="-8.936193">
				<ele>61.0</ele>
				<time>2014-08-17T16:22:54Z</time>
				<extensions>
					<speed>4.5</speed>
				</extensions>
			</trkpt>
			<trkpt lat="53.2640178" lon="-8.9362563">
				<ele>61.0</ele>
				<time>2014-08-17T16:22:55Z</time>
				<extensions>
					<speed>5.0</speed>
				</extensions>
			</trkpt>
			<trkpt lat="53.26404422" lon="-8.93631858">
				<ele>63.0</ele>
				<time>2014-08-17T16:22:56Z</time>
				<extensions>
					<speed>5.75</speed>
				</extensions>
			</trkpt>
			<trkpt lat="53.26406865" lon="-8.93639844">
				<ele>63.0</ele>
				<time>2014-08-17T16:22:57Z</time>
				<extensions>
					<speed>6.25</speed>
				</extensions>
			</trkpt>
			<trkpt lat="53.26408884" lon="-8.93648035">
				<ele>62.0</ele>
				<time>2014-08-17T16:22:58Z</time>
				<extensions>
					<speed>6.25</speed>
				</extensions>
			</trkpt>
			<trkpt lat="53.26410852" lon="-8.93656953">
				<ele>63.0</ele>
				<time>2014-08-17T16:22:59Z</time>
				<extensions>
					<speed>6.5</speed>
				</extensions>
			</trkpt>
			<trkpt lat="53.26413416" lon="-8.9366579">
				<ele>63.0</ele>
				<time>2014-08-17T16:23:00Z</time>
				<extensions>
					<speed>6.0</speed>
				</extensions>
			</trkpt>
			<trkpt lat="53.26416061" lon="-8.93673831">
				<ele>62.0</ele>
				<time>2014-08-17T16:23:01Z</time>
				<extensions>
					<speed>6.0</speed>
				</extensions>
			</trkpt>
			<trkpt lat="53.26418476" lon="-8.93681019">
				<ele>62.0</ele>
				<time>2014-08-17T16:23:02Z</time>
				<extensions>
					<speed>5.5</speed>
				</extensions>
			</trkpt>
			<trkpt lat="53.26420735" lon="-8.9368791">
				<ele>63.0</ele>
				<time>2014-08-17T16:23:03Z</time>
				<extensions>
					<speed>4.5</speed>
				</extensions>
			</trkpt>
			<trkpt lat="53.26422134" lon="-8.93692186">
				<ele>63.0</ele>
				<time>2014-08-17T16:23:04Z</time>
				<extensions>
					<speed>3.25</speed>
				</extensions>
			</trkpt>
			<trkpt lat="53.26422998" lon="-8.93696774">
				<ele>62.0</ele>
				<time>2014-08-17T16:23:05Z</time>
				<extensions>
					<speed>3.25</speed>
				</extensions>
			</trkpt>
			<trkpt lat="53.26423862" lon="-8.93701362">
				<ele>62.0</ele>
				<time>2014-08-17T16:23:06Z</time>
				<extensions>
					<speed>3.25</speed>
				</extensions>
			</trkpt>
			<trkpt lat="53.26423308" lon="-8.93697392">
				<ele>62.0</ele>
				<time>2014-08-17T16:23:07Z</time>
				<extensions>
					<speed>0.25</speed>
				</extensions>
			</trkpt>
			<trkpt lat="53.26423285" lon="-8.93697378">
				<ele>63.0</ele>
				<time>2014-08-17T16:23:08Z</time>
				<extensions>
					<speed>0.0</speed>
				</extensions>
			</trkpt>
			<trkpt lat="53.26423291" lon="-8.93698019">
				<ele>62.0</ele>
				<time>2014-08-17T16:23:09Z</time>
				<extensions>
					<speed>0.0</speed>
				</extensions>
			</trkpt>
			<trkpt lat="53.26422999" lon="-8.93697987">
				<ele>62.0</ele>
				<time>2014-08-17T16:23:10Z</time>
				<extensions>
					<speed>0.0</speed>
				</extensions>
			</trkpt>
			<trkpt lat="53.26423013" lon="-8.93698273">
				<ele>62.0</ele>
				<time>2014-08-17T16:23:11Z</time>
				<extensions>
					<speed>0.0</speed>
				</extensions>
			</trkpt>
			<trkpt lat="53.26423421" lon="-8.9369852">
				<ele>62.0</ele>
				<time>2014-08-17T16:23:12Z</time>
				<extensions>
					<speed>0.0</speed>
				</extensions>
			</trkpt>
			<trkpt lat="53.26423592" lon="-8.93698558">
				<ele>63.0</ele>
				<time>2014-08-17T16:23:13Z</time>
				<extensions>
					<speed>0.0</speed>
				</extensions>
			</trkpt>
			<trkpt lat="53.26423438" lon="-8.93698445">
				<ele>63.0</ele>
				<time>2014-08-17T16:23:14Z</time>
				<extensions>
					<speed>0.0</speed>
				</extensions>
			</trkpt>
			<trkpt lat="53.26423575" lon="-8.93698729">
				<ele>63.0</ele>
				<time>2014-08-17T16:23:15Z</time>
				<extensions>
					<speed>0.0</speed>
				</extensions>
			</trkpt>
			<trkpt lat="53.26423669" lon="-8.93698619">
				<ele>63.0</ele>
				<time>2014-08-17T16:23:16Z</time>
				<extensions>
					<speed>0.0</speed>
				</extensions>
			</trkpt>
			<trkpt lat="53.26423672" lon="-8.93698659">
				<ele>63.0</ele>
				<time>2014-08-17T16:23:17Z</time>
				<extensions>
					<speed>0.0</speed>
				</extensions>
			</trkpt>
			<trkpt lat="53.26423601" lon="-8.93698583">
				<ele>63.0</ele>
				<time>2014-08-17T16:23:18Z</time>
				<extensions>
					<speed>0.0</speed>
				</extensions>
			</trkpt>
			<trkpt lat="53.26423602" lon="-8.93698889">
				<ele>63.0</ele>
				<time>2014-08-17T16:23:19Z</time>
				<extensions>
					<speed>1.0</speed>
				</extensions>
			</trkpt>
			<trkpt lat="53.26424155" lon="-8.93699494">
				<ele>63.0</ele>
				<time>2014-08-17T16:23:20Z</time>
				<extensions>
					<speed>1.75</speed>
				</extensions>
			</trkpt>
			<trkpt lat="53.26423045" lon="-8.93702697">
				<ele>63.0</ele>
				<time>2014-08-17T16:23:21Z</time>
				<extensions>
					<speed>2.75</speed>
				</extensions>
			</trkpt>
			<trkpt lat="53.26421091" lon="-8.93705878">
				<ele>62.0</ele>
				<time>2014-08-17T16:23:22Z</time>
				<extensions>
					<speed>3.0</speed>
				</extensions>
			</trkpt>
			<trkpt lat="53.26418609" lon="-8.93708221">
				<ele>62.0</ele>
				<time>2014-08-17T16:23:23Z</time>
				<extensions>
					<speed>2.75</speed>
				</extensions>
			</trkpt>
			<trkpt lat="53.26416213" lon="-8.93710262">
				<ele>63.0</ele>
				<time>2014-08-17T16:23:24Z</time>
				<extensions>
					<speed>3.25</speed>
				</extensions>
			</trkpt>
			<trkpt lat="53.26413477" lon="-8.93712175">
				<ele>63.0</ele>
				<time>2014-08-17T16:23:25Z</time>
				<extensions>
					<speed>3.25</speed>
				</extensions>
			</trkpt>
			<trkpt lat="53.26410077" lon="-8.93713519">
				<ele>63.0</ele>
				<time>2014-08-17T16:23:26Z</time>
				<extensions>
					<speed>3.75</speed>
				</extensions>
			</trkpt>
			<trkpt lat="53.26407291" lon="-8.93715734">
				<ele>63.0</ele>
				<time>2014-08-17T16:23:27Z</time>
				<extensions>
					<speed>3.25</speed>
				</extensions>
			</trkpt>
			<trkpt lat="53.264051" lon="-8.93717335">
				<ele>63.0</ele>
				<time>2014-08-17T16:23:28Z</time>
				<extensions>
					<speed>2.5</speed>
				</extensions>
			</trkpt>
			<trkpt lat="53.26402745" lon="-8.93718508">
				<ele>63.0</ele>
				<time>2014-08-17T16:23:29Z</time>
				<extensions>
					<speed>2.25</speed>
				</extensions>
			</trkpt>
			<trkpt lat="53.26401211" lon="-8.9372038">
				<ele>63.0</ele>
				<time>2014-08-17T16:23:30Z</time>
				<extensions>
					<speed>2.0</speed>
				</extensions>
			</trkpt>
			<trkpt lat="53.26399662" lon="-8.93721486">
				<ele>62.0</ele>
				<time>2014-08-17T16:23:31Z</time>
				<extensions>
					<speed>1.75</speed>
				</extensions>
			</trkpt>
			<trkpt lat="53.26397871" lon="-8.93722269">
				<ele>62.0</ele>
				<time>2014-08-17T16:23:32Z</time>
				<extensions>
					<speed>1.5</speed>
				</extensions>
			</trkpt>
			<trkpt lat="53.26396921" lon="-8.93723985">
				<ele>61.0</ele>
				<time>2014-08-17T16:23:33Z</time>
				<extensions>
					<speed>1.5</speed>
				</extensions>
			</trkpt>
			<trkpt lat="53.26395835" lon="-8.93725416">
				<ele>61.0</ele>
				<time>2014-08-17T16:23:34Z</time>
				<extensions>
					<speed>1.5</speed>
				</extensions>
			</trkpt>
			<trkpt lat="53.26393974" lon="-8.93726325">
				<ele>61.0</ele>
				<time>2014-08-17T16:23:35Z</time>
				<extensions>
					<speed>2.25</speed>
				</extensions>
			</trkpt>
			<trkpt lat="53.26391978" lon="-8.93728046">
				<ele>61.0</ele>
				<time>2014-08-17T16:23:36Z</time>
				<extensions>
					<speed>3.25</speed>
				</extensions>
			</trkpt>
			<trkpt lat="53.26388432" lon="-8.93730052">
				<ele>61.0</ele>
				<time>2014-08-17T16:23:37Z</time>
				<extensions>
					<speed>4.25</speed>
				</extensions>
			</trkpt>
			<trkpt lat="53.26385326" lon="-8.93732413">
				<ele>61.0</ele>
				<time>2014-08-17T16:23:38Z</time>
				<extensions>
					<speed>4.0</speed>
				</extensions>
			</trkpt>
			<trkpt lat="53.26381326" lon="-8.93734681">
				<ele>61.0</ele>
				<time>2014-08-17T16:23:39Z</time>
				<extensions>
					<speed>5.25</speed>
				</extensions>
			</trkpt>
			<trkpt lat="53.26375487" lon="-8.93738264">
				<ele>60.0</ele>
				<time>2014-08-17T16:23:40Z</time>
				<extensions>
					<speed>6.0</speed>
				</extensions>
			</trkpt>
			<trkpt lat="53.26368858" lon="-8.93743091">
				<ele>59.0</ele>
				<time>2014-08-17T16:23:41Z</time>
				<extensions>
					<speed>6.75</speed>
				</extensions>
			</trkpt>
			<trkpt lat="53.26363467" lon="-8.93746417">
				<ele>58.0</ele>
				<time>2014-08-17T16:23:42Z</time>
				<extensions>
					<speed>6.5</speed>
				</extensions>
			</trkpt>
			<trkpt lat="53.26358619" lon="-8.93750653">
				<ele>59.0</ele>
				<time>2014-08-17T16:23:43Z</time>
				<extensions>
					<speed>6.0</speed>
				</extensions>
			</trkpt>
			<trkpt lat="53.26354848" lon="-8.93754566">
				<ele>58.0</ele>
				<time>2014-08-17T16:23:44Z</time>
				<extensions>
					<speed>3.75</speed>
				</extensions>
			</trkpt>
			<trkpt lat="53.26353022" lon="-8.93756322">
				<ele>58.0</ele>
				<time>2014-08-17T16:23:45Z</time>
				<extensions>
					<speed>2.0</speed>
				</extensions>
			</trkpt>
			<trkpt lat="53.26351491" lon="-8.93756798">
				<ele>59.0</ele>
				<time>2014-08-17T16:23:46Z</time>
				<extensions>
					<speed>0.5</speed>
				</extensions>
			</trkpt>
			<trkpt lat="53.26351875" lon="-8.93757608">
				<ele>58.0</ele>
				<time>2014-08-17T16:23:47Z</time>
				<extensions>
					<speed>0.0</speed>
				</extensions>
			</trkpt>
			<trkpt lat="53.26351747" lon="-8.93757714">
				<ele>59.0</ele>
				<time>2014-08-17T16:23:48Z</time>
				<extensions>
					<speed>0.0</speed>
				</extensions>
			</trkpt>
			<trkpt lat="53.26351861" lon="-8.93757502">
				<ele>59.0</ele>
				<time>2014-08-17T16:23:49Z</time>
				<extensions>
					<speed>1.0</speed>
				</extensions>
			</trkpt>
			<trkpt lat="53.26353329" lon="-8.93756195">
				<ele>59.0</ele>
				<time>2014-08-17T16:23:50Z</time>
				<extensions>
					<speed>1.75</speed>
				</extensions>
			</trkpt>
			<trkpt lat="53.2635451" lon="-8.93754994">
				<ele>59.0</ele>
				<time>2014-08-17T16:23:51Z</time>
				<extensions>
					<speed>1.5</speed>
				</extensions>
			</trkpt>
			<trkpt lat="53.26355661" lon="-8.93753827">
				<ele>59.0</ele>
				<time>2014-08-17T16:23:52Z</time>
				<extensions>
					<speed>1.25</speed>
				</extensions>
			</trkpt>
			<trkpt lat="53.26356367" lon="-8.93752203">
				<ele>60.0</ele>
				<time>2014-08-17T16:23:53Z</time>
				<extensions>
					<speed>1.0</speed>
				</extensions>
			</trkpt>
			<trkpt lat="53.26356751" lon="-8.93751202">
				<ele>60.0</ele>
				<time>2014-08-17T16:23:54Z</time>
				<extensions>
					<speed>0.75</speed>
				</extensions>
			</trkpt>
			<trkpt lat="53.26357723" lon="-8.93750846">
				<ele>60.0</ele>
				<time>2014-08-17T16:23:55Z</time>
				<extensions>
					<speed>0.0</speed>
				</extensions>
			</trkpt>
			<trkpt lat="53.26357848" lon="-8.93751051">
				<ele>60.0</ele>
				<time>2014-08-17T16:23:56Z</time>
				<extensions>
					<speed>1.5</speed>
				</extensions>
			</trkpt>
			<trkpt lat="53.26359603" lon="-8.93752521">
				<ele>60.0</ele>
				<time>2014-08-17T16:23:57Z</time>
				<extensions>
					<speed>2.0</speed>
				</extensions>
			</trkpt>
			<trkpt lat="53.26361579" lon="-8.93752472">
				<ele>59.0</ele>
				<time>2014-08-17T16:23:58Z</time>
				<extensions>
					<speed>2.0</speed>
				</extensions>
			</trkpt>
			<trkpt lat="53.26363563" lon="-8.93751144">
				<ele>59.0</ele>
				<time>2014-08-17T16:23:59Z</time>
				<extensions>
					<speed>2.0</speed>
				</extensions>
			</trkpt>
			<trkpt lat="53.26364941" lon="-8.93749899">
				<ele>60.0</ele>
				<time>2014-08-17T16:24:00Z</time>
				<extensions>
					<speed>1.5</speed>
				</extensions>
			</trkpt>
			<trkpt lat="53.26366194" lon="-8.93749422">
				<ele>60.0</ele>
				<time>2014-08-17T16:24:01Z</time>
				<extensions>
					<speed>0.75</speed>
				</extensions>
			</trkpt>
			<trkpt lat="53.26366541" lon="-8.93749024">
				<ele>60.0</ele>
				<time>2014-08-17T16:24:02Z</time>
				<extensions>
					<speed>0.0</speed>
				</extensions>
			</trkpt>
			<trkpt lat="53.2636628" lon="-8.9374911">
				<ele>61.0</ele>
				<time>2014-08-17T16:24:03Z</time>
				<extensions>
					<speed>0.0</speed>
				</extensions>
			</trkpt>
			<trkpt lat="53.26366251" lon="-8.93749316">
				<ele>61.0</ele>
				<time>2014-08-17T16:24:04Z</time>
				<extensions>
					<speed>0.0</speed>
				</extensions>
			</trkpt>
			<trkpt lat="53.26366223" lon="-8.9374924">
				<ele>61.0</ele>
				<time>2014-08-17T16:24:05Z</time>
				<extensions>
					<speed>0.0</speed>
				</extensions>
			</trkpt>
			<trkpt lat="53.26366176" lon="-8.93749344">
				<ele>61.0</ele>
				<time>2014-08-17T16:24:06Z</time>
				<extensions>
					<speed>0.0</speed>
				</extensions>
			</trkpt>
			<trkpt lat="53.26366172" lon="-8.93749662">
				<ele>61.0</ele>
				<time>2014-08-17T16:24:07Z</time>
				<extensions>
					<speed>0.0</speed>
				</extensions>
			</trkpt>
			<trkpt lat="53.26366303" lon="-8.93749579">
				<ele>61.0</ele>
				<time>2014-08-17T16:24:08Z</time>
				<extensions>
					<speed>0.0</speed>
				</extensions>
			</trkpt>
			<trkpt lat="53.26366319" lon="-8.93748935">
				<ele>61.0</ele>
				<time>2014-08-17T16:24:09Z</time>
				<extensions>
					<speed>0.0</speed>
				</extensions>
			</trkpt>
			<trkpt lat="53.26366341" lon="-8.93748984">
				<ele>61.0</ele>
				<time>2014-08-17T16:24:10Z</time>
				<extensions>
					<speed>0.0</speed>
				</extensions>
			</trkpt>
			<trkpt lat="53.26366362" lon="-8.93749121">
				<ele>60.0</ele>
				<time>2014-08-17T16:24:11Z</time>
				<extensions>
					<speed>0.0</speed>
				</extensions>
			</trkpt>
			<trkpt lat="53.26366562" lon="-8.93749264">
				<ele>60.0</ele>
				<time>2014-08-17T16:24:12Z</time>
				<extensions>
					<speed>0.0</speed>
				</extensions>
			</trkpt>
			<trkpt lat="53.26366778" lon="-8.93749066">
				<ele>60.0</ele>
				<time>2014-08-17T16:24:13Z</time>
				<extensions>
					<speed>1.5</speed>
				</extensions>
			</trkpt>
			<trkpt lat="53.2636943" lon="-8.93747547">
				<ele>61.0</ele>
				<time>2014-08-17T16:24:14Z</time>
				<extensions>
					<speed>2.75</speed>
				</extensions>
			</trkpt>
			<trkpt lat="53.26372164" lon="-8.93744431">
				<ele>61.0</ele>
				<time>2014-08-17T16:24:15Z</time>
				<extensions>
					<speed>4.25</speed>
				</extensions>
			</trkpt>
			<trkpt lat="53.26376684" lon="-8.93741892">
				<ele>63.0</ele>
				<time>2014-08-17T16:24:16Z</time>
				<extensions>
					<speed>4.25</speed>
				</extensions>
			</trkpt>
			<trkpt lat="53.26380398" lon="-8.93738955">
				<ele>62.0</ele>
				<time>2014-08-17T16:24:17Z</time>
				<extensions>
					<speed>5.0</speed>
				</extensions>
			</trkpt>
			<trkpt lat="53.26385037" lon="-8.93735456">
				<ele>62.0</ele>
				<time>2014-08-17T16:24:18Z</time>
				<extensions>
					<speed>6.5</speed>
				</extensions>
			</trkpt>
			<trkpt lat="53.2639123" lon="-8.93731057">
				<ele>63.0</ele>
				<time>2014-08-17T16:24:19Z</time>
				<extensions>
					<speed>7.0</speed>
				</extensions>
			</trkpt>
			<trkpt lat="53.26398489" lon="-8.93728014">
				<ele>64.0</ele>
				<time>2014-08-17T16:24:20Z</time>
				<extensions>
					<speed>7.25</speed>
				</extensions>
			</trkpt>
			<trkpt lat="53.26403632" lon="-8.93723744">
				<ele>63.0</ele>
				<time>2014-08-17T16:24:21Z</time>
				<extensions>
					<speed>7.25</speed>
				</extensions>
			</trkpt>
			<trkpt lat="53.26409333" lon="-8.93717581">
				<ele>63.0</ele>
				<time>2014-08-17T16:24:22Z</time>
				<extensions>
					<speed>7.25</speed>
				</extensions>
			</trkpt>
			<trkpt lat="53.26416145" lon="-8.93711091">
				<ele>64.0</ele>
				<time>2014-08-17T16:24:23Z</time>
				<extensions>
					<speed>7.25</speed>
				</extensions>
			</trkpt>
			<trkpt lat="53.26421807" lon="-8.9370621">
				<ele>64.0</ele>
				<time>2014-08-17T16:24:24Z</time>
				<extensions>
					<speed>7.25</speed>
				</extensions>
			</trkpt>
			<trkpt lat="53.26427056" lon="-8.93702054">
				<ele>63.0</ele>
				<time>2014-08-17T16:24:25Z</time>
				<extensions>
					<speed>6.75</speed>
				</extensions>
			</trkpt>
			<trkpt lat="53.26432397" lon="-8.93698484">
				<ele>62.0</ele>
				<time>2014-08-17T16:24:26Z</time>
				<extensions>
					<speed>6.0</speed>
				</extensions>
			</trkpt>
			<trkpt lat="53.26437546" lon="-8.93695564">
				<ele>62.0</ele>
				<time>2014-08-17T16:24:27Z</time>
				<extensions>
					<speed>6.0</speed>
				</extensions>
			</trkpt>
			<trkpt lat="53.26442686" lon="-8.93693293">
				<ele>63.0</ele>
				<time>2014-08-17T16:24:28Z</time>
				<extensions>
					<speed>5.75</speed>
				</extensions>
			</trkpt>
			<trkpt lat="53.26449153" lon="-8.93693012">
				<ele>64.0</ele>
				<time>2014-08-17T16:24:29Z</time>
				<extensions>
					<speed>5.0</speed>
				</extensions>
			</trkpt>
			<trkpt lat="53.26453185" lon="-8.93691028">
				<ele>64.0</ele>
				<time>2014-08-17T16:24:30Z</time>
				<extensions>
					<speed>4.75</speed>
				</extensions>
			</trkpt>
			<trkpt lat="53.26456415" lon="-8.93689622">
				<ele>64.0</ele>
				<time>2014-08-17T16:24:31Z</time>
				<extensions>
					<speed>4.25</speed>
				</extensions>
			</trkpt>
			<trkpt lat="53.26460463" lon="-8.93689494">
				<ele>64.0</ele>
				<time>2014-08-17T16:24:32Z</time>
				<extensions>
					<speed>4.75</speed>
				</extensions>
			</trkpt>
			<trkpt lat="53.26465568" lon="-8.93687864">
				<ele>66.0</ele>
				<time>2014-08-17T16:24:33Z</time>
				<extensions>
					<speed>4.5</speed>
				</extensions>
			</trkpt>
			<trkpt lat="53.2646941" lon="-8.93687473">
				<ele>66.0</ele>
				<time>2014-08-17T16:24:34Z</time>
				<extensions>
					<speed>4.0</speed>
				</extensions>
			</trkpt>
			<trkpt lat="53.26473067" lon="-8.93687356">
				<ele>67.0</ele>
				<time>2014-08-17T16:24:35Z</time>
				<extensions>
					<speed>4.0</speed>
				</extensions>
			</trkpt>
			<trkpt lat="53.26476622" lon="-8.93687059">
				<ele>67.0</ele>
				<time>2014-08-17T16:24:36Z</time>
				<extensions>
					<speed>4.0</speed>
				</extensions>
			</trkpt>
			<trkpt lat="53.26480178" lon="-8.93686762">
				<ele>67.0</ele>
				<time>2014-08-17T16:24:37Z</time>
				<extensions>
					<speed>4.0</speed>
				</extensions>
			</trkpt>
			<trkpt lat="53.2648111" lon="-8.93689057">
				<ele>66.0</ele>
				<time>2014-08-17T16:24:38Z</time>
				<extensions>
					<speed>3.25</speed>
				</extensions>
			</trkpt>
			<trkpt lat="53.26483754" lon="-8.93688683">
				<ele>66.0</ele>
				<time>2014-08-17T16:24:39Z</time>
				<extensions>
					<speed>2.75</speed>
				</extensions>
			</trkpt>
			<trkpt lat="53.26485554" lon="-8.93687908">
				<ele>65.0</ele>
				<time>2014-08-17T16:24:40Z</time>
				<extensions>
					<speed>3.0</speed>
				</extensions>
			</trkpt>
			<trkpt lat="53.26488117" lon="-8.93686755">
				<ele>64.0</ele>
				<time>2014-08-17T16:24:41Z</time>
				<extensions>
					<speed>3.0</speed>
				</extensions>
			</trkpt>
			<trkpt lat="53.26490564" lon="-8.93686059">
				<ele>65.0</ele>
				<time>2014-08-17T16:24:42Z</time>
				<extensions>
					<speed>2.5</speed>
				</extensions>
			</trkpt>
			<trkpt lat="53.26491682" lon="-8.93685382">
				<ele>65.0</ele>
				<time>2014-08-17T16:24:43Z</time>
				<extensions>
					<speed>2.0</speed>
				</extensions>
			</trkpt>
			<trkpt lat="53.26494146" lon="-8.93685245">
				<ele>66.0</ele>
				<time>2014-08-17T16:24:44Z</time>
				<extensions>
					<speed>2.5</speed>
				</extensions>
			</trkpt>
			<trkpt lat="53.26496322" lon="-8.93684986">
				<ele>66.0</ele>
				<time>2014-08-17T16:24:45Z</time>
				<extensions>
					<speed>2.25</speed>
				</extensions>
			</trkpt>
			<trkpt lat="53.2649809" lon="-8.9368328">
				<ele>66.0</ele>
				<time>2014-08-17T16:24:46Z</time>
				<extensions>
					<speed>2.5</speed>
				</extensions>
			</trkpt>
			<trkpt lat="53.26497854" lon="-8.93678813">
				<ele>64.0</ele>
				<time>2014-08-17T16:24:47Z</time>
				<extensions>
					<speed>2.75</speed>
				</extensions>
			</trkpt>
			<trkpt lat="53.26498083" lon="-8.93675169">
				<ele>64.0</ele>
				<time>2014-08-17T16:24:48Z</time>
				<extensions>
					<speed>2.0</speed>
				</extensions>
			</trkpt>
			<trkpt lat="53.26499649" lon="-8.93673901">
				<ele>63.0</ele>
				<time>2014-08-17T16:24:49Z</time>
				<extensions>
					<speed>1.25</speed>
				</extensions>
			</trkpt>
			<trkpt lat="53.26499598" lon="-8.93673288">
				<ele>63.0</ele>
				<time>2014-08-17T16:24:50Z</time>
				<extensions>
					<speed>0.0</speed>
				</extensions>
			</trkpt>
			<trkpt lat="53.26499835" lon="-8.93673364">
				<ele>63.0</ele>
				<time>2014-08-17T16:24:51Z</time>
				<extensions>
					<speed>0.0</speed>
				</extensions>
			</trkpt>
			<trkpt lat="53.26499801" lon="-8.93673547">
				<ele>63.0</ele>
				<time>2014-08-17T16:24:52Z</time>
				<extensions>
					<speed>1.0</speed>
				</extensions>
			</trkpt>
			<trkpt lat="53.26499269" lon="-8.93675798">
				<ele>63.0</ele>
				<time>2014-08-17T16:24:53Z</time>
				<extensions>
					<speed>1.5</speed>
				</extensions>
			</trkpt>
			<trkpt lat="53.26499392" lon="-8.93678163">
				<ele>63.0</ele>
				<time>2014-08-17T16:24:54Z</time>
				<extensions>
					<speed>1.75</speed>
				</extensions>
			</trkpt>
			<trkpt lat="53.26499787" lon="-8.93680756">
				<ele>64.0</ele>
				<time>2014-08-17T16:24:55Z</time>
				<extensions>
					<speed>1.25</speed>
				</extensions>
			</trkpt>
			<trkpt lat="53.26500024" lon="-8.93682231">
				<ele>63.0</ele>
				<time>2014-08-17T16:24:56Z</time>
				<extensions>
					<speed>0.5</speed>
				</extensions>
			</trkpt>
			<trkpt lat="53.26499982" lon="-8.93681372">
				<ele>63.0</ele>
				<time>2014-08-17T16:24:57Z</time>
				<extensions>
					<speed>0.0</speed>
				</extensions>
			</trkpt>
			<trkpt lat="53.26499846" lon="-8.93681273">
				<ele>63.0</ele>
				<time>2014-08-17T16:24:58Z</time>
				<extensions>
					<speed>1.5</speed>
				</extensions>
			</trkpt>
			<trkpt lat="53.26497986" lon="-8.93681068">
				<ele>63.0</ele>
				<time>2014-08-17T16:24:59Z</time>
				<extensions>
					<speed>2.5</speed>
				</extensions>
			</trkpt>
			<trkpt lat="53.26495931" lon="-8.93680571">
				<ele>64.0</ele>
				<time>2014-08-17T16:25:00Z</time>
				<extensions>
					<speed>2.0</speed>
				</extensions>
			</trkpt>
			<trkpt lat="53.26494212" lon="-8.93681039">
				<ele>64.0</ele>
				<time>2014-08-17T16:25:01Z</time>
				<extensions>
					<speed>1.75</speed>
				</extensions>
			</trkpt>
			<trkpt lat="53.26492987" lon="-8.93681554">
				<ele>64.0</ele>
				<time>2014-08-17T16:25:02Z</time>
				<extensions>
					<speed>1.5</speed>
				</extensions>
			</trkpt>
			<trkpt lat="53.26492735" lon="-8.93681187">
				<ele>63.0</ele>
				<time>2014-08-17T16:25:03Z</time>
				<extensions>
					<speed>0.5</speed>
				</extensions>
			</trkpt>
			<trkpt lat="53.26492662" lon="-8.93681618">
				<ele>63.0</ele>
				<time>2014-08-17T16:25:04Z</time>
				<extensions>
					<speed>0.0</speed>
				</extensions>
			</trkpt>
			<trkpt lat="53.26493128" lon="-8.93681602">
				<ele>63.0</ele>
				<time>2014-08-17T16:25:05Z</time>
				<extensions>
					<speed>0.0</speed>
				</extensions>
			</trkpt>
			<trkpt lat="53.26493133" lon="-8.93681806">
				<ele>64.0</ele>
				<time>2014-08-17T16:25:06Z</time>
				<extensions>
					<speed>0.0</speed>
				</extensions>
			</trkpt>
			<trkpt lat="53.26493507" lon="-8.93682032">
				<ele>64.0</ele>
				<time>2014-08-17T16:25:07Z</time>
				<extensions>
					<speed>0.0</speed>
				</extensions>
			</trkpt>
			<trkpt lat="53.26493637" lon="-8.93682483">
				<ele>65.0</ele>
				<time>2014-08-17T16:25:08Z</time>
				<extensions>
					<speed>0.0</speed>
				</extensions>
			</trkpt>
			<trkpt lat="53.26493538" lon="-8.93682484">
				<ele>64.0</ele>
				<time>2014-08-17T16:25:09Z</time>
				<extensions>
					<speed>0.0</speed>
				</extensions>
			</trkpt>
			<trkpt lat="53.26493661" lon="-8.93682274">
				<ele>64.0</ele>
				<time>2014-08-17T16:25:10Z</time>
				<extensions>
					<speed>0.0</speed>
				</extensions>
			</trkpt>
			<trkpt lat="53.26493623" lon="-8.93681992">
				<ele>64.0</ele>
				<time>2014-08-17T16:25:11Z</time>
				<extensions>
					<speed>0.0</speed>
				</extensions>
			</trkpt>
			<trkpt lat="53.26493851" lon="-8.93682048">
				<ele>64.0</ele>
				<time>2014-08-17T16:25:12Z</time>
				<extensions>
					<speed>0.0</speed>
				</extensions>
			</trkpt>
			<trkpt lat="53.26494075" lon="-8.93682103">
				<ele>65.0</ele>
				<time>2014-08-17T16:25:13Z</time>
				<extensions>
					<speed>0.0</speed>
				</extensions>
			</trkpt>
			<trkpt lat="53.26494099" lon="-8.93682215">
				<ele>65.0</ele>
				<time>2014-08-17T16:25:14Z</time>
				<extensions>
					<speed>0.0</speed>
				</extensions>
			</trkpt>
			<trkpt lat="53.26494127" lon="-8.93682198">
				<ele>65.0</ele>
				<time>2014-08-17T16:25:15Z</time>
				<extensions>
					<speed>0.0</speed>
				</extensions>
			</trkpt>
			<trkpt lat="53.26494147" lon="-8.9368222">
				<ele>65.0</ele>
				<time>2014-08-17T16:25:16Z</time>
				<extensions>
					<speed>0.0</speed>
				</extensions>
			</trkpt>
			<trkpt lat="53.26494153" lon="-8.93682217">
				<ele>65.0</ele>
				<time>2014-08-17T16:25:17Z</time>
				<extensions>
					<speed>0.0</speed>
				</extensions>
			</trkpt>
			<trkpt lat="53.26494149" lon="-8.93682214">
				<ele>65.0</ele>
				<time>2014-08-17T16:25:18Z</time>
				<extensions>
					<speed>0.0</speed>
				</extensions>
			</trkpt>
			<trkpt lat="53.26494146" lon="-8.93682208">
				<ele>65.0</ele>
				<time>2014-08-17T16:25:19Z</time>
				<extensions>
					<speed>0.0</speed>
				</extensions>
			</trkpt>
			<trkpt lat="53.26494146" lon="-8.93682209">
				<ele>65.0</ele>
				<time>2014-08-17T16:25:20Z</time>
				<extensions>
					<speed>0.0</speed>
				</extensions>
			</trkpt>
			<trkpt lat="53.26494148" lon="-8.93682215">
				<ele>65.0</ele>
				<time>2014-08-17T16:25:21Z</time>
				<extensions>
					<speed>0.0</speed>
				</extensions>
			</trkpt>
			<trkpt lat="53.26494142" lon="-8.93682213">
				<ele>65.0</ele>
				<time>2014-08-17T16:25:22Z</time>
				<extensions>
					<speed>0.0</speed>
				</extensions>
			</trkpt>
			<trkpt lat="53.26494142" lon="-8.93682213">
				<ele>65.0</ele>
				<time>2014-08-17T16:25:23Z</time>
				<extensions>
					<speed>0.0</speed>
				</extensions>
			</trkpt>
			<trkpt lat="53.26494145" lon="-8.93682214">
				<ele>65.0</ele>
				<time>2014-08-17T16:25:24Z</time>
				<extensions>
					<speed>0.0</speed>
				</extensions>
			</trkpt>
			<trkpt lat="53.26494141" lon="-8.93682213">
				<ele>65.0</ele>
				<time>2014-08-17T16:25:25Z</time>
				<extensions>
					<speed>0.0</speed>
				</extensions>
			</trkpt>
			<trkpt lat="53.26494143" lon="-8.93682214">
				<ele>65.0</ele>
				<time>2014-08-17T16:25:26Z</time>
				<extensions>
					<speed>0.0</speed>
				</extensions>
			</trkpt>
			<trkpt lat="53.26494144" lon="-8.93682216">
				<ele>65.0</ele>
				<time>2014-08-17T16:25:27Z</time>
				<extensions>
					<speed>0.0</speed>
				</extensions>
			</trkpt>
			<trkpt lat="53.26494146" lon="-8.93682217">
				<ele>65.0</ele>
				<time>2014-08-17T16:25:28Z</time>
				<extensions>
					<speed>0.0</speed>
				</extensions>
			</trkpt>
			<trkpt lat="53.26494147" lon="-8.93682222">
				<ele>65.0</ele>
				<time>2014-08-17T16:25:29Z</time>
				<extensions>
					<speed>0.0</speed>
				</extensions>
			</trkpt>
			<trkpt lat="53.26493822" lon="-8.93682314">
				<ele>65.0</ele>
				<time>2014-08-17T16:25:30Z</time>
				<extensions>
					<speed>1.75</speed>
				</extensions>
			</trkpt>
			<trkpt lat="53.26492163" lon="-8.93682786">
				<ele>65.0</ele>
				<time>2014-08-17T16:25:31Z</time>
				<extensions>
					<speed>1.75</speed>
				</extensions>
			</trkpt>
			<trkpt lat="53.26490505" lon="-8.93683258">
				<ele>66.0</ele>
				<time>2014-08-17T16:25:32Z</time>
				<extensions>
					<speed>1.75</speed>
				</extensions>
			</trkpt>
			<trkpt lat="53.26485307" lon="-8.93684111">
				<ele>65.0</ele>
				<time>2014-08-17T16:25:33Z</time>
				<extensions>
					<speed>3.75</speed>
				</extensions>
			</trkpt>
			<trkpt lat="53.26481441" lon="-8.93684696">
				<ele>65.0</ele>
				<time>2014-08-17T16:25:34Z</time>
				<extensions>
					<speed>4.0</speed>
				</extensions>
			</trkpt>
			<trkpt lat="53.26477708" lon="-8.9368355">
				<ele>65.0</ele>
				<time>2014-08-17T16:25:35Z</time>
				<extensions>
					<speed>4.75</speed>
				</extensions>
			</trkpt>
			<trkpt lat="53.264739" lon="-8.93683941">
				<ele>65.0</ele>
				<time>2014-08-17T16:25:36Z</time>
				<extensions>
					<speed>5.25</speed>
				</extensions>
			</trkpt>
			<trkpt lat="53.26468594" lon="-8.93684924">
				<ele>65.0</ele>
				<time>2014-08-17T16:25:37Z</time>
				<extensions>
					<speed>5.5</speed>
				</extensions>
			</trkpt>
			<trkpt lat="53.26464222" lon="-8.93686619">
				<ele>65.0</ele>
				<time>2014-08-17T16:25:38Z</time>
				<extensions>
					<speed>6.0</speed>
				</extensions>
			</trkpt>
			<trkpt lat="53.26459761" lon="-8.93688385">
				<ele>65.0</ele>
				<time>2014-08-17T16:25:39Z</time>
				<extensions>
					<speed>5.75</speed>
				</extensions>
			</trkpt>
			<trkpt lat="53.2645491" lon="-8.93688499">
				<ele>65.0</ele>
				<time>2014-08-17T16:25:40Z</time>
				<extensions>
					<speed>5.75</speed>
				</extensions>
			</trkpt>
			<trkpt lat="53.26449957" lon="-8.93689181">
				<ele>65.0</ele>
				<time>2014-08-17T16:25:41Z</time>
				<extensions>
					<speed>5.25</speed>
				</extensions>
			</trkpt>
			<trkpt lat="53.26445322" lon="-8.93691209">
				<ele>64.0</ele>
				<time>2014-08-17T16:25:42Z</time>
				<extensions>
					<speed>5.25</speed>
				</extensions>
			</trkpt>
			<trkpt lat="53.26439912" lon="-8.93692713">
				<ele>64.0</ele>
				<time>2014-08-17T16:25:43Z</time>
				<extensions>
					<speed>5.0</speed>
				</extensions>
			</trkpt>
			<trkpt lat="53.26436645" lon="-8.93693679">
				<ele>64.0</ele>
				<time>2014-08-17T16:25:44Z</time>
				<extensions>
					<speed>4.75</speed>
				</extensions>
			</trkpt>
			<trkpt lat="53.26433418" lon="-8.93696158">
				<ele>63.0</ele>
				<time>2014-08-17T16:25:45Z</time>
				<extensions>
					<speed>4.5</speed>
				</extensions>
			</trkpt>
			<trkpt lat="53.2642904" lon="-8.93694385">
				<ele>63.0</ele>
				<time>2014-08-17T16:25:46Z</time>
				<extensions>
					<speed>4.5</speed>
				</extensions>
			</trkpt>
			<trkpt lat="53.26425318" lon="-8.93689814">
				<ele>63.0</ele>
				<time>2014-08-17T16:25:47Z</time>
				<extensions>
					<speed>5.0</speed>
				</extensions>
			</trkpt>
			<trkpt lat="53.2642305" lon="-8.93682278">
				<ele>63.0</ele>
				<time>2014-08-17T16:25:48Z</time>
				<extensions>
					<speed>5.75</speed>
				</extensions>
			</trkpt>
			<trkpt lat="53.26419902" lon="-8.93674403">
				<ele>64.0</ele>
				<time>2014-08-17T16:25:49Z</time>
				<extensions>
					<speed>7.0</speed>
				</extensions>
			</trkpt>
			<trkpt lat="53.26417611" lon="-8.93665765">
				<ele>64.0</ele>
				<time>2014-08-17T16:25:50Z</time>
				<extensions>
					<speed>7.0</speed>
				</extensions>
			</trkpt>
			<trkpt lat="53.26415162" lon="-8.93656522">
				<ele>65.0</ele>
				<time>2014-08-17T16:25:51Z</time>
				<extensions>
					<speed>6.75</speed>
				</extensions>
			</trkpt>
			<trkpt lat="53.26412841" lon="-8.93647025">
				<ele>65.0</ele>
				<time>2014-08-17T16:25:52Z</time>
				<extensions>
					<speed>6.75</speed>
				</extensions>
			</trkpt>
			<trkpt lat="53.26409081" lon="-8.93639306">
				<ele>65.0</ele>
				<time>2014-08-17T16:25:53Z</time>
				<extensions>
					<speed>7.0</speed>
				</extensions>
			</trkpt>
			<trkpt lat="53.2640617" lon="-8.93631635">
				<ele>65.0</ele>
				<time>2014-08-17T16:25:54Z</time>
				<extensions>
					<speed>6.5</speed>
				</extensions>
			</trkpt>
			<trkpt lat="53.26402864" lon="-8.93624123">
				<ele>65.0</ele>
				<time>2014-08-17T16:25:55Z</time>
				<extensions>
					<speed>6.25</speed>
				</extensions>
			</trkpt>
			<trkpt lat="53.26398619" lon="-8.93618608">
				<ele>65.0</ele>
				<time>2014-08-17T16:25:56Z</time>
				<extensions>
					<speed>5.75</speed>
				</extensions>
			</trkpt>
			<trkpt lat="53.26393812" lon="-8.93615714">
				<ele>64.0</ele>
				<time>2014-08-17T16:25:57Z</time>
				<extensions>
					<speed>5.5</speed>
				</extensions>
			</trkpt>
			<trkpt lat="53.26388787" lon="-8.93616311">
				<ele>65.0</ele>
				<time>2014-08-17T16:25:58Z</time>
				<extensions>
					<speed>5.75</speed>
				</extensions>
			</trkpt>
			<trkpt lat="53.26383741" lon="-8.93618595">
				<ele>65.0</ele>
				<time>2014-08-17T16:25:59Z</time>
				<extensions>
					<speed>5.5</speed>
				</extensions>
			</trkpt>
			<trkpt lat="53.26378837" lon="-8.93620181">
				<ele>64.0</ele>
				<time>2014-08-17T16:26:00Z</time>
				<extensions>
					<speed>5.25</speed>
				</extensions>
			</trkpt>
			<trkpt lat="53.26373525" lon="-8.93620909">
				<ele>64.0</ele>
				<time>2014-08-17T16:26:01Z</time>
				<extensions>
					<speed>5.5</speed>
				</extensions>
			</trkpt>
			<trkpt lat="53.26369226" lon="-8.93618379">
				<ele>64.0</ele>
				<time>2014-08-17T16:26:02Z</time>
				<extensions>
					<speed>5.0</speed>
				</extensions>
			</trkpt>
			<trkpt lat="53.26366196" lon="-8.93611936">
				<ele>64.0</ele>
				<time>2014-08-17T16:26:03Z</time>
				<extensions>
					<speed>4.75</speed>
				</extensions>
			</trkpt>
			<trkpt lat="53.2636416" lon="-8.93606311">
				<ele>64.0</ele>
				<time>2014-08-17T16:26:04Z</time>
				<extensions>
					<speed>4.25</speed>
				</extensions>
			</trkpt>
			<trkpt lat="53.26362838" lon="-8.93601753">
				<ele>64.0</ele>
				<time>2014-08-17T16:26:05Z</time>
				<extensions>
					<speed>3.0</speed>
				</extensions>
			</trkpt>
			<trkpt lat="53.26361815" lon="-8.93598639">
				<ele>64.0</ele>
				<time>2014-08-17T16:26:06Z</time>
				<extensions>
					<speed>2.25</speed>
				</extensions>
			</trkpt>
			<trkpt lat="53.26362257" lon="-8.93596433">
				<ele>63.0</ele>
				<time>2014-08-17T16:26:07Z</time>
				<extensions>
					<speed>1.0</speed>
				</extensions>
			</trkpt>
			<trkpt lat="53.26362078" lon="-8.93595605">
				<ele>64.0</ele>
				<time>2014-08-17T16:26:08Z</time>
				<extensions>
					<speed>1.0</speed>
				</extensions>
			</trkpt>
			<trkpt lat="53.26362099" lon="-8.93594645">
				<ele>63.0</ele>
				<time>2014-08-17T16:26:09Z</time>
				<extensions>
					<speed>0.75</speed>
				</extensions>
			</trkpt>
			<trkpt lat="53.26361845" lon="-8.9359302">
				<ele>63.0</ele>
				<time>2014-08-17T16:26:10Z</time>
				<extensions>
					<speed>1.25</speed>
				</extensions>
			</trkpt>
			<trkpt lat="53.2636146" lon="-8.93591994">
				<ele>63.0</ele>
				<time>2014-08-17T16:26:11Z</time>
				<extensions>
					<speed>1.0</speed>
				</extensions>
			</trkpt>
			<trkpt lat="53.26361195" lon="-8.93590801">
				<ele>64.0</ele>
				<time>2014-08-17T16:26:12Z</time>
				<extensions>
					<speed>1.25</speed>
				</extensions>
			</trkpt>
			<trkpt lat="53.26359783" lon="-8.93587164">
				<ele>63.0</ele>
				<time>2014-08-17T16:26:13Z</time>
				<extensions>
					<speed>3.25</speed>
				</extensions>
			</trkpt>
			<trkpt lat="53.26357723" lon="-8.93582309">
				<ele>64.0</ele>
				<time>2014-08-17T16:26:14Z</time>
				<extensions>
					<speed>4.25</speed>
				</extensions>
			</trkpt>
			<trkpt lat="53.26356089" lon="-8.93576412">
				<ele>63.0</ele>
				<time>2014-08-17T16:26:15Z</time>
				<extensions>
					<speed>4.5</speed>
				</extensions>
			</trkpt>
			<trkpt lat="53.26353878" lon="-8.93570416">
				<ele>64.0</ele>
				<time>2014-08-17T16:26:16Z</time>
				<extensions>
					<speed>5.25</speed>
				</extensions>
			</trkpt>
			<trkpt lat="53.26351653" lon="-8.93564095">
				<ele>63.0</ele>
				<time>2014-08-17T16:26:17Z</time>
				<extensions>
					<speed>5.25</speed>
				</extensions>
			</trkpt>
			<trkpt lat="53.26349498" lon="-8.93556546">
				<ele>64.0</ele>
				<time>2014-08-17T16:26:18Z</time>
				<extensions>
					<speed>5.5</speed>
				</extensions>
			</trkpt>
			<trkpt lat="53.26349155" lon="-8.93548422">
				<ele>62.0</ele>
				<time>2014-08-17T16:26:19Z</time>
				<extensions>
					<speed>5.5</speed>
				</extensions>
			</trkpt>
			<trkpt lat="53.26348766" lon="-8.93540903">
				<ele>62.0</ele>
				<time>2014-08-17T16:26:20Z</time>
				<extensions>
					<speed>4.5</speed>
				</extensions>
			</trkpt>
			<trkpt lat="53.26350943" lon="-8.93534723">
				<ele>62.0</ele>
				<time>2014-08-17T16:26:21Z</time>
				<extensions>
					<speed>4.25</speed>
				</extensions>
			</trkpt>
			<trkpt lat="53.26353625" lon="-8.93530406">
				<ele>62.0</ele>
				<time>2014-08-17T16:26:22Z</time>
				<extensions>
					<speed>3.75</speed>
				</extensions>
			</trkpt>
			<trkpt lat="53.26357499" lon="-8.93526566">
				<ele>62.0</ele>
				<time>2014-08-17T16:26:23Z</time>
				<extensions>
					<speed>4.75</speed>
				</extensions>
			</trkpt>
			<trkpt lat="53.26360667" lon="-8.93521199">
				<ele>62.0</ele>
				<time>2014-08-17T16:26:24Z</time>
				<extensions>
					<speed>5.0</speed>
				</extensions>
			</trkpt>
			<trkpt lat="53.26364169" lon="-8.93516636">
				<ele>62.0</ele>
				<time>2014-08-17T16:26:25Z</time>
				<extensions>
					<speed>5.5</speed>
				</extensions>
			</trkpt>
			<trkpt lat="53.26368074" lon="-8.93511956">
				<ele>62.0</ele>
				<time>2014-08-17T16:26:26Z</time>
				<extensions>
					<speed>5.75</speed>
				</extensions>
			</trkpt>
			<trkpt lat="53.26373045" lon="-8.93507391">
				<ele>62.0</ele>
				<time>2014-08-17T16:26:27Z</time>
				<extensions>
					<speed>5.75</speed>
				</extensions>
			</trkpt>
			<trkpt lat="53.26377138" lon="-8.93504894">
				<ele>62.0</ele>
				<time>2014-08-17T16:26:28Z</time>
				<extensions>
					<speed>5.75</speed>
				</extensions>
			</trkpt>
			<trkpt lat="53.26381414" lon="-8.9350284">
				<ele>61.0</ele>
				<time>2014-08-17T16:26:29Z</time>
				<extensions>
					<speed>5.25</speed>
				</extensions>
			</trkpt>
			<trkpt lat="53.26385314" lon="-8.93501232">
				<ele>61.0</ele>
				<time>2014-08-17T16:26:30Z</time>
				<extensions>
					<speed>4.75</speed>
				</extensions>
			</trkpt>
			<trkpt lat="53.26389234" lon="-8.93498885">
				<ele>61.0</ele>
				<time>2014-08-17T16:26:31Z</time>
				<extensions>
					<speed>4.75</speed>
				</extensions>
			</trkpt>
			<trkpt lat="53.26393154" lon="-8.93496537">
				<ele>61.0</ele>
				<time>2014-08-17T16:26:32Z</time>
				<extensions>
					<speed>4.75</speed>
				</extensions>
			</trkpt>
			<trkpt lat="53.26390944" lon="-8.9349768">
				<ele>60.0</ele>
				<time>2014-08-17T16:26:33Z</time>
				<extensions>
					<speed>1.5</speed>
				</extensions>
			</trkpt>
			<trkpt lat="53.26392292" lon="-8.9349665">
				<ele>60.0</ele>
				<time>2014-08-17T16:26:34Z</time>
				<extensions>
					<speed>1.0</speed>
				</extensions>
			</trkpt>
			<trkpt lat="53.26392484" lon="-8.93496938">
				<ele>60.0</ele>
				<time>2014-08-17T16:26:35Z</time>
				<extensions>
					<speed>0.0</speed>
				</extensions>
			</trkpt>
			<trkpt lat="53.26391927" lon="-8.93496271">
				<ele>59.0</ele>
				<time>2014-08-17T16:26:36Z</time>
				<extensions>
					<speed>0.0</speed>
				</extensions>
			</trkpt>
			<trkpt lat="53.26391994" lon="-8.93495981">
				<ele>59.0</ele>
				<time>2014-08-17T16:26:37Z</time>
				<extensions>
					<speed>0.0</speed>
				</extensions>
			</trkpt>
			<trkpt lat="53.26391437" lon="-8.93495728">
				<ele>58.0</ele>
				<time>2014-08-17T16:26:38Z</time>
				<extensions>
					<speed>0.0</speed>
				</extensions>
			</trkpt>
			<trkpt lat="53.26391637" lon="-8.9349529">
				<ele>58.0</ele>
				<time>2014-08-17T16:26:39Z</time>
				<extensions>
					<speed>0.0</speed>
				</extensions>
			</trkpt>
			<trkpt lat="53.26391812" lon="-8.93494928">
				<ele>58.0</ele>
				<time>2014-08-17T16:26:40Z</time>
				<extensions>
					<speed>0.0</speed>
				</extensions>
			</trkpt>
			<trkpt lat="53.26391665" lon="-8.93494759">
				<ele>57.0</ele>
				<time>2014-08-17T16:26:41Z</time>
				<extensions>
					<speed>0.0</speed>
				</extensions>
			</trkpt>
			<trkpt lat="53.2639155" lon="-8.9349491">
				<ele>58.0</ele>
				<time>2014-08-17T16:26:42Z</time>
				<extensions>
					<speed>0.0</speed>
				</extensions>
			</trkpt>
			<trkpt lat="53.26391847" lon="-8.93494886">
				<ele>58.0</ele>
				<time>2014-08-17T16:26:43Z</time>
				<extensions>
					<speed>0.0</speed>
				</extensions>
			</trkpt>
			<trkpt lat="53.26391847" lon="-8.93494886">
				<ele>58.0</ele>
				<time>2014-08-17T16:26:44Z</time>
				<extensions>
					<speed>0.0</speed>
				</extensions>
			</trkpt>
			<trkpt lat="53.26391865" lon="-8.93494974">
				<ele>58.0</ele>
				<time>2014-08-17T16:26:45Z</time>
				<extensions>
					<speed>0.0</speed>
				</extensions>
			</trkpt>
			<trkpt lat="53.26391909" lon="-8.9349495">
				<ele>58.0</ele>
				<time>2014-08-17T16:26:46Z</time>
				<extensions>
					<speed>0.0</speed>
				</extensions>
			</trkpt>
			<trkpt lat="53.26391917" lon="-8.93494952">
				<ele>58.0</ele>
				<time>2014-08-17T16:26:47Z</time>
				<extensions>
					<speed>0.0</speed>
				</extensions>
			</trkpt>
			<trkpt lat="53.26391916" lon="-8.93494952">
				<ele>58.0</ele>
				<time>2014-08-17T16:26:48Z</time>
				<extensions>
					<speed>0.0</speed>
				</extensions>
			</trkpt>
			<trkpt lat="53.26391916" lon="-8.93494952">
				<ele>58.0</ele>
				<time>2014-08-17T16:26:49Z</time>
				<extensions>
					<speed>0.0</speed>
				</extensions>
			</trkpt>
			<trkpt lat="53.26391922" lon="-8.93494954">
				<ele>58.0</ele>
				<time>2014-08-17T16:26:50Z</time>
				<extensions>
					<speed>0.0</speed>
				</extensions>
			</trkpt>
			<trkpt lat="53.26391918" lon="-8.93494955">
				<ele>58.0</ele>
				<time>2014-08-17T16:26:51Z</time>
				<extensions>
					<speed>0.0</speed>
				</extensions>
			</trkpt>
			<trkpt lat="53.26391917" lon="-8.93494955">
				<ele>58.0</ele>
				<time>2014-08-17T16:26:52Z</time>
				<extensions>
					<speed>0.0</speed>
				</extensions>
			</trkpt>
			<trkpt lat="53.26391917" lon="-8.9349495">
				<ele>58.0</ele>
				<time>2014-08-17T16:26:53Z</time>
				<extensions>
					<speed>0.0</speed>
				</extensions>
			</trkpt>
			<trkpt lat="53.26391911" lon="-8.93494947">
				<ele>58.0</ele>
				<time>2014-08-17T16:26:54Z</time>
				<extensions>
					<speed>0.0</speed>
				</extensions>
			</trkpt>
			<trkpt lat="53.26391911" lon="-8.93494948">
				<ele>58.0</ele>
				<time>2014-08-17T16:26:55Z</time>
				<extensions>
					<speed>0.0</speed>
				</extensions>
			</trkpt>
			<trkpt lat="53.2639192" lon="-8.93494954">
				<ele>58.0</ele>
				<time>2014-08-17T16:26:56Z</time>
				<extensions>
					<speed>0.0</speed>
				</extensions>
			</trkpt>
			<trkpt lat="53.26392006" lon="-8.93494875">
				<ele>58.0</ele>
				<time>2014-08-17T16:26:57Z</time>
				<extensions>
					<speed>0.75</speed>
				</extensions>
			</trkpt>
			<trkpt lat="53.26392678" lon="-8.93494261">
				<ele>58.0</ele>
				<time>2014-08-17T16:26:58Z</time>
				<extensions>
					<speed>0.75</speed>
				</extensions>
			</trkpt>
			<trkpt lat="53.26395751" lon="-8.93494689">
				<ele>59.0</ele>
				<time>2014-08-17T16:26:59Z</time>
				<extensions>
					<speed>2.5</speed>
				</extensions>
			</trkpt>
			<trkpt lat="53.26397552" lon="-8.93496093">
				<ele>59.0</ele>
				<time>2014-08-17T16:27:00Z</time>
				<extensions>
					<speed>2.75</speed>
				</extensions>
			</trkpt>
			<trkpt lat="53.26399679" lon="-8.93498042">
				<ele>59.0</ele>
				<time>2014-08-17T16:27:01Z</time>
				<extensions>
					<speed>2.25</speed>
				</extensions>
			</trkpt>
			<trkpt lat="53.26401469" lon="-8.93499838">
				<ele>60.0</ele>
				<time>2014-08-17T16:27:02Z</time>
				<extensions>
					<speed>1.25</speed>
				</extensions>
			</trkpt>
			<trkpt lat="53.26401432" lon="-8.93500641">
				<ele>60.0</ele>
				<time>2014-08-17T16:27:03Z</time>
				<extensions>
					<speed>0.75</speed>
				</extensions>
			</trkpt>
			<trkpt lat="53.26401879" lon="-8.93500399">
				<ele>62.0</ele>
				<time>2014-08-17T16:27:04Z</time>
				<extensions>
					<speed>0.0</speed>
				</extensions>
			</trkpt>
			<trkpt lat="53.26402466" lon="-8.93500558">
				<ele>62.0</ele>
				<time>2014-08-17T16:27:05Z</time>
				<extensions>
					<speed>0.0</speed>
				</extensions>
			</trkpt>
			<trkpt lat="53.26402953" lon="-8.93500447">
				<ele>62.0</ele>
				<time>2014-08-17T16:27:06Z</time>
				<extensions>
					<speed>0.0</speed>
				</extensions>
			</trkpt>
			<trkpt lat="53.26403101" lon="-8.93500431">
				<ele>62.0</ele>
				<time>2014-08-17T16:27:07Z</time>
				<extensions>
					<speed>0.0</speed>
				</extensions>
			</trkpt>
			<trkpt lat="53.2640318" lon="-8.93500642">
				<ele>63.0</ele>
				<time>2014-08-17T16:27:08Z</time>
				<extensions>
					<speed>0.0</speed>
				</extensions>
			</trkpt>
			<trkpt lat="53.26403322" lon="-8.93500573">
				<ele>63.0</ele>
				<time>2014-08-17T16:27:09Z</time>
				<extensions>
					<speed>0.0</speed>
				</extensions>
			</trkpt>
			<trkpt lat="53.26403436" lon="-8.93500577">
				<ele>63.0</ele>
				<time>2014-08-17T16:27:10Z</time>
				<extensions>
					<speed>0.0</speed>
				</extensions>
			</trkpt>
			<trkpt lat="53.2640356" lon="-8.93500799">
				<ele>64.0</ele>
				<time>2014-08-17T16:27:11Z</time>
				<extensions>
					<speed>0.0</speed>
				</extensions>
			</trkpt>
			<trkpt lat="53.26403468" lon="-8.93500863">
				<ele>64.0</ele>
				<time>2014-08-17T16:27:12Z</time>
				<extensions>
					<speed>0.0</speed>
				</extensions>
			</trkpt>
			<trkpt lat="53.26403516" lon="-8.93501052">
				<ele>64.0</ele>
				<time>2014-08-17T16:27:13Z</time>
				<extensions>
					<speed>0.0</speed>
				</extensions>
			</trkpt>
			<trkpt lat="53.26403379" lon="-8.93500911">
				<ele>64.0</ele>
				<time>2014-08-17T16:27:14Z</time>
				<extensions>
					<speed>0.0</speed>
				</extensions>
			</trkpt>
			<trkpt lat="53.26403512" lon="-8.9350124">
				<ele>64.0</ele>
				<time>2014-08-17T16:27:15Z</time>
				<extensions>
					<speed>2.0</speed>
				</extensions>
			</trkpt>
			<trkpt lat="53.2640461" lon="-8.93504727">
				<ele>64.0</ele>
				<time>2014-08-17T16:27:16Z</time>
				<extensions>
					<speed>3.0</speed>
				</extensions>
			</trkpt>
			<trkpt lat="53.26405702" lon="-8.93509408">
				<ele>64.0</ele>
				<time>2014-08-17T16:27:17Z</time>
				<extensions>
					<speed>3.5</speed>
				</extensions>
			</trkpt>
			<trkpt lat="53.26407686" lon="-8.9351417">
				<ele>64.0</ele>
				<time>2014-08-17T16:27:18Z</time>
				<extensions>
					<speed>3.75</speed>
				</extensions>
			</trkpt>
			<trkpt lat="53.26409221" lon="-8.93519487">
				<ele>64.0</ele>
				<time>2014-08-17T16:27:19Z</time>
				<extensions>
					<speed>3.75</speed>
				</extensions>
			</trkpt>
			<trkpt lat="53.2641105" lon="-8.93525598">
				<ele>63.0</ele>
				<time>2014-08-17T16:27:20Z</time>
				<extensions>
					<speed>4.5</speed>
				</extensions>
			</trkpt>
			<trkpt lat="53.26412923" lon="-8.93532294">
				<ele>63.0</ele>
				<time>2014-08-17T16:27:21Z</time>
				<extensions>
					<speed>5.0</speed>
				</extensions>
			</trkpt>
			<trkpt lat="53.26415388" lon="-8.93539261">
				<ele>63.0</ele>
				<time>2014-08-17T16:27:22Z</time>
				<extensions>
					<speed>5.25</speed>
				</extensions>
			</trkpt>
			<trkpt lat="53.26417068" lon="-8.93545987">
				<ele>63.0</ele>
				<time>2014-08-17T16:27:23Z</time>
				<extensions>
					<speed>4.5</speed>
				</extensions>
			</trkpt>
			<trkpt lat="53.26419596" lon="-8.93552422">
				<ele>63.0</ele>
				<time>2014-08-17T16:27:24Z</time>
				<extensions>
					<speed>5.0</speed>
				</extensions>
			</trkpt>
			<trkpt lat="53.2642254" lon="-8.9355903">
				<ele>62.0</ele>
				<time>2014-08-17T16:27:25Z</time>
				<extensions>
					<speed>4.75</speed>
				</extensions>
			</trkpt>
			<trkpt lat="53.26424099" lon="-8.93566">
				<ele>62.0</ele>
				<time>2014-08-17T16:27:26Z</time>
				<extensions>
					<speed>4.75</speed>
				</extensions>
			</trkpt>
			<trkpt lat="53.26426831" lon="-8.93571568">
				<ele>62.0</ele>
				<time>2014-08-17T16:27:27Z</time>
				<extensions>
					<speed>4.75</speed>
				</extensions>
			</trkpt>
			<trkpt lat="53.26428703" lon="-8.93576971">
				<ele>62.0</ele>
				<time>2014-08-17T16:27:28Z</time>
				<extensions>
					<speed>4.5</speed>
				</extensions>
			</trkpt>
			<trkpt lat="53.26431485" lon="-8.93581526">
				<ele>62.0</ele>
				<time>2014-08-17T16:27:29Z</time>
				<extensions>
					<speed>4.5</speed>
				</extensions>
			</trkpt>
			<trkpt lat="53.26435042" lon="-8.93585468">
				<ele>62.0</ele>
				<time>2014-08-17T16:27:30Z</time>
				<extensions>
					<speed>4.0</speed>
				</extensions>
			</trkpt>
			<trkpt lat="53.26438234" lon="-8.93587445">
				<ele>62.0</ele>
				<time>2014-08-17T16:27:31Z</time>
				<extensions>
					<speed>4.0</speed>
				</extensions>
			</trkpt>
			<trkpt lat="53.26442168" lon="-8.9358666">
				<ele>62.0</ele>
				<time>2014-08-17T16:27:32Z</time>
				<extensions>
					<speed>4.0</speed>
				</extensions>
			</trkpt>
			<trkpt lat="53.26444964" lon="-8.93586203">
				<ele>61.0</ele>
				<time>2014-08-17T16:27:33Z</time>
				<extensions>
					<speed>3.75</speed>
				</extensions>
			</trkpt>
			<trkpt lat="53.2644765" lon="-8.93585685">
				<ele>61.0</ele>
				<time>2014-08-17T16:27:34Z</time>
				<extensions>
					<speed>3.25</speed>
				</extensions>
			</trkpt>
			<trkpt lat="53.26450369" lon="-8.93584941">
				<ele>61.0</ele>
				<time>2014-08-17T16:27:35Z</time>
				<extensions>
					<speed>2.75</speed>
				</extensions>
			</trkpt>
			<trkpt lat="53.26451877" lon="-8.935849">
				<ele>61.0</ele>
				<time>2014-08-17T16:27:36Z</time>
				<extensions>
					<speed>1.75</speed>
				</extensions>
			</trkpt>
			<trkpt lat="53.26451851" lon="-8.93584653">
				<ele>61.0</ele>
				<time>2014-08-17T16:27:37Z</time>
				<extensions>
					<speed>0.25</speed>
				</extensions>
			</trkpt>
			<trkpt lat="53.26452148" lon="-8.93584546">
				<ele>61.0</ele>
				<time>2014-08-17T16:27:38Z</time>
				<extensions>
					<speed>0.25</speed>
				</extensions>
			</trkpt>
			<trkpt lat="53.26452444" lon="-8.9358444">
				<ele>61.0</ele>
				<time>2014-08-17T16:27:39Z</time>
				<extensions>
					<speed>0.25</speed>
				</extensions>
			</trkpt>
			<trkpt lat="53.26451736" lon="-8.9358398">
				<ele>61.0</ele>
				<time>2014-08-17T16:27:40Z</time>
				<extensions>
					<speed>0.0</speed>
				</extensions>
			</trkpt>
			<trkpt lat="53.26451809" lon="-8.93583934">
				<ele>61.0</ele>
				<time>2014-08-17T16:27:41Z</time>
				<extensions>
					<speed>0.0</speed>
				</extensions>
			</trkpt>
			<trkpt lat="53.26451992" lon="-8.93583494">
				<ele>62.0</ele>
				<time>2014-08-17T16:27:42Z</time>
				<extensions>
					<speed>0.0</speed>
				</extensions>
			</trkpt>
			<trkpt lat="53.26452032" lon="-8.93583908">
				<ele>62.0</ele>
				<time>2014-08-17T16:27:43Z</time>
				<extensions>
					<speed>0.0</speed>
				</extensions>
			</trkpt>
			<trkpt lat="53.26451858" lon="-8.93585097">
				<ele>62.0</ele>
				<time>2014-08-17T16:27:44Z</time>
				<extensions>
					<speed>0.0</speed>
				</extensions>
			</trkpt>
			<trkpt lat="53.26451971" lon="-8.9358503">
				<ele>62.0</ele>
				<time>2014-08-17T16:27:45Z</time>
				<extensions>
					<speed>1.0</speed>
				</extensions>
			</trkpt>
			<trkpt lat="53.26454503" lon="-8.93584339">
				<ele>62.0</ele>
				<time>2014-08-17T16:27:46Z</time>
				<extensions>
					<speed>3.0</speed>
				</extensions>
			</trkpt>
			<trkpt lat="53.2645764" lon="-8.93583708">
				<ele>63.0</ele>
				<time>2014-08-17T16:27:47Z</time>
				<extensions>
					<speed>3.5</speed>
				</extensions>
			</trkpt>
			<trkpt lat="53.26460437" lon="-8.93583133">
				<ele>63.0</ele>
				<time>2014-08-17T16:27:48Z</time>
				<extensions>
					<speed>3.5</speed>
				</extensions>
			</trkpt>
			<trkpt lat="53.26463706" lon="-8.93581528">
				<ele>63.0</ele>
				<time>2014-08-17T16:27:49Z</time>
				<extensions>
					<speed>3.75</speed>
				</extensions>
			</trkpt>
			<trkpt lat="53.26467455" lon="-8.93580923">
				<ele>63.0</ele>
				<time>2014-08-17T16:27:50Z</time>
				<extensions>
					<speed>4.0</speed>
				</extensions>
			</trkpt>
			<trkpt lat="53.26470533" lon="-8.93578965">
				<ele>64.0</ele>
				<time>2014-08-17T16:27:51Z</time>
				<extensions>
					<speed>4.0</speed>
				</extensions>
			</trkpt>
			<trkpt lat="53.26472183" lon="-8.93574452">
				<ele>63.0</ele>
				<time>2014-08-17T16:27:52Z</time>
				<extensions>
					<speed>3.5</speed>
				</extensions>
			</trkpt>
			<trkpt lat="53.26471895" lon="-8.93569004">
				<ele>61.0</ele>
				<time>2014-08-17T16:27:53Z</time>
				<extensions>
					<speed>3.5</speed>
				</extensions>
			</trkpt>
			<trkpt lat="53.26471626" lon="-8.93566744">
				<ele>62.0</ele>
				<time>2014-08-17T16:27:54Z</time>
				<extensions>
					<speed>1.5</speed>
				</extensions>
			</trkpt>
			<trkpt lat="53.26471077" lon="-8.9356506">
				<ele>62.0</ele>
				<time>2014-08-17T16:27:55Z</time>
				<extensions>
					<speed>0.5</speed>
				</extensions>
			</trkpt>
			<trkpt lat="53.26471376" lon="-8.93563679">
				<ele>61.0</ele>
				<time>2014-08-17T16:27:56Z</time>
				<extensions>
					<speed>0.0</speed>
				</extensions>
			</trkpt>
			<trkpt lat="53.26471439" lon="-8.93563907">
				<ele>61.0</ele>
				<time>2014-08-17T16:27:57Z</time>
				<extensions>
					<speed>1.25</speed>
				</extensions>
			</trkpt>
			<trkpt lat="53.26472692" lon="-8.93566269">
				<ele>61.0</ele>
				<time>2014-08-17T16:27:58Z</time>
				<extensions>
					<speed>1.75</speed>
				</extensions>
			</trkpt>
			<trkpt lat="53.2647262" lon="-8.93568808">
				<ele>60.0</ele>
				<time>2014-08-17T16:27:59Z</time>
				<extensions>
					<speed>1.75</speed>
				</extensions>
			</trkpt>
			<trkpt lat="53.2647247" lon="-8.93571332">
				<ele>60.0</ele>
				<time>2014-08-17T16:28:00Z</time>
				<extensions>
					<speed>1.5</speed>
				</extensions>
			</trkpt>
			<trkpt lat="53.26472634" lon="-8.93573794">
				<ele>60.0</ele>
				<time>2014-08-17T16:28:01Z</time>
				<extensions>
					<speed>1.25</speed>
				</extensions>
			</trkpt>
			<trkpt lat="53.26473109" lon="-8.93576182">
				<ele>60.0</ele>
				<time>2014-08-17T16:28:02Z</time>
				<extensions>
					<speed>1.25</speed>
				</extensions>
			</trkpt>
			<trkpt lat="53.26473537" lon="-8.93575651">
				<ele>60.0</ele>
				<time>2014-08-17T16:28:03Z</time>
				<extensions>
					<speed>0.0</speed>
				</extensions>
			</trkpt>
			<trkpt lat="53.26473438" lon="-8.93575441">
				<ele>60.0</ele>
				<time>2014-08-17T16:28:04Z</time>
				<extensions>
					<speed>1.25</speed>
				</extensions>
			</trkpt>
			<trkpt lat="53.26471202" lon="-8.93575255">
				<ele>60.0</ele>
				<time>2014-08-17T16:28:05Z</time>
				<extensions>
					<speed>2.5</speed>
				</extensions>
			</trkpt>
			<trkpt lat="53.26468861" lon="-8.9357638">
				<ele>59.0</ele>
				<time>2014-08-17T16:28:06Z</time>
				<extensions>
					<speed>3.0</speed>
				</extensions>
			</trkpt>
			<trkpt lat="53.26465275" lon="-8.93578099">
				<ele>59.0</ele>
				<time>2014-08-17T16:28:07Z</time>
				<extensions>
					<speed>4.5</speed>
				</extensions>
			</trkpt>
			<trkpt lat="53.26461022" lon="-8.93580317">
				<ele>59.0</ele>
				<time>2014-08-17T16:28:08Z</time>
				<extensions>
					<speed>4.75</speed>
				</extensions>
			</trkpt>
			<trkpt lat="53.26456167" lon="-8.93582833">
				<ele>59.0</ele>
				<time>2014-08-17T16:28:09Z</time>
				<extensions>
					<speed>5.5</speed>
				</extensions>
			</trkpt>
			<trkpt lat="53.26451152" lon="-8.93584885">
				<ele>59.0</ele>
				<time>2014-08-17T16:28:10Z</time>
				<extensions>
					<speed>6.25</speed>
				</extensions>
			</trkpt>
			<trkpt lat="53.26445553" lon="-8.93586703">
				<ele>60.0</ele>
				<time>2014-08-17T16:28:11Z</time>
				<extensions>
					<speed>6.0</speed>
				</extensions>
			</trkpt>
			<trkpt lat="53.2644046" lon="-8.9358741">
				<ele>59.0</ele>
				<time>2014-08-17T16:28:12Z</time>
				<extensions>
					<speed>6.0</speed>
				</extensions>
			</trkpt>
			<trkpt lat="53.26434969" lon="-8.93585953">
				<ele>59.0</ele>
				<time>2014-08-17T16:28:13Z</time>
				<extensions>
					<speed>6.0</speed>
				</extensions>
			</trkpt>
			<trkpt lat="53.2643108" lon="-8.93581561">
				<ele>59.0</ele>
				<time>2014-08-17T16:28:14Z</time>
				<extensions>
					<speed>5.5</speed>
				</extensions>
			</trkpt>
			<trkpt lat="53.26427442" lon="-8.93576367">
				<ele>60.0</ele>
				<time>2014-08-17T16:28:15Z</time>
				<extensions>
					<speed>5.75</speed>
				</extensions>
			</trkpt>
			<trkpt lat="53.26424742" lon="-8.93569121">
				<ele>59.0</ele>
				<time>2014-08-17T16:28:16Z</time>
				<extensions>
					<speed>6.0</speed>
				</extensions>
			</trkpt>
			<trkpt lat="53.26422643" lon="-8.935617">
				<ele>59.0</ele>
				<time>2014-08-17T16:28:17Z</time>
				<extensions>
					<speed>6.5</speed>
				</extensions>
			</trkpt>
			<trkpt lat="53.26419709" lon="-8.93553085">
				<ele>59.0</ele>
				<time>2014-08-17T16:28:18Z</time>
				<extensions>
					<speed>6.5</speed>
				</extensions>
			</trkpt>
			<trkpt lat="53.2641854" lon="-8.93542538">
				<ele>59.0</ele>
				<time>2014-08-17T16:28:19Z</time>
				<extensions>
					<speed>6.75</speed>
				</extensions>
			</trkpt>
			<trkpt lat="53.2641628" lon="-8.9353393">
				<ele>60.0</ele>
				<time>2014-08-17T16:28:20Z</time>
				<extensions>
					<speed>6.5</speed>
				</extensions>
			</trkpt>
			<trkpt lat="53.26413902" lon="-8.93525233">
				<ele>60.0</ele>
				<time>2014-08-17T16:28:21Z</time>
				<extensions>
					<speed>6.25</speed>
				</extensions>
			</trkpt>
			<trkpt lat="53.26412629" lon="-8.93517484">
				<ele>60.0</ele>
				<time>2014-08-17T16:28:22Z</time>
				<extensions>
					<speed>5.75</speed>
				</extensions>
			</trkpt>
			<trkpt lat="53.26411183" lon="-8.93511682">
				<ele>60.0</ele>
				<time>2014-08-17T16:28:23Z</time>
				<extensions>
					<speed>5.0</speed>
				</extensions>
			</trkpt>
			<trkpt lat="53.26408433" lon="-8.93506152">
				<ele>61.0</ele>
				<time>2014-08-17T16:28:24Z</time>
				<extensions>
					<speed>5.0</speed>
				</extensions>
			</trkpt>
			<trkpt lat="53.26404911" lon="-8.93500634">
				<ele>61.0</ele>
				<time>2014-08-17T16:28:25Z</time>
				<extensions>
					<speed>4.5</speed>
				</extensions>
			</trkpt>
			<trkpt lat="53.26403701" lon="-8.93495389">
				<ele>60.0</ele>
				<time>2014-08-17T16:28:26Z</time>
				<extensions>
					<speed>4.25</speed>
				</extensions>
			</trkpt>
			<trkpt lat="53.26402591" lon="-8.93489692">
				<ele>60.0</ele>
				<time>2014-08-17T16:28:27Z</time>
				<extensions>
					<speed>3.5</speed>
				</extensions>
			</trkpt>
			<trkpt lat="53.26401712" lon="-8.93483041">
				<ele>60.0</ele>
				<time>2014-08-17T16:28:28Z</time>
				<extensions>
					<speed>4.0</speed>
				</extensions>
			</trkpt>
			<trkpt lat="53.26399988" lon="-8.93477387">
				<ele>61.0</ele>
				<time>2014-08-17T16:28:29Z</time>
				<extensions>
					<speed>3.5</speed>
				</extensions>
			</trkpt>
			<trkpt lat="53.26398136" lon="-8.93471887">
				<ele>62.0</ele>
				<time>2014-08-17T16:28:30Z</time>
				<extensions>
					<speed>3.0</speed>
				</extensions>
			</trkpt>
			<trkpt lat="53.26397178" lon="-8.93467404">
				<ele>63.0</ele>
				<time>2014-08-17T16:28:31Z</time>
				<extensions>
					<speed>2.5</speed>
				</extensions>
			</trkpt>
			<trkpt lat="53.26396816" lon="-8.93464036">
				<ele>63.0</ele>
				<time>2014-08-17T16:28:32Z</time>
				<extensions>
					<speed>2.25</speed>
				</extensions>
			</trkpt>
			<trkpt lat="53.26397375" lon="-8.93461614">
				<ele>63.0</ele>
				<time>2014-08-17T16:28:33Z</time>
				<extensions>
					<speed>1.25</speed>
				</extensions>
			</trkpt>
			<trkpt lat="53.26397655" lon="-8.93461175">
				<ele>63.0</ele>
				<time>2014-08-17T16:28:34Z</time>
				<extensions>
					<speed>0.0</speed>
				</extensions>
			</trkpt>
			<trkpt lat="53.26397588" lon="-8.93461193">
				<ele>62.0</ele>
				<time>2014-08-17T16:28:35Z</time>
				<extensions>
					<speed>0.0</speed>
				</extensions>
			</trkpt>
			<trkpt lat="53.26397838" lon="-8.93460744">
				<ele>63.0</ele>
				<time>2014-08-17T16:28:36Z</time>
				<extensions>
					<speed>0.0</speed>
				</extensions>
			</trkpt>
			<trkpt lat="53.26397405" lon="-8.93459904">
				<ele>62.0</ele>
				<time>2014-08-17T16:28:37Z</time>
				<extensions>
					<speed>0.0</speed>
				</extensions>
			</trkpt>
			<trkpt lat="53.26397552" lon="-8.93459763">
				<ele>62.0</ele>
				<time>2014-08-17T16:28:38Z</time>
				<extensions>
					<speed>0.0</speed>
				</extensions>
			</trkpt>
			<trkpt lat="53.26397372" lon="-8.93459453">
				<ele>62.0</ele>
				<time>2014-08-17T16:28:39Z</time>
				<extensions>
					<speed>0.0</speed>
				</extensions>
			</trkpt>
			<trkpt lat="53.26397164" lon="-8.93458918">
				<ele>62.0</ele>
				<time>2014-08-17T16:28:40Z</time>
				<extensions>
					<speed>0.0</speed>
				</extensions>
			</trkpt>
			<trkpt lat="53.26397228" lon="-8.9345896">
				<ele>62.0</ele>
				<time>2014-08-17T16:28:41Z</time>
				<extensions>
					<speed>0.0</speed>
				</extensions>
			</trkpt>
			<trkpt lat="53.26397626" lon="-8.93458877">
				<ele>62.0</ele>
				<time>2014-08-17T16:28:42Z</time>
				<extensions>
					<speed>0.0</speed>
				</extensions>
			</trkpt>
			<trkpt lat="53.26398068" lon="-8.9345852">
				<ele>62.0</ele>
				<time>2014-08-17T16:28:43Z</time>
				<extensions>
					<speed>0.0</speed>
				</extensions>
			</trkpt>
			<trkpt lat="53.2639799" lon="-8.93458482">
				<ele>62.0</ele>
				<time>2014-08-17T16:28:44Z</time>
				<extensions>
					<speed>0.0</speed>
				</extensions>
			</trkpt>
			<trkpt lat="53.26397967" lon="-8.93458459">
				<ele>62.0</ele>
				<time>2014-08-17T16:28:45Z</time>
				<extensions>
					<speed>0.0</speed>
				</extensions>
			</trkpt>
			<trkpt lat="53.26397966" lon="-8.93458483">
				<ele>62.0</ele>
				<time>2014-08-17T16:28:46Z</time>
				<extensions>
					<speed>0.0</speed>
				</extensions>
			</trkpt>
			<trkpt lat="53.26397973" lon="-8.93458465">
				<ele>62.0</ele>
				<time>2014-08-17T16:28:47Z</time>
				<extensions>
					<speed>0.0</speed>
				</extensions>
			</trkpt>
			<trkpt lat="53.26397972" lon="-8.93458454">
				<ele>62.0</ele>
				<time>2014-08-17T16:28:48Z</time>
				<extensions>
					<speed>0.0</speed>
				</extensions>
			</trkpt>
			<trkpt lat="53.26397966" lon="-8.9345844">
				<ele>62.0</ele>
				<time>2014-08-17T16:28:49Z</time>
				<extensions>
					<speed>0.0</speed>
				</extensions>
			</trkpt>
			<trkpt lat="53.2639791" lon="-8.93457702">
				<ele>62.0</ele>
				<time>2014-08-17T16:28:50Z</time>
				<extensions>
					<speed>0.0</speed>
				</extensions>
			</trkpt>
			<trkpt lat="53.2639804" lon="-8.9345719">
				<ele>62.0</ele>
				<time>2014-08-17T16:28:51Z</time>
				<extensions>
					<speed>0.0</speed>
				</extensions>
			</trkpt>
			<trkpt lat="53.26397919" lon="-8.93457093">
				<ele>62.0</ele>
				<time>2014-08-17T16:28:52Z</time>
				<extensions>
					<speed>0.0</speed>
				</extensions>
			</trkpt>
			<trkpt lat="53.26398074" lon="-8.9345685">
				<ele>62.0</ele>
				<time>2014-08-17T16:28:53Z</time>
				<extensions>
					<speed>0.0</speed>
				</extensions>
			</trkpt>
			<trkpt lat="53.26398218" lon="-8.93456366">
				<ele>61.0</ele>
				<time>2014-08-17T16:28:54Z</time>
				<extensions>
					<speed>0.0</speed>
				</extensions>
			</trkpt>
			<trkpt lat="53.26397886" lon="-8.93456562">
				<ele>61.0</ele>
				<time>2014-08-17T16:28:55Z</time>
				<extensions>
					<speed>0.0</speed>
				</extensions>
			</trkpt>
			<trkpt lat="53.2639812" lon="-8.93456564">
				<ele>61.0</ele>
				<time>2014-08-17T16:28:56Z</time>
				<extensions>
					<speed>0.0</speed>
				</extensions>
			</trkpt>
			<trkpt lat="53.26398245" lon="-8.93456731">
				<ele>61.0</ele>
				<time>2014-08-17T16:28:57Z</time>
				<extensions>
					<speed>0.0</speed>
				</extensions>
			</trkpt>
			<trkpt lat="53.26398283" lon="-8.93456679">
				<ele>60.0</ele>
				<time>2014-08-17T16:28:58Z</time>
				<extensions>
					<speed>0.0</speed>
				</extensions>
			</trkpt>
			<trkpt lat="53.26398375" lon="-8.93456897">
				<ele>60.0</ele>
				<time>2014-08-17T16:28:59Z</time>
				<extensions>
					<speed>0.0</speed>
				</extensions>
			</trkpt>
			<trkpt lat="53.26398266" lon="-8.93456971">
				<ele>60.0</ele>
				<time>2014-08-17T16:29:00Z</time>
				<extensions>
					<speed>0.0</speed>
				</extensions>
			</trkpt>
			<trkpt lat="53.26398083" lon="-8.93456981">
				<ele>60.0</ele>
				<time>2014-08-17T16:29:01Z</time>
				<extensions>
					<speed>0.0</speed>
				</extensions>
			</trkpt>
			<trkpt lat="53.26398051" lon="-8.9345695">
				<ele>60.0</ele>
				<time>2014-08-17T16:29:02Z</time>
				<extensions>
					<speed>0.0</speed>
				</extensions>
			</trkpt>
			<trkpt lat="53.26398024" lon="-8.93456619">
				<ele>60.0</ele>
				<time>2014-08-17T16:29:03Z</time>
				<extensions>
					<speed>1.75</speed>
				</extensions>
			</trkpt>
			<trkpt lat="53.26397553" lon="-8.93453699">
				<ele>60.0</ele>
				<time>2014-08-17T16:29:04Z</time>
				<extensions>
					<speed>2.75</speed>
				</extensions>
			</trkpt>
			<trkpt lat="53.2639709" lon="-8.93448525">
				<ele>60.0</ele>
				<time>2014-08-17T16:29:05Z</time>
				<extensions>
					<speed>3.75</speed>
				</extensions>
			</trkpt>
			<trkpt lat="53.26397294" lon="-8.93443492">
				<ele>60.0</ele>
				<time>2014-08-17T16:29:06Z</time>
				<extensions>
					<speed>3.25</speed>
				</extensions>
			</trkpt>
			<trkpt lat="53.2639641" lon="-8.93439644">
				<ele>60.0</ele>
				<time>2014-08-17T16:29:07Z</time>
				<extensions>
					<speed>2.25</speed>
				</extensions>
			</trkpt>
			<trkpt lat="53.26395873" lon="-8.93438114">
				<ele>60.0</ele>
				<time>2014-08-17T16:29:08Z</time>
				<extensions>
					<speed>0.75</speed>
				</extensions>
			</trkpt>
			<trkpt lat="53.26394968" lon="-8.93437812">
				<ele>61.0</ele>
				<time>2014-08-17T16:29:09Z</time>
				<extensions>
					<speed>0.5</speed>
				</extensions>
			</trkpt>
			<trkpt lat="53.26395615" lon="-8.93438024">
				<ele>61.0</ele>
				<time>2014-08-17T16:29:10Z</time>
				<extensions>
					<speed>0.5</speed>
				</extensions>
			</trkpt>
			<trkpt lat="53.26395597" lon="-8.93439816">
				<ele>60.0</ele>
				<time>2014-08-17T16:29:11Z</time>
				<extensions>
					<speed>1.75</speed>
				</extensions>
			</trkpt>
			<trkpt lat="53.26395942" lon="-8.93442543">
				<ele>61.0</ele>
				<time>2014-08-17T16:29:12Z</time>
				<extensions>
					<speed>1.75</speed>
				</extensions>
			</trkpt>
			<trkpt lat="53.26396928" lon="-8.93444756">
				<ele>61.0</ele>
				<time>2014-08-17T16:29:13Z</time>
				<extensions>
					<speed>1.5</speed>
				</extensions>
			</trkpt>
			<trkpt lat="53.26397316" lon="-8.93445768">
				<ele>61.0</ele>
				<time>2014-08-17T16:29:14Z</time>
				<extensions>
					<speed>1.0</speed>
				</extensions>
			</trkpt>
			<trkpt lat="53.2639782" lon="-8.93445976">
				<ele>61.0</ele>
				<time>2014-08-17T16:29:15Z</time>
				<extensions>
					<speed>0.0</speed>
				</extensions>
			</trkpt>
			<trkpt lat="53.26397721" lon="-8.93445932">
				<ele>62.0</ele>
				<time>2014-08-17T16:29:16Z</time>
				<extensions>
					<speed>0.0</speed>
				</extensions>
			</trkpt>
			<trkpt lat="53.26397733" lon="-8.93446076">
				<ele>61.0</ele>
				<time>2014-08-17T16:29:17Z</time>
				<extensions>
					<speed>0.0</speed>
				</extensions>
			</trkpt>
			<trkpt lat="53.26397523" lon="-8.93446334">
				<ele>62.0</ele>
				<time>2014-08-17T16:29:18Z</time>
				<extensions>
					<speed>0.0</speed>
				</extensions>
			</trkpt>
			<trkpt lat="53.26397506" lon="-8.9344655">
				<ele>62.0</ele>
				<time>2014-08-17T16:29:19Z</time>
				<extensions>
					<speed>0.0</speed>
				</extensions>
			</trkpt>
			<trkpt lat="53.26397323" lon="-8.9344676">
				<ele>62.0</ele>
				<time>2014-08-17T16:29:20Z</time>
				<extensions>
					<speed>2.0</speed>
				</extensions>
			</trkpt>
			<trkpt lat="53.26395736" lon="-8.93449119">
				<ele>62.0</ele>
				<time>2014-08-17T16:29:21Z</time>
				<extensions>
					<speed>2.25</speed>
				</extensions>
			</trkpt>
			<trkpt lat="53.26393944" lon="-8.93452357">
				<ele>62.0</ele>
				<time>2014-08-17T16:29:22Z</time>
				<extensions>
					<speed>2.5</speed>
				</extensions>
			</trkpt>
			<trkpt lat="53.26393708" lon="-8.93454701">
				<ele>62.0</ele>
				<time>2014-08-17T16:29:23Z</time>
				<extensions>
					<speed>2.5</speed>
				</extensions>
			</trkpt>
			<trkpt lat="53.26393362" lon="-8.93457647">
				<ele>63.0</ele>
				<time>2014-08-17T16:29:24Z</time>
				<extensions>
					<speed>1.75</speed>
				</extensions>
			</trkpt>
			<trkpt lat="53.26393341" lon="-8.93460323">
				<ele>62.0</ele>
				<time>2014-08-17T16:29:25Z</time>
				<extensions>
					<speed>1.75</speed>
				</extensions>
			</trkpt>
			<trkpt lat="53.26393709" lon="-8.93460626">
				<ele>63.0</ele>
				<time>2014-08-17T16:29:26Z</time>
				<extensions>
					<speed>0.25</speed>
				</extensions>
			</trkpt>
			<trkpt lat="53.26393614" lon="-8.93460866">
				<ele>63.0</ele>
				<time>2014-08-17T16:29:27Z</time>
				<extensions>
					<speed>0.0</speed>
				</extensions>
			</trkpt>
			<trkpt lat="53.26393155" lon="-8.9346053">
				<ele>63.0</ele>
				<time>2014-08-17T16:29:28Z</time>
				<extensions>
					<speed>0.0</speed>
				</extensions>
			</trkpt>
			<trkpt lat="53.26393029" lon="-8.93460585">
				<ele>64.0</ele>
				<time>2014-08-17T16:29:29Z</time>
				<extensions>
					<speed>0.0</speed>
				</extensions>
			</trkpt>
			<trkpt lat="53.26392826" lon="-8.93460593">
				<ele>64.0</ele>
				<time>2014-08-17T16:29:30Z</time>
				<extensions>
					<speed>0.0</speed>
				</extensions>
			</trkpt>
			<trkpt lat="53.26392852" lon="-8.93460654">
				<ele>64.0</ele>
				<time>2014-08-17T16:29:31Z</time>
				<extensions>
					<speed>0.0</speed>
				</extensions>
			</trkpt>
			<trkpt lat="53.26392869" lon="-8.9346075">
				<ele>64.0</ele>
				<time>2014-08-17T16:29:32Z</time>
				<extensions>
					<speed>0.0</speed>
				</extensions>
			</trkpt>
			<trkpt lat="53.26392868" lon="-8.93461171">
				<ele>65.0</ele>
				<time>2014-08-17T16:29:33Z</time>
				<extensions>
					<speed>0.0</speed>
				</extensions>
			</trkpt>
			<trkpt lat="53.26392891" lon="-8.9346114">
				<ele>65.0</ele>
				<time>2014-08-17T16:29:34Z</time>
				<extensions>
					<speed>0.25</speed>
				</extensions>
			</trkpt>
			<trkpt lat="53.26392934" lon="-8.93460218">
				<ele>64.0</ele>
				<time>2014-08-17T16:29:35Z</time>
				<extensions>
					<speed>0.0</speed>
				</extensions>
			</trkpt>
			<trkpt lat="53.26392877" lon="-8.93460159">
				<ele>64.0</ele>
				<time>2014-08-17T16:29:36Z</time>
				<extensions>
					<speed>0.0</speed>
				</extensions>
			</trkpt>
			<trkpt lat="53.2639317" lon="-8.9346002">
				<ele>64.0</ele>
				<time>2014-08-17T16:29:37Z</time>
				<extensions>
					<speed>0.0</speed>
				</extensions>
			</trkpt>
			<trkpt lat="53.26393079" lon="-8.93460051">
				<ele>64.0</ele>
				<time>2014-08-17T16:29:38Z</time>
				<extensions>
					<speed>0.75</speed>
				</extensions>
			</trkpt>
			<trkpt lat="53.26392511" lon="-8.93458626">
				<ele>64.0</ele>
				<time>2014-08-17T16:29:39Z</time>
				<extensions>
					<speed>0.0</speed>
				</extensions>
			</trkpt>
			<trkpt lat="53.26392831" lon="-8.93458677">
				<ele>64.0</ele>
				<time>2014-08-17T16:29:40Z</time>
				<extensions>
					<speed>0.0</speed>
				</extensions>
			</trkpt>
			<trkpt lat="53.26392831" lon="-8.93458677">
				<ele>64.0</ele>
				<time>2014-08-17T16:29:41Z</time>
				<extensions>
					<speed>0.0</speed>
				</extensions>
			</trkpt>
			<trkpt lat="53.26392825" lon="-8.93459137">
				<ele>64.0</ele>
				<time>2014-08-17T16:29:42Z</time>
				<extensions>
					<speed>0.0</speed>
				</extensions>
			</trkpt>
			<trkpt lat="53.26392977" lon="-8.93459204">
				<ele>64.0</ele>
				<time>2014-08-17T16:29:43Z</time>
				<extensions>
					<speed>0.0</speed>
				</extensions>
			</trkpt>
			<trkpt lat="53.26392814" lon="-8.93459298">
				<ele>63.0</ele>
				<time>2014-08-17T16:29:44Z</time>
				<extensions>
					<speed>0.0</speed>
				</extensions>
			</trkpt>
			<trkpt lat="53.26392814" lon="-8.93459298">
				<ele>63.0</ele>
				<time>2014-08-17T16:29:45Z</time>
				<extensions>
					<speed>0.0</speed>
				</extensions>
			</trkpt>
			<trkpt lat="53.263932" lon="-8.93459734">
				<ele>63.0</ele>
				<time>2014-08-17T16:29:46Z</time>
				<extensions>
					<speed>0.0</speed>
				</extensions>
			</trkpt>
			<trkpt lat="53.26393197" lon="-8.93459925">
				<ele>63.0</ele>
				<time>2014-08-17T16:29:47Z</time>
				<extensions>
					<speed>0.0</speed>
				</extensions>
			</trkpt>
			<trkpt lat="53.2639334" lon="-8.93460085">
				<ele>63.0</ele>
				<time>2014-08-17T16:29:48Z</time>
				<extensions>
					<speed>0.0</speed>
				</extensions>
			</trkpt>
			<trkpt lat="53.2639339" lon="-8.93460266">
				<ele>64.0</ele>
				<time>2014-08-17T16:29:49Z</time>
				<extensions>
					<speed>0.0</speed>
				</extensions>
			</trkpt>
			<trkpt lat="53.26393376" lon="-8.93460261">
				<ele>64.0</ele>
				<time>2014-08-17T16:29:50Z</time>
				<extensions>
					<speed>0.0</speed>
				</extensions>
			</trkpt>
			<trkpt lat="53.26393388" lon="-8.93460271">
				<ele>64.0</ele>
				<time>2014-08-17T16:29:51Z</time>
				<extensions>
					<speed>0.0</speed>
				</extensions>
			</trkpt>
			<trkpt lat="53.26393393" lon="-8.93460264">
				<ele>64.0</ele>
				<time>2014-08-17T16:29:52Z</time>
				<extensions>
					<speed>0.0</speed>
				</extensions>
			</trkpt>
			<trkpt lat="53.26393392" lon="-8.93460267">
				<ele>64.0</ele>
				<time>2014-08-17T16:29:53Z</time>
				<extensions>
					<speed>0.0</speed>
				</extensions>
			</trkpt>
			<trkpt lat="53.26393389" lon="-8.93460265">
				<ele>64.0</ele>
				<time>2014-08-17T16:29:54Z</time>
				<extensions>
					<speed>0.0</speed>
				</extensions>
			</trkpt>
			<trkpt lat="53.26393393" lon="-8.93460265">
				<ele>64.0</ele>
				<time>2014-08-17T16:29:55Z</time>
				<extensions>
					<speed>0.0</speed>
				</extensions>
			</trkpt>
			<trkpt lat="53.26393396" lon="-8.93460267">
				<ele>64.0</ele>
				<time>2014-08-17T16:29:56Z</time>
				<extensions>
					<speed>0.0</speed>
				</extensions>
			</trkpt>
			<trkpt lat="53.26393398" lon="-8.93460265">
				<ele>64.0</ele>
				<time>2014-08-17T16:29:57Z</time>
				<extensions>
					<speed>0.0</speed>
				</extensions>
			</trkpt>
			<trkpt lat="53.263934" lon="-8.93460264">
				<ele>64.0</ele>
				<time>2014-08-17T16:29:58Z</time>
				<extensions>
					<speed>0.0</speed>
				</extensions>
			</trkpt>
			<trkpt lat="53.26393402" lon="-8.93460266">
				<ele>64.0</ele>
				<time>2014-08-17T16:29:59Z</time>
				<extensions>
					<speed>0.0</speed>
				</extensions>
			</trkpt>
			<trkpt lat="53.26393403" lon="-8.93460265">
				<ele>64.0</ele>
				<time>2014-08-17T16:30:00Z</time>
				<extensions>
					<speed>0.0</speed>
				</extensions>
			</trkpt>
			<trkpt lat="53.26393402" lon="-8.93460263">
				<ele>64.0</ele>
				<time>2014-08-17T16:30:01Z</time>
				<extensions>
					<speed>0.0</speed>
				</extensions>
			</trkpt>
			<trkpt lat="53.26393402" lon="-8.93460263">
				<ele>64.0</ele>
				<time>2014-08-17T16:30:02Z</time>
				<extensions>
					<speed>0.0</speed>
				</extensions>
			</trkpt>
			<trkpt lat="53.26393406" lon="-8.93460263">
				<ele>64.0</ele>
				<time>2014-08-17T16:30:03Z</time>
				<extensions>
					<speed>0.0</speed>
				</extensions>
			</trkpt>
			<trkpt lat="53.2639343" lon="-8.93460172">
				<ele>64.0</ele>
				<time>2014-08-17T16:30:04Z</time>
				<extensions>
					<speed>0.25</speed>
				</extensions>
			</trkpt>
			<trkpt lat="53.26393503" lon="-8.93459908">
				<ele>63.0</ele>
				<time>2014-08-17T16:30:05Z</time>
				<extensions>
					<speed>0.25</speed>
				</extensions>
			</trkpt>
			<trkpt lat="53.26393549" lon="-8.93460254">
				<ele>63.0</ele>
				<time>2014-08-17T16:30:06Z</time>
				<extensions>
					<speed>0.0</speed>
				</extensions>
			</trkpt>
			<trkpt lat="53.26393701" lon="-8.93460684">
				<ele>63.0</ele>
				<time>2014-08-17T16:30:07Z</time>
				<extensions>
					<speed>0.0</speed>
				</extensions>
			</trkpt>
			<trkpt lat="53.26394129" lon="-8.93460736">
				<ele>64.0</ele>
				<time>2014-08-17T16:30:08Z</time>
				<extensions>
					<speed>0.0</speed>
				</extensions>
			</trkpt>
			<trkpt lat="53.26393746" lon="-8.93461071">
				<ele>64.0</ele>
				<time>2014-08-17T16:30:09Z</time>
				<extensions>
					<speed>0.0</speed>
				</extensions>
			</trkpt>
			<trkpt lat="53.26393605" lon="-8.93461023">
				<ele>64.0</ele>
				<time>2014-08-17T16:30:10Z</time>
				<extensions>
					<speed>0.0</speed>
				</extensions>
			</trkpt>
			<trkpt lat="53.26393605" lon="-8.93461023">
				<ele>64.0</ele>
				<time>2014-08-17T16:30:11Z</time>
				<extensions>
					<speed>0.0</speed>
				</extensions>
			</trkpt>
			<trkpt lat="53.26393605" lon="-8.93461023">
				<ele>64.0</ele>
				<time>2014-08-17T16:30:12Z</time>
				<extensions>
					<speed>0.0</speed>
				</extensions>
			</trkpt>
			<trkpt lat="53.26393709" lon="-8.93461348">
				<ele>63.0</ele>
				<time>2014-08-17T16:30:13Z</time>
				<extensions>
					<speed>0.0</speed>
				</extensions>
			</trkpt>
			<trkpt lat="53.26393969" lon="-8.93464836">
				<ele>63.0</ele>
				<time>2014-08-17T16:30:14Z</time>
				<extensions>
					<speed>4.0</speed>
				</extensions>
			</trkpt>
			<trkpt lat="53.26393003" lon="-8.93474191">
				<ele>62.0</ele>
				<time>2014-08-17T16:30:15Z</time>
				<extensions>
					<speed>4.75</speed>
				</extensions>
			</trkpt>
			<trkpt lat="53.26389741" lon="-8.93481361">
				<ele>62.0</ele>
				<time>2014-08-17T16:30:16Z</time>
				<extensions>
					<speed>6.0</speed>
				</extensions>
			</trkpt>
			<trkpt lat="53.26385147" lon="-8.93486865">
				<ele>63.0</ele>
				<time>2014-08-17T16:30:17Z</time>
				<extensions>
					<speed>6.5</speed>
				</extensions>
			</trkpt>
			<trkpt lat="53.263794" lon="-8.93491795">
				<ele>62.0</ele>
				<time>2014-08-17T16:30:18Z</time>
				<extensions>
					<speed>7.5</speed>
				</extensions>
			</trkpt>
			<trkpt lat="53.26373137" lon="-8.9349613">
				<ele>63.0</ele>
				<time>2014-08-17T16:30:19Z</time>
				<extensions>
					<speed>7.75</speed>
				</extensions>
			</trkpt>
			<trkpt lat="53.26369038" lon="-8.93501924">
				<ele>63.0</ele>
				<time>2014-08-17T16:30:20Z</time>
				<extensions>
					<speed>7.5</speed>
				</extensions>
			</trkpt>
			<trkpt lat="53.26364035" lon="-8.9350867">
				<ele>62.0</ele>
				<time>2014-08-17T16:30:21Z</time>
				<extensions>
					<speed>7.0</speed>
				</extensions>
			</trkpt>
			<trkpt lat="53.2635959" lon="-8.93515453">
				<ele>62.0</ele>
				<time>2014-08-17T16:30:22Z</time>
				<extensions>
					<speed>5.75</speed>
				</extensions>
			</trkpt>
			<trkpt lat="53.26356033" lon="-8.93520597">
				<ele>62.0</ele>
				<time>2014-08-17T16:30:23Z</time>
				<extensions>
					<speed>4.5</speed>
				</extensions>
			</trkpt>
			<trkpt lat="53.26353019" lon="-8.93523523">
				<ele>61.0</ele>
				<time>2014-08-17T16:30:24Z</time>
				<extensions>
					<speed>4.0</speed>
				</extensions>
			</trkpt>
			<trkpt lat="53.26350056" lon="-8.9352414">
				<ele>61.0</ele>
				<time>2014-08-17T16:30:25Z</time>
				<extensions>
					<speed>3.5</speed>
				</extensions>
			</trkpt>
			<trkpt lat="53.26346533" lon="-8.9352258">
				<ele>61.0</ele>
				<time>2014-08-17T16:30:26Z</time>
				<extensions>
					<speed>3.75</speed>
				</extensions>
			</trkpt>
			<trkpt lat="53.26343054" lon="-8.93519484">
				<ele>62.0</ele>
				<time>2014-08-17T16:30:27Z</time>
				<extensions>
					<speed>4.75</speed>
				</extensions>
			</trkpt>
			<trkpt lat="53.26340274" lon="-8.93513259">
				<ele>62.0</ele>
				<time>2014-08-17T16:30:28Z</time>
				<extensions>
					<speed>5.75</speed>
				</extensions>
			</trkpt>
			<trkpt lat="53.26337664" lon="-8.93504435">
				<ele>62.0</ele>
				<time>2014-08-17T16:30:29Z</time>
				<extensions>
					<speed>7.0</speed>
				</extensions>
			</trkpt>
			<trkpt lat="53.26335925" lon="-8.93494176">
				<ele>62.0</ele>
				<time>2014-08-17T16:30:30Z</time>
				<extensions>
					<speed>7.5</speed>
				</extensions>
			</trkpt>
			<trkpt lat="53.26334327" lon="-8.93484166">
				<ele>62.0</ele>
				<time>2014-08-17T16:30:31Z</time>
				<extensions>
					<speed>7.25</speed>
				</extensions>
			</trkpt>
			<trkpt lat="53.2633244" lon="-8.93474178">
				<ele>63.0</ele>
				<time>2014-08-17T16:30:32Z</time>
				<extensions>
					<speed>7.5</speed>
				</extensions>
			</trkpt>
			<trkpt lat="53.26331198" lon="-8.93464652">
				<ele>63.0</ele>
				<time>2014-08-17T16:30:33Z</time>
				<extensions>
					<speed>7.5</speed>
				</extensions>
			</trkpt>
			<trkpt lat="53.26328461" lon="-8.93454586">
				<ele>63.0</ele>
				<time>2014-08-17T16:30:34Z</time>
				<extensions>
					<speed>7.0</speed>
				</extensions>
			</trkpt>
			<trkpt lat="53.26325267" lon="-8.93445404">
				<ele>63.0</ele>
				<time>2014-08-17T16:30:35Z</time>
				<extensions>
					<speed>6.75</speed>
				</extensions>
			</trkpt>
			<trkpt lat="53.26321992" lon="-8.93437514">
				<ele>63.0</ele>
				<time>2014-08-17T16:30:36Z</time>
				<extensions>
					<speed>6.75</speed>
				</extensions>
			</trkpt>
			<trkpt lat="53.26319412" lon="-8.93429592">
				<ele>63.0</ele>
				<time>2014-08-17T16:30:37Z</time>
				<extensions>
					<speed>6.25</speed>
				</extensions>
			</trkpt>
			<trkpt lat="53.26316645" lon="-8.93421163">
				<ele>63.0</ele>
				<time>2014-08-17T16:30:38Z</time>
				<extensions>
					<speed>6.0</speed>
				</extensions>
			</trkpt>
			<trkpt lat="53.26314352" lon="-8.93414213">
				<ele>63.0</ele>
				<time>2014-08-17T16:30:39Z</time>
				<extensions>
					<speed>5.5</speed>
				</extensions>
			</trkpt>
			<trkpt lat="53.26309844" lon="-8.9340995">
				<ele>63.0</ele>
				<time>2014-08-17T16:30:40Z</time>
				<extensions>
					<speed>5.5</speed>
				</extensions>
			</trkpt>
			<trkpt lat="53.26305185" lon="-8.93406737">
				<ele>64.0</ele>
				<time>2014-08-17T16:30:41Z</time>
				<extensions>
					<speed>6.0</speed>
				</extensions>
			</trkpt>
			<trkpt lat="53.26299563" lon="-8.93401479">
				<ele>64.0</ele>
				<time>2014-08-17T16:30:42Z</time>
				<extensions>
					<speed>6.75</speed>
				</extensions>
			</trkpt>
			<trkpt lat="53.26294119" lon="-8.93397009">
				<ele>64.0</ele>
				<time>2014-08-17T16:30:43Z</time>
				<extensions>
					<speed>7.0</speed>
				</extensions>
			</trkpt>
			<trkpt lat="53.26289165" lon="-8.93391548">
				<ele>64.0</ele>
				<time>2014-08-17T16:30:44Z</time>
				<extensions>
					<speed>7.0</speed>
				</extensions>
			</trkpt>
			<trkpt lat="53.26285036" lon="-8.93384718">
				<ele>64.0</ele>
				<time>2014-08-17T16:30:45Z</time>
				<extensions>
					<speed>7.25</speed>
				</extensions>
			</trkpt>
			<trkpt lat="53.26280841" lon="-8.9337637">
				<ele>64.0</ele>
				<time>2014-08-17T16:30:46Z</time>
				<extensions>
					<speed>7.25</speed>
				</extensions>
			</trkpt>
			<trkpt lat="53.26277147" lon="-8.93368948">
				<ele>64.0</ele>
				<time>2014-08-17T16:30:47Z</time>
				<extensions>
					<speed>6.25</speed>
				</extensions>
			</trkpt>
			<trkpt lat="53.26274181" lon="-8.93364439">
				<ele>63.0</ele>
				<time>2014-08-17T16:30:48Z</time>
				<extensions>
					<speed>4.25</speed>
				</extensions>
			</trkpt>
			<trkpt lat="53.26271044" lon="-8.93363537">
				<ele>63.0</ele>
				<time>2014-08-17T16:30:49Z</time>
				<extensions>
					<speed>4.0</speed>
				</extensions>
			</trkpt>
			<trkpt lat="53.26267364" lon="-8.93362953">
				<ele>63.0</ele>
				<time>2014-08-17T16:30:50Z</time>
				<extensions>
					<speed>3.75</speed>
				</extensions>
			</trkpt>
			<trkpt lat="53.26264002" lon="-8.93361852">
				<ele>63.0</ele>
				<time>2014-08-17T16:30:51Z</time>
				<extensions>
					<speed>3.75</speed>
				</extensions>
			</trkpt>
			<trkpt lat="53.26263546" lon="-8.93359572">
				<ele>64.0</ele>
				<time>2014-08-17T16:30:52Z</time>
				<extensions>
					<speed>1.75</speed>
				</extensions>
			</trkpt>
			<trkpt lat="53.26263164" lon="-8.93358236">
				<ele>64.0</ele>
				<time>2014-08-17T16:30:53Z</time>
				<extensions>
					<speed>1.5</speed>
				</extensions>
			</trkpt>
			<trkpt lat="53.26262443" lon="-8.93356427">
				<ele>65.0</ele>
				<time>2014-08-17T16:30:54Z</time>
				<extensions>
					<speed>1.5</speed>
				</extensions>
			</trkpt>
			<trkpt lat="53.26262443" lon="-8.93357089">
				<ele>64.0</ele>
				<time>2014-08-17T16:30:55Z</time>
				<extensions>
					<speed>0.0</speed>
				</extensions>
			</trkpt>
			<trkpt lat="53.26262283" lon="-8.93356794">
				<ele>64.0</ele>
				<time>2014-08-17T16:30:56Z</time>
				<extensions>
					<speed>0.0</speed>
				</extensions>
			</trkpt>
			<trkpt lat="53.2626214" lon="-8.93356028">
				<ele>64.0</ele>
				<time>2014-08-17T16:30:57Z</time>
				<extensions>
					<speed>0.0</speed>
				</extensions>
			</trkpt>
			<trkpt lat="53.26262037" lon="-8.93355808">
				<ele>64.0</ele>
				<time>2014-08-17T16:30:58Z</time>
				<extensions>
					<speed>0.0</speed>
				</extensions>
			</trkpt>
			<trkpt lat="53.26261875" lon="-8.9335553">
				<ele>64.0</ele>
				<time>2014-08-17T16:30:59Z</time>
				<extensions>
					<speed>0.0</speed>
				</extensions>
			</trkpt>
			<trkpt lat="53.26261792" lon="-8.93355387">
				<ele>64.0</ele>
				<time>2014-08-17T16:31:00Z</time>
				<extensions>
					<speed>0.0</speed>
				</extensions>
			</trkpt>
			<trkpt lat="53.26261857" lon="-8.93355651">
				<ele>64.0</ele>
				<time>2014-08-17T16:31:01Z</time>
				<extensions>
					<speed>0.75</speed>
				</extensions>
			</trkpt>
			<trkpt lat="53.26262001" lon="-8.93356191">
				<ele>65.0</ele>
				<time>2014-08-17T16:31:02Z</time>
				<extensions>
					<speed>0.25</speed>
				</extensions>
			</trkpt>
			<trkpt lat="53.26261549" lon="-8.93356264">
				<ele>65.0</ele>
				<time>2014-08-17T16:31:03Z</time>
				<extensions>
					<speed>0.0</speed>
				</extensions>
			</trkpt>
			<trkpt lat="53.26261406" lon="-8.93356222">
				<ele>65.0</ele>
				<time>2014-08-17T16:31:04Z</time>
				<extensions>
					<speed>0.0</speed>
				</extensions>
			</trkpt>
			<trkpt lat="53.26261406" lon="-8.93356372">
				<ele>65.0</ele>
				<time>2014-08-17T16:31:05Z</time>
				<extensions>
					<speed>0.0</speed>
				</extensions>
			</trkpt>
			<trkpt lat="53.26261406" lon="-8.93356372">
				<ele>65.0</ele>
				<time>2014-08-17T16:31:06Z</time>
				<extensions>
					<speed>0.0</speed>
				</extensions>
			</trkpt>
			<trkpt lat="53.2626126" lon="-8.93356109">
				<ele>65.0</ele>
				<time>2014-08-17T16:31:07Z</time>
				<extensions>
					<speed>0.0</speed>
				</extensions>
			</trkpt>
			<trkpt lat="53.2626077" lon="-8.93355931">
				<ele>65.0</ele>
				<time>2014-08-17T16:31:08Z</time>
				<extensions>
					<speed>0.0</speed>
				</extensions>
			</trkpt>
			<trkpt lat="53.26259888" lon="-8.93355835">
				<ele>65.0</ele>
				<time>2014-08-17T16:31:09Z</time>
				<extensions>
					<speed>0.0</speed>
				</extensions>
			</trkpt>
			<trkpt lat="53.26259888" lon="-8.93355835">
				<ele>65.0</ele>
				<time>2014-08-17T16:31:10Z</time>
				<extensions>
					<speed>0.0</speed>
				</extensions>
			</trkpt>
			<trkpt lat="53.26259155" lon="-8.93355603">
				<ele>65.0</ele>
				<time>2014-08-17T16:31:11Z</time>
				<extensions>
					<speed>0.0</speed>
				</extensions>
			</trkpt>
			<trkpt lat="53.26259103" lon="-8.93355263">
				<ele>66.0</ele>
				<time>2014-08-17T16:31:12Z</time>
				<extensions>
					<speed>0.5</speed>
				</extensions>
			</trkpt>
			<trkpt lat="53.26259142" lon="-8.93355048">
				<ele>67.0</ele>
				<time>2014-08-17T16:31:13Z</time>
				<extensions>
					<speed>0.0</speed>
				</extensions>
			</trkpt>
			<trkpt lat="53.26258868" lon="-8.93353267">
				<ele>67.0</ele>
				<time>2014-08-17T16:31:14Z</time>
				<extensions>
					<speed>0.0</speed>
				</extensions>
			</trkpt>
			<trkpt lat="53.26257597" lon="-8.9335243">
				<ele>66.0</ele>
				<time>2014-08-17T16:31:15Z</time>
				<extensions>
					<speed>0.0</speed>
				</extensions>
			</trkpt>
			<trkpt lat="53.26258149" lon="-8.93352261">
				<ele>67.0</ele>
				<time>2014-08-17T16:31:16Z</time>
				<extensions>
					<speed>0.0</speed>
				</extensions>
			</trkpt>
			<trkpt lat="53.26258429" lon="-8.93351418">
				<ele>68.0</ele>
				<time>2014-08-17T16:31:17Z</time>
				<extensions>
					<speed>0.0</speed>
				</extensions>
			</trkpt>
			<trkpt lat="53.26257854" lon="-8.93350697">
				<ele>67.0</ele>
				<time>2014-08-17T16:31:18Z</time>
				<extensions>
					<speed>0.0</speed>
				</extensions>
			</trkpt>
			<trkpt lat="53.26258447" lon="-8.93350329">
				<ele>68.0</ele>
				<time>2014-08-17T16:31:19Z</time>
				<extensions>
					<speed>0.0</speed>
				</extensions>
			</trkpt>
			<trkpt lat="53.26258699" lon="-8.93350213">
				<ele>69.0</ele>
				<time>2014-08-17T16:31:20Z</time>
				<extensions>
					<speed>0.0</speed>
				</extensions>
			</trkpt>
			<trkpt lat="53.26258607" lon="-8.93349846">
				<ele>68.0</ele>
				<time>2014-08-17T16:31:21Z</time>
				<extensions>
					<speed>0.0</speed>
				</extensions>
			</trkpt>
			<trkpt lat="53.26258372" lon="-8.93349536">
				<ele>68.0</ele>
				<time>2014-08-17T16:31:22Z</time>
				<extensions>
					<speed>0.0</speed>
				</extensions>
			</trkpt>
			<trkpt lat="53.26258424" lon="-8.93349102">
				<ele>68.0</ele>
				<time>2014-08-17T16:31:23Z</time>
				<extensions>
					<speed>0.0</speed>
				</extensions>
			</trkpt>
			<trkpt lat="53.26258435" lon="-8.93348914">
				<ele>68.0</ele>
				<time>2014-08-17T16:31:24Z</time>
				<extensions>
					<speed>0.0</speed>
				</extensions>
			</trkpt>
			<trkpt lat="53.26258334" lon="-8.93348447">
				<ele>68.0</ele>
				<time>2014-08-17T16:31:25Z</time>
				<extensions>
					<speed>0.5</speed>
				</extensions>
			</trkpt>
			<trkpt lat="53.26258012" lon="-8.93345705">
				<ele>67.0</ele>
				<time>2014-08-17T16:31:26Z</time>
				<extensions>
					<speed>1.75</speed>
				</extensions>
			</trkpt>
			<trkpt lat="53.26257902" lon="-8.93341304">
				<ele>67.0</ele>
				<time>2014-08-17T16:31:27Z</time>
				<extensions>
					<speed>3.0</speed>
				</extensions>
			</trkpt>
			<trkpt lat="53.26256983" lon="-8.93335035">
				<ele>66.0</ele>
				<time>2014-08-17T16:31:28Z</time>
				<extensions>
					<speed>4.5</speed>
				</extensions>
			</trkpt>
			<trkpt lat="53.26254996" lon="-8.93329817">
				<ele>67.0</ele>
				<time>2014-08-17T16:31:29Z</time>
				<extensions>
					<speed>5.0</speed>
				</extensions>
			</trkpt>
			<trkpt lat="53.26252165" lon="-8.93323057">
				<ele>66.0</ele>
				<time>2014-08-17T16:31:30Z</time>
				<extensions>
					<speed>5.75</speed>
				</extensions>
			</trkpt>
			<trkpt lat="53.26249057" lon="-8.93315307">
				<ele>65.0</ele>
				<time>2014-08-17T16:31:31Z</time>
				<extensions>
					<speed>6.75</speed>
				</extensions>
			</trkpt>
			<trkpt lat="53.26246246" lon="-8.93307071">
				<ele>65.0</ele>
				<time>2014-08-17T16:31:32Z</time>
				<extensions>
					<speed>6.75</speed>
				</extensions>
			</trkpt>
			<trkpt lat="53.26242895" lon="-8.93298297">
				<ele>65.0</ele>
				<time>2014-08-17T16:31:33Z</time>
				<extensions>
					<speed>6.75</speed>
				</extensions>
			</trkpt>
			<trkpt lat="53.26240072" lon="-8.93290139">
				<ele>65.0</ele>
				<time>2014-08-17T16:31:34Z</time>
				<extensions>
					<speed>6.5</speed>
				</extensions>
			</trkpt>
			<trkpt lat="53.26238359" lon="-8.93283044">
				<ele>65.0</ele>
				<time>2014-08-17T16:31:35Z</time>
				<extensions>
					<speed>5.25</speed>
				</extensions>
			</trkpt>
			<trkpt lat="53.26237024" lon="-8.9327775">
				<ele>65.0</ele>
				<time>2014-08-17T16:31:36Z</time>
				<extensions>
					<speed>3.75</speed>
				</extensions>
			</trkpt>
			<trkpt lat="53.26237113" lon="-8.93272293">
				<ele>65.0</ele>
				<time>2014-08-17T16:31:37Z</time>
				<extensions>
					<speed>3.5</speed>
				</extensions>
			</trkpt>
			<trkpt lat="53.26237895" lon="-8.93267111">
				<ele>65.0</ele>
				<time>2014-08-17T16:31:38Z</time>
				<extensions>
					<speed>3.25</speed>
				</extensions>
			</trkpt>
			<trkpt lat="53.26240118" lon="-8.9326379">
				<ele>65.0</ele>
				<time>2014-08-17T16:31:39Z</time>
				<extensions>
					<speed>3.0</speed>
				</extensions>
			</trkpt>
			<trkpt lat="53.26242914" lon="-8.93260375">
				<ele>65.0</ele>
				<time>2014-08-17T16:31:40Z</time>
				<extensions>
					<speed>3.5</speed>
				</extensions>
			</trkpt>
			<trkpt lat="53.2624674" lon="-8.93255728">
				<ele>65.0</ele>
				<time>2014-08-17T16:31:41Z</time>
				<extensions>
					<speed>5.25</speed>
				</extensions>
			</trkpt>
			<trkpt lat="53.26251404" lon="-8.93249875">
				<ele>65.0</ele>
				<time>2014-08-17T16:31:42Z</time>
				<extensions>
					<speed>6.0</speed>
				</extensions>
			</trkpt>
			<trkpt lat="53.26256348" lon="-8.93244585">
				<ele>65.0</ele>
				<time>2014-08-17T16:31:43Z</time>
				<extensions>
					<speed>6.5</speed>
				</extensions>
			</trkpt>
			<trkpt lat="53.26261735" lon="-8.93237732">
				<ele>65.0</ele>
				<time>2014-08-17T16:31:44Z</time>
				<extensions>
					<speed>7.5</speed>
				</extensions>
			</trkpt>
			<trkpt lat="53.26268082" lon="-8.93230993">
				<ele>65.0</ele>
				<time>2014-08-17T16:31:45Z</time>
				<extensions>
					<speed>8.25</speed>
				</extensions>
			</trkpt>
			<trkpt lat="53.26274142" lon="-8.93224215">
				<ele>64.0</ele>
				<time>2014-08-17T16:31:46Z</time>
				<extensions>
					<speed>8.25</speed>
				</extensions>
			</trkpt>
			<trkpt lat="53.26279953" lon="-8.9321706">
				<ele>64.0</ele>
				<time>2014-08-17T16:31:47Z</time>
				<extensions>
					<speed>8.0</speed>
				</extensions>
			</trkpt>
			<trkpt lat="53.26285582" lon="-8.93210741">
				<ele>65.0</ele>
				<time>2014-08-17T16:31:48Z</time>
				<extensions>
					<speed>7.5</speed>
				</extensions>
			</trkpt>
			<trkpt lat="53.26290769" lon="-8.93203421">
				<ele>65.0</ele>
				<time>2014-08-17T16:31:49Z</time>
				<extensions>
					<speed>7.25</speed>
				</extensions>
			</trkpt>
			<trkpt lat="53.2629538" lon="-8.93196835">
				<ele>65.0</ele>
				<time>2014-08-17T16:31:50Z</time>
				<extensions>
					<speed>6.75</speed>
				</extensions>
			</trkpt>
			<trkpt lat="53.26299151" lon="-8.93190764">
				<ele>66.0</ele>
				<time>2014-08-17T16:31:51Z</time>
				<extensions>
					<speed>5.75</speed>
				</extensions>
			</trkpt>
			<trkpt lat="53.26302172" lon="-8.93185393">
				<ele>66.0</ele>
				<time>2014-08-17T16:31:52Z</time>
				<extensions>
					<speed>5.25</speed>
				</extensions>
			</trkpt>
			<trkpt lat="53.26303379" lon="-8.93179131">
				<ele>66.0</ele>
				<time>2014-08-17T16:31:53Z</time>
				<extensions>
					<speed>4.75</speed>
				</extensions>
			</trkpt>
			<trkpt lat="53.26303895" lon="-8.93173749">
				<ele>65.0</ele>
				<time>2014-08-17T16:31:54Z</time>
				<extensions>
					<speed>4.5</speed>
				</extensions>
			</trkpt>
			<trkpt lat="53.26302233" lon="-8.93168298">
				<ele>65.0</ele>
				<time>2014-08-17T16:31:55Z</time>
				<extensions>
					<speed>3.75</speed>
				</extensions>
			</trkpt>
			<trkpt lat="53.26299303" lon="-8.93163806">
				<ele>64.0</ele>
				<time>2014-08-17T16:31:56Z</time>
				<extensions>
					<speed>4.25</speed>
				</extensions>
			</trkpt>
			<trkpt lat="53.2629638" lon="-8.93159463">
				<ele>65.0</ele>
				<time>2014-08-17T16:31:57Z</time>
				<extensions>
					<speed>4.0</speed>
				</extensions>
			</trkpt>
			<trkpt lat="53.26293788" lon="-8.93155444">
				<ele>65.0</ele>
				<time>2014-08-17T16:31:58Z</time>
				<extensions>
					<speed>4.0</speed>
				</extensions>
			</trkpt>
			<trkpt lat="53.26290847" lon="-8.93150688">
				<ele>64.0</ele>
				<time>2014-08-17T16:31:59Z</time>
				<extensions>
					<speed>4.0</speed>
				</extensions>
			</trkpt>
			<trkpt lat="53.26288608" lon="-8.93146287">
				<ele>65.0</ele>
				<time>2014-08-17T16:32:00Z</time>
				<extensions>
					<speed>4.0</speed>
				</extensions>
			</trkpt>
			<trkpt lat="53.26286127" lon="-8.93143473">
				<ele>65.0</ele>
				<time>2014-08-17T16:32:01Z</time>
				<extensions>
					<speed>3.25</speed>
				</extensions>
			</trkpt>
			<trkpt lat="53.2628446" lon="-8.93139804">
				<ele>65.0</ele>
				<time>2014-08-17T16:32:02Z</time>
				<extensions>
					<speed>2.0</speed>
				</extensions>
			</trkpt>
			<trkpt lat="53.26283141" lon="-8.93137701">
				<ele>65.0</ele>
				<time>2014-08-17T16:32:03Z</time>
				<extensions>
					<speed>2.0</speed>
				</extensions>
			</trkpt>
			<trkpt lat="53.26281822" lon="-8.93135597">
				<ele>65.0</ele>
				<time>2014-08-17T16:32:04Z</time>
				<extensions>
					<speed>2.0</speed>
				</extensions>
			</trkpt>
			<trkpt lat="53.26280706" lon="-8.9313723">
				<ele>64.0</ele>
				<time>2014-08-17T16:32:05Z</time>
				<extensions>
					<speed>0.0</speed>
				</extensions>
			</trkpt>
			<trkpt lat="53.26280706" lon="-8.9313723">
				<ele>64.0</ele>
				<time>2014-08-17T16:32:06Z</time>
				<extensions>
					<speed>0.0</speed>
				</extensions>
			</trkpt>
			<trkpt lat="53.26280706" lon="-8.9313723">
				<ele>64.0</ele>
				<time>2014-08-17T16:32:07Z</time>
				<extensions>
					<speed>0.0</speed>
				</extensions>
			</trkpt>
			<trkpt lat="53.26280749" lon="-8.93137487">
				<ele>64.0</ele>
				<time>2014-08-17T16:32:08Z</time>
				<extensions>
					<speed>0.0</speed>
				</extensions>
			</trkpt>
			<trkpt lat="53.26280924" lon="-8.93137506">
				<ele>64.0</ele>
				<time>2014-08-17T16:32:09Z</time>
				<extensions>
					<speed>0.0</speed>
				</extensions>
			</trkpt>
			<trkpt lat="53.26280742" lon="-8.93138217">
				<ele>63.0</ele>
				<time>2014-08-17T16:32:10Z</time>
				<extensions>
					<speed>0.0</speed>
				</extensions>
			</trkpt>
			<trkpt lat="53.2628069" lon="-8.93137995">
				<ele>64.0</ele>
				<time>2014-08-17T16:32:11Z</time>
				<extensions>
					<speed>0.0</speed>
				</extensions>
			</trkpt>
			<trkpt lat="53.26280845" lon="-8.93138037">
				<ele>63.0</ele>
				<time>2014-08-17T16:32:12Z</time>
				<extensions>
					<speed>0.0</speed>
				</extensions>
			</trkpt>
			<trkpt lat="53.26281322" lon="-8.93138054">
				<ele>63.0</ele>
				<time>2014-08-17T16:32:13Z</time>
				<extensions>
					<speed>0.0</speed>
				</extensions>
			</trkpt>
			<trkpt lat="53.26281356" lon="-8.93138045">
				<ele>63.0</ele>
				<time>2014-08-17T16:32:14Z</time>
				<extensions>
					<speed>0.0</speed>
				</extensions>
			</trkpt>
			<trkpt lat="53.2628126" lon="-8.93137921">
				<ele>63.0</ele>
				<time>2014-08-17T16:32:15Z</time>
				<extensions>
					<speed>1.0</speed>
				</extensions>
			</trkpt>
			<trkpt lat="53.26280077" lon="-8.9313751">
				<ele>63.0</ele>
				<time>2014-08-17T16:32:16Z</time>
				<extensions>
					<speed>1.5</speed>
				</extensions>
			</trkpt>
			<trkpt lat="53.26278922" lon="-8.93135634">
				<ele>63.0</ele>
				<time>2014-08-17T16:32:17Z</time>
				<extensions>
					<speed>2.0</speed>
				</extensions>
			</trkpt>
			<trkpt lat="53.2627749" lon="-8.93134104">
				<ele>64.0</ele>
				<time>2014-08-17T16:32:18Z</time>
				<extensions>
					<speed>2.25</speed>
				</extensions>
			</trkpt>
			<trkpt lat="53.26275483" lon="-8.9313251">
				<ele>63.0</ele>
				<time>2014-08-17T16:32:19Z</time>
				<extensions>
					<speed>2.75</speed>
				</extensions>
			</trkpt>
			<trkpt lat="53.26273681" lon="-8.93129947">
				<ele>63.0</ele>
				<time>2014-08-17T16:32:20Z</time>
				<extensions>
					<speed>3.0</speed>
				</extensions>
			</trkpt>
			<trkpt lat="53.26271674" lon="-8.9312675">
				<ele>64.0</ele>
				<time>2014-08-17T16:32:21Z</time>
				<extensions>
					<speed>3.5</speed>
				</extensions>
			</trkpt>
			<trkpt lat="53.26269718" lon="-8.93121898">
				<ele>64.0</ele>
				<time>2014-08-17T16:32:22Z</time>
				<extensions>
					<speed>3.25</speed>
				</extensions>
			</trkpt>
			<trkpt lat="53.26268315" lon="-8.93117346">
				<ele>63.0</ele>
				<time>2014-08-17T16:32:23Z</time>
				<extensions>
					<speed>3.5</speed>
				</extensions>
			</trkpt>
			<trkpt lat="53.26266689" lon="-8.93114216">
				<ele>63.0</ele>
				<time>2014-08-17T16:32:24Z</time>
				<extensions>
					<speed>2.75</speed>
				</extensions>
			</trkpt>
			<trkpt lat="53.26265457" lon="-8.93111771">
				<ele>63.0</ele>
				<time>2014-08-17T16:32:25Z</time>
				<extensions>
					<speed>2.0</speed>
				</extensions>
			</trkpt>
			<trkpt lat="53.26264889" lon="-8.93110073">
				<ele>63.0</ele>
				<time>2014-08-17T16:32:26Z</time>
				<extensions>
					<speed>1.75</speed>
				</extensions>
			</trkpt>
			<trkpt lat="53.26264177" lon="-8.93107605">
				<ele>62.0</ele>
				<time>2014-08-17T16:32:27Z</time>
				<extensions>
					<speed>1.5</speed>
				</extensions>
			</trkpt>
			<trkpt lat="53.26262836" lon="-8.93105754">
				<ele>63.0</ele>
				<time>2014-08-17T16:32:28Z</time>
				<extensions>
					<speed>1.5</speed>
				</extensions>
			</trkpt>
			<trkpt lat="53.26261553" lon="-8.93104453">
				<ele>62.0</ele>
				<time>2014-08-17T16:32:29Z</time>
				<extensions>
					<speed>1.0</speed>
				</extensions>
			</trkpt>
			<trkpt lat="53.26261004" lon="-8.93103862">
				<ele>62.0</ele>
				<time>2014-08-17T16:32:30Z</time>
				<extensions>
					<speed>0.5</speed>
				</extensions>
			</trkpt>
			<trkpt lat="53.26260424" lon="-8.93103553">
				<ele>62.0</ele>
				<time>2014-08-17T16:32:31Z</time>
				<extensions>
					<speed>0.5</speed>
				</extensions>
			</trkpt>
			<trkpt lat="53.26260374" lon="-8.93102572">
				<ele>62.0</ele>
				<time>2014-08-17T16:32:32Z</time>
				<extensions>
					<speed>0.75</speed>
				</extensions>
			</trkpt>
			<trkpt lat="53.26259084" lon="-8.93101404">
				<ele>62.0</ele>
				<time>2014-08-17T16:32:33Z</time>
				<extensions>
					<speed>2.0</speed>
				</extensions>
			</trkpt>
			<trkpt lat="53.26258112" lon="-8.93099295">
				<ele>61.0</ele>
				<time>2014-08-17T16:32:34Z</time>
				<extensions>
					<speed>2.25</speed>
				</extensions>
			</trkpt>
			<trkpt lat="53.26256777" lon="-8.93096742">
				<ele>61.0</ele>
				<time>2014-08-17T16:32:35Z</time>
				<extensions>
					<speed>2.5</speed>
				</extensions>
			</trkpt>
			<trkpt lat="53.26256049" lon="-8.93093626">
				<ele>60.0</ele>
				<time>2014-08-17T16:32:36Z</time>
				<extensions>
					<speed>2.75</speed>
				</extensions>
			</trkpt>
			<trkpt lat="53.26254247" lon="-8.9308997">
				<ele>60.0</ele>
				<time>2014-08-17T16:32:37Z</time>
				<extensions>
					<speed>3.5</speed>
				</extensions>
			</trkpt>
			<trkpt lat="53.26253051" lon="-8.93085827">
				<ele>60.0</ele>
				<time>2014-08-17T16:32:38Z</time>
				<extensions>
					<speed>3.25</speed>
				</extensions>
			</trkpt>
			<trkpt lat="53.26251601" lon="-8.93081605">
				<ele>60.0</ele>
				<time>2014-08-17T16:32:39Z</time>
				<extensions>
					<speed>3.25</speed>
				</extensions>
			</trkpt>
			<trkpt lat="53.2625005" lon="-8.93077759">
				<ele>60.0</ele>
				<time>2014-08-17T16:32:40Z</time>
				<extensions>
					<speed>2.75</speed>
				</extensions>
			</trkpt>
			<trkpt lat="53.26249074" lon="-8.93075283">
				<ele>60.0</ele>
				<time>2014-08-17T16:32:41Z</time>
				<extensions>
					<speed>2.0</speed>
				</extensions>
			</trkpt>
			<trkpt lat="53.26248171" lon="-8.93073348">
				<ele>60.0</ele>
				<time>2014-08-17T16:32:42Z</time>
				<extensions>
					<speed>1.5</speed>
				</extensions>
			</trkpt>
			<trkpt lat="53.26247922" lon="-8.93071971">
				<ele>60.0</ele>
				<time>2014-08-17T16:32:43Z</time>
				<extensions>
					<speed>1.0</speed>
				</extensions>
			</trkpt>
			<trkpt lat="53.26247443" lon="-8.93070805">
				<ele>60.0</ele>
				<time>2014-08-17T16:32:44Z</time>
				<extensions>
					<speed>0.75</speed>
				</extensions>
			</trkpt>
			<trkpt lat="53.26247044" lon="-8.93069756">
				<ele>60.0</ele>
				<time>2014-08-17T16:32:45Z</time>
				<extensions>
					<speed>0.75</speed>
				</extensions>
			</trkpt>
			<trkpt lat="53.26247447" lon="-8.93068632">
				<ele>60.0</ele>
				<time>2014-08-17T16:32:46Z</time>
				<extensions>
					<speed>0.0</speed>
				</extensions>
			</trkpt>
			<trkpt lat="53.26247473" lon="-8.9306799">
				<ele>60.0</ele>
				<time>2014-08-17T16:32:47Z</time>
				<extensions>
					<speed>0.0</speed>
				</extensions>
			</trkpt>
			<trkpt lat="53.26247693" lon="-8.93068194">
				<ele>60.0</ele>
				<time>2014-08-17T16:32:48Z</time>
				<extensions>
					<speed>0.0</speed>
				</extensions>
			</trkpt>
			<trkpt lat="53.26247806" lon="-8.93068453">
				<ele>60.0</ele>
				<time>2014-08-17T16:32:49Z</time>
				<extensions>
					<speed>0.0</speed>
				</extensions>
			</trkpt>
			<trkpt lat="53.26248018" lon="-8.9306832">
				<ele>60.0</ele>
				<time>2014-08-17T16:32:50Z</time>
				<extensions>
					<speed>0.0</speed>
				</extensions>
			</trkpt>
			<trkpt lat="53.26248011" lon="-8.93068425">
				<ele>60.0</ele>
				<time>2014-08-17T16:32:51Z</time>
				<extensions>
					<speed>0.0</speed>
				</extensions>
			</trkpt>
			<trkpt lat="53.2624801" lon="-8.93068323">
				<ele>60.0</ele>
				<time>2014-08-17T16:32:52Z</time>
				<extensions>
					<speed>0.0</speed>
				</extensions>
			</trkpt>
			<trkpt lat="53.2624801" lon="-8.93068323">
				<ele>60.0</ele>
				<time>2014-08-17T16:32:53Z</time>
				<extensions>
					<speed>0.0</speed>
				</extensions>
			</trkpt>
			<trkpt lat="53.26247914" lon="-8.9306834">
				<ele>60.0</ele>
				<time>2014-08-17T16:32:54Z</time>
				<extensions>
					<speed>0.0</speed>
				</extensions>
			</trkpt>
			<trkpt lat="53.26248011" lon="-8.9306788">
				<ele>60.0</ele>
				<time>2014-08-17T16:32:55Z</time>
				<extensions>
					<speed>0.0</speed>
				</extensions>
			</trkpt>
			<trkpt lat="53.26248089" lon="-8.93067615">
				<ele>60.0</ele>
				<time>2014-08-17T16:32:56Z</time>
				<extensions>
					<speed>0.0</speed>
				</extensions>
			</trkpt>
			<trkpt lat="53.2624812" lon="-8.9306764">
				<ele>60.0</ele>
				<time>2014-08-17T16:32:57Z</time>
				<extensions>
					<speed>0.0</speed>
				</extensions>
			</trkpt>
			<trkpt lat="53.26248096" lon="-8.93067632">
				<ele>60.0</ele>
				<time>2014-08-17T16:32:58Z</time>
				<extensions>
					<speed>0.0</speed>
				</extensions>
			</trkpt>
			<trkpt lat="53.26248087" lon="-8.930676">
				<ele>60.0</ele>
				<time>2014-08-17T16:32:59Z</time>
				<extensions>
					<speed>0.0</speed>
				</extensions>
			</trkpt>
			<trkpt lat="53.26248095" lon="-8.93067617">
				<ele>60.0</ele>
				<time>2014-08-17T16:33:00Z</time>
				<extensions>
					<speed>0.0</speed>
				</extensions>
			</trkpt>
			<trkpt lat="53.26248095" lon="-8.93067617">
				<ele>60.0</ele>
				<time>2014-08-17T16:33:01Z</time>
				<extensions>
					<speed>0.0</speed>
				</extensions>
			</trkpt>
			<trkpt lat="53.26248094" lon="-8.93067614">
				<ele>60.0</ele>
				<time>2014-08-17T16:33:02Z</time>
				<extensions>
					<speed>0.0</speed>
				</extensions>
			</trkpt>
			<trkpt lat="53.2624809" lon="-8.93067617">
				<ele>60.0</ele>
				<time>2014-08-17T16:33:03Z</time>
				<extensions>
					<speed>0.0</speed>
				</extensions>
			</trkpt>
			<trkpt lat="53.2624809" lon="-8.93067617">
				<ele>60.0</ele>
				<time>2014-08-17T16:33:04Z</time>
				<extensions>
					<speed>0.0</speed>
				</extensions>
			</trkpt>
			<trkpt lat="53.2624809" lon="-8.93067617">
				<ele>60.0</ele>
				<time>2014-08-17T16:33:05Z</time>
				<extensions>
					<speed>0.0</speed>
				</extensions>
			</trkpt>
			<trkpt lat="53.26248359" lon="-8.93067575">
				<ele>60.0</ele>
				<time>2014-08-17T16:33:06Z</time>
				<extensions>
					<speed>0.0</speed>
				</extensions>
			</trkpt>
			<trkpt lat="53.26248165" lon="-8.93066942">
				<ele>60.0</ele>
				<time>2014-08-17T16:33:07Z</time>
				<extensions>
					<speed>1.5</speed>
				</extensions>
			</trkpt>
			<trkpt lat="53.26246425" lon="-8.9306459">
				<ele>59.0</ele>
				<time>2014-08-17T16:33:08Z</time>
				<extensions>
					<speed>1.25</speed>
				</extensions>
			</trkpt>
			<trkpt lat="53.26245045" lon="-8.93061351">
				<ele>59.0</ele>
				<time>2014-08-17T16:33:09Z</time>
				<extensions>
					<speed>1.75</speed>
				</extensions>
			</trkpt>
			<trkpt lat="53.26243159" lon="-8.93057125">
				<ele>59.0</ele>
				<time>2014-08-17T16:33:10Z</time>
				<extensions>
					<speed>2.5</speed>
				</extensions>
			</trkpt>
			<trkpt lat="53.26242175" lon="-8.93052984">
				<ele>59.0</ele>
				<time>2014-08-17T16:33:11Z</time>
				<extensions>
					<speed>2.5</speed>
				</extensions>
			</trkpt>
			<trkpt lat="53.26241131" lon="-8.93049603">
				<ele>59.0</ele>
				<time>2014-08-17T16:33:12Z</time>
				<extensions>
					<speed>2.5</speed>
				</extensions>
			</trkpt>
			<trkpt lat="53.26240088" lon="-8.93046223">
				<ele>59.0</ele>
				<time>2014-08-17T16:33:13Z</time>
				<extensions>
					<speed>2.5</speed>
				</extensions>
			</trkpt>
			<trkpt lat="53.26239064" lon="-8.9304113">
				<ele>57.0</ele>
				<time>2014-08-17T16:33:14Z</time>
				<extensions>
					<speed>2.75</speed>
				</extensions>
			</trkpt>
			<trkpt lat="53.2623945" lon="-8.93036986">
				<ele>57.0</ele>
				<time>2014-08-17T16:33:15Z</time>
				<extensions>
					<speed>2.5</speed>
				</extensions>
			</trkpt>
			<trkpt lat="53.26238467" lon="-8.93032925">
				<ele>58.0</ele>
				<time>2014-08-17T16:33:16Z</time>
				<extensions>
					<speed>2.5</speed>
				</extensions>
			</trkpt>
			<trkpt lat="53.26238328" lon="-8.93029527">
				<ele>58.0</ele>
				<time>2014-08-17T16:33:17Z</time>
				<extensions>
					<speed>2.5</speed>
				</extensions>
			</trkpt>
			<trkpt lat="53.26237507" lon="-8.93026742">
				<ele>58.0</ele>
				<time>2014-08-17T16:33:18Z</time>
				<extensions>
					<speed>2.25</speed>
				</extensions>
			</trkpt>
			<trkpt lat="53.26236705" lon="-8.93024384">
				<ele>58.0</ele>
				<time>2014-08-17T16:33:19Z</time>
				<extensions>
					<speed>1.5</speed>
				</extensions>
			</trkpt>
			<trkpt lat="53.26233943" lon="-8.93022019">
				<ele>59.0</ele>
				<time>2014-08-17T16:33:20Z</time>
				<extensions>
					<speed>0.75</speed>
				</extensions>
			</trkpt>
			<trkpt lat="53.26234623" lon="-8.93021049">
				<ele>58.0</ele>
				<time>2014-08-17T16:33:21Z</time>
				<extensions>
					<speed>1.0</speed>
				</extensions>
			</trkpt>
			<trkpt lat="53.2623519" lon="-8.93020264">
				<ele>57.0</ele>
				<time>2014-08-17T16:33:22Z</time>
				<extensions>
					<speed>1.75</speed>
				</extensions>
			</trkpt>
			<trkpt lat="53.26235777" lon="-8.93017748">
				<ele>56.0</ele>
				<time>2014-08-17T16:33:23Z</time>
				<extensions>
					<speed>1.75</speed>
				</extensions>
			</trkpt>
			<trkpt lat="53.2623659" lon="-8.93015716">
				<ele>55.0</ele>
				<time>2014-08-17T16:33:24Z</time>
				<extensions>
					<speed>1.75</speed>
				</extensions>
			</trkpt>
			<trkpt lat="53.26237024" lon="-8.93014037">
				<ele>56.0</ele>
				<time>2014-08-17T16:33:25Z</time>
				<extensions>
					<speed>1.5</speed>
				</extensions>
			</trkpt>
			<trkpt lat="53.26237749" lon="-8.93011992">
				<ele>57.0</ele>
				<time>2014-08-17T16:33:26Z</time>
				<extensions>
					<speed>1.25</speed>
				</extensions>
			</trkpt>
			<trkpt lat="53.26238533" lon="-8.93011687">
				<ele>58.0</ele>
				<time>2014-08-17T16:33:27Z</time>
				<extensions>
					<speed>1.0</speed>
				</extensions>
			</trkpt>
			<trkpt lat="53.2623872" lon="-8.93011559">
				<ele>58.0</ele>
				<time>2014-08-17T16:33:28Z</time>
				<extensions>
					<speed>0.0</speed>
				</extensions>
			</trkpt>
			<trkpt lat="53.26238626" lon="-8.93011681">
				<ele>58.0</ele>
				<time>2014-08-17T16:33:29Z</time>
				<extensions>
					<speed>0.0</speed>
				</extensions>
			</trkpt>
			<trkpt lat="53.26238358" lon="-8.93011553">
				<ele>58.0</ele>
				<time>2014-08-17T16:33:30Z</time>
				<extensions>
					<speed>0.0</speed>
				</extensions>
			</trkpt>
			<trkpt lat="53.26238245" lon="-8.93011645">
				<ele>59.0</ele>
				<time>2014-08-17T16:33:31Z</time>
				<extensions>
					<speed>0.0</speed>
				</extensions>
			</trkpt>
			<trkpt lat="53.26238122" lon="-8.93011761">
				<ele>58.0</ele>
				<time>2014-08-17T16:33:32Z</time>
				<extensions>
					<speed>0.75</speed>
				</extensions>
			</trkpt>
			<trkpt lat="53.26237416" lon="-8.93012884">
				<ele>59.0</ele>
				<time>2014-08-17T16:33:33Z</time>
				<extensions>
					<speed>0.75</speed>
				</extensions>
			</trkpt>
			<trkpt lat="53.26237242" lon="-8.93013268">
				<ele>61.0</ele>
				<time>2014-08-17T16:33:34Z</time>
				<extensions>
					<speed>0.5</speed>
				</extensions>
			</trkpt>
			<trkpt lat="53.26236125" lon="-8.93012938">
				<ele>62.0</ele>
				<time>2014-08-17T16:33:35Z</time>
				<extensions>
					<speed>0.5</speed>
				</extensions>
			</trkpt>
			<trkpt lat="53.26235397" lon="-8.93013445">
				<ele>63.0</ele>
				<time>2014-08-17T16:33:36Z</time>
				<extensions>
					<speed>0.75</speed>
				</extensions>
			</trkpt>
			<trkpt lat="53.26235145" lon="-8.93014571">
				<ele>62.0</ele>
				<time>2014-08-17T16:33:37Z</time>
				<extensions>
					<speed>0.75</speed>
				</extensions>
			</trkpt>
			<trkpt lat="53.26234556" lon="-8.93015575">
				<ele>62.0</ele>
				<time>2014-08-17T16:33:38Z</time>
				<extensions>
					<speed>0.75</speed>
				</extensions>
			</trkpt>
			<trkpt lat="53.26234208" lon="-8.93016159">
				<ele>62.0</ele>
				<time>2014-08-17T16:33:39Z</time>
				<extensions>
					<speed>0.5</speed>
				</extensions>
			</trkpt>
			<trkpt lat="53.26234519" lon="-8.930162">
				<ele>62.0</ele>
				<time>2014-08-17T16:33:40Z</time>
				<extensions>
					<speed>0.0</speed>
				</extensions>
			</trkpt>
			<trkpt lat="53.26234862" lon="-8.9301613">
				<ele>62.0</ele>
				<time>2014-08-17T16:33:41Z</time>
				<extensions>
					<speed>0.0</speed>
				</extensions>
			</trkpt>
			<trkpt lat="53.26235143" lon="-8.93016043">
				<ele>62.0</ele>
				<time>2014-08-17T16:33:42Z</time>
				<extensions>
					<speed>0.0</speed>
				</extensions>
			</trkpt>
			<trkpt lat="53.26234844" lon="-8.93015967">
				<ele>62.0</ele>
				<time>2014-08-17T16:33:43Z</time>
				<extensions>
					<speed>0.0</speed>
				</extensions>
			</trkpt>
			<trkpt lat="53.26235085" lon="-8.93016167">
				<ele>62.0</ele>
				<time>2014-08-17T16:33:44Z</time>
				<extensions>
					<speed>0.0</speed>
				</extensions>
			</trkpt>
			<trkpt lat="53.26235141" lon="-8.93016298">
				<ele>62.0</ele>
				<time>2014-08-17T16:33:45Z</time>
				<extensions>
					<speed>0.0</speed>
				</extensions>
			</trkpt>
			<trkpt lat="53.26235041" lon="-8.93016258">
				<ele>62.0</ele>
				<time>2014-08-17T16:33:46Z</time>
				<extensions>
					<speed>0.0</speed>
				</extensions>
			</trkpt>
			<trkpt lat="53.26234852" lon="-8.93015894">
				<ele>61.0</ele>
				<time>2014-08-17T16:33:47Z</time>
				<extensions>
					<speed>0.0</speed>
				</extensions>
			</trkpt>
			<trkpt lat="53.26234991" lon="-8.93016154">
				<ele>62.0</ele>
				<time>2014-08-17T16:33:48Z</time>
				<extensions>
					<speed>0.0</speed>
				</extensions>
			</trkpt>
			<trkpt lat="53.26234872" lon="-8.9301631">
				<ele>62.0</ele>
				<time>2014-08-17T16:33:49Z</time>
				<extensions>
					<speed>0.0</speed>
				</extensions>
			</trkpt>
			<trkpt lat="53.26234917" lon="-8.93016284">
				<ele>62.0</ele>
				<time>2014-08-17T16:33:50Z</time>
				<extensions>
					<speed>0.0</speed>
				</extensions>
			</trkpt>
			<trkpt lat="53.26234943" lon="-8.930163">
				<ele>62.0</ele>
				<time>2014-08-17T16:33:51Z</time>
				<extensions>
					<speed>0.0</speed>
				</extensions>
			</trkpt>
			<trkpt lat="53.26234959" lon="-8.93016314">
				<ele>62.0</ele>
				<time>2014-08-17T16:33:52Z</time>
				<extensions>
					<speed>0.0</speed>
				</extensions>
			</trkpt>
			<trkpt lat="53.26234957" lon="-8.93016303">
				<ele>62.0</ele>
				<time>2014-08-17T16:33:53Z</time>
				<extensions>
					<speed>0.0</speed>
				</extensions>
			</trkpt>
			<trkpt lat="53.26234955" lon="-8.93016302">
				<ele>62.0</ele>
				<time>2014-08-17T16:33:54Z</time>
				<extensions>
					<speed>0.0</speed>
				</extensions>
			</trkpt>
			<trkpt lat="53.26234954" lon="-8.93016305">
				<ele>62.0</ele>
				<time>2014-08-17T16:33:55Z</time>
				<extensions>
					<speed>0.0</speed>
				</extensions>
			</trkpt>
			<trkpt lat="53.26234956" lon="-8.93016306">
				<ele>62.0</ele>
				<time>2014-08-17T16:33:56Z</time>
				<extensions>
					<speed>0.0</speed>
				</extensions>
			</trkpt>
			<trkpt lat="53.26234958" lon="-8.93016309">
				<ele>62.0</ele>
				<time>2014-08-17T16:33:57Z</time>
				<extensions>
					<speed>0.0</speed>
				</extensions>
			</trkpt>
			<trkpt lat="53.26235106" lon="-8.93016625">
				<ele>62.0</ele>
				<time>2014-08-17T16:33:58Z</time>
				<extensions>
					<speed>1.5</speed>
				</extensions>
			</trkpt>
			<trkpt lat="53.26236551" lon="-8.93020145">
				<ele>62.0</ele>
				<time>2014-08-17T16:33:59Z</time>
				<extensions>
					<speed>3.25</speed>
				</extensions>
			</trkpt>
			<trkpt lat="53.26238776" lon="-8.9302621">
				<ele>63.0</ele>
				<time>2014-08-17T16:34:00Z</time>
				<extensions>
					<speed>4.25</speed>
				</extensions>
			</trkpt>
			<trkpt lat="53.26240228" lon="-8.93032675">
				<ele>63.0</ele>
				<time>2014-08-17T16:34:01Z</time>
				<extensions>
					<speed>4.25</speed>
				</extensions>
			</trkpt>
			<trkpt lat="53.26241566" lon="-8.93038417">
				<ele>63.0</ele>
				<time>2014-08-17T16:34:02Z</time>
				<extensions>
					<speed>4.25</speed>
				</extensions>
			</trkpt>
			<trkpt lat="53.26242697" lon="-8.93044279">
				<ele>63.0</ele>
				<time>2014-08-17T16:34:03Z</time>
				<extensions>
					<speed>3.75</speed>
				</extensions>
			</trkpt>
			<trkpt lat="53.2624376" lon="-8.93049585">
				<ele>63.0</ele>
				<time>2014-08-17T16:34:04Z</time>
				<extensions>
					<speed>3.75</speed>
				</extensions>
			</trkpt>
			<trkpt lat="53.26244823" lon="-8.9305489">
				<ele>63.0</ele>
				<time>2014-08-17T16:34:05Z</time>
				<extensions>
					<speed>3.75</speed>
				</extensions>
			</trkpt>
			<trkpt lat="53.26245447" lon="-8.93058301">
				<ele>66.0</ele>
				<time>2014-08-17T16:34:06Z</time>
				<extensions>
					<speed>3.25</speed>
				</extensions>
			</trkpt>
			<trkpt lat="53.26247896" lon="-8.93062503">
				<ele>64.0</ele>
				<time>2014-08-17T16:34:07Z</time>
				<extensions>
					<speed>3.25</speed>
				</extensions>
			</trkpt>
			<trkpt lat="53.2624907" lon="-8.93065602">
				<ele>65.0</ele>
				<time>2014-08-17T16:34:08Z</time>
				<extensions>
					<speed>2.5</speed>
				</extensions>
			</trkpt>
			<trkpt lat="53.26250322" lon="-8.93068859">
				<ele>65.0</ele>
				<time>2014-08-17T16:34:09Z</time>
				<extensions>
					<speed>2.0</speed>
				</extensions>
			</trkpt>
			<trkpt lat="53.26251464" lon="-8.93071359">
				<ele>64.0</ele>
				<time>2014-08-17T16:34:10Z</time>
				<extensions>
					<speed>1.5</speed>
				</extensions>
			</trkpt>
			<trkpt lat="53.26251907" lon="-8.93073031">
				<ele>64.0</ele>
				<time>2014-08-17T16:34:11Z</time>
				<extensions>
					<speed>1.25</speed>
				</extensions>
			</trkpt>
			<trkpt lat="53.26253183" lon="-8.93074571">
				<ele>65.0</ele>
				<time>2014-08-17T16:34:12Z</time>
				<extensions>
					<speed>0.0</speed>
				</extensions>
			</trkpt>
			<trkpt lat="53.26253083" lon="-8.9307495">
				<ele>65.0</ele>
				<time>2014-08-17T16:34:13Z</time>
				<extensions>
					<speed>0.0</speed>
				</extensions>
			</trkpt>
			<trkpt lat="53.26253122" lon="-8.93075064">
				<ele>65.0</ele>
				<time>2014-08-17T16:34:14Z</time>
				<extensions>
					<speed>0.75</speed>
				</extensions>
			</trkpt>
			<trkpt lat="53.26253699" lon="-8.9307727">
				<ele>65.0</ele>
				<time>2014-08-17T16:34:15Z</time>
				<extensions>
					<speed>2.0</speed>
				</extensions>
			</trkpt>
			<trkpt lat="53.26253615" lon="-8.93080936">
				<ele>64.0</ele>
				<time>2014-08-17T16:34:16Z</time>
				<extensions>
					<speed>2.75</speed>
				</extensions>
			</trkpt>
			<trkpt lat="53.26254909" lon="-8.93085054">
				<ele>64.0</ele>
				<time>2014-08-17T16:34:17Z</time>
				<extensions>
					<speed>3.0</speed>
				</extensions>
			</trkpt>
			<trkpt lat="53.26256323" lon="-8.93088785">
				<ele>64.0</ele>
				<time>2014-08-17T16:34:18Z</time>
				<extensions>
					<speed>2.75</speed>
				</extensions>
			</trkpt>
			<trkpt lat="53.26257934" lon="-8.93091165">
				<ele>64.0</ele>
				<time>2014-08-17T16:34:19Z</time>
				<extensions>
					<speed>2.5</speed>
				</extensions>
			</trkpt>
			<trkpt lat="53.26260017" lon="-8.9309444">
				<ele>65.0</ele>
				<time>2014-08-17T16:34:20Z</time>
				<extensions>
					<speed>2.75</speed>
				</extensions>
			</trkpt>
			<trkpt lat="53.26261672" lon="-8.93096656">
				<ele>64.0</ele>
				<time>2014-08-17T16:34:21Z</time>
				<extensions>
					<speed>2.25</speed>
				</extensions>
			</trkpt>
			<trkpt lat="53.26262669" lon="-8.93099473">
				<ele>65.0</ele>
				<time>2014-08-17T16:34:22Z</time>
				<extensions>
					<speed>1.75</speed>
				</extensions>
			</trkpt>
			<trkpt lat="53.26263563" lon="-8.9310141">
				<ele>64.0</ele>
				<time>2014-08-17T16:34:23Z</time>
				<extensions>
					<speed>1.75</speed>
				</extensions>
			</trkpt>
			<trkpt lat="53.26265453" lon="-8.9310379">
				<ele>65.0</ele>
				<time>2014-08-17T16:34:24Z</time>
				<extensions>
					<speed>2.75</speed>
				</extensions>
			</trkpt>
			<trkpt lat="53.26267083" lon="-8.93108372">
				<ele>65.0</ele>
				<time>2014-08-17T16:34:25Z</time>
				<extensions>
					<speed>3.75</speed>
				</extensions>
			</trkpt>
			<trkpt lat="53.26269289" lon="-8.93112438">
				<ele>65.0</ele>
				<time>2014-08-17T16:34:26Z</time>
				<extensions>
					<speed>3.75</speed>
				</extensions>
			</trkpt>
			<trkpt lat="53.26271579" lon="-8.93116263">
				<ele>65.0</ele>
				<time>2014-08-17T16:34:27Z</time>
				<extensions>
					<speed>3.25</speed>
				</extensions>
			</trkpt>
			<trkpt lat="53.26272785" lon="-8.93120143">
				<ele>65.0</ele>
				<time>2014-08-17T16:34:28Z</time>
				<extensions>
					<speed>3.25</speed>
				</extensions>
			</trkpt>
			<trkpt lat="53.26274657" lon="-8.93124186">
				<ele>65.0</ele>
				<time>2014-08-17T16:34:29Z</time>
				<extensions>
					<speed>3.0</speed>
				</extensions>
			</trkpt>
			<trkpt lat="53.26276213" lon="-8.93127914">
				<ele>65.0</ele>
				<time>2014-08-17T16:34:30Z</time>
				<extensions>
					<speed>2.75</speed>
				</extensions>
			</trkpt>
			<trkpt lat="53.26277321" lon="-8.93130286">
				<ele>64.0</ele>
				<time>2014-08-17T16:34:31Z</time>
				<extensions>
					<speed>2.5</speed>
				</extensions>
			</trkpt>
			<trkpt lat="53.26279169" lon="-8.93133335">
				<ele>64.0</ele>
				<time>2014-08-17T16:34:32Z</time>
				<extensions>
					<speed>2.25</speed>
				</extensions>
			</trkpt>
			<trkpt lat="53.26280487" lon="-8.9313567">
				<ele>64.0</ele>
				<time>2014-08-17T16:34:33Z</time>
				<extensions>
					<speed>2.0</speed>
				</extensions>
			</trkpt>
			<trkpt lat="53.26282233" lon="-8.93137861">
				<ele>64.0</ele>
				<time>2014-08-17T16:34:34Z</time>
				<extensions>
					<speed>1.75</speed>
				</extensions>
			</trkpt>
			<trkpt lat="53.26283114" lon="-8.9313949">
				<ele>64.0</ele>
				<time>2014-08-17T16:34:35Z</time>
				<extensions>
					<speed>1.25</speed>
				</extensions>
			</trkpt>
			<trkpt lat="53.26282802" lon="-8.93140946">
				<ele>63.0</ele>
				<time>2014-08-17T16:34:36Z</time>
				<extensions>
					<speed>1.25</speed>
				</extensions>
			</trkpt>
			<trkpt lat="53.26283356" lon="-8.93142836">
				<ele>63.0</ele>
				<time>2014-08-17T16:34:37Z</time>
				<extensions>
					<speed>1.25</speed>
				</extensions>
			</trkpt>
			<trkpt lat="53.26284265" lon="-8.93145054">
				<ele>63.0</ele>
				<time>2014-08-17T16:34:38Z</time>
				<extensions>
					<speed>2.0</speed>
				</extensions>
			</trkpt>
			<trkpt lat="53.26285608" lon="-8.93148315">
				<ele>62.0</ele>
				<time>2014-08-17T16:34:39Z</time>
				<extensions>
					<speed>2.75</speed>
				</extensions>
			</trkpt>
			<trkpt lat="53.26287483" lon="-8.93151322">
				<ele>62.0</ele>
				<time>2014-08-17T16:34:40Z</time>
				<extensions>
					<speed>3.25</speed>
				</extensions>
			</trkpt>
			<trkpt lat="53.26289162" lon="-8.9315487">
				<ele>62.0</ele>
				<time>2014-08-17T16:34:41Z</time>
				<extensions>
					<speed>3.25</speed>
				</extensions>
			</trkpt>
			<trkpt lat="53.26291135" lon="-8.93158065">
				<ele>61.0</ele>
				<time>2014-08-17T16:34:42Z</time>
				<extensions>
					<speed>3.25</speed>
				</extensions>
			</trkpt>
			<trkpt lat="53.26292792" lon="-8.93161763">
				<ele>60.0</ele>
				<time>2014-08-17T16:34:43Z</time>
				<extensions>
					<speed>3.0</speed>
				</extensions>
			</trkpt>
			<trkpt lat="53.26294292" lon="-8.93165129">
				<ele>60.0</ele>
				<time>2014-08-17T16:34:44Z</time>
				<extensions>
					<speed>2.75</speed>
				</extensions>
			</trkpt>
			<trkpt lat="53.26296464" lon="-8.93167405">
				<ele>60.0</ele>
				<time>2014-08-17T16:34:45Z</time>
				<extensions>
					<speed>2.5</speed>
				</extensions>
			</trkpt>
			<trkpt lat="53.26298036" lon="-8.93169275">
				<ele>60.0</ele>
				<time>2014-08-17T16:34:46Z</time>
				<extensions>
					<speed>2.0</speed>
				</extensions>
			</trkpt>
			<trkpt lat="53.26299289" lon="-8.93170687">
				<ele>60.0</ele>
				<time>2014-08-17T16:34:47Z</time>
				<extensions>
					<speed>1.5</speed>
				</extensions>
			</trkpt>
			<trkpt lat="53.26300461" lon="-8.93173095">
				<ele>60.0</ele>
				<time>2014-08-17T16:34:48Z</time>
				<extensions>
					<speed>1.75</speed>
				</extensions>
			</trkpt>
			<trkpt lat="53.26301178" lon="-8.93174466">
				<ele>60.0</ele>
				<time>2014-08-17T16:34:49Z</time>
				<extensions>
					<speed>1.0</speed>
				</extensions>
			</trkpt>
			<trkpt lat="53.26301289" lon="-8.93175785">
				<ele>60.0</ele>
				<time>2014-08-17T16:34:50Z</time>
				<extensions>
					<speed>0.75</speed>
				</extensions>
			</trkpt>
			<trkpt lat="53.26301926" lon="-8.931768">
				<ele>60.0</ele>
				<time>2014-08-17T16:34:51Z</time>
				<extensions>
					<speed>0.5</speed>
				</extensions>
			</trkpt>
			<trkpt lat="53.26302242" lon="-8.93176947">
				<ele>61.0</ele>
				<time>2014-08-17T16:34:52Z</time>
				<extensions>
					<speed>0.0</speed>
				</extensions>
			</trkpt>
			<trkpt lat="53.2630242" lon="-8.93177083">
				<ele>61.0</ele>
				<time>2014-08-17T16:34:53Z</time>
				<extensions>
					<speed>0.0</speed>
				</extensions>
			</trkpt>
			<trkpt lat="53.26302936" lon="-8.93177883">
				<ele>61.0</ele>
				<time>2014-08-17T16:34:54Z</time>
				<extensions>
					<speed>0.0</speed>
				</extensions>
			</trkpt>
			<trkpt lat="53.26302663" lon="-8.93177983">
				<ele>61.0</ele>
				<time>2014-08-17T16:34:55Z</time>
				<extensions>
					<speed>0.0</speed>
				</extensions>
			</trkpt>
			<trkpt lat="53.26302894" lon="-8.93177693">
				<ele>61.0</ele>
				<time>2014-08-17T16:34:56Z</time>
				<extensions>
					<speed>0.0</speed>
				</extensions>
			</trkpt>
			<trkpt lat="53.26302894" lon="-8.93177693">
				<ele>61.0</ele>
				<time>2014-08-17T16:34:57Z</time>
				<extensions>
					<speed>0.0</speed>
				</extensions>
			</trkpt>
			<trkpt lat="53.26303179" lon="-8.93176558">
				<ele>60.0</ele>
				<time>2014-08-17T16:34:58Z</time>
				<extensions>
					<speed>0.0</speed>
				</extensions>
			</trkpt>
			<trkpt lat="53.2630327" lon="-8.93176478">
				<ele>60.0</ele>
				<time>2014-08-17T16:34:59Z</time>
				<extensions>
					<speed>0.0</speed>
				</extensions>
			</trkpt>
			<trkpt lat="53.26302945" lon="-8.93176833">
				<ele>60.0</ele>
				<time>2014-08-17T16:35:00Z</time>
				<extensions>
					<speed>0.0</speed>
				</extensions>
			</trkpt>
			<trkpt lat="53.2630297" lon="-8.93176844">
				<ele>60.0</ele>
				<time>2014-08-17T16:35:01Z</time>
				<extensions>
					<speed>0.0</speed>
				</extensions>
			</trkpt>
			<trkpt lat="53.26303179" lon="-8.93176305">
				<ele>60.0</ele>
				<time>2014-08-17T16:35:02Z</time>
				<extensions>
					<speed>0.0</speed>
				</extensions>
			</trkpt>
			<trkpt lat="53.26303254" lon="-8.93176351">
				<ele>60.0</ele>
				<time>2014-08-17T16:35:03Z</time>
				<extensions>
					<speed>0.0</speed>
				</extensions>
			</trkpt>
			<trkpt lat="53.26303321" lon="-8.93176323">
				<ele>60.0</ele>
				<time>2014-08-17T16:35:04Z</time>
				<extensions>
					<speed>0.0</speed>
				</extensions>
			</trkpt>
			<trkpt lat="53.26303305" lon="-8.93176311">
				<ele>60.0</ele>
				<time>2014-08-17T16:35:05Z</time>
				<extensions>
					<speed>0.0</speed>
				</extensions>
			</trkpt>
			<trkpt lat="53.26303307" lon="-8.93176319">
				<ele>60.0</ele>
				<time>2014-08-17T16:35:06Z</time>
				<extensions>
					<speed>0.0</speed>
				</extensions>
			</trkpt>
			<trkpt lat="53.26303537" lon="-8.93176587">
				<ele>60.0</ele>
				<time>2014-08-17T16:35:07Z</time>
				<extensions>
					<speed>2.5</speed>
				</extensions>
			</trkpt>
			<trkpt lat="53.26306215" lon="-8.93177611">
				<ele>60.0</ele>
				<time>2014-08-17T16:35:08Z</time>
				<extensions>
					<speed>3.5</speed>
				</extensions>
			</trkpt>
			<trkpt lat="53.26309815" lon="-8.9317701">
				<ele>60.0</ele>
				<time>2014-08-17T16:35:09Z</time>
				<extensions>
					<speed>4.75</speed>
				</extensions>
			</trkpt>
			<trkpt lat="53.26313145" lon="-8.93173718">
				<ele>60.0</ele>
				<time>2014-08-17T16:35:10Z</time>
				<extensions>
					<speed>4.5</speed>
				</extensions>
			</trkpt>
			<trkpt lat="53.26316589" lon="-8.93169292">
				<ele>60.0</ele>
				<time>2014-08-17T16:35:11Z</time>
				<extensions>
					<speed>5.0</speed>
				</extensions>
			</trkpt>
			<trkpt lat="53.26320783" lon="-8.93164008">
				<ele>60.0</ele>
				<time>2014-08-17T16:35:12Z</time>
				<extensions>
					<speed>5.75</speed>
				</extensions>
			</trkpt>
			<trkpt lat="53.26324825" lon="-8.93158239">
				<ele>61.0</ele>
				<time>2014-08-17T16:35:13Z</time>
				<extensions>
					<speed>6.0</speed>
				</extensions>
			</trkpt>
			<trkpt lat="53.26328926" lon="-8.93152808">
				<ele>61.0</ele>
				<time>2014-08-17T16:35:14Z</time>
				<extensions>
					<speed>6.25</speed>
				</extensions>
			</trkpt>
			<trkpt lat="53.26332793" lon="-8.93147477">
				<ele>61.0</ele>
				<time>2014-08-17T16:35:15Z</time>
				<extensions>
					<speed>5.75</speed>
				</extensions>
			</trkpt>
			<trkpt lat="53.2633696" lon="-8.93141955">
				<ele>62.0</ele>
				<time>2014-08-17T16:35:16Z</time>
				<extensions>
					<speed>5.75</speed>
				</extensions>
			</trkpt>
			<trkpt lat="53.2634088" lon="-8.93137716">
				<ele>62.0</ele>
				<time>2014-08-17T16:35:17Z</time>
				<extensions>
					<speed>5.5</speed>
				</extensions>
			</trkpt>
			<trkpt lat="53.26344439" lon="-8.93132809">
				<ele>62.0</ele>
				<time>2014-08-17T16:35:18Z</time>
				<extensions>
					<speed>5.5</speed>
				</extensions>
			</trkpt>
			<trkpt lat="53.26348419" lon="-8.93127276">
				<ele>62.0</ele>
				<time>2014-08-17T16:35:19Z</time>
				<extensions>
					<speed>5.25</speed>
				</extensions>
			</trkpt>
			<trkpt lat="53.26353139" lon="-8.93122122">
				<ele>63.0</ele>
				<time>2014-08-17T16:35:20Z</time>
				<extensions>
					<speed>5.5</speed>
				</extensions>
			</trkpt>
			<trkpt lat="53.26357851" lon="-8.93115779">
				<ele>63.0</ele>
				<time>2014-08-17T16:35:21Z</time>
				<extensions>
					<speed>6.5</speed>
				</extensions>
			</trkpt>
			<trkpt lat="53.26361976" lon="-8.93109567">
				<ele>63.0</ele>
				<time>2014-08-17T16:35:22Z</time>
				<extensions>
					<speed>6.75</speed>
				</extensions>
			</trkpt>
			<trkpt lat="53.26366686" lon="-8.93102315">
				<ele>63.0</ele>
				<time>2014-08-17T16:35:23Z</time>
				<extensions>
					<speed>7.5</speed>
				</extensions>
			</trkpt>
			<trkpt lat="53.26371444" lon="-8.93094618">
				<ele>63.0</ele>
				<time>2014-08-17T16:35:24Z</time>
				<extensions>
					<speed>7.25</speed>
				</extensions>
			</trkpt>
			<trkpt lat="53.26376356" lon="-8.93086764">
				<ele>63.0</ele>
				<time>2014-08-17T16:35:25Z</time>
				<extensions>
					<speed>7.75</speed>
				</extensions>
			</trkpt>
			<trkpt lat="53.26381799" lon="-8.93079195">
				<ele>63.0</ele>
				<time>2014-08-17T16:35:26Z</time>
				<extensions>
					<speed>8.0</speed>
				</extensions>
			</trkpt>
			<trkpt lat="53.26386974" lon="-8.93072183">
				<ele>63.0</ele>
				<time>2014-08-17T16:35:27Z</time>
				<extensions>
					<speed>8.0</speed>
				</extensions>
			</trkpt>
			<trkpt lat="53.26393215" lon="-8.93064024">
				<ele>64.0</ele>
				<time>2014-08-17T16:35:28Z</time>
				<extensions>
					<speed>8.25</speed>
				</extensions>
			</trkpt>
			<trkpt lat="53.26399714" lon="-8.93055439">
				<ele>65.0</ele>
				<time>2014-08-17T16:35:29Z</time>
				<extensions>
					<speed>8.25</speed>
				</extensions>
			</trkpt>
			<trkpt lat="53.26404896" lon="-8.9304819">
				<ele>66.0</ele>
				<time>2014-08-17T16:35:30Z</time>
				<extensions>
					<speed>7.25</speed>
				</extensions>
			</trkpt>
			<trkpt lat="53.26408087" lon="-8.93040393">
				<ele>66.0</ele>
				<time>2014-08-17T16:35:31Z</time>
				<extensions>
					<speed>6.25</speed>
				</extensions>
			</trkpt>
			<trkpt lat="53.26408715" lon="-8.93032507">
				<ele>65.0</ele>
				<time>2014-08-17T16:35:32Z</time>
				<extensions>
					<speed>6.0</speed>
				</extensions>
			</trkpt>
			<trkpt lat="53.26408403" lon="-8.93024985">
				<ele>67.0</ele>
				<time>2014-08-17T16:35:33Z</time>
				<extensions>
					<speed>5.25</speed>
				</extensions>
			</trkpt>
			<trkpt lat="53.26406533" lon="-8.93018879">
				<ele>68.0</ele>
				<time>2014-08-17T16:35:34Z</time>
				<extensions>
					<speed>4.75</speed>
				</extensions>
			</trkpt>
			<trkpt lat="53.26402423" lon="-8.93014885">
				<ele>66.0</ele>
				<time>2014-08-17T16:35:35Z</time>
				<extensions>
					<speed>5.0</speed>
				</extensions>
			</trkpt>
			<trkpt lat="53.2639898" lon="-8.93010088">
				<ele>67.0</ele>
				<time>2014-08-17T16:35:36Z</time>
				<extensions>
					<speed>5.0</speed>
				</extensions>
			</trkpt>
			<trkpt lat="53.263955" lon="-8.93005674">
				<ele>63.0</ele>
				<time>2014-08-17T16:35:37Z</time>
				<extensions>
					<speed>4.25</speed>
				</extensions>
			</trkpt>
			<trkpt lat="53.2639276" lon="-8.93000877">
				<ele>63.0</ele>
				<time>2014-08-17T16:35:38Z</time>
				<extensions>
					<speed>4.0</speed>
				</extensions>
			</trkpt>
			<trkpt lat="53.26390082" lon="-8.92996763">
				<ele>62.0</ele>
				<time>2014-08-17T16:35:39Z</time>
				<extensions>
					<speed>4.0</speed>
				</extensions>
			</trkpt>
			<trkpt lat="53.2638732" lon="-8.92994288">
				<ele>64.0</ele>
				<time>2014-08-17T16:35:40Z</time>
				<extensions>
					<speed>4.0</speed>
				</extensions>
			</trkpt>
			<trkpt lat="53.26384871" lon="-8.92991831">
				<ele>64.0</ele>
				<time>2014-08-17T16:35:41Z</time>
				<extensions>
					<speed>3.5</speed>
				</extensions>
			</trkpt>
			<trkpt lat="53.26382163" lon="-8.92989038">
				<ele>64.0</ele>
				<time>2014-08-17T16:35:42Z</time>
				<extensions>
					<speed>3.25</speed>
				</extensions>
			</trkpt>
			<trkpt lat="53.26381241" lon="-8.92986645">
				<ele>63.0</ele>
				<time>2014-08-17T16:35:43Z</time>
				<extensions>
					<speed>2.5</speed>
				</extensions>
			</trkpt>
			<trkpt lat="53.26379534" lon="-8.92985076">
				<ele>63.0</ele>
				<time>2014-08-17T16:35:44Z</time>
				<extensions>
					<speed>2.0</speed>
				</extensions>
			</trkpt>
			<trkpt lat="53.26379005" lon="-8.92983288">
				<ele>63.0</ele>
				<time>2014-08-17T16:35:45Z</time>
				<extensions>
					<speed>0.75</speed>
				</extensions>
			</trkpt>
			<trkpt lat="53.26378252" lon="-8.9298294">
				<ele>63.0</ele>
				<time>2014-08-17T16:35:46Z</time>
				<extensions>
					<speed>0.0</speed>
				</extensions>
			</trkpt>
			<trkpt lat="53.26378505" lon="-8.92983022">
				<ele>63.0</ele>
				<time>2014-08-17T16:35:47Z</time>
				<extensions>
					<speed>0.0</speed>
				</extensions>
			</trkpt>
			<trkpt lat="53.26378693" lon="-8.92982803">
				<ele>63.0</ele>
				<time>2014-08-17T16:35:48Z</time>
				<extensions>
					<speed>0.0</speed>
				</extensions>
			</trkpt>
			<trkpt lat="53.26378525" lon="-8.92982659">
				<ele>63.0</ele>
				<time>2014-08-17T16:35:49Z</time>
				<extensions>
					<speed>0.0</speed>
				</extensions>
			</trkpt>
			<trkpt lat="53.26378384" lon="-8.92982557">
				<ele>63.0</ele>
				<time>2014-08-17T16:35:50Z</time>
				<extensions>
					<speed>0.0</speed>
				</extensions>
			</trkpt>
			<trkpt lat="53.26378076" lon="-8.92981754">
				<ele>63.0</ele>
				<time>2014-08-17T16:35:51Z</time>
				<extensions>
					<speed>0.0</speed>
				</extensions>
			</trkpt>
			<trkpt lat="53.2637756" lon="-8.92981563">
				<ele>63.0</ele>
				<time>2014-08-17T16:35:52Z</time>
				<extensions>
					<speed>0.0</speed>
				</extensions>
			</trkpt>
			<trkpt lat="53.26377813" lon="-8.92981912">
				<ele>63.0</ele>
				<time>2014-08-17T16:35:53Z</time>
				<extensions>
					<speed>0.0</speed>
				</extensions>
			</trkpt>
			<trkpt lat="53.26377577" lon="-8.92981543">
				<ele>63.0</ele>
				<time>2014-08-17T16:35:54Z</time>
				<extensions>
					<speed>0.0</speed>
				</extensions>
			</trkpt>
			<trkpt lat="53.26377439" lon="-8.92981566">
				<ele>63.0</ele>
				<time>2014-08-17T16:35:55Z</time>
				<extensions>
					<speed>0.0</speed>
				</extensions>
			</trkpt>
			<trkpt lat="53.26377245" lon="-8.92981163">
				<ele>63.0</ele>
				<time>2014-08-17T16:35:56Z</time>
				<extensions>
					<speed>0.0</speed>
				</extensions>
			</trkpt>
			<trkpt lat="53.26377089" lon="-8.92981239">
				<ele>63.0</ele>
				<time>2014-08-17T16:35:57Z</time>
				<extensions>
					<speed>0.0</speed>
				</extensions>
			</trkpt>
			<trkpt lat="53.2637694" lon="-8.92981261">
				<ele>63.0</ele>
				<time>2014-08-17T16:35:58Z</time>
				<extensions>
					<speed>0.0</speed>
				</extensions>
			</trkpt>
			<trkpt lat="53.26376935" lon="-8.92981304">
				<ele>63.0</ele>
				<time>2014-08-17T16:35:59Z</time>
				<extensions>
					<speed>0.0</speed>
				</extensions>
			</trkpt>
			<trkpt lat="53.2637694" lon="-8.92981305">
				<ele>63.0</ele>
				<time>2014-08-17T16:36:00Z</time>
				<extensions>
					<speed>0.0</speed>
				</extensions>
			</trkpt>
			<trkpt lat="53.2637694" lon="-8.92981305">
				<ele>63.0</ele>
				<time>2014-08-17T16:36:01Z</time>
				<extensions>
					<speed>0.0</speed>
				</extensions>
			</trkpt>
			<trkpt lat="53.26378502" lon="-8.92980706">
				<ele>62.0</ele>
				<time>2014-08-17T16:36:02Z</time>
				<extensions>
					<speed>0.0</speed>
				</extensions>
			</trkpt>
			<trkpt lat="53.26378517" lon="-8.92980621">
				<ele>62.0</ele>
				<time>2014-08-17T16:36:03Z</time>
				<extensions>
					<speed>0.0</speed>
				</extensions>
			</trkpt>
			<trkpt lat="53.26378369" lon="-8.92980434">
				<ele>62.0</ele>
				<time>2014-08-17T16:36:04Z</time>
				<extensions>
					<speed>0.25</speed>
				</extensions>
			</trkpt>
			<trkpt lat="53.26376657" lon="-8.92979305">
				<ele>62.0</ele>
				<time>2014-08-17T16:36:05Z</time>
				<extensions>
					<speed>1.75</speed>
				</extensions>
			</trkpt>
			<trkpt lat="53.26374262" lon="-8.92977322">
				<ele>63.0</ele>
				<time>2014-08-17T16:36:06Z</time>
				<extensions>
					<speed>2.75</speed>
				</extensions>
			</trkpt>
			<trkpt lat="53.26371761" lon="-8.92974326">
				<ele>63.0</ele>
				<time>2014-08-17T16:36:07Z</time>
				<extensions>
					<speed>3.75</speed>
				</extensions>
			</trkpt>
			<trkpt lat="53.26368766" lon="-8.92970429">
				<ele>62.0</ele>
				<time>2014-08-17T16:36:08Z</time>
				<extensions>
					<speed>4.0</speed>
				</extensions>
			</trkpt>
			<trkpt lat="53.26366687" lon="-8.9296676">
				<ele>61.0</ele>
				<time>2014-08-17T16:36:09Z</time>
				<extensions>
					<speed>4.0</speed>
				</extensions>
			</trkpt>
			<trkpt lat="53.26363982" lon="-8.92963691">
				<ele>61.0</ele>
				<time>2014-08-17T16:36:10Z</time>
				<extensions>
					<speed>4.0</speed>
				</extensions>
			</trkpt>
			<trkpt lat="53.26361438" lon="-8.9295949">
				<ele>61.0</ele>
				<time>2014-08-17T16:36:11Z</time>
				<extensions>
					<speed>4.25</speed>
				</extensions>
			</trkpt>
			<trkpt lat="53.26357944" lon="-8.92955084">
				<ele>61.0</ele>
				<time>2014-08-17T16:36:12Z</time>
				<extensions>
					<speed>4.5</speed>
				</extensions>
			</trkpt>
			<trkpt lat="53.26353845" lon="-8.92950598">
				<ele>61.0</ele>
				<time>2014-08-17T16:36:13Z</time>
				<extensions>
					<speed>4.75</speed>
				</extensions>
			</trkpt>
			<trkpt lat="53.26350509" lon="-8.92946488">
				<ele>62.0</ele>
				<time>2014-08-17T16:36:14Z</time>
				<extensions>
					<speed>4.5</speed>
				</extensions>
			</trkpt>
			<trkpt lat="53.26346952" lon="-8.92942641">
				<ele>62.0</ele>
				<time>2014-08-17T16:36:15Z</time>
				<extensions>
					<speed>4.5</speed>
				</extensions>
			</trkpt>
			<trkpt lat="53.26343717" lon="-8.92937746">
				<ele>62.0</ele>
				<time>2014-08-17T16:36:16Z</time>
				<extensions>
					<speed>4.5</speed>
				</extensions>
			</trkpt>
			<trkpt lat="53.26340726" lon="-8.92933232">
				<ele>62.0</ele>
				<time>2014-08-17T16:36:17Z</time>
				<extensions>
					<speed>4.5</speed>
				</extensions>
			</trkpt>
			<trkpt lat="53.26337739" lon="-8.92929295">
				<ele>62.0</ele>
				<time>2014-08-17T16:36:18Z</time>
				<extensions>
					<speed>4.25</speed>
				</extensions>
			</trkpt>
			<trkpt lat="53.26334636" lon="-8.9292636">
				<ele>62.0</ele>
				<time>2014-08-17T16:36:19Z</time>
				<extensions>
					<speed>4.0</speed>
				</extensions>
			</trkpt>
			<trkpt lat="53.26331689" lon="-8.92923677">
				<ele>62.0</ele>
				<time>2014-08-17T16:36:20Z</time>
				<extensions>
					<speed>4.25</speed>
				</extensions>
			</trkpt>
			<trkpt lat="53.26328301" lon="-8.92921553">
				<ele>63.0</ele>
				<time>2014-08-17T16:36:21Z</time>
				<extensions>
					<speed>4.25</speed>
				</extensions>
			</trkpt>
			<trkpt lat="53.26324288" lon="-8.92919496">
				<ele>63.0</ele>
				<time>2014-08-17T16:36:22Z</time>
				<extensions>
					<speed>4.5</speed>
				</extensions>
			</trkpt>
			<trkpt lat="53.26320163" lon="-8.92917846">
				<ele>63.0</ele>
				<time>2014-08-17T16:36:23Z</time>
				<extensions>
					<speed>4.75</speed>
				</extensions>
			</trkpt>
			<trkpt lat="53.26315774" lon="-8.92917436">
				<ele>62.0</ele>
				<time>2014-08-17T16:36:24Z</time>
				<extensions>
					<speed>4.75</speed>
				</extensions>
			</trkpt>
			<trkpt lat="53.2631126" lon="-8.92918621">
				<ele>63.0</ele>
				<time>2014-08-17T16:36:25Z</time>
				<extensions>
					<speed>5.0</speed>
				</extensions>
			</trkpt>
			<trkpt lat="53.26307185" lon="-8.92920701">
				<ele>63.0</ele>
				<time>2014-08-17T16:36:26Z</time>
				<extensions>
					<speed>5.0</speed>
				</extensions>
			</trkpt>
			<trkpt lat="53.26303148" lon="-8.92923039">
				<ele>63.0</ele>
				<time>2014-08-17T16:36:27Z</time>
				<extensions>
					<speed>5.0</speed>
				</extensions>
			</trkpt>
			<trkpt lat="53.26298725" lon="-8.92925651">
				<ele>62.0</ele>
				<time>2014-08-17T16:36:28Z</time>
				<extensions>
					<speed>5.0</speed>
				</extensions>
			</trkpt>
			<trkpt lat="53.26294515" lon="-8.92927714">
				<ele>62.0</ele>
				<time>2014-08-17T16:36:29Z</time>
				<extensions>
					<speed>5.0</speed>
				</extensions>
			</trkpt>
			<trkpt lat="53.26290358" lon="-8.92929631">
				<ele>62.0</ele>
				<time>2014-08-17T16:36:30Z</time>
				<extensions>
					<speed>5.0</speed>
				</extensions>
			</trkpt>
			<trkpt lat="53.26286125" lon="-8.92931371">
				<ele>62.0</ele>
				<time>2014-08-17T16:36:31Z</time>
				<extensions>
					<speed>4.75</speed>
				</extensions>
			</trkpt>
			<trkpt lat="53.26281682" lon="-8.92932412">
				<ele>62.0</ele>
				<time>2014-08-17T16:36:32Z</time>
				<extensions>
					<speed>4.75</speed>
				</extensions>
			</trkpt>
			<trkpt lat="53.26277662" lon="-8.92933663">
				<ele>62.0</ele>
				<time>2014-08-17T16:36:33Z</time>
				<extensions>
					<speed>4.75</speed>
				</extensions>
			</trkpt>
			<trkpt lat="53.26273737" lon="-8.92935405">
				<ele>62.0</ele>
				<time>2014-08-17T16:36:34Z</time>
				<extensions>
					<speed>4.5</speed>
				</extensions>
			</trkpt>
			<trkpt lat="53.26270055" lon="-8.92936738">
				<ele>62.0</ele>
				<time>2014-08-17T16:36:35Z</time>
				<extensions>
					<speed>4.5</speed>
				</extensions>
			</trkpt>
			<trkpt lat="53.26266475" lon="-8.92938615">
				<ele>62.0</ele>
				<time>2014-08-17T16:36:36Z</time>
				<extensions>
					<speed>4.5</speed>
				</extensions>
			</trkpt>
			<trkpt lat="53.26262849" lon="-8.92940429">
				<ele>62.0</ele>
				<time>2014-08-17T16:36:37Z</time>
				<extensions>
					<speed>4.25</speed>
				</extensions>
			</trkpt>
			<trkpt lat="53.26259443" lon="-8.92942502">
				<ele>62.0</ele>
				<time>2014-08-17T16:36:38Z</time>
				<extensions>
					<speed>4.25</speed>
				</extensions>
			</trkpt>
			<trkpt lat="53.26255744" lon="-8.92944116">
				<ele>62.0</ele>
				<time>2014-08-17T16:36:39Z</time>
				<extensions>
					<speed>4.25</speed>
				</extensions>
			</trkpt>
			<trkpt lat="53.26252325" lon="-8.92945858">
				<ele>62.0</ele>
				<time>2014-08-17T16:36:40Z</time>
				<extensions>
					<speed>4.0</speed>
				</extensions>
			</trkpt>
			<trkpt lat="53.26249057" lon="-8.92947412">
				<ele>62.0</ele>
				<time>2014-08-17T16:36:41Z</time>
				<extensions>
					<speed>4.0</speed>
				</extensions>
			</trkpt>
			<trkpt lat="53.26245798" lon="-8.92948749">
				<ele>62.0</ele>
				<time>2014-08-17T16:36:42Z</time>
				<extensions>
					<speed>3.75</speed>
				</extensions>
			</trkpt>
			<trkpt lat="53.26242859" lon="-8.92950349">
				<ele>61.0</ele>
				<time>2014-08-17T16:36:43Z</time>
				<extensions>
					<speed>3.5</speed>
				</extensions>
			</trkpt>
			<trkpt lat="53.26240449" lon="-8.92951494">
				<ele>61.0</ele>
				<time>2014-08-17T16:36:44Z</time>
				<extensions>
					<speed>3.0</speed>
				</extensions>
			</trkpt>
			<trkpt lat="53.26237616" lon="-8.92952556">
				<ele>62.0</ele>
				<time>2014-08-17T16:36:45Z</time>
				<extensions>
					<speed>3.0</speed>
				</extensions>
			</trkpt>
			<trkpt lat="53.26234888" lon="-8.92953274">
				<ele>62.0</ele>
				<time>2014-08-17T16:36:46Z</time>
				<extensions>
					<speed>2.75</speed>
				</extensions>
			</trkpt>
			<trkpt lat="53.26232663" lon="-8.92954015">
				<ele>62.0</ele>
				<time>2014-08-17T16:36:47Z</time>
				<extensions>
					<speed>2.5</speed>
				</extensions>
			</trkpt>
			<trkpt lat="53.26230745" lon="-8.92954809">
				<ele>62.0</ele>
				<time>2014-08-17T16:36:48Z</time>
				<extensions>
					<speed>2.5</speed>
				</extensions>
			</trkpt>
			<trkpt lat="53.26228766" lon="-8.92955499">
				<ele>62.0</ele>
				<time>2014-08-17T16:36:49Z</time>
				<extensions>
					<speed>2.25</speed>
				</extensions>
			</trkpt>
			<trkpt lat="53.26227088" lon="-8.92956351">
				<ele>62.0</ele>
				<time>2014-08-17T16:36:50Z</time>
				<extensions>
					<speed>2.0</speed>
				</extensions>
			</trkpt>
			<trkpt lat="53.26225077" lon="-8.92956942">
				<ele>62.0</ele>
				<time>2014-08-17T16:36:51Z</time>
				<extensions>
					<speed>2.25</speed>
				</extensions>
			</trkpt>
			<trkpt lat="53.26223243" lon="-8.9295867">
				<ele>62.0</ele>
				<time>2014-08-17T16:36:52Z</time>
				<extensions>
					<speed>2.25</speed>
				</extensions>
			</trkpt>
			<trkpt lat="53.26222538" lon="-8.92961454">
				<ele>62.0</ele>
				<time>2014-08-17T16:36:53Z</time>
				<extensions>
					<speed>2.25</speed>
				</extensions>
			</trkpt>
			<trkpt lat="53.26222671" lon="-8.92964351">
				<ele>62.0</ele>
				<time>2014-08-17T16:36:54Z</time>
				<extensions>
					<speed>2.0</speed>
				</extensions>
			</trkpt>
			<trkpt lat="53.26223427" lon="-8.92966315">
				<ele>62.0</ele>
				<time>2014-08-17T16:36:55Z</time>
				<extensions>
					<speed>1.5</speed>
				</extensions>
			</trkpt>
			<trkpt lat="53.26223641" lon="-8.92967035">
				<ele>62.0</ele>
				<time>2014-08-17T16:36:56Z</time>
				<extensions>
					<speed>0.5</speed>
				</extensions>
			</trkpt>
			<trkpt lat="53.26223635" lon="-8.92966857">
				<ele>62.0</ele>
				<time>2014-08-17T16:36:57Z</time>
				<extensions>
					<speed>0.0</speed>
				</extensions>
			</trkpt>
			<trkpt lat="53.2622363" lon="-8.92966647">
				<ele>62.0</ele>
				<time>2014-08-17T16:36:58Z</time>
				<extensions>
					<speed>0.25</speed>
				</extensions>
			</trkpt>
			<trkpt lat="53.26223918" lon="-8.9296584">
				<ele>62.0</ele>
				<time>2014-08-17T16:36:59Z</time>
				<extensions>
					<speed>0.5</speed>
				</extensions>
			</trkpt>
			<trkpt lat="53.26223923" lon="-8.92965001">
				<ele>63.0</ele>
				<time>2014-08-17T16:37:00Z</time>
				<extensions>
					<speed>0.75</speed>
				</extensions>
			</trkpt>
			<trkpt lat="53.26223669" lon="-8.92963543">
				<ele>63.0</ele>
				<time>2014-08-17T16:37:01Z</time>
				<extensions>
					<speed>0.75</speed>
				</extensions>
			</trkpt>
			<trkpt lat="53.2622362" lon="-8.92962532">
				<ele>63.0</ele>
				<time>2014-08-17T16:37:02Z</time>
				<extensions>
					<speed>0.75</speed>
				</extensions>
			</trkpt>
			<trkpt lat="53.2622332" lon="-8.92961691">
				<ele>63.0</ele>
				<time>2014-08-17T16:37:03Z</time>
				<extensions>
					<speed>0.5</speed>
				</extensions>
			</trkpt>
			<trkpt lat="53.26223403" lon="-8.92960792">
				<ele>63.0</ele>
				<time>2014-08-17T16:37:04Z</time>
				<extensions>
					<speed>1.0</speed>
				</extensions>
			</trkpt>
			<trkpt lat="53.2622345" lon="-8.92959531">
				<ele>62.0</ele>
				<time>2014-08-17T16:37:05Z</time>
				<extensions>
					<speed>0.75</speed>
				</extensions>
			</trkpt>
			<trkpt lat="53.2622358" lon="-8.92959267">
				<ele>63.0</ele>
				<time>2014-08-17T16:37:06Z</time>
				<extensions>
					<speed>0.25</speed>
				</extensions>
			</trkpt>
			<trkpt lat="53.26224002" lon="-8.92959841">
				<ele>63.0</ele>
				<time>2014-08-17T16:37:07Z</time>
				<extensions>
					<speed>0.5</speed>
				</extensions>
			</trkpt>
			<trkpt lat="53.26225201" lon="-8.92960557">
				<ele>62.0</ele>
				<time>2014-08-17T16:37:08Z</time>
				<extensions>
					<speed>1.75</speed>
				</extensions>
			</trkpt>
			<trkpt lat="53.26227695" lon="-8.92960374">
				<ele>62.0</ele>
				<time>2014-08-17T16:37:09Z</time>
				<extensions>
					<speed>3.5</speed>
				</extensions>
			</trkpt>
			<trkpt lat="53.26231254" lon="-8.92958941">
				<ele>62.0</ele>
				<time>2014-08-17T16:37:10Z</time>
				<extensions>
					<speed>4.75</speed>
				</extensions>
			</trkpt>
			<trkpt lat="53.26235683" lon="-8.92957448">
				<ele>62.0</ele>
				<time>2014-08-17T16:37:11Z</time>
				<extensions>
					<speed>5.5</speed>
				</extensions>
			</trkpt>
			<trkpt lat="53.26240424" lon="-8.9295572">
				<ele>62.0</ele>
				<time>2014-08-17T16:37:12Z</time>
				<extensions>
					<speed>5.5</speed>
				</extensions>
			</trkpt>
			<trkpt lat="53.2624606" lon="-8.92952913">
				<ele>62.0</ele>
				<time>2014-08-17T16:37:13Z</time>
				<extensions>
					<speed>6.25</speed>
				</extensions>
			</trkpt>
			<trkpt lat="53.26252662" lon="-8.92949669">
				<ele>62.0</ele>
				<time>2014-08-17T16:37:14Z</time>
				<extensions>
					<speed>7.25</speed>
				</extensions>
			</trkpt>
			<trkpt lat="53.26259326" lon="-8.92947667">
				<ele>62.0</ele>
				<time>2014-08-17T16:37:15Z</time>
				<extensions>
					<speed>7.25</speed>
				</extensions>
			</trkpt>
			<trkpt lat="53.26265818" lon="-8.92944921">
				<ele>62.0</ele>
				<time>2014-08-17T16:37:16Z</time>
				<extensions>
					<speed>7.0</speed>
				</extensions>
			</trkpt>
			<trkpt lat="53.26271316" lon="-8.92943526">
				<ele>63.0</ele>
				<time>2014-08-17T16:37:17Z</time>
				<extensions>
					<speed>6.25</speed>
				</extensions>
			</trkpt>
			<trkpt lat="53.26275079" lon="-8.92942309">
				<ele>63.0</ele>
				<time>2014-08-17T16:37:18Z</time>
				<extensions>
					<speed>4.25</speed>
				</extensions>
			</trkpt>
			<trkpt lat="53.26276774" lon="-8.92941505">
				<ele>63.0</ele>
				<time>2014-08-17T16:37:19Z</time>
				<extensions>
					<speed>2.0</speed>
				</extensions>
			</trkpt>
			<trkpt lat="53.26277039" lon="-8.92941233">
				<ele>63.0</ele>
				<time>2014-08-17T16:37:20Z</time>
				<extensions>
					<speed>1.0</speed>
				</extensions>
			</trkpt>
			<trkpt lat="53.26277031" lon="-8.92941468">
				<ele>63.0</ele>
				<time>2014-08-17T16:37:21Z</time>
				<extensions>
					<speed>0.0</speed>
				</extensions>
			</trkpt>
			<trkpt lat="53.26276901" lon="-8.92941852">
				<ele>63.0</ele>
				<time>2014-08-17T16:37:22Z</time>
				<extensions>
					<speed>0.0</speed>
				</extensions>
			</trkpt>
			<trkpt lat="53.26276739" lon="-8.92942497">
				<ele>63.0</ele>
				<time>2014-08-17T16:37:23Z</time>
				<extensions>
					<speed>0.0</speed>
				</extensions>
			</trkpt>
			<trkpt lat="53.26276813" lon="-8.92942711">
				<ele>63.0</ele>
				<time>2014-08-17T16:37:24Z</time>
				<extensions>
					<speed>0.0</speed>
				</extensions>
			</trkpt>
			<trkpt lat="53.26276606" lon="-8.92942882">
				<ele>63.0</ele>
				<time>2014-08-17T16:37:25Z</time>
				<extensions>
					<speed>0.0</speed>
				</extensions>
			</trkpt>
			<trkpt lat="53.26276487" lon="-8.9294289">
				<ele>63.0</ele>
				<time>2014-08-17T16:37:26Z</time>
				<extensions>
					<speed>0.0</speed>
				</extensions>
			</trkpt>
			<trkpt lat="53.26276502" lon="-8.92943021">
				<ele>63.0</ele>
				<time>2014-08-17T16:37:27Z</time>
				<extensions>
					<speed>0.0</speed>
				</extensions>
			</trkpt>
			<trkpt lat="53.26276352" lon="-8.92943217">
				<ele>63.0</ele>
				<time>2014-08-17T16:37:28Z</time>
				<extensions>
					<speed>0.0</speed>
				</extensions>
			</trkpt>
			<trkpt lat="53.26276315" lon="-8.92943236">
				<ele>63.0</ele>
				<time>2014-08-17T16:37:29Z</time>
				<extensions>
					<speed>0.0</speed>
				</extensions>
			</trkpt>
			<trkpt lat="53.2627616" lon="-8.92943144">
				<ele>63.0</ele>
				<time>2014-08-17T16:37:30Z</time>
				<extensions>
					<speed>0.0</speed>
				</extensions>
			</trkpt>
			<trkpt lat="53.26276167" lon="-8.92943214">
				<ele>63.0</ele>
				<time>2014-08-17T16:37:31Z</time>
				<extensions>
					<speed>0.0</speed>
				</extensions>
			</trkpt>
			<trkpt lat="53.26275969" lon="-8.92943327">
				<ele>63.0</ele>
				<time>2014-08-17T16:37:32Z</time>
				<extensions>
					<speed>0.0</speed>
				</extensions>
			</trkpt>
			<trkpt lat="53.26275918" lon="-8.92943448">
				<ele>63.0</ele>
				<time>2014-08-17T16:37:33Z</time>
				<extensions>
					<speed>0.0</speed>
				</extensions>
			</trkpt>
			<trkpt lat="53.26275878" lon="-8.92943456">
				<ele>63.0</ele>
				<time>2014-08-17T16:37:34Z</time>
				<extensions>
					<speed>0.0</speed>
				</extensions>
			</trkpt>
			<trkpt lat="53.2627588" lon="-8.92943453">
				<ele>63.0</ele>
				<time>2014-08-17T16:37:35Z</time>
				<extensions>
					<speed>0.0</speed>
				</extensions>
			</trkpt>
			<trkpt lat="53.26275878" lon="-8.92943459">
				<ele>63.0</ele>
				<time>2014-08-17T16:37:36Z</time>
				<extensions>
					<speed>0.0</speed>
				</extensions>
			</trkpt>
			<trkpt lat="53.2627588" lon="-8.92943459">
				<ele>63.0</ele>
				<time>2014-08-17T16:37:37Z</time>
				<extensions>
					<speed>0.0</speed>
				</extensions>
			</trkpt>
			<trkpt lat="53.26275881" lon="-8.9294346">
				<ele>63.0</ele>
				<time>2014-08-17T16:37:38Z</time>
				<extensions>
					<speed>0.0</speed>
				</extensions>
			</trkpt>
			<trkpt lat="53.26275879" lon="-8.92943458">
				<ele>63.0</ele>
				<time>2014-08-17T16:37:39Z</time>
				<extensions>
					<speed>0.0</speed>
				</extensions>
			</trkpt>
			<trkpt lat="53.26275875" lon="-8.92943453">
				<ele>63.0</ele>
				<time>2014-08-17T16:37:40Z</time>
				<extensions>
					<speed>0.0</speed>
				</extensions>
			</trkpt>
			<trkpt lat="53.26275877" lon="-8.92943456">
				<ele>63.0</ele>
				<time>2014-08-17T16:37:41Z</time>
				<extensions>
					<speed>0.0</speed>
				</extensions>
			</trkpt>
			<trkpt lat="53.26275877" lon="-8.92943456">
				<ele>63.0</ele>
				<time>2014-08-17T16:37:42Z</time>
				<extensions>
					<speed>0.0</speed>
				</extensions>
			</trkpt>
			<trkpt lat="53.26275876" lon="-8.92943454">
				<ele>63.0</ele>
				<time>2014-08-17T16:37:43Z</time>
				<extensions>
					<speed>0.0</speed>
				</extensions>
			</trkpt>
			<trkpt lat="53.26275876" lon="-8.92943452">
				<ele>63.0</ele>
				<time>2014-08-17T16:37:44Z</time>
				<extensions>
					<speed>0.0</speed>
				</extensions>
			</trkpt>
			<trkpt lat="53.26275876" lon="-8.9294345">
				<ele>63.0</ele>
				<time>2014-08-17T16:37:45Z</time>
				<extensions>
					<speed>0.0</speed>
				</extensions>
			</trkpt>
			<trkpt lat="53.26275873" lon="-8.92943447">
				<ele>63.0</ele>
				<time>2014-08-17T16:37:46Z</time>
				<extensions>
					<speed>0.0</speed>
				</extensions>
			</trkpt>
			<trkpt lat="53.26275872" lon="-8.92943448">
				<ele>63.0</ele>
				<time>2014-08-17T16:37:47Z</time>
				<extensions>
					<speed>0.0</speed>
				</extensions>
			</trkpt>
			<trkpt lat="53.26275871" lon="-8.92943447">
				<ele>63.0</ele>
				<time>2014-08-17T16:37:48Z</time>
				<extensions>
					<speed>0.0</speed>
				</extensions>
			</trkpt>
			<trkpt lat="53.26275869" lon="-8.92943446">
				<ele>63.0</ele>
				<time>2014-08-17T16:37:49Z</time>
				<extensions>
					<speed>0.0</speed>
				</extensions>
			</trkpt>
			<trkpt lat="53.26275868" lon="-8.92943445">
				<ele>63.0</ele>
				<time>2014-08-17T16:37:50Z</time>
				<extensions>
					<speed>0.0</speed>
				</extensions>
			</trkpt>
			<trkpt lat="53.26275866" lon="-8.92943445">
				<ele>63.0</ele>
				<time>2014-08-17T16:37:51Z</time>
				<extensions>
					<speed>0.0</speed>
				</extensions>
			</trkpt>
			<trkpt lat="53.26275865" lon="-8.92943445">
				<ele>63.0</ele>
				<time>2014-08-17T16:37:52Z</time>
				<extensions>
					<speed>0.0</speed>
				</extensions>
			</trkpt>
			<trkpt lat="53.26275864" lon="-8.92943444">
				<ele>63.0</ele>
				<time>2014-08-17T16:37:53Z</time>
				<extensions>
					<speed>0.0</speed>
				</extensions>
			</trkpt>
			<trkpt lat="53.26275861" lon="-8.92943443">
				<ele>63.0</ele>
				<time>2014-08-17T16:37:54Z</time>
				<extensions>
					<speed>0.0</speed>
				</extensions>
			</trkpt>
			<trkpt lat="53.26275861" lon="-8.92943444">
				<ele>63.0</ele>
				<time>2014-08-17T16:37:55Z</time>
				<extensions>
					<speed>0.0</speed>
				</extensions>
			</trkpt>
			<trkpt lat="53.26275859" lon="-8.92943445">
				<ele>63.0</ele>
				<time>2014-08-17T16:37:56Z</time>
				<extensions>
					<speed>0.0</speed>
				</extensions>
			</trkpt>
			<trkpt lat="53.26275859" lon="-8.92943444">
				<ele>63.0</ele>
				<time>2014-08-17T16:37:57Z</time>
				<extensions>
					<speed>0.0</speed>
				</extensions>
			</trkpt>
			<trkpt lat="53.26275857" lon="-8.92943444">
				<ele>63.0</ele>
				<time>2014-08-17T16:37:58Z</time>
				<extensions>
					<speed>0.0</speed>
				</extensions>
			</trkpt>
			<trkpt lat="53.26275857" lon="-8.92943444">
				<ele>63.0</ele>
				<time>2014-08-17T16:37:59Z</time>
				<extensions>
					<speed>0.0</speed>
				</extensions>
			</trkpt>
			<trkpt lat="53.26275858" lon="-8.92943443">
				<ele>63.0</ele>
				<time>2014-08-17T16:38:00Z</time>
				<extensions>
					<speed>0.0</speed>
				</extensions>
			</trkpt>
			<trkpt lat="53.26275859" lon="-8.92943442">
				<ele>63.0</ele>
				<time>2014-08-17T16:38:01Z</time>
				<extensions>
					<speed>0.0</speed>
				</extensions>
			</trkpt>
			<trkpt lat="53.26275858" lon="-8.92943441">
				<ele>63.0</ele>
				<time>2014-08-17T16:38:02Z</time>
				<extensions>
					<speed>0.0</speed>
				</extensions>
			</trkpt>
			<trkpt lat="53.26275859" lon="-8.9294344">
				<ele>63.0</ele>
				<time>2014-08-17T16:38:03Z</time>
				<extensions>
					<speed>0.0</speed>
				</extensions>
			</trkpt>
			<trkpt lat="53.26275858" lon="-8.92943438">
				<ele>63.0</ele>
				<time>2014-08-17T16:38:04Z</time>
				<extensions>
					<speed>0.0</speed>
				</extensions>
			</trkpt>
			<trkpt lat="53.26275857" lon="-8.92943437">
				<ele>63.0</ele>
				<time>2014-08-17T16:38:05Z</time>
				<extensions>
					<speed>0.0</speed>
				</extensions>
			</trkpt>
			<trkpt lat="53.26275855" lon="-8.92943437">
				<ele>63.0</ele>
				<time>2014-08-17T16:38:06Z</time>
				<extensions>
					<speed>0.0</speed>
				</extensions>
			</trkpt>
			<trkpt lat="53.26275856" lon="-8.92943436">
				<ele>63.0</ele>
				<time>2014-08-17T16:38:07Z</time>
				<extensions>
					<speed>0.0</speed>
				</extensions>
			</trkpt>
			<trkpt lat="53.26275858" lon="-8.92943436">
				<ele>63.0</ele>
				<time>2014-08-17T16:38:08Z</time>
				<extensions>
					<speed>0.0</speed>
				</extensions>
			</trkpt>
			<trkpt lat="53.26275859" lon="-8.92943435">
				<ele>63.0</ele>
				<time>2014-08-17T16:38:09Z</time>
				<extensions>
					<speed>0.0</speed>
				</extensions>
			</trkpt>
			<trkpt lat="53.2627586" lon="-8.92943435">
				<ele>63.0</ele>
				<time>2014-08-17T16:38:10Z</time>
				<extensions>
					<speed>0.0</speed>
				</extensions>
			</trkpt>
			<trkpt lat="53.26275862" lon="-8.92943435">
				<ele>63.0</ele>
				<time>2014-08-17T16:38:11Z</time>
				<extensions>
					<speed>0.0</speed>
				</extensions>
			</trkpt>
			<trkpt lat="53.2627586" lon="-8.92943439">
				<ele>63.0</ele>
				<time>2014-08-17T16:38:12Z</time>
				<extensions>
					<speed>0.0</speed>
				</extensions>
			</trkpt>
			<trkpt lat="53.26275861" lon="-8.92943441">
				<ele>63.0</ele>
				<time>2014-08-17T16:38:13Z</time>
				<extensions>
					<speed>0.0</speed>
				</extensions>
			</trkpt>
			<trkpt lat="53.2627586" lon="-8.92943442">
				<ele>63.0</ele>
				<time>2014-08-17T16:38:14Z</time>
				<extensions>
					<speed>0.0</speed>
				</extensions>
			</trkpt>
			<trkpt lat="53.26276058" lon="-8.92943349">
				<ele>63.0</ele>
				<time>2014-08-17T16:38:15Z</time>
				<extensions>
					<speed>0.5</speed>
				</extensions>
			</trkpt>
			<trkpt lat="53.2627782" lon="-8.92942077">
				<ele>63.0</ele>
				<time>2014-08-17T16:38:16Z</time>
				<extensions>
					<speed>1.75</speed>
				</extensions>
			</trkpt>
			<trkpt lat="53.26280446" lon="-8.92939989">
				<ele>63.0</ele>
				<time>2014-08-17T16:38:17Z</time>
				<extensions>
					<speed>3.25</speed>
				</extensions>
			</trkpt>
			<trkpt lat="53.26283687" lon="-8.92937235">
				<ele>63.0</ele>
				<time>2014-08-17T16:38:18Z</time>
				<extensions>
					<speed>4.0</speed>
				</extensions>
			</trkpt>
			<trkpt lat="53.2628743" lon="-8.92934649">
				<ele>63.0</ele>
				<time>2014-08-17T16:38:19Z</time>
				<extensions>
					<speed>4.5</speed>
				</extensions>
			</trkpt>
			<trkpt lat="53.26292508" lon="-8.92931402">
				<ele>63.0</ele>
				<time>2014-08-17T16:38:20Z</time>
				<extensions>
					<speed>5.75</speed>
				</extensions>
			</trkpt>
			<trkpt lat="53.26297707" lon="-8.9292866">
				<ele>63.0</ele>
				<time>2014-08-17T16:38:21Z</time>
				<extensions>
					<speed>6.75</speed>
				</extensions>
			</trkpt>
			<trkpt lat="53.26304287" lon="-8.92925681">
				<ele>64.0</ele>
				<time>2014-08-17T16:38:22Z</time>
				<extensions>
					<speed>7.25</speed>
				</extensions>
			</trkpt>
			<trkpt lat="53.26310534" lon="-8.929236">
				<ele>64.0</ele>
				<time>2014-08-17T16:38:23Z</time>
				<extensions>
					<speed>7.0</speed>
				</extensions>
			</trkpt>
			<trkpt lat="53.26317216" lon="-8.92922804">
				<ele>64.0</ele>
				<time>2014-08-17T16:38:24Z</time>
				<extensions>
					<speed>7.25</speed>
				</extensions>
			</trkpt>
			<trkpt lat="53.26324191" lon="-8.92923888">
				<ele>64.0</ele>
				<time>2014-08-17T16:38:25Z</time>
				<extensions>
					<speed>7.5</speed>
				</extensions>
			</trkpt>
			<trkpt lat="53.26331043" lon="-8.92927685">
				<ele>64.0</ele>
				<time>2014-08-17T16:38:26Z</time>
				<extensions>
					<speed>7.75</speed>
				</extensions>
			</trkpt>
			<trkpt lat="53.26337559" lon="-8.92933927">
				<ele>64.0</ele>
				<time>2014-08-17T16:38:27Z</time>
				<extensions>
					<speed>8.25</speed>
				</extensions>
			</trkpt>
			<trkpt lat="53.26343827" lon="-8.92941912">
				<ele>64.0</ele>
				<time>2014-08-17T16:38:28Z</time>
				<extensions>
					<speed>8.5</speed>
				</extensions>
			</trkpt>
			<trkpt lat="53.26349856" lon="-8.92949511">
				<ele>65.0</ele>
				<time>2014-08-17T16:38:29Z</time>
				<extensions>
					<speed>8.5</speed>
				</extensions>
			</trkpt>
			<trkpt lat="53.26356458" lon="-8.92958136">
				<ele>65.0</ele>
				<time>2014-08-17T16:38:30Z</time>
				<extensions>
					<speed>9.0</speed>
				</extensions>
			</trkpt>
			<trkpt lat="53.26363041" lon="-8.929672">
				<ele>65.0</ele>
				<time>2014-08-17T16:38:31Z</time>
				<extensions>
					<speed>9.5</speed>
				</extensions>
			</trkpt>
			<trkpt lat="53.26369927" lon="-8.92976017">
				<ele>65.0</ele>
				<time>2014-08-17T16:38:32Z</time>
				<extensions>
					<speed>9.25</speed>
				</extensions>
			</trkpt>
			<trkpt lat="53.26376006" lon="-8.9298403">
				<ele>66.0</ele>
				<time>2014-08-17T16:38:33Z</time>
				<extensions>
					<speed>8.75</speed>
				</extensions>
			</trkpt>
			<trkpt lat="53.26381785" lon="-8.92991778">
				<ele>66.0</ele>
				<time>2014-08-17T16:38:34Z</time>
				<extensions>
					<speed>8.5</speed>
				</extensions>
			</trkpt>
			<trkpt lat="53.2638799" lon="-8.92999335">
				<ele>66.0</ele>
				<time>2014-08-17T16:38:35Z</time>
				<extensions>
					<speed>8.25</speed>
				</extensions>
			</trkpt>
			<trkpt lat="53.26393586" lon="-8.9300706">
				<ele>66.0</ele>
				<time>2014-08-17T16:38:36Z</time>
				<extensions>
					<speed>8.0</speed>
				</extensions>
			</trkpt>
			<trkpt lat="53.26398884" lon="-8.93013144">
				<ele>66.0</ele>
				<time>2014-08-17T16:38:37Z</time>
				<extensions>
					<speed>7.5</speed>
				</extensions>
			</trkpt>
			<trkpt lat="53.26404029" lon="-8.93020259">
				<ele>66.0</ele>
				<time>2014-08-17T16:38:38Z</time>
				<extensions>
					<speed>6.75</speed>
				</extensions>
			</trkpt>
			<trkpt lat="53.26408531" lon="-8.93026371">
				<ele>66.0</ele>
				<time>2014-08-17T16:38:39Z</time>
				<extensions>
					<speed>6.25</speed>
				</extensions>
			</trkpt>
			<trkpt lat="53.26409742" lon="-8.93028412">
				<ele>66.0</ele>
				<time>2014-08-17T16:38:40Z</time>
				<extensions>
					<speed>3.0</speed>
				</extensions>
			</trkpt>
			<trkpt lat="53.26410363" lon="-8.9302952">
				<ele>65.0</ele>
				<time>2014-08-17T16:38:41Z</time>
				<extensions>
					<speed>1.0</speed>
				</extensions>
			</trkpt>
			<trkpt lat="53.26411061" lon="-8.9303056">
				<ele>65.0</ele>
				<time>2014-08-17T16:38:42Z</time>
				<extensions>
					<speed>1.0</speed>
				</extensions>
			</trkpt>
			<trkpt lat="53.26410845" lon="-8.93030498">
				<ele>65.0</ele>
				<time>2014-08-17T16:38:43Z</time>
				<extensions>
					<speed>0.0</speed>
				</extensions>
			</trkpt>
			<trkpt lat="53.26411323" lon="-8.93030434">
				<ele>66.0</ele>
				<time>2014-08-17T16:38:44Z</time>
				<extensions>
					<speed>0.0</speed>
				</extensions>
			</trkpt>
			<trkpt lat="53.2641149" lon="-8.93029272">
				<ele>65.0</ele>
				<time>2014-08-17T16:38:45Z</time>
				<extensions>
					<speed>0.0</speed>
				</extensions>
			</trkpt>
			<trkpt lat="53.26411581" lon="-8.93028834">
				<ele>65.0</ele>
				<time>2014-08-17T16:38:46Z</time>
				<extensions>
					<speed>0.0</speed>
				</extensions>
			</trkpt>
			<trkpt lat="53.26411581" lon="-8.93029102">
				<ele>65.0</ele>
				<time>2014-08-17T16:38:47Z</time>
				<extensions>
					<speed>0.0</speed>
				</extensions>
			</trkpt>
			<trkpt lat="53.26411553" lon="-8.93029741">
				<ele>65.0</ele>
				<time>2014-08-17T16:38:48Z</time>
				<extensions>
					<speed>0.0</speed>
				</extensions>
			</trkpt>
			<trkpt lat="53.26411601" lon="-8.93029856">
				<ele>65.0</ele>
				<time>2014-08-17T16:38:49Z</time>
				<extensions>
					<speed>0.0</speed>
				</extensions>
			</trkpt>
			<trkpt lat="53.26411621" lon="-8.93029745">
				<ele>65.0</ele>
				<time>2014-08-17T16:38:50Z</time>
				<extensions>
					<speed>0.0</speed>
				</extensions>
			</trkpt>
			<trkpt lat="53.26411984" lon="-8.93029167">
				<ele>65.0</ele>
				<time>2014-08-17T16:38:51Z</time>
				<extensions>
					<speed>0.0</speed>
				</extensions>
			</trkpt>
			<trkpt lat="53.26411754" lon="-8.93028983">
				<ele>66.0</ele>
				<time>2014-08-17T16:38:52Z</time>
				<extensions>
					<speed>0.0</speed>
				</extensions>
			</trkpt>
			<trkpt lat="53.26411917" lon="-8.93028998">
				<ele>66.0</ele>
				<time>2014-08-17T16:38:53Z</time>
				<extensions>
					<speed>0.0</speed>
				</extensions>
			</trkpt>
			<trkpt lat="53.26412018" lon="-8.93028665">
				<ele>65.0</ele>
				<time>2014-08-17T16:38:54Z</time>
				<extensions>
					<speed>0.0</speed>
				</extensions>
			</trkpt>
			<trkpt lat="53.26412035" lon="-8.93028265">
				<ele>66.0</ele>
				<time>2014-08-17T16:38:55Z</time>
				<extensions>
					<speed>0.0</speed>
				</extensions>
			</trkpt>
			<trkpt lat="53.26412192" lon="-8.93027792">
				<ele>65.0</ele>
				<time>2014-08-17T16:38:56Z</time>
				<extensions>
					<speed>0.0</speed>
				</extensions>
			</trkpt>
			<trkpt lat="53.26412261" lon="-8.93027586">
				<ele>65.0</ele>
				<time>2014-08-17T16:38:57Z</time>
				<extensions>
					<speed>0.0</speed>
				</extensions>
			</trkpt>
			<trkpt lat="53.26412188" lon="-8.93027484">
				<ele>66.0</ele>
				<time>2014-08-17T16:38:58Z</time>
				<extensions>
					<speed>0.0</speed>
				</extensions>
			</trkpt>
			<trkpt lat="53.26412187" lon="-8.93027387">
				<ele>66.0</ele>
				<time>2014-08-17T16:38:59Z</time>
				<extensions>
					<speed>0.0</speed>
				</extensions>
			</trkpt>
			<trkpt lat="53.26412153" lon="-8.93027221">
				<ele>66.0</ele>
				<time>2014-08-17T16:39:00Z</time>
				<extensions>
					<speed>0.0</speed>
				</extensions>
			</trkpt>
			<trkpt lat="53.2641231" lon="-8.93027519">
				<ele>66.0</ele>
				<time>2014-08-17T16:39:01Z</time>
				<extensions>
					<speed>0.5</speed>
				</extensions>
			</trkpt>
			<trkpt lat="53.26412504" lon="-8.93028645">
				<ele>66.0</ele>
				<time>2014-08-17T16:39:02Z</time>
				<extensions>
					<speed>1.0</speed>
				</extensions>
			</trkpt>
			<trkpt lat="53.2641379" lon="-8.93030221">
				<ele>66.0</ele>
				<time>2014-08-17T16:39:03Z</time>
				<extensions>
					<speed>2.0</speed>
				</extensions>
			</trkpt>
			<trkpt lat="53.2641734" lon="-8.9302965">
				<ele>67.0</ele>
				<time>2014-08-17T16:39:04Z</time>
				<extensions>
					<speed>3.75</speed>
				</extensions>
			</trkpt>
			<trkpt lat="53.26421039" lon="-8.93026452">
				<ele>67.0</ele>
				<time>2014-08-17T16:39:05Z</time>
				<extensions>
					<speed>4.75</speed>
				</extensions>
			</trkpt>
			<trkpt lat="53.26424825" lon="-8.93021152">
				<ele>67.0</ele>
				<time>2014-08-17T16:39:06Z</time>
				<extensions>
					<speed>5.5</speed>
				</extensions>
			</trkpt>
			<trkpt lat="53.2642839" lon="-8.93015537">
				<ele>67.0</ele>
				<time>2014-08-17T16:39:07Z</time>
				<extensions>
					<speed>5.75</speed>
				</extensions>
			</trkpt>
			<trkpt lat="53.26432723" lon="-8.93009882">
				<ele>67.0</ele>
				<time>2014-08-17T16:39:08Z</time>
				<extensions>
					<speed>6.25</speed>
				</extensions>
			</trkpt>
			<trkpt lat="53.26437577" lon="-8.93004451">
				<ele>67.0</ele>
				<time>2014-08-17T16:39:09Z</time>
				<extensions>
					<speed>6.75</speed>
				</extensions>
			</trkpt>
			<trkpt lat="53.26443147" lon="-8.92997581">
				<ele>67.0</ele>
				<time>2014-08-17T16:39:10Z</time>
				<extensions>
					<speed>7.25</speed>
				</extensions>
			</trkpt>
			<trkpt lat="53.26448846" lon="-8.92990077">
				<ele>68.0</ele>
				<time>2014-08-17T16:39:11Z</time>
				<extensions>
					<speed>7.5</speed>
				</extensions>
			</trkpt>
			<trkpt lat="53.26454581" lon="-8.92983721">
				<ele>68.0</ele>
				<time>2014-08-17T16:39:12Z</time>
				<extensions>
					<speed>7.25</speed>
				</extensions>
			</trkpt>
			<trkpt lat="53.26458986" lon="-8.92980236">
				<ele>68.0</ele>
				<time>2014-08-17T16:39:13Z</time>
				<extensions>
					<speed>6.25</speed>
				</extensions>
			</trkpt>
			<trkpt lat="53.26463193" lon="-8.92978689">
				<ele>67.0</ele>
				<time>2014-08-17T16:39:14Z</time>
				<extensions>
					<speed>5.0</speed>
				</extensions>
			</trkpt>
			<trkpt lat="53.26466371" lon="-8.92977507">
				<ele>67.0</ele>
				<time>2014-08-17T16:39:15Z</time>
				<extensions>
					<speed>3.75</speed>
				</extensions>
			</trkpt>
			<trkpt lat="53.26470298" lon="-8.92974925">
				<ele>67.0</ele>
				<time>2014-08-17T16:39:16Z</time>
				<extensions>
					<speed>4.25</speed>
				</extensions>
			</trkpt>
			<trkpt lat="53.26473325" lon="-8.92970726">
				<ele>66.0</ele>
				<time>2014-08-17T16:39:17Z</time>
				<extensions>
					<speed>4.5</speed>
				</extensions>
			</trkpt>
			<trkpt lat="53.26474822" lon="-8.92963583">
				<ele>66.0</ele>
				<time>2014-08-17T16:39:18Z</time>
				<extensions>
					<speed>5.0</speed>
				</extensions>
			</trkpt>
			<trkpt lat="53.264738" lon="-8.92954531">
				<ele>66.0</ele>
				<time>2014-08-17T16:39:19Z</time>
				<extensions>
					<speed>5.5</speed>
				</extensions>
			</trkpt>
			<trkpt lat="53.2647196" lon="-8.92945528">
				<ele>66.0</ele>
				<time>2014-08-17T16:39:20Z</time>
				<extensions>
					<speed>6.25</speed>
				</extensions>
			</trkpt>
			<trkpt lat="53.26469799" lon="-8.92935823">
				<ele>66.0</ele>
				<time>2014-08-17T16:39:21Z</time>
				<extensions>
					<speed>6.5</speed>
				</extensions>
			</trkpt>
			<trkpt lat="53.2646778" lon="-8.92926222">
				<ele>67.0</ele>
				<time>2014-08-17T16:39:22Z</time>
				<extensions>
					<speed>6.75</speed>
				</extensions>
			</trkpt>
			<trkpt lat="53.2646573" lon="-8.92916697">
				<ele>67.0</ele>
				<time>2014-08-17T16:39:23Z</time>
				<extensions>
					<speed>6.75</speed>
				</extensions>
			</trkpt>
			<trkpt lat="53.26463977" lon="-8.92906112">
				<ele>67.0</ele>
				<time>2014-08-17T16:39:24Z</time>
				<extensions>
					<speed>7.0</speed>
				</extensions>
			</trkpt>
			<trkpt lat="53.26461714" lon="-8.92896348">
				<ele>67.0</ele>
				<time>2014-08-17T16:39:25Z</time>
				<extensions>
					<speed>7.25</speed>
				</extensions>
			</trkpt>
			<trkpt lat="53.2645958" lon="-8.92886403">
				<ele>67.0</ele>
				<time>2014-08-17T16:39:26Z</time>
				<extensions>
					<speed>7.25</speed>
				</extensions>
			</trkpt>
			<trkpt lat="53.26457872" lon="-8.92877247">
				<ele>66.0</ele>
				<time>2014-08-17T16:39:27Z</time>
				<extensions>
					<speed>7.0</speed>
				</extensions>
			</trkpt>
			<trkpt lat="53.26455644" lon="-8.92867353">
				<ele>66.0</ele>
				<time>2014-08-17T16:39:28Z</time>
				<extensions>
					<speed>6.5</speed>
				</extensions>
			</trkpt>
			<trkpt lat="53.26454001" lon="-8.92859451">
				<ele>67.0</ele>
				<time>2014-08-17T16:39:29Z</time>
				<extensions>
					<speed>6.0</speed>
				</extensions>
			</trkpt>
			<trkpt lat="53.26452624" lon="-8.92852267">
				<ele>67.0</ele>
				<time>2014-08-17T16:39:30Z</time>
				<extensions>
					<speed>4.75</speed>
				</extensions>
			</trkpt>
			<trkpt lat="53.26451659" lon="-8.92846258">
				<ele>67.0</ele>
				<time>2014-08-17T16:39:31Z</time>
				<extensions>
					<speed>4.25</speed>
				</extensions>
			</trkpt>
			<trkpt lat="53.2645052" lon="-8.92843933">
				<ele>68.0</ele>
				<time>2014-08-17T16:39:32Z</time>
				<extensions>
					<speed>2.25</speed>
				</extensions>
			</trkpt>
			<trkpt lat="53.26451021" lon="-8.9284248">
				<ele>68.0</ele>
				<time>2014-08-17T16:39:33Z</time>
				<extensions>
					<speed>1.25</speed>
				</extensions>
			</trkpt>
			<trkpt lat="53.26450559" lon="-8.92841333">
				<ele>69.0</ele>
				<time>2014-08-17T16:39:34Z</time>
				<extensions>
					<speed>0.25</speed>
				</extensions>
			</trkpt>
			<trkpt lat="53.26450505" lon="-8.92841379">
				<ele>69.0</ele>
				<time>2014-08-17T16:39:35Z</time>
				<extensions>
					<speed>0.0</speed>
				</extensions>
			</trkpt>
			<trkpt lat="53.2645045" lon="-8.92841765">
				<ele>68.0</ele>
				<time>2014-08-17T16:39:36Z</time>
				<extensions>
					<speed>0.0</speed>
				</extensions>
			</trkpt>
			<trkpt lat="53.26450412" lon="-8.92841733">
				<ele>68.0</ele>
				<time>2014-08-17T16:39:37Z</time>
				<extensions>
					<speed>0.0</speed>
				</extensions>
			</trkpt>
			<trkpt lat="53.26450371" lon="-8.92841065">
				<ele>68.0</ele>
				<time>2014-08-17T16:39:38Z</time>
				<extensions>
					<speed>0.75</speed>
				</extensions>
			</trkpt>
			<trkpt lat="53.26449893" lon="-8.92839313">
				<ele>68.0</ele>
				<time>2014-08-17T16:39:39Z</time>
				<extensions>
					<speed>0.75</speed>
				</extensions>
			</trkpt>
			<trkpt lat="53.26449549" lon="-8.92837305">
				<ele>67.0</ele>
				<time>2014-08-17T16:39:40Z</time>
				<extensions>
					<speed>1.25</speed>
				</extensions>
			</trkpt>
			<trkpt lat="53.2644963" lon="-8.92833284">
				<ele>67.0</ele>
				<time>2014-08-17T16:39:41Z</time>
				<extensions>
					<speed>2.75</speed>
				</extensions>
			</trkpt>
			<trkpt lat="53.26449745" lon="-8.92826675">
				<ele>67.0</ele>
				<time>2014-08-17T16:39:42Z</time>
				<extensions>
					<speed>4.25</speed>
				</extensions>
			</trkpt>
			<trkpt lat="53.26449211" lon="-8.92818212">
				<ele>67.0</ele>
				<time>2014-08-17T16:39:43Z</time>
				<extensions>
					<speed>5.5</speed>
				</extensions>
			</trkpt>
			<trkpt lat="53.26447513" lon="-8.92810192">
				<ele>67.0</ele>
				<time>2014-08-17T16:39:44Z</time>
				<extensions>
					<speed>5.5</speed>
				</extensions>
			</trkpt>
			<trkpt lat="53.26444771" lon="-8.92801877">
				<ele>67.0</ele>
				<time>2014-08-17T16:39:45Z</time>
				<extensions>
					<speed>6.25</speed>
				</extensions>
			</trkpt>
			<trkpt lat="53.26441488" lon="-8.92791936">
				<ele>67.0</ele>
				<time>2014-08-17T16:39:46Z</time>
				<extensions>
					<speed>7.5</speed>
				</extensions>
			</trkpt>
			<trkpt lat="53.26437752" lon="-8.9278107">
				<ele>67.0</ele>
				<time>2014-08-17T16:39:47Z</time>
				<extensions>
					<speed>8.25</speed>
				</extensions>
			</trkpt>
			<trkpt lat="53.26434368" lon="-8.92769602">
				<ele>67.0</ele>
				<time>2014-08-17T16:39:48Z</time>
				<extensions>
					<speed>8.5</speed>
				</extensions>
			</trkpt>
			<trkpt lat="53.26430713" lon="-8.92758157">
				<ele>67.0</ele>
				<time>2014-08-17T16:39:49Z</time>
				<extensions>
					<speed>8.5</speed>
				</extensions>
			</trkpt>
			<trkpt lat="53.26427812" lon="-8.92746972">
				<ele>67.0</ele>
				<time>2014-08-17T16:39:50Z</time>
				<extensions>
					<speed>8.25</speed>
				</extensions>
			</trkpt>
			<trkpt lat="53.26424781" lon="-8.92735681">
				<ele>67.0</ele>
				<time>2014-08-17T16:39:51Z</time>
				<extensions>
					<speed>8.25</speed>
				</extensions>
			</trkpt>
			<trkpt lat="53.26422031" lon="-8.92724229">
				<ele>67.0</ele>
				<time>2014-08-17T16:39:52Z</time>
				<extensions>
					<speed>8.25</speed>
				</extensions>
			</trkpt>
			<trkpt lat="53.26419045" lon="-8.92712976">
				<ele>67.0</ele>
				<time>2014-08-17T16:39:53Z</time>
				<extensions>
					<speed>8.0</speed>
				</extensions>
			</trkpt>
			<trkpt lat="53.26416516" lon="-8.92702313">
				<ele>67.0</ele>
				<time>2014-08-17T16:39:54Z</time>
				<extensions>
					<speed>8.0</speed>
				</extensions>
			</trkpt>
			<trkpt lat="53.26413376" lon="-8.92692502">
				<ele>67.0</ele>
				<time>2014-08-17T16:39:55Z</time>
				<extensions>
					<speed>7.75</speed>
				</extensions>
			</trkpt>
			<trkpt lat="53.26410241" lon="-8.92681354">
				<ele>67.0</ele>
				<time>2014-08-17T16:39:56Z</time>
				<extensions>
					<speed>8.25</speed>
				</extensions>
			</trkpt>
			<trkpt lat="53.26406589" lon="-8.92669331">
				<ele>67.0</ele>
				<time>2014-08-17T16:39:57Z</time>
				<extensions>
					<speed>9.25</speed>
				</extensions>
			</trkpt>
			<trkpt lat="53.26402966" lon="-8.92655344">
				<ele>67.0</ele>
				<time>2014-08-17T16:39:58Z</time>
				<extensions>
					<speed>10.0</speed>
				</extensions>
			</trkpt>
			<trkpt lat="53.26399294" lon="-8.92640424">
				<ele>67.0</ele>
				<time>2014-08-17T16:39:59Z</time>
				<extensions>
					<speed>10.5</speed>
				</extensions>
			</trkpt>
			<trkpt lat="53.26395794" lon="-8.92626225">
				<ele>67.0</ele>
				<time>2014-08-17T16:40:00Z</time>
				<extensions>
					<speed>10.5</speed>
				</extensions>
			</trkpt>
			<trkpt lat="53.26392098" lon="-8.92611955">
				<ele>67.0</ele>
				<time>2014-08-17T16:40:01Z</time>
				<extensions>
					<speed>10.25</speed>
				</extensions>
			</trkpt>
			<trkpt lat="53.26388766" lon="-8.92598506">
				<ele>67.0</ele>
				<time>2014-08-17T16:40:02Z</time>
				<extensions>
					<speed>10.25</speed>
				</extensions>
			</trkpt>
			<trkpt lat="53.26385358" lon="-8.92584361">
				<ele>67.0</ele>
				<time>2014-08-17T16:40:03Z</time>
				<extensions>
					<speed>10.25</speed>
				</extensions>
			</trkpt>
			<trkpt lat="53.2638304" lon="-8.92569888">
				<ele>67.0</ele>
				<time>2014-08-17T16:40:04Z</time>
				<extensions>
					<speed>9.5</speed>
				</extensions>
			</trkpt>
			<trkpt lat="53.26378694" lon="-8.9255829">
				<ele>67.0</ele>
				<time>2014-08-17T16:40:05Z</time>
				<extensions>
					<speed>8.25</speed>
				</extensions>
			</trkpt>
			<trkpt lat="53.26375775" lon="-8.92547532">
				<ele>66.0</ele>
				<time>2014-08-17T16:40:06Z</time>
				<extensions>
					<speed>7.0</speed>
				</extensions>
			</trkpt>
			<trkpt lat="53.26372597" lon="-8.92540313">
				<ele>67.0</ele>
				<time>2014-08-17T16:40:07Z</time>
				<extensions>
					<speed>6.25</speed>
				</extensions>
			</trkpt>
			<trkpt lat="53.26368044" lon="-8.92535386">
				<ele>68.0</ele>
				<time>2014-08-17T16:40:08Z</time>
				<extensions>
					<speed>5.75</speed>
				</extensions>
			</trkpt>
			<trkpt lat="53.26363302" lon="-8.92534011">
				<ele>68.0</ele>
				<time>2014-08-17T16:40:09Z</time>
				<extensions>
					<speed>5.25</speed>
				</extensions>
			</trkpt>
			<trkpt lat="53.2635761" lon="-8.92534023">
				<ele>67.0</ele>
				<time>2014-08-17T16:40:10Z</time>
				<extensions>
					<speed>5.0</speed>
				</extensions>
			</trkpt>
			<trkpt lat="53.26354664" lon="-8.92538019">
				<ele>66.0</ele>
				<time>2014-08-17T16:40:11Z</time>
				<extensions>
					<speed>5.25</speed>
				</extensions>
			</trkpt>
			<trkpt lat="53.26350047" lon="-8.92541227">
				<ele>66.0</ele>
				<time>2014-08-17T16:40:12Z</time>
				<extensions>
					<speed>5.5</speed>
				</extensions>
			</trkpt>
			<trkpt lat="53.26345637" lon="-8.92544899">
				<ele>67.0</ele>
				<time>2014-08-17T16:40:13Z</time>
				<extensions>
					<speed>5.5</speed>
				</extensions>
			</trkpt>
			<trkpt lat="53.2634222" lon="-8.92548661">
				<ele>67.0</ele>
				<time>2014-08-17T16:40:14Z</time>
				<extensions>
					<speed>5.25</speed>
				</extensions>
			</trkpt>
			<trkpt lat="53.26337701" lon="-8.92551767">
				<ele>67.0</ele>
				<time>2014-08-17T16:40:15Z</time>
				<extensions>
					<speed>5.25</speed>
				</extensions>
			</trkpt>
			<trkpt lat="53.26333195" lon="-8.92553302">
				<ele>67.0</ele>
				<time>2014-08-17T16:40:16Z</time>
				<extensions>
					<speed>5.0</speed>
				</extensions>
			</trkpt>
			<trkpt lat="53.26329435" lon="-8.92554351">
				<ele>67.0</ele>
				<time>2014-08-17T16:40:17Z</time>
				<extensions>
					<speed>3.5</speed>
				</extensions>
			</trkpt>
			<trkpt lat="53.26327933" lon="-8.9255453">
				<ele>67.0</ele>
				<time>2014-08-17T16:40:18Z</time>
				<extensions>
					<speed>1.75</speed>
				</extensions>
			</trkpt>
			<trkpt lat="53.26327181" lon="-8.92555007">
				<ele>66.0</ele>
				<time>2014-08-17T16:40:19Z</time>
				<extensions>
					<speed>0.75</speed>
				</extensions>
			</trkpt>
			<trkpt lat="53.26326916" lon="-8.92554945">
				<ele>67.0</ele>
				<time>2014-08-17T16:40:20Z</time>
				<extensions>
					<speed>0.0</speed>
				</extensions>
			</trkpt>
			<trkpt lat="53.26326916" lon="-8.92554945">
				<ele>67.0</ele>
				<time>2014-08-17T16:40:21Z</time>
				<extensions>
					<speed>0.0</speed>
				</extensions>
			</trkpt>
			<trkpt lat="53.2632706" lon="-8.9255371">
				<ele>66.0</ele>
				<time>2014-08-17T16:40:22Z</time>
				<extensions>
					<speed>0.0</speed>
				</extensions>
			</trkpt>
			<trkpt lat="53.26327555" lon="-8.92553609">
				<ele>67.0</ele>
				<time>2014-08-17T16:40:23Z</time>
				<extensions>
					<speed>0.0</speed>
				</extensions>
			</trkpt>
			<trkpt lat="53.26327929" lon="-8.9255339">
				<ele>66.0</ele>
				<time>2014-08-17T16:40:24Z</time>
				<extensions>
					<speed>0.0</speed>
				</extensions>
			</trkpt>
			<trkpt lat="53.26328165" lon="-8.92553554">
				<ele>66.0</ele>
				<time>2014-08-17T16:40:25Z</time>
				<extensions>
					<speed>0.0</speed>
				</extensions>
			</trkpt>
			<trkpt lat="53.26328427" lon="-8.92553638">
				<ele>67.0</ele>
				<time>2014-08-17T16:40:26Z</time>
				<extensions>
					<speed>0.0</speed>
				</extensions>
			</trkpt>
			<trkpt lat="53.26328407" lon="-8.92553563">
				<ele>67.0</ele>
				<time>2014-08-17T16:40:27Z</time>
				<extensions>
					<speed>0.0</speed>
				</extensions>
			</trkpt>
			<trkpt lat="53.26328642" lon="-8.92553678">
				<ele>67.0</ele>
				<time>2014-08-17T16:40:28Z</time>
				<extensions>
					<speed>0.0</speed>
				</extensions>
			</trkpt>
			<trkpt lat="53.26328708" lon="-8.92553639">
				<ele>67.0</ele>
				<time>2014-08-17T16:40:29Z</time>
				<extensions>
					<speed>0.0</speed>
				</extensions>
			</trkpt>
			<trkpt lat="53.26328778" lon="-8.92553321">
				<ele>67.0</ele>
				<time>2014-08-17T16:40:30Z</time>
				<extensions>
					<speed>0.0</speed>
				</extensions>
			</trkpt>
			<trkpt lat="53.26328796" lon="-8.92553323">
				<ele>67.0</ele>
				<time>2014-08-17T16:40:31Z</time>
				<extensions>
					<speed>0.0</speed>
				</extensions>
			</trkpt>
			<trkpt lat="53.26328813" lon="-8.92553304">
				<ele>67.0</ele>
				<time>2014-08-17T16:40:32Z</time>
				<extensions>
					<speed>0.0</speed>
				</extensions>
			</trkpt>
			<trkpt lat="53.26328804" lon="-8.92553283">
				<ele>67.0</ele>
				<time>2014-08-17T16:40:33Z</time>
				<extensions>
					<speed>0.0</speed>
				</extensions>
			</trkpt>
			<trkpt lat="53.26328805" lon="-8.9255328">
				<ele>67.0</ele>
				<time>2014-08-17T16:40:34Z</time>
				<extensions>
					<speed>0.0</speed>
				</extensions>
			</trkpt>
			<trkpt lat="53.26328804" lon="-8.92553279">
				<ele>67.0</ele>
				<time>2014-08-17T16:40:35Z</time>
				<extensions>
					<speed>0.0</speed>
				</extensions>
			</trkpt>
			<trkpt lat="53.26328802" lon="-8.92553279">
				<ele>67.0</ele>
				<time>2014-08-17T16:40:36Z</time>
				<extensions>
					<speed>0.0</speed>
				</extensions>
			</trkpt>
			<trkpt lat="53.263288" lon="-8.92553281">
				<ele>67.0</ele>
				<time>2014-08-17T16:40:37Z</time>
				<extensions>
					<speed>0.0</speed>
				</extensions>
			</trkpt>
			<trkpt lat="53.26328797" lon="-8.92553285">
				<ele>67.0</ele>
				<time>2014-08-17T16:40:38Z</time>
				<extensions>
					<speed>0.0</speed>
				</extensions>
			</trkpt>
			<trkpt lat="53.26328794" lon="-8.9255329">
				<ele>67.0</ele>
				<time>2014-08-17T16:40:39Z</time>
				<extensions>
					<speed>0.0</speed>
				</extensions>
			</trkpt>
			<trkpt lat="53.26328792" lon="-8.92553295">
				<ele>67.0</ele>
				<time>2014-08-17T16:40:40Z</time>
				<extensions>
					<speed>0.0</speed>
				</extensions>
			</trkpt>
			<trkpt lat="53.26328791" lon="-8.92553296">
				<ele>67.0</ele>
				<time>2014-08-17T16:40:41Z</time>
				<extensions>
					<speed>0.0</speed>
				</extensions>
			</trkpt>
			<trkpt lat="53.2632879" lon="-8.92553299">
				<ele>67.0</ele>
				<time>2014-08-17T16:40:42Z</time>
				<extensions>
					<speed>0.0</speed>
				</extensions>
			</trkpt>
			<trkpt lat="53.26328789" lon="-8.92553301">
				<ele>67.0</ele>
				<time>2014-08-17T16:40:43Z</time>
				<extensions>
					<speed>0.0</speed>
				</extensions>
			</trkpt>
			<trkpt lat="53.26328785" lon="-8.92553301">
				<ele>67.0</ele>
				<time>2014-08-17T16:40:44Z</time>
				<extensions>
					<speed>0.0</speed>
				</extensions>
			</trkpt>
			<trkpt lat="53.26328784" lon="-8.92553307">
				<ele>67.0</ele>
				<time>2014-08-17T16:40:45Z</time>
				<extensions>
					<speed>0.0</speed>
				</extensions>
			</trkpt>
			<trkpt lat="53.26328782" lon="-8.92553315">
				<ele>67.0</ele>
				<time>2014-08-17T16:40:46Z</time>
				<extensions>
					<speed>0.0</speed>
				</extensions>
			</trkpt>
			<trkpt lat="53.26328778" lon="-8.92553319">
				<ele>67.0</ele>
				<time>2014-08-17T16:40:47Z</time>
				<extensions>
					<speed>0.0</speed>
				</extensions>
			</trkpt>
			<trkpt lat="53.26328771" lon="-8.92553325">
				<ele>67.0</ele>
				<time>2014-08-17T16:40:48Z</time>
				<extensions>
					<speed>0.0</speed>
				</extensions>
			</trkpt>
			<trkpt lat="53.26328766" lon="-8.92553332">
				<ele>67.0</ele>
				<time>2014-08-17T16:40:49Z</time>
				<extensions>
					<speed>0.0</speed>
				</extensions>
			</trkpt>
			<trkpt lat="53.26328759" lon="-8.92553338">
				<ele>67.0</ele>
				<time>2014-08-17T16:40:50Z</time>
				<extensions>
					<speed>0.0</speed>
				</extensions>
			</trkpt>
			<trkpt lat="53.26328756" lon="-8.92553342">
				<ele>67.0</ele>
				<time>2014-08-17T16:40:51Z</time>
				<extensions>
					<speed>0.0</speed>
				</extensions>
			</trkpt>
			<trkpt lat="53.26328747" lon="-8.92553349">
				<ele>67.0</ele>
				<time>2014-08-17T16:40:52Z</time>
				<extensions>
					<speed>0.0</speed>
				</extensions>
			</trkpt>
			<trkpt lat="53.26328741" lon="-8.92553355">
				<ele>67.0</ele>
				<time>2014-08-17T16:40:53Z</time>
				<extensions>
					<speed>0.0</speed>
				</extensions>
			</trkpt>
			<trkpt lat="53.2632874" lon="-8.92553363">
				<ele>67.0</ele>
				<time>2014-08-17T16:40:54Z</time>
				<extensions>
					<speed>0.0</speed>
				</extensions>
			</trkpt>
			<trkpt lat="53.26328556" lon="-8.92553423">
				<ele>67.0</ele>
				<time>2014-08-17T16:40:55Z</time>
				<extensions>
					<speed>1.5</speed>
				</extensions>
			</trkpt>
			<trkpt lat="53.26325973" lon="-8.925544">
				<ele>66.0</ele>
				<time>2014-08-17T16:40:56Z</time>
				<extensions>
					<speed>2.5</speed>
				</extensions>
			</trkpt>
			<trkpt lat="53.26323238" lon="-8.92555698">
				<ele>67.0</ele>
				<time>2014-08-17T16:40:57Z</time>
				<extensions>
					<speed>3.0</speed>
				</extensions>
			</trkpt>
			<trkpt lat="53.26319415" lon="-8.92556517">
				<ele>67.0</ele>
				<time>2014-08-17T16:40:58Z</time>
				<extensions>
					<speed>3.75</speed>
				</extensions>
			</trkpt>
			<trkpt lat="53.26315925" lon="-8.92557075">
				<ele>67.0</ele>
				<time>2014-08-17T16:40:59Z</time>
				<extensions>
					<speed>3.75</speed>
				</extensions>
			</trkpt>
			<trkpt lat="53.26312745" lon="-8.92557931">
				<ele>67.0</ele>
				<time>2014-08-17T16:41:00Z</time>
				<extensions>
					<speed>3.5</speed>
				</extensions>
			</trkpt>
			<trkpt lat="53.26309625" lon="-8.92557998">
				<ele>67.0</ele>
				<time>2014-08-17T16:41:01Z</time>
				<extensions>
					<speed>3.25</speed>
				</extensions>
			</trkpt>
			<trkpt lat="53.26307154" lon="-8.92558544">
				<ele>68.0</ele>
				<time>2014-08-17T16:41:02Z</time>
				<extensions>
					<speed>2.75</speed>
				</extensions>
			</trkpt>
			<trkpt lat="53.26304909" lon="-8.92558386">
				<ele>68.0</ele>
				<time>2014-08-17T16:41:03Z</time>
				<extensions>
					<speed>2.0</speed>
				</extensions>
			</trkpt>
			<trkpt lat="53.26303614" lon="-8.92558744">
				<ele>68.0</ele>
				<time>2014-08-17T16:41:04Z</time>
				<extensions>
					<speed>1.0</speed>
				</extensions>
			</trkpt>
			<trkpt lat="53.26302907" lon="-8.92558123">
				<ele>67.0</ele>
				<time>2014-08-17T16:41:05Z</time>
				<extensions>
					<speed>0.0</speed>
				</extensions>
			</trkpt>
			<trkpt lat="53.26302917" lon="-8.92557997">
				<ele>68.0</ele>
				<time>2014-08-17T16:41:06Z</time>
				<extensions>
					<speed>0.0</speed>
				</extensions>
			</trkpt>
			<trkpt lat="53.26303026" lon="-8.92558212">
				<ele>69.0</ele>
				<time>2014-08-17T16:41:07Z</time>
				<extensions>
					<speed>0.0</speed>
				</extensions>
			</trkpt>
			<trkpt lat="53.2630301" lon="-8.92558423">
				<ele>69.0</ele>
				<time>2014-08-17T16:41:08Z</time>
				<extensions>
					<speed>0.0</speed>
				</extensions>
			</trkpt>
			<trkpt lat="53.26302965" lon="-8.92558716">
				<ele>69.0</ele>
				<time>2014-08-17T16:41:09Z</time>
				<extensions>
					<speed>0.0</speed>
				</extensions>
			</trkpt>
			<trkpt lat="53.26302879" lon="-8.9255872">
				<ele>69.0</ele>
				<time>2014-08-17T16:41:10Z</time>
				<extensions>
					<speed>0.0</speed>
				</extensions>
			</trkpt>
			<trkpt lat="53.26302815" lon="-8.92558696">
				<ele>69.0</ele>
				<time>2014-08-17T16:41:11Z</time>
				<extensions>
					<speed>0.0</speed>
				</extensions>
			</trkpt>
			<trkpt lat="53.26302916" lon="-8.92558495">
				<ele>69.0</ele>
				<time>2014-08-17T16:41:12Z</time>
				<extensions>
					<speed>0.0</speed>
				</extensions>
			</trkpt>
			<trkpt lat="53.26302972" lon="-8.92558104">
				<ele>69.0</ele>
				<time>2014-08-17T16:41:13Z</time>
				<extensions>
					<speed>0.0</speed>
				</extensions>
			</trkpt>
			<trkpt lat="53.26302913" lon="-8.92558348">
				<ele>69.0</ele>
				<time>2014-08-17T16:41:14Z</time>
				<extensions>
					<speed>0.0</speed>
				</extensions>
			</trkpt>
			<trkpt lat="53.26302866" lon="-8.92558437">
				<ele>69.0</ele>
				<time>2014-08-17T16:41:15Z</time>
				<extensions>
					<speed>0.0</speed>
				</extensions>
			</trkpt>
			<trkpt lat="53.2630289" lon="-8.92558394">
				<ele>69.0</ele>
				<time>2014-08-17T16:41:16Z</time>
				<extensions>
					<speed>0.0</speed>
				</extensions>
			</trkpt>
			<trkpt lat="53.26302885" lon="-8.92558433">
				<ele>69.0</ele>
				<time>2014-08-17T16:41:17Z</time>
				<extensions>
					<speed>0.0</speed>
				</extensions>
			</trkpt>
			<trkpt lat="53.26302882" lon="-8.92558444">
				<ele>69.0</ele>
				<time>2014-08-17T16:41:18Z</time>
				<extensions>
					<speed>0.0</speed>
				</extensions>
			</trkpt>
			<trkpt lat="53.26302879" lon="-8.92558442">
				<ele>69.0</ele>
				<time>2014-08-17T16:41:19Z</time>
				<extensions>
					<speed>0.0</speed>
				</extensions>
			</trkpt>
			<trkpt lat="53.26302621" lon="-8.92558452">
				<ele>69.0</ele>
				<time>2014-08-17T16:41:20Z</time>
				<extensions>
					<speed>1.5</speed>
				</extensions>
			</trkpt>
			<trkpt lat="53.26300377" lon="-8.92558731">
				<ele>70.0</ele>
				<time>2014-08-17T16:41:21Z</time>
				<extensions>
					<speed>3.0</speed>
				</extensions>
			</trkpt>
			<trkpt lat="53.2629708" lon="-8.92558403">
				<ele>70.0</ele>
				<time>2014-08-17T16:41:22Z</time>
				<extensions>
					<speed>4.0</speed>
				</extensions>
			</trkpt>
			<trkpt lat="53.26293076" lon="-8.92557433">
				<ele>69.0</ele>
				<time>2014-08-17T16:41:23Z</time>
				<extensions>
					<speed>4.25</speed>
				</extensions>
			</trkpt>
			<trkpt lat="53.26288931" lon="-8.92556999">
				<ele>69.0</ele>
				<time>2014-08-17T16:41:24Z</time>
				<extensions>
					<speed>4.25</speed>
				</extensions>
			</trkpt>
			<trkpt lat="53.26284494" lon="-8.92555003">
				<ele>69.0</ele>
				<time>2014-08-17T16:41:25Z</time>
				<extensions>
					<speed>5.0</speed>
				</extensions>
			</trkpt>
			<trkpt lat="53.26279626" lon="-8.92553464">
				<ele>69.0</ele>
				<time>2014-08-17T16:41:26Z</time>
				<extensions>
					<speed>5.75</speed>
				</extensions>
			</trkpt>
			<trkpt lat="53.26274334" lon="-8.92551265">
				<ele>69.0</ele>
				<time>2014-08-17T16:41:27Z</time>
				<extensions>
					<speed>6.0</speed>
				</extensions>
			</trkpt>
			<trkpt lat="53.2626901" lon="-8.92548157">
				<ele>70.0</ele>
				<time>2014-08-17T16:41:28Z</time>
				<extensions>
					<speed>6.25</speed>
				</extensions>
			</trkpt>
			<trkpt lat="53.26264199" lon="-8.92544816">
				<ele>69.0</ele>
				<time>2014-08-17T16:41:29Z</time>
				<extensions>
					<speed>5.75</speed>
				</extensions>
			</trkpt>
			<trkpt lat="53.26259729" lon="-8.92540934">
				<ele>69.0</ele>
				<time>2014-08-17T16:41:30Z</time>
				<extensions>
					<speed>5.75</speed>
				</extensions>
			</trkpt>
			<trkpt lat="53.2625512" lon="-8.92536733">
				<ele>69.0</ele>
				<time>2014-08-17T16:41:31Z</time>
				<extensions>
					<speed>5.75</speed>
				</extensions>
			</trkpt>
			<trkpt lat="53.26251106" lon="-8.92533219">
				<ele>69.0</ele>
				<time>2014-08-17T16:41:32Z</time>
				<extensions>
					<speed>5.25</speed>
				</extensions>
			</trkpt>
			<trkpt lat="53.26247576" lon="-8.92530528">
				<ele>69.0</ele>
				<time>2014-08-17T16:41:33Z</time>
				<extensions>
					<speed>4.0</speed>
				</extensions>
			</trkpt>
			<trkpt lat="53.26244981" lon="-8.92528181">
				<ele>70.0</ele>
				<time>2014-08-17T16:41:34Z</time>
				<extensions>
					<speed>2.5</speed>
				</extensions>
			</trkpt>
			<trkpt lat="53.2624285" lon="-8.92525803">
				<ele>69.0</ele>
				<time>2014-08-17T16:41:35Z</time>
				<extensions>
					<speed>1.5</speed>
				</extensions>
			</trkpt>
			<trkpt lat="53.26242168" lon="-8.92524851">
				<ele>69.0</ele>
				<time>2014-08-17T16:41:36Z</time>
				<extensions>
					<speed>0.75</speed>
				</extensions>
			</trkpt>
			<trkpt lat="53.26241182" lon="-8.92525153">
				<ele>69.0</ele>
				<time>2014-08-17T16:41:37Z</time>
				<extensions>
					<speed>0.0</speed>
				</extensions>
			</trkpt>
			<trkpt lat="53.26240967" lon="-8.92525574">
				<ele>70.0</ele>
				<time>2014-08-17T16:41:38Z</time>
				<extensions>
					<speed>0.0</speed>
				</extensions>
			</trkpt>
			<trkpt lat="53.26240605" lon="-8.92525951">
				<ele>70.0</ele>
				<time>2014-08-17T16:41:39Z</time>
				<extensions>
					<speed>0.0</speed>
				</extensions>
			</trkpt>
			<trkpt lat="53.2624074" lon="-8.92526113">
				<ele>70.0</ele>
				<time>2014-08-17T16:41:40Z</time>
				<extensions>
					<speed>0.0</speed>
				</extensions>
			</trkpt>
			<trkpt lat="53.26240499" lon="-8.92526279">
				<ele>70.0</ele>
				<time>2014-08-17T16:41:41Z</time>
				<extensions>
					<speed>0.0</speed>
				</extensions>
			</trkpt>
			<trkpt lat="53.2624016" lon="-8.92526904">
				<ele>71.0</ele>
				<time>2014-08-17T16:41:42Z</time>
				<extensions>
					<speed>0.0</speed>
				</extensions>
			</trkpt>
			<trkpt lat="53.26240103" lon="-8.92526841">
				<ele>71.0</ele>
				<time>2014-08-17T16:41:43Z</time>
				<extensions>
					<speed>0.5</speed>
				</extensions>
			</trkpt>
			<trkpt lat="53.26239009" lon="-8.92526116">
				<ele>71.0</ele>
				<time>2014-08-17T16:41:44Z</time>
				<extensions>
					<speed>2.0</speed>
				</extensions>
			</trkpt>
			<trkpt lat="53.2623606" lon="-8.9252475">
				<ele>71.0</ele>
				<time>2014-08-17T16:41:45Z</time>
				<extensions>
					<speed>3.25</speed>
				</extensions>
			</trkpt>
			<trkpt lat="53.26232936" lon="-8.92522891">
				<ele>71.0</ele>
				<time>2014-08-17T16:41:46Z</time>
				<extensions>
					<speed>4.0</speed>
				</extensions>
			</trkpt>
			<trkpt lat="53.26229862" lon="-8.92520968">
				<ele>71.0</ele>
				<time>2014-08-17T16:41:47Z</time>
				<extensions>
					<speed>3.75</speed>
				</extensions>
			</trkpt>
			<trkpt lat="53.2622682" lon="-8.92518917">
				<ele>70.0</ele>
				<time>2014-08-17T16:41:48Z</time>
				<extensions>
					<speed>3.75</speed>
				</extensions>
			</trkpt>
			<trkpt lat="53.26223777" lon="-8.92516867">
				<ele>70.0</ele>
				<time>2014-08-17T16:41:49Z</time>
				<extensions>
					<speed>3.75</speed>
				</extensions>
			</trkpt>
			<trkpt lat="53.26221178" lon="-8.92516281">
				<ele>69.0</ele>
				<time>2014-08-17T16:41:50Z</time>
				<extensions>
					<speed>4.0</speed>
				</extensions>
			</trkpt>
			<trkpt lat="53.26217524" lon="-8.92514309">
				<ele>69.0</ele>
				<time>2014-08-17T16:41:51Z</time>
				<extensions>
					<speed>4.75</speed>
				</extensions>
			</trkpt>
			<trkpt lat="53.26213132" lon="-8.92512282">
				<ele>70.0</ele>
				<time>2014-08-17T16:41:52Z</time>
				<extensions>
					<speed>5.0</speed>
				</extensions>
			</trkpt>
			<trkpt lat="53.26208616" lon="-8.92510228">
				<ele>69.0</ele>
				<time>2014-08-17T16:41:53Z</time>
				<extensions>
					<speed>5.0</speed>
				</extensions>
			</trkpt>
			<trkpt lat="53.26204323" lon="-8.92509154">
				<ele>69.0</ele>
				<time>2014-08-17T16:41:54Z</time>
				<extensions>
					<speed>5.0</speed>
				</extensions>
			</trkpt>
			<trkpt lat="53.26199901" lon="-8.92508408">
				<ele>69.0</ele>
				<time>2014-08-17T16:41:55Z</time>
				<extensions>
					<speed>4.75</speed>
				</extensions>
			</trkpt>
			<trkpt lat="53.26195973" lon="-8.92507803">
				<ele>68.0</ele>
				<time>2014-08-17T16:41:56Z</time>
				<extensions>
					<speed>4.25</speed>
				</extensions>
			</trkpt>
			<trkpt lat="53.26193202" lon="-8.92507835">
				<ele>67.0</ele>
				<time>2014-08-17T16:41:57Z</time>
				<extensions>
					<speed>4.0</speed>
				</extensions>
			</trkpt>
			<trkpt lat="53.26191167" lon="-8.92509906">
				<ele>66.0</ele>
				<time>2014-08-17T16:41:58Z</time>
				<extensions>
					<speed>3.25</speed>
				</extensions>
			</trkpt>
			<trkpt lat="53.2619033" lon="-8.92514307">
				<ele>67.0</ele>
				<time>2014-08-17T16:41:59Z</time>
				<extensions>
					<speed>2.5</speed>
				</extensions>
			</trkpt>
			<trkpt lat="53.26190425" lon="-8.92516947">
				<ele>67.0</ele>
				<time>2014-08-17T16:42:00Z</time>
				<extensions>
					<speed>1.5</speed>
				</extensions>
			</trkpt>
			<trkpt lat="53.26190098" lon="-8.925183">
				<ele>67.0</ele>
				<time>2014-08-17T16:42:01Z</time>
				<extensions>
					<speed>0.0</speed>
				</extensions>
			</trkpt>
			<trkpt lat="53.26190262" lon="-8.92518055">
				<ele>66.0</ele>
				<time>2014-08-17T16:42:02Z</time>
				<extensions>
					<speed>0.0</speed>
				</extensions>
			</trkpt>
			<trkpt lat="53.26189926" lon="-8.92517621">
				<ele>66.0</ele>
				<time>2014-08-17T16:42:03Z</time>
				<extensions>
					<speed>0.0</speed>
				</extensions>
			</trkpt>
			<trkpt lat="53.2618996" lon="-8.92517233">
				<ele>66.0</ele>
				<time>2014-08-17T16:42:04Z</time>
				<extensions>
					<speed>1.25</speed>
				</extensions>
			</trkpt>
			<trkpt lat="53.26189404" lon="-8.92514781">
				<ele>66.0</ele>
				<time>2014-08-17T16:42:05Z</time>
				<extensions>
					<speed>1.75</speed>
				</extensions>
			</trkpt>
			<trkpt lat="53.26189193" lon="-8.92513461">
				<ele>65.0</ele>
				<time>2014-08-17T16:42:06Z</time>
				<extensions>
					<speed>0.5</speed>
				</extensions>
			</trkpt>
			<trkpt lat="53.26189353" lon="-8.92514231">
				<ele>66.0</ele>
				<time>2014-08-17T16:42:07Z</time>
				<extensions>
					<speed>0.0</speed>
				</extensions>
			</trkpt>
			<trkpt lat="53.26189468" lon="-8.92514418">
				<ele>66.0</ele>
				<time>2014-08-17T16:42:08Z</time>
				<extensions>
					<speed>1.5</speed>
				</extensions>
			</trkpt>
			<trkpt lat="53.26191152" lon="-8.92515224">
				<ele>66.0</ele>
				<time>2014-08-17T16:42:09Z</time>
				<extensions>
					<speed>2.5</speed>
				</extensions>
			</trkpt>
			<trkpt lat="53.26193137" lon="-8.92516068">
				<ele>67.0</ele>
				<time>2014-08-17T16:42:10Z</time>
				<extensions>
					<speed>2.5</speed>
				</extensions>
			</trkpt>
			<trkpt lat="53.26195618" lon="-8.92516266">
				<ele>67.0</ele>
				<time>2014-08-17T16:42:11Z</time>
				<extensions>
					<speed>3.25</speed>
				</extensions>
			</trkpt>
			<trkpt lat="53.26198436" lon="-8.92516522">
				<ele>67.0</ele>
				<time>2014-08-17T16:42:12Z</time>
				<extensions>
					<speed>3.25</speed>
				</extensions>
			</trkpt>
			<trkpt lat="53.26201255" lon="-8.92516778">
				<ele>67.0</ele>
				<time>2014-08-17T16:42:13Z</time>
				<extensions>
					<speed>3.25</speed>
				</extensions>
			</trkpt>
			<trkpt lat="53.26203095" lon="-8.9251715">
				<ele>67.0</ele>
				<time>2014-08-17T16:42:14Z</time>
				<extensions>
					<speed>2.75</speed>
				</extensions>
			</trkpt>
			<trkpt lat="53.26205016" lon="-8.92518398">
				<ele>67.0</ele>
				<time>2014-08-17T16:42:15Z</time>
				<extensions>
					<speed>2.0</speed>
				</extensions>
			</trkpt>
			<trkpt lat="53.26206618" lon="-8.92517741">
				<ele>66.0</ele>
				<time>2014-08-17T16:42:16Z</time>
				<extensions>
					<speed>1.0</speed>
				</extensions>
			</trkpt>
			<trkpt lat="53.26206792" lon="-8.92517495">
				<ele>66.0</ele>
				<time>2014-08-17T16:42:17Z</time>
				<extensions>
					<speed>0.0</speed>
				</extensions>
			</trkpt>
			<trkpt lat="53.26207328" lon="-8.92516435">
				<ele>67.0</ele>
				<time>2014-08-17T16:42:18Z</time>
				<extensions>
					<speed>0.0</speed>
				</extensions>
			</trkpt>
			<trkpt lat="53.2620738" lon="-8.9251612">
				<ele>66.0</ele>
				<time>2014-08-17T16:42:19Z</time>
				<extensions>
					<speed>0.0</speed>
				</extensions>
			</trkpt>
			<trkpt lat="53.26207439" lon="-8.92515814">
				<ele>66.0</ele>
				<time>2014-08-17T16:42:20Z</time>
				<extensions>
					<speed>0.0</speed>
				</extensions>
			</trkpt>
			<trkpt lat="53.26207014" lon="-8.92515085">
				<ele>67.0</ele>
				<time>2014-08-17T16:42:21Z</time>
				<extensions>
					<speed>0.0</speed>
				</extensions>
			</trkpt>
			<trkpt lat="53.26206494" lon="-8.92514838">
				<ele>66.0</ele>
				<time>2014-08-17T16:42:22Z</time>
				<extensions>
					<speed>0.0</speed>
				</extensions>
			</trkpt>
			<trkpt lat="53.26206621" lon="-8.92515068">
				<ele>67.0</ele>
				<time>2014-08-17T16:42:23Z</time>
				<extensions>
					<speed>0.0</speed>
				</extensions>
			</trkpt>
			<trkpt lat="53.2620665" lon="-8.92515555">
				<ele>67.0</ele>
				<time>2014-08-17T16:42:24Z</time>
				<extensions>
					<speed>0.0</speed>
				</extensions>
			</trkpt>
			<trkpt lat="53.2620665" lon="-8.92515555">
				<ele>67.0</ele>
				<time>2014-08-17T16:42:25Z</time>
				<extensions>
					<speed>0.0</speed>
				</extensions>
			</trkpt>
			<trkpt lat="53.2620665" lon="-8.92515555">
				<ele>67.0</ele>
				<time>2014-08-17T16:42:26Z</time>
				<extensions>
					<speed>0.0</speed>
				</extensions>
			</trkpt>
			<trkpt lat="53.2620683" lon="-8.92515663">
				<ele>67.0</ele>
				<time>2014-08-17T16:42:27Z</time>
				<extensions>
					<speed>0.0</speed>
				</extensions>
			</trkpt>
			<trkpt lat="53.26206897" lon="-8.92515719">
				<ele>67.0</ele>
				<time>2014-08-17T16:42:28Z</time>
				<extensions>
					<speed>0.0</speed>
				</extensions>
			</trkpt>
			<trkpt lat="53.26206941" lon="-8.92515723">
				<ele>67.0</ele>
				<time>2014-08-17T16:42:29Z</time>
				<extensions>
					<speed>0.0</speed>
				</extensions>
			</trkpt>
			<trkpt lat="53.2620689" lon="-8.92515707">
				<ele>67.0</ele>
				<time>2014-08-17T16:42:30Z</time>
				<extensions>
					<speed>0.0</speed>
				</extensions>
			</trkpt>
			<trkpt lat="53.26206891" lon="-8.92515715">
				<ele>67.0</ele>
				<time>2014-08-17T16:42:31Z</time>
				<extensions>
					<speed>0.0</speed>
				</extensions>
			</trkpt>
			<trkpt lat="53.26206891" lon="-8.92515715">
				<ele>67.0</ele>
				<time>2014-08-17T16:42:32Z</time>
				<extensions>
					<speed>0.0</speed>
				</extensions>
			</trkpt>
			<trkpt lat="53.26206893" lon="-8.92515713">
				<ele>67.0</ele>
				<time>2014-08-17T16:42:33Z</time>
				<extensions>
					<speed>0.0</speed>
				</extensions>
			</trkpt>
			<trkpt lat="53.2620688" lon="-8.92515745">
				<ele>67.0</ele>
				<time>2014-08-17T16:42:34Z</time>
				<extensions>
					<speed>0.0</speed>
				</extensions>
			</trkpt>
			<trkpt lat="53.26206883" lon="-8.92515744">
				<ele>67.0</ele>
				<time>2014-08-17T16:42:35Z</time>
				<extensions>
					<speed>0.0</speed>
				</extensions>
			</trkpt>
			<trkpt lat="53.26207029" lon="-8.92515817">
				<ele>67.0</ele>
				<time>2014-08-17T16:42:36Z</time>
				<extensions>
					<speed>1.25</speed>
				</extensions>
			</trkpt>
			<trkpt lat="53.26208706" lon="-8.9251702">
				<ele>66.0</ele>
				<time>2014-08-17T16:42:37Z</time>
				<extensions>
					<speed>2.75</speed>
				</extensions>
			</trkpt>
			<trkpt lat="53.26212345" lon="-8.92518746">
				<ele>66.0</ele>
				<time>2014-08-17T16:42:38Z</time>
				<extensions>
					<speed>4.0</speed>
				</extensions>
			</trkpt>
			<trkpt lat="53.26215642" lon="-8.92520517">
				<ele>66.0</ele>
				<time>2014-08-17T16:42:39Z</time>
				<extensions>
					<speed>4.0</speed>
				</extensions>
			</trkpt>
			<trkpt lat="53.26218985" lon="-8.92521849">
				<ele>66.0</ele>
				<time>2014-08-17T16:42:40Z</time>
				<extensions>
					<speed>4.0</speed>
				</extensions>
			</trkpt>
			<trkpt lat="53.26222248" lon="-8.92524044">
				<ele>66.0</ele>
				<time>2014-08-17T16:42:41Z</time>
				<extensions>
					<speed>3.75</speed>
				</extensions>
			</trkpt>
			<trkpt lat="53.26225711" lon="-8.92525881">
				<ele>66.0</ele>
				<time>2014-08-17T16:42:42Z</time>
				<extensions>
					<speed>3.75</speed>
				</extensions>
			</trkpt>
			<trkpt lat="53.26228917" lon="-8.92528232">
				<ele>66.0</ele>
				<time>2014-08-17T16:42:43Z</time>
				<extensions>
					<speed>4.0</speed>
				</extensions>
			</trkpt>
			<trkpt lat="53.26232347" lon="-8.92531545">
				<ele>66.0</ele>
				<time>2014-08-17T16:42:44Z</time>
				<extensions>
					<speed>4.25</speed>
				</extensions>
			</trkpt>
			<trkpt lat="53.26235234" lon="-8.92534419">
				<ele>66.0</ele>
				<time>2014-08-17T16:42:45Z</time>
				<extensions>
					<speed>4.0</speed>
				</extensions>
			</trkpt>
			<trkpt lat="53.26237805" lon="-8.92537167">
				<ele>67.0</ele>
				<time>2014-08-17T16:42:46Z</time>
				<extensions>
					<speed>3.0</speed>
				</extensions>
			</trkpt>
			<trkpt lat="53.26238739" lon="-8.92537805">
				<ele>65.0</ele>
				<time>2014-08-17T16:42:47Z</time>
				<extensions>
					<speed>1.0</speed>
				</extensions>
			</trkpt>
			<trkpt lat="53.26239142" lon="-8.92538308">
				<ele>66.0</ele>
				<time>2014-08-17T16:42:48Z</time>
				<extensions>
					<speed>0.0</speed>
				</extensions>
			</trkpt>
			<trkpt lat="53.26238556" lon="-8.92538483">
				<ele>65.0</ele>
				<time>2014-08-17T16:42:49Z</time>
				<extensions>
					<speed>0.0</speed>
				</extensions>
			</trkpt>
			<trkpt lat="53.26238937" lon="-8.92538319">
				<ele>65.0</ele>
				<time>2014-08-17T16:42:50Z</time>
				<extensions>
					<speed>0.0</speed>
				</extensions>
			</trkpt>
			<trkpt lat="53.26238787" lon="-8.92538205">
				<ele>65.0</ele>
				<time>2014-08-17T16:42:51Z</time>
				<extensions>
					<speed>0.0</speed>
				</extensions>
			</trkpt>
			<trkpt lat="53.26239096" lon="-8.92538363">
				<ele>65.0</ele>
				<time>2014-08-17T16:42:52Z</time>
				<extensions>
					<speed>0.0</speed>
				</extensions>
			</trkpt>
			<trkpt lat="53.26239107" lon="-8.92538276">
				<ele>65.0</ele>
				<time>2014-08-17T16:42:53Z</time>
				<extensions>
					<speed>0.0</speed>
				</extensions>
			</trkpt>
			<trkpt lat="53.26239122" lon="-8.92538318">
				<ele>65.0</ele>
				<time>2014-08-17T16:42:54Z</time>
				<extensions>
					<speed>0.0</speed>
				</extensions>
			</trkpt>
			<trkpt lat="53.26239297" lon="-8.92538362">
				<ele>65.0</ele>
				<time>2014-08-17T16:42:55Z</time>
				<extensions>
					<speed>0.0</speed>
				</extensions>
			</trkpt>
			<trkpt lat="53.26238991" lon="-8.9253872">
				<ele>64.0</ele>
				<time>2014-08-17T16:42:56Z</time>
				<extensions>
					<speed>0.0</speed>
				</extensions>
			</trkpt>
			<trkpt lat="53.26238838" lon="-8.92538412">
				<ele>64.0</ele>
				<time>2014-08-17T16:42:57Z</time>
				<extensions>
					<speed>0.0</speed>
				</extensions>
			</trkpt>
			<trkpt lat="53.26238939" lon="-8.92538649">
				<ele>64.0</ele>
				<time>2014-08-17T16:42:58Z</time>
				<extensions>
					<speed>0.0</speed>
				</extensions>
			</trkpt>
			<trkpt lat="53.2623913" lon="-8.92538631">
				<ele>64.0</ele>
				<time>2014-08-17T16:42:59Z</time>
				<extensions>
					<speed>0.0</speed>
				</extensions>
			</trkpt>
			<trkpt lat="53.2623929" lon="-8.92538353">
				<ele>64.0</ele>
				<time>2014-08-17T16:43:00Z</time>
				<extensions>
					<speed>0.0</speed>
				</extensions>
			</trkpt>
			<trkpt lat="53.26239289" lon="-8.92538292">
				<ele>64.0</ele>
				<time>2014-08-17T16:43:01Z</time>
				<extensions>
					<speed>0.0</speed>
				</extensions>
			</trkpt>
			<trkpt lat="53.2623928" lon="-8.92538274">
				<ele>64.0</ele>
				<time>2014-08-17T16:43:02Z</time>
				<extensions>
					<speed>0.0</speed>
				</extensions>
			</trkpt>
			<trkpt lat="53.26239296" lon="-8.92538276">
				<ele>64.0</ele>
				<time>2014-08-17T16:43:03Z</time>
				<extensions>
					<speed>0.0</speed>
				</extensions>
			</trkpt>
			<trkpt lat="53.26239297" lon="-8.92538274">
				<ele>64.0</ele>
				<time>2014-08-17T16:43:04Z</time>
				<extensions>
					<speed>0.0</speed>
				</extensions>
			</trkpt>
			<trkpt lat="53.262393" lon="-8.92538273">
				<ele>64.0</ele>
				<time>2014-08-17T16:43:05Z</time>
				<extensions>
					<speed>0.0</speed>
				</extensions>
			</trkpt>
			<trkpt lat="53.26239301" lon="-8.92538273">
				<ele>64.0</ele>
				<time>2014-08-17T16:43:06Z</time>
				<extensions>
					<speed>0.0</speed>
				</extensions>
			</trkpt>
			<trkpt lat="53.26239301" lon="-8.9253827">
				<ele>64.0</ele>
				<time>2014-08-17T16:43:07Z</time>
				<extensions>
					<speed>0.0</speed>
				</extensions>
			</trkpt>
			<trkpt lat="53.26239303" lon="-8.92538268">
				<ele>64.0</ele>
				<time>2014-08-17T16:43:08Z</time>
				<extensions>
					<speed>0.0</speed>
				</extensions>
			</trkpt>
			<trkpt lat="53.26239308" lon="-8.92538266">
				<ele>64.0</ele>
				<time>2014-08-17T16:43:09Z</time>
				<extensions>
					<speed>0.0</speed>
				</extensions>
			</trkpt>
			<trkpt lat="53.26239307" lon="-8.92538268">
				<ele>64.0</ele>
				<time>2014-08-17T16:43:10Z</time>
				<extensions>
					<speed>0.0</speed>
				</extensions>
			</trkpt>
			<trkpt lat="53.26239449" lon="-8.92538418">
				<ele>64.0</ele>
				<time>2014-08-17T16:43:11Z</time>
				<extensions>
					<speed>1.25</speed>
				</extensions>
			</trkpt>
			<trkpt lat="53.26241316" lon="-8.92539669">
				<ele>64.0</ele>
				<time>2014-08-17T16:43:12Z</time>
				<extensions>
					<speed>2.5</speed>
				</extensions>
			</trkpt>
			<trkpt lat="53.26244188" lon="-8.92542802">
				<ele>64.0</ele>
				<time>2014-08-17T16:43:13Z</time>
				<extensions>
					<speed>3.75</speed>
				</extensions>
			</trkpt>
			<trkpt lat="53.26247311" lon="-8.92545816">
				<ele>64.0</ele>
				<time>2014-08-17T16:43:14Z</time>
				<extensions>
					<speed>3.75</speed>
				</extensions>
			</trkpt>
			<trkpt lat="53.26250236" lon="-8.92548461">
				<ele>64.0</ele>
				<time>2014-08-17T16:43:15Z</time>
				<extensions>
					<speed>3.25</speed>
				</extensions>
			</trkpt>
			<trkpt lat="53.2625232" lon="-8.9255088">
				<ele>63.0</ele>
				<time>2014-08-17T16:43:16Z</time>
				<extensions>
					<speed>2.5</speed>
				</extensions>
			</trkpt>
			<trkpt lat="53.26254287" lon="-8.92552146">
				<ele>63.0</ele>
				<time>2014-08-17T16:43:17Z</time>
				<extensions>
					<speed>1.75</speed>
				</extensions>
			</trkpt>
			<trkpt lat="53.26255311" lon="-8.92552878">
				<ele>63.0</ele>
				<time>2014-08-17T16:43:18Z</time>
				<extensions>
					<speed>1.0</speed>
				</extensions>
			</trkpt>
			<trkpt lat="53.26255912" lon="-8.925541">
				<ele>63.0</ele>
				<time>2014-08-17T16:43:19Z</time>
				<extensions>
					<speed>1.0</speed>
				</extensions>
			</trkpt>
			<trkpt lat="53.26256273" lon="-8.92554708">
				<ele>63.0</ele>
				<time>2014-08-17T16:43:20Z</time>
				<extensions>
					<speed>0.75</speed>
				</extensions>
			</trkpt>
			<trkpt lat="53.26256809" lon="-8.9255509">
				<ele>63.0</ele>
				<time>2014-08-17T16:43:21Z</time>
				<extensions>
					<speed>0.5</speed>
				</extensions>
			</trkpt>
			<trkpt lat="53.26257007" lon="-8.92555054">
				<ele>63.0</ele>
				<time>2014-08-17T16:43:22Z</time>
				<extensions>
					<speed>0.0</speed>
				</extensions>
			</trkpt>
			<trkpt lat="53.26256961" lon="-8.92554759">
				<ele>63.0</ele>
				<time>2014-08-17T16:43:23Z</time>
				<extensions>
					<speed>0.0</speed>
				</extensions>
			</trkpt>
			<trkpt lat="53.26257003" lon="-8.92554978">
				<ele>63.0</ele>
				<time>2014-08-17T16:43:24Z</time>
				<extensions>
					<speed>0.0</speed>
				</extensions>
			</trkpt>
			<trkpt lat="53.26257105" lon="-8.92555171">
				<ele>63.0</ele>
				<time>2014-08-17T16:43:25Z</time>
				<extensions>
					<speed>0.0</speed>
				</extensions>
			</trkpt>
			<trkpt lat="53.26257047" lon="-8.92555187">
				<ele>63.0</ele>
				<time>2014-08-17T16:43:26Z</time>
				<extensions>
					<speed>0.0</speed>
				</extensions>
			</trkpt>
			<trkpt lat="53.26257162" lon="-8.92555537">
				<ele>63.0</ele>
				<time>2014-08-17T16:43:27Z</time>
				<extensions>
					<speed>0.0</speed>
				</extensions>
			</trkpt>
			<trkpt lat="53.26256981" lon="-8.92555791">
				<ele>63.0</ele>
				<time>2014-08-17T16:43:28Z</time>
				<extensions>
					<speed>0.0</speed>
				</extensions>
			</trkpt>
			<trkpt lat="53.26256937" lon="-8.92555995">
				<ele>63.0</ele>
				<time>2014-08-17T16:43:29Z</time>
				<extensions>
					<speed>0.0</speed>
				</extensions>
			</trkpt>
			<trkpt lat="53.26256865" lon="-8.92556024">
				<ele>63.0</ele>
				<time>2014-08-17T16:43:30Z</time>
				<extensions>
					<speed>0.0</speed>
				</extensions>
			</trkpt>
			<trkpt lat="53.26256832" lon="-8.92556099">
				<ele>63.0</ele>
				<time>2014-08-17T16:43:31Z</time>
				<extensions>
					<speed>0.0</speed>
				</extensions>
			</trkpt>
			<trkpt lat="53.26257152" lon="-8.92556273">
				<ele>63.0</ele>
				<time>2014-08-17T16:43:32Z</time>
				<extensions>
					<speed>3.0</speed>
				</extensions>
			</trkpt>
			<trkpt lat="53.26260421" lon="-8.92557234">
				<ele>63.0</ele>
				<time>2014-08-17T16:43:33Z</time>
				<extensions>
					<speed>4.0</speed>
				</extensions>
			</trkpt>
			<trkpt lat="53.26263809" lon="-8.92558732">
				<ele>63.0</ele>
				<time>2014-08-17T16:43:34Z</time>
				<extensions>
					<speed>4.0</speed>
				</extensions>
			</trkpt>
			<trkpt lat="53.26267544" lon="-8.92561301">
				<ele>63.0</ele>
				<time>2014-08-17T16:43:35Z</time>
				<extensions>
					<speed>4.25</speed>
				</extensions>
			</trkpt>
			<trkpt lat="53.26271389" lon="-8.9256523">
				<ele>63.0</ele>
				<time>2014-08-17T16:43:36Z</time>
				<extensions>
					<speed>4.5</speed>
				</extensions>
			</trkpt>
			<trkpt lat="53.26272954" lon="-8.92571692">
				<ele>64.0</ele>
				<time>2014-08-17T16:43:37Z</time>
				<extensions>
					<speed>4.5</speed>
				</extensions>
			</trkpt>
			<trkpt lat="53.2627217" lon="-8.9257836">
				<ele>64.0</ele>
				<time>2014-08-17T16:43:38Z</time>
				<extensions>
					<speed>4.5</speed>
				</extensions>
			</trkpt>
			<trkpt lat="53.26270544" lon="-8.92584595">
				<ele>64.0</ele>
				<time>2014-08-17T16:43:39Z</time>
				<extensions>
					<speed>4.75</speed>
				</extensions>
			</trkpt>
			<trkpt lat="53.26268247" lon="-8.92590527">
				<ele>64.0</ele>
				<time>2014-08-17T16:43:40Z</time>
				<extensions>
					<speed>4.75</speed>
				</extensions>
			</trkpt>
			<trkpt lat="53.26265808" lon="-8.92595725">
				<ele>65.0</ele>
				<time>2014-08-17T16:43:41Z</time>
				<extensions>
					<speed>4.5</speed>
				</extensions>
			</trkpt>
			<trkpt lat="53.2626415" lon="-8.92601772">
				<ele>65.0</ele>
				<time>2014-08-17T16:43:42Z</time>
				<extensions>
					<speed>4.5</speed>
				</extensions>
			</trkpt>
			<trkpt lat="53.26263508" lon="-8.92608399">
				<ele>65.0</ele>
				<time>2014-08-17T16:43:43Z</time>
				<extensions>
					<speed>4.5</speed>
				</extensions>
			</trkpt>
			<trkpt lat="53.26263574" lon="-8.92615688">
				<ele>65.0</ele>
				<time>2014-08-17T16:43:44Z</time>
				<extensions>
					<speed>5.25</speed>
				</extensions>
			</trkpt>
			<trkpt lat="53.26263991" lon="-8.92623461">
				<ele>65.0</ele>
				<time>2014-08-17T16:43:45Z</time>
				<extensions>
					<speed>5.25</speed>
				</extensions>
			</trkpt>
			<trkpt lat="53.26263047" lon="-8.92631367">
				<ele>65.0</ele>
				<time>2014-08-17T16:43:46Z</time>
				<extensions>
					<speed>5.0</speed>
				</extensions>
			</trkpt>
			<trkpt lat="53.26260065" lon="-8.92637106">
				<ele>65.0</ele>
				<time>2014-08-17T16:43:47Z</time>
				<extensions>
					<speed>5.25</speed>
				</extensions>
			</trkpt>
			<trkpt lat="53.2625603" lon="-8.92641604">
				<ele>64.0</ele>
				<time>2014-08-17T16:43:48Z</time>
				<extensions>
					<speed>5.25</speed>
				</extensions>
			</trkpt>
			<trkpt lat="53.26251147" lon="-8.9264511">
				<ele>64.0</ele>
				<time>2014-08-17T16:43:49Z</time>
				<extensions>
					<speed>5.75</speed>
				</extensions>
			</trkpt>
			<trkpt lat="53.26246278" lon="-8.92650016">
				<ele>65.0</ele>
				<time>2014-08-17T16:43:50Z</time>
				<extensions>
					<speed>6.0</speed>
				</extensions>
			</trkpt>
			<trkpt lat="53.26242875" lon="-8.92654129">
				<ele>65.0</ele>
				<time>2014-08-17T16:43:51Z</time>
				<extensions>
					<speed>5.5</speed>
				</extensions>
			</trkpt>
			<trkpt lat="53.26239799" lon="-8.92658289">
				<ele>65.0</ele>
				<time>2014-08-17T16:43:52Z</time>
				<extensions>
					<speed>5.0</speed>
				</extensions>
			</trkpt>
			<trkpt lat="53.26235621" lon="-8.92658596">
				<ele>65.0</ele>
				<time>2014-08-17T16:43:53Z</time>
				<extensions>
					<speed>4.75</speed>
				</extensions>
			</trkpt>
			<trkpt lat="53.26232109" lon="-8.9265642">
				<ele>65.0</ele>
				<time>2014-08-17T16:43:54Z</time>
				<extensions>
					<speed>4.5</speed>
				</extensions>
			</trkpt>
			<trkpt lat="53.26229042" lon="-8.92652577">
				<ele>65.0</ele>
				<time>2014-08-17T16:43:55Z</time>
				<extensions>
					<speed>4.5</speed>
				</extensions>
			</trkpt>
			<trkpt lat="53.26226947" lon="-8.92647073">
				<ele>66.0</ele>
				<time>2014-08-17T16:43:56Z</time>
				<extensions>
					<speed>4.5</speed>
				</extensions>
			</trkpt>
			<trkpt lat="53.26224599" lon="-8.92642007">
				<ele>67.0</ele>
				<time>2014-08-17T16:43:57Z</time>
				<extensions>
					<speed>4.5</speed>
				</extensions>
			</trkpt>
			<trkpt lat="53.26222748" lon="-8.92636509">
				<ele>68.0</ele>
				<time>2014-08-17T16:43:58Z</time>
				<extensions>
					<speed>4.5</speed>
				</extensions>
			</trkpt>
			<trkpt lat="53.26220603" lon="-8.92631958">
				<ele>69.0</ele>
				<time>2014-08-17T16:43:59Z</time>
				<extensions>
					<speed>4.25</speed>
				</extensions>
			</trkpt>
			<trkpt lat="53.26218612" lon="-8.92627454">
				<ele>68.0</ele>
				<time>2014-08-17T16:44:00Z</time>
				<extensions>
					<speed>3.75</speed>
				</extensions>
			</trkpt>
			<trkpt lat="53.26216548" lon="-8.92623345">
				<ele>69.0</ele>
				<time>2014-08-17T16:44:01Z</time>
				<extensions>
					<speed>3.5</speed>
				</extensions>
			</trkpt>
			<trkpt lat="53.2621466" lon="-8.92619898">
				<ele>69.0</ele>
				<time>2014-08-17T16:44:02Z</time>
				<extensions>
					<speed>3.25</speed>
				</extensions>
			</trkpt>
			<trkpt lat="53.26212844" lon="-8.92616082">
				<ele>69.0</ele>
				<time>2014-08-17T16:44:03Z</time>
				<extensions>
					<speed>3.25</speed>
				</extensions>
			</trkpt>
			<trkpt lat="53.26211115" lon="-8.92612176">
				<ele>69.0</ele>
				<time>2014-08-17T16:44:04Z</time>
				<extensions>
					<speed>3.0</speed>
				</extensions>
			</trkpt>
			<trkpt lat="53.26209697" lon="-8.92609203">
				<ele>69.0</ele>
				<time>2014-08-17T16:44:05Z</time>
				<extensions>
					<speed>2.75</speed>
				</extensions>
			</trkpt>
			<trkpt lat="53.26208054" lon="-8.92605944">
				<ele>69.0</ele>
				<time>2014-08-17T16:44:06Z</time>
				<extensions>
					<speed>2.75</speed>
				</extensions>
			</trkpt>
			<trkpt lat="53.26206513" lon="-8.92602801">
				<ele>68.0</ele>
				<time>2014-08-17T16:44:07Z</time>
				<extensions>
					<speed>2.75</speed>
				</extensions>
			</trkpt>
			<trkpt lat="53.2620489" lon="-8.92599483">
				<ele>67.0</ele>
				<time>2014-08-17T16:44:08Z</time>
				<extensions>
					<speed>2.75</speed>
				</extensions>
			</trkpt>
			<trkpt lat="53.26203174" lon="-8.92596254">
				<ele>68.0</ele>
				<time>2014-08-17T16:44:09Z</time>
				<extensions>
					<speed>3.25</speed>
				</extensions>
			</trkpt>
			<trkpt lat="53.26201049" lon="-8.92592288">
				<ele>68.0</ele>
				<time>2014-08-17T16:44:10Z</time>
				<extensions>
					<speed>3.75</speed>
				</extensions>
			</trkpt>
			<trkpt lat="53.26198506" lon="-8.92588048">
				<ele>67.0</ele>
				<time>2014-08-17T16:44:11Z</time>
				<extensions>
					<speed>4.0</speed>
				</extensions>
			</trkpt>
			<trkpt lat="53.26196295" lon="-8.92583527">
				<ele>67.0</ele>
				<time>2014-08-17T16:44:12Z</time>
				<extensions>
					<speed>4.0</speed>
				</extensions>
			</trkpt>
			<trkpt lat="53.26194083" lon="-8.92579006">
				<ele>66.0</ele>
				<time>2014-08-17T16:44:13Z</time>
				<extensions>
					<speed>4.0</speed>
				</extensions>
			</trkpt>
			<trkpt lat="53.26190287" lon="-8.92577906">
				<ele>65.0</ele>
				<time>2014-08-17T16:44:14Z</time>
				<extensions>
					<speed>3.75</speed>
				</extensions>
			</trkpt>
			<trkpt lat="53.26186441" lon="-8.92575759">
				<ele>66.0</ele>
				<time>2014-08-17T16:44:15Z</time>
				<extensions>
					<speed>3.75</speed>
				</extensions>
			</trkpt>
			<trkpt lat="53.26183101" lon="-8.92575536">
				<ele>65.0</ele>
				<time>2014-08-17T16:44:16Z</time>
				<extensions>
					<speed>3.5</speed>
				</extensions>
			</trkpt>
			<trkpt lat="53.26180449" lon="-8.92576664">
				<ele>64.0</ele>
				<time>2014-08-17T16:44:17Z</time>
				<extensions>
					<speed>3.25</speed>
				</extensions>
			</trkpt>
			<trkpt lat="53.26177778" lon="-8.92577971">
				<ele>65.0</ele>
				<time>2014-08-17T16:44:18Z</time>
				<extensions>
					<speed>2.75</speed>
				</extensions>
			</trkpt>
			<trkpt lat="53.26175717" lon="-8.92577923">
				<ele>64.0</ele>
				<time>2014-08-17T16:44:19Z</time>
				<extensions>
					<speed>2.0</speed>
				</extensions>
			</trkpt>
			<trkpt lat="53.26173896" lon="-8.92577674">
				<ele>64.0</ele>
				<time>2014-08-17T16:44:20Z</time>
				<extensions>
					<speed>1.25</speed>
				</extensions>
			</trkpt>
			<trkpt lat="53.26173163" lon="-8.92578499">
				<ele>64.0</ele>
				<time>2014-08-17T16:44:21Z</time>
				<extensions>
					<speed>1.25</speed>
				</extensions>
			</trkpt>
			<trkpt lat="53.26172338" lon="-8.92579338">
				<ele>64.0</ele>
				<time>2014-08-17T16:44:22Z</time>
				<extensions>
					<speed>1.0</speed>
				</extensions>
			</trkpt>
			<trkpt lat="53.261709" lon="-8.92579788">
				<ele>65.0</ele>
				<time>2014-08-17T16:44:23Z</time>
				<extensions>
					<speed>1.75</speed>
				</extensions>
			</trkpt>
			<trkpt lat="53.2616889" lon="-8.92580772">
				<ele>65.0</ele>
				<time>2014-08-17T16:44:24Z</time>
				<extensions>
					<speed>2.25</speed>
				</extensions>
			</trkpt>
			<trkpt lat="53.26166749" lon="-8.92582508">
				<ele>65.0</ele>
				<time>2014-08-17T16:44:25Z</time>
				<extensions>
					<speed>2.75</speed>
				</extensions>
			</trkpt>
			<trkpt lat="53.2616498" lon="-8.92586024">
				<ele>66.0</ele>
				<time>2014-08-17T16:44:26Z</time>
				<extensions>
					<speed>3.0</speed>
				</extensions>
			</trkpt>
			<trkpt lat="53.26165098" lon="-8.92590473">
				<ele>66.0</ele>
				<time>2014-08-17T16:44:27Z</time>
				<extensions>
					<speed>2.75</speed>
				</extensions>
			</trkpt>
			<trkpt lat="53.26165744" lon="-8.925924">
				<ele>66.0</ele>
				<time>2014-08-17T16:44:28Z</time>
				<extensions>
					<speed>1.5</speed>
				</extensions>
			</trkpt>
			<trkpt lat="53.26165536" lon="-8.92592379">
				<ele>66.0</ele>
				<time>2014-08-17T16:44:29Z</time>
				<extensions>
					<speed>0.25</speed>
				</extensions>
			</trkpt>
			<trkpt lat="53.26165603" lon="-8.92592604">
				<ele>66.0</ele>
				<time>2014-08-17T16:44:30Z</time>
				<extensions>
					<speed>0.0</speed>
				</extensions>
			</trkpt>
			<trkpt lat="53.26165463" lon="-8.9259324">
				<ele>66.0</ele>
				<time>2014-08-17T16:44:31Z</time>
				<extensions>
					<speed>0.0</speed>
				</extensions>
			</trkpt>
			<trkpt lat="53.26165467" lon="-8.9259318">
				<ele>67.0</ele>
				<time>2014-08-17T16:44:32Z</time>
				<extensions>
					<speed>0.0</speed>
				</extensions>
			</trkpt>
			<trkpt lat="53.26165465" lon="-8.92593062">
				<ele>67.0</ele>
				<time>2014-08-17T16:44:33Z</time>
				<extensions>
					<speed>0.75</speed>
				</extensions>
			</trkpt>
			<trkpt lat="53.26165563" lon="-8.92591444">
				<ele>67.0</ele>
				<time>2014-08-17T16:44:34Z</time>
				<extensions>
					<speed>1.25</speed>
				</extensions>
			</trkpt>
			<trkpt lat="53.26164838" lon="-8.92588623">
				<ele>67.0</ele>
				<time>2014-08-17T16:44:35Z</time>
				<extensions>
					<speed>1.75</speed>
				</extensions>
			</trkpt>
			<trkpt lat="53.26164387" lon="-8.92586807">
				<ele>67.0</ele>
				<time>2014-08-17T16:44:36Z</time>
				<extensions>
					<speed>1.5</speed>
				</extensions>
			</trkpt>
			<trkpt lat="53.26163583" lon="-8.92585289">
				<ele>67.0</ele>
				<time>2014-08-17T16:44:37Z</time>
				<extensions>
					<speed>0.75</speed>
				</extensions>
			</trkpt>
			<trkpt lat="53.26163186" lon="-8.92584201">
				<ele>66.0</ele>
				<time>2014-08-17T16:44:38Z</time>
				<extensions>
					<speed>0.0</speed>
				</extensions>
			</trkpt>
			<trkpt lat="53.26163305" lon="-8.92583616">
				<ele>66.0</ele>
				<time>2014-08-17T16:44:39Z</time>
				<extensions>
					<speed>0.0</speed>
				</extensions>
			</trkpt>
			<trkpt lat="53.26163275" lon="-8.92583447">
				<ele>66.0</ele>
				<time>2014-08-17T16:44:40Z</time>
				<extensions>
					<speed>0.0</speed>
				</extensions>
			</trkpt>
			<trkpt lat="53.26163444" lon="-8.92583458">
				<ele>66.0</ele>
				<time>2014-08-17T16:44:41Z</time>
				<extensions>
					<speed>1.0</speed>
				</extensions>
			</trkpt>
			<trkpt lat="53.26164543" lon="-8.92583337">
				<ele>67.0</ele>
				<time>2014-08-17T16:44:42Z</time>
				<extensions>
					<speed>1.0</speed>
				</extensions>
			</trkpt>
			<trkpt lat="53.26165307" lon="-8.92583388">
				<ele>67.0</ele>
				<time>2014-08-17T16:44:43Z</time>
				<extensions>
					<speed>0.5</speed>
				</extensions>
			</trkpt>
			<trkpt lat="53.26165341" lon="-8.92582983">
				<ele>67.0</ele>
				<time>2014-08-17T16:44:44Z</time>
				<extensions>
					<speed>0.0</speed>
				</extensions>
			</trkpt>
			<trkpt lat="53.26165341" lon="-8.92582983">
				<ele>67.0</ele>
				<time>2014-08-17T16:44:45Z</time>
				<extensions>
					<speed>0.0</speed>
				</extensions>
			</trkpt>
			<trkpt lat="53.26165585" lon="-8.92582637">
				<ele>66.0</ele>
				<time>2014-08-17T16:44:46Z</time>
				<extensions>
					<speed>0.0</speed>
				</extensions>
			</trkpt>
			<trkpt lat="53.26165696" lon="-8.9258273">
				<ele>67.0</ele>
				<time>2014-08-17T16:44:47Z</time>
				<extensions>
					<speed>0.0</speed>
				</extensions>
			</trkpt>
			<trkpt lat="53.2616543" lon="-8.92582557">
				<ele>67.0</ele>
				<time>2014-08-17T16:44:48Z</time>
				<extensions>
					<speed>0.0</speed>
				</extensions>
			</trkpt>
			<trkpt lat="53.26165519" lon="-8.92582431">
				<ele>67.0</ele>
				<time>2014-08-17T16:44:49Z</time>
				<extensions>
					<speed>0.0</speed>
				</extensions>
			</trkpt>
			<trkpt lat="53.26165375" lon="-8.92582318">
				<ele>66.0</ele>
				<time>2014-08-17T16:44:50Z</time>
				<extensions>
					<speed>0.0</speed>
				</extensions>
			</trkpt>
			<trkpt lat="53.26165354" lon="-8.92582373">
				<ele>66.0</ele>
				<time>2014-08-17T16:44:51Z</time>
				<extensions>
					<speed>0.0</speed>
				</extensions>
			</trkpt>
			<trkpt lat="53.26165267" lon="-8.92582509">
				<ele>66.0</ele>
				<time>2014-08-17T16:44:52Z</time>
				<extensions>
					<speed>0.0</speed>
				</extensions>
			</trkpt>
			<trkpt lat="53.26165265" lon="-8.92582339">
				<ele>66.0</ele>
				<time>2014-08-17T16:44:53Z</time>
				<extensions>
					<speed>0.0</speed>
				</extensions>
			</trkpt>
			<trkpt lat="53.26165361" lon="-8.92582383">
				<ele>66.0</ele>
				<time>2014-08-17T16:44:54Z</time>
				<extensions>
					<speed>0.0</speed>
				</extensions>
			</trkpt>
			<trkpt lat="53.26165551" lon="-8.9258223">
				<ele>66.0</ele>
				<time>2014-08-17T16:44:55Z</time>
				<extensions>
					<speed>1.75</speed>
				</extensions>
			</trkpt>
			<trkpt lat="53.26167325" lon="-8.92580385">
				<ele>66.0</ele>
				<time>2014-08-17T16:44:56Z</time>
				<extensions>
					<speed>2.75</speed>
				</extensions>
			</trkpt>
			<trkpt lat="53.26170104" lon="-8.92578675">
				<ele>66.0</ele>
				<time>2014-08-17T16:44:57Z</time>
				<extensions>
					<speed>4.0</speed>
				</extensions>
			</trkpt>
			<trkpt lat="53.2617372" lon="-8.92576413">
				<ele>66.0</ele>
				<time>2014-08-17T16:44:58Z</time>
				<extensions>
					<speed>4.0</speed>
				</extensions>
			</trkpt>
			<trkpt lat="53.26177219" lon="-8.92575929">
				<ele>66.0</ele>
				<time>2014-08-17T16:44:59Z</time>
				<extensions>
					<speed>3.75</speed>
				</extensions>
			</trkpt>
			<trkpt lat="53.26180443" lon="-8.9257595">
				<ele>66.0</ele>
				<time>2014-08-17T16:45:00Z</time>
				<extensions>
					<speed>3.5</speed>
				</extensions>
			</trkpt>
			<trkpt lat="53.26183233" lon="-8.92576419">
				<ele>66.0</ele>
				<time>2014-08-17T16:45:01Z</time>
				<extensions>
					<speed>3.25</speed>
				</extensions>
			</trkpt>
			<trkpt lat="53.26185892" lon="-8.92578035">
				<ele>65.0</ele>
				<time>2014-08-17T16:45:02Z</time>
				<extensions>
					<speed>3.0</speed>
				</extensions>
			</trkpt>
			<trkpt lat="53.26187942" lon="-8.92578773">
				<ele>66.0</ele>
				<time>2014-08-17T16:45:03Z</time>
				<extensions>
					<speed>1.25</speed>
				</extensions>
			</trkpt>
			<trkpt lat="53.26188688" lon="-8.92577951">
				<ele>66.0</ele>
				<time>2014-08-17T16:45:04Z</time>
				<extensions>
					<speed>0.5</speed>
				</extensions>
			</trkpt>
			<trkpt lat="53.26188881" lon="-8.92578394">
				<ele>66.0</ele>
				<time>2014-08-17T16:45:05Z</time>
				<extensions>
					<speed>0.0</speed>
				</extensions>
			</trkpt>
			<trkpt lat="53.26189235" lon="-8.92578092">
				<ele>66.0</ele>
				<time>2014-08-17T16:45:06Z</time>
				<extensions>
					<speed>0.0</speed>
				</extensions>
			</trkpt>
			<trkpt lat="53.26189343" lon="-8.92578479">
				<ele>66.0</ele>
				<time>2014-08-17T16:45:07Z</time>
				<extensions>
					<speed>0.0</speed>
				</extensions>
			</trkpt>
			<trkpt lat="53.26189338" lon="-8.92578482">
				<ele>66.0</ele>
				<time>2014-08-17T16:45:08Z</time>
				<extensions>
					<speed>0.0</speed>
				</extensions>
			</trkpt>
			<trkpt lat="53.26189301" lon="-8.92578509">
				<ele>65.0</ele>
				<time>2014-08-17T16:45:09Z</time>
				<extensions>
					<speed>0.0</speed>
				</extensions>
			</trkpt>
			<trkpt lat="53.26189263" lon="-8.92578536">
				<ele>65.0</ele>
				<time>2014-08-17T16:45:10Z</time>
				<extensions>
					<speed>0.0</speed>
				</extensions>
			</trkpt>
			<trkpt lat="53.26189094" lon="-8.92581678">
				<ele>65.0</ele>
				<time>2014-08-17T16:45:11Z</time>
				<extensions>
					<speed>0.0</speed>
				</extensions>
			</trkpt>
			<trkpt lat="53.26189094" lon="-8.92581678">
				<ele>65.0</ele>
				<time>2014-08-17T16:45:12Z</time>
				<extensions>
					<speed>0.0</speed>
				</extensions>
			</trkpt>
			<trkpt lat="53.26189094" lon="-8.92581678">
				<ele>65.0</ele>
				<time>2014-08-17T16:45:13Z</time>
				<extensions>
					<speed>0.0</speed>
				</extensions>
			</trkpt>
			<trkpt lat="53.26188858" lon="-8.92580995">
				<ele>65.0</ele>
				<time>2014-08-17T16:45:14Z</time>
				<extensions>
					<speed>0.0</speed>
				</extensions>
			</trkpt>
			<trkpt lat="53.26188858" lon="-8.92580995">
				<ele>65.0</ele>
				<time>2014-08-17T16:45:15Z</time>
				<extensions>
					<speed>0.0</speed>
				</extensions>
			</trkpt>
			<trkpt lat="53.26188858" lon="-8.92580995">
				<ele>65.0</ele>
				<time>2014-08-17T16:45:16Z</time>
				<extensions>
					<speed>0.0</speed>
				</extensions>
			</trkpt>
			<trkpt lat="53.26188269" lon="-8.92580693">
				<ele>64.0</ele>
				<time>2014-08-17T16:45:17Z</time>
				<extensions>
					<speed>0.0</speed>
				</extensions>
			</trkpt>
			<trkpt lat="53.26188214" lon="-8.92580881">
				<ele>64.0</ele>
				<time>2014-08-17T16:45:18Z</time>
				<extensions>
					<speed>0.0</speed>
				</extensions>
			</trkpt>
			<trkpt lat="53.26188112" lon="-8.92581546">
				<ele>64.0</ele>
				<time>2014-08-17T16:45:19Z</time>
				<extensions>
					<speed>0.0</speed>
				</extensions>
			</trkpt>
			<trkpt lat="53.26187644" lon="-8.92581805">
				<ele>64.0</ele>
				<time>2014-08-17T16:45:20Z</time>
				<extensions>
					<speed>0.0</speed>
				</extensions>
			</trkpt>
			<trkpt lat="53.2618746" lon="-8.92581566">
				<ele>64.0</ele>
				<time>2014-08-17T16:45:21Z</time>
				<extensions>
					<speed>0.0</speed>
				</extensions>
			</trkpt>
			<trkpt lat="53.26187495" lon="-8.92581579">
				<ele>64.0</ele>
				<time>2014-08-17T16:45:22Z</time>
				<extensions>
					<speed>0.0</speed>
				</extensions>
			</trkpt>
			<trkpt lat="53.26187497" lon="-8.92581552">
				<ele>64.0</ele>
				<time>2014-08-17T16:45:23Z</time>
				<extensions>
					<speed>0.0</speed>
				</extensions>
			</trkpt>
			<trkpt lat="53.26187498" lon="-8.92581533">
				<ele>64.0</ele>
				<time>2014-08-17T16:45:24Z</time>
				<extensions>
					<speed>0.0</speed>
				</extensions>
			</trkpt>
			<trkpt lat="53.26187495" lon="-8.92581526">
				<ele>64.0</ele>
				<time>2014-08-17T16:45:25Z</time>
				<extensions>
					<speed>0.0</speed>
				</extensions>
			</trkpt>
			<trkpt lat="53.26187497" lon="-8.92581519">
				<ele>64.0</ele>
				<time>2014-08-17T16:45:26Z</time>
				<extensions>
					<speed>0.0</speed>
				</extensions>
			</trkpt>
			<trkpt lat="53.26187498" lon="-8.92581521">
				<ele>64.0</ele>
				<time>2014-08-17T16:45:27Z</time>
				<extensions>
					<speed>0.0</speed>
				</extensions>
			</trkpt>
			<trkpt lat="53.26187495" lon="-8.92581525">
				<ele>64.0</ele>
				<time>2014-08-17T16:45:28Z</time>
				<extensions>
					<speed>0.0</speed>
				</extensions>
			</trkpt>
			<trkpt lat="53.26187495" lon="-8.9258153">
				<ele>64.0</ele>
				<time>2014-08-17T16:45:29Z</time>
				<extensions>
					<speed>0.0</speed>
				</extensions>
			</trkpt>
			<trkpt lat="53.26187496" lon="-8.92581527">
				<ele>64.0</ele>
				<time>2014-08-17T16:45:30Z</time>
				<extensions>
					<speed>0.0</speed>
				</extensions>
			</trkpt>
			<trkpt lat="53.26187494" lon="-8.92581523">
				<ele>64.0</ele>
				<time>2014-08-17T16:45:31Z</time>
				<extensions>
					<speed>0.0</speed>
				</extensions>
			</trkpt>
			<trkpt lat="53.2618749" lon="-8.92581519">
				<ele>64.0</ele>
				<time>2014-08-17T16:45:32Z</time>
				<extensions>
					<speed>0.0</speed>
				</extensions>
			</trkpt>
			<trkpt lat="53.26187492" lon="-8.92581523">
				<ele>64.0</ele>
				<time>2014-08-17T16:45:33Z</time>
				<extensions>
					<speed>0.0</speed>
				</extensions>
			</trkpt>
			<trkpt lat="53.26187494" lon="-8.92581523">
				<ele>64.0</ele>
				<time>2014-08-17T16:45:34Z</time>
				<extensions>
					<speed>0.0</speed>
				</extensions>
			</trkpt>
			<trkpt lat="53.2618749" lon="-8.92581521">
				<ele>64.0</ele>
				<time>2014-08-17T16:45:35Z</time>
				<extensions>
					<speed>0.0</speed>
				</extensions>
			</trkpt>
			<trkpt lat="53.2618749" lon="-8.92581519">
				<ele>64.0</ele>
				<time>2014-08-17T16:45:36Z</time>
				<extensions>
					<speed>0.0</speed>
				</extensions>
			</trkpt>
			<trkpt lat="53.26187492" lon="-8.92581522">
				<ele>64.0</ele>
				<time>2014-08-17T16:45:37Z</time>
				<extensions>
					<speed>0.0</speed>
				</extensions>
			</trkpt>
			<trkpt lat="53.2618749" lon="-8.9258152">
				<ele>64.0</ele>
				<time>2014-08-17T16:45:38Z</time>
				<extensions>
					<speed>0.0</speed>
				</extensions>
			</trkpt>
			<trkpt lat="53.26187493" lon="-8.92581518">
				<ele>64.0</ele>
				<time>2014-08-17T16:45:39Z</time>
				<extensions>
					<speed>0.0</speed>
				</extensions>
			</trkpt>
			<trkpt lat="53.26187494" lon="-8.92581517">
				<ele>64.0</ele>
				<time>2014-08-17T16:45:40Z</time>
				<extensions>
					<speed>0.0</speed>
				</extensions>
			</trkpt>
			<trkpt lat="53.26187496" lon="-8.92581515">
				<ele>64.0</ele>
				<time>2014-08-17T16:45:41Z</time>
				<extensions>
					<speed>0.0</speed>
				</extensions>
			</trkpt>
			<trkpt lat="53.26187494" lon="-8.92581513">
				<ele>64.0</ele>
				<time>2014-08-17T16:45:42Z</time>
				<extensions>
					<speed>0.0</speed>
				</extensions>
			</trkpt>
			<trkpt lat="53.2618749" lon="-8.92581507">
				<ele>64.0</ele>
				<time>2014-08-17T16:45:43Z</time>
				<extensions>
					<speed>0.0</speed>
				</extensions>
			</trkpt>
			<trkpt lat="53.26187491" lon="-8.92581506">
				<ele>64.0</ele>
				<time>2014-08-17T16:45:44Z</time>
				<extensions>
					<speed>0.0</speed>
				</extensions>
			</trkpt>
			<trkpt lat="53.2618749" lon="-8.92581503">
				<ele>64.0</ele>
				<time>2014-08-17T16:45:45Z</time>
				<extensions>
					<speed>0.0</speed>
				</extensions>
			</trkpt>
			<trkpt lat="53.2618749" lon="-8.92581499">
				<ele>64.0</ele>
				<time>2014-08-17T16:45:46Z</time>
				<extensions>
					<speed>0.0</speed>
				</extensions>
			</trkpt>
			<trkpt lat="53.26187488" lon="-8.92581493">
				<ele>64.0</ele>
				<time>2014-08-17T16:45:47Z</time>
				<extensions>
					<speed>0.0</speed>
				</extensions>
			</trkpt>
			<trkpt lat="53.26187485" lon="-8.92581489">
				<ele>64.0</ele>
				<time>2014-08-17T16:45:48Z</time>
				<extensions>
					<speed>0.0</speed>
				</extensions>
			</trkpt>
			<trkpt lat="53.26187483" lon="-8.92581486">
				<ele>64.0</ele>
				<time>2014-08-17T16:45:49Z</time>
				<extensions>
					<speed>0.0</speed>
				</extensions>
			</trkpt>
			<trkpt lat="53.26187482" lon="-8.92581484">
				<ele>64.0</ele>
				<time>2014-08-17T16:45:50Z</time>
				<extensions>
					<speed>0.0</speed>
				</extensions>
			</trkpt>
			<trkpt lat="53.26187484" lon="-8.92581485">
				<ele>64.0</ele>
				<time>2014-08-17T16:45:51Z</time>
				<extensions>
					<speed>0.0</speed>
				</extensions>
			</trkpt>
			<trkpt lat="53.26187483" lon="-8.92581479">
				<ele>64.0</ele>
				<time>2014-08-17T16:45:52Z</time>
				<extensions>
					<speed>0.0</speed>
				</extensions>
			</trkpt>
			<trkpt lat="53.26187485" lon="-8.92581478">
				<ele>64.0</ele>
				<time>2014-08-17T16:45:53Z</time>
				<extensions>
					<speed>0.0</speed>
				</extensions>
			</trkpt>
			<trkpt lat="53.26187481" lon="-8.92581468">
				<ele>64.0</ele>
				<time>2014-08-17T16:45:54Z</time>
				<extensions>
					<speed>0.0</speed>
				</extensions>
			</trkpt>
			<trkpt lat="53.2618748" lon="-8.92581464">
				<ele>64.0</ele>
				<time>2014-08-17T16:45:55Z</time>
				<extensions>
					<speed>0.0</speed>
				</extensions>
			</trkpt>
			<trkpt lat="53.26187485" lon="-8.92581466">
				<ele>64.0</ele>
				<time>2014-08-17T16:45:56Z</time>
				<extensions>
					<speed>0.0</speed>
				</extensions>
			</trkpt>
			<trkpt lat="53.2618748" lon="-8.92581467">
				<ele>64.0</ele>
				<time>2014-08-17T16:45:57Z</time>
				<extensions>
					<speed>0.0</speed>
				</extensions>
			</trkpt>
			<trkpt lat="53.26187479" lon="-8.92581464">
				<ele>64.0</ele>
				<time>2014-08-17T16:45:58Z</time>
				<extensions>
					<speed>0.0</speed>
				</extensions>
			</trkpt>
			<trkpt lat="53.26187477" lon="-8.92581463">
				<ele>64.0</ele>
				<time>2014-08-17T16:45:59Z</time>
				<extensions>
					<speed>0.0</speed>
				</extensions>
			</trkpt>
			<trkpt lat="53.26187479" lon="-8.9258146">
				<ele>64.0</ele>
				<time>2014-08-17T16:46:00Z</time>
				<extensions>
					<speed>0.0</speed>
				</extensions>
			</trkpt>
			<trkpt lat="53.26187613" lon="-8.92581575">
				<ele>64.0</ele>
				<time>2014-08-17T16:46:01Z</time>
				<extensions>
					<speed>1.25</speed>
				</extensions>
			</trkpt>
			<trkpt lat="53.2618958" lon="-8.92582967">
				<ele>64.0</ele>
				<time>2014-08-17T16:46:02Z</time>
				<extensions>
					<speed>2.5</speed>
				</extensions>
			</trkpt>
			<trkpt lat="53.26192176" lon="-8.92584983">
				<ele>64.0</ele>
				<time>2014-08-17T16:46:03Z</time>
				<extensions>
					<speed>3.0</speed>
				</extensions>
			</trkpt>
			<trkpt lat="53.26195007" lon="-8.92588413">
				<ele>64.0</ele>
				<time>2014-08-17T16:46:04Z</time>
				<extensions>
					<speed>3.5</speed>
				</extensions>
			</trkpt>
			<trkpt lat="53.26197041" lon="-8.92592334">
				<ele>64.0</ele>
				<time>2014-08-17T16:46:05Z</time>
				<extensions>
					<speed>4.0</speed>
				</extensions>
			</trkpt>
			<trkpt lat="53.26199666" lon="-8.92596669">
				<ele>64.0</ele>
				<time>2014-08-17T16:46:06Z</time>
				<extensions>
					<speed>3.75</speed>
				</extensions>
			</trkpt>
			<trkpt lat="53.26201999" lon="-8.92600108">
				<ele>64.0</ele>
				<time>2014-08-17T16:46:07Z</time>
				<extensions>
					<speed>3.5</speed>
				</extensions>
			</trkpt>
			<trkpt lat="53.26203904" lon="-8.92603265">
				<ele>64.0</ele>
				<time>2014-08-17T16:46:08Z</time>
				<extensions>
					<speed>3.0</speed>
				</extensions>
			</trkpt>
			<trkpt lat="53.26205818" lon="-8.92606798">
				<ele>65.0</ele>
				<time>2014-08-17T16:46:09Z</time>
				<extensions>
					<speed>2.75</speed>
				</extensions>
			</trkpt>
			<trkpt lat="53.26207562" lon="-8.92608996">
				<ele>65.0</ele>
				<time>2014-08-17T16:46:10Z</time>
				<extensions>
					<speed>2.5</speed>
				</extensions>
			</trkpt>
			<trkpt lat="53.26208241" lon="-8.92612239">
				<ele>65.0</ele>
				<time>2014-08-17T16:46:11Z</time>
				<extensions>
					<speed>2.25</speed>
				</extensions>
			</trkpt>
			<trkpt lat="53.26208604" lon="-8.9261531">
				<ele>65.0</ele>
				<time>2014-08-17T16:46:12Z</time>
				<extensions>
					<speed>2.0</speed>
				</extensions>
			</trkpt>
			<trkpt lat="53.26209423" lon="-8.92618283">
				<ele>65.0</ele>
				<time>2014-08-17T16:46:13Z</time>
				<extensions>
					<speed>1.75</speed>
				</extensions>
			</trkpt>
			<trkpt lat="53.26209806" lon="-8.92619589">
				<ele>65.0</ele>
				<time>2014-08-17T16:46:14Z</time>
				<extensions>
					<speed>1.5</speed>
				</extensions>
			</trkpt>
			<trkpt lat="53.26210078" lon="-8.92620752">
				<ele>65.0</ele>
				<time>2014-08-17T16:46:15Z</time>
				<extensions>
					<speed>1.0</speed>
				</extensions>
			</trkpt>
			<trkpt lat="53.26210334" lon="-8.92621226">
				<ele>65.0</ele>
				<time>2014-08-17T16:46:16Z</time>
				<extensions>
					<speed>0.0</speed>
				</extensions>
			</trkpt>
			<trkpt lat="53.26210334" lon="-8.92621226">
				<ele>65.0</ele>
				<time>2014-08-17T16:46:17Z</time>
				<extensions>
					<speed>0.0</speed>
				</extensions>
			</trkpt>
			<trkpt lat="53.2621052" lon="-8.92621482">
				<ele>64.0</ele>
				<time>2014-08-17T16:46:18Z</time>
				<extensions>
					<speed>0.0</speed>
				</extensions>
			</trkpt>
			<trkpt lat="53.2621052" lon="-8.92621482">
				<ele>64.0</ele>
				<time>2014-08-17T16:46:19Z</time>
				<extensions>
					<speed>0.0</speed>
				</extensions>
			</trkpt>
			<trkpt lat="53.26210411" lon="-8.92621515">
				<ele>64.0</ele>
				<time>2014-08-17T16:46:20Z</time>
				<extensions>
					<speed>0.0</speed>
				</extensions>
			</trkpt>
			<trkpt lat="53.26210411" lon="-8.92621515">
				<ele>64.0</ele>
				<time>2014-08-17T16:46:21Z</time>
				<extensions>
					<speed>0.0</speed>
				</extensions>
			</trkpt>
			<trkpt lat="53.26210657" lon="-8.92621391">
				<ele>64.0</ele>
				<time>2014-08-17T16:46:22Z</time>
				<extensions>
					<speed>0.0</speed>
				</extensions>
			</trkpt>
			<trkpt lat="53.26210657" lon="-8.92621391">
				<ele>64.0</ele>
				<time>2014-08-17T16:46:23Z</time>
				<extensions>
					<speed>0.0</speed>
				</extensions>
			</trkpt>
			<trkpt lat="53.26210812" lon="-8.92621153">
				<ele>64.0</ele>
				<time>2014-08-17T16:46:24Z</time>
				<extensions>
					<speed>0.0</speed>
				</extensions>
			</trkpt>
			<trkpt lat="53.26210812" lon="-8.92621153">
				<ele>64.0</ele>
				<time>2014-08-17T16:46:25Z</time>
				<extensions>
					<speed>0.0</speed>
				</extensions>
			</trkpt>
			<trkpt lat="53.26210812" lon="-8.92621153">
				<ele>64.0</ele>
				<time>2014-08-17T16:46:26Z</time>
				<extensions>
					<speed>0.0</speed>
				</extensions>
			</trkpt>
			<trkpt lat="53.26210984" lon="-8.9262125">
				<ele>64.0</ele>
				<time>2014-08-17T16:46:27Z</time>
				<extensions>
					<speed>0.0</speed>
				</extensions>
			</trkpt>
			<trkpt lat="53.26210944" lon="-8.92621401">
				<ele>64.0</ele>
				<time>2014-08-17T16:46:28Z</time>
				<extensions>
					<speed>0.0</speed>
				</extensions>
			</trkpt>
			<trkpt lat="53.26210878" lon="-8.92621371">
				<ele>64.0</ele>
				<time>2014-08-17T16:46:29Z</time>
				<extensions>
					<speed>0.0</speed>
				</extensions>
			</trkpt>
			<trkpt lat="53.26210844" lon="-8.92621361">
				<ele>64.0</ele>
				<time>2014-08-17T16:46:30Z</time>
				<extensions>
					<speed>0.0</speed>
				</extensions>
			</trkpt>
			<trkpt lat="53.26210821" lon="-8.92621406">
				<ele>64.0</ele>
				<time>2014-08-17T16:46:31Z</time>
				<extensions>
					<speed>0.0</speed>
				</extensions>
			</trkpt>
			<trkpt lat="53.26210765" lon="-8.92621156">
				<ele>64.0</ele>
				<time>2014-08-17T16:46:32Z</time>
				<extensions>
					<speed>0.0</speed>
				</extensions>
			</trkpt>
			<trkpt lat="53.26210754" lon="-8.92621089">
				<ele>64.0</ele>
				<time>2014-08-17T16:46:33Z</time>
				<extensions>
					<speed>0.0</speed>
				</extensions>
			</trkpt>
			<trkpt lat="53.26210746" lon="-8.92621054">
				<ele>64.0</ele>
				<time>2014-08-17T16:46:34Z</time>
				<extensions>
					<speed>0.0</speed>
				</extensions>
			</trkpt>
			<trkpt lat="53.26210723" lon="-8.92620977">
				<ele>64.0</ele>
				<time>2014-08-17T16:46:35Z</time>
				<extensions>
					<speed>0.0</speed>
				</extensions>
			</trkpt>
			<trkpt lat="53.26210716" lon="-8.92621018">
				<ele>64.0</ele>
				<time>2014-08-17T16:46:36Z</time>
				<extensions>
					<speed>0.0</speed>
				</extensions>
			</trkpt>
			<trkpt lat="53.26210707" lon="-8.92621063">
				<ele>64.0</ele>
				<time>2014-08-17T16:46:37Z</time>
				<extensions>
					<speed>0.0</speed>
				</extensions>
			</trkpt>
			<trkpt lat="53.26210704" lon="-8.9262109">
				<ele>64.0</ele>
				<time>2014-08-17T16:46:38Z</time>
				<extensions>
					<speed>0.0</speed>
				</extensions>
			</trkpt>
			<trkpt lat="53.26210705" lon="-8.92621093">
				<ele>64.0</ele>
				<time>2014-08-17T16:46:39Z</time>
				<extensions>
					<speed>0.0</speed>
				</extensions>
			</trkpt>
			<trkpt lat="53.26210706" lon="-8.92621091">
				<ele>64.0</ele>
				<time>2014-08-17T16:46:40Z</time>
				<extensions>
					<speed>0.0</speed>
				</extensions>
			</trkpt>
			<trkpt lat="53.26210708" lon="-8.92621092">
				<ele>64.0</ele>
				<time>2014-08-17T16:46:41Z</time>
				<extensions>
					<speed>0.0</speed>
				</extensions>
			</trkpt>
			<trkpt lat="53.26210709" lon="-8.92621094">
				<ele>64.0</ele>
				<time>2014-08-17T16:46:42Z</time>
				<extensions>
					<speed>0.0</speed>
				</extensions>
			</trkpt>
			<trkpt lat="53.2621071" lon="-8.92621095">
				<ele>64.0</ele>
				<time>2014-08-17T16:46:43Z</time>
				<extensions>
					<speed>0.0</speed>
				</extensions>
			</trkpt>
			<trkpt lat="53.2621071" lon="-8.92621094">
				<ele>64.0</ele>
				<time>2014-08-17T16:46:44Z</time>
				<extensions>
					<speed>0.0</speed>
				</extensions>
			</trkpt>
			<trkpt lat="53.2621071" lon="-8.92621094">
				<ele>64.0</ele>
				<time>2014-08-17T16:46:45Z</time>
				<extensions>
					<speed>0.0</speed>
				</extensions>
			</trkpt>
			<trkpt lat="53.26210709" lon="-8.92621094">
				<ele>64.0</ele>
				<time>2014-08-17T16:46:46Z</time>
				<extensions>
					<speed>0.0</speed>
				</extensions>
			</trkpt>
			<trkpt lat="53.26210711" lon="-8.92621094">
				<ele>64.0</ele>
				<time>2014-08-17T16:46:47Z</time>
				<extensions>
					<speed>0.0</speed>
				</extensions>
			</trkpt>
			<trkpt lat="53.26210711" lon="-8.92621095">
				<ele>64.0</ele>
				<time>2014-08-17T16:46:48Z</time>
				<extensions>
					<speed>0.0</speed>
				</extensions>
			</trkpt>
			<trkpt lat="53.26210712" lon="-8.92621095">
				<ele>64.0</ele>
				<time>2014-08-17T16:46:49Z</time>
				<extensions>
					<speed>0.0</speed>
				</extensions>
			</trkpt>
			<trkpt lat="53.26210712" lon="-8.92621095">
				<ele>64.0</ele>
				<time>2014-08-17T16:46:50Z</time>
				<extensions>
					<speed>0.0</speed>
				</extensions>
			</trkpt>
			<trkpt lat="53.26210714" lon="-8.92621093">
				<ele>64.0</ele>
				<time>2014-08-17T16:46:51Z</time>
				<extensions>
					<speed>0.0</speed>
				</extensions>
			</trkpt>
			<trkpt lat="53.26210713" lon="-8.92621094">
				<ele>64.0</ele>
				<time>2014-08-17T16:46:52Z</time>
				<extensions>
					<speed>0.0</speed>
				</extensions>
			</trkpt>
			<trkpt lat="53.26210713" lon="-8.92621094">
				<ele>64.0</ele>
				<time>2014-08-17T16:46:53Z</time>
				<extensions>
					<speed>0.0</speed>
				</extensions>
			</trkpt>
			<trkpt lat="53.26210713" lon="-8.92621094">
				<ele>64.0</ele>
				<time>2014-08-17T16:46:54Z</time>
				<extensions>
					<speed>0.0</speed>
				</extensions>
			</trkpt>
			<trkpt lat="53.26210713" lon="-8.92621096">
				<ele>64.0</ele>
				<time>2014-08-17T16:46:55Z</time>
				<extensions>
					<speed>0.0</speed>
				</extensions>
			</trkpt>
			<trkpt lat="53.26210715" lon="-8.92621096">
				<ele>64.0</ele>
				<time>2014-08-17T16:46:56Z</time>
				<extensions>
					<speed>0.0</speed>
				</extensions>
			</trkpt>
			<trkpt lat="53.26210716" lon="-8.92621099">
				<ele>64.0</ele>
				<time>2014-08-17T16:46:57Z</time>
				<extensions>
					<speed>0.0</speed>
				</extensions>
			</trkpt>
			<trkpt lat="53.26210719" lon="-8.92621099">
				<ele>64.0</ele>
				<time>2014-08-17T16:46:58Z</time>
				<extensions>
					<speed>0.0</speed>
				</extensions>
			</trkpt>
			<trkpt lat="53.26210721" lon="-8.92621097">
				<ele>64.0</ele>
				<time>2014-08-17T16:46:59Z</time>
				<extensions>
					<speed>0.0</speed>
				</extensions>
			</trkpt>
			<trkpt lat="53.26210721" lon="-8.92621098">
				<ele>64.0</ele>
				<time>2014-08-17T16:47:00Z</time>
				<extensions>
					<speed>0.0</speed>
				</extensions>
			</trkpt>
			<trkpt lat="53.26210809" lon="-8.92621287">
				<ele>64.0</ele>
				<time>2014-08-17T16:47:01Z</time>
				<extensions>
					<speed>1.25</speed>
				</extensions>
			</trkpt>
			<trkpt lat="53.26212074" lon="-8.92623685">
				<ele>65.0</ele>
				<time>2014-08-17T16:47:02Z</time>
				<extensions>
					<speed>2.25</speed>
				</extensions>
			</trkpt>
			<trkpt lat="53.26213766" lon="-8.926277">
				<ele>66.0</ele>
				<time>2014-08-17T16:47:03Z</time>
				<extensions>
					<speed>3.0</speed>
				</extensions>
			</trkpt>
			<trkpt lat="53.26216297" lon="-8.92631395">
				<ele>66.0</ele>
				<time>2014-08-17T16:47:04Z</time>
				<extensions>
					<speed>3.25</speed>
				</extensions>
			</trkpt>
			<trkpt lat="53.26218241" lon="-8.92635081">
				<ele>67.0</ele>
				<time>2014-08-17T16:47:05Z</time>
				<extensions>
					<speed>3.25</speed>
				</extensions>
			</trkpt>
			<trkpt lat="53.26219908" lon="-8.92638997">
				<ele>68.0</ele>
				<time>2014-08-17T16:47:06Z</time>
				<extensions>
					<speed>2.75</speed>
				</extensions>
			</trkpt>
			<trkpt lat="53.26221496" lon="-8.92641967">
				<ele>68.0</ele>
				<time>2014-08-17T16:47:07Z</time>
				<extensions>
					<speed>2.5</speed>
				</extensions>
			</trkpt>
			<trkpt lat="53.26222249" lon="-8.92644401">
				<ele>68.0</ele>
				<time>2014-08-17T16:47:08Z</time>
				<extensions>
					<speed>1.75</speed>
				</extensions>
			</trkpt>
			<trkpt lat="53.26222734" lon="-8.92645696">
				<ele>68.0</ele>
				<time>2014-08-17T16:47:09Z</time>
				<extensions>
					<speed>1.0</speed>
				</extensions>
			</trkpt>
			<trkpt lat="53.26222489" lon="-8.92645805">
				<ele>67.0</ele>
				<time>2014-08-17T16:47:10Z</time>
				<extensions>
					<speed>0.0</speed>
				</extensions>
			</trkpt>
			<trkpt lat="53.26222568" lon="-8.9264629">
				<ele>67.0</ele>
				<time>2014-08-17T16:47:11Z</time>
				<extensions>
					<speed>0.0</speed>
				</extensions>
			</trkpt>
			<trkpt lat="53.2622243" lon="-8.9264624">
				<ele>67.0</ele>
				<time>2014-08-17T16:47:12Z</time>
				<extensions>
					<speed>0.0</speed>
				</extensions>
			</trkpt>
			<trkpt lat="53.26222618" lon="-8.92646516">
				<ele>67.0</ele>
				<time>2014-08-17T16:47:13Z</time>
				<extensions>
					<speed>0.0</speed>
				</extensions>
			</trkpt>
			<trkpt lat="53.26222513" lon="-8.92646021">
				<ele>67.0</ele>
				<time>2014-08-17T16:47:14Z</time>
				<extensions>
					<speed>0.0</speed>
				</extensions>
			</trkpt>
			<trkpt lat="53.26222746" lon="-8.92646098">
				<ele>66.0</ele>
				<time>2014-08-17T16:47:15Z</time>
				<extensions>
					<speed>0.0</speed>
				</extensions>
			</trkpt>
			<trkpt lat="53.2622281" lon="-8.92646197">
				<ele>67.0</ele>
				<time>2014-08-17T16:47:16Z</time>
				<extensions>
					<speed>0.0</speed>
				</extensions>
			</trkpt>
			<trkpt lat="53.26222674" lon="-8.92645843">
				<ele>67.0</ele>
				<time>2014-08-17T16:47:17Z</time>
				<extensions>
					<speed>0.0</speed>
				</extensions>
			</trkpt>
			<trkpt lat="53.26222462" lon="-8.92645392">
				<ele>67.0</ele>
				<time>2014-08-17T16:47:18Z</time>
				<extensions>
					<speed>0.0</speed>
				</extensions>
			</trkpt>
			<trkpt lat="53.26222318" lon="-8.92645517">
				<ele>67.0</ele>
				<time>2014-08-17T16:47:19Z</time>
				<extensions>
					<speed>0.0</speed>
				</extensions>
			</trkpt>
			<trkpt lat="53.26222418" lon="-8.92645312">
				<ele>68.0</ele>
				<time>2014-08-17T16:47:20Z</time>
				<extensions>
					<speed>0.0</speed>
				</extensions>
			</trkpt>
			<trkpt lat="53.26222461" lon="-8.92645363">
				<ele>68.0</ele>
				<time>2014-08-17T16:47:21Z</time>
				<extensions>
					<speed>0.0</speed>
				</extensions>
			</trkpt>
			<trkpt lat="53.2622246" lon="-8.92645351">
				<ele>68.0</ele>
				<time>2014-08-17T16:47:22Z</time>
				<extensions>
					<speed>0.0</speed>
				</extensions>
			</trkpt>
			<trkpt lat="53.26222472" lon="-8.92645365">
				<ele>68.0</ele>
				<time>2014-08-17T16:47:23Z</time>
				<extensions>
					<speed>0.0</speed>
				</extensions>
			</trkpt>
			<trkpt lat="53.26222631" lon="-8.92645796">
				<ele>68.0</ele>
				<time>2014-08-17T16:47:24Z</time>
				<extensions>
					<speed>1.75</speed>
				</extensions>
			</trkpt>
			<trkpt lat="53.2622426" lon="-8.92649559">
				<ele>68.0</ele>
				<time>2014-08-17T16:47:25Z</time>
				<extensions>
					<speed>3.25</speed>
				</extensions>
			</trkpt>
			<trkpt lat="53.26226011" lon="-8.92653844">
				<ele>68.0</ele>
				<time>2014-08-17T16:47:26Z</time>
				<extensions>
					<speed>3.5</speed>
				</extensions>
			</trkpt>
			<trkpt lat="53.26227968" lon="-8.92657912">
				<ele>68.0</ele>
				<time>2014-08-17T16:47:27Z</time>
				<extensions>
					<speed>3.5</speed>
				</extensions>
			</trkpt>
			<trkpt lat="53.26229936" lon="-8.92661883">
				<ele>68.0</ele>
				<time>2014-08-17T16:47:28Z</time>
				<extensions>
					<speed>3.0</speed>
				</extensions>
			</trkpt>
			<trkpt lat="53.26231705" lon="-8.92664984">
				<ele>67.0</ele>
				<time>2014-08-17T16:47:29Z</time>
				<extensions>
					<speed>2.75</speed>
				</extensions>
			</trkpt>
			<trkpt lat="53.2623307" lon="-8.9266691">
				<ele>68.0</ele>
				<time>2014-08-17T16:47:30Z</time>
				<extensions>
					<speed>1.75</speed>
				</extensions>
			</trkpt>
			<trkpt lat="53.26233794" lon="-8.92668401">
				<ele>68.0</ele>
				<time>2014-08-17T16:47:31Z</time>
				<extensions>
					<speed>0.75</speed>
				</extensions>
			</trkpt>
			<trkpt lat="53.26233772" lon="-8.92668839">
				<ele>68.0</ele>
				<time>2014-08-17T16:47:32Z</time>
				<extensions>
					<speed>0.0</speed>
				</extensions>
			</trkpt>
			<trkpt lat="53.26233871" lon="-8.92669366">
				<ele>68.0</ele>
				<time>2014-08-17T16:47:33Z</time>
				<extensions>
					<speed>0.0</speed>
				</extensions>
			</trkpt>
			<trkpt lat="53.26233996" lon="-8.92669614">
				<ele>68.0</ele>
				<time>2014-08-17T16:47:34Z</time>
				<extensions>
					<speed>0.0</speed>
				</extensions>
			</trkpt>
			<trkpt lat="53.26233915" lon="-8.92669777">
				<ele>68.0</ele>
				<time>2014-08-17T16:47:35Z</time>
				<extensions>
					<speed>0.0</speed>
				</extensions>
			</trkpt>
			<trkpt lat="53.2623408" lon="-8.92670041">
				<ele>68.0</ele>
				<time>2014-08-17T16:47:36Z</time>
				<extensions>
					<speed>0.0</speed>
				</extensions>
			</trkpt>
			<trkpt lat="53.26234072" lon="-8.92670155">
				<ele>69.0</ele>
				<time>2014-08-17T16:47:37Z</time>
				<extensions>
					<speed>0.0</speed>
				</extensions>
			</trkpt>
			<trkpt lat="53.26234198" lon="-8.92670432">
				<ele>69.0</ele>
				<time>2014-08-17T16:47:38Z</time>
				<extensions>
					<speed>0.0</speed>
				</extensions>
			</trkpt>
			<trkpt lat="53.26234174" lon="-8.92670839">
				<ele>68.0</ele>
				<time>2014-08-17T16:47:39Z</time>
				<extensions>
					<speed>0.0</speed>
				</extensions>
			</trkpt>
			<trkpt lat="53.26234168" lon="-8.92671042">
				<ele>69.0</ele>
				<time>2014-08-17T16:47:40Z</time>
				<extensions>
					<speed>0.0</speed>
				</extensions>
			</trkpt>
			<trkpt lat="53.26234088" lon="-8.9267124">
				<ele>69.0</ele>
				<time>2014-08-17T16:47:41Z</time>
				<extensions>
					<speed>0.0</speed>
				</extensions>
			</trkpt>
			<trkpt lat="53.26234134" lon="-8.92671441">
				<ele>69.0</ele>
				<time>2014-08-17T16:47:42Z</time>
				<extensions>
					<speed>0.0</speed>
				</extensions>
			</trkpt>
			<trkpt lat="53.2623418" lon="-8.9267153">
				<ele>69.0</ele>
				<time>2014-08-17T16:47:43Z</time>
				<extensions>
					<speed>0.5</speed>
				</extensions>
			</trkpt>
			<trkpt lat="53.26235111" lon="-8.92673789">
				<ele>69.0</ele>
				<time>2014-08-17T16:47:44Z</time>
				<extensions>
					<speed>1.75</speed>
				</extensions>
			</trkpt>
			<trkpt lat="53.26236469" lon="-8.92677654">
				<ele>68.0</ele>
				<time>2014-08-17T16:47:45Z</time>
				<extensions>
					<speed>2.75</speed>
				</extensions>
			</trkpt>
			<trkpt lat="53.26237821" lon="-8.92681043">
				<ele>69.0</ele>
				<time>2014-08-17T16:47:46Z</time>
				<extensions>
					<speed>3.0</speed>
				</extensions>
			</trkpt>
			<trkpt lat="53.26239601" lon="-8.92684502">
				<ele>69.0</ele>
				<time>2014-08-17T16:47:47Z</time>
				<extensions>
					<speed>3.0</speed>
				</extensions>
			</trkpt>
			<trkpt lat="53.26241239" lon="-8.92687732">
				<ele>69.0</ele>
				<time>2014-08-17T16:47:48Z</time>
				<extensions>
					<speed>2.75</speed>
				</extensions>
			</trkpt>
			<trkpt lat="53.26242891" lon="-8.92690562">
				<ele>69.0</ele>
				<time>2014-08-17T16:47:49Z</time>
				<extensions>
					<speed>2.5</speed>
				</extensions>
			</trkpt>
			<trkpt lat="53.26244275" lon="-8.92692696">
				<ele>69.0</ele>
				<time>2014-08-17T16:47:50Z</time>
				<extensions>
					<speed>2.25</speed>
				</extensions>
			</trkpt>
			<trkpt lat="53.26245219" lon="-8.92694429">
				<ele>70.0</ele>
				<time>2014-08-17T16:47:51Z</time>
				<extensions>
					<speed>1.25</speed>
				</extensions>
			</trkpt>
			<trkpt lat="53.26245527" lon="-8.92695557">
				<ele>70.0</ele>
				<time>2014-08-17T16:47:52Z</time>
				<extensions>
					<speed>0.5</speed>
				</extensions>
			</trkpt>
			<trkpt lat="53.26245796" lon="-8.92695408">
				<ele>69.0</ele>
				<time>2014-08-17T16:47:53Z</time>
				<extensions>
					<speed>0.0</speed>
				</extensions>
			</trkpt>
			<trkpt lat="53.26245711" lon="-8.92695518">
				<ele>69.0</ele>
				<time>2014-08-17T16:47:54Z</time>
				<extensions>
					<speed>0.0</speed>
				</extensions>
			</trkpt>
			<trkpt lat="53.26245689" lon="-8.92695685">
				<ele>69.0</ele>
				<time>2014-08-17T16:47:55Z</time>
				<extensions>
					<speed>0.0</speed>
				</extensions>
			</trkpt>
			<trkpt lat="53.26245648" lon="-8.92695734">
				<ele>69.0</ele>
				<time>2014-08-17T16:47:56Z</time>
				<extensions>
					<speed>0.0</speed>
				</extensions>
			</trkpt>
			<trkpt lat="53.26245495" lon="-8.9269582">
				<ele>69.0</ele>
				<time>2014-08-17T16:47:57Z</time>
				<extensions>
					<speed>0.0</speed>
				</extensions>
			</trkpt>
			<trkpt lat="53.26245428" lon="-8.92695631">
				<ele>69.0</ele>
				<time>2014-08-17T16:47:58Z</time>
				<extensions>
					<speed>0.0</speed>
				</extensions>
			</trkpt>
			<trkpt lat="53.26245536" lon="-8.92695329">
				<ele>68.0</ele>
				<time>2014-08-17T16:47:59Z</time>
				<extensions>
					<speed>0.0</speed>
				</extensions>
			</trkpt>
			<trkpt lat="53.26245656" lon="-8.92694855">
				<ele>68.0</ele>
				<time>2014-08-17T16:48:00Z</time>
				<extensions>
					<speed>0.0</speed>
				</extensions>
			</trkpt>
			<trkpt lat="53.26245764" lon="-8.92695141">
				<ele>68.0</ele>
				<time>2014-08-17T16:48:01Z</time>
				<extensions>
					<speed>1.5</speed>
				</extensions>
			</trkpt>
			<trkpt lat="53.26247278" lon="-8.92698199">
				<ele>68.0</ele>
				<time>2014-08-17T16:48:02Z</time>
				<extensions>
					<speed>2.75</speed>
				</extensions>
			</trkpt>
			<trkpt lat="53.26249014" lon="-8.92702249">
				<ele>68.0</ele>
				<time>2014-08-17T16:48:03Z</time>
				<extensions>
					<speed>3.25</speed>
				</extensions>
			</trkpt>
			<trkpt lat="53.26250586" lon="-8.92706325">
				<ele>69.0</ele>
				<time>2014-08-17T16:48:04Z</time>
				<extensions>
					<speed>2.75</speed>
				</extensions>
			</trkpt>
			<trkpt lat="53.26251908" lon="-8.92710163">
				<ele>69.0</ele>
				<time>2014-08-17T16:48:05Z</time>
				<extensions>
					<speed>2.25</speed>
				</extensions>
			</trkpt>
			<trkpt lat="53.2625311" lon="-8.92713304">
				<ele>69.0</ele>
				<time>2014-08-17T16:48:06Z</time>
				<extensions>
					<speed>2.25</speed>
				</extensions>
			</trkpt>
			<trkpt lat="53.26253905" lon="-8.92715521">
				<ele>69.0</ele>
				<time>2014-08-17T16:48:07Z</time>
				<extensions>
					<speed>1.5</speed>
				</extensions>
			</trkpt>
			<trkpt lat="53.26254443" lon="-8.92717549">
				<ele>69.0</ele>
				<time>2014-08-17T16:48:08Z</time>
				<extensions>
					<speed>0.75</speed>
				</extensions>
			</trkpt>
			<trkpt lat="53.26253951" lon="-8.9271856">
				<ele>69.0</ele>
				<time>2014-08-17T16:48:09Z</time>
				<extensions>
					<speed>0.0</speed>
				</extensions>
			</trkpt>
			<trkpt lat="53.26253797" lon="-8.92718638">
				<ele>68.0</ele>
				<time>2014-08-17T16:48:10Z</time>
				<extensions>
					<speed>0.0</speed>
				</extensions>
			</trkpt>
			<trkpt lat="53.26253576" lon="-8.92718883">
				<ele>68.0</ele>
				<time>2014-08-17T16:48:11Z</time>
				<extensions>
					<speed>0.0</speed>
				</extensions>
			</trkpt>
			<trkpt lat="53.26253576" lon="-8.92718883">
				<ele>68.0</ele>
				<time>2014-08-17T16:48:12Z</time>
				<extensions>
					<speed>0.0</speed>
				</extensions>
			</trkpt>
			<trkpt lat="53.26253065" lon="-8.92718276">
				<ele>68.0</ele>
				<time>2014-08-17T16:48:13Z</time>
				<extensions>
					<speed>0.0</speed>
				</extensions>
			</trkpt>
			<trkpt lat="53.26253065" lon="-8.92718276">
				<ele>68.0</ele>
				<time>2014-08-17T16:48:14Z</time>
				<extensions>
					<speed>0.0</speed>
				</extensions>
			</trkpt>
			<trkpt lat="53.26252614" lon="-8.92718135">
				<ele>68.0</ele>
				<time>2014-08-17T16:48:15Z</time>
				<extensions>
					<speed>0.0</speed>
				</extensions>
			</trkpt>
			<trkpt lat="53.26252482" lon="-8.92717825">
				<ele>68.0</ele>
				<time>2014-08-17T16:48:16Z</time>
				<extensions>
					<speed>0.0</speed>
				</extensions>
			</trkpt>
			<trkpt lat="53.26252482" lon="-8.92717825">
				<ele>68.0</ele>
				<time>2014-08-17T16:48:17Z</time>
				<extensions>
					<speed>0.0</speed>
				</extensions>
			</trkpt>
			<trkpt lat="53.26252617" lon="-8.92717811">
				<ele>68.0</ele>
				<time>2014-08-17T16:48:18Z</time>
				<extensions>
					<speed>0.0</speed>
				</extensions>
			</trkpt>
			<trkpt lat="53.2625252" lon="-8.92717766">
				<ele>68.0</ele>
				<time>2014-08-17T16:48:19Z</time>
				<extensions>
					<speed>0.0</speed>
				</extensions>
			</trkpt>
			<trkpt lat="53.2625252" lon="-8.92717587">
				<ele>68.0</ele>
				<time>2014-08-17T16:48:20Z</time>
				<extensions>
					<speed>0.0</speed>
				</extensions>
			</trkpt>
			<trkpt lat="53.26252515" lon="-8.92717573">
				<ele>68.0</ele>
				<time>2014-08-17T16:48:21Z</time>
				<extensions>
					<speed>0.0</speed>
				</extensions>
			</trkpt>
			<trkpt lat="53.26252597" lon="-8.92717726">
				<ele>68.0</ele>
				<time>2014-08-17T16:48:22Z</time>
				<extensions>
					<speed>1.0</speed>
				</extensions>
			</trkpt>
			<trkpt lat="53.2625309" lon="-8.92719424">
				<ele>68.0</ele>
				<time>2014-08-17T16:48:23Z</time>
				<extensions>
					<speed>2.25</speed>
				</extensions>
			</trkpt>
			<trkpt lat="53.26254963" lon="-8.92721311">
				<ele>69.0</ele>
				<time>2014-08-17T16:48:24Z</time>
				<extensions>
					<speed>3.0</speed>
				</extensions>
			</trkpt>
			<trkpt lat="53.26257736" lon="-8.92725025">
				<ele>68.0</ele>
				<time>2014-08-17T16:48:25Z</time>
				<extensions>
					<speed>3.5</speed>
				</extensions>
			</trkpt>
			<trkpt lat="53.26259702" lon="-8.92729497">
				<ele>68.0</ele>
				<time>2014-08-17T16:48:26Z</time>
				<extensions>
					<speed>3.5</speed>
				</extensions>
			</trkpt>
			<trkpt lat="53.26261521" lon="-8.92734424">
				<ele>67.0</ele>
				<time>2014-08-17T16:48:27Z</time>
				<extensions>
					<speed>3.5</speed>
				</extensions>
			</trkpt>
			<trkpt lat="53.26263041" lon="-8.92739472">
				<ele>68.0</ele>
				<time>2014-08-17T16:48:28Z</time>
				<extensions>
					<speed>3.75</speed>
				</extensions>
			</trkpt>
			<trkpt lat="53.26264498" lon="-8.92744035">
				<ele>69.0</ele>
				<time>2014-08-17T16:48:29Z</time>
				<extensions>
					<speed>3.5</speed>
				</extensions>
			</trkpt>
			<trkpt lat="53.2626573" lon="-8.92749125">
				<ele>69.0</ele>
				<time>2014-08-17T16:48:30Z</time>
				<extensions>
					<speed>3.5</speed>
				</extensions>
			</trkpt>
			<trkpt lat="53.26266775" lon="-8.92754204">
				<ele>69.0</ele>
				<time>2014-08-17T16:48:31Z</time>
				<extensions>
					<speed>3.0</speed>
				</extensions>
			</trkpt>
			<trkpt lat="53.26268053" lon="-8.92758415">
				<ele>69.0</ele>
				<time>2014-08-17T16:48:32Z</time>
				<extensions>
					<speed>2.75</speed>
				</extensions>
			</trkpt>
			<trkpt lat="53.26269304" lon="-8.92761676">
				<ele>69.0</ele>
				<time>2014-08-17T16:48:33Z</time>
				<extensions>
					<speed>2.5</speed>
				</extensions>
			</trkpt>
			<trkpt lat="53.26270413" lon="-8.92764549">
				<ele>69.0</ele>
				<time>2014-08-17T16:48:34Z</time>
				<extensions>
					<speed>2.25</speed>
				</extensions>
			</trkpt>
			<trkpt lat="53.26271349" lon="-8.92766217">
				<ele>69.0</ele>
				<time>2014-08-17T16:48:35Z</time>
				<extensions>
					<speed>1.5</speed>
				</extensions>
			</trkpt>
			<trkpt lat="53.26271599" lon="-8.92767621">
				<ele>70.0</ele>
				<time>2014-08-17T16:48:36Z</time>
				<extensions>
					<speed>0.75</speed>
				</extensions>
			</trkpt>
			<trkpt lat="53.26271813" lon="-8.92768098">
				<ele>70.0</ele>
				<time>2014-08-17T16:48:37Z</time>
				<extensions>
					<speed>0.0</speed>
				</extensions>
			</trkpt>
			<trkpt lat="53.26271831" lon="-8.9276866">
				<ele>70.0</ele>
				<time>2014-08-17T16:48:38Z</time>
				<extensions>
					<speed>0.0</speed>
				</extensions>
			</trkpt>
			<trkpt lat="53.26272146" lon="-8.92768293">
				<ele>71.0</ele>
				<time>2014-08-17T16:48:39Z</time>
				<extensions>
					<speed>0.0</speed>
				</extensions>
			</trkpt>
			<trkpt lat="53.26272303" lon="-8.92768348">
				<ele>71.0</ele>
				<time>2014-08-17T16:48:40Z</time>
				<extensions>
					<speed>0.0</speed>
				</extensions>
			</trkpt>
			<trkpt lat="53.26272507" lon="-8.92768403">
				<ele>72.0</ele>
				<time>2014-08-17T16:48:41Z</time>
				<extensions>
					<speed>0.0</speed>
				</extensions>
			</trkpt>
			<trkpt lat="53.26272689" lon="-8.92768089">
				<ele>72.0</ele>
				<time>2014-08-17T16:48:42Z</time>
				<extensions>
					<speed>0.0</speed>
				</extensions>
			</trkpt>
			<trkpt lat="53.26272906" lon="-8.92768295">
				<ele>72.0</ele>
				<time>2014-08-17T16:48:43Z</time>
				<extensions>
					<speed>0.0</speed>
				</extensions>
			</trkpt>
			<trkpt lat="53.26273131" lon="-8.92768164">
				<ele>72.0</ele>
				<time>2014-08-17T16:48:44Z</time>
				<extensions>
					<speed>0.0</speed>
				</extensions>
			</trkpt>
			<trkpt lat="53.26273131" lon="-8.92768164">
				<ele>72.0</ele>
				<time>2014-08-17T16:48:45Z</time>
				<extensions>
					<speed>0.0</speed>
				</extensions>
			</trkpt>
			<trkpt lat="53.26273131" lon="-8.92768164">
				<ele>72.0</ele>
				<time>2014-08-17T16:48:46Z</time>
				<extensions>
					<speed>0.0</speed>
				</extensions>
			</trkpt>
			<trkpt lat="53.26273408" lon="-8.92767563">
				<ele>72.0</ele>
				<time>2014-08-17T16:48:47Z</time>
				<extensions>
					<speed>0.0</speed>
				</extensions>
			</trkpt>
			<trkpt lat="53.26273485" lon="-8.92767447">
				<ele>72.0</ele>
				<time>2014-08-17T16:48:48Z</time>
				<extensions>
					<speed>0.0</speed>
				</extensions>
			</trkpt>
			<trkpt lat="53.26273516" lon="-8.92767512">
				<ele>72.0</ele>
				<time>2014-08-17T16:48:49Z</time>
				<extensions>
					<speed>0.0</speed>
				</extensions>
			</trkpt>
			<trkpt lat="53.2627352" lon="-8.92767573">
				<ele>72.0</ele>
				<time>2014-08-17T16:48:50Z</time>
				<extensions>
					<speed>0.0</speed>
				</extensions>
			</trkpt>
			<trkpt lat="53.2627352" lon="-8.92767598">
				<ele>72.0</ele>
				<time>2014-08-17T16:48:51Z</time>
				<extensions>
					<speed>0.0</speed>
				</extensions>
			</trkpt>
			<trkpt lat="53.26273519" lon="-8.92767591">
				<ele>72.0</ele>
				<time>2014-08-17T16:48:52Z</time>
				<extensions>
					<speed>0.0</speed>
				</extensions>
			</trkpt>
			<trkpt lat="53.26273516" lon="-8.927676">
				<ele>72.0</ele>
				<time>2014-08-17T16:48:53Z</time>
				<extensions>
					<speed>0.0</speed>
				</extensions>
			</trkpt>
			<trkpt lat="53.26273516" lon="-8.92767597">
				<ele>72.0</ele>
				<time>2014-08-17T16:48:54Z</time>
				<extensions>
					<speed>0.0</speed>
				</extensions>
			</trkpt>
			<trkpt lat="53.26273516" lon="-8.92767597">
				<ele>72.0</ele>
				<time>2014-08-17T16:48:55Z</time>
				<extensions>
					<speed>0.0</speed>
				</extensions>
			</trkpt>
			<trkpt lat="53.26273516" lon="-8.92767597">
				<ele>72.0</ele>
				<time>2014-08-17T16:48:56Z</time>
				<extensions>
					<speed>0.0</speed>
				</extensions>
			</trkpt>
			<trkpt lat="53.26273552" lon="-8.92767727">
				<ele>72.0</ele>
				<time>2014-08-17T16:48:57Z</time>
				<extensions>
					<speed>0.0</speed>
				</extensions>
			</trkpt>
			<trkpt lat="53.2627355" lon="-8.92767729">
				<ele>72.0</ele>
				<time>2014-08-17T16:48:58Z</time>
				<extensions>
					<speed>0.0</speed>
				</extensions>
			</trkpt>
			<trkpt lat="53.2627355" lon="-8.92767727">
				<ele>72.0</ele>
				<time>2014-08-17T16:48:59Z</time>
				<extensions>
					<speed>0.0</speed>
				</extensions>
			</trkpt>
			<trkpt lat="53.26273547" lon="-8.92767727">
				<ele>72.0</ele>
				<time>2014-08-17T16:49:00Z</time>
				<extensions>
					<speed>0.0</speed>
				</extensions>
			</trkpt>
			<trkpt lat="53.26273546" lon="-8.92767729">
				<ele>72.0</ele>
				<time>2014-08-17T16:49:01Z</time>
				<extensions>
					<speed>0.0</speed>
				</extensions>
			</trkpt>
			<trkpt lat="53.26273545" lon="-8.9276773">
				<ele>72.0</ele>
				<time>2014-08-17T16:49:02Z</time>
				<extensions>
					<speed>0.0</speed>
				</extensions>
			</trkpt>
			<trkpt lat="53.26273543" lon="-8.9276773">
				<ele>72.0</ele>
				<time>2014-08-17T16:49:03Z</time>
				<extensions>
					<speed>0.0</speed>
				</extensions>
			</trkpt>
			<trkpt lat="53.2627354" lon="-8.92767735">
				<ele>72.0</ele>
				<time>2014-08-17T16:49:04Z</time>
				<extensions>
					<speed>0.0</speed>
				</extensions>
			</trkpt>
			<trkpt lat="53.26273578" lon="-8.92767857">
				<ele>72.0</ele>
				<time>2014-08-17T16:49:05Z</time>
				<extensions>
					<speed>0.75</speed>
				</extensions>
			</trkpt>
			<trkpt lat="53.26274289" lon="-8.92769">
				<ele>73.0</ele>
				<time>2014-08-17T16:49:06Z</time>
				<extensions>
					<speed>1.5</speed>
				</extensions>
			</trkpt>
			<trkpt lat="53.26275542" lon="-8.92771429">
				<ele>73.0</ele>
				<time>2014-08-17T16:49:07Z</time>
				<extensions>
					<speed>2.25</speed>
				</extensions>
			</trkpt>
			<trkpt lat="53.2627673" lon="-8.92774801">
				<ele>73.0</ele>
				<time>2014-08-17T16:49:08Z</time>
				<extensions>
					<speed>2.5</speed>
				</extensions>
			</trkpt>
			<trkpt lat="53.26278228" lon="-8.9277839">
				<ele>73.0</ele>
				<time>2014-08-17T16:49:09Z</time>
				<extensions>
					<speed>2.75</speed>
				</extensions>
			</trkpt>
			<trkpt lat="53.26279604" lon="-8.92781837">
				<ele>74.0</ele>
				<time>2014-08-17T16:49:10Z</time>
				<extensions>
					<speed>2.5</speed>
				</extensions>
			</trkpt>
			<trkpt lat="53.26280981" lon="-8.92784437">
				<ele>73.0</ele>
				<time>2014-08-17T16:49:11Z</time>
				<extensions>
					<speed>2.5</speed>
				</extensions>
			</trkpt>
			<trkpt lat="53.26282509" lon="-8.92787836">
				<ele>73.0</ele>
				<time>2014-08-17T16:49:12Z</time>
				<extensions>
					<speed>2.5</speed>
				</extensions>
			</trkpt>
			<trkpt lat="53.262843" lon="-8.92790231">
				<ele>74.0</ele>
				<time>2014-08-17T16:49:13Z</time>
				<extensions>
					<speed>2.75</speed>
				</extensions>
			</trkpt>
			<trkpt lat="53.26286457" lon="-8.92792926">
				<ele>74.0</ele>
				<time>2014-08-17T16:49:14Z</time>
				<extensions>
					<speed>3.0</speed>
				</extensions>
			</trkpt>
			<trkpt lat="53.26288865" lon="-8.92794282">
				<ele>73.0</ele>
				<time>2014-08-17T16:49:15Z</time>
				<extensions>
					<speed>2.75</speed>
				</extensions>
			</trkpt>
			<trkpt lat="53.26291662" lon="-8.92793768">
				<ele>72.0</ele>
				<time>2014-08-17T16:49:16Z</time>
				<extensions>
					<speed>3.0</speed>
				</extensions>
			</trkpt>
			<trkpt lat="53.26294164" lon="-8.92794114">
				<ele>72.0</ele>
				<time>2014-08-17T16:49:17Z</time>
				<extensions>
					<speed>2.75</speed>
				</extensions>
			</trkpt>
			<trkpt lat="53.26296537" lon="-8.92793106">
				<ele>72.0</ele>
				<time>2014-08-17T16:49:18Z</time>
				<extensions>
					<speed>2.5</speed>
				</extensions>
			</trkpt>
			<trkpt lat="53.26297784" lon="-8.92792295">
				<ele>71.0</ele>
				<time>2014-08-17T16:49:19Z</time>
				<extensions>
					<speed>1.75</speed>
				</extensions>
			</trkpt>
			<trkpt lat="53.26298502" lon="-8.92790882">
				<ele>71.0</ele>
				<time>2014-08-17T16:49:20Z</time>
				<extensions>
					<speed>1.25</speed>
				</extensions>
			</trkpt>
			<trkpt lat="53.2629853" lon="-8.92789258">
				<ele>70.0</ele>
				<time>2014-08-17T16:49:21Z</time>
				<extensions>
					<speed>0.75</speed>
				</extensions>
			</trkpt>
			<trkpt lat="53.26298525" lon="-8.92788518">
				<ele>70.0</ele>
				<time>2014-08-17T16:49:22Z</time>
				<extensions>
					<speed>0.0</speed>
				</extensions>
			</trkpt>
			<trkpt lat="53.26298232" lon="-8.92788758">
				<ele>69.0</ele>
				<time>2014-08-17T16:49:23Z</time>
				<extensions>
					<speed>0.0</speed>
				</extensions>
			</trkpt>
			<trkpt lat="53.26298102" lon="-8.92788556">
				<ele>69.0</ele>
				<time>2014-08-17T16:49:24Z</time>
				<extensions>
					<speed>0.0</speed>
				</extensions>
			</trkpt>
			<trkpt lat="53.26297865" lon="-8.92788576">
				<ele>69.0</ele>
				<time>2014-08-17T16:49:25Z</time>
				<extensions>
					<speed>0.0</speed>
				</extensions>
			</trkpt>
			<trkpt lat="53.26297847" lon="-8.92788724">
				<ele>69.0</ele>
				<time>2014-08-17T16:49:26Z</time>
				<extensions>
					<speed>0.0</speed>
				</extensions>
			</trkpt>
			<trkpt lat="53.26297909" lon="-8.9278875">
				<ele>68.0</ele>
				<time>2014-08-17T16:49:27Z</time>
				<extensions>
					<speed>0.0</speed>
				</extensions>
			</trkpt>
			<trkpt lat="53.26297721" lon="-8.92788753">
				<ele>68.0</ele>
				<time>2014-08-17T16:49:28Z</time>
				<extensions>
					<speed>0.0</speed>
				</extensions>
			</trkpt>
			<trkpt lat="53.26297775" lon="-8.92788783">
				<ele>68.0</ele>
				<time>2014-08-17T16:49:29Z</time>
				<extensions>
					<speed>0.0</speed>
				</extensions>
			</trkpt>
			<trkpt lat="53.26297812" lon="-8.92788983">
				<ele>67.0</ele>
				<time>2014-08-17T16:49:30Z</time>
				<extensions>
					<speed>0.0</speed>
				</extensions>
			</trkpt>
			<trkpt lat="53.26297823" lon="-8.92788867">
				<ele>67.0</ele>
				<time>2014-08-17T16:49:31Z</time>
				<extensions>
					<speed>0.0</speed>
				</extensions>
			</trkpt>
			<trkpt lat="53.26297795" lon="-8.92788957">
				<ele>67.0</ele>
				<time>2014-08-17T16:49:32Z</time>
				<extensions>
					<speed>0.0</speed>
				</extensions>
			</trkpt>
			<trkpt lat="53.26297773" lon="-8.92788982">
				<ele>67.0</ele>
				<time>2014-08-17T16:49:33Z</time>
				<extensions>
					<speed>0.0</speed>
				</extensions>
			</trkpt>
			<trkpt lat="53.26297768" lon="-8.92788986">
				<ele>67.0</ele>
				<time>2014-08-17T16:49:34Z</time>
				<extensions>
					<speed>0.0</speed>
				</extensions>
			</trkpt>
			<trkpt lat="53.26297766" lon="-8.92788971">
				<ele>67.0</ele>
				<time>2014-08-17T16:49:35Z</time>
				<extensions>
					<speed>0.0</speed>
				</extensions>
			</trkpt>
			<trkpt lat="53.26297766" lon="-8.92788977">
				<ele>67.0</ele>
				<time>2014-08-17T16:49:36Z</time>
				<extensions>
					<speed>0.0</speed>
				</extensions>
			</trkpt>
			<trkpt lat="53.26297764" lon="-8.92788976">
				<ele>67.0</ele>
				<time>2014-08-17T16:49:37Z</time>
				<extensions>
					<speed>0.0</speed>
				</extensions>
			</trkpt>
			<trkpt lat="53.2629776" lon="-8.92788976">
				<ele>67.0</ele>
				<time>2014-08-17T16:49:38Z</time>
				<extensions>
					<speed>0.0</speed>
				</extensions>
			</trkpt>
			<trkpt lat="53.26297761" lon="-8.92788979">
				<ele>67.0</ele>
				<time>2014-08-17T16:49:39Z</time>
				<extensions>
					<speed>0.0</speed>
				</extensions>
			</trkpt>
			<trkpt lat="53.26297762" lon="-8.92788981">
				<ele>67.0</ele>
				<time>2014-08-17T16:49:40Z</time>
				<extensions>
					<speed>0.0</speed>
				</extensions>
			</trkpt>
			<trkpt lat="53.26297761" lon="-8.92788983">
				<ele>67.0</ele>
				<time>2014-08-17T16:49:41Z</time>
				<extensions>
					<speed>0.0</speed>
				</extensions>
			</trkpt>
			<trkpt lat="53.26297763" lon="-8.92788979">
				<ele>67.0</ele>
				<time>2014-08-17T16:49:42Z</time>
				<extensions>
					<speed>0.0</speed>
				</extensions>
			</trkpt>
			<trkpt lat="53.26297759" lon="-8.92788976">
				<ele>67.0</ele>
				<time>2014-08-17T16:49:43Z</time>
				<extensions>
					<speed>0.0</speed>
				</extensions>
			</trkpt>
			<trkpt lat="53.26297759" lon="-8.92788978">
				<ele>67.0</ele>
				<time>2014-08-17T16:49:44Z</time>
				<extensions>
					<speed>0.0</speed>
				</extensions>
			</trkpt>
			<trkpt lat="53.26297756" lon="-8.92788978">
				<ele>67.0</ele>
				<time>2014-08-17T16:49:45Z</time>
				<extensions>
					<speed>0.0</speed>
				</extensions>
			</trkpt>
			<trkpt lat="53.26297836" lon="-8.92788706">
				<ele>67.0</ele>
				<time>2014-08-17T16:49:46Z</time>
				<extensions>
					<speed>1.0</speed>
				</extensions>
			</trkpt>
			<trkpt lat="53.26298866" lon="-8.92786784">
				<ele>67.0</ele>
				<time>2014-08-17T16:49:47Z</time>
				<extensions>
					<speed>2.5</speed>
				</extensions>
			</trkpt>
			<trkpt lat="53.26300241" lon="-8.92783043">
				<ele>67.0</ele>
				<time>2014-08-17T16:49:48Z</time>
				<extensions>
					<speed>3.0</speed>
				</extensions>
			</trkpt>
			<trkpt lat="53.26302484" lon="-8.92778718">
				<ele>67.0</ele>
				<time>2014-08-17T16:49:49Z</time>
				<extensions>
					<speed>3.75</speed>
				</extensions>
			</trkpt>
			<trkpt lat="53.26304341" lon="-8.92774201">
				<ele>67.0</ele>
				<time>2014-08-17T16:49:50Z</time>
				<extensions>
					<speed>3.75</speed>
				</extensions>
			</trkpt>
			<trkpt lat="53.26305777" lon="-8.92770035">
				<ele>67.0</ele>
				<time>2014-08-17T16:49:51Z</time>
				<extensions>
					<speed>3.75</speed>
				</extensions>
			</trkpt>
			<trkpt lat="53.26307744" lon="-8.92764945">
				<ele>67.0</ele>
				<time>2014-08-17T16:49:52Z</time>
				<extensions>
					<speed>4.5</speed>
				</extensions>
			</trkpt>
			<trkpt lat="53.26310408" lon="-8.92759873">
				<ele>67.0</ele>
				<time>2014-08-17T16:49:53Z</time>
				<extensions>
					<speed>4.5</speed>
				</extensions>
			</trkpt>
			<trkpt lat="53.26313648" lon="-8.92755588">
				<ele>67.0</ele>
				<time>2014-08-17T16:49:54Z</time>
				<extensions>
					<speed>4.5</speed>
				</extensions>
			</trkpt>
			<trkpt lat="53.26317152" lon="-8.9275206">
				<ele>66.0</ele>
				<time>2014-08-17T16:49:55Z</time>
				<extensions>
					<speed>4.0</speed>
				</extensions>
			</trkpt>
			<trkpt lat="53.26320124" lon="-8.92749012">
				<ele>66.0</ele>
				<time>2014-08-17T16:49:56Z</time>
				<extensions>
					<speed>3.75</speed>
				</extensions>
			</trkpt>
			<trkpt lat="53.26322922" lon="-8.92746728">
				<ele>66.0</ele>
				<time>2014-08-17T16:49:57Z</time>
				<extensions>
					<speed>3.25</speed>
				</extensions>
			</trkpt>
			<trkpt lat="53.26325247" lon="-8.92744235">
				<ele>66.0</ele>
				<time>2014-08-17T16:49:58Z</time>
				<extensions>
					<speed>3.0</speed>
				</extensions>
			</trkpt>
			<trkpt lat="53.2632765" lon="-8.92742089">
				<ele>66.0</ele>
				<time>2014-08-17T16:49:59Z</time>
				<extensions>
					<speed>3.0</speed>
				</extensions>
			</trkpt>
			<trkpt lat="53.26329295" lon="-8.92740765">
				<ele>66.0</ele>
				<time>2014-08-17T16:50:00Z</time>
				<extensions>
					<speed>2.5</speed>
				</extensions>
			</trkpt>
			<trkpt lat="53.26330891" lon="-8.92739488">
				<ele>65.0</ele>
				<time>2014-08-17T16:50:01Z</time>
				<extensions>
					<speed>2.0</speed>
				</extensions>
			</trkpt>
			<trkpt lat="53.26332468" lon="-8.92738054">
				<ele>65.0</ele>
				<time>2014-08-17T16:50:02Z</time>
				<extensions>
					<speed>2.0</speed>
				</extensions>
			</trkpt>
			<trkpt lat="53.26332983" lon="-8.92737211">
				<ele>66.0</ele>
				<time>2014-08-17T16:50:03Z</time>
				<extensions>
					<speed>1.25</speed>
				</extensions>
			</trkpt>
			<trkpt lat="53.26333193" lon="-8.92737224">
				<ele>66.0</ele>
				<time>2014-08-17T16:50:04Z</time>
				<extensions>
					<speed>0.5</speed>
				</extensions>
			</trkpt>
			<trkpt lat="53.26332926" lon="-8.92736546">
				<ele>66.0</ele>
				<time>2014-08-17T16:50:05Z</time>
				<extensions>
					<speed>0.0</speed>
				</extensions>
			</trkpt>
			<trkpt lat="53.26332874" lon="-8.92736604">
				<ele>66.0</ele>
				<time>2014-08-17T16:50:06Z</time>
				<extensions>
					<speed>0.0</speed>
				</extensions>
			</trkpt>
			<trkpt lat="53.26332979" lon="-8.92736953">
				<ele>66.0</ele>
				<time>2014-08-17T16:50:07Z</time>
				<extensions>
					<speed>0.0</speed>
				</extensions>
			</trkpt>
			<trkpt lat="53.26332923" lon="-8.92736941">
				<ele>66.0</ele>
				<time>2014-08-17T16:50:08Z</time>
				<extensions>
					<speed>0.0</speed>
				</extensions>
			</trkpt>
			<trkpt lat="53.26332923" lon="-8.92736941">
				<ele>66.0</ele>
				<time>2014-08-17T16:50:09Z</time>
				<extensions>
					<speed>0.0</speed>
				</extensions>
			</trkpt>
			<trkpt lat="53.26332903" lon="-8.92737207">
				<ele>66.0</ele>
				<time>2014-08-17T16:50:10Z</time>
				<extensions>
					<speed>0.0</speed>
				</extensions>
			</trkpt>
			<trkpt lat="53.26332903" lon="-8.92737207">
				<ele>66.0</ele>
				<time>2014-08-17T16:50:11Z</time>
				<extensions>
					<speed>0.0</speed>
				</extensions>
			</trkpt>
			<trkpt lat="53.26332559" lon="-8.92737457">
				<ele>66.0</ele>
				<time>2014-08-17T16:50:12Z</time>
				<extensions>
					<speed>0.0</speed>
				</extensions>
			</trkpt>
			<trkpt lat="53.26333886" lon="-8.92735738">
				<ele>66.0</ele>
				<time>2014-08-17T16:50:13Z</time>
				<extensions>
					<speed>2.0</speed>
				</extensions>
			</trkpt>
			<trkpt lat="53.26336793" lon="-8.92731469">
				<ele>66.0</ele>
				<time>2014-08-17T16:50:14Z</time>
				<extensions>
					<speed>3.75</speed>
				</extensions>
			</trkpt>
			<trkpt lat="53.26339775" lon="-8.92727089">
				<ele>67.0</ele>
				<time>2014-08-17T16:50:15Z</time>
				<extensions>
					<speed>4.0</speed>
				</extensions>
			</trkpt>
			<trkpt lat="53.26342075" lon="-8.92721931">
				<ele>67.0</ele>
				<time>2014-08-17T16:50:16Z</time>
				<extensions>
					<speed>3.75</speed>
				</extensions>
			</trkpt>
			<trkpt lat="53.26342616" lon="-8.92716105">
				<ele>68.0</ele>
				<time>2014-08-17T16:50:17Z</time>
				<extensions>
					<speed>4.0</speed>
				</extensions>
			</trkpt>
			<trkpt lat="53.26341424" lon="-8.92710306">
				<ele>67.0</ele>
				<time>2014-08-17T16:50:18Z</time>
				<extensions>
					<speed>4.0</speed>
				</extensions>
			</trkpt>
			<trkpt lat="53.2634061" lon="-8.92704235">
				<ele>67.0</ele>
				<time>2014-08-17T16:50:19Z</time>
				<extensions>
					<speed>3.75</speed>
				</extensions>
			</trkpt>
			<trkpt lat="53.26339473" lon="-8.92698675">
				<ele>68.0</ele>
				<time>2014-08-17T16:50:20Z</time>
				<extensions>
					<speed>3.75</speed>
				</extensions>
			</trkpt>
			<trkpt lat="53.26338153" lon="-8.92693574">
				<ele>69.0</ele>
				<time>2014-08-17T16:50:21Z</time>
				<extensions>
					<speed>3.5</speed>
				</extensions>
			</trkpt>
			<trkpt lat="53.2633697" lon="-8.92689502">
				<ele>69.0</ele>
				<time>2014-08-17T16:50:22Z</time>
				<extensions>
					<speed>3.0</speed>
				</extensions>
			</trkpt>
			<trkpt lat="53.26335975" lon="-8.92685952">
				<ele>69.0</ele>
				<time>2014-08-17T16:50:23Z</time>
				<extensions>
					<speed>2.75</speed>
				</extensions>
			</trkpt>
			<trkpt lat="53.26335234" lon="-8.92681597">
				<ele>69.0</ele>
				<time>2014-08-17T16:50:24Z</time>
				<extensions>
					<speed>2.75</speed>
				</extensions>
			</trkpt>
			<trkpt lat="53.2633433" lon="-8.92677578">
				<ele>69.0</ele>
				<time>2014-08-17T16:50:25Z</time>
				<extensions>
					<speed>2.5</speed>
				</extensions>
			</trkpt>
			<trkpt lat="53.26333389" lon="-8.92673994">
				<ele>69.0</ele>
				<time>2014-08-17T16:50:26Z</time>
				<extensions>
					<speed>2.25</speed>
				</extensions>
			</trkpt>
			<trkpt lat="53.26332317" lon="-8.926712">
				<ele>69.0</ele>
				<time>2014-08-17T16:50:27Z</time>
				<extensions>
					<speed>1.75</speed>
				</extensions>
			</trkpt>
			<trkpt lat="53.26331737" lon="-8.92670019">
				<ele>68.0</ele>
				<time>2014-08-17T16:50:28Z</time>
				<extensions>
					<speed>0.75</speed>
				</extensions>
			</trkpt>
			<trkpt lat="53.26331436" lon="-8.92669527">
				<ele>68.0</ele>
				<time>2014-08-17T16:50:29Z</time>
				<extensions>
					<speed>0.0</speed>
				</extensions>
			</trkpt>
			<trkpt lat="53.26331394" lon="-8.92669712">
				<ele>68.0</ele>
				<time>2014-08-17T16:50:30Z</time>
				<extensions>
					<speed>0.0</speed>
				</extensions>
			</trkpt>
			<trkpt lat="53.26331507" lon="-8.92669848">
				<ele>68.0</ele>
				<time>2014-08-17T16:50:31Z</time>
				<extensions>
					<speed>0.0</speed>
				</extensions>
			</trkpt>
			<trkpt lat="53.26331486" lon="-8.92670145">
				<ele>68.0</ele>
				<time>2014-08-17T16:50:32Z</time>
				<extensions>
					<speed>0.0</speed>
				</extensions>
			</trkpt>
			<trkpt lat="53.26331436" lon="-8.92670027">
				<ele>67.0</ele>
				<time>2014-08-17T16:50:33Z</time>
				<extensions>
					<speed>0.0</speed>
				</extensions>
			</trkpt>
			<trkpt lat="53.26331279" lon="-8.92669802">
				<ele>67.0</ele>
				<time>2014-08-17T16:50:34Z</time>
				<extensions>
					<speed>0.0</speed>
				</extensions>
			</trkpt>
			<trkpt lat="53.26331268" lon="-8.92670065">
				<ele>67.0</ele>
				<time>2014-08-17T16:50:35Z</time>
				<extensions>
					<speed>0.0</speed>
				</extensions>
			</trkpt>
			<trkpt lat="53.2633111" lon="-8.92669749">
				<ele>67.0</ele>
				<time>2014-08-17T16:50:36Z</time>
				<extensions>
					<speed>0.0</speed>
				</extensions>
			</trkpt>
			<trkpt lat="53.26331004" lon="-8.92669367">
				<ele>67.0</ele>
				<time>2014-08-17T16:50:37Z</time>
				<extensions>
					<speed>2.25</speed>
				</extensions>
			</trkpt>
			<trkpt lat="53.2632964" lon="-8.9266571">
				<ele>67.0</ele>
				<time>2014-08-17T16:50:38Z</time>
				<extensions>
					<speed>3.0</speed>
				</extensions>
			</trkpt>
			<trkpt lat="53.2632853" lon="-8.92660041">
				<ele>67.0</ele>
				<time>2014-08-17T16:50:39Z</time>
				<extensions>
					<speed>3.25</speed>
				</extensions>
			</trkpt>
			<trkpt lat="53.26327653" lon="-8.92654916">
				<ele>67.0</ele>
				<time>2014-08-17T16:50:40Z</time>
				<extensions>
					<speed>3.25</speed>
				</extensions>
			</trkpt>
			<trkpt lat="53.26327089" lon="-8.92651177">
				<ele>67.0</ele>
				<time>2014-08-17T16:50:41Z</time>
				<extensions>
					<speed>2.5</speed>
				</extensions>
			</trkpt>
			<trkpt lat="53.26326427" lon="-8.92647577">
				<ele>67.0</ele>
				<time>2014-08-17T16:50:42Z</time>
				<extensions>
					<speed>2.5</speed>
				</extensions>
			</trkpt>
			<trkpt lat="53.26326353" lon="-8.92645385">
				<ele>66.0</ele>
				<time>2014-08-17T16:50:43Z</time>
				<extensions>
					<speed>1.0</speed>
				</extensions>
			</trkpt>
			<trkpt lat="53.26325863" lon="-8.92644092">
				<ele>67.0</ele>
				<time>2014-08-17T16:50:44Z</time>
				<extensions>
					<speed>0.5</speed>
				</extensions>
			</trkpt>
			<trkpt lat="53.26326018" lon="-8.92643694">
				<ele>66.0</ele>
				<time>2014-08-17T16:50:45Z</time>
				<extensions>
					<speed>0.25</speed>
				</extensions>
			</trkpt>
			<trkpt lat="53.26326018" lon="-8.92643438">
				<ele>66.0</ele>
				<time>2014-08-17T16:50:46Z</time>
				<extensions>
					<speed>0.25</speed>
				</extensions>
			</trkpt>
			<trkpt lat="53.26325995" lon="-8.926428">
				<ele>66.0</ele>
				<time>2014-08-17T16:50:47Z</time>
				<extensions>
					<speed>0.0</speed>
				</extensions>
			</trkpt>
			<trkpt lat="53.26325969" lon="-8.9264267">
				<ele>66.0</ele>
				<time>2014-08-17T16:50:48Z</time>
				<extensions>
					<speed>0.0</speed>
				</extensions>
			</trkpt>
			<trkpt lat="53.26326395" lon="-8.92642203">
				<ele>66.0</ele>
				<time>2014-08-17T16:50:49Z</time>
				<extensions>
					<speed>0.0</speed>
				</extensions>
			</trkpt>
			<trkpt lat="53.26326441" lon="-8.92641759">
				<ele>67.0</ele>
				<time>2014-08-17T16:50:50Z</time>
				<extensions>
					<speed>0.0</speed>
				</extensions>
			</trkpt>
			<trkpt lat="53.26326372" lon="-8.92641648">
				<ele>67.0</ele>
				<time>2014-08-17T16:50:51Z</time>
				<extensions>
					<speed>0.0</speed>
				</extensions>
			</trkpt>
			<trkpt lat="53.26326173" lon="-8.92641317">
				<ele>67.0</ele>
				<time>2014-08-17T16:50:52Z</time>
				<extensions>
					<speed>0.0</speed>
				</extensions>
			</trkpt>
			<trkpt lat="53.26326067" lon="-8.92641356">
				<ele>67.0</ele>
				<time>2014-08-17T16:50:53Z</time>
				<extensions>
					<speed>1.0</speed>
				</extensions>
			</trkpt>
			<trkpt lat="53.26325217" lon="-8.92640573">
				<ele>67.0</ele>
				<time>2014-08-17T16:50:54Z</time>
				<extensions>
					<speed>0.0</speed>
				</extensions>
			</trkpt>
			<trkpt lat="53.26325197" lon="-8.92640271">
				<ele>68.0</ele>
				<time>2014-08-17T16:50:55Z</time>
				<extensions>
					<speed>0.0</speed>
				</extensions>
			</trkpt>
			<trkpt lat="53.26325271" lon="-8.9264023">
				<ele>68.0</ele>
				<time>2014-08-17T16:50:56Z</time>
				<extensions>
					<speed>0.0</speed>
				</extensions>
			</trkpt>
			<trkpt lat="53.26325004" lon="-8.92640253">
				<ele>68.0</ele>
				<time>2014-08-17T16:50:57Z</time>
				<extensions>
					<speed>0.0</speed>
				</extensions>
			</trkpt>
			<trkpt lat="53.26325293" lon="-8.92640553">
				<ele>67.0</ele>
				<time>2014-08-17T16:50:58Z</time>
				<extensions>
					<speed>0.0</speed>
				</extensions>
			</trkpt>
			<trkpt lat="53.26325283" lon="-8.92640269">
				<ele>67.0</ele>
				<time>2014-08-17T16:50:59Z</time>
				<extensions>
					<speed>1.25</speed>
				</extensions>
			</trkpt>
			<trkpt lat="53.26326619" lon="-8.9263843">
				<ele>66.0</ele>
				<time>2014-08-17T16:51:00Z</time>
				<extensions>
					<speed>2.25</speed>
				</extensions>
			</trkpt>
			<trkpt lat="53.26327985" lon="-8.92635138">
				<ele>66.0</ele>
				<time>2014-08-17T16:51:01Z</time>
				<extensions>
					<speed>2.75</speed>
				</extensions>
			</trkpt>
			<trkpt lat="53.26329845" lon="-8.92634641">
				<ele>65.0</ele>
				<time>2014-08-17T16:51:02Z</time>
				<extensions>
					<speed>2.75</speed>
				</extensions>
			</trkpt>
			<trkpt lat="53.26331653" lon="-8.92635406">
				<ele>64.0</ele>
				<time>2014-08-17T16:51:03Z</time>
				<extensions>
					<speed>2.25</speed>
				</extensions>
			</trkpt>
			<trkpt lat="53.26332177" lon="-8.92636601">
				<ele>64.0</ele>
				<time>2014-08-17T16:51:04Z</time>
				<extensions>
					<speed>0.75</speed>
				</extensions>
			</trkpt>
			<trkpt lat="53.26332167" lon="-8.92636417">
				<ele>65.0</ele>
				<time>2014-08-17T16:51:05Z</time>
				<extensions>
					<speed>0.0</speed>
				</extensions>
			</trkpt>
			<trkpt lat="53.26332662" lon="-8.9263595">
				<ele>65.0</ele>
				<time>2014-08-17T16:51:06Z</time>
				<extensions>
					<speed>0.0</speed>
				</extensions>
			</trkpt>
			<trkpt lat="53.26332662" lon="-8.9263595">
				<ele>65.0</ele>
				<time>2014-08-17T16:51:07Z</time>
				<extensions>
					<speed>0.0</speed>
				</extensions>
			</trkpt>
			<trkpt lat="53.26332662" lon="-8.9263595">
				<ele>65.0</ele>
				<time>2014-08-17T16:51:08Z</time>
				<extensions>
					<speed>0.0</speed>
				</extensions>
			</trkpt>
			<trkpt lat="53.26332474" lon="-8.92635965">
				<ele>65.0</ele>
				<time>2014-08-17T16:51:09Z</time>
				<extensions>
					<speed>1.75</speed>
				</extensions>
			</trkpt>
			<trkpt lat="53.26331134" lon="-8.92634975">
				<ele>65.0</ele>
				<time>2014-08-17T16:51:10Z</time>
				<extensions>
					<speed>2.0</speed>
				</extensions>
			</trkpt>
			<trkpt lat="53.26329852" lon="-8.92633222">
				<ele>65.0</ele>
				<time>2014-08-17T16:51:11Z</time>
				<extensions>
					<speed>1.5</speed>
				</extensions>
			</trkpt>
			<trkpt lat="53.26329337" lon="-8.92631895">
				<ele>66.0</ele>
				<time>2014-08-17T16:51:12Z</time>
				<extensions>
					<speed>1.25</speed>
				</extensions>
			</trkpt>
			<trkpt lat="53.26329106" lon="-8.92630337">
				<ele>67.0</ele>
				<time>2014-08-17T16:51:13Z</time>
				<extensions>
					<speed>0.0</speed>
				</extensions>
			</trkpt>
			<trkpt lat="53.26329057" lon="-8.92630317">
				<ele>67.0</ele>
				<time>2014-08-17T16:51:14Z</time>
				<extensions>
					<speed>0.5</speed>
				</extensions>
			</trkpt>
			<trkpt lat="53.26329625" lon="-8.92631578">
				<ele>67.0</ele>
				<time>2014-08-17T16:51:15Z</time>
				<extensions>
					<speed>1.25</speed>
				</extensions>
			</trkpt>
			<trkpt lat="53.26328803" lon="-8.9263459">
				<ele>67.0</ele>
				<time>2014-08-17T16:51:16Z</time>
				<extensions>
					<speed>3.0</speed>
				</extensions>
			</trkpt>
			<trkpt lat="53.2632891" lon="-8.92640412">
				<ele>67.0</ele>
				<time>2014-08-17T16:51:17Z</time>
				<extensions>
					<speed>4.25</speed>
				</extensions>
			</trkpt>
			<trkpt lat="53.26329169" lon="-8.9264681">
				<ele>68.0</ele>
				<time>2014-08-17T16:51:18Z</time>
				<extensions>
					<speed>4.25</speed>
				</extensions>
			</trkpt>
			<trkpt lat="53.26329572" lon="-8.92653996">
				<ele>68.0</ele>
				<time>2014-08-17T16:51:19Z</time>
				<extensions>
					<speed>5.0</speed>
				</extensions>
			</trkpt>
			<trkpt lat="53.26331388" lon="-8.92662265">
				<ele>68.0</ele>
				<time>2014-08-17T16:51:20Z</time>
				<extensions>
					<speed>6.25</speed>
				</extensions>
			</trkpt>
			<trkpt lat="53.26333704" lon="-8.9267135">
				<ele>68.0</ele>
				<time>2014-08-17T16:51:21Z</time>
				<extensions>
					<speed>6.75</speed>
				</extensions>
			</trkpt>
			<trkpt lat="53.26336156" lon="-8.92680631">
				<ele>68.0</ele>
				<time>2014-08-17T16:51:22Z</time>
				<extensions>
					<speed>6.75</speed>
				</extensions>
			</trkpt>
			<trkpt lat="53.26338609" lon="-8.92689912">
				<ele>68.0</ele>
				<time>2014-08-17T16:51:23Z</time>
				<extensions>
					<speed>6.75</speed>
				</extensions>
			</trkpt>
			<trkpt lat="53.26340934" lon="-8.9269573">
				<ele>68.0</ele>
				<time>2014-08-17T16:51:24Z</time>
				<extensions>
					<speed>6.0</speed>
				</extensions>
			</trkpt>
			<trkpt lat="53.26342859" lon="-8.92703856">
				<ele>69.0</ele>
				<time>2014-08-17T16:51:25Z</time>
				<extensions>
					<speed>5.75</speed>
				</extensions>
			</trkpt>
			<trkpt lat="53.26344444" lon="-8.92711416">
				<ele>70.0</ele>
				<time>2014-08-17T16:51:26Z</time>
				<extensions>
					<speed>5.5</speed>
				</extensions>
			</trkpt>
			<trkpt lat="53.26345316" lon="-8.92719886">
				<ele>69.0</ele>
				<time>2014-08-17T16:51:27Z</time>
				<extensions>
					<speed>5.25</speed>
				</extensions>
			</trkpt>
			<trkpt lat="53.26344034" lon="-8.9272726">
				<ele>71.0</ele>
				<time>2014-08-17T16:51:28Z</time>
				<extensions>
					<speed>4.75</speed>
				</extensions>
			</trkpt>
			<trkpt lat="53.26340052" lon="-8.92730687">
				<ele>70.0</ele>
				<time>2014-08-17T16:51:29Z</time>
				<extensions>
					<speed>4.5</speed>
				</extensions>
			</trkpt>
			<trkpt lat="53.26336004" lon="-8.92733615">
				<ele>70.0</ele>
				<time>2014-08-17T16:51:30Z</time>
				<extensions>
					<speed>4.5</speed>
				</extensions>
			</trkpt>
			<trkpt lat="53.2633242" lon="-8.92736027">
				<ele>70.0</ele>
				<time>2014-08-17T16:51:31Z</time>
				<extensions>
					<speed>4.5</speed>
				</extensions>
			</trkpt>
			<trkpt lat="53.26328832" lon="-8.9273902">
				<ele>71.0</ele>
				<time>2014-08-17T16:51:32Z</time>
				<extensions>
					<speed>4.5</speed>
				</extensions>
			</trkpt>
			<trkpt lat="53.26324282" lon="-8.92743783">
				<ele>70.0</ele>
				<time>2014-08-17T16:51:33Z</time>
				<extensions>
					<speed>5.5</speed>
				</extensions>
			</trkpt>
			<trkpt lat="53.26320588" lon="-8.92747481">
				<ele>69.0</ele>
				<time>2014-08-17T16:51:34Z</time>
				<extensions>
					<speed>5.5</speed>
				</extensions>
			</trkpt>
			<trkpt lat="53.26316765" lon="-8.9275319">
				<ele>69.0</ele>
				<time>2014-08-17T16:51:35Z</time>
				<extensions>
					<speed>5.5</speed>
				</extensions>
			</trkpt>
			<trkpt lat="53.26312857" lon="-8.92758226">
				<ele>69.0</ele>
				<time>2014-08-17T16:51:36Z</time>
				<extensions>
					<speed>5.5</speed>
				</extensions>
			</trkpt>
			<trkpt lat="53.2630961" lon="-8.9276411">
				<ele>69.0</ele>
				<time>2014-08-17T16:51:37Z</time>
				<extensions>
					<speed>5.25</speed>
				</extensions>
			</trkpt>
			<trkpt lat="53.26305714" lon="-8.92767395">
				<ele>70.0</ele>
				<time>2014-08-17T16:51:38Z</time>
				<extensions>
					<speed>4.75</speed>
				</extensions>
			</trkpt>
			<trkpt lat="53.26300717" lon="-8.92768176">
				<ele>69.0</ele>
				<time>2014-08-17T16:51:39Z</time>
				<extensions>
					<speed>4.75</speed>
				</extensions>
			</trkpt>
			<trkpt lat="53.26296987" lon="-8.92764645">
				<ele>68.0</ele>
				<time>2014-08-17T16:51:40Z</time>
				<extensions>
					<speed>4.5</speed>
				</extensions>
			</trkpt>
			<trkpt lat="53.26294138" lon="-8.92760187">
				<ele>70.0</ele>
				<time>2014-08-17T16:51:41Z</time>
				<extensions>
					<speed>4.0</speed>
				</extensions>
			</trkpt>
			<trkpt lat="53.26292237" lon="-8.92755062">
				<ele>70.0</ele>
				<time>2014-08-17T16:51:42Z</time>
				<extensions>
					<speed>3.75</speed>
				</extensions>
			</trkpt>
			<trkpt lat="53.26291855" lon="-8.92749679">
				<ele>70.0</ele>
				<time>2014-08-17T16:51:43Z</time>
				<extensions>
					<speed>3.25</speed>
				</extensions>
			</trkpt>
			<trkpt lat="53.26291348" lon="-8.92745171">
				<ele>69.0</ele>
				<time>2014-08-17T16:51:44Z</time>
				<extensions>
					<speed>3.0</speed>
				</extensions>
			</trkpt>
			<trkpt lat="53.26290785" lon="-8.92740928">
				<ele>69.0</ele>
				<time>2014-08-17T16:51:45Z</time>
				<extensions>
					<speed>2.75</speed>
				</extensions>
			</trkpt>
			<trkpt lat="53.26289902" lon="-8.92737873">
				<ele>69.0</ele>
				<time>2014-08-17T16:51:46Z</time>
				<extensions>
					<speed>2.5</speed>
				</extensions>
			</trkpt>
			<trkpt lat="53.26288868" lon="-8.92734176">
				<ele>69.0</ele>
				<time>2014-08-17T16:51:47Z</time>
				<extensions>
					<speed>2.5</speed>
				</extensions>
			</trkpt>
			<trkpt lat="53.26288331" lon="-8.92730699">
				<ele>69.0</ele>
				<time>2014-08-17T16:51:48Z</time>
				<extensions>
					<speed>2.0</speed>
				</extensions>
			</trkpt>
			<trkpt lat="53.26287693" lon="-8.92728356">
				<ele>69.0</ele>
				<time>2014-08-17T16:51:49Z</time>
				<extensions>
					<speed>1.5</speed>
				</extensions>
			</trkpt>
			<trkpt lat="53.26286326" lon="-8.92726869">
				<ele>68.0</ele>
				<time>2014-08-17T16:51:50Z</time>
				<extensions>
					<speed>0.5</speed>
				</extensions>
			</trkpt>
			<trkpt lat="53.26286294" lon="-8.92726334">
				<ele>68.0</ele>
				<time>2014-08-17T16:51:51Z</time>
				<extensions>
					<speed>0.0</speed>
				</extensions>
			</trkpt>
			<trkpt lat="53.26286373" lon="-8.92725972">
				<ele>68.0</ele>
				<time>2014-08-17T16:51:52Z</time>
				<extensions>
					<speed>0.0</speed>
				</extensions>
			</trkpt>
			<trkpt lat="53.262863" lon="-8.92725822">
				<ele>67.0</ele>
				<time>2014-08-17T16:51:53Z</time>
				<extensions>
					<speed>0.0</speed>
				</extensions>
			</trkpt>
			<trkpt lat="53.2628622" lon="-8.92726075">
				<ele>66.0</ele>
				<time>2014-08-17T16:51:54Z</time>
				<extensions>
					<speed>0.0</speed>
				</extensions>
			</trkpt>
			<trkpt lat="53.26286134" lon="-8.92725901">
				<ele>66.0</ele>
				<time>2014-08-17T16:51:55Z</time>
				<extensions>
					<speed>0.0</speed>
				</extensions>
			</trkpt>
			<trkpt lat="53.26286105" lon="-8.92725665">
				<ele>65.0</ele>
				<time>2014-08-17T16:51:56Z</time>
				<extensions>
					<speed>0.0</speed>
				</extensions>
			</trkpt>
			<trkpt lat="53.26286234" lon="-8.92725649">
				<ele>65.0</ele>
				<time>2014-08-17T16:51:57Z</time>
				<extensions>
					<speed>0.0</speed>
				</extensions>
			</trkpt>
			<trkpt lat="53.26286328" lon="-8.92725775">
				<ele>65.0</ele>
				<time>2014-08-17T16:51:58Z</time>
				<extensions>
					<speed>0.0</speed>
				</extensions>
			</trkpt>
			<trkpt lat="53.26286308" lon="-8.92725711">
				<ele>65.0</ele>
				<time>2014-08-17T16:51:59Z</time>
				<extensions>
					<speed>0.5</speed>
				</extensions>
			</trkpt>
			<trkpt lat="53.26285914" lon="-8.92724564">
				<ele>64.0</ele>
				<time>2014-08-17T16:52:00Z</time>
				<extensions>
					<speed>1.5</speed>
				</extensions>
			</trkpt>
			<trkpt lat="53.26285435" lon="-8.9272196">
				<ele>64.0</ele>
				<time>2014-08-17T16:52:01Z</time>
				<extensions>
					<speed>2.5</speed>
				</extensions>
			</trkpt>
			<trkpt lat="53.26284" lon="-8.92718507">
				<ele>64.0</ele>
				<time>2014-08-17T16:52:02Z</time>
				<extensions>
					<speed>2.5</speed>
				</extensions>
			</trkpt>
			<trkpt lat="53.2628208" lon="-8.92714969">
				<ele>63.0</ele>
				<time>2014-08-17T16:52:03Z</time>
				<extensions>
					<speed>3.0</speed>
				</extensions>
			</trkpt>
			<trkpt lat="53.26281209" lon="-8.92710833">
				<ele>63.0</ele>
				<time>2014-08-17T16:52:04Z</time>
				<extensions>
					<speed>3.0</speed>
				</extensions>
			</trkpt>
			<trkpt lat="53.26280146" lon="-8.92705856">
				<ele>64.0</ele>
				<time>2014-08-17T16:52:05Z</time>
				<extensions>
					<speed>3.25</speed>
				</extensions>
			</trkpt>
			<trkpt lat="53.2627897" lon="-8.92702179">
				<ele>64.0</ele>
				<time>2014-08-17T16:52:06Z</time>
				<extensions>
					<speed>2.75</speed>
				</extensions>
			</trkpt>
			<trkpt lat="53.26278043" lon="-8.92699582">
				<ele>64.0</ele>
				<time>2014-08-17T16:52:07Z</time>
				<extensions>
					<speed>2.5</speed>
				</extensions>
			</trkpt>
			<trkpt lat="53.26277463" lon="-8.92697008">
				<ele>64.0</ele>
				<time>2014-08-17T16:52:08Z</time>
				<extensions>
					<speed>1.75</speed>
				</extensions>
			</trkpt>
			<trkpt lat="53.26277702" lon="-8.92696035">
				<ele>64.0</ele>
				<time>2014-08-17T16:52:09Z</time>
				<extensions>
					<speed>0.5</speed>
				</extensions>
			</trkpt>
			<trkpt lat="53.26278182" lon="-8.92695887">
				<ele>63.0</ele>
				<time>2014-08-17T16:52:10Z</time>
				<extensions>
					<speed>0.0</speed>
				</extensions>
			</trkpt>
			<trkpt lat="53.26277992" lon="-8.92696288">
				<ele>63.0</ele>
				<time>2014-08-17T16:52:11Z</time>
				<extensions>
					<speed>0.0</speed>
				</extensions>
			</trkpt>
			<trkpt lat="53.26278211" lon="-8.92696388">
				<ele>64.0</ele>
				<time>2014-08-17T16:52:12Z</time>
				<extensions>
					<speed>0.0</speed>
				</extensions>
			</trkpt>
			<trkpt lat="53.26278264" lon="-8.92696538">
				<ele>64.0</ele>
				<time>2014-08-17T16:52:13Z</time>
				<extensions>
					<speed>0.0</speed>
				</extensions>
			</trkpt>
			<trkpt lat="53.26278423" lon="-8.92696337">
				<ele>64.0</ele>
				<time>2014-08-17T16:52:14Z</time>
				<extensions>
					<speed>0.0</speed>
				</extensions>
			</trkpt>
			<trkpt lat="53.26278629" lon="-8.92696557">
				<ele>64.0</ele>
				<time>2014-08-17T16:52:15Z</time>
				<extensions>
					<speed>0.0</speed>
				</extensions>
			</trkpt>
			<trkpt lat="53.26278923" lon="-8.92697003">
				<ele>64.0</ele>
				<time>2014-08-17T16:52:16Z</time>
				<extensions>
					<speed>0.0</speed>
				</extensions>
			</trkpt>
			<trkpt lat="53.26279138" lon="-8.92697254">
				<ele>64.0</ele>
				<time>2014-08-17T16:52:17Z</time>
				<extensions>
					<speed>0.0</speed>
				</extensions>
			</trkpt>
			<trkpt lat="53.26279069" lon="-8.92697062">
				<ele>64.0</ele>
				<time>2014-08-17T16:52:18Z</time>
				<extensions>
					<speed>1.0</speed>
				</extensions>
			</trkpt>
			<trkpt lat="53.26278545" lon="-8.92695128">
				<ele>64.0</ele>
				<time>2014-08-17T16:52:19Z</time>
				<extensions>
					<speed>2.0</speed>
				</extensions>
			</trkpt>
			<trkpt lat="53.26277291" lon="-8.92691965">
				<ele>65.0</ele>
				<time>2014-08-17T16:52:20Z</time>
				<extensions>
					<speed>2.75</speed>
				</extensions>
			</trkpt>
			<trkpt lat="53.26275888" lon="-8.92687652">
				<ele>64.0</ele>
				<time>2014-08-17T16:52:21Z</time>
				<extensions>
					<speed>3.25</speed>
				</extensions>
			</trkpt>
			<trkpt lat="53.26274417" lon="-8.92683783">
				<ele>64.0</ele>
				<time>2014-08-17T16:52:22Z</time>
				<extensions>
					<speed>3.5</speed>
				</extensions>
			</trkpt>
			<trkpt lat="53.26273425" lon="-8.92678903">
				<ele>64.0</ele>
				<time>2014-08-17T16:52:23Z</time>
				<extensions>
					<speed>3.5</speed>
				</extensions>
			</trkpt>
			<trkpt lat="53.26273291" lon="-8.9267395">
				<ele>64.0</ele>
				<time>2014-08-17T16:52:24Z</time>
				<extensions>
					<speed>3.25</speed>
				</extensions>
			</trkpt>
			<trkpt lat="53.26273422" lon="-8.92669232">
				<ele>63.0</ele>
				<time>2014-08-17T16:52:25Z</time>
				<extensions>
					<speed>3.0</speed>
				</extensions>
			</trkpt>
			<trkpt lat="53.26273643" lon="-8.92665289">
				<ele>63.0</ele>
				<time>2014-08-17T16:52:26Z</time>
				<extensions>
					<speed>2.75</speed>
				</extensions>
			</trkpt>
			<trkpt lat="53.26273547" lon="-8.92662059">
				<ele>63.0</ele>
				<time>2014-08-17T16:52:27Z</time>
				<extensions>
					<speed>2.5</speed>
				</extensions>
			</trkpt>
			<trkpt lat="53.26273489" lon="-8.92658219">
				<ele>63.0</ele>
				<time>2014-08-17T16:52:28Z</time>
				<extensions>
					<speed>2.0</speed>
				</extensions>
			</trkpt>
			<trkpt lat="53.26273547" lon="-8.92655929">
				<ele>63.0</ele>
				<time>2014-08-17T16:52:29Z</time>
				<extensions>
					<speed>1.0</speed>
				</extensions>
			</trkpt>
			<trkpt lat="53.26273007" lon="-8.92655114">
				<ele>63.0</ele>
				<time>2014-08-17T16:52:30Z</time>
				<extensions>
					<speed>0.0</speed>
				</extensions>
			</trkpt>
			<trkpt lat="53.26272978" lon="-8.92655156">
				<ele>62.0</ele>
				<time>2014-08-17T16:52:31Z</time>
				<extensions>
					<speed>0.0</speed>
				</extensions>
			</trkpt>
			<trkpt lat="53.26272885" lon="-8.92655156">
				<ele>62.0</ele>
				<time>2014-08-17T16:52:32Z</time>
				<extensions>
					<speed>0.0</speed>
				</extensions>
			</trkpt>
			<trkpt lat="53.26272825" lon="-8.92655099">
				<ele>62.0</ele>
				<time>2014-08-17T16:52:33Z</time>
				<extensions>
					<speed>0.0</speed>
				</extensions>
			</trkpt>
			<trkpt lat="53.26272949" lon="-8.92655508">
				<ele>61.0</ele>
				<time>2014-08-17T16:52:34Z</time>
				<extensions>
					<speed>0.0</speed>
				</extensions>
			</trkpt>
			<trkpt lat="53.26273085" lon="-8.92655593">
				<ele>61.0</ele>
				<time>2014-08-17T16:52:35Z</time>
				<extensions>
					<speed>0.0</speed>
				</extensions>
			</trkpt>
			<trkpt lat="53.26272969" lon="-8.92655771">
				<ele>61.0</ele>
				<time>2014-08-17T16:52:36Z</time>
				<extensions>
					<speed>0.0</speed>
				</extensions>
			</trkpt>
			<trkpt lat="53.26273014" lon="-8.92656026">
				<ele>61.0</ele>
				<time>2014-08-17T16:52:37Z</time>
				<extensions>
					<speed>0.0</speed>
				</extensions>
			</trkpt>
			<trkpt lat="53.26273004" lon="-8.92655951">
				<ele>61.0</ele>
				<time>2014-08-17T16:52:38Z</time>
				<extensions>
					<speed>0.25</speed>
				</extensions>
			</trkpt>
			<trkpt lat="53.26271187" lon="-8.92655123">
				<ele>59.0</ele>
				<time>2014-08-17T16:52:39Z</time>
				<extensions>
					<speed>1.5</speed>
				</extensions>
			</trkpt>
			<trkpt lat="53.26271033" lon="-8.92652856">
				<ele>59.0</ele>
				<time>2014-08-17T16:52:40Z</time>
				<extensions>
					<speed>1.5</speed>
				</extensions>
			</trkpt>
			<trkpt lat="53.2627088" lon="-8.92650589">
				<ele>59.0</ele>
				<time>2014-08-17T16:52:41Z</time>
				<extensions>
					<speed>1.5</speed>
				</extensions>
			</trkpt>
			<trkpt lat="53.26273116" lon="-8.92643728">
				<ele>59.0</ele>
				<time>2014-08-17T16:52:42Z</time>
				<extensions>
					<speed>3.25</speed>
				</extensions>
			</trkpt>
			<trkpt lat="53.26271806" lon="-8.92638142">
				<ele>60.0</ele>
				<time>2014-08-17T16:52:43Z</time>
				<extensions>
					<speed>3.25</speed>
				</extensions>
			</trkpt>
			<trkpt lat="53.2627133" lon="-8.92632602">
				<ele>59.0</ele>
				<time>2014-08-17T16:52:44Z</time>
				<extensions>
					<speed>3.25</speed>
				</extensions>
			</trkpt>
			<trkpt lat="53.26270561" lon="-8.92627099">
				<ele>59.0</ele>
				<time>2014-08-17T16:52:45Z</time>
				<extensions>
					<speed>3.25</speed>
				</extensions>
			</trkpt>
			<trkpt lat="53.26270301" lon="-8.92622657">
				<ele>59.0</ele>
				<time>2014-08-17T16:52:46Z</time>
				<extensions>
					<speed>3.0</speed>
				</extensions>
			</trkpt>
			<trkpt lat="53.26270276" lon="-8.92617742">
				<ele>59.0</ele>
				<time>2014-08-17T16:52:47Z</time>
				<extensions>
					<speed>3.0</speed>
				</extensions>
			</trkpt>
			<trkpt lat="53.26270356" lon="-8.92613335">
				<ele>59.0</ele>
				<time>2014-08-17T16:52:48Z</time>
				<extensions>
					<speed>2.5</speed>
				</extensions>
			</trkpt>
			<trkpt lat="53.26270819" lon="-8.92610189">
				<ele>59.0</ele>
				<time>2014-08-17T16:52:49Z</time>
				<extensions>
					<speed>1.5</speed>
				</extensions>
			</trkpt>
			<trkpt lat="53.26270503" lon="-8.92608269">
				<ele>59.0</ele>
				<time>2014-08-17T16:52:50Z</time>
				<extensions>
					<speed>0.5</speed>
				</extensions>
			</trkpt>
			<trkpt lat="53.26270469" lon="-8.92608337">
				<ele>60.0</ele>
				<time>2014-08-17T16:52:51Z</time>
				<extensions>
					<speed>0.0</speed>
				</extensions>
			</trkpt>
			<trkpt lat="53.26270552" lon="-8.92608407">
				<ele>60.0</ele>
				<time>2014-08-17T16:52:52Z</time>
				<extensions>
					<speed>0.0</speed>
				</extensions>
			</trkpt>
			<trkpt lat="53.26270616" lon="-8.92608246">
				<ele>61.0</ele>
				<time>2014-08-17T16:52:53Z</time>
				<extensions>
					<speed>0.0</speed>
				</extensions>
			</trkpt>
			<trkpt lat="53.26270722" lon="-8.9260805">
				<ele>61.0</ele>
				<time>2014-08-17T16:52:54Z</time>
				<extensions>
					<speed>0.0</speed>
				</extensions>
			</trkpt>
			<trkpt lat="53.26270741" lon="-8.92608321">
				<ele>61.0</ele>
				<time>2014-08-17T16:52:55Z</time>
				<extensions>
					<speed>0.0</speed>
				</extensions>
			</trkpt>
			<trkpt lat="53.26270971" lon="-8.92608217">
				<ele>61.0</ele>
				<time>2014-08-17T16:52:56Z</time>
				<extensions>
					<speed>0.0</speed>
				</extensions>
			</trkpt>
			<trkpt lat="53.26270994" lon="-8.9260809">
				<ele>61.0</ele>
				<time>2014-08-17T16:52:57Z</time>
				<extensions>
					<speed>0.0</speed>
				</extensions>
			</trkpt>
			<trkpt lat="53.26270895" lon="-8.92607796">
				<ele>61.0</ele>
				<time>2014-08-17T16:52:58Z</time>
				<extensions>
					<speed>0.0</speed>
				</extensions>
			</trkpt>
			<trkpt lat="53.26270912" lon="-8.92607713">
				<ele>61.0</ele>
				<time>2014-08-17T16:52:59Z</time>
				<extensions>
					<speed>0.0</speed>
				</extensions>
			</trkpt>
			<trkpt lat="53.26271004" lon="-8.92607476">
				<ele>62.0</ele>
				<time>2014-08-17T16:53:00Z</time>
				<extensions>
					<speed>0.0</speed>
				</extensions>
			</trkpt>
			<trkpt lat="53.26270897" lon="-8.92607564">
				<ele>62.0</ele>
				<time>2014-08-17T16:53:01Z</time>
				<extensions>
					<speed>0.0</speed>
				</extensions>
			</trkpt>
			<trkpt lat="53.26270928" lon="-8.92607644">
				<ele>62.0</ele>
				<time>2014-08-17T16:53:02Z</time>
				<extensions>
					<speed>0.0</speed>
				</extensions>
			</trkpt>
			<trkpt lat="53.2627097" lon="-8.92607589">
				<ele>62.0</ele>
				<time>2014-08-17T16:53:03Z</time>
				<extensions>
					<speed>0.0</speed>
				</extensions>
			</trkpt>
			<trkpt lat="53.26270995" lon="-8.92607585">
				<ele>62.0</ele>
				<time>2014-08-17T16:53:04Z</time>
				<extensions>
					<speed>0.0</speed>
				</extensions>
			</trkpt>
			<trkpt lat="53.26271003" lon="-8.92607575">
				<ele>62.0</ele>
				<time>2014-08-17T16:53:05Z</time>
				<extensions>
					<speed>0.0</speed>
				</extensions>
			</trkpt>
			<trkpt lat="53.26271002" lon="-8.92607579">
				<ele>62.0</ele>
				<time>2014-08-17T16:53:06Z</time>
				<extensions>
					<speed>0.0</speed>
				</extensions>
			</trkpt>
			<trkpt lat="53.26270997" lon="-8.92607301">
				<ele>62.0</ele>
				<time>2014-08-17T16:53:07Z</time>
				<extensions>
					<speed>1.0</speed>
				</extensions>
			</trkpt>
			<trkpt lat="53.26271083" lon="-8.92605891">
				<ele>62.0</ele>
				<time>2014-08-17T16:53:08Z</time>
				<extensions>
					<speed>1.0</speed>
				</extensions>
			</trkpt>
			<trkpt lat="53.26271598" lon="-8.92603261">
				<ele>62.0</ele>
				<time>2014-08-17T16:53:09Z</time>
				<extensions>
					<speed>0.75</speed>
				</extensions>
			</trkpt>
			<trkpt lat="53.26271838" lon="-8.92602695">
				<ele>62.0</ele>
				<time>2014-08-17T16:53:10Z</time>
				<extensions>
					<speed>0.0</speed>
				</extensions>
			</trkpt>
			<trkpt lat="53.26271861" lon="-8.92602796">
				<ele>62.0</ele>
				<time>2014-08-17T16:53:11Z</time>
				<extensions>
					<speed>0.0</speed>
				</extensions>
			</trkpt>
			<trkpt lat="53.26272078" lon="-8.92602828">
				<ele>62.0</ele>
				<time>2014-08-17T16:53:12Z</time>
				<extensions>
					<speed>0.0</speed>
				</extensions>
			</trkpt>
			<trkpt lat="53.2627235" lon="-8.92602176">
				<ele>62.0</ele>
				<time>2014-08-17T16:53:13Z</time>
				<extensions>
					<speed>0.0</speed>
				</extensions>
			</trkpt>
			<trkpt lat="53.262724" lon="-8.92601839">
				<ele>62.0</ele>
				<time>2014-08-17T16:53:14Z</time>
				<extensions>
					<speed>0.0</speed>
				</extensions>
			</trkpt>
			<trkpt lat="53.26272465" lon="-8.92602064">
				<ele>62.0</ele>
				<time>2014-08-17T16:53:15Z</time>
				<extensions>
					<speed>0.0</speed>
				</extensions>
			</trkpt>
			<trkpt lat="53.26272337" lon="-8.92602125">
				<ele>62.0</ele>
				<time>2014-08-17T16:53:16Z</time>
				<extensions>
					<speed>0.0</speed>
				</extensions>
			</trkpt>
			<trkpt lat="53.26272355" lon="-8.92602485">
				<ele>62.0</ele>
				<time>2014-08-17T16:53:17Z</time>
				<extensions>
					<speed>0.0</speed>
				</extensions>
			</trkpt>
			<trkpt lat="53.26272432" lon="-8.92602413">
				<ele>62.0</ele>
				<time>2014-08-17T16:53:18Z</time>
				<extensions>
					<speed>0.0</speed>
				</extensions>
			</trkpt>
			<trkpt lat="53.26272414" lon="-8.92602305">
				<ele>62.0</ele>
				<time>2014-08-17T16:53:19Z</time>
				<extensions>
					<speed>0.5</speed>
				</extensions>
			</trkpt>
			<trkpt lat="53.26272302" lon="-8.92601172">
				<ele>62.0</ele>
				<time>2014-08-17T16:53:20Z</time>
				<extensions>
					<speed>0.0</speed>
				</extensions>
			</trkpt>
			<trkpt lat="53.26272443" lon="-8.92600894">
				<ele>62.0</ele>
				<time>2014-08-17T16:53:21Z</time>
				<extensions>
					<speed>0.0</speed>
				</extensions>
			</trkpt>
			<trkpt lat="53.26272404" lon="-8.92601427">
				<ele>61.0</ele>
				<time>2014-08-17T16:53:22Z</time>
				<extensions>
					<speed>0.0</speed>
				</extensions>
			</trkpt>
			<trkpt lat="53.26272417" lon="-8.92601073">
				<ele>61.0</ele>
				<time>2014-08-17T16:53:23Z</time>
				<extensions>
					<speed>0.0</speed>
				</extensions>
			</trkpt>
			<trkpt lat="53.26272406" lon="-8.92600922">
				<ele>61.0</ele>
				<time>2014-08-17T16:53:24Z</time>
				<extensions>
					<speed>0.0</speed>
				</extensions>
			</trkpt>
			<trkpt lat="53.26272405" lon="-8.92601024">
				<ele>62.0</ele>
				<time>2014-08-17T16:53:25Z</time>
				<extensions>
					<speed>0.0</speed>
				</extensions>
			</trkpt>
			<trkpt lat="53.26272209" lon="-8.92600985">
				<ele>61.0</ele>
				<time>2014-08-17T16:53:26Z</time>
				<extensions>
					<speed>0.0</speed>
				</extensions>
			</trkpt>
			<trkpt lat="53.26272282" lon="-8.92601025">
				<ele>61.0</ele>
				<time>2014-08-17T16:53:27Z</time>
				<extensions>
					<speed>0.0</speed>
				</extensions>
			</trkpt>
			<trkpt lat="53.26272136" lon="-8.92601195">
				<ele>61.0</ele>
				<time>2014-08-17T16:53:28Z</time>
				<extensions>
					<speed>0.0</speed>
				</extensions>
			</trkpt>
			<trkpt lat="53.26272077" lon="-8.92601207">
				<ele>61.0</ele>
				<time>2014-08-17T16:53:29Z</time>
				<extensions>
					<speed>0.0</speed>
				</extensions>
			</trkpt>
			<trkpt lat="53.26272037" lon="-8.92601063">
				<ele>61.0</ele>
				<time>2014-08-17T16:53:30Z</time>
				<extensions>
					<speed>0.0</speed>
				</extensions>
			</trkpt>
			<trkpt lat="53.26272042" lon="-8.92601146">
				<ele>61.0</ele>
				<time>2014-08-17T16:53:31Z</time>
				<extensions>
					<speed>0.0</speed>
				</extensions>
			</trkpt>
			<trkpt lat="53.26272028" lon="-8.92601141">
				<ele>61.0</ele>
				<time>2014-08-17T16:53:32Z</time>
				<extensions>
					<speed>0.0</speed>
				</extensions>
			</trkpt>
			<trkpt lat="53.26272033" lon="-8.92601155">
				<ele>61.0</ele>
				<time>2014-08-17T16:53:33Z</time>
				<extensions>
					<speed>0.0</speed>
				</extensions>
			</trkpt>
			<trkpt lat="53.26272028" lon="-8.92601155">
				<ele>61.0</ele>
				<time>2014-08-17T16:53:34Z</time>
				<extensions>
					<speed>0.0</speed>
				</extensions>
			</trkpt>
			<trkpt lat="53.26272024" lon="-8.92601154">
				<ele>61.0</ele>
				<time>2014-08-17T16:53:35Z</time>
				<extensions>
					<speed>0.0</speed>
				</extensions>
			</trkpt>
			<trkpt lat="53.26272022" lon="-8.92601157">
				<ele>61.0</ele>
				<time>2014-08-17T16:53:36Z</time>
				<extensions>
					<speed>0.0</speed>
				</extensions>
			</trkpt>
			<trkpt lat="53.26272021" lon="-8.92601159">
				<ele>61.0</ele>
				<time>2014-08-17T16:53:37Z</time>
				<extensions>
					<speed>0.0</speed>
				</extensions>
			</trkpt>
			<trkpt lat="53.26272025" lon="-8.9260116">
				<ele>61.0</ele>
				<time>2014-08-17T16:53:38Z</time>
				<extensions>
					<speed>0.0</speed>
				</extensions>
			</trkpt>
			<trkpt lat="53.26272026" lon="-8.92601162">
				<ele>61.0</ele>
				<time>2014-08-17T16:53:39Z</time>
				<extensions>
					<speed>0.0</speed>
				</extensions>
			</trkpt>
			<trkpt lat="53.26272026" lon="-8.92601163">
				<ele>61.0</ele>
				<time>2014-08-17T16:53:40Z</time>
				<extensions>
					<speed>0.0</speed>
				</extensions>
			</trkpt>
			<trkpt lat="53.26272024" lon="-8.92601168">
				<ele>61.0</ele>
				<time>2014-08-17T16:53:41Z</time>
				<extensions>
					<speed>0.0</speed>
				</extensions>
			</trkpt>
			<trkpt lat="53.26272025" lon="-8.92601169">
				<ele>61.0</ele>
				<time>2014-08-17T16:53:42Z</time>
				<extensions>
					<speed>0.0</speed>
				</extensions>
			</trkpt>
			<trkpt lat="53.26272027" lon="-8.92601172">
				<ele>61.0</ele>
				<time>2014-08-17T16:53:43Z</time>
				<extensions>
					<speed>0.0</speed>
				</extensions>
			</trkpt>
			<trkpt lat="53.26272025" lon="-8.92601175">
				<ele>61.0</ele>
				<time>2014-08-17T16:53:44Z</time>
				<extensions>
					<speed>0.0</speed>
				</extensions>
			</trkpt>
			<trkpt lat="53.26272024" lon="-8.92601171">
				<ele>61.0</ele>
				<time>2014-08-17T16:53:45Z</time>
				<extensions>
					<speed>0.0</speed>
				</extensions>
			</trkpt>
			<trkpt lat="53.26272023" lon="-8.92601172">
				<ele>61.0</ele>
				<time>2014-08-17T16:53:46Z</time>
				<extensions>
					<speed>0.0</speed>
				</extensions>
			</trkpt>
			<trkpt lat="53.26272023" lon="-8.92601172">
				<ele>61.0</ele>
				<time>2014-08-17T16:53:47Z</time>
				<extensions>
					<speed>0.0</speed>
				</extensions>
			</trkpt>
			<trkpt lat="53.26271988" lon="-8.92601081">
				<ele>61.0</ele>
				<time>2014-08-17T16:53:48Z</time>
				<extensions>
					<speed>0.0</speed>
				</extensions>
			</trkpt>
			<trkpt lat="53.26271988" lon="-8.92601079">
				<ele>61.0</ele>
				<time>2014-08-17T16:53:49Z</time>
				<extensions>
					<speed>0.0</speed>
				</extensions>
			</trkpt>
			<trkpt lat="53.26271988" lon="-8.92601075">
				<ele>61.0</ele>
				<time>2014-08-17T16:53:50Z</time>
				<extensions>
					<speed>0.0</speed>
				</extensions>
			</trkpt>
			<trkpt lat="53.26271987" lon="-8.92601075">
				<ele>61.0</ele>
				<time>2014-08-17T16:53:51Z</time>
				<extensions>
					<speed>0.0</speed>
				</extensions>
			</trkpt>
			<trkpt lat="53.26271987" lon="-8.92601076">
				<ele>61.0</ele>
				<time>2014-08-17T16:53:52Z</time>
				<extensions>
					<speed>0.0</speed>
				</extensions>
			</trkpt>
			<trkpt lat="53.26271987" lon="-8.92601074">
				<ele>61.0</ele>
				<time>2014-08-17T16:53:53Z</time>
				<extensions>
					<speed>0.0</speed>
				</extensions>
			</trkpt>
			<trkpt lat="53.26271988" lon="-8.92601072">
				<ele>61.0</ele>
				<time>2014-08-17T16:53:54Z</time>
				<extensions>
					<speed>0.0</speed>
				</extensions>
			</trkpt>
			<trkpt lat="53.26271987" lon="-8.92601066">
				<ele>61.0</ele>
				<time>2014-08-17T16:53:55Z</time>
				<extensions>
					<speed>0.0</speed>
				</extensions>
			</trkpt>
			<trkpt lat="53.26271989" lon="-8.92601068">
				<ele>61.0</ele>
				<time>2014-08-17T16:53:56Z</time>
				<extensions>
					<speed>0.0</speed>
				</extensions>
			</trkpt>
			<trkpt lat="53.26271988" lon="-8.92601064">
				<ele>61.0</ele>
				<time>2014-08-17T16:53:57Z</time>
				<extensions>
					<speed>0.0</speed>
				</extensions>
			</trkpt>
			<trkpt lat="53.2627199" lon="-8.92601063">
				<ele>61.0</ele>
				<time>2014-08-17T16:53:58Z</time>
				<extensions>
					<speed>0.0</speed>
				</extensions>
			</trkpt>
			<trkpt lat="53.26271996" lon="-8.92601022">
				<ele>61.0</ele>
				<time>2014-08-17T16:53:59Z</time>
				<extensions>
					<speed>0.0</speed>
				</extensions>
			</trkpt>
			<trkpt lat="53.26271995" lon="-8.92601023">
				<ele>61.0</ele>
				<time>2014-08-17T16:54:00Z</time>
				<extensions>
					<speed>0.0</speed>
				</extensions>
			</trkpt>
			<trkpt lat="53.26271998" lon="-8.92601017">
				<ele>61.0</ele>
				<time>2014-08-17T16:54:01Z</time>
				<extensions>
					<speed>0.0</speed>
				</extensions>
			</trkpt>
			<trkpt lat="53.26271998" lon="-8.92601017">
				<ele>61.0</ele>
				<time>2014-08-17T16:54:02Z</time>
				<extensions>
					<speed>0.0</speed>
				</extensions>
			</trkpt>
			<trkpt lat="53.26271998" lon="-8.92601017">
				<ele>61.0</ele>
				<time>2014-08-17T16:54:03Z</time>
				<extensions>
					<speed>0.0</speed>
				</extensions>
			</trkpt>
			<trkpt lat="53.26272083" lon="-8.92601035">
				<ele>61.0</ele>
				<time>2014-08-17T16:54:04Z</time>
				<extensions>
					<speed>0.0</speed>
				</extensions>
			</trkpt>
			<trkpt lat="53.26272085" lon="-8.92601031">
				<ele>61.0</ele>
				<time>2014-08-17T16:54:05Z</time>
				<extensions>
					<speed>0.0</speed>
				</extensions>
			</trkpt>
			<trkpt lat="53.26272085" lon="-8.92601033">
				<ele>61.0</ele>
				<time>2014-08-17T16:54:06Z</time>
				<extensions>
					<speed>0.0</speed>
				</extensions>
			</trkpt>
			<trkpt lat="53.26272085" lon="-8.92601038">
				<ele>61.0</ele>
				<time>2014-08-17T16:54:07Z</time>
				<extensions>
					<speed>0.0</speed>
				</extensions>
			</trkpt>
			<trkpt lat="53.26272087" lon="-8.92601038">
				<ele>61.0</ele>
				<time>2014-08-17T16:54:08Z</time>
				<extensions>
					<speed>0.0</speed>
				</extensions>
			</trkpt>
			<trkpt lat="53.26272087" lon="-8.92601035">
				<ele>61.0</ele>
				<time>2014-08-17T16:54:09Z</time>
				<extensions>
					<speed>0.0</speed>
				</extensions>
			</trkpt>
			<trkpt lat="53.26272087" lon="-8.92601039">
				<ele>61.0</ele>
				<time>2014-08-17T16:54:10Z</time>
				<extensions>
					<speed>0.0</speed>
				</extensions>
			</trkpt>
			<trkpt lat="53.26272088" lon="-8.92601038">
				<ele>61.0</ele>
				<time>2014-08-17T16:54:11Z</time>
				<extensions>
					<speed>0.0</speed>
				</extensions>
			</trkpt>
			<trkpt lat="53.26272087" lon="-8.92601036">
				<ele>61.0</ele>
				<time>2014-08-17T16:54:12Z</time>
				<extensions>
					<speed>0.0</speed>
				</extensions>
			</trkpt>
			<trkpt lat="53.26272086" lon="-8.92601037">
				<ele>61.0</ele>
				<time>2014-08-17T16:54:13Z</time>
				<extensions>
					<speed>0.0</speed>
				</extensions>
			</trkpt>
			<trkpt lat="53.26272084" lon="-8.92601037">
				<ele>61.0</ele>
				<time>2014-08-17T16:54:14Z</time>
				<extensions>
					<speed>0.0</speed>
				</extensions>
			</trkpt>
			<trkpt lat="53.26272085" lon="-8.92601038">
				<ele>61.0</ele>
				<time>2014-08-17T16:54:15Z</time>
				<extensions>
					<speed>0.0</speed>
				</extensions>
			</trkpt>
			<trkpt lat="53.26272083" lon="-8.92601041">
				<ele>61.0</ele>
				<time>2014-08-17T16:54:16Z</time>
				<extensions>
					<speed>0.0</speed>
				</extensions>
			</trkpt>
			<trkpt lat="53.26272078" lon="-8.92601037">
				<ele>61.0</ele>
				<time>2014-08-17T16:54:17Z</time>
				<extensions>
					<speed>0.0</speed>
				</extensions>
			</trkpt>
			<trkpt lat="53.26272077" lon="-8.92601039">
				<ele>61.0</ele>
				<time>2014-08-17T16:54:18Z</time>
				<extensions>
					<speed>0.0</speed>
				</extensions>
			</trkpt>
			<trkpt lat="53.26272091" lon="-8.92600883">
				<ele>61.0</ele>
				<time>2014-08-17T16:54:19Z</time>
				<extensions>
					<speed>0.75</speed>
				</extensions>
			</trkpt>
			<trkpt lat="53.26272154" lon="-8.92598771">
				<ele>60.0</ele>
				<time>2014-08-17T16:54:20Z</time>
				<extensions>
					<speed>2.0</speed>
				</extensions>
			</trkpt>
			<trkpt lat="53.26272789" lon="-8.92595737">
				<ele>60.0</ele>
				<time>2014-08-17T16:54:21Z</time>
				<extensions>
					<speed>2.5</speed>
				</extensions>
			</trkpt>
			<trkpt lat="53.26273666" lon="-8.92591829">
				<ele>60.0</ele>
				<time>2014-08-17T16:54:22Z</time>
				<extensions>
					<speed>2.75</speed>
				</extensions>
			</trkpt>
			<trkpt lat="53.26274745" lon="-8.92587948">
				<ele>59.0</ele>
				<time>2014-08-17T16:54:23Z</time>
				<extensions>
					<speed>2.75</speed>
				</extensions>
			</trkpt>
			<trkpt lat="53.26276351" lon="-8.92583332">
				<ele>59.0</ele>
				<time>2014-08-17T16:54:24Z</time>
				<extensions>
					<speed>3.25</speed>
				</extensions>
			</trkpt>
			<trkpt lat="53.26277798" lon="-8.92579389">
				<ele>59.0</ele>
				<time>2014-08-17T16:54:25Z</time>
				<extensions>
					<speed>3.0</speed>
				</extensions>
			</trkpt>
			<trkpt lat="53.26279095" lon="-8.92575946">
				<ele>59.0</ele>
				<time>2014-08-17T16:54:26Z</time>
				<extensions>
					<speed>3.25</speed>
				</extensions>
			</trkpt>
			<trkpt lat="53.26280982" lon="-8.92572061">
				<ele>59.0</ele>
				<time>2014-08-17T16:54:27Z</time>
				<extensions>
					<speed>3.5</speed>
				</extensions>
			</trkpt>
			<trkpt lat="53.26284379" lon="-8.92567986">
				<ele>60.0</ele>
				<time>2014-08-17T16:54:28Z</time>
				<extensions>
					<speed>4.5</speed>
				</extensions>
			</trkpt>
			<trkpt lat="53.26288476" lon="-8.92566169">
				<ele>60.0</ele>
				<time>2014-08-17T16:54:29Z</time>
				<extensions>
					<speed>5.0</speed>
				</extensions>
			</trkpt>
			<trkpt lat="53.26294332" lon="-8.92565727">
				<ele>61.0</ele>
				<time>2014-08-17T16:54:30Z</time>
				<extensions>
					<speed>6.75</speed>
				</extensions>
			</trkpt>
			<trkpt lat="53.26301362" lon="-8.92565363">
				<ele>62.0</ele>
				<time>2014-08-17T16:54:31Z</time>
				<extensions>
					<speed>8.5</speed>
				</extensions>
			</trkpt>
			<trkpt lat="53.26310092" lon="-8.92565206">
				<ele>62.0</ele>
				<time>2014-08-17T16:54:32Z</time>
				<extensions>
					<speed>10.25</speed>
				</extensions>
			</trkpt>
			<trkpt lat="53.26318819" lon="-8.92563434">
				<ele>63.0</ele>
				<time>2014-08-17T16:54:33Z</time>
				<extensions>
					<speed>10.0</speed>
				</extensions>
			</trkpt>
			<trkpt lat="53.26326774" lon="-8.92560413">
				<ele>64.0</ele>
				<time>2014-08-17T16:54:34Z</time>
				<extensions>
					<speed>10.0</speed>
				</extensions>
			</trkpt>
			<trkpt lat="53.26334637" lon="-8.92557673">
				<ele>63.0</ele>
				<time>2014-08-17T16:54:35Z</time>
				<extensions>
					<speed>9.25</speed>
				</extensions>
			</trkpt>
			<trkpt lat="53.26342019" lon="-8.9255316">
				<ele>63.0</ele>
				<time>2014-08-17T16:54:36Z</time>
				<extensions>
					<speed>9.0</speed>
				</extensions>
			</trkpt>
			<trkpt lat="53.26348583" lon="-8.92549867">
				<ele>64.0</ele>
				<time>2014-08-17T16:54:37Z</time>
				<extensions>
					<speed>7.5</speed>
				</extensions>
			</trkpt>
			<trkpt lat="53.26353796" lon="-8.92546597">
				<ele>64.0</ele>
				<time>2014-08-17T16:54:38Z</time>
				<extensions>
					<speed>5.75</speed>
				</extensions>
			</trkpt>
			<trkpt lat="53.26356892" lon="-8.9254382">
				<ele>64.0</ele>
				<time>2014-08-17T16:54:39Z</time>
				<extensions>
					<speed>3.5</speed>
				</extensions>
			</trkpt>
			<trkpt lat="53.26358929" lon="-8.92541853">
				<ele>63.0</ele>
				<time>2014-08-17T16:54:40Z</time>
				<extensions>
					<speed>2.5</speed>
				</extensions>
			</trkpt>
			<trkpt lat="53.26359684" lon="-8.92541409">
				<ele>62.0</ele>
				<time>2014-08-17T16:54:41Z</time>
				<extensions>
					<speed>1.25</speed>
				</extensions>
			</trkpt>
			<trkpt lat="53.26361303" lon="-8.92540312">
				<ele>62.0</ele>
				<time>2014-08-17T16:54:42Z</time>
				<extensions>
					<speed>1.25</speed>
				</extensions>
			</trkpt>
			<trkpt lat="53.26362241" lon="-8.92540201">
				<ele>62.0</ele>
				<time>2014-08-17T16:54:43Z</time>
				<extensions>
					<speed>0.75</speed>
				</extensions>
			</trkpt>
			<trkpt lat="53.26362132" lon="-8.92541325">
				<ele>62.0</ele>
				<time>2014-08-17T16:54:44Z</time>
				<extensions>
					<speed>0.0</speed>
				</extensions>
			</trkpt>
			<trkpt lat="53.26362079" lon="-8.92541222">
				<ele>61.0</ele>
				<time>2014-08-17T16:54:45Z</time>
				<extensions>
					<speed>0.0</speed>
				</extensions>
			</trkpt>
			<trkpt lat="53.26362148" lon="-8.92541098">
				<ele>61.0</ele>
				<time>2014-08-17T16:54:46Z</time>
				<extensions>
					<speed>0.75</speed>
				</extensions>
			</trkpt>
			<trkpt lat="53.26364845" lon="-8.92536815">
				<ele>62.0</ele>
				<time>2014-08-17T16:54:47Z</time>
				<extensions>
					<speed>3.5</speed>
				</extensions>
			</trkpt>
			<trkpt lat="53.26367204" lon="-8.92531865">
				<ele>62.0</ele>
				<time>2014-08-17T16:54:48Z</time>
				<extensions>
					<speed>4.25</speed>
				</extensions>
			</trkpt>
			<trkpt lat="53.26368683" lon="-8.92525865">
				<ele>61.0</ele>
				<time>2014-08-17T16:54:49Z</time>
				<extensions>
					<speed>4.5</speed>
				</extensions>
			</trkpt>
			<trkpt lat="53.26369133" lon="-8.92518053">
				<ele>61.0</ele>
				<time>2014-08-17T16:54:50Z</time>
				<extensions>
					<speed>5.0</speed>
				</extensions>
			</trkpt>
			<trkpt lat="53.2636939" lon="-8.92510631">
				<ele>61.0</ele>
				<time>2014-08-17T16:54:51Z</time>
				<extensions>
					<speed>5.5</speed>
				</extensions>
			</trkpt>
			<trkpt lat="53.26368667" lon="-8.92502582">
				<ele>61.0</ele>
				<time>2014-08-17T16:54:52Z</time>
				<extensions>
					<speed>5.5</speed>
				</extensions>
			</trkpt>
			<trkpt lat="53.26370598" lon="-8.92495263">
				<ele>61.0</ele>
				<time>2014-08-17T16:54:53Z</time>
				<extensions>
					<speed>5.25</speed>
				</extensions>
			</trkpt>
			<trkpt lat="53.2637318" lon="-8.92489016">
				<ele>61.0</ele>
				<time>2014-08-17T16:54:54Z</time>
				<extensions>
					<speed>5.0</speed>
				</extensions>
			</trkpt>
			<trkpt lat="53.26376309" lon="-8.92482107">
				<ele>62.0</ele>
				<time>2014-08-17T16:54:55Z</time>
				<extensions>
					<speed>5.0</speed>
				</extensions>
			</trkpt>
			<trkpt lat="53.26380014" lon="-8.92477863">
				<ele>62.0</ele>
				<time>2014-08-17T16:54:56Z</time>
				<extensions>
					<speed>5.0</speed>
				</extensions>
			</trkpt>
			<trkpt lat="53.26383843" lon="-8.92474747">
				<ele>62.0</ele>
				<time>2014-08-17T16:54:57Z</time>
				<extensions>
					<speed>5.0</speed>
				</extensions>
			</trkpt>
			<trkpt lat="53.26387974" lon="-8.92471737">
				<ele>61.0</ele>
				<time>2014-08-17T16:54:58Z</time>
				<extensions>
					<speed>5.0</speed>
				</extensions>
			</trkpt>
			<trkpt lat="53.26392106" lon="-8.92468727">
				<ele>61.0</ele>
				<time>2014-08-17T16:54:59Z</time>
				<extensions>
					<speed>5.0</speed>
				</extensions>
			</trkpt>
			<trkpt lat="53.26398804" lon="-8.92470612">
				<ele>61.0</ele>
				<time>2014-08-17T16:55:00Z</time>
				<extensions>
					<speed>7.0</speed>
				</extensions>
			</trkpt>
			<trkpt lat="53.26406246" lon="-8.92468067">
				<ele>61.0</ele>
				<time>2014-08-17T16:55:01Z</time>
				<extensions>
					<speed>7.5</speed>
				</extensions>
			</trkpt>
			<trkpt lat="53.26414045" lon="-8.92467952">
				<ele>61.0</ele>
				<time>2014-08-17T16:55:02Z</time>
				<extensions>
					<speed>8.0</speed>
				</extensions>
			</trkpt>
			<trkpt lat="53.2642106" lon="-8.92470744">
				<ele>62.0</ele>
				<time>2014-08-17T16:55:03Z</time>
				<extensions>
					<speed>7.5</speed>
				</extensions>
			</trkpt>
			<trkpt lat="53.26427031" lon="-8.9247554">
				<ele>61.0</ele>
				<time>2014-08-17T16:55:04Z</time>
				<extensions>
					<speed>7.75</speed>
				</extensions>
			</trkpt>
			<trkpt lat="53.2643301" lon="-8.92481445">
				<ele>61.0</ele>
				<time>2014-08-17T16:55:05Z</time>
				<extensions>
					<speed>7.75</speed>
				</extensions>
			</trkpt>
			<trkpt lat="53.26438953" lon="-8.92487905">
				<ele>61.0</ele>
				<time>2014-08-17T16:55:06Z</time>
				<extensions>
					<speed>7.25</speed>
				</extensions>
			</trkpt>
			<trkpt lat="53.26444955" lon="-8.92493934">
				<ele>62.0</ele>
				<time>2014-08-17T16:55:07Z</time>
				<extensions>
					<speed>7.25</speed>
				</extensions>
			</trkpt>
			<trkpt lat="53.26450392" lon="-8.92499161">
				<ele>61.0</ele>
				<time>2014-08-17T16:55:08Z</time>
				<extensions>
					<speed>7.25</speed>
				</extensions>
			</trkpt>
			<trkpt lat="53.26456464" lon="-8.92503812">
				<ele>61.0</ele>
				<time>2014-08-17T16:55:09Z</time>
				<extensions>
					<speed>7.25</speed>
				</extensions>
			</trkpt>
			<trkpt lat="53.26462122" lon="-8.92509571">
				<ele>61.0</ele>
				<time>2014-08-17T16:55:10Z</time>
				<extensions>
					<speed>7.0</speed>
				</extensions>
			</trkpt>
			<trkpt lat="53.26467422" lon="-8.92514703">
				<ele>63.0</ele>
				<time>2014-08-17T16:55:11Z</time>
				<extensions>
					<speed>7.0</speed>
				</extensions>
			</trkpt>
			<trkpt lat="53.26472716" lon="-8.92518933">
				<ele>64.0</ele>
				<time>2014-08-17T16:55:12Z</time>
				<extensions>
					<speed>6.0</speed>
				</extensions>
			</trkpt>
			<trkpt lat="53.26476275" lon="-8.92521087">
				<ele>64.0</ele>
				<time>2014-08-17T16:55:13Z</time>
				<extensions>
					<speed>4.0</speed>
				</extensions>
			</trkpt>
			<trkpt lat="53.26479097" lon="-8.9252204">
				<ele>63.0</ele>
				<time>2014-08-17T16:55:14Z</time>
				<extensions>
					<speed>2.75</speed>
				</extensions>
			</trkpt>
			<trkpt lat="53.26480097" lon="-8.92522611">
				<ele>63.0</ele>
				<time>2014-08-17T16:55:15Z</time>
				<extensions>
					<speed>1.0</speed>
				</extensions>
			</trkpt>
			<trkpt lat="53.26480346" lon="-8.92523018">
				<ele>63.0</ele>
				<time>2014-08-17T16:55:16Z</time>
				<extensions>
					<speed>0.0</speed>
				</extensions>
			</trkpt>
			<trkpt lat="53.26480655" lon="-8.92522539">
				<ele>63.0</ele>
				<time>2014-08-17T16:55:17Z</time>
				<extensions>
					<speed>0.0</speed>
				</extensions>
			</trkpt>
			<trkpt lat="53.26480536" lon="-8.92523184">
				<ele>63.0</ele>
				<time>2014-08-17T16:55:18Z</time>
				<extensions>
					<speed>0.0</speed>
				</extensions>
			</trkpt>
			<trkpt lat="53.26480386" lon="-8.92523078">
				<ele>63.0</ele>
				<time>2014-08-17T16:55:19Z</time>
				<extensions>
					<speed>1.25</speed>
				</extensions>
			</trkpt>
			<trkpt lat="53.26478798" lon="-8.9252253">
				<ele>63.0</ele>
				<time>2014-08-17T16:55:20Z</time>
				<extensions>
					<speed>2.0</speed>
				</extensions>
			</trkpt>
			<trkpt lat="53.26477421" lon="-8.92521844">
				<ele>63.0</ele>
				<time>2014-08-17T16:55:21Z</time>
				<extensions>
					<speed>2.25</speed>
				</extensions>
			</trkpt>
			<trkpt lat="53.26475972" lon="-8.92520098">
				<ele>62.0</ele>
				<time>2014-08-17T16:55:22Z</time>
				<extensions>
					<speed>2.25</speed>
				</extensions>
			</trkpt>
			<trkpt lat="53.26474023" lon="-8.92518852">
				<ele>63.0</ele>
				<time>2014-08-17T16:55:23Z</time>
				<extensions>
					<speed>2.0</speed>
				</extensions>
			</trkpt>
			<trkpt lat="53.26472777" lon="-8.92517801">
				<ele>63.0</ele>
				<time>2014-08-17T16:55:24Z</time>
				<extensions>
					<speed>1.75</speed>
				</extensions>
			</trkpt>
			<trkpt lat="53.26471631" lon="-8.92517653">
				<ele>62.0</ele>
				<time>2014-08-17T16:55:25Z</time>
				<extensions>
					<speed>1.0</speed>
				</extensions>
			</trkpt>
			<trkpt lat="53.26471188" lon="-8.92517158">
				<ele>62.0</ele>
				<time>2014-08-17T16:55:26Z</time>
				<extensions>
					<speed>0.0</speed>
				</extensions>
			</trkpt>
			<trkpt lat="53.26471062" lon="-8.9251754">
				<ele>62.0</ele>
				<time>2014-08-17T16:55:27Z</time>
				<extensions>
					<speed>0.0</speed>
				</extensions>
			</trkpt>
			<trkpt lat="53.26471209" lon="-8.92517659">
				<ele>62.0</ele>
				<time>2014-08-17T16:55:28Z</time>
				<extensions>
					<speed>1.25</speed>
				</extensions>
			</trkpt>
			<trkpt lat="53.26472309" lon="-8.92519057">
				<ele>62.0</ele>
				<time>2014-08-17T16:55:29Z</time>
				<extensions>
					<speed>1.75</speed>
				</extensions>
			</trkpt>
			<trkpt lat="53.26473369" lon="-8.92519673">
				<ele>62.0</ele>
				<time>2014-08-17T16:55:30Z</time>
				<extensions>
					<speed>1.5</speed>
				</extensions>
			</trkpt>
			<trkpt lat="53.26474261" lon="-8.92520239">
				<ele>63.0</ele>
				<time>2014-08-17T16:55:31Z</time>
				<extensions>
					<speed>1.25</speed>
				</extensions>
			</trkpt>
			<trkpt lat="53.26475467" lon="-8.92521436">
				<ele>63.0</ele>
				<time>2014-08-17T16:55:32Z</time>
				<extensions>
					<speed>1.25</speed>
				</extensions>
			</trkpt>
			<trkpt lat="53.26477011" lon="-8.92522519">
				<ele>64.0</ele>
				<time>2014-08-17T16:55:33Z</time>
				<extensions>
					<speed>1.75</speed>
				</extensions>
			</trkpt>
			<trkpt lat="53.26478358" lon="-8.92523321">
				<ele>63.0</ele>
				<time>2014-08-17T16:55:34Z</time>
				<extensions>
					<speed>2.0</speed>
				</extensions>
			</trkpt>
			<trkpt lat="53.26480194" lon="-8.92524682">
				<ele>64.0</ele>
				<time>2014-08-17T16:55:35Z</time>
				<extensions>
					<speed>2.25</speed>
				</extensions>
			</trkpt>
			<trkpt lat="53.26481795" lon="-8.92525739">
				<ele>64.0</ele>
				<time>2014-08-17T16:55:36Z</time>
				<extensions>
					<speed>2.0</speed>
				</extensions>
			</trkpt>
			<trkpt lat="53.2648339" lon="-8.92526163">
				<ele>65.0</ele>
				<time>2014-08-17T16:55:37Z</time>
				<extensions>
					<speed>1.5</speed>
				</extensions>
			</trkpt>
			<trkpt lat="53.26484619" lon="-8.92526078">
				<ele>64.0</ele>
				<time>2014-08-17T16:55:38Z</time>
				<extensions>
					<speed>0.0</speed>
				</extensions>
			</trkpt>
			<trkpt lat="53.26484673" lon="-8.92526395">
				<ele>64.0</ele>
				<time>2014-08-17T16:55:39Z</time>
				<extensions>
					<speed>0.0</speed>
				</extensions>
			</trkpt>
			<trkpt lat="53.26484626" lon="-8.92526434">
				<ele>64.0</ele>
				<time>2014-08-17T16:55:40Z</time>
				<extensions>
					<speed>0.0</speed>
				</extensions>
			</trkpt>
			<trkpt lat="53.26484626" lon="-8.92526434">
				<ele>64.0</ele>
				<time>2014-08-17T16:55:41Z</time>
				<extensions>
					<speed>0.0</speed>
				</extensions>
			</trkpt>
			<trkpt lat="53.26484626" lon="-8.92526434">
				<ele>64.0</ele>
				<time>2014-08-17T16:55:42Z</time>
				<extensions>
					<speed>0.0</speed>
				</extensions>
			</trkpt>
			<trkpt lat="53.26485623" lon="-8.92527615">
				<ele>63.0</ele>
				<time>2014-08-17T16:55:43Z</time>
				<extensions>
					<speed>0.0</speed>
				</extensions>
			</trkpt>
			<trkpt lat="53.26485961" lon="-8.92527626">
				<ele>63.0</ele>
				<time>2014-08-17T16:55:44Z</time>
				<extensions>
					<speed>0.0</speed>
				</extensions>
			</trkpt>
			<trkpt lat="53.26486336" lon="-8.92527678">
				<ele>62.0</ele>
				<time>2014-08-17T16:55:45Z</time>
				<extensions>
					<speed>0.0</speed>
				</extensions>
			</trkpt>
			<trkpt lat="53.26486689" lon="-8.92527509">
				<ele>63.0</ele>
				<time>2014-08-17T16:55:46Z</time>
				<extensions>
					<speed>0.0</speed>
				</extensions>
			</trkpt>
			<trkpt lat="53.26486915" lon="-8.92527291">
				<ele>62.0</ele>
				<time>2014-08-17T16:55:47Z</time>
				<extensions>
					<speed>0.0</speed>
				</extensions>
			</trkpt>
			<trkpt lat="53.26486935" lon="-8.92527293">
				<ele>62.0</ele>
				<time>2014-08-17T16:55:48Z</time>
				<extensions>
					<speed>0.0</speed>
				</extensions>
			</trkpt>
			<trkpt lat="53.26487179" lon="-8.92527384">
				<ele>62.0</ele>
				<time>2014-08-17T16:55:49Z</time>
				<extensions>
					<speed>2.0</speed>
				</extensions>
			</trkpt>
			<trkpt lat="53.26488922" lon="-8.92528156">
				<ele>63.0</ele>
				<time>2014-08-17T16:55:50Z</time>
				<extensions>
					<speed>2.5</speed>
				</extensions>
			</trkpt>
			<trkpt lat="53.26491614" lon="-8.92528979">
				<ele>63.0</ele>
				<time>2014-08-17T16:55:51Z</time>
				<extensions>
					<speed>3.0</speed>
				</extensions>
			</trkpt>
			<trkpt lat="53.26494249" lon="-8.92529405">
				<ele>63.0</ele>
				<time>2014-08-17T16:55:52Z</time>
				<extensions>
					<speed>3.0</speed>
				</extensions>
			</trkpt>
			<trkpt lat="53.26496207" lon="-8.92528302">
				<ele>63.0</ele>
				<time>2014-08-17T16:55:53Z</time>
				<extensions>
					<speed>2.25</speed>
				</extensions>
			</trkpt>
			<trkpt lat="53.26497821" lon="-8.92528392">
				<ele>63.0</ele>
				<time>2014-08-17T16:55:54Z</time>
				<extensions>
					<speed>1.0</speed>
				</extensions>
			</trkpt>
			<trkpt lat="53.26498422" lon="-8.92528334">
				<ele>64.0</ele>
				<time>2014-08-17T16:55:55Z</time>
				<extensions>
					<speed>0.75</speed>
				</extensions>
			</trkpt>
			<trkpt lat="53.26498703" lon="-8.92527813">
				<ele>64.0</ele>
				<time>2014-08-17T16:55:56Z</time>
				<extensions>
					<speed>0.0</speed>
				</extensions>
			</trkpt>
			<trkpt lat="53.26498855" lon="-8.9252798">
				<ele>65.0</ele>
				<time>2014-08-17T16:55:57Z</time>
				<extensions>
					<speed>0.0</speed>
				</extensions>
			</trkpt>
			<trkpt lat="53.26499193" lon="-8.92527863">
				<ele>65.0</ele>
				<time>2014-08-17T16:55:58Z</time>
				<extensions>
					<speed>0.0</speed>
				</extensions>
			</trkpt>
			<trkpt lat="53.26499172" lon="-8.92528084">
				<ele>65.0</ele>
				<time>2014-08-17T16:55:59Z</time>
				<extensions>
					<speed>0.0</speed>
				</extensions>
			</trkpt>
			<trkpt lat="53.26499174" lon="-8.92528042">
				<ele>65.0</ele>
				<time>2014-08-17T16:56:00Z</time>
				<extensions>
					<speed>0.25</speed>
				</extensions>
			</trkpt>
			<trkpt lat="53.2649972" lon="-8.92527731">
				<ele>65.0</ele>
				<time>2014-08-17T16:56:01Z</time>
				<extensions>
					<speed>1.0</speed>
				</extensions>
			</trkpt>
			<trkpt lat="53.26501677" lon="-8.92526977">
				<ele>65.0</ele>
				<time>2014-08-17T16:56:02Z</time>
				<extensions>
					<speed>1.5</speed>
				</extensions>
			</trkpt>
			<trkpt lat="53.26502886" lon="-8.92526688">
				<ele>66.0</ele>
				<time>2014-08-17T16:56:03Z</time>
				<extensions>
					<speed>1.5</speed>
				</extensions>
			</trkpt>
			<trkpt lat="53.26504061" lon="-8.92526644">
				<ele>65.0</ele>
				<time>2014-08-17T16:56:04Z</time>
				<extensions>
					<speed>1.25</speed>
				</extensions>
			</trkpt>
			<trkpt lat="53.26505613" lon="-8.92526227">
				<ele>66.0</ele>
				<time>2014-08-17T16:56:05Z</time>
				<extensions>
					<speed>1.5</speed>
				</extensions>
			</trkpt>
			<trkpt lat="53.26506997" lon="-8.92525826">
				<ele>66.0</ele>
				<time>2014-08-17T16:56:06Z</time>
				<extensions>
					<speed>1.5</speed>
				</extensions>
			</trkpt>
			<trkpt lat="53.26508244" lon="-8.92525661">
				<ele>67.0</ele>
				<time>2014-08-17T16:56:07Z</time>
				<extensions>
					<speed>1.0</speed>
				</extensions>
			</trkpt>
			<trkpt lat="53.26508401" lon="-8.92524993">
				<ele>67.0</ele>
				<time>2014-08-17T16:56:08Z</time>
				<extensions>
					<speed>1.25</speed>
				</extensions>
			</trkpt>
			<trkpt lat="53.26509625" lon="-8.92525174">
				<ele>67.0</ele>
				<time>2014-08-17T16:56:09Z</time>
				<extensions>
					<speed>1.25</speed>
				</extensions>
			</trkpt>
			<trkpt lat="53.2651057" lon="-8.92524984">
				<ele>66.0</ele>
				<time>2014-08-17T16:56:10Z</time>
				<extensions>
					<speed>0.75</speed>
				</extensions>
			</trkpt>
			<trkpt lat="53.26511712" lon="-8.92524861">
				<ele>66.0</ele>
				<time>2014-08-17T16:56:11Z</time>
				<extensions>
					<speed>0.75</speed>
				</extensions>
			</trkpt>
			<trkpt lat="53.26511888" lon="-8.92524867">
				<ele>66.0</ele>
				<time>2014-08-17T16:56:12Z</time>
				<extensions>
					<speed>0.0</speed>
				</extensions>
			</trkpt>
			<trkpt lat="53.26511972" lon="-8.92525217">
				<ele>66.0</ele>
				<time>2014-08-17T16:56:13Z</time>
				<extensions>
					<speed>0.0</speed>
				</extensions>
			</trkpt>
			<trkpt lat="53.26511972" lon="-8.92525217">
				<ele>66.0</ele>
				<time>2014-08-17T16:56:14Z</time>
				<extensions>
					<speed>0.0</speed>
				</extensions>
			</trkpt>
			<trkpt lat="53.26512003" lon="-8.92525297">
				<ele>67.0</ele>
				<time>2014-08-17T16:56:15Z</time>
				<extensions>
					<speed>0.0</speed>
				</extensions>
			</trkpt>
			<trkpt lat="53.26512003" lon="-8.92525297">
				<ele>67.0</ele>
				<time>2014-08-17T16:56:16Z</time>
				<extensions>
					<speed>0.0</speed>
				</extensions>
			</trkpt>
			<trkpt lat="53.26512056" lon="-8.92525281">
				<ele>66.0</ele>
				<time>2014-08-17T16:56:17Z</time>
				<extensions>
					<speed>0.0</speed>
				</extensions>
			</trkpt>
			<trkpt lat="53.26512056" lon="-8.92525281">
				<ele>66.0</ele>
				<time>2014-08-17T16:56:18Z</time>
				<extensions>
					<speed>0.0</speed>
				</extensions>
			</trkpt>
			<trkpt lat="53.26512153" lon="-8.92525293">
				<ele>66.0</ele>
				<time>2014-08-17T16:56:19Z</time>
				<extensions>
					<speed>0.0</speed>
				</extensions>
			</trkpt>
			<trkpt lat="53.26512258" lon="-8.92525374">
				<ele>66.0</ele>
				<time>2014-08-17T16:56:20Z</time>
				<extensions>
					<speed>0.0</speed>
				</extensions>
			</trkpt>
			<trkpt lat="53.26512345" lon="-8.92525182">
				<ele>67.0</ele>
				<time>2014-08-17T16:56:21Z</time>
				<extensions>
					<speed>0.0</speed>
				</extensions>
			</trkpt>
			<trkpt lat="53.26512381" lon="-8.92525121">
				<ele>67.0</ele>
				<time>2014-08-17T16:56:22Z</time>
				<extensions>
					<speed>0.0</speed>
				</extensions>
			</trkpt>
			<trkpt lat="53.26512411" lon="-8.92525055">
				<ele>67.0</ele>
				<time>2014-08-17T16:56:23Z</time>
				<extensions>
					<speed>0.0</speed>
				</extensions>
			</trkpt>
			<trkpt lat="53.26512542" lon="-8.9252512">
				<ele>67.0</ele>
				<time>2014-08-17T16:56:24Z</time>
				<extensions>
					<speed>0.0</speed>
				</extensions>
			</trkpt>
			<trkpt lat="53.26512531" lon="-8.92525124">
				<ele>67.0</ele>
				<time>2014-08-17T16:56:25Z</time>
				<extensions>
					<speed>0.0</speed>
				</extensions>
			</trkpt>
			<trkpt lat="53.2651257" lon="-8.92525148">
				<ele>67.0</ele>
				<time>2014-08-17T16:56:26Z</time>
				<extensions>
					<speed>0.0</speed>
				</extensions>
			</trkpt>
			<trkpt lat="53.2651257" lon="-8.92525148">
				<ele>67.0</ele>
				<time>2014-08-17T16:56:27Z</time>
				<extensions>
					<speed>0.0</speed>
				</extensions>
			</trkpt>
			<trkpt lat="53.26512572" lon="-8.92525149">
				<ele>67.0</ele>
				<time>2014-08-17T16:56:28Z</time>
				<extensions>
					<speed>0.0</speed>
				</extensions>
			</trkpt>
			<trkpt lat="53.26512574" lon="-8.9252515">
				<ele>67.0</ele>
				<time>2014-08-17T16:56:29Z</time>
				<extensions>
					<speed>0.0</speed>
				</extensions>
			</trkpt>
			<trkpt lat="53.26512577" lon="-8.9252515">
				<ele>67.0</ele>
				<time>2014-08-17T16:56:30Z</time>
				<extensions>
					<speed>0.0</speed>
				</extensions>
			</trkpt>
			<trkpt lat="53.26512579" lon="-8.92525149">
				<ele>67.0</ele>
				<time>2014-08-17T16:56:31Z</time>
				<extensions>
					<speed>0.0</speed>
				</extensions>
			</trkpt>
			<trkpt lat="53.26512579" lon="-8.92525149">
				<ele>67.0</ele>
				<time>2014-08-17T16:56:32Z</time>
				<extensions>
					<speed>0.0</speed>
				</extensions>
			</trkpt>
			<trkpt lat="53.26512579" lon="-8.92525151">
				<ele>67.0</ele>
				<time>2014-08-17T16:56:33Z</time>
				<extensions>
					<speed>0.0</speed>
				</extensions>
			</trkpt>
			<trkpt lat="53.26512579" lon="-8.92525154">
				<ele>67.0</ele>
				<time>2014-08-17T16:56:34Z</time>
				<extensions>
					<speed>0.0</speed>
				</extensions>
			</trkpt>
			<trkpt lat="53.26512583" lon="-8.92525157">
				<ele>67.0</ele>
				<time>2014-08-17T16:56:35Z</time>
				<extensions>
					<speed>0.0</speed>
				</extensions>
			</trkpt>
			<trkpt lat="53.26512583" lon="-8.92525157">
				<ele>67.0</ele>
				<time>2014-08-17T16:56:36Z</time>
				<extensions>
					<speed>0.0</speed>
				</extensions>
			</trkpt>
			<trkpt lat="53.26512592" lon="-8.92525162">
				<ele>67.0</ele>
				<time>2014-08-17T16:56:37Z</time>
				<extensions>
					<speed>0.0</speed>
				</extensions>
			</trkpt>
			<trkpt lat="53.26512596" lon="-8.92525162">
				<ele>67.0</ele>
				<time>2014-08-17T16:56:38Z</time>
				<extensions>
					<speed>0.0</speed>
				</extensions>
			</trkpt>
			<trkpt lat="53.26512603" lon="-8.92525165">
				<ele>67.0</ele>
				<time>2014-08-17T16:56:39Z</time>
				<extensions>
					<speed>0.0</speed>
				</extensions>
			</trkpt>
			<trkpt lat="53.26512612" lon="-8.92525168">
				<ele>67.0</ele>
				<time>2014-08-17T16:56:40Z</time>
				<extensions>
					<speed>0.0</speed>
				</extensions>
			</trkpt>
			<trkpt lat="53.26512613" lon="-8.92525171">
				<ele>67.0</ele>
				<time>2014-08-17T16:56:41Z</time>
				<extensions>
					<speed>0.0</speed>
				</extensions>
			</trkpt>
			<trkpt lat="53.26512615" lon="-8.92525173">
				<ele>67.0</ele>
				<time>2014-08-17T16:56:42Z</time>
				<extensions>
					<speed>0.0</speed>
				</extensions>
			</trkpt>
			<trkpt lat="53.26512619" lon="-8.92525175">
				<ele>67.0</ele>
				<time>2014-08-17T16:56:43Z</time>
				<extensions>
					<speed>0.0</speed>
				</extensions>
			</trkpt>
			<trkpt lat="53.26512619" lon="-8.92525175">
				<ele>67.0</ele>
				<time>2014-08-17T16:56:44Z</time>
				<extensions>
					<speed>0.0</speed>
				</extensions>
			</trkpt>
			<trkpt lat="53.26512627" lon="-8.9252518">
				<ele>67.0</ele>
				<time>2014-08-17T16:56:45Z</time>
				<extensions>
					<speed>0.0</speed>
				</extensions>
			</trkpt>
			<trkpt lat="53.26512626" lon="-8.92525179">
				<ele>67.0</ele>
				<time>2014-08-17T16:56:46Z</time>
				<extensions>
					<speed>0.0</speed>
				</extensions>
			</trkpt>
			<trkpt lat="53.2651263" lon="-8.92525183">
				<ele>67.0</ele>
				<time>2014-08-17T16:56:47Z</time>
				<extensions>
					<speed>0.0</speed>
				</extensions>
			</trkpt>
			<trkpt lat="53.26512636" lon="-8.92525186">
				<ele>67.0</ele>
				<time>2014-08-17T16:56:48Z</time>
				<extensions>
					<speed>0.0</speed>
				</extensions>
			</trkpt>
			<trkpt lat="53.26512641" lon="-8.92525187">
				<ele>67.0</ele>
				<time>2014-08-17T16:56:49Z</time>
				<extensions>
					<speed>0.0</speed>
				</extensions>
			</trkpt>
			<trkpt lat="53.26512639" lon="-8.92525188">
				<ele>67.0</ele>
				<time>2014-08-17T16:56:50Z</time>
				<extensions>
					<speed>0.0</speed>
				</extensions>
			</trkpt>
			<trkpt lat="53.26512646" lon="-8.92525192">
				<ele>67.0</ele>
				<time>2014-08-17T16:56:51Z</time>
				<extensions>
					<speed>0.0</speed>
				</extensions>
			</trkpt>
			<trkpt lat="53.2651265" lon="-8.92525197">
				<ele>67.0</ele>
				<time>2014-08-17T16:56:52Z</time>
				<extensions>
					<speed>0.0</speed>
				</extensions>
			</trkpt>
			<trkpt lat="53.26512657" lon="-8.92525198">
				<ele>67.0</ele>
				<time>2014-08-17T16:56:53Z</time>
				<extensions>
					<speed>0.0</speed>
				</extensions>
			</trkpt>
			<trkpt lat="53.26512804" lon="-8.92525129">
				<ele>67.0</ele>
				<time>2014-08-17T16:56:54Z</time>
				<extensions>
					<speed>0.75</speed>
				</extensions>
			</trkpt>
			<trkpt lat="53.26514109" lon="-8.92524167">
				<ele>67.0</ele>
				<time>2014-08-17T16:56:55Z</time>
				<extensions>
					<speed>1.75</speed>
				</extensions>
			</trkpt>
			<trkpt lat="53.26516779" lon="-8.92523369">
				<ele>68.0</ele>
				<time>2014-08-17T16:56:56Z</time>
				<extensions>
					<speed>2.75</speed>
				</extensions>
			</trkpt>
			<trkpt lat="53.26519206" lon="-8.92522028">
				<ele>68.0</ele>
				<time>2014-08-17T16:56:57Z</time>
				<extensions>
					<speed>2.75</speed>
				</extensions>
			</trkpt>
			<trkpt lat="53.26521812" lon="-8.92520775">
				<ele>68.0</ele>
				<time>2014-08-17T16:56:58Z</time>
				<extensions>
					<speed>2.5</speed>
				</extensions>
			</trkpt>
			<trkpt lat="53.26523747" lon="-8.92519505">
				<ele>68.0</ele>
				<time>2014-08-17T16:56:59Z</time>
				<extensions>
					<speed>2.5</speed>
				</extensions>
			</trkpt>
			<trkpt lat="53.26525214" lon="-8.92519315">
				<ele>69.0</ele>
				<time>2014-08-17T16:57:00Z</time>
				<extensions>
					<speed>0.75</speed>
				</extensions>
			</trkpt>
			<trkpt lat="53.26525561" lon="-8.92518637">
				<ele>69.0</ele>
				<time>2014-08-17T16:57:01Z</time>
				<extensions>
					<speed>0.0</speed>
				</extensions>
			</trkpt>
			<trkpt lat="53.2652566" lon="-8.92518603">
				<ele>69.0</ele>
				<time>2014-08-17T16:57:02Z</time>
				<extensions>
					<speed>0.0</speed>
				</extensions>
			</trkpt>
			<trkpt lat="53.2652594" lon="-8.92518476">
				<ele>69.0</ele>
				<time>2014-08-17T16:57:03Z</time>
				<extensions>
					<speed>0.0</speed>
				</extensions>
			</trkpt>
			<trkpt lat="53.26526194" lon="-8.92517943">
				<ele>70.0</ele>
				<time>2014-08-17T16:57:04Z</time>
				<extensions>
					<speed>0.0</speed>
				</extensions>
			</trkpt>
			<trkpt lat="53.26526562" lon="-8.92517847">
				<ele>70.0</ele>
				<time>2014-08-17T16:57:05Z</time>
				<extensions>
					<speed>0.0</speed>
				</extensions>
			</trkpt>
			<trkpt lat="53.26526925" lon="-8.92517747">
				<ele>71.0</ele>
				<time>2014-08-17T16:57:06Z</time>
				<extensions>
					<speed>0.0</speed>
				</extensions>
			</trkpt>
			<trkpt lat="53.26527284" lon="-8.92517563">
				<ele>71.0</ele>
				<time>2014-08-17T16:57:07Z</time>
				<extensions>
					<speed>0.0</speed>
				</extensions>
			</trkpt>
			<trkpt lat="53.26527412" lon="-8.92517463">
				<ele>72.0</ele>
				<time>2014-08-17T16:57:08Z</time>
				<extensions>
					<speed>0.0</speed>
				</extensions>
			</trkpt>
			<trkpt lat="53.26527478" lon="-8.9251751">
				<ele>72.0</ele>
				<time>2014-08-17T16:57:09Z</time>
				<extensions>
					<speed>0.0</speed>
				</extensions>
			</trkpt>
			<trkpt lat="53.26527648" lon="-8.92517511">
				<ele>72.0</ele>
				<time>2014-08-17T16:57:10Z</time>
				<extensions>
					<speed>0.0</speed>
				</extensions>
			</trkpt>
			<trkpt lat="53.26527648" lon="-8.92517511">
				<ele>72.0</ele>
				<time>2014-08-17T16:57:11Z</time>
				<extensions>
					<speed>0.0</speed>
				</extensions>
			</trkpt>
			<trkpt lat="53.26527711" lon="-8.92517501">
				<ele>72.0</ele>
				<time>2014-08-17T16:57:12Z</time>
				<extensions>
					<speed>0.0</speed>
				</extensions>
			</trkpt>
			<trkpt lat="53.26527694" lon="-8.92517499">
				<ele>72.0</ele>
				<time>2014-08-17T16:57:13Z</time>
				<extensions>
					<speed>0.0</speed>
				</extensions>
			</trkpt>
			<trkpt lat="53.26527694" lon="-8.92517499">
				<ele>72.0</ele>
				<time>2014-08-17T16:57:14Z</time>
				<extensions>
					<speed>0.0</speed>
				</extensions>
			</trkpt>
			<trkpt lat="53.26527696" lon="-8.92517489">
				<ele>72.0</ele>
				<time>2014-08-17T16:57:15Z</time>
				<extensions>
					<speed>0.0</speed>
				</extensions>
			</trkpt>
			<trkpt lat="53.26527661" lon="-8.92517565">
				<ele>72.0</ele>
				<time>2014-08-17T16:57:16Z</time>
				<extensions>
					<speed>0.5</speed>
				</extensions>
			</trkpt>
			<trkpt lat="53.26527257" lon="-8.92517222">
				<ele>72.0</ele>
				<time>2014-08-17T16:57:17Z</time>
				<extensions>
					<speed>0.0</speed>
				</extensions>
			</trkpt>
			<trkpt lat="53.26527493" lon="-8.9251774">
				<ele>71.0</ele>
				<time>2014-08-17T16:57:18Z</time>
				<extensions>
					<speed>0.0</speed>
				</extensions>
			</trkpt>
			<trkpt lat="53.26527176" lon="-8.92518033">
				<ele>71.0</ele>
				<time>2014-08-17T16:57:19Z</time>
				<extensions>
					<speed>0.0</speed>
				</extensions>
			</trkpt>
			<trkpt lat="53.26527399" lon="-8.92517916">
				<ele>71.0</ele>
				<time>2014-08-17T16:57:20Z</time>
				<extensions>
					<speed>2.0</speed>
				</extensions>
			</trkpt>
			<trkpt lat="53.26530439" lon="-8.92517158">
				<ele>70.0</ele>
				<time>2014-08-17T16:57:21Z</time>
				<extensions>
					<speed>2.25</speed>
				</extensions>
			</trkpt>
			<trkpt lat="53.26532127" lon="-8.92515858">
				<ele>70.0</ele>
				<time>2014-08-17T16:57:22Z</time>
				<extensions>
					<speed>2.0</speed>
				</extensions>
			</trkpt>
			<trkpt lat="53.26533549" lon="-8.92515445">
				<ele>70.0</ele>
				<time>2014-08-17T16:57:23Z</time>
				<extensions>
					<speed>1.25</speed>
				</extensions>
			</trkpt>
			<trkpt lat="53.26534724" lon="-8.92515028">
				<ele>68.0</ele>
				<time>2014-08-17T16:57:24Z</time>
				<extensions>
					<speed>0.5</speed>
				</extensions>
			</trkpt>
			<trkpt lat="53.26534776" lon="-8.92514898">
				<ele>68.0</ele>
				<time>2014-08-17T16:57:25Z</time>
				<extensions>
					<speed>0.25</speed>
				</extensions>
			</trkpt>
			<trkpt lat="53.26534631" lon="-8.92514713">
				<ele>68.0</ele>
				<time>2014-08-17T16:57:26Z</time>
				<extensions>
					<speed>0.0</speed>
				</extensions>
			</trkpt>
			<trkpt lat="53.26535061" lon="-8.92514825">
				<ele>67.0</ele>
				<time>2014-08-17T16:57:27Z</time>
				<extensions>
					<speed>0.0</speed>
				</extensions>
			</trkpt>
			<trkpt lat="53.26535315" lon="-8.92515103">
				<ele>67.0</ele>
				<time>2014-08-17T16:57:28Z</time>
				<extensions>
					<speed>0.0</speed>
				</extensions>
			</trkpt>
			<trkpt lat="53.26535158" lon="-8.92515015">
				<ele>67.0</ele>
				<time>2014-08-17T16:57:29Z</time>
				<extensions>
					<speed>0.0</speed>
				</extensions>
			</trkpt>
			<trkpt lat="53.2653496" lon="-8.92515147">
				<ele>67.0</ele>
				<time>2014-08-17T16:57:30Z</time>
				<extensions>
					<speed>0.0</speed>
				</extensions>
			</trkpt>
			<trkpt lat="53.26535255" lon="-8.92515197">
				<ele>67.0</ele>
				<time>2014-08-17T16:57:31Z</time>
				<extensions>
					<speed>0.0</speed>
				</extensions>
			</trkpt>
			<trkpt lat="53.26535316" lon="-8.92515298">
				<ele>68.0</ele>
				<time>2014-08-17T16:57:32Z</time>
				<extensions>
					<speed>0.0</speed>
				</extensions>
			</trkpt>
			<trkpt lat="53.26535437" lon="-8.92515512">
				<ele>68.0</ele>
				<time>2014-08-17T16:57:33Z</time>
				<extensions>
					<speed>0.0</speed>
				</extensions>
			</trkpt>
			<trkpt lat="53.26535543" lon="-8.9251544">
				<ele>68.0</ele>
				<time>2014-08-17T16:57:34Z</time>
				<extensions>
					<speed>0.0</speed>
				</extensions>
			</trkpt>
			<trkpt lat="53.26535425" lon="-8.92515287">
				<ele>68.0</ele>
				<time>2014-08-17T16:57:35Z</time>
				<extensions>
					<speed>0.0</speed>
				</extensions>
			</trkpt>
			<trkpt lat="53.26535384" lon="-8.92515287">
				<ele>68.0</ele>
				<time>2014-08-17T16:57:36Z</time>
				<extensions>
					<speed>0.0</speed>
				</extensions>
			</trkpt>
			<trkpt lat="53.26535399" lon="-8.92515271">
				<ele>68.0</ele>
				<time>2014-08-17T16:57:37Z</time>
				<extensions>
					<speed>0.0</speed>
				</extensions>
			</trkpt>
			<trkpt lat="53.26535445" lon="-8.92515235">
				<ele>68.0</ele>
				<time>2014-08-17T16:57:38Z</time>
				<extensions>
					<speed>0.5</speed>
				</extensions>
			</trkpt>
			<trkpt lat="53.26536312" lon="-8.92513726">
				<ele>68.0</ele>
				<time>2014-08-17T16:57:39Z</time>
				<extensions>
					<speed>2.0</speed>
				</extensions>
			</trkpt>
			<trkpt lat="53.26538555" lon="-8.92512307">
				<ele>68.0</ele>
				<time>2014-08-17T16:57:40Z</time>
				<extensions>
					<speed>2.75</speed>
				</extensions>
			</trkpt>
			<trkpt lat="53.26540967" lon="-8.92510885">
				<ele>67.0</ele>
				<time>2014-08-17T16:57:41Z</time>
				<extensions>
					<speed>3.75</speed>
				</extensions>
			</trkpt>
			<trkpt lat="53.26543772" lon="-8.92508628">
				<ele>67.0</ele>
				<time>2014-08-17T16:57:42Z</time>
				<extensions>
					<speed>3.5</speed>
				</extensions>
			</trkpt>
			<trkpt lat="53.2654695" lon="-8.92506269">
				<ele>66.0</ele>
				<time>2014-08-17T16:57:43Z</time>
				<extensions>
					<speed>3.5</speed>
				</extensions>
			</trkpt>
			<trkpt lat="53.2654922" lon="-8.92504674">
				<ele>66.0</ele>
				<time>2014-08-17T16:57:44Z</time>
				<extensions>
					<speed>2.75</speed>
				</extensions>
			</trkpt>
			<trkpt lat="53.26551296" lon="-8.92502617">
				<ele>65.0</ele>
				<time>2014-08-17T16:57:45Z</time>
				<extensions>
					<speed>2.25</speed>
				</extensions>
			</trkpt>
			<trkpt lat="53.26552782" lon="-8.9250154">
				<ele>65.0</ele>
				<time>2014-08-17T16:57:46Z</time>
				<extensions>
					<speed>1.5</speed>
				</extensions>
			</trkpt>
			<trkpt lat="53.26553969" lon="-8.9250045">
				<ele>65.0</ele>
				<time>2014-08-17T16:57:47Z</time>
				<extensions>
					<speed>1.5</speed>
				</extensions>
			</trkpt>
			<trkpt lat="53.26555673" lon="-8.9249934">
				<ele>65.0</ele>
				<time>2014-08-17T16:57:48Z</time>
				<extensions>
					<speed>2.25</speed>
				</extensions>
			</trkpt>
			<trkpt lat="53.26557616" lon="-8.92498443">
				<ele>65.0</ele>
				<time>2014-08-17T16:57:49Z</time>
				<extensions>
					<speed>2.25</speed>
				</extensions>
			</trkpt>
			<trkpt lat="53.26560032" lon="-8.92499842">
				<ele>65.0</ele>
				<time>2014-08-17T16:57:50Z</time>
				<extensions>
					<speed>3.0</speed>
				</extensions>
			</trkpt>
			<trkpt lat="53.26563089" lon="-8.92501723">
				<ele>65.0</ele>
				<time>2014-08-17T16:57:51Z</time>
				<extensions>
					<speed>3.25</speed>
				</extensions>
			</trkpt>
			<trkpt lat="53.26565361" lon="-8.92504863">
				<ele>65.0</ele>
				<time>2014-08-17T16:57:52Z</time>
				<extensions>
					<speed>3.5</speed>
				</extensions>
			</trkpt>
			<trkpt lat="53.26567506" lon="-8.92508805">
				<ele>65.0</ele>
				<time>2014-08-17T16:57:53Z</time>
				<extensions>
					<speed>3.5</speed>
				</extensions>
			</trkpt>
			<trkpt lat="53.26569651" lon="-8.92512747">
				<ele>66.0</ele>
				<time>2014-08-17T16:57:54Z</time>
				<extensions>
					<speed>3.5</speed>
				</extensions>
			</trkpt>
			<trkpt lat="53.26565893" lon="-8.92518666">
				<ele>66.0</ele>
				<time>2014-08-17T16:57:55Z</time>
				<extensions>
					<speed>3.5</speed>
				</extensions>
			</trkpt>
			<trkpt lat="53.2656467" lon="-8.92523462">
				<ele>65.0</ele>
				<time>2014-08-17T16:57:56Z</time>
				<extensions>
					<speed>4.0</speed>
				</extensions>
			</trkpt>
			<trkpt lat="53.26562805" lon="-8.92529731">
				<ele>64.0</ele>
				<time>2014-08-17T16:57:57Z</time>
				<extensions>
					<speed>4.5</speed>
				</extensions>
			</trkpt>
			<trkpt lat="53.26560626" lon="-8.92536602">
				<ele>64.0</ele>
				<time>2014-08-17T16:57:58Z</time>
				<extensions>
					<speed>5.0</speed>
				</extensions>
			</trkpt>
			<trkpt lat="53.2655905" lon="-8.92544096">
				<ele>64.0</ele>
				<time>2014-08-17T16:57:59Z</time>
				<extensions>
					<speed>5.0</speed>
				</extensions>
			</trkpt>
			<trkpt lat="53.26557264" lon="-8.92551332">
				<ele>63.0</ele>
				<time>2014-08-17T16:58:00Z</time>
				<extensions>
					<speed>4.75</speed>
				</extensions>
			</trkpt>
			<trkpt lat="53.26555369" lon="-8.92558027">
				<ele>63.0</ele>
				<time>2014-08-17T16:58:01Z</time>
				<extensions>
					<speed>4.5</speed>
				</extensions>
			</trkpt>
			<trkpt lat="53.26554117" lon="-8.92563479">
				<ele>63.0</ele>
				<time>2014-08-17T16:58:02Z</time>
				<extensions>
					<speed>3.75</speed>
				</extensions>
			</trkpt>
			<trkpt lat="53.26552955" lon="-8.92567961">
				<ele>63.0</ele>
				<time>2014-08-17T16:58:03Z</time>
				<extensions>
					<speed>3.0</speed>
				</extensions>
			</trkpt>
			<trkpt lat="53.26552022" lon="-8.92571592">
				<ele>63.0</ele>
				<time>2014-08-17T16:58:04Z</time>
				<extensions>
					<speed>2.25</speed>
				</extensions>
			</trkpt>
			<trkpt lat="53.26551266" lon="-8.92575253">
				<ele>63.0</ele>
				<time>2014-08-17T16:58:05Z</time>
				<extensions>
					<speed>2.0</speed>
				</extensions>
			</trkpt>
			<trkpt lat="53.2655062" lon="-8.92577479">
				<ele>63.0</ele>
				<time>2014-08-17T16:58:06Z</time>
				<extensions>
					<speed>2.0</speed>
				</extensions>
			</trkpt>
			<trkpt lat="53.26549894" lon="-8.9257996">
				<ele>63.0</ele>
				<time>2014-08-17T16:58:07Z</time>
				<extensions>
					<speed>1.5</speed>
				</extensions>
			</trkpt>
			<trkpt lat="53.26549881" lon="-8.92581836">
				<ele>63.0</ele>
				<time>2014-08-17T16:58:08Z</time>
				<extensions>
					<speed>1.0</speed>
				</extensions>
			</trkpt>
			<trkpt lat="53.26550333" lon="-8.92582977">
				<ele>64.0</ele>
				<time>2014-08-17T16:58:09Z</time>
				<extensions>
					<speed>0.0</speed>
				</extensions>
			</trkpt>
			<trkpt lat="53.26550283" lon="-8.92583001">
				<ele>64.0</ele>
				<time>2014-08-17T16:58:10Z</time>
				<extensions>
					<speed>0.5</speed>
				</extensions>
			</trkpt>
			<trkpt lat="53.26550107" lon="-8.92583612">
				<ele>64.0</ele>
				<time>2014-08-17T16:58:11Z</time>
				<extensions>
					<speed>0.0</speed>
				</extensions>
			</trkpt>
			<trkpt lat="53.26550107" lon="-8.92583612">
				<ele>64.0</ele>
				<time>2014-08-17T16:58:12Z</time>
				<extensions>
					<speed>0.0</speed>
				</extensions>
			</trkpt>
			<trkpt lat="53.26550145" lon="-8.92584043">
				<ele>64.0</ele>
				<time>2014-08-17T16:58:13Z</time>
				<extensions>
					<speed>0.0</speed>
				</extensions>
			</trkpt>
			<trkpt lat="53.26549976" lon="-8.92584009">
				<ele>64.0</ele>
				<time>2014-08-17T16:58:14Z</time>
				<extensions>
					<speed>0.0</speed>
				</extensions>
			</trkpt>
			<trkpt lat="53.26549976" lon="-8.92584009">
				<ele>64.0</ele>
				<time>2014-08-17T16:58:15Z</time>
				<extensions>
					<speed>0.0</speed>
				</extensions>
			</trkpt>
			<trkpt lat="53.26550069" lon="-8.92584063">
				<ele>64.0</ele>
				<time>2014-08-17T16:58:16Z</time>
				<extensions>
					<speed>0.0</speed>
				</extensions>
			</trkpt>
			<trkpt lat="53.26549991" lon="-8.92583879">
				<ele>64.0</ele>
				<time>2014-08-17T16:58:17Z</time>
				<extensions>
					<speed>0.0</speed>
				</extensions>
			</trkpt>
			<trkpt lat="53.26549991" lon="-8.92583879">
				<ele>64.0</ele>
				<time>2014-08-17T16:58:18Z</time>
				<extensions>
					<speed>0.0</speed>
				</extensions>
			</trkpt>
			<trkpt lat="53.26549933" lon="-8.92583865">
				<ele>65.0</ele>
				<time>2014-08-17T16:58:19Z</time>
				<extensions>
					<speed>0.0</speed>
				</extensions>
			</trkpt>
			<trkpt lat="53.26549979" lon="-8.92583341">
				<ele>66.0</ele>
				<time>2014-08-17T16:58:20Z</time>
				<extensions>
					<speed>0.0</speed>
				</extensions>
			</trkpt>
			<trkpt lat="53.26550012" lon="-8.92583261">
				<ele>65.0</ele>
				<time>2014-08-17T16:58:21Z</time>
				<extensions>
					<speed>0.0</speed>
				</extensions>
			</trkpt>
			<trkpt lat="53.26550054" lon="-8.92583263">
				<ele>66.0</ele>
				<time>2014-08-17T16:58:22Z</time>
				<extensions>
					<speed>0.0</speed>
				</extensions>
			</trkpt>
			<trkpt lat="53.26550034" lon="-8.9258327">
				<ele>66.0</ele>
				<time>2014-08-17T16:58:23Z</time>
				<extensions>
					<speed>0.0</speed>
				</extensions>
			</trkpt>
			<trkpt lat="53.26550042" lon="-8.92583258">
				<ele>66.0</ele>
				<time>2014-08-17T16:58:24Z</time>
				<extensions>
					<speed>0.0</speed>
				</extensions>
			</trkpt>
			<trkpt lat="53.2655004" lon="-8.92583268">
				<ele>66.0</ele>
				<time>2014-08-17T16:58:25Z</time>
				<extensions>
					<speed>0.0</speed>
				</extensions>
			</trkpt>
			<trkpt lat="53.2655004" lon="-8.92583268">
				<ele>66.0</ele>
				<time>2014-08-17T16:58:26Z</time>
				<extensions>
					<speed>0.0</speed>
				</extensions>
			</trkpt>
			<trkpt lat="53.2655004" lon="-8.92583268">
				<ele>66.0</ele>
				<time>2014-08-17T16:58:27Z</time>
				<extensions>
					<speed>0.0</speed>
				</extensions>
			</trkpt>
			<trkpt lat="53.26550263" lon="-8.92584206">
				<ele>65.0</ele>
				<time>2014-08-17T16:58:28Z</time>
				<extensions>
					<speed>3.25</speed>
				</extensions>
			</trkpt>
			<trkpt lat="53.26550481" lon="-8.9258925">
				<ele>65.0</ele>
				<time>2014-08-17T16:58:29Z</time>
				<extensions>
					<speed>3.25</speed>
				</extensions>
			</trkpt>
			<trkpt lat="53.26552419" lon="-8.92592527">
				<ele>65.0</ele>
				<time>2014-08-17T16:58:30Z</time>
				<extensions>
					<speed>2.5</speed>
				</extensions>
			</trkpt>
			<trkpt lat="53.26553857" lon="-8.9259231">
				<ele>64.0</ele>
				<time>2014-08-17T16:58:31Z</time>
				<extensions>
					<speed>1.25</speed>
				</extensions>
			</trkpt>
			<trkpt lat="53.26554021" lon="-8.92592961">
				<ele>64.0</ele>
				<time>2014-08-17T16:58:32Z</time>
				<extensions>
					<speed>0.0</speed>
				</extensions>
			</trkpt>
			<trkpt lat="53.26554167" lon="-8.92593682">
				<ele>66.0</ele>
				<time>2014-08-17T16:58:33Z</time>
				<extensions>
					<speed>0.0</speed>
				</extensions>
			</trkpt>
			<trkpt lat="53.26553964" lon="-8.92593493">
				<ele>66.0</ele>
				<time>2014-08-17T16:58:34Z</time>
				<extensions>
					<speed>1.75</speed>
				</extensions>
			</trkpt>
			<trkpt lat="53.26552216" lon="-8.92592551">
				<ele>66.0</ele>
				<time>2014-08-17T16:58:35Z</time>
				<extensions>
					<speed>1.75</speed>
				</extensions>
			</trkpt>
			<trkpt lat="53.26550631" lon="-8.92591789">
				<ele>66.0</ele>
				<time>2014-08-17T16:58:36Z</time>
				<extensions>
					<speed>1.5</speed>
				</extensions>
			</trkpt>
			<trkpt lat="53.26549564" lon="-8.92591678">
				<ele>65.0</ele>
				<time>2014-08-17T16:58:37Z</time>
				<extensions>
					<speed>1.0</speed>
				</extensions>
			</trkpt>
			<trkpt lat="53.26548358" lon="-8.92592311">
				<ele>64.0</ele>
				<time>2014-08-17T16:58:38Z</time>
				<extensions>
					<speed>0.75</speed>
				</extensions>
			</trkpt>
			<trkpt lat="53.26547594" lon="-8.92592844">
				<ele>64.0</ele>
				<time>2014-08-17T16:58:39Z</time>
				<extensions>
					<speed>0.5</speed>
				</extensions>
			</trkpt>
			<trkpt lat="53.26547298" lon="-8.92593241">
				<ele>64.0</ele>
				<time>2014-08-17T16:58:40Z</time>
				<extensions>
					<speed>0.0</speed>
				</extensions>
			</trkpt>
			<trkpt lat="53.26547385" lon="-8.92593283">
				<ele>64.0</ele>
				<time>2014-08-17T16:58:41Z</time>
				<extensions>
					<speed>0.0</speed>
				</extensions>
			</trkpt>
			<trkpt lat="53.26547346" lon="-8.92593192">
				<ele>64.0</ele>
				<time>2014-08-17T16:58:42Z</time>
				<extensions>
					<speed>0.0</speed>
				</extensions>
			</trkpt>
			<trkpt lat="53.26547099" lon="-8.92593465">
				<ele>64.0</ele>
				<time>2014-08-17T16:58:43Z</time>
				<extensions>
					<speed>0.0</speed>
				</extensions>
			</trkpt>
			<trkpt lat="53.26547145" lon="-8.92593787">
				<ele>64.0</ele>
				<time>2014-08-17T16:58:44Z</time>
				<extensions>
					<speed>0.0</speed>
				</extensions>
			</trkpt>
			<trkpt lat="53.26546986" lon="-8.92594048">
				<ele>64.0</ele>
				<time>2014-08-17T16:58:45Z</time>
				<extensions>
					<speed>0.0</speed>
				</extensions>
			</trkpt>
			<trkpt lat="53.26547176" lon="-8.92593748">
				<ele>64.0</ele>
				<time>2014-08-17T16:58:46Z</time>
				<extensions>
					<speed>2.0</speed>
				</extensions>
			</trkpt>
			<trkpt lat="53.26548628" lon="-8.92590655">
				<ele>64.0</ele>
				<time>2014-08-17T16:58:47Z</time>
				<extensions>
					<speed>2.75</speed>
				</extensions>
			</trkpt>
			<trkpt lat="53.26550045" lon="-8.92586384">
				<ele>64.0</ele>
				<time>2014-08-17T16:58:48Z</time>
				<extensions>
					<speed>3.75</speed>
				</extensions>
			</trkpt>
			<trkpt lat="53.26551962" lon="-8.92581037">
				<ele>64.0</ele>
				<time>2014-08-17T16:58:49Z</time>
				<extensions>
					<speed>4.0</speed>
				</extensions>
			</trkpt>
			<trkpt lat="53.26553785" lon="-8.9257506">
				<ele>64.0</ele>
				<time>2014-08-17T16:58:50Z</time>
				<extensions>
					<speed>4.75</speed>
				</extensions>
			</trkpt>
			<trkpt lat="53.26555822" lon="-8.92567282">
				<ele>63.0</ele>
				<time>2014-08-17T16:58:51Z</time>
				<extensions>
					<speed>5.75</speed>
				</extensions>
			</trkpt>
			<trkpt lat="53.2655761" lon="-8.92559502">
				<ele>63.0</ele>
				<time>2014-08-17T16:58:52Z</time>
				<extensions>
					<speed>5.75</speed>
				</extensions>
			</trkpt>
			<trkpt lat="53.26559017" lon="-8.925518">
				<ele>63.0</ele>
				<time>2014-08-17T16:58:53Z</time>
				<extensions>
					<speed>5.75</speed>
				</extensions>
			</trkpt>
			<trkpt lat="53.26561059" lon="-8.92543704">
				<ele>62.0</ele>
				<time>2014-08-17T16:58:54Z</time>
				<extensions>
					<speed>5.75</speed>
				</extensions>
			</trkpt>
			<trkpt lat="53.26562984" lon="-8.92535927">
				<ele>63.0</ele>
				<time>2014-08-17T16:58:55Z</time>
				<extensions>
					<speed>5.25</speed>
				</extensions>
			</trkpt>
			<trkpt lat="53.2656489" lon="-8.92529101">
				<ele>62.0</ele>
				<time>2014-08-17T16:58:56Z</time>
				<extensions>
					<speed>4.75</speed>
				</extensions>
			</trkpt>
			<trkpt lat="53.26566361" lon="-8.92522401">
				<ele>63.0</ele>
				<time>2014-08-17T16:58:57Z</time>
				<extensions>
					<speed>4.25</speed>
				</extensions>
			</trkpt>
			<trkpt lat="53.26568056" lon="-8.92517562">
				<ele>62.0</ele>
				<time>2014-08-17T16:58:58Z</time>
				<extensions>
					<speed>3.0</speed>
				</extensions>
			</trkpt>
			<trkpt lat="53.26569787" lon="-8.92514609">
				<ele>63.0</ele>
				<time>2014-08-17T16:58:59Z</time>
				<extensions>
					<speed>1.5</speed>
				</extensions>
			</trkpt>
			<trkpt lat="53.26570169" lon="-8.92514263">
				<ele>62.0</ele>
				<time>2014-08-17T16:59:00Z</time>
				<extensions>
					<speed>0.25</speed>
				</extensions>
			</trkpt>
			<trkpt lat="53.26570224" lon="-8.92512728">
				<ele>63.0</ele>
				<time>2014-08-17T16:59:01Z</time>
				<extensions>
					<speed>0.0</speed>
				</extensions>
			</trkpt>
			<trkpt lat="53.26570187" lon="-8.92512191">
				<ele>63.0</ele>
				<time>2014-08-17T16:59:02Z</time>
				<extensions>
					<speed>0.0</speed>
				</extensions>
			</trkpt>
			<trkpt lat="53.26570338" lon="-8.92512781">
				<ele>62.0</ele>
				<time>2014-08-17T16:59:03Z</time>
				<extensions>
					<speed>0.0</speed>
				</extensions>
			</trkpt>
			<trkpt lat="53.26569979" lon="-8.92512621">
				<ele>62.0</ele>
				<time>2014-08-17T16:59:04Z</time>
				<extensions>
					<speed>0.0</speed>
				</extensions>
			</trkpt>
			<trkpt lat="53.26569528" lon="-8.92512288">
				<ele>61.0</ele>
				<time>2014-08-17T16:59:05Z</time>
				<extensions>
					<speed>0.0</speed>
				</extensions>
			</trkpt>
			<trkpt lat="53.26569414" lon="-8.92512259">
				<ele>61.0</ele>
				<time>2014-08-17T16:59:06Z</time>
				<extensions>
					<speed>0.0</speed>
				</extensions>
			</trkpt>
			<trkpt lat="53.2656903" lon="-8.9251286">
				<ele>61.0</ele>
				<time>2014-08-17T16:59:07Z</time>
				<extensions>
					<speed>0.0</speed>
				</extensions>
			</trkpt>
			<trkpt lat="53.26568803" lon="-8.92513128">
				<ele>61.0</ele>
				<time>2014-08-17T16:59:08Z</time>
				<extensions>
					<speed>0.0</speed>
				</extensions>
			</trkpt>
			<trkpt lat="53.26568718" lon="-8.92512797">
				<ele>61.0</ele>
				<time>2014-08-17T16:59:09Z</time>
				<extensions>
					<speed>0.0</speed>
				</extensions>
			</trkpt>
			<trkpt lat="53.26568801" lon="-8.92513377">
				<ele>60.0</ele>
				<time>2014-08-17T16:59:10Z</time>
				<extensions>
					<speed>0.0</speed>
				</extensions>
			</trkpt>
			<trkpt lat="53.26568511" lon="-8.92513675">
				<ele>60.0</ele>
				<time>2014-08-17T16:59:11Z</time>
				<extensions>
					<speed>0.0</speed>
				</extensions>
			</trkpt>
			<trkpt lat="53.26568457" lon="-8.92513619">
				<ele>60.0</ele>
				<time>2014-08-17T16:59:12Z</time>
				<extensions>
					<speed>0.0</speed>
				</extensions>
			</trkpt>
			<trkpt lat="53.26568454" lon="-8.92513621">
				<ele>60.0</ele>
				<time>2014-08-17T16:59:13Z</time>
				<extensions>
					<speed>0.0</speed>
				</extensions>
			</trkpt>
			<trkpt lat="53.26568459" lon="-8.92513629">
				<ele>60.0</ele>
				<time>2014-08-17T16:59:14Z</time>
				<extensions>
					<speed>0.0</speed>
				</extensions>
			</trkpt>
			<trkpt lat="53.26568459" lon="-8.92513618">
				<ele>60.0</ele>
				<time>2014-08-17T16:59:15Z</time>
				<extensions>
					<speed>0.0</speed>
				</extensions>
			</trkpt>
			<trkpt lat="53.26568457" lon="-8.92513613">
				<ele>60.0</ele>
				<time>2014-08-17T16:59:16Z</time>
				<extensions>
					<speed>0.0</speed>
				</extensions>
			</trkpt>
			<trkpt lat="53.26568458" lon="-8.92513613">
				<ele>60.0</ele>
				<time>2014-08-17T16:59:17Z</time>
				<extensions>
					<speed>0.0</speed>
				</extensions>
			</trkpt>
			<trkpt lat="53.26568434" lon="-8.92513585">
				<ele>60.0</ele>
				<time>2014-08-17T16:59:18Z</time>
				<extensions>
					<speed>0.0</speed>
				</extensions>
			</trkpt>
			<trkpt lat="53.26568503" lon="-8.9251347">
				<ele>60.0</ele>
				<time>2014-08-17T16:59:19Z</time>
				<extensions>
					<speed>0.75</speed>
				</extensions>
			</trkpt>
			<trkpt lat="53.26569443" lon="-8.92512443">
				<ele>60.0</ele>
				<time>2014-08-17T16:59:20Z</time>
				<extensions>
					<speed>2.25</speed>
				</extensions>
			</trkpt>
			<trkpt lat="53.26572547" lon="-8.92511829">
				<ele>59.0</ele>
				<time>2014-08-17T16:59:21Z</time>
				<extensions>
					<speed>3.75</speed>
				</extensions>
			</trkpt>
			<trkpt lat="53.26576066" lon="-8.92512574">
				<ele>60.0</ele>
				<time>2014-08-17T16:59:22Z</time>
				<extensions>
					<speed>4.25</speed>
				</extensions>
			</trkpt>
			<trkpt lat="53.26579698" lon="-8.92514481">
				<ele>60.0</ele>
				<time>2014-08-17T16:59:23Z</time>
				<extensions>
					<speed>4.25</speed>
				</extensions>
			</trkpt>
			<trkpt lat="53.26582844" lon="-8.92516271">
				<ele>60.0</ele>
				<time>2014-08-17T16:59:24Z</time>
				<extensions>
					<speed>4.0</speed>
				</extensions>
			</trkpt>
			<trkpt lat="53.26586391" lon="-8.92518309">
				<ele>60.0</ele>
				<time>2014-08-17T16:59:25Z</time>
				<extensions>
					<speed>4.0</speed>
				</extensions>
			</trkpt>
			<trkpt lat="53.26589635" lon="-8.92520131">
				<ele>60.0</ele>
				<time>2014-08-17T16:59:26Z</time>
				<extensions>
					<speed>3.75</speed>
				</extensions>
			</trkpt>
			<trkpt lat="53.26592797" lon="-8.92521739">
				<ele>61.0</ele>
				<time>2014-08-17T16:59:27Z</time>
				<extensions>
					<speed>3.75</speed>
				</extensions>
			</trkpt>
			<trkpt lat="53.26594771" lon="-8.92524217">
				<ele>61.0</ele>
				<time>2014-08-17T16:59:28Z</time>
				<extensions>
					<speed>3.0</speed>
				</extensions>
			</trkpt>
			<trkpt lat="53.26596145" lon="-8.92527484">
				<ele>61.0</ele>
				<time>2014-08-17T16:59:29Z</time>
				<extensions>
					<speed>3.0</speed>
				</extensions>
			</trkpt>
			<trkpt lat="53.26597067" lon="-8.92531364">
				<ele>61.0</ele>
				<time>2014-08-17T16:59:30Z</time>
				<extensions>
					<speed>2.5</speed>
				</extensions>
			</trkpt>
			<trkpt lat="53.26597814" lon="-8.92535331">
				<ele>60.0</ele>
				<time>2014-08-17T16:59:31Z</time>
				<extensions>
					<speed>2.5</speed>
				</extensions>
			</trkpt>
			<trkpt lat="53.26597346" lon="-8.9253902">
				<ele>61.0</ele>
				<time>2014-08-17T16:59:32Z</time>
				<extensions>
					<speed>2.25</speed>
				</extensions>
			</trkpt>
			<trkpt lat="53.26596724" lon="-8.92542268">
				<ele>60.0</ele>
				<time>2014-08-17T16:59:33Z</time>
				<extensions>
					<speed>2.0</speed>
				</extensions>
			</trkpt>
			<trkpt lat="53.26596327" lon="-8.92544923">
				<ele>60.0</ele>
				<time>2014-08-17T16:59:34Z</time>
				<extensions>
					<speed>1.5</speed>
				</extensions>
			</trkpt>
			<trkpt lat="53.26595829" lon="-8.92547061">
				<ele>61.0</ele>
				<time>2014-08-17T16:59:35Z</time>
				<extensions>
					<speed>1.5</speed>
				</extensions>
			</trkpt>
			<trkpt lat="53.26596031" lon="-8.92547927">
				<ele>61.0</ele>
				<time>2014-08-17T16:59:36Z</time>
				<extensions>
					<speed>0.75</speed>
				</extensions>
			</trkpt>
			<trkpt lat="53.26595957" lon="-8.92549191">
				<ele>61.0</ele>
				<time>2014-08-17T16:59:37Z</time>
				<extensions>
					<speed>0.0</speed>
				</extensions>
			</trkpt>
			<trkpt lat="53.26595758" lon="-8.92549523">
				<ele>61.0</ele>
				<time>2014-08-17T16:59:38Z</time>
				<extensions>
					<speed>0.0</speed>
				</extensions>
			</trkpt>
			<trkpt lat="53.26595948" lon="-8.9254996">
				<ele>61.0</ele>
				<time>2014-08-17T16:59:39Z</time>
				<extensions>
					<speed>0.0</speed>
				</extensions>
			</trkpt>
			<trkpt lat="53.26595834" lon="-8.92550259">
				<ele>61.0</ele>
				<time>2014-08-17T16:59:40Z</time>
				<extensions>
					<speed>0.0</speed>
				</extensions>
			</trkpt>
			<trkpt lat="53.26595834" lon="-8.92550259">
				<ele>61.0</ele>
				<time>2014-08-17T16:59:41Z</time>
				<extensions>
					<speed>0.0</speed>
				</extensions>
			</trkpt>
			<trkpt lat="53.26595527" lon="-8.92550352">
				<ele>61.0</ele>
				<time>2014-08-17T16:59:42Z</time>
				<extensions>
					<speed>1.0</speed>
				</extensions>
			</trkpt>
			<trkpt lat="53.26595055" lon="-8.92552646">
				<ele>62.0</ele>
				<time>2014-08-17T16:59:43Z</time>
				<extensions>
					<speed>1.25</speed>
				</extensions>
			</trkpt>
			<trkpt lat="53.26594692" lon="-8.92554448">
				<ele>62.0</ele>
				<time>2014-08-17T16:59:44Z</time>
				<extensions>
					<speed>1.5</speed>
				</extensions>
			</trkpt>
			<trkpt lat="53.265937" lon="-8.92556656">
				<ele>62.0</ele>
				<time>2014-08-17T16:59:45Z</time>
				<extensions>
					<speed>1.5</speed>
				</extensions>
			</trkpt>
			<trkpt lat="53.26593396" lon="-8.92556877">
				<ele>62.0</ele>
				<time>2014-08-17T16:59:46Z</time>
				<extensions>
					<speed>1.25</speed>
				</extensions>
			</trkpt>
			<trkpt lat="53.26593032" lon="-8.92558623">
				<ele>62.0</ele>
				<time>2014-08-17T16:59:47Z</time>
				<extensions>
					<speed>0.75</speed>
				</extensions>
			</trkpt>
			<trkpt lat="53.2659308" lon="-8.92559102">
				<ele>62.0</ele>
				<time>2014-08-17T16:59:48Z</time>
				<extensions>
					<speed>0.0</speed>
				</extensions>
			</trkpt>
			<trkpt lat="53.26592979" lon="-8.92560112">
				<ele>62.0</ele>
				<time>2014-08-17T16:59:49Z</time>
				<extensions>
					<speed>0.0</speed>
				</extensions>
			</trkpt>
			<trkpt lat="53.26593107" lon="-8.92559957">
				<ele>62.0</ele>
				<time>2014-08-17T16:59:50Z</time>
				<extensions>
					<speed>0.0</speed>
				</extensions>
			</trkpt>
			<trkpt lat="53.26592872" lon="-8.92559991">
				<ele>62.0</ele>
				<time>2014-08-17T16:59:51Z</time>
				<extensions>
					<speed>0.0</speed>
				</extensions>
			</trkpt>
			<trkpt lat="53.26592888" lon="-8.92559465">
				<ele>63.0</ele>
				<time>2014-08-17T16:59:52Z</time>
				<extensions>
					<speed>0.0</speed>
				</extensions>
			</trkpt>
			<trkpt lat="53.26592858" lon="-8.92559426">
				<ele>63.0</ele>
				<time>2014-08-17T16:59:53Z</time>
				<extensions>
					<speed>0.25</speed>
				</extensions>
			</trkpt>
			<trkpt lat="53.2659264" lon="-8.92559139">
				<ele>63.0</ele>
				<time>2014-08-17T16:59:54Z</time>
				<extensions>
					<speed>0.25</speed>
				</extensions>
			</trkpt>
			<trkpt lat="53.26592533" lon="-8.92559474">
				<ele>63.0</ele>
				<time>2014-08-17T16:59:55Z</time>
				<extensions>
					<speed>0.0</speed>
				</extensions>
			</trkpt>
			<trkpt lat="53.26592579" lon="-8.92559375">
				<ele>63.0</ele>
				<time>2014-08-17T16:59:56Z</time>
				<extensions>
					<speed>0.0</speed>
				</extensions>
			</trkpt>
			<trkpt lat="53.26592855" lon="-8.92559644">
				<ele>63.0</ele>
				<time>2014-08-17T16:59:57Z</time>
				<extensions>
					<speed>0.0</speed>
				</extensions>
			</trkpt>
			<trkpt lat="53.26592855" lon="-8.92559644">
				<ele>63.0</ele>
				<time>2014-08-17T16:59:58Z</time>
				<extensions>
					<speed>0.0</speed>
				</extensions>
			</trkpt>
			<trkpt lat="53.2659276" lon="-8.92559284">
				<ele>63.0</ele>
				<time>2014-08-17T16:59:59Z</time>
				<extensions>
					<speed>0.0</speed>
				</extensions>
			</trkpt>
			<trkpt lat="53.2659276" lon="-8.92559284">
				<ele>63.0</ele>
				<time>2014-08-17T17:00:00Z</time>
				<extensions>
					<speed>0.0</speed>
				</extensions>
			</trkpt>
			<trkpt lat="53.26592766" lon="-8.92559386">
				<ele>64.0</ele>
				<time>2014-08-17T17:00:01Z</time>
				<extensions>
					<speed>0.0</speed>
				</extensions>
			</trkpt>
			<trkpt lat="53.26592667" lon="-8.92559463">
				<ele>63.0</ele>
				<time>2014-08-17T17:00:02Z</time>
				<extensions>
					<speed>0.0</speed>
				</extensions>
			</trkpt>
			<trkpt lat="53.26592667" lon="-8.92559463">
				<ele>63.0</ele>
				<time>2014-08-17T17:00:03Z</time>
				<extensions>
					<speed>0.0</speed>
				</extensions>
			</trkpt>
			<trkpt lat="53.26592667" lon="-8.92559463">
				<ele>63.0</ele>
				<time>2014-08-17T17:00:04Z</time>
				<extensions>
					<speed>0.0</speed>
				</extensions>
			</trkpt>
			<trkpt lat="53.26592632" lon="-8.92559944">
				<ele>64.0</ele>
				<time>2014-08-17T17:00:05Z</time>
				<extensions>
					<speed>2.0</speed>
				</extensions>
			</trkpt>
			<trkpt lat="53.26590989" lon="-8.9256187">
				<ele>64.0</ele>
				<time>2014-08-17T17:00:06Z</time>
				<extensions>
					<speed>2.25</speed>
				</extensions>
			</trkpt>
			<trkpt lat="53.26587959" lon="-8.92563059">
				<ele>63.0</ele>
				<time>2014-08-17T17:00:07Z</time>
				<extensions>
					<speed>2.25</speed>
				</extensions>
			</trkpt>
			<trkpt lat="53.26586364" lon="-8.92563563">
				<ele>64.0</ele>
				<time>2014-08-17T17:00:08Z</time>
				<extensions>
					<speed>1.5</speed>
				</extensions>
			</trkpt>
			<trkpt lat="53.26585243" lon="-8.92562941">
				<ele>64.0</ele>
				<time>2014-08-17T17:00:09Z</time>
				<extensions>
					<speed>0.75</speed>
				</extensions>
			</trkpt>
			<trkpt lat="53.2658471" lon="-8.92562281">
				<ele>64.0</ele>
				<time>2014-08-17T17:00:10Z</time>
				<extensions>
					<speed>0.75</speed>
				</extensions>
			</trkpt>
			<trkpt lat="53.26585213" lon="-8.92562574">
				<ele>65.0</ele>
				<time>2014-08-17T17:00:11Z</time>
				<extensions>
					<speed>0.0</speed>
				</extensions>
			</trkpt>
			<trkpt lat="53.26585213" lon="-8.92562574">
				<ele>65.0</ele>
				<time>2014-08-17T17:00:12Z</time>
				<extensions>
					<speed>0.0</speed>
				</extensions>
			</trkpt>
			<trkpt lat="53.2658492" lon="-8.92562296">
				<ele>65.0</ele>
				<time>2014-08-17T17:00:13Z</time>
				<extensions>
					<speed>0.0</speed>
				</extensions>
			</trkpt>
			<trkpt lat="53.2658492" lon="-8.92562296">
				<ele>65.0</ele>
				<time>2014-08-17T17:00:14Z</time>
				<extensions>
					<speed>0.0</speed>
				</extensions>
			</trkpt>
			<trkpt lat="53.26585992" lon="-8.92562533">
				<ele>67.0</ele>
				<time>2014-08-17T17:00:15Z</time>
				<extensions>
					<speed>0.75</speed>
				</extensions>
			</trkpt>
			<trkpt lat="53.26587601" lon="-8.9256394">
				<ele>67.0</ele>
				<time>2014-08-17T17:00:16Z</time>
				<extensions>
					<speed>1.25</speed>
				</extensions>
			</trkpt>
			<trkpt lat="53.26589043" lon="-8.9256613">
				<ele>67.0</ele>
				<time>2014-08-17T17:00:17Z</time>
				<extensions>
					<speed>1.75</speed>
				</extensions>
			</trkpt>
			<trkpt lat="53.26589677" lon="-8.92566543">
				<ele>65.0</ele>
				<time>2014-08-17T17:00:18Z</time>
				<extensions>
					<speed>1.5</speed>
				</extensions>
			</trkpt>
			<trkpt lat="53.26589816" lon="-8.92567252">
				<ele>65.0</ele>
				<time>2014-08-17T17:00:19Z</time>
				<extensions>
					<speed>0.5</speed>
				</extensions>
			</trkpt>
			<trkpt lat="53.26589887" lon="-8.92567553">
				<ele>64.0</ele>
				<time>2014-08-17T17:00:20Z</time>
				<extensions>
					<speed>0.25</speed>
				</extensions>
			</trkpt>
			<trkpt lat="53.26590131" lon="-8.92566572">
				<ele>64.0</ele>
				<time>2014-08-17T17:00:21Z</time>
				<extensions>
					<speed>1.5</speed>
				</extensions>
			</trkpt>
			<trkpt lat="53.26590787" lon="-8.92563695">
				<ele>64.0</ele>
				<time>2014-08-17T17:00:22Z</time>
				<extensions>
					<speed>2.75</speed>
				</extensions>
			</trkpt>
			<trkpt lat="53.2659174" lon="-8.92558863">
				<ele>65.0</ele>
				<time>2014-08-17T17:00:23Z</time>
				<extensions>
					<speed>3.25</speed>
				</extensions>
			</trkpt>
			<trkpt lat="53.26593057" lon="-8.92553685">
				<ele>64.0</ele>
				<time>2014-08-17T17:00:24Z</time>
				<extensions>
					<speed>3.75</speed>
				</extensions>
			</trkpt>
			<trkpt lat="53.26594262" lon="-8.92549589">
				<ele>64.0</ele>
				<time>2014-08-17T17:00:25Z</time>
				<extensions>
					<speed>3.0</speed>
				</extensions>
			</trkpt>
			<trkpt lat="53.2659547" lon="-8.92545215">
				<ele>64.0</ele>
				<time>2014-08-17T17:00:26Z</time>
				<extensions>
					<speed>3.25</speed>
				</extensions>
			</trkpt>
			<trkpt lat="53.26596537" lon="-8.9254106">
				<ele>64.0</ele>
				<time>2014-08-17T17:00:27Z</time>
				<extensions>
					<speed>3.0</speed>
				</extensions>
			</trkpt>
			<trkpt lat="53.26597156" lon="-8.92537136">
				<ele>64.0</ele>
				<time>2014-08-17T17:00:28Z</time>
				<extensions>
					<speed>2.75</speed>
				</extensions>
			</trkpt>
			<trkpt lat="53.26596889" lon="-8.92533456">
				<ele>64.0</ele>
				<time>2014-08-17T17:00:29Z</time>
				<extensions>
					<speed>2.75</speed>
				</extensions>
			</trkpt>
			<trkpt lat="53.26595124" lon="-8.92529842">
				<ele>64.0</ele>
				<time>2014-08-17T17:00:30Z</time>
				<extensions>
					<speed>3.25</speed>
				</extensions>
			</trkpt>
			<trkpt lat="53.26592754" lon="-8.92526611">
				<ele>64.0</ele>
				<time>2014-08-17T17:00:31Z</time>
				<extensions>
					<speed>3.75</speed>
				</extensions>
			</trkpt>
			<trkpt lat="53.26589324" lon="-8.92523445">
				<ele>64.0</ele>
				<time>2014-08-17T17:00:32Z</time>
				<extensions>
					<speed>4.75</speed>
				</extensions>
			</trkpt>
			<trkpt lat="53.26585628" lon="-8.92519846">
				<ele>64.0</ele>
				<time>2014-08-17T17:00:33Z</time>
				<extensions>
					<speed>4.75</speed>
				</extensions>
			</trkpt>
			<trkpt lat="53.26581907" lon="-8.92517054">
				<ele>64.0</ele>
				<time>2014-08-17T17:00:34Z</time>
				<extensions>
					<speed>4.5</speed>
				</extensions>
			</trkpt>
			<trkpt lat="53.26578195" lon="-8.92514012">
				<ele>64.0</ele>
				<time>2014-08-17T17:00:35Z</time>
				<extensions>
					<speed>4.5</speed>
				</extensions>
			</trkpt>
			<trkpt lat="53.26574483" lon="-8.92510971">
				<ele>65.0</ele>
				<time>2014-08-17T17:00:36Z</time>
				<extensions>
					<speed>4.5</speed>
				</extensions>
			</trkpt>
			<trkpt lat="53.26573358" lon="-8.92508331">
				<ele>63.0</ele>
				<time>2014-08-17T17:00:37Z</time>
				<extensions>
					<speed>3.25</speed>
				</extensions>
			</trkpt>
			<trkpt lat="53.2657103" lon="-8.92506819">
				<ele>62.0</ele>
				<time>2014-08-17T17:00:38Z</time>
				<extensions>
					<speed>2.75</speed>
				</extensions>
			</trkpt>
			<trkpt lat="53.26569029" lon="-8.92505776">
				<ele>62.0</ele>
				<time>2014-08-17T17:00:39Z</time>
				<extensions>
					<speed>2.5</speed>
				</extensions>
			</trkpt>
			<trkpt lat="53.26567238" lon="-8.92504941">
				<ele>62.0</ele>
				<time>2014-08-17T17:00:40Z</time>
				<extensions>
					<speed>2.25</speed>
				</extensions>
			</trkpt>
			<trkpt lat="53.26565218" lon="-8.92503241">
				<ele>62.0</ele>
				<time>2014-08-17T17:00:41Z</time>
				<extensions>
					<speed>2.25</speed>
				</extensions>
			</trkpt>
			<trkpt lat="53.26563319" lon="-8.92501009">
				<ele>63.0</ele>
				<time>2014-08-17T17:00:42Z</time>
				<extensions>
					<speed>2.25</speed>
				</extensions>
			</trkpt>
			<trkpt lat="53.26562681" lon="-8.92498874">
				<ele>63.0</ele>
				<time>2014-08-17T17:00:43Z</time>
				<extensions>
					<speed>2.25</speed>
				</extensions>
			</trkpt>
			<trkpt lat="53.26562573" lon="-8.92495462">
				<ele>63.0</ele>
				<time>2014-08-17T17:00:44Z</time>
				<extensions>
					<speed>2.75</speed>
				</extensions>
			</trkpt>
			<trkpt lat="53.26563479" lon="-8.92490821">
				<ele>64.0</ele>
				<time>2014-08-17T17:00:45Z</time>
				<extensions>
					<speed>3.25</speed>
				</extensions>
			</trkpt>
			<trkpt lat="53.26565205" lon="-8.92486458">
				<ele>64.0</ele>
				<time>2014-08-17T17:00:46Z</time>
				<extensions>
					<speed>4.0</speed>
				</extensions>
			</trkpt>
			<trkpt lat="53.26568952" lon="-8.92481784">
				<ele>63.0</ele>
				<time>2014-08-17T17:00:47Z</time>
				<extensions>
					<speed>5.0</speed>
				</extensions>
			</trkpt>
			<trkpt lat="53.26572771" lon="-8.92476216">
				<ele>62.0</ele>
				<time>2014-08-17T17:00:48Z</time>
				<extensions>
					<speed>5.0</speed>
				</extensions>
			</trkpt>
			<trkpt lat="53.26576057" lon="-8.92470769">
				<ele>64.0</ele>
				<time>2014-08-17T17:00:49Z</time>
				<extensions>
					<speed>4.75</speed>
				</extensions>
			</trkpt>
			<trkpt lat="53.26578989" lon="-8.92466661">
				<ele>64.0</ele>
				<time>2014-08-17T17:00:50Z</time>
				<extensions>
					<speed>4.5</speed>
				</extensions>
			</trkpt>
			<trkpt lat="53.26582174" lon="-8.92462109">
				<ele>63.0</ele>
				<time>2014-08-17T17:00:51Z</time>
				<extensions>
					<speed>3.5</speed>
				</extensions>
			</trkpt>
			<trkpt lat="53.26583613" lon="-8.92458315">
				<ele>63.0</ele>
				<time>2014-08-17T17:00:52Z</time>
				<extensions>
					<speed>2.5</speed>
				</extensions>
			</trkpt>
			<trkpt lat="53.26584572" lon="-8.92455502">
				<ele>63.0</ele>
				<time>2014-08-17T17:00:53Z</time>
				<extensions>
					<speed>1.75</speed>
				</extensions>
			</trkpt>
			<trkpt lat="53.26585586" lon="-8.92453794">
				<ele>63.0</ele>
				<time>2014-08-17T17:00:54Z</time>
				<extensions>
					<speed>1.25</speed>
				</extensions>
			</trkpt>
			<trkpt lat="53.26585872" lon="-8.9245248">
				<ele>62.0</ele>
				<time>2014-08-17T17:00:55Z</time>
				<extensions>
					<speed>0.75</speed>
				</extensions>
			</trkpt>
			<trkpt lat="53.26586202" lon="-8.92451759">
				<ele>62.0</ele>
				<time>2014-08-17T17:00:56Z</time>
				<extensions>
					<speed>0.5</speed>
				</extensions>
			</trkpt>
			<trkpt lat="53.26585845" lon="-8.92451575">
				<ele>62.0</ele>
				<time>2014-08-17T17:00:57Z</time>
				<extensions>
					<speed>0.5</speed>
				</extensions>
			</trkpt>
			<trkpt lat="53.2658598" lon="-8.92450946">
				<ele>63.0</ele>
				<time>2014-08-17T17:00:58Z</time>
				<extensions>
					<speed>0.5</speed>
				</extensions>
			</trkpt>
			<trkpt lat="53.26586146" lon="-8.92449644">
				<ele>62.0</ele>
				<time>2014-08-17T17:00:59Z</time>
				<extensions>
					<speed>0.75</speed>
				</extensions>
			</trkpt>
			<trkpt lat="53.26587046" lon="-8.92447751">
				<ele>63.0</ele>
				<time>2014-08-17T17:01:00Z</time>
				<extensions>
					<speed>1.0</speed>
				</extensions>
			</trkpt>
			<trkpt lat="53.26588002" lon="-8.92446681">
				<ele>63.0</ele>
				<time>2014-08-17T17:01:01Z</time>
				<extensions>
					<speed>0.75</speed>
				</extensions>
			</trkpt>
			<trkpt lat="53.26588226" lon="-8.92445731">
				<ele>64.0</ele>
				<time>2014-08-17T17:01:02Z</time>
				<extensions>
					<speed>0.75</speed>
				</extensions>
			</trkpt>
			<trkpt lat="53.26588474" lon="-8.92444621">
				<ele>63.0</ele>
				<time>2014-08-17T17:01:03Z</time>
				<extensions>
					<speed>0.25</speed>
				</extensions>
			</trkpt>
			<trkpt lat="53.26588775" lon="-8.92444193">
				<ele>63.0</ele>
				<time>2014-08-17T17:01:04Z</time>
				<extensions>
					<speed>0.0</speed>
				</extensions>
			</trkpt>
			<trkpt lat="53.26588961" lon="-8.92443962">
				<ele>64.0</ele>
				<time>2014-08-17T17:01:05Z</time>
				<extensions>
					<speed>0.0</speed>
				</extensions>
			</trkpt>
			<trkpt lat="53.26588871" lon="-8.92443599">
				<ele>64.0</ele>
				<time>2014-08-17T17:01:06Z</time>
				<extensions>
					<speed>0.0</speed>
				</extensions>
			</trkpt>
			<trkpt lat="53.26588724" lon="-8.92443477">
				<ele>64.0</ele>
				<time>2014-08-17T17:01:07Z</time>
				<extensions>
					<speed>0.0</speed>
				</extensions>
			</trkpt>
			<trkpt lat="53.2658882" lon="-8.92442914">
				<ele>64.0</ele>
				<time>2014-08-17T17:01:08Z</time>
				<extensions>
					<speed>0.0</speed>
				</extensions>
			</trkpt>
			<trkpt lat="53.26588955" lon="-8.92442842">
				<ele>64.0</ele>
				<time>2014-08-17T17:01:09Z</time>
				<extensions>
					<speed>0.0</speed>
				</extensions>
			</trkpt>
			<trkpt lat="53.26588932" lon="-8.92442608">
				<ele>64.0</ele>
				<time>2014-08-17T17:01:10Z</time>
				<extensions>
					<speed>0.0</speed>
				</extensions>
			</trkpt>
			<trkpt lat="53.26589022" lon="-8.92442236">
				<ele>65.0</ele>
				<time>2014-08-17T17:01:11Z</time>
				<extensions>
					<speed>0.0</speed>
				</extensions>
			</trkpt>
			<trkpt lat="53.26588979" lon="-8.92442329">
				<ele>65.0</ele>
				<time>2014-08-17T17:01:12Z</time>
				<extensions>
					<speed>0.0</speed>
				</extensions>
			</trkpt>
			<trkpt lat="53.26589039" lon="-8.92442176">
				<ele>65.0</ele>
				<time>2014-08-17T17:01:13Z</time>
				<extensions>
					<speed>1.0</speed>
				</extensions>
			</trkpt>
			<trkpt lat="53.26589871" lon="-8.92441271">
				<ele>64.0</ele>
				<time>2014-08-17T17:01:14Z</time>
				<extensions>
					<speed>1.75</speed>
				</extensions>
			</trkpt>
			<trkpt lat="53.26590957" lon="-8.92439465">
				<ele>64.0</ele>
				<time>2014-08-17T17:01:15Z</time>
				<extensions>
					<speed>1.75</speed>
				</extensions>
			</trkpt>
			<trkpt lat="53.26591814" lon="-8.92437579">
				<ele>64.0</ele>
				<time>2014-08-17T17:01:16Z</time>
				<extensions>
					<speed>1.25</speed>
				</extensions>
			</trkpt>
			<trkpt lat="53.26591983" lon="-8.9243691">
				<ele>63.0</ele>
				<time>2014-08-17T17:01:17Z</time>
				<extensions>
					<speed>1.25</speed>
				</extensions>
			</trkpt>
			<trkpt lat="53.26592583" lon="-8.92436113">
				<ele>63.0</ele>
				<time>2014-08-17T17:01:18Z</time>
				<extensions>
					<speed>1.0</speed>
				</extensions>
			</trkpt>
			<trkpt lat="53.26592882" lon="-8.92435369">
				<ele>62.0</ele>
				<time>2014-08-17T17:01:19Z</time>
				<extensions>
					<speed>0.75</speed>
				</extensions>
			</trkpt>
			<trkpt lat="53.26593209" lon="-8.92434872">
				<ele>62.0</ele>
				<time>2014-08-17T17:01:20Z</time>
				<extensions>
					<speed>0.0</speed>
				</extensions>
			</trkpt>
			<trkpt lat="53.2659333" lon="-8.92434829">
				<ele>62.0</ele>
				<time>2014-08-17T17:01:21Z</time>
				<extensions>
					<speed>0.0</speed>
				</extensions>
			</trkpt>
			<trkpt lat="53.26593311" lon="-8.92434948">
				<ele>62.0</ele>
				<time>2014-08-17T17:01:22Z</time>
				<extensions>
					<speed>0.75</speed>
				</extensions>
			</trkpt>
			<trkpt lat="53.26593374" lon="-8.92435772">
				<ele>61.0</ele>
				<time>2014-08-17T17:01:23Z</time>
				<extensions>
					<speed>0.0</speed>
				</extensions>
			</trkpt>
			<trkpt lat="53.26593148" lon="-8.92435795">
				<ele>61.0</ele>
				<time>2014-08-17T17:01:24Z</time>
				<extensions>
					<speed>0.0</speed>
				</extensions>
			</trkpt>
			<trkpt lat="53.26592944" lon="-8.92435753">
				<ele>61.0</ele>
				<time>2014-08-17T17:01:25Z</time>
				<extensions>
					<speed>0.0</speed>
				</extensions>
			</trkpt>
			<trkpt lat="53.26593126" lon="-8.92436139">
				<ele>61.0</ele>
				<time>2014-08-17T17:01:26Z</time>
				<extensions>
					<speed>0.0</speed>
				</extensions>
			</trkpt>
			<trkpt lat="53.26593541" lon="-8.92436126">
				<ele>61.0</ele>
				<time>2014-08-17T17:01:27Z</time>
				<extensions>
					<speed>0.0</speed>
				</extensions>
			</trkpt>
			<trkpt lat="53.26593541" lon="-8.92436126">
				<ele>61.0</ele>
				<time>2014-08-17T17:01:28Z</time>
				<extensions>
					<speed>0.0</speed>
				</extensions>
			</trkpt>
			<trkpt lat="53.2659357" lon="-8.92436557">
				<ele>61.0</ele>
				<time>2014-08-17T17:01:29Z</time>
				<extensions>
					<speed>0.0</speed>
				</extensions>
			</trkpt>
			<trkpt lat="53.26593621" lon="-8.92436524">
				<ele>61.0</ele>
				<time>2014-08-17T17:01:30Z</time>
				<extensions>
					<speed>0.0</speed>
				</extensions>
			</trkpt>
			<trkpt lat="53.26593721" lon="-8.92436411">
				<ele>61.0</ele>
				<time>2014-08-17T17:01:31Z</time>
				<extensions>
					<speed>0.0</speed>
				</extensions>
			</trkpt>
			<trkpt lat="53.26593768" lon="-8.92436434">
				<ele>61.0</ele>
				<time>2014-08-17T17:01:32Z</time>
				<extensions>
					<speed>0.0</speed>
				</extensions>
			</trkpt>
			<trkpt lat="53.26593755" lon="-8.9243655">
				<ele>61.0</ele>
				<time>2014-08-17T17:01:33Z</time>
				<extensions>
					<speed>0.0</speed>
				</extensions>
			</trkpt>
			<trkpt lat="53.26593746" lon="-8.92436522">
				<ele>61.0</ele>
				<time>2014-08-17T17:01:34Z</time>
				<extensions>
					<speed>0.0</speed>
				</extensions>
			</trkpt>
			<trkpt lat="53.26593753" lon="-8.92436502">
				<ele>61.0</ele>
				<time>2014-08-17T17:01:35Z</time>
				<extensions>
					<speed>0.0</speed>
				</extensions>
			</trkpt>
			<trkpt lat="53.26593752" lon="-8.92436493">
				<ele>61.0</ele>
				<time>2014-08-17T17:01:36Z</time>
				<extensions>
					<speed>0.0</speed>
				</extensions>
			</trkpt>
			<trkpt lat="53.26593753" lon="-8.92436489">
				<ele>61.0</ele>
				<time>2014-08-17T17:01:37Z</time>
				<extensions>
					<speed>0.0</speed>
				</extensions>
			</trkpt>
			<trkpt lat="53.26593755" lon="-8.92436487">
				<ele>61.0</ele>
				<time>2014-08-17T17:01:38Z</time>
				<extensions>
					<speed>0.0</speed>
				</extensions>
			</trkpt>
			<trkpt lat="53.26593756" lon="-8.92436487">
				<ele>61.0</ele>
				<time>2014-08-17T17:01:39Z</time>
				<extensions>
					<speed>0.0</speed>
				</extensions>
			</trkpt>
			<trkpt lat="53.26593756" lon="-8.92436487">
				<ele>61.0</ele>
				<time>2014-08-17T17:01:40Z</time>
				<extensions>
					<speed>0.0</speed>
				</extensions>
			</trkpt>
			<trkpt lat="53.26593759" lon="-8.92436485">
				<ele>61.0</ele>
				<time>2014-08-17T17:01:41Z</time>
				<extensions>
					<speed>0.0</speed>
				</extensions>
			</trkpt>
			<trkpt lat="53.2659376" lon="-8.92436483">
				<ele>61.0</ele>
				<time>2014-08-17T17:01:42Z</time>
				<extensions>
					<speed>0.0</speed>
				</extensions>
			</trkpt>
			<trkpt lat="53.26593761" lon="-8.92436482">
				<ele>61.0</ele>
				<time>2014-08-17T17:01:43Z</time>
				<extensions>
					<speed>0.0</speed>
				</extensions>
			</trkpt>
			<trkpt lat="53.26593762" lon="-8.92436478">
				<ele>61.0</ele>
				<time>2014-08-17T17:01:44Z</time>
				<extensions>
					<speed>0.0</speed>
				</extensions>
			</trkpt>
			<trkpt lat="53.26593764" lon="-8.92436474">
				<ele>61.0</ele>
				<time>2014-08-17T17:01:45Z</time>
				<extensions>
					<speed>0.0</speed>
				</extensions>
			</trkpt>
			<trkpt lat="53.26593765" lon="-8.92436472">
				<ele>61.0</ele>
				<time>2014-08-17T17:01:46Z</time>
				<extensions>
					<speed>0.0</speed>
				</extensions>
			</trkpt>
			<trkpt lat="53.26593765" lon="-8.92436472">
				<ele>61.0</ele>
				<time>2014-08-17T17:01:47Z</time>
				<extensions>
					<speed>0.0</speed>
				</extensions>
			</trkpt>
			<trkpt lat="53.26593765" lon="-8.92436467">
				<ele>61.0</ele>
				<time>2014-08-17T17:01:48Z</time>
				<extensions>
					<speed>0.0</speed>
				</extensions>
			</trkpt>
			<trkpt lat="53.26593759" lon="-8.92436459">
				<ele>61.0</ele>
				<time>2014-08-17T17:01:49Z</time>
				<extensions>
					<speed>0.0</speed>
				</extensions>
			</trkpt>
			<trkpt lat="53.2659376" lon="-8.9243646">
				<ele>61.0</ele>
				<time>2014-08-17T17:01:50Z</time>
				<extensions>
					<speed>0.0</speed>
				</extensions>
			</trkpt>
			<trkpt lat="53.2659376" lon="-8.9243646">
				<ele>61.0</ele>
				<time>2014-08-17T17:01:51Z</time>
				<extensions>
					<speed>0.0</speed>
				</extensions>
			</trkpt>
			<trkpt lat="53.26593752" lon="-8.92436478">
				<ele>61.0</ele>
				<time>2014-08-17T17:01:52Z</time>
				<extensions>
					<speed>0.0</speed>
				</extensions>
			</trkpt>
			<trkpt lat="53.26593752" lon="-8.92436478">
				<ele>61.0</ele>
				<time>2014-08-17T17:01:53Z</time>
				<extensions>
					<speed>0.0</speed>
				</extensions>
			</trkpt>
			<trkpt lat="53.26593773" lon="-8.92436488">
				<ele>61.0</ele>
				<time>2014-08-17T17:01:54Z</time>
				<extensions>
					<speed>0.0</speed>
				</extensions>
			</trkpt>
			<trkpt lat="53.2659377" lon="-8.92436485">
				<ele>61.0</ele>
				<time>2014-08-17T17:01:55Z</time>
				<extensions>
					<speed>0.0</speed>
				</extensions>
			</trkpt>
			<trkpt lat="53.26593764" lon="-8.92436483">
				<ele>61.0</ele>
				<time>2014-08-17T17:01:56Z</time>
				<extensions>
					<speed>0.0</speed>
				</extensions>
			</trkpt>
			<trkpt lat="53.26593825" lon="-8.92436462">
				<ele>61.0</ele>
				<time>2014-08-17T17:01:57Z</time>
				<extensions>
					<speed>0.0</speed>
				</extensions>
			</trkpt>
			<trkpt lat="53.2659382" lon="-8.92436468">
				<ele>61.0</ele>
				<time>2014-08-17T17:01:58Z</time>
				<extensions>
					<speed>0.0</speed>
				</extensions>
			</trkpt>
			<trkpt lat="53.26593802" lon="-8.92436436">
				<ele>61.0</ele>
				<time>2014-08-17T17:01:59Z</time>
				<extensions>
					<speed>0.0</speed>
				</extensions>
			</trkpt>
			<trkpt lat="53.26593801" lon="-8.92436414">
				<ele>61.0</ele>
				<time>2014-08-17T17:02:00Z</time>
				<extensions>
					<speed>0.0</speed>
				</extensions>
			</trkpt>
			<trkpt lat="53.26593812" lon="-8.92436371">
				<ele>61.0</ele>
				<time>2014-08-17T17:02:01Z</time>
				<extensions>
					<speed>0.0</speed>
				</extensions>
			</trkpt>
			<trkpt lat="53.26593848" lon="-8.92436368">
				<ele>61.0</ele>
				<time>2014-08-17T17:02:02Z</time>
				<extensions>
					<speed>0.0</speed>
				</extensions>
			</trkpt>
			<trkpt lat="53.2659388" lon="-8.92436363">
				<ele>61.0</ele>
				<time>2014-08-17T17:02:03Z</time>
				<extensions>
					<speed>0.0</speed>
				</extensions>
			</trkpt>
			<trkpt lat="53.26593879" lon="-8.92436314">
				<ele>61.0</ele>
				<time>2014-08-17T17:02:04Z</time>
				<extensions>
					<speed>0.0</speed>
				</extensions>
			</trkpt>
			<trkpt lat="53.26593908" lon="-8.92436362">
				<ele>61.0</ele>
				<time>2014-08-17T17:02:05Z</time>
				<extensions>
					<speed>0.0</speed>
				</extensions>
			</trkpt>
			<trkpt lat="53.26593912" lon="-8.92436372">
				<ele>61.0</ele>
				<time>2014-08-17T17:02:06Z</time>
				<extensions>
					<speed>0.0</speed>
				</extensions>
			</trkpt>
			<trkpt lat="53.26593914" lon="-8.92436374">
				<ele>61.0</ele>
				<time>2014-08-17T17:02:07Z</time>
				<extensions>
					<speed>0.0</speed>
				</extensions>
			</trkpt>
			<trkpt lat="53.26593913" lon="-8.92436365">
				<ele>61.0</ele>
				<time>2014-08-17T17:02:08Z</time>
				<extensions>
					<speed>0.0</speed>
				</extensions>
			</trkpt>
			<trkpt lat="53.26593912" lon="-8.92436363">
				<ele>61.0</ele>
				<time>2014-08-17T17:02:09Z</time>
				<extensions>
					<speed>0.0</speed>
				</extensions>
			</trkpt>
			<trkpt lat="53.26593913" lon="-8.92436356">
				<ele>61.0</ele>
				<time>2014-08-17T17:02:10Z</time>
				<extensions>
					<speed>0.0</speed>
				</extensions>
			</trkpt>
			<trkpt lat="53.26593913" lon="-8.92436352">
				<ele>61.0</ele>
				<time>2014-08-17T17:02:11Z</time>
				<extensions>
					<speed>0.0</speed>
				</extensions>
			</trkpt>
			<trkpt lat="53.26593911" lon="-8.92436347">
				<ele>61.0</ele>
				<time>2014-08-17T17:02:12Z</time>
				<extensions>
					<speed>0.0</speed>
				</extensions>
			</trkpt>
			<trkpt lat="53.26593911" lon="-8.92436343">
				<ele>61.0</ele>
				<time>2014-08-17T17:02:13Z</time>
				<extensions>
					<speed>0.0</speed>
				</extensions>
			</trkpt>
			<trkpt lat="53.2659391" lon="-8.92436338">
				<ele>61.0</ele>
				<time>2014-08-17T17:02:14Z</time>
				<extensions>
					<speed>0.0</speed>
				</extensions>
			</trkpt>
			<trkpt lat="53.26593909" lon="-8.92436337">
				<ele>61.0</ele>
				<time>2014-08-17T17:02:15Z</time>
				<extensions>
					<speed>0.0</speed>
				</extensions>
			</trkpt>
			<trkpt lat="53.26593908" lon="-8.92436331">
				<ele>61.0</ele>
				<time>2014-08-17T17:02:16Z</time>
				<extensions>
					<speed>0.0</speed>
				</extensions>
			</trkpt>
			<trkpt lat="53.26593952" lon="-8.92436172">
				<ele>61.0</ele>
				<time>2014-08-17T17:02:17Z</time>
				<extensions>
					<speed>0.25</speed>
				</extensions>
			</trkpt>
			<trkpt lat="53.26593894" lon="-8.92434755">
				<ele>60.0</ele>
				<time>2014-08-17T17:02:18Z</time>
				<extensions>
					<speed>0.75</speed>
				</extensions>
			</trkpt>
			<trkpt lat="53.26594449" lon="-8.92432462">
				<ele>59.0</ele>
				<time>2014-08-17T17:02:19Z</time>
				<extensions>
					<speed>1.5</speed>
				</extensions>
			</trkpt>
			<trkpt lat="53.26595301" lon="-8.92428484">
				<ele>59.0</ele>
				<time>2014-08-17T17:02:20Z</time>
				<extensions>
					<speed>2.75</speed>
				</extensions>
			</trkpt>
			<trkpt lat="53.26596902" lon="-8.92422614">
				<ele>60.0</ele>
				<time>2014-08-17T17:02:21Z</time>
				<extensions>
					<speed>3.75</speed>
				</extensions>
			</trkpt>
			<trkpt lat="53.2659836" lon="-8.92415838">
				<ele>59.0</ele>
				<time>2014-08-17T17:02:22Z</time>
				<extensions>
					<speed>4.25</speed>
				</extensions>
			</trkpt>
			<trkpt lat="53.26599791" lon="-8.92407264">
				<ele>59.0</ele>
				<time>2014-08-17T17:02:23Z</time>
				<extensions>
					<speed>5.5</speed>
				</extensions>
			</trkpt>
			<trkpt lat="53.26601742" lon="-8.92398385">
				<ele>59.0</ele>
				<time>2014-08-17T17:02:24Z</time>
				<extensions>
					<speed>6.25</speed>
				</extensions>
			</trkpt>
			<trkpt lat="53.26603939" lon="-8.92390712">
				<ele>59.0</ele>
				<time>2014-08-17T17:02:25Z</time>
				<extensions>
					<speed>5.5</speed>
				</extensions>
			</trkpt>
			<trkpt lat="53.266066" lon="-8.92383645">
				<ele>58.0</ele>
				<time>2014-08-17T17:02:26Z</time>
				<extensions>
					<speed>5.0</speed>
				</extensions>
			</trkpt>
			<trkpt lat="53.26609825" lon="-8.92379149">
				<ele>59.0</ele>
				<time>2014-08-17T17:02:27Z</time>
				<extensions>
					<speed>4.75</speed>
				</extensions>
			</trkpt>
			<trkpt lat="53.26613358" lon="-8.92378291">
				<ele>60.0</ele>
				<time>2014-08-17T17:02:28Z</time>
				<extensions>
					<speed>4.5</speed>
				</extensions>
			</trkpt>
			<trkpt lat="53.26617343" lon="-8.92378861">
				<ele>60.0</ele>
				<time>2014-08-17T17:02:29Z</time>
				<extensions>
					<speed>4.0</speed>
				</extensions>
			</trkpt>
			<trkpt lat="53.26620421" lon="-8.92380754">
				<ele>60.0</ele>
				<time>2014-08-17T17:02:30Z</time>
				<extensions>
					<speed>4.5</speed>
				</extensions>
			</trkpt>
			<trkpt lat="53.26624407" lon="-8.92382722">
				<ele>60.0</ele>
				<time>2014-08-17T17:02:31Z</time>
				<extensions>
					<speed>5.25</speed>
				</extensions>
			</trkpt>
			<trkpt lat="53.26629282" lon="-8.92383786">
				<ele>60.0</ele>
				<time>2014-08-17T17:02:32Z</time>
				<extensions>
					<speed>6.0</speed>
				</extensions>
			</trkpt>
			<trkpt lat="53.26635036" lon="-8.9238565">
				<ele>60.0</ele>
				<time>2014-08-17T17:02:33Z</time>
				<extensions>
					<speed>6.25</speed>
				</extensions>
			</trkpt>
			<trkpt lat="53.26640686" lon="-8.92386083">
				<ele>60.0</ele>
				<time>2014-08-17T17:02:34Z</time>
				<extensions>
					<speed>6.25</speed>
				</extensions>
			</trkpt>
			<trkpt lat="53.2664607" lon="-8.92386617">
				<ele>61.0</ele>
				<time>2014-08-17T17:02:35Z</time>
				<extensions>
					<speed>6.0</speed>
				</extensions>
			</trkpt>
			<trkpt lat="53.26651209" lon="-8.92388147">
				<ele>62.0</ele>
				<time>2014-08-17T17:02:36Z</time>
				<extensions>
					<speed>5.5</speed>
				</extensions>
			</trkpt>
			<trkpt lat="53.26656509" lon="-8.92390947">
				<ele>62.0</ele>
				<time>2014-08-17T17:02:37Z</time>
				<extensions>
					<speed>5.75</speed>
				</extensions>
			</trkpt>
			<trkpt lat="53.26660878" lon="-8.92394501">
				<ele>62.0</ele>
				<time>2014-08-17T17:02:38Z</time>
				<extensions>
					<speed>5.0</speed>
				</extensions>
			</trkpt>
			<trkpt lat="53.26664428" lon="-8.92399912">
				<ele>62.0</ele>
				<time>2014-08-17T17:02:39Z</time>
				<extensions>
					<speed>4.5</speed>
				</extensions>
			</trkpt>
			<trkpt lat="53.26666893" lon="-8.92405798">
				<ele>62.0</ele>
				<time>2014-08-17T17:02:40Z</time>
				<extensions>
					<speed>4.5</speed>
				</extensions>
			</trkpt>
			<trkpt lat="53.26668521" lon="-8.92411558">
				<ele>62.0</ele>
				<time>2014-08-17T17:02:41Z</time>
				<extensions>
					<speed>4.5</speed>
				</extensions>
			</trkpt>
			<trkpt lat="53.26669502" lon="-8.92417586">
				<ele>62.0</ele>
				<time>2014-08-17T17:02:42Z</time>
				<extensions>
					<speed>4.25</speed>
				</extensions>
			</trkpt>
			<trkpt lat="53.26669486" lon="-8.92423746">
				<ele>62.0</ele>
				<time>2014-08-17T17:02:43Z</time>
				<extensions>
					<speed>3.75</speed>
				</extensions>
			</trkpt>
			<trkpt lat="53.26668279" lon="-8.92428591">
				<ele>62.0</ele>
				<time>2014-08-17T17:02:44Z</time>
				<extensions>
					<speed>3.75</speed>
				</extensions>
			</trkpt>
			<trkpt lat="53.26666843" lon="-8.92431761">
				<ele>62.0</ele>
				<time>2014-08-17T17:02:45Z</time>
				<extensions>
					<speed>3.5</speed>
				</extensions>
			</trkpt>
			<trkpt lat="53.2666421" lon="-8.92436314">
				<ele>62.0</ele>
				<time>2014-08-17T17:02:46Z</time>
				<extensions>
					<speed>3.75</speed>
				</extensions>
			</trkpt>
			<trkpt lat="53.26661835" lon="-8.92438739">
				<ele>63.0</ele>
				<time>2014-08-17T17:02:47Z</time>
				<extensions>
					<speed>3.5</speed>
				</extensions>
			</trkpt>
			<trkpt lat="53.26660054" lon="-8.92440169">
				<ele>63.0</ele>
				<time>2014-08-17T17:02:48Z</time>
				<extensions>
					<speed>2.0</speed>
				</extensions>
			</trkpt>
			<trkpt lat="53.26658454" lon="-8.92440733">
				<ele>62.0</ele>
				<time>2014-08-17T17:02:49Z</time>
				<extensions>
					<speed>1.75</speed>
				</extensions>
			</trkpt>
			<trkpt lat="53.26657" lon="-8.92441148">
				<ele>62.0</ele>
				<time>2014-08-17T17:02:50Z</time>
				<extensions>
					<speed>1.75</speed>
				</extensions>
			</trkpt>
			<trkpt lat="53.26655078" lon="-8.92441835">
				<ele>63.0</ele>
				<time>2014-08-17T17:02:51Z</time>
				<extensions>
					<speed>1.75</speed>
				</extensions>
			</trkpt>
			<trkpt lat="53.26653196" lon="-8.92442089">
				<ele>64.0</ele>
				<time>2014-08-17T17:02:52Z</time>
				<extensions>
					<speed>2.0</speed>
				</extensions>
			</trkpt>
			<trkpt lat="53.2665129" lon="-8.92441786">
				<ele>64.0</ele>
				<time>2014-08-17T17:02:53Z</time>
				<extensions>
					<speed>2.5</speed>
				</extensions>
			</trkpt>
			<trkpt lat="53.26649124" lon="-8.92440936">
				<ele>64.0</ele>
				<time>2014-08-17T17:02:54Z</time>
				<extensions>
					<speed>2.5</speed>
				</extensions>
			</trkpt>
			<trkpt lat="53.26646703" lon="-8.9243895">
				<ele>64.0</ele>
				<time>2014-08-17T17:02:55Z</time>
				<extensions>
					<speed>2.5</speed>
				</extensions>
			</trkpt>
			<trkpt lat="53.26645035" lon="-8.92437273">
				<ele>65.0</ele>
				<time>2014-08-17T17:02:56Z</time>
				<extensions>
					<speed>2.5</speed>
				</extensions>
			</trkpt>
			<trkpt lat="53.2664335" lon="-8.92434738">
				<ele>65.0</ele>
				<time>2014-08-17T17:02:57Z</time>
				<extensions>
					<speed>2.25</speed>
				</extensions>
			</trkpt>
			<trkpt lat="53.26642302" lon="-8.92433493">
				<ele>65.0</ele>
				<time>2014-08-17T17:02:58Z</time>
				<extensions>
					<speed>1.25</speed>
				</extensions>
			</trkpt>
			<trkpt lat="53.26642155" lon="-8.92432973">
				<ele>65.0</ele>
				<time>2014-08-17T17:02:59Z</time>
				<extensions>
					<speed>0.0</speed>
				</extensions>
			</trkpt>
			<trkpt lat="53.26642177" lon="-8.92432314">
				<ele>66.0</ele>
				<time>2014-08-17T17:03:00Z</time>
				<extensions>
					<speed>0.0</speed>
				</extensions>
			</trkpt>
			<trkpt lat="53.26642147" lon="-8.92432568">
				<ele>66.0</ele>
				<time>2014-08-17T17:03:01Z</time>
				<extensions>
					<speed>0.0</speed>
				</extensions>
			</trkpt>
			<trkpt lat="53.26642188" lon="-8.92432913">
				<ele>66.0</ele>
				<time>2014-08-17T17:03:02Z</time>
				<extensions>
					<speed>0.0</speed>
				</extensions>
			</trkpt>
			<trkpt lat="53.26642342" lon="-8.92432728">
				<ele>66.0</ele>
				<time>2014-08-17T17:03:03Z</time>
				<extensions>
					<speed>0.0</speed>
				</extensions>
			</trkpt>
			<trkpt lat="53.26642502" lon="-8.92433395">
				<ele>66.0</ele>
				<time>2014-08-17T17:03:04Z</time>
				<extensions>
					<speed>0.0</speed>
				</extensions>
			</trkpt>
			<trkpt lat="53.26642617" lon="-8.92433101">
				<ele>66.0</ele>
				<time>2014-08-17T17:03:05Z</time>
				<extensions>
					<speed>0.0</speed>
				</extensions>
			</trkpt>
			<trkpt lat="53.26642485" lon="-8.92433174">
				<ele>66.0</ele>
				<time>2014-08-17T17:03:06Z</time>
				<extensions>
					<speed>0.0</speed>
				</extensions>
			</trkpt>
			<trkpt lat="53.26642581" lon="-8.92433314">
				<ele>66.0</ele>
				<time>2014-08-17T17:03:07Z</time>
				<extensions>
					<speed>0.0</speed>
				</extensions>
			</trkpt>
			<trkpt lat="53.2664257" lon="-8.92433254">
				<ele>66.0</ele>
				<time>2014-08-17T17:03:08Z</time>
				<extensions>
					<speed>0.0</speed>
				</extensions>
			</trkpt>
			<trkpt lat="53.26642588" lon="-8.92433243">
				<ele>66.0</ele>
				<time>2014-08-17T17:03:09Z</time>
				<extensions>
					<speed>0.0</speed>
				</extensions>
			</trkpt>
			<trkpt lat="53.26642628" lon="-8.92433255">
				<ele>66.0</ele>
				<time>2014-08-17T17:03:10Z</time>
				<extensions>
					<speed>0.0</speed>
				</extensions>
			</trkpt>
			<trkpt lat="53.26642635" lon="-8.92433248">
				<ele>66.0</ele>
				<time>2014-08-17T17:03:11Z</time>
				<extensions>
					<speed>0.0</speed>
				</extensions>
			</trkpt>
			<trkpt lat="53.26642633" lon="-8.92433258">
				<ele>66.0</ele>
				<time>2014-08-17T17:03:12Z</time>
				<extensions>
					<speed>0.0</speed>
				</extensions>
			</trkpt>
			<trkpt lat="53.26642634" lon="-8.92433272">
				<ele>66.0</ele>
				<time>2014-08-17T17:03:13Z</time>
				<extensions>
					<speed>0.0</speed>
				</extensions>
			</trkpt>
			<trkpt lat="53.26642634" lon="-8.92433275">
				<ele>66.0</ele>
				<time>2014-08-17T17:03:14Z</time>
				<extensions>
					<speed>0.0</speed>
				</extensions>
			</trkpt>
			<trkpt lat="53.26642634" lon="-8.92433274">
				<ele>66.0</ele>
				<time>2014-08-17T17:03:15Z</time>
				<extensions>
					<speed>0.0</speed>
				</extensions>
			</trkpt>
			<trkpt lat="53.26642635" lon="-8.92433273">
				<ele>66.0</ele>
				<time>2014-08-17T17:03:16Z</time>
				<extensions>
					<speed>0.0</speed>
				</extensions>
			</trkpt>
			<trkpt lat="53.26642636" lon="-8.92433276">
				<ele>66.0</ele>
				<time>2014-08-17T17:03:17Z</time>
				<extensions>
					<speed>0.0</speed>
				</extensions>
			</trkpt>
			<trkpt lat="53.26642636" lon="-8.92433274">
				<ele>66.0</ele>
				<time>2014-08-17T17:03:18Z</time>
				<extensions>
					<speed>0.0</speed>
				</extensions>
			</trkpt>
			<trkpt lat="53.26642635" lon="-8.92433275">
				<ele>66.0</ele>
				<time>2014-08-17T17:03:19Z</time>
				<extensions>
					<speed>0.0</speed>
				</extensions>
			</trkpt>
			<trkpt lat="53.26642635" lon="-8.92433278">
				<ele>66.0</ele>
				<time>2014-08-17T17:03:20Z</time>
				<extensions>
					<speed>0.0</speed>
				</extensions>
			</trkpt>
			<trkpt lat="53.26642637" lon="-8.9243328">
				<ele>66.0</ele>
				<time>2014-08-17T17:03:21Z</time>
				<extensions>
					<speed>0.0</speed>
				</extensions>
			</trkpt>
			<trkpt lat="53.26642637" lon="-8.9243328">
				<ele>66.0</ele>
				<time>2014-08-17T17:03:22Z</time>
				<extensions>
					<speed>0.0</speed>
				</extensions>
			</trkpt>
			<trkpt lat="53.26642636" lon="-8.92433279">
				<ele>66.0</ele>
				<time>2014-08-17T17:03:23Z</time>
				<extensions>
					<speed>0.0</speed>
				</extensions>
			</trkpt>
			<trkpt lat="53.26642708" lon="-8.92433302">
				<ele>66.0</ele>
				<time>2014-08-17T17:03:24Z</time>
				<extensions>
					<speed>0.5</speed>
				</extensions>
			</trkpt>
			<trkpt lat="53.26644212" lon="-8.92433516">
				<ele>66.0</ele>
				<time>2014-08-17T17:03:25Z</time>
				<extensions>
					<speed>1.25</speed>
				</extensions>
			</trkpt>
			<trkpt lat="53.26644718" lon="-8.92434296">
				<ele>66.0</ele>
				<time>2014-08-17T17:03:26Z</time>
				<extensions>
					<speed>1.0</speed>
				</extensions>
			</trkpt>
			<trkpt lat="53.26645415" lon="-8.92435283">
				<ele>66.0</ele>
				<time>2014-08-17T17:03:27Z</time>
				<extensions>
					<speed>1.0</speed>
				</extensions>
			</trkpt>
			<trkpt lat="53.26646476" lon="-8.92438093">
				<ele>64.0</ele>
				<time>2014-08-17T17:03:28Z</time>
				<extensions>
					<speed>1.5</speed>
				</extensions>
			</trkpt>
			<trkpt lat="53.2664649" lon="-8.92440568">
				<ele>64.0</ele>
				<time>2014-08-17T17:03:29Z</time>
				<extensions>
					<speed>1.25</speed>
				</extensions>
			</trkpt>
			<trkpt lat="53.26646486" lon="-8.92442583">
				<ele>64.0</ele>
				<time>2014-08-17T17:03:30Z</time>
				<extensions>
					<speed>1.25</speed>
				</extensions>
			</trkpt>
			<trkpt lat="53.26646482" lon="-8.92444598">
				<ele>64.0</ele>
				<time>2014-08-17T17:03:31Z</time>
				<extensions>
					<speed>1.25</speed>
				</extensions>
			</trkpt>
			<trkpt lat="53.26647082" lon="-8.92443005">
				<ele>62.0</ele>
				<time>2014-08-17T17:03:32Z</time>
				<extensions>
					<speed>0.0</speed>
				</extensions>
			</trkpt>
			<trkpt lat="53.26646713" lon="-8.92443426">
				<ele>62.0</ele>
				<time>2014-08-17T17:03:33Z</time>
				<extensions>
					<speed>0.0</speed>
				</extensions>
			</trkpt>
			<trkpt lat="53.26646831" lon="-8.92443341">
				<ele>62.0</ele>
				<time>2014-08-17T17:03:34Z</time>
				<extensions>
					<speed>1.0</speed>
				</extensions>
			</trkpt>
			<trkpt lat="53.26648334" lon="-8.92443076">
				<ele>63.0</ele>
				<time>2014-08-17T17:03:35Z</time>
				<extensions>
					<speed>2.5</speed>
				</extensions>
			</trkpt>
			<trkpt lat="53.26650883" lon="-8.92443215">
				<ele>64.0</ele>
				<time>2014-08-17T17:03:36Z</time>
				<extensions>
					<speed>3.5</speed>
				</extensions>
			</trkpt>
			<trkpt lat="53.26654092" lon="-8.92444037">
				<ele>65.0</ele>
				<time>2014-08-17T17:03:37Z</time>
				<extensions>
					<speed>4.0</speed>
				</extensions>
			</trkpt>
			<trkpt lat="53.26658143" lon="-8.92443928">
				<ele>64.0</ele>
				<time>2014-08-17T17:03:38Z</time>
				<extensions>
					<speed>4.25</speed>
				</extensions>
			</trkpt>
			<trkpt lat="53.26662146" lon="-8.92442804">
				<ele>63.0</ele>
				<time>2014-08-17T17:03:39Z</time>
				<extensions>
					<speed>4.5</speed>
				</extensions>
			</trkpt>
			<trkpt lat="53.26665967" lon="-8.92441708">
				<ele>63.0</ele>
				<time>2014-08-17T17:03:40Z</time>
				<extensions>
					<speed>4.25</speed>
				</extensions>
			</trkpt>
			<trkpt lat="53.2666856" lon="-8.92437677">
				<ele>64.0</ele>
				<time>2014-08-17T17:03:41Z</time>
				<extensions>
					<speed>3.75</speed>
				</extensions>
			</trkpt>
			<trkpt lat="53.26670591" lon="-8.92433805">
				<ele>64.0</ele>
				<time>2014-08-17T17:03:42Z</time>
				<extensions>
					<speed>3.5</speed>
				</extensions>
			</trkpt>
			<trkpt lat="53.2667115" lon="-8.92428708">
				<ele>64.0</ele>
				<time>2014-08-17T17:03:43Z</time>
				<extensions>
					<speed>2.75</speed>
				</extensions>
			</trkpt>
			<trkpt lat="53.2667101" lon="-8.9242424">
				<ele>64.0</ele>
				<time>2014-08-17T17:03:44Z</time>
				<extensions>
					<speed>3.25</speed>
				</extensions>
			</trkpt>
			<trkpt lat="53.2667035" lon="-8.92418719">
				<ele>64.0</ele>
				<time>2014-08-17T17:03:45Z</time>
				<extensions>
					<speed>4.0</speed>
				</extensions>
			</trkpt>
			<trkpt lat="53.26668348" lon="-8.92411461">
				<ele>64.0</ele>
				<time>2014-08-17T17:03:46Z</time>
				<extensions>
					<speed>5.5</speed>
				</extensions>
			</trkpt>
			<trkpt lat="53.26665623" lon="-8.92404424">
				<ele>63.0</ele>
				<time>2014-08-17T17:03:47Z</time>
				<extensions>
					<speed>6.0</speed>
				</extensions>
			</trkpt>
			<trkpt lat="53.26661448" lon="-8.92398385">
				<ele>63.0</ele>
				<time>2014-08-17T17:03:48Z</time>
				<extensions>
					<speed>6.25</speed>
				</extensions>
			</trkpt>
			<trkpt lat="53.2665642" lon="-8.92394344">
				<ele>63.0</ele>
				<time>2014-08-17T17:03:49Z</time>
				<extensions>
					<speed>6.25</speed>
				</extensions>
			</trkpt>
			<trkpt lat="53.26650756" lon="-8.923916">
				<ele>63.0</ele>
				<time>2014-08-17T17:03:50Z</time>
				<extensions>
					<speed>7.0</speed>
				</extensions>
			</trkpt>
			<trkpt lat="53.26644573" lon="-8.92390411">
				<ele>63.0</ele>
				<time>2014-08-17T17:03:51Z</time>
				<extensions>
					<speed>6.75</speed>
				</extensions>
			</trkpt>
			<trkpt lat="53.2663798" lon="-8.92389405">
				<ele>64.0</ele>
				<time>2014-08-17T17:03:52Z</time>
				<extensions>
					<speed>6.75</speed>
				</extensions>
			</trkpt>
			<trkpt lat="53.26632115" lon="-8.92388409">
				<ele>64.0</ele>
				<time>2014-08-17T17:03:53Z</time>
				<extensions>
					<speed>6.75</speed>
				</extensions>
			</trkpt>
			<trkpt lat="53.2662613" lon="-8.92387953">
				<ele>64.0</ele>
				<time>2014-08-17T17:03:54Z</time>
				<extensions>
					<speed>6.0</speed>
				</extensions>
			</trkpt>
			<trkpt lat="53.26621852" lon="-8.92385112">
				<ele>63.0</ele>
				<time>2014-08-17T17:03:55Z</time>
				<extensions>
					<speed>4.5</speed>
				</extensions>
			</trkpt>
			<trkpt lat="53.26619393" lon="-8.9237962">
				<ele>63.0</ele>
				<time>2014-08-17T17:03:56Z</time>
				<extensions>
					<speed>5.0</speed>
				</extensions>
			</trkpt>
			<trkpt lat="53.26618356" lon="-8.9237264">
				<ele>63.0</ele>
				<time>2014-08-17T17:03:57Z</time>
				<extensions>
					<speed>4.75</speed>
				</extensions>
			</trkpt>
			<trkpt lat="53.26619058" lon="-8.92364821">
				<ele>64.0</ele>
				<time>2014-08-17T17:03:58Z</time>
				<extensions>
					<speed>4.5</speed>
				</extensions>
			</trkpt>
			<trkpt lat="53.26620299" lon="-8.92358592">
				<ele>64.0</ele>
				<time>2014-08-17T17:03:59Z</time>
				<extensions>
					<speed>4.25</speed>
				</extensions>
			</trkpt>
			<trkpt lat="53.26622691" lon="-8.92353001">
				<ele>63.0</ele>
				<time>2014-08-17T17:04:00Z</time>
				<extensions>
					<speed>4.75</speed>
				</extensions>
			</trkpt>
			<trkpt lat="53.26625934" lon="-8.92346357">
				<ele>62.0</ele>
				<time>2014-08-17T17:04:01Z</time>
				<extensions>
					<speed>5.5</speed>
				</extensions>
			</trkpt>
			<trkpt lat="53.26629729" lon="-8.92339133">
				<ele>63.0</ele>
				<time>2014-08-17T17:04:02Z</time>
				<extensions>
					<speed>6.0</speed>
				</extensions>
			</trkpt>
			<trkpt lat="53.26633585" lon="-8.92331975">
				<ele>62.0</ele>
				<time>2014-08-17T17:04:03Z</time>
				<extensions>
					<speed>6.25</speed>
				</extensions>
			</trkpt>
			<trkpt lat="53.26637766" lon="-8.92323923">
				<ele>63.0</ele>
				<time>2014-08-17T17:04:04Z</time>
				<extensions>
					<speed>5.75</speed>
				</extensions>
			</trkpt>
			<trkpt lat="53.26641372" lon="-8.92317391">
				<ele>63.0</ele>
				<time>2014-08-17T17:04:05Z</time>
				<extensions>
					<speed>5.75</speed>
				</extensions>
			</trkpt>
			<trkpt lat="53.26644481" lon="-8.92310545">
				<ele>62.0</ele>
				<time>2014-08-17T17:04:06Z</time>
				<extensions>
					<speed>5.25</speed>
				</extensions>
			</trkpt>
			<trkpt lat="53.26648364" lon="-8.92305591">
				<ele>62.0</ele>
				<time>2014-08-17T17:04:07Z</time>
				<extensions>
					<speed>5.25</speed>
				</extensions>
			</trkpt>
			<trkpt lat="53.26652938" lon="-8.92304403">
				<ele>63.0</ele>
				<time>2014-08-17T17:04:08Z</time>
				<extensions>
					<speed>4.75</speed>
				</extensions>
			</trkpt>
			<trkpt lat="53.26656602" lon="-8.92306049">
				<ele>62.0</ele>
				<time>2014-08-17T17:04:09Z</time>
				<extensions>
					<speed>4.5</speed>
				</extensions>
			</trkpt>
			<trkpt lat="53.2665843" lon="-8.92309764">
				<ele>62.0</ele>
				<time>2014-08-17T17:04:10Z</time>
				<extensions>
					<speed>4.25</speed>
				</extensions>
			</trkpt>
			<trkpt lat="53.26660815" lon="-8.92313984">
				<ele>62.0</ele>
				<time>2014-08-17T17:04:11Z</time>
				<extensions>
					<speed>3.5</speed>
				</extensions>
			</trkpt>
			<trkpt lat="53.2666181" lon="-8.92316645">
				<ele>62.0</ele>
				<time>2014-08-17T17:04:12Z</time>
				<extensions>
					<speed>1.75</speed>
				</extensions>
			</trkpt>
			<trkpt lat="53.26662112" lon="-8.92318686">
				<ele>62.0</ele>
				<time>2014-08-17T17:04:13Z</time>
				<extensions>
					<speed>1.0</speed>
				</extensions>
			</trkpt>
			<trkpt lat="53.26662064" lon="-8.92319321">
				<ele>61.0</ele>
				<time>2014-08-17T17:04:14Z</time>
				<extensions>
					<speed>0.0</speed>
				</extensions>
			</trkpt>
			<trkpt lat="53.26661854" lon="-8.92319984">
				<ele>61.0</ele>
				<time>2014-08-17T17:04:15Z</time>
				<extensions>
					<speed>0.0</speed>
				</extensions>
			</trkpt>
			<trkpt lat="53.26662002" lon="-8.92320017">
				<ele>61.0</ele>
				<time>2014-08-17T17:04:16Z</time>
				<extensions>
					<speed>0.0</speed>
				</extensions>
			</trkpt>
			<trkpt lat="53.26661938" lon="-8.9232029">
				<ele>62.0</ele>
				<time>2014-08-17T17:04:17Z</time>
				<extensions>
					<speed>0.0</speed>
				</extensions>
			</trkpt>
			<trkpt lat="53.26662072" lon="-8.92320574">
				<ele>62.0</ele>
				<time>2014-08-17T17:04:18Z</time>
				<extensions>
					<speed>0.0</speed>
				</extensions>
			</trkpt>
			<trkpt lat="53.26661814" lon="-8.92320638">
				<ele>62.0</ele>
				<time>2014-08-17T17:04:19Z</time>
				<extensions>
					<speed>0.0</speed>
				</extensions>
			</trkpt>
			<trkpt lat="53.2666186" lon="-8.92321086">
				<ele>61.0</ele>
				<time>2014-08-17T17:04:20Z</time>
				<extensions>
					<speed>0.0</speed>
				</extensions>
			</trkpt>
			<trkpt lat="53.26662275" lon="-8.92321318">
				<ele>61.0</ele>
				<time>2014-08-17T17:04:21Z</time>
				<extensions>
					<speed>0.0</speed>
				</extensions>
			</trkpt>
			<trkpt lat="53.26662262" lon="-8.92321402">
				<ele>62.0</ele>
				<time>2014-08-17T17:04:22Z</time>
				<extensions>
					<speed>0.0</speed>
				</extensions>
			</trkpt>
			<trkpt lat="53.26662262" lon="-8.92321402">
				<ele>62.0</ele>
				<time>2014-08-17T17:04:23Z</time>
				<extensions>
					<speed>0.0</speed>
				</extensions>
			</trkpt>
			<trkpt lat="53.26662084" lon="-8.92321904">
				<ele>62.0</ele>
				<time>2014-08-17T17:04:24Z</time>
				<extensions>
					<speed>0.0</speed>
				</extensions>
			</trkpt>
			<trkpt lat="53.2666211" lon="-8.92321929">
				<ele>61.0</ele>
				<time>2014-08-17T17:04:25Z</time>
				<extensions>
					<speed>0.0</speed>
				</extensions>
			</trkpt>
			<trkpt lat="53.2666213" lon="-8.92321915">
				<ele>61.0</ele>
				<time>2014-08-17T17:04:26Z</time>
				<extensions>
					<speed>0.0</speed>
				</extensions>
			</trkpt>
			<trkpt lat="53.26662152" lon="-8.92321911">
				<ele>62.0</ele>
				<time>2014-08-17T17:04:27Z</time>
				<extensions>
					<speed>0.0</speed>
				</extensions>
			</trkpt>
			<trkpt lat="53.26662158" lon="-8.92321911">
				<ele>62.0</ele>
				<time>2014-08-17T17:04:28Z</time>
				<extensions>
					<speed>0.0</speed>
				</extensions>
			</trkpt>
			<trkpt lat="53.26662158" lon="-8.92321907">
				<ele>62.0</ele>
				<time>2014-08-17T17:04:29Z</time>
				<extensions>
					<speed>0.0</speed>
				</extensions>
			</trkpt>
			<trkpt lat="53.26662164" lon="-8.92321905">
				<ele>62.0</ele>
				<time>2014-08-17T17:04:30Z</time>
				<extensions>
					<speed>0.0</speed>
				</extensions>
			</trkpt>
			<trkpt lat="53.26662241" lon="-8.9232206">
				<ele>62.0</ele>
				<time>2014-08-17T17:04:31Z</time>
				<extensions>
					<speed>1.0</speed>
				</extensions>
			</trkpt>
			<trkpt lat="53.2666355" lon="-8.92323191">
				<ele>62.0</ele>
				<time>2014-08-17T17:04:32Z</time>
				<extensions>
					<speed>2.0</speed>
				</extensions>
			</trkpt>
			<trkpt lat="53.26665334" lon="-8.92322571">
				<ele>60.0</ele>
				<time>2014-08-17T17:04:33Z</time>
				<extensions>
					<speed>2.75</speed>
				</extensions>
			</trkpt>
			<trkpt lat="53.26668218" lon="-8.92320948">
				<ele>61.0</ele>
				<time>2014-08-17T17:04:34Z</time>
				<extensions>
					<speed>2.75</speed>
				</extensions>
			</trkpt>
			<trkpt lat="53.26669075" lon="-8.92319073">
				<ele>61.0</ele>
				<time>2014-08-17T17:04:35Z</time>
				<extensions>
					<speed>1.5</speed>
				</extensions>
			</trkpt>
			<trkpt lat="53.26669226" lon="-8.92317798">
				<ele>62.0</ele>
				<time>2014-08-17T17:04:36Z</time>
				<extensions>
					<speed>0.0</speed>
				</extensions>
			</trkpt>
			<trkpt lat="53.26669022" lon="-8.92317799">
				<ele>62.0</ele>
				<time>2014-08-17T17:04:37Z</time>
				<extensions>
					<speed>0.0</speed>
				</extensions>
			</trkpt>
			<trkpt lat="53.26668861" lon="-8.92317944">
				<ele>62.0</ele>
				<time>2014-08-17T17:04:38Z</time>
				<extensions>
					<speed>1.5</speed>
				</extensions>
			</trkpt>
			<trkpt lat="53.2666732" lon="-8.92319684">
				<ele>62.0</ele>
				<time>2014-08-17T17:04:39Z</time>
				<extensions>
					<speed>1.75</speed>
				</extensions>
			</trkpt>
			<trkpt lat="53.26667024" lon="-8.9232171">
				<ele>64.0</ele>
				<time>2014-08-17T17:04:40Z</time>
				<extensions>
					<speed>1.25</speed>
				</extensions>
			</trkpt>
			<trkpt lat="53.26667505" lon="-8.92322202">
				<ele>65.0</ele>
				<time>2014-08-17T17:04:41Z</time>
				<extensions>
					<speed>0.0</speed>
				</extensions>
			</trkpt>
			<trkpt lat="53.26667356" lon="-8.92320973">
				<ele>66.0</ele>
				<time>2014-08-17T17:04:42Z</time>
				<extensions>
					<speed>1.0</speed>
				</extensions>
			</trkpt>
			<trkpt lat="53.2666573" lon="-8.92318444">
				<ele>66.0</ele>
				<time>2014-08-17T17:04:43Z</time>
				<extensions>
					<speed>2.75</speed>
				</extensions>
			</trkpt>
			<trkpt lat="53.26663856" lon="-8.92315088">
				<ele>66.0</ele>
				<time>2014-08-17T17:04:44Z</time>
				<extensions>
					<speed>4.0</speed>
				</extensions>
			</trkpt>
			<trkpt lat="53.26661324" lon="-8.92311037">
				<ele>66.0</ele>
				<time>2014-08-17T17:04:45Z</time>
				<extensions>
					<speed>3.75</speed>
				</extensions>
			</trkpt>
			<trkpt lat="53.26659658" lon="-8.92306285">
				<ele>65.0</ele>
				<time>2014-08-17T17:04:46Z</time>
				<extensions>
					<speed>3.5</speed>
				</extensions>
			</trkpt>
			<trkpt lat="53.26658339" lon="-8.92301546">
				<ele>66.0</ele>
				<time>2014-08-17T17:04:47Z</time>
				<extensions>
					<speed>3.25</speed>
				</extensions>
			</trkpt>
			<trkpt lat="53.26658474" lon="-8.92295985">
				<ele>66.0</ele>
				<time>2014-08-17T17:04:48Z</time>
				<extensions>
					<speed>3.75</speed>
				</extensions>
			</trkpt>
			<trkpt lat="53.2665987" lon="-8.92289101">
				<ele>65.0</ele>
				<time>2014-08-17T17:04:49Z</time>
				<extensions>
					<speed>4.5</speed>
				</extensions>
			</trkpt>
			<trkpt lat="53.2666252" lon="-8.92283501">
				<ele>65.0</ele>
				<time>2014-08-17T17:04:50Z</time>
				<extensions>
					<speed>5.25</speed>
				</extensions>
			</trkpt>
			<trkpt lat="53.26666571" lon="-8.92277644">
				<ele>65.0</ele>
				<time>2014-08-17T17:04:51Z</time>
				<extensions>
					<speed>6.0</speed>
				</extensions>
			</trkpt>
			<trkpt lat="53.26671571" lon="-8.92271794">
				<ele>65.0</ele>
				<time>2014-08-17T17:04:52Z</time>
				<extensions>
					<speed>7.0</speed>
				</extensions>
			</trkpt>
			<trkpt lat="53.26676264" lon="-8.92266535">
				<ele>65.0</ele>
				<time>2014-08-17T17:04:53Z</time>
				<extensions>
					<speed>6.25</speed>
				</extensions>
			</trkpt>
			<trkpt lat="53.2668135" lon="-8.92262004">
				<ele>65.0</ele>
				<time>2014-08-17T17:04:54Z</time>
				<extensions>
					<speed>6.25</speed>
				</extensions>
			</trkpt>
			<trkpt lat="53.26685304" lon="-8.92256691">
				<ele>66.0</ele>
				<time>2014-08-17T17:04:55Z</time>
				<extensions>
					<speed>5.75</speed>
				</extensions>
			</trkpt>
			<trkpt lat="53.2668939" lon="-8.92250781">
				<ele>65.0</ele>
				<time>2014-08-17T17:04:56Z</time>
				<extensions>
					<speed>4.5</speed>
				</extensions>
			</trkpt>
			<trkpt lat="53.26692706" lon="-8.92247966">
				<ele>65.0</ele>
				<time>2014-08-17T17:04:57Z</time>
				<extensions>
					<speed>4.25</speed>
				</extensions>
			</trkpt>
			<trkpt lat="53.26695903" lon="-8.92244326">
				<ele>65.0</ele>
				<time>2014-08-17T17:04:58Z</time>
				<extensions>
					<speed>4.0</speed>
				</extensions>
			</trkpt>
			<trkpt lat="53.2669891" lon="-8.92242139">
				<ele>64.0</ele>
				<time>2014-08-17T17:04:59Z</time>
				<extensions>
					<speed>3.75</speed>
				</extensions>
			</trkpt>
			<trkpt lat="53.26701447" lon="-8.92241268">
				<ele>64.0</ele>
				<time>2014-08-17T17:05:00Z</time>
				<extensions>
					<speed>3.5</speed>
				</extensions>
			</trkpt>
			<trkpt lat="53.26704138" lon="-8.92241925">
				<ele>64.0</ele>
				<time>2014-08-17T17:05:01Z</time>
				<extensions>
					<speed>3.25</speed>
				</extensions>
			</trkpt>
			<trkpt lat="53.26705245" lon="-8.92243756">
				<ele>64.0</ele>
				<time>2014-08-17T17:05:02Z</time>
				<extensions>
					<speed>2.75</speed>
				</extensions>
			</trkpt>
			<trkpt lat="53.26706536" lon="-8.92246771">
				<ele>63.0</ele>
				<time>2014-08-17T17:05:03Z</time>
				<extensions>
					<speed>2.0</speed>
				</extensions>
			</trkpt>
			<trkpt lat="53.26707417" lon="-8.92249255">
				<ele>63.0</ele>
				<time>2014-08-17T17:05:04Z</time>
				<extensions>
					<speed>1.25</speed>
				</extensions>
			</trkpt>
			<trkpt lat="53.26707775" lon="-8.92250824">
				<ele>63.0</ele>
				<time>2014-08-17T17:05:05Z</time>
				<extensions>
					<speed>0.75</speed>
				</extensions>
			</trkpt>
			<trkpt lat="53.26708213" lon="-8.92251048">
				<ele>63.0</ele>
				<time>2014-08-17T17:05:06Z</time>
				<extensions>
					<speed>0.0</speed>
				</extensions>
			</trkpt>
			<trkpt lat="53.26708273" lon="-8.92251637">
				<ele>63.0</ele>
				<time>2014-08-17T17:05:07Z</time>
				<extensions>
					<speed>0.0</speed>
				</extensions>
			</trkpt>
			<trkpt lat="53.26708118" lon="-8.92251967">
				<ele>63.0</ele>
				<time>2014-08-17T17:05:08Z</time>
				<extensions>
					<speed>0.0</speed>
				</extensions>
			</trkpt>
			<trkpt lat="53.26707983" lon="-8.92252182">
				<ele>63.0</ele>
				<time>2014-08-17T17:05:09Z</time>
				<extensions>
					<speed>0.0</speed>
				</extensions>
			</trkpt>
			<trkpt lat="53.26707858" lon="-8.92252529">
				<ele>63.0</ele>
				<time>2014-08-17T17:05:10Z</time>
				<extensions>
					<speed>0.0</speed>
				</extensions>
			</trkpt>
			<trkpt lat="53.2670789" lon="-8.92252729">
				<ele>63.0</ele>
				<time>2014-08-17T17:05:11Z</time>
				<extensions>
					<speed>0.0</speed>
				</extensions>
			</trkpt>
			<trkpt lat="53.2670784" lon="-8.92252567">
				<ele>64.0</ele>
				<time>2014-08-17T17:05:12Z</time>
				<extensions>
					<speed>0.0</speed>
				</extensions>
			</trkpt>
			<trkpt lat="53.26708222" lon="-8.92252333">
				<ele>64.0</ele>
				<time>2014-08-17T17:05:13Z</time>
				<extensions>
					<speed>0.0</speed>
				</extensions>
			</trkpt>
			<trkpt lat="53.26708192" lon="-8.92252207">
				<ele>64.0</ele>
				<time>2014-08-17T17:05:14Z</time>
				<extensions>
					<speed>0.0</speed>
				</extensions>
			</trkpt>
			<trkpt lat="53.26708356" lon="-8.92251886">
				<ele>65.0</ele>
				<time>2014-08-17T17:05:15Z</time>
				<extensions>
					<speed>0.0</speed>
				</extensions>
			</trkpt>
			<trkpt lat="53.26708561" lon="-8.9225208">
				<ele>65.0</ele>
				<time>2014-08-17T17:05:16Z</time>
				<extensions>
					<speed>0.0</speed>
				</extensions>
			</trkpt>
			<trkpt lat="53.26708558" lon="-8.92252221">
				<ele>65.0</ele>
				<time>2014-08-17T17:05:17Z</time>
				<extensions>
					<speed>0.0</speed>
				</extensions>
			</trkpt>
			<trkpt lat="53.26708612" lon="-8.92252245">
				<ele>65.0</ele>
				<time>2014-08-17T17:05:18Z</time>
				<extensions>
					<speed>0.0</speed>
				</extensions>
			</trkpt>
			<trkpt lat="53.26708623" lon="-8.92252249">
				<ele>65.0</ele>
				<time>2014-08-17T17:05:19Z</time>
				<extensions>
					<speed>0.0</speed>
				</extensions>
			</trkpt>
			<trkpt lat="53.26708627" lon="-8.92252258">
				<ele>65.0</ele>
				<time>2014-08-17T17:05:20Z</time>
				<extensions>
					<speed>0.0</speed>
				</extensions>
			</trkpt>
			<trkpt lat="53.26708623" lon="-8.92252264">
				<ele>65.0</ele>
				<time>2014-08-17T17:05:21Z</time>
				<extensions>
					<speed>0.0</speed>
				</extensions>
			</trkpt>
			<trkpt lat="53.26708623" lon="-8.92252267">
				<ele>65.0</ele>
				<time>2014-08-17T17:05:22Z</time>
				<extensions>
					<speed>0.0</speed>
				</extensions>
			</trkpt>
			<trkpt lat="53.26708744" lon="-8.92252355">
				<ele>65.0</ele>
				<time>2014-08-17T17:05:23Z</time>
				<extensions>
					<speed>1.0</speed>
				</extensions>
			</trkpt>
			<trkpt lat="53.26709926" lon="-8.92252702">
				<ele>65.0</ele>
				<time>2014-08-17T17:05:24Z</time>
				<extensions>
					<speed>1.25</speed>
				</extensions>
			</trkpt>
			<trkpt lat="53.26711062" lon="-8.92252839">
				<ele>65.0</ele>
				<time>2014-08-17T17:05:25Z</time>
				<extensions>
					<speed>1.0</speed>
				</extensions>
			</trkpt>
			<trkpt lat="53.2671141" lon="-8.9225243">
				<ele>65.0</ele>
				<time>2014-08-17T17:05:26Z</time>
				<extensions>
					<speed>0.0</speed>
				</extensions>
			</trkpt>
			<trkpt lat="53.26711459" lon="-8.92252378">
				<ele>65.0</ele>
				<time>2014-08-17T17:05:27Z</time>
				<extensions>
					<speed>0.0</speed>
				</extensions>
			</trkpt>
			<trkpt lat="53.26711425" lon="-8.92252521">
				<ele>64.0</ele>
				<time>2014-08-17T17:05:28Z</time>
				<extensions>
					<speed>0.0</speed>
				</extensions>
			</trkpt>
			<trkpt lat="53.26711221" lon="-8.92252402">
				<ele>64.0</ele>
				<time>2014-08-17T17:05:29Z</time>
				<extensions>
					<speed>2.0</speed>
				</extensions>
			</trkpt>
			<trkpt lat="53.26709722" lon="-8.92251506">
				<ele>64.0</ele>
				<time>2014-08-17T17:05:30Z</time>
				<extensions>
					<speed>1.25</speed>
				</extensions>
			</trkpt>
			<trkpt lat="53.26708876" lon="-8.92251573">
				<ele>64.0</ele>
				<time>2014-08-17T17:05:31Z</time>
				<extensions>
					<speed>1.25</speed>
				</extensions>
			</trkpt>
			<trkpt lat="53.26707599" lon="-8.92251827">
				<ele>64.0</ele>
				<time>2014-08-17T17:05:32Z</time>
				<extensions>
					<speed>0.0</speed>
				</extensions>
			</trkpt>
			<trkpt lat="53.26706611" lon="-8.92252245">
				<ele>63.0</ele>
				<time>2014-08-17T17:05:33Z</time>
				<extensions>
					<speed>0.0</speed>
				</extensions>
			</trkpt>
			<trkpt lat="53.26706709" lon="-8.92252006">
				<ele>63.0</ele>
				<time>2014-08-17T17:05:34Z</time>
				<extensions>
					<speed>1.5</speed>
				</extensions>
			</trkpt>
			<trkpt lat="53.26707259" lon="-8.92249531">
				<ele>63.0</ele>
				<time>2014-08-17T17:05:35Z</time>
				<extensions>
					<speed>2.5</speed>
				</extensions>
			</trkpt>
			<trkpt lat="53.26707142" lon="-8.92245322">
				<ele>62.0</ele>
				<time>2014-08-17T17:05:36Z</time>
				<extensions>
					<speed>2.75</speed>
				</extensions>
			</trkpt>
			<trkpt lat="53.26707241" lon="-8.92239647">
				<ele>63.0</ele>
				<time>2014-08-17T17:05:37Z</time>
				<extensions>
					<speed>3.75</speed>
				</extensions>
			</trkpt>
			<trkpt lat="53.26708279" lon="-8.92233654">
				<ele>62.0</ele>
				<time>2014-08-17T17:05:38Z</time>
				<extensions>
					<speed>4.0</speed>
				</extensions>
			</trkpt>
			<trkpt lat="53.26710742" lon="-8.92227887">
				<ele>62.0</ele>
				<time>2014-08-17T17:05:39Z</time>
				<extensions>
					<speed>5.0</speed>
				</extensions>
			</trkpt>
			<trkpt lat="53.26714928" lon="-8.92222199">
				<ele>63.0</ele>
				<time>2014-08-17T17:05:40Z</time>
				<extensions>
					<speed>6.75</speed>
				</extensions>
			</trkpt>
			<trkpt lat="53.26720298" lon="-8.92213169">
				<ele>62.0</ele>
				<time>2014-08-17T17:05:41Z</time>
				<extensions>
					<speed>8.25</speed>
				</extensions>
			</trkpt>
			<trkpt lat="53.26726245" lon="-8.92204944">
				<ele>62.0</ele>
				<time>2014-08-17T17:05:42Z</time>
				<extensions>
					<speed>9.0</speed>
				</extensions>
			</trkpt>
			<trkpt lat="53.26731959" lon="-8.92195558">
				<ele>63.0</ele>
				<time>2014-08-17T17:05:43Z</time>
				<extensions>
					<speed>8.25</speed>
				</extensions>
			</trkpt>
			<trkpt lat="53.26737243" lon="-8.9218799">
				<ele>63.0</ele>
				<time>2014-08-17T17:05:44Z</time>
				<extensions>
					<speed>7.25</speed>
				</extensions>
			</trkpt>
			<trkpt lat="53.26741222" lon="-8.92181486">
				<ele>63.0</ele>
				<time>2014-08-17T17:05:45Z</time>
				<extensions>
					<speed>5.75</speed>
				</extensions>
			</trkpt>
			<trkpt lat="53.26745016" lon="-8.92177527">
				<ele>63.0</ele>
				<time>2014-08-17T17:05:46Z</time>
				<extensions>
					<speed>4.75</speed>
				</extensions>
			</trkpt>
			<trkpt lat="53.2674771" lon="-8.92178196">
				<ele>62.0</ele>
				<time>2014-08-17T17:05:47Z</time>
				<extensions>
					<speed>4.25</speed>
				</extensions>
			</trkpt>
			<trkpt lat="53.26750285" lon="-8.9218024">
				<ele>62.0</ele>
				<time>2014-08-17T17:05:48Z</time>
				<extensions>
					<speed>3.75</speed>
				</extensions>
			</trkpt>
			<trkpt lat="53.26752454" lon="-8.92183871">
				<ele>63.0</ele>
				<time>2014-08-17T17:05:49Z</time>
				<extensions>
					<speed>3.5</speed>
				</extensions>
			</trkpt>
			<trkpt lat="53.267545" lon="-8.92187553">
				<ele>63.0</ele>
				<time>2014-08-17T17:05:50Z</time>
				<extensions>
					<speed>3.25</speed>
				</extensions>
			</trkpt>
			<trkpt lat="53.26756287" lon="-8.92191029">
				<ele>63.0</ele>
				<time>2014-08-17T17:05:51Z</time>
				<extensions>
					<speed>3.0</speed>
				</extensions>
			</trkpt>
			<trkpt lat="53.26757788" lon="-8.92194942">
				<ele>63.0</ele>
				<time>2014-08-17T17:05:52Z</time>
				<extensions>
					<speed>2.75</speed>
				</extensions>
			</trkpt>
			<trkpt lat="53.26759025" lon="-8.92198314">
				<ele>62.0</ele>
				<time>2014-08-17T17:05:53Z</time>
				<extensions>
					<speed>2.75</speed>
				</extensions>
			</trkpt>
			<trkpt lat="53.26760673" lon="-8.92201145">
				<ele>62.0</ele>
				<time>2014-08-17T17:05:54Z</time>
				<extensions>
					<speed>2.5</speed>
				</extensions>
			</trkpt>
			<trkpt lat="53.26762251" lon="-8.92204213">
				<ele>61.0</ele>
				<time>2014-08-17T17:05:55Z</time>
				<extensions>
					<speed>2.5</speed>
				</extensions>
			</trkpt>
			<trkpt lat="53.26763933" lon="-8.92206895">
				<ele>61.0</ele>
				<time>2014-08-17T17:05:56Z</time>
				<extensions>
					<speed>2.25</speed>
				</extensions>
			</trkpt>
			<trkpt lat="53.26765069" lon="-8.92209931">
				<ele>61.0</ele>
				<time>2014-08-17T17:05:57Z</time>
				<extensions>
					<speed>2.25</speed>
				</extensions>
			</trkpt>
			<trkpt lat="53.26766281" lon="-8.92212349">
				<ele>61.0</ele>
				<time>2014-08-17T17:05:58Z</time>
				<extensions>
					<speed>2.0</speed>
				</extensions>
			</trkpt>
			<trkpt lat="53.26767067" lon="-8.92214776">
				<ele>61.0</ele>
				<time>2014-08-17T17:05:59Z</time>
				<extensions>
					<speed>2.0</speed>
				</extensions>
			</trkpt>
			<trkpt lat="53.26768112" lon="-8.92217611">
				<ele>61.0</ele>
				<time>2014-08-17T17:06:00Z</time>
				<extensions>
					<speed>1.75</speed>
				</extensions>
			</trkpt>
			<trkpt lat="53.26768777" lon="-8.9221936">
				<ele>61.0</ele>
				<time>2014-08-17T17:06:01Z</time>
				<extensions>
					<speed>1.25</speed>
				</extensions>
			</trkpt>
			<trkpt lat="53.26769058" lon="-8.92221264">
				<ele>61.0</ele>
				<time>2014-08-17T17:06:02Z</time>
				<extensions>
					<speed>1.0</speed>
				</extensions>
			</trkpt>
			<trkpt lat="53.26769393" lon="-8.92222708">
				<ele>60.0</ele>
				<time>2014-08-17T17:06:03Z</time>
				<extensions>
					<speed>0.75</speed>
				</extensions>
			</trkpt>
			<trkpt lat="53.26769798" lon="-8.92223952">
				<ele>62.0</ele>
				<time>2014-08-17T17:06:04Z</time>
				<extensions>
					<speed>0.75</speed>
				</extensions>
			</trkpt>
			<trkpt lat="53.26769965" lon="-8.92224818">
				<ele>62.0</ele>
				<time>2014-08-17T17:06:05Z</time>
				<extensions>
					<speed>0.5</speed>
				</extensions>
			</trkpt>
			<trkpt lat="53.26769983" lon="-8.92225364">
				<ele>62.0</ele>
				<time>2014-08-17T17:06:06Z</time>
				<extensions>
					<speed>1.0</speed>
				</extensions>
			</trkpt>
			<trkpt lat="53.26770356" lon="-8.9222612">
				<ele>62.0</ele>
				<time>2014-08-17T17:06:07Z</time>
				<extensions>
					<speed>0.5</speed>
				</extensions>
			</trkpt>
			<trkpt lat="53.26770295" lon="-8.92225795">
				<ele>63.0</ele>
				<time>2014-08-17T17:06:08Z</time>
				<extensions>
					<speed>0.0</speed>
				</extensions>
			</trkpt>
			<trkpt lat="53.26770292" lon="-8.92225975">
				<ele>63.0</ele>
				<time>2014-08-17T17:06:09Z</time>
				<extensions>
					<speed>0.0</speed>
				</extensions>
			</trkpt>
			<trkpt lat="53.26770065" lon="-8.92226299">
				<ele>63.0</ele>
				<time>2014-08-17T17:06:10Z</time>
				<extensions>
					<speed>0.0</speed>
				</extensions>
			</trkpt>
			<trkpt lat="53.26770014" lon="-8.92226599">
				<ele>63.0</ele>
				<time>2014-08-17T17:06:11Z</time>
				<extensions>
					<speed>0.0</speed>
				</extensions>
			</trkpt>
			<trkpt lat="53.26769824" lon="-8.92226927">
				<ele>63.0</ele>
				<time>2014-08-17T17:06:12Z</time>
				<extensions>
					<speed>0.0</speed>
				</extensions>
			</trkpt>
			<trkpt lat="53.26769757" lon="-8.92226876">
				<ele>63.0</ele>
				<time>2014-08-17T17:06:13Z</time>
				<extensions>
					<speed>0.0</speed>
				</extensions>
			</trkpt>
			<trkpt lat="53.26769673" lon="-8.92226978">
				<ele>63.0</ele>
				<time>2014-08-17T17:06:14Z</time>
				<extensions>
					<speed>0.0</speed>
				</extensions>
			</trkpt>
			<trkpt lat="53.267698" lon="-8.92226797">
				<ele>63.0</ele>
				<time>2014-08-17T17:06:15Z</time>
				<extensions>
					<speed>0.0</speed>
				</extensions>
			</trkpt>
			<trkpt lat="53.26769775" lon="-8.92226724">
				<ele>63.0</ele>
				<time>2014-08-17T17:06:16Z</time>
				<extensions>
					<speed>0.0</speed>
				</extensions>
			</trkpt>
			<trkpt lat="53.2676978" lon="-8.92226872">
				<ele>63.0</ele>
				<time>2014-08-17T17:06:17Z</time>
				<extensions>
					<speed>0.0</speed>
				</extensions>
			</trkpt>
			<trkpt lat="53.26769692" lon="-8.92226922">
				<ele>63.0</ele>
				<time>2014-08-17T17:06:18Z</time>
				<extensions>
					<speed>0.0</speed>
				</extensions>
			</trkpt>
			<trkpt lat="53.26769706" lon="-8.92226922">
				<ele>63.0</ele>
				<time>2014-08-17T17:06:19Z</time>
				<extensions>
					<speed>0.0</speed>
				</extensions>
			</trkpt>
			<trkpt lat="53.26769707" lon="-8.9222695">
				<ele>63.0</ele>
				<time>2014-08-17T17:06:20Z</time>
				<extensions>
					<speed>0.0</speed>
				</extensions>
			</trkpt>
			<trkpt lat="53.26769707" lon="-8.92226949">
				<ele>63.0</ele>
				<time>2014-08-17T17:06:21Z</time>
				<extensions>
					<speed>0.0</speed>
				</extensions>
			</trkpt>
			<trkpt lat="53.26769707" lon="-8.92226951">
				<ele>63.0</ele>
				<time>2014-08-17T17:06:22Z</time>
				<extensions>
					<speed>0.0</speed>
				</extensions>
			</trkpt>
			<trkpt lat="53.26769708" lon="-8.9222695">
				<ele>63.0</ele>
				<time>2014-08-17T17:06:23Z</time>
				<extensions>
					<speed>0.0</speed>
				</extensions>
			</trkpt>
			<trkpt lat="53.26769711" lon="-8.92226949">
				<ele>63.0</ele>
				<time>2014-08-17T17:06:24Z</time>
				<extensions>
					<speed>0.0</speed>
				</extensions>
			</trkpt>
			<trkpt lat="53.26769895" lon="-8.92227005">
				<ele>63.0</ele>
				<time>2014-08-17T17:06:25Z</time>
				<extensions>
					<speed>1.5</speed>
				</extensions>
			</trkpt>
			<trkpt lat="53.26771461" lon="-8.92226549">
				<ele>63.0</ele>
				<time>2014-08-17T17:06:26Z</time>
				<extensions>
					<speed>2.0</speed>
				</extensions>
			</trkpt>
			<trkpt lat="53.26772792" lon="-8.9222567">
				<ele>62.0</ele>
				<time>2014-08-17T17:06:27Z</time>
				<extensions>
					<speed>1.75</speed>
				</extensions>
			</trkpt>
			<trkpt lat="53.26774037" lon="-8.92224569">
				<ele>63.0</ele>
				<time>2014-08-17T17:06:28Z</time>
				<extensions>
					<speed>1.5</speed>
				</extensions>
			</trkpt>
			<trkpt lat="53.26774663" lon="-8.92222247">
				<ele>63.0</ele>
				<time>2014-08-17T17:06:29Z</time>
				<extensions>
					<speed>1.5</speed>
				</extensions>
			</trkpt>
			<trkpt lat="53.2677462" lon="-8.92220187">
				<ele>63.0</ele>
				<time>2014-08-17T17:06:30Z</time>
				<extensions>
					<speed>0.5</speed>
				</extensions>
			</trkpt>
			<trkpt lat="53.2677462" lon="-8.92218913">
				<ele>63.0</ele>
				<time>2014-08-17T17:06:31Z</time>
				<extensions>
					<speed>0.0</speed>
				</extensions>
			</trkpt>
			<trkpt lat="53.26775047" lon="-8.92218511">
				<ele>63.0</ele>
				<time>2014-08-17T17:06:32Z</time>
				<extensions>
					<speed>0.0</speed>
				</extensions>
			</trkpt>
			<trkpt lat="53.26774992" lon="-8.92218539">
				<ele>63.0</ele>
				<time>2014-08-17T17:06:33Z</time>
				<extensions>
					<speed>0.5</speed>
				</extensions>
			</trkpt>
			<trkpt lat="53.26774632" lon="-8.92219239">
				<ele>63.0</ele>
				<time>2014-08-17T17:06:34Z</time>
				<extensions>
					<speed>0.75</speed>
				</extensions>
			</trkpt>
			<trkpt lat="53.26773795" lon="-8.922193">
				<ele>64.0</ele>
				<time>2014-08-17T17:06:35Z</time>
				<extensions>
					<speed>0.25</speed>
				</extensions>
			</trkpt>
			<trkpt lat="53.26774086" lon="-8.92219253">
				<ele>67.0</ele>
				<time>2014-08-17T17:06:36Z</time>
				<extensions>
					<speed>0.0</speed>
				</extensions>
			</trkpt>
			<trkpt lat="53.26774153" lon="-8.92219045">
				<ele>67.0</ele>
				<time>2014-08-17T17:06:37Z</time>
				<extensions>
					<speed>0.0</speed>
				</extensions>
			</trkpt>
			<trkpt lat="53.26774073" lon="-8.92218859">
				<ele>67.0</ele>
				<time>2014-08-17T17:06:38Z</time>
				<extensions>
					<speed>1.0</speed>
				</extensions>
			</trkpt>
			<trkpt lat="53.26773609" lon="-8.92217536">
				<ele>67.0</ele>
				<time>2014-08-17T17:06:39Z</time>
				<extensions>
					<speed>1.25</speed>
				</extensions>
			</trkpt>
			<trkpt lat="53.2677331" lon="-8.92216392">
				<ele>67.0</ele>
				<time>2014-08-17T17:06:40Z</time>
				<extensions>
					<speed>1.0</speed>
				</extensions>
			</trkpt>
			<trkpt lat="53.26772901" lon="-8.92215912">
				<ele>68.0</ele>
				<time>2014-08-17T17:06:41Z</time>
				<extensions>
					<speed>0.0</speed>
				</extensions>
			</trkpt>
			<trkpt lat="53.26772744" lon="-8.9221605">
				<ele>67.0</ele>
				<time>2014-08-17T17:06:42Z</time>
				<extensions>
					<speed>0.0</speed>
				</extensions>
			</trkpt>
			<trkpt lat="53.26772814" lon="-8.9221636">
				<ele>68.0</ele>
				<time>2014-08-17T17:06:43Z</time>
				<extensions>
					<speed>0.0</speed>
				</extensions>
			</trkpt>
			<trkpt lat="53.26772455" lon="-8.92216228">
				<ele>67.0</ele>
				<time>2014-08-17T17:06:44Z</time>
				<extensions>
					<speed>0.0</speed>
				</extensions>
			</trkpt>
			<trkpt lat="53.26772263" lon="-8.9221672">
				<ele>67.0</ele>
				<time>2014-08-17T17:06:45Z</time>
				<extensions>
					<speed>0.0</speed>
				</extensions>
			</trkpt>
			<trkpt lat="53.2677234" lon="-8.92217085">
				<ele>67.0</ele>
				<time>2014-08-17T17:06:46Z</time>
				<extensions>
					<speed>0.0</speed>
				</extensions>
			</trkpt>
			<trkpt lat="53.26772109" lon="-8.92216883">
				<ele>67.0</ele>
				<time>2014-08-17T17:06:47Z</time>
				<extensions>
					<speed>0.0</speed>
				</extensions>
			</trkpt>
			<trkpt lat="53.26772388" lon="-8.92217166">
				<ele>67.0</ele>
				<time>2014-08-17T17:06:48Z</time>
				<extensions>
					<speed>0.0</speed>
				</extensions>
			</trkpt>
			<trkpt lat="53.26772137" lon="-8.92217243">
				<ele>67.0</ele>
				<time>2014-08-17T17:06:49Z</time>
				<extensions>
					<speed>0.0</speed>
				</extensions>
			</trkpt>
			<trkpt lat="53.26772104" lon="-8.92217048">
				<ele>67.0</ele>
				<time>2014-08-17T17:06:50Z</time>
				<extensions>
					<speed>0.0</speed>
				</extensions>
			</trkpt>
			<trkpt lat="53.26772057" lon="-8.92217024">
				<ele>67.0</ele>
				<time>2014-08-17T17:06:51Z</time>
				<extensions>
					<speed>0.0</speed>
				</extensions>
			</trkpt>
			<trkpt lat="53.26772046" lon="-8.9221697">
				<ele>67.0</ele>
				<time>2014-08-17T17:06:52Z</time>
				<extensions>
					<speed>0.0</speed>
				</extensions>
			</trkpt>
			<trkpt lat="53.26771989" lon="-8.92217305">
				<ele>66.0</ele>
				<time>2014-08-17T17:06:53Z</time>
				<extensions>
					<speed>0.0</speed>
				</extensions>
			</trkpt>
			<trkpt lat="53.26771989" lon="-8.92217264">
				<ele>66.0</ele>
				<time>2014-08-17T17:06:54Z</time>
				<extensions>
					<speed>0.0</speed>
				</extensions>
			</trkpt>
			<trkpt lat="53.2677182" lon="-8.922171">
				<ele>66.0</ele>
				<time>2014-08-17T17:06:55Z</time>
				<extensions>
					<speed>1.5</speed>
				</extensions>
			</trkpt>
			<trkpt lat="53.2677053" lon="-8.92213918">
				<ele>67.0</ele>
				<time>2014-08-17T17:06:56Z</time>
				<extensions>
					<speed>2.5</speed>
				</extensions>
			</trkpt>
			<trkpt lat="53.2676883" lon="-8.92211249">
				<ele>66.0</ele>
				<time>2014-08-17T17:06:57Z</time>
				<extensions>
					<speed>2.75</speed>
				</extensions>
			</trkpt>
			<trkpt lat="53.26767474" lon="-8.92207712">
				<ele>67.0</ele>
				<time>2014-08-17T17:06:58Z</time>
				<extensions>
					<speed>3.25</speed>
				</extensions>
			</trkpt>
			<trkpt lat="53.26765117" lon="-8.92204296">
				<ele>67.0</ele>
				<time>2014-08-17T17:06:59Z</time>
				<extensions>
					<speed>3.5</speed>
				</extensions>
			</trkpt>
			<trkpt lat="53.26762929" lon="-8.92200139">
				<ele>67.0</ele>
				<time>2014-08-17T17:07:00Z</time>
				<extensions>
					<speed>4.0</speed>
				</extensions>
			</trkpt>
			<trkpt lat="53.26760454" lon="-8.92195417">
				<ele>66.0</ele>
				<time>2014-08-17T17:07:01Z</time>
				<extensions>
					<speed>4.0</speed>
				</extensions>
			</trkpt>
			<trkpt lat="53.26758152" lon="-8.92191426">
				<ele>66.0</ele>
				<time>2014-08-17T17:07:02Z</time>
				<extensions>
					<speed>3.75</speed>
				</extensions>
			</trkpt>
			<trkpt lat="53.26755441" lon="-8.92186886">
				<ele>66.0</ele>
				<time>2014-08-17T17:07:03Z</time>
				<extensions>
					<speed>3.75</speed>
				</extensions>
			</trkpt>
			<trkpt lat="53.26753254" lon="-8.92182755">
				<ele>66.0</ele>
				<time>2014-08-17T17:07:04Z</time>
				<extensions>
					<speed>3.75</speed>
				</extensions>
			</trkpt>
			<trkpt lat="53.26752304" lon="-8.92178719">
				<ele>66.0</ele>
				<time>2014-08-17T17:07:05Z</time>
				<extensions>
					<speed>3.0</speed>
				</extensions>
			</trkpt>
			<trkpt lat="53.26751501" lon="-8.92176063">
				<ele>66.0</ele>
				<time>2014-08-17T17:07:06Z</time>
				<extensions>
					<speed>2.25</speed>
				</extensions>
			</trkpt>
			<trkpt lat="53.26751054" lon="-8.92172425">
				<ele>65.0</ele>
				<time>2014-08-17T17:07:07Z</time>
				<extensions>
					<speed>2.5</speed>
				</extensions>
			</trkpt>
			<trkpt lat="53.26751089" lon="-8.9216788">
				<ele>66.0</ele>
				<time>2014-08-17T17:07:08Z</time>
				<extensions>
					<speed>2.75</speed>
				</extensions>
			</trkpt>
			<trkpt lat="53.26752741" lon="-8.9216366">
				<ele>67.0</ele>
				<time>2014-08-17T17:07:09Z</time>
				<extensions>
					<speed>3.25</speed>
				</extensions>
			</trkpt>
			<trkpt lat="53.26755704" lon="-8.92160855">
				<ele>65.0</ele>
				<time>2014-08-17T17:07:10Z</time>
				<extensions>
					<speed>3.75</speed>
				</extensions>
			</trkpt>
			<trkpt lat="53.26758757" lon="-8.92159073">
				<ele>66.0</ele>
				<time>2014-08-17T17:07:11Z</time>
				<extensions>
					<speed>4.0</speed>
				</extensions>
			</trkpt>
			<trkpt lat="53.26761806" lon="-8.92156321">
				<ele>65.0</ele>
				<time>2014-08-17T17:07:12Z</time>
				<extensions>
					<speed>3.75</speed>
				</extensions>
			</trkpt>
			<trkpt lat="53.26764778" lon="-8.92154101">
				<ele>64.0</ele>
				<time>2014-08-17T17:07:13Z</time>
				<extensions>
					<speed>3.5</speed>
				</extensions>
			</trkpt>
			<trkpt lat="53.26767159" lon="-8.92151654">
				<ele>65.0</ele>
				<time>2014-08-17T17:07:14Z</time>
				<extensions>
					<speed>3.25</speed>
				</extensions>
			</trkpt>
			<trkpt lat="53.26769228" lon="-8.92149737">
				<ele>65.0</ele>
				<time>2014-08-17T17:07:15Z</time>
				<extensions>
					<speed>2.5</speed>
				</extensions>
			</trkpt>
			<trkpt lat="53.26770831" lon="-8.92148309">
				<ele>65.0</ele>
				<time>2014-08-17T17:07:16Z</time>
				<extensions>
					<speed>1.75</speed>
				</extensions>
			</trkpt>
			<trkpt lat="53.26771985" lon="-8.92147031">
				<ele>65.0</ele>
				<time>2014-08-17T17:07:17Z</time>
				<extensions>
					<speed>1.5</speed>
				</extensions>
			</trkpt>
			<trkpt lat="53.26772769" lon="-8.92146259">
				<ele>65.0</ele>
				<time>2014-08-17T17:07:18Z</time>
				<extensions>
					<speed>1.0</speed>
				</extensions>
			</trkpt>
			<trkpt lat="53.26773345" lon="-8.9214553">
				<ele>65.0</ele>
				<time>2014-08-17T17:07:19Z</time>
				<extensions>
					<speed>0.5</speed>
				</extensions>
			</trkpt>
			<trkpt lat="53.26773728" lon="-8.92144983">
				<ele>65.0</ele>
				<time>2014-08-17T17:07:20Z</time>
				<extensions>
					<speed>0.5</speed>
				</extensions>
			</trkpt>
			<trkpt lat="53.26773801" lon="-8.92145046">
				<ele>66.0</ele>
				<time>2014-08-17T17:07:21Z</time>
				<extensions>
					<speed>0.0</speed>
				</extensions>
			</trkpt>
			<trkpt lat="53.26773712" lon="-8.92145127">
				<ele>66.0</ele>
				<time>2014-08-17T17:07:22Z</time>
				<extensions>
					<speed>0.0</speed>
				</extensions>
			</trkpt>
			<trkpt lat="53.26773794" lon="-8.921451">
				<ele>66.0</ele>
				<time>2014-08-17T17:07:23Z</time>
				<extensions>
					<speed>0.75</speed>
				</extensions>
			</trkpt>
			<trkpt lat="53.26774348" lon="-8.92144125">
				<ele>65.0</ele>
				<time>2014-08-17T17:07:24Z</time>
				<extensions>
					<speed>0.75</speed>
				</extensions>
			</trkpt>
			<trkpt lat="53.26774989" lon="-8.92144454">
				<ele>66.0</ele>
				<time>2014-08-17T17:07:25Z</time>
				<extensions>
					<speed>0.75</speed>
				</extensions>
			</trkpt>
			<trkpt lat="53.26775629" lon="-8.92144782">
				<ele>66.0</ele>
				<time>2014-08-17T17:07:26Z</time>
				<extensions>
					<speed>0.75</speed>
				</extensions>
			</trkpt>
			<trkpt lat="53.26778638" lon="-8.92149289">
				<ele>64.0</ele>
				<time>2014-08-17T17:07:27Z</time>
				<extensions>
					<speed>2.5</speed>
				</extensions>
			</trkpt>
			<trkpt lat="53.26780174" lon="-8.92153354">
				<ele>63.0</ele>
				<time>2014-08-17T17:07:28Z</time>
				<extensions>
					<speed>2.5</speed>
				</extensions>
			</trkpt>
			<trkpt lat="53.26781589" lon="-8.92156383">
				<ele>63.0</ele>
				<time>2014-08-17T17:07:29Z</time>
				<extensions>
					<speed>2.25</speed>
				</extensions>
			</trkpt>
			<trkpt lat="53.26782777" lon="-8.9215925">
				<ele>63.0</ele>
				<time>2014-08-17T17:07:30Z</time>
				<extensions>
					<speed>2.25</speed>
				</extensions>
			</trkpt>
			<trkpt lat="53.26784823" lon="-8.92162838">
				<ele>62.0</ele>
				<time>2014-08-17T17:07:31Z</time>
				<extensions>
					<speed>2.75</speed>
				</extensions>
			</trkpt>
			<trkpt lat="53.26786271" lon="-8.92166188">
				<ele>62.0</ele>
				<time>2014-08-17T17:07:32Z</time>
				<extensions>
					<speed>2.75</speed>
				</extensions>
			</trkpt>
			<trkpt lat="53.26788266" lon="-8.92168608">
				<ele>63.0</ele>
				<time>2014-08-17T17:07:33Z</time>
				<extensions>
					<speed>2.5</speed>
				</extensions>
			</trkpt>
			<trkpt lat="53.2678943" lon="-8.92171723">
				<ele>63.0</ele>
				<time>2014-08-17T17:07:34Z</time>
				<extensions>
					<speed>2.5</speed>
				</extensions>
			</trkpt>
			<trkpt lat="53.26791113" lon="-8.9217593">
				<ele>63.0</ele>
				<time>2014-08-17T17:07:35Z</time>
				<extensions>
					<speed>2.75</speed>
				</extensions>
			</trkpt>
			<trkpt lat="53.26792823" lon="-8.9217886">
				<ele>63.0</ele>
				<time>2014-08-17T17:07:36Z</time>
				<extensions>
					<speed>3.0</speed>
				</extensions>
			</trkpt>
			<trkpt lat="53.2679384" lon="-8.92182889">
				<ele>62.0</ele>
				<time>2014-08-17T17:07:37Z</time>
				<extensions>
					<speed>3.0</speed>
				</extensions>
			</trkpt>
			<trkpt lat="53.2679749" lon="-8.92187965">
				<ele>62.0</ele>
				<time>2014-08-17T17:07:38Z</time>
				<extensions>
					<speed>4.5</speed>
				</extensions>
			</trkpt>
			<trkpt lat="53.26799877" lon="-8.92194705">
				<ele>62.0</ele>
				<time>2014-08-17T17:07:39Z</time>
				<extensions>
					<speed>5.25</speed>
				</extensions>
			</trkpt>
			<trkpt lat="53.26802357" lon="-8.92201523">
				<ele>63.0</ele>
				<time>2014-08-17T17:07:40Z</time>
				<extensions>
					<speed>5.0</speed>
				</extensions>
			</trkpt>
			<trkpt lat="53.26801453" lon="-8.92208631">
				<ele>62.0</ele>
				<time>2014-08-17T17:07:41Z</time>
				<extensions>
					<speed>4.5</speed>
				</extensions>
			</trkpt>
			<trkpt lat="53.26799318" lon="-8.92215586">
				<ele>62.0</ele>
				<time>2014-08-17T17:07:42Z</time>
				<extensions>
					<speed>5.0</speed>
				</extensions>
			</trkpt>
			<trkpt lat="53.26796025" lon="-8.92222425">
				<ele>62.0</ele>
				<time>2014-08-17T17:07:43Z</time>
				<extensions>
					<speed>5.5</speed>
				</extensions>
			</trkpt>
			<trkpt lat="53.26792717" lon="-8.92228632">
				<ele>63.0</ele>
				<time>2014-08-17T17:07:44Z</time>
				<extensions>
					<speed>5.75</speed>
				</extensions>
			</trkpt>
			<trkpt lat="53.26789919" lon="-8.92234712">
				<ele>63.0</ele>
				<time>2014-08-17T17:07:45Z</time>
				<extensions>
					<speed>5.5</speed>
				</extensions>
			</trkpt>
			<trkpt lat="53.26787298" lon="-8.92239879">
				<ele>63.0</ele>
				<time>2014-08-17T17:07:46Z</time>
				<extensions>
					<speed>4.25</speed>
				</extensions>
			</trkpt>
			<trkpt lat="53.26786263" lon="-8.9224391">
				<ele>63.0</ele>
				<time>2014-08-17T17:07:47Z</time>
				<extensions>
					<speed>2.5</speed>
				</extensions>
			</trkpt>
			<trkpt lat="53.26785874" lon="-8.92246589">
				<ele>64.0</ele>
				<time>2014-08-17T17:07:48Z</time>
				<extensions>
					<speed>1.25</speed>
				</extensions>
			</trkpt>
			<trkpt lat="53.26786044" lon="-8.92246724">
				<ele>64.0</ele>
				<time>2014-08-17T17:07:49Z</time>
				<extensions>
					<speed>0.0</speed>
				</extensions>
			</trkpt>
			<trkpt lat="53.26786209" lon="-8.92246381">
				<ele>64.0</ele>
				<time>2014-08-17T17:07:50Z</time>
				<extensions>
					<speed>0.0</speed>
				</extensions>
			</trkpt>
			<trkpt lat="53.26785763" lon="-8.92246465">
				<ele>64.0</ele>
				<time>2014-08-17T17:07:51Z</time>
				<extensions>
					<speed>0.0</speed>
				</extensions>
			</trkpt>
			<trkpt lat="53.26785779" lon="-8.92246419">
				<ele>64.0</ele>
				<time>2014-08-17T17:07:52Z</time>
				<extensions>
					<speed>0.25</speed>
				</extensions>
			</trkpt>
			<trkpt lat="53.26786012" lon="-8.92246331">
				<ele>65.0</ele>
				<time>2014-08-17T17:07:53Z</time>
				<extensions>
					<speed>0.0</speed>
				</extensions>
			</trkpt>
			<trkpt lat="53.26785939" lon="-8.92246464">
				<ele>65.0</ele>
				<time>2014-08-17T17:07:54Z</time>
				<extensions>
					<speed>0.0</speed>
				</extensions>
			</trkpt>
			<trkpt lat="53.26786017" lon="-8.92246122">
				<ele>66.0</ele>
				<time>2014-08-17T17:07:55Z</time>
				<extensions>
					<speed>0.0</speed>
				</extensions>
			</trkpt>
			<trkpt lat="53.26786165" lon="-8.92246042">
				<ele>66.0</ele>
				<time>2014-08-17T17:07:56Z</time>
				<extensions>
					<speed>0.0</speed>
				</extensions>
			</trkpt>
			<trkpt lat="53.26786216" lon="-8.92245911">
				<ele>66.0</ele>
				<time>2014-08-17T17:07:57Z</time>
				<extensions>
					<speed>0.0</speed>
				</extensions>
			</trkpt>
			<trkpt lat="53.26786173" lon="-8.92246101">
				<ele>66.0</ele>
				<time>2014-08-17T17:07:58Z</time>
				<extensions>
					<speed>0.0</speed>
				</extensions>
			</trkpt>
			<trkpt lat="53.26786305" lon="-8.92245739">
				<ele>67.0</ele>
				<time>2014-08-17T17:07:59Z</time>
				<extensions>
					<speed>0.0</speed>
				</extensions>
			</trkpt>
			<trkpt lat="53.26786171" lon="-8.92246154">
				<ele>67.0</ele>
				<time>2014-08-17T17:08:00Z</time>
				<extensions>
					<speed>0.0</speed>
				</extensions>
			</trkpt>
			<trkpt lat="53.26786169" lon="-8.92246918">
				<ele>67.0</ele>
				<time>2014-08-17T17:08:01Z</time>
				<extensions>
					<speed>0.0</speed>
				</extensions>
			</trkpt>
			<trkpt lat="53.2678629" lon="-8.92246702">
				<ele>67.0</ele>
				<time>2014-08-17T17:08:02Z</time>
				<extensions>
					<speed>0.0</speed>
				</extensions>
			</trkpt>
			<trkpt lat="53.2678636" lon="-8.92246695">
				<ele>67.0</ele>
				<time>2014-08-17T17:08:03Z</time>
				<extensions>
					<speed>0.0</speed>
				</extensions>
			</trkpt>
			<trkpt lat="53.26786408" lon="-8.92246733">
				<ele>67.0</ele>
				<time>2014-08-17T17:08:04Z</time>
				<extensions>
					<speed>0.0</speed>
				</extensions>
			</trkpt>
			<trkpt lat="53.26786314" lon="-8.92247143">
				<ele>67.0</ele>
				<time>2014-08-17T17:08:05Z</time>
				<extensions>
					<speed>2.25</speed>
				</extensions>
			</trkpt>
			<trkpt lat="53.26785489" lon="-8.9225232">
				<ele>67.0</ele>
				<time>2014-08-17T17:08:06Z</time>
				<extensions>
					<speed>3.75</speed>
				</extensions>
			</trkpt>
			<trkpt lat="53.26784646" lon="-8.92257788">
				<ele>67.0</ele>
				<time>2014-08-17T17:08:07Z</time>
				<extensions>
					<speed>4.0</speed>
				</extensions>
			</trkpt>
			<trkpt lat="53.26784809" lon="-8.92264107">
				<ele>66.0</ele>
				<time>2014-08-17T17:08:08Z</time>
				<extensions>
					<speed>3.75</speed>
				</extensions>
			</trkpt>
			<trkpt lat="53.26783948" lon="-8.92271521">
				<ele>66.0</ele>
				<time>2014-08-17T17:08:09Z</time>
				<extensions>
					<speed>4.75</speed>
				</extensions>
			</trkpt>
			<trkpt lat="53.26783862" lon="-8.92278479">
				<ele>66.0</ele>
				<time>2014-08-17T17:08:10Z</time>
				<extensions>
					<speed>4.75</speed>
				</extensions>
			</trkpt>
			<trkpt lat="53.26783959" lon="-8.92287848">
				<ele>66.0</ele>
				<time>2014-08-17T17:08:11Z</time>
				<extensions>
					<speed>4.75</speed>
				</extensions>
			</trkpt>
			<trkpt lat="53.26783765" lon="-8.92295535">
				<ele>66.0</ele>
				<time>2014-08-17T17:08:12Z</time>
				<extensions>
					<speed>4.25</speed>
				</extensions>
			</trkpt>
			<trkpt lat="53.26784384" lon="-8.92301506">
				<ele>65.0</ele>
				<time>2014-08-17T17:08:13Z</time>
				<extensions>
					<speed>3.25</speed>
				</extensions>
			</trkpt>
			<trkpt lat="53.26784863" lon="-8.92306238">
				<ele>64.0</ele>
				<time>2014-08-17T17:08:14Z</time>
				<extensions>
					<speed>3.25</speed>
				</extensions>
			</trkpt>
			<trkpt lat="53.26783956" lon="-8.92309934">
				<ele>64.0</ele>
				<time>2014-08-17T17:08:15Z</time>
				<extensions>
					<speed>2.25</speed>
				</extensions>
			</trkpt>
			<trkpt lat="53.2678379" lon="-8.92313061">
				<ele>64.0</ele>
				<time>2014-08-17T17:08:16Z</time>
				<extensions>
					<speed>1.75</speed>
				</extensions>
			</trkpt>
			<trkpt lat="53.26783493" lon="-8.92315732">
				<ele>64.0</ele>
				<time>2014-08-17T17:08:17Z</time>
				<extensions>
					<speed>1.75</speed>
				</extensions>
			</trkpt>
			<trkpt lat="53.26782806" lon="-8.92318131">
				<ele>64.0</ele>
				<time>2014-08-17T17:08:18Z</time>
				<extensions>
					<speed>1.25</speed>
				</extensions>
			</trkpt>
			<trkpt lat="53.26783008" lon="-8.92320233">
				<ele>63.0</ele>
				<time>2014-08-17T17:08:19Z</time>
				<extensions>
					<speed>0.75</speed>
				</extensions>
			</trkpt>
			<trkpt lat="53.26782631" lon="-8.9232121">
				<ele>64.0</ele>
				<time>2014-08-17T17:08:20Z</time>
				<extensions>
					<speed>0.5</speed>
				</extensions>
			</trkpt>
			<trkpt lat="53.26782469" lon="-8.92322906">
				<ele>65.0</ele>
				<time>2014-08-17T17:08:21Z</time>
				<extensions>
					<speed>0.75</speed>
				</extensions>
			</trkpt>
			<trkpt lat="53.26782297" lon="-8.9232475">
				<ele>65.0</ele>
				<time>2014-08-17T17:08:22Z</time>
				<extensions>
					<speed>2.0</speed>
				</extensions>
			</trkpt>
			<trkpt lat="53.26782277" lon="-8.9232716">
				<ele>64.0</ele>
				<time>2014-08-17T17:08:23Z</time>
				<extensions>
					<speed>1.75</speed>
				</extensions>
			</trkpt>
			<trkpt lat="53.26781965" lon="-8.92329039">
				<ele>64.0</ele>
				<time>2014-08-17T17:08:24Z</time>
				<extensions>
					<speed>1.0</speed>
				</extensions>
			</trkpt>
			<trkpt lat="53.26781837" lon="-8.9233003">
				<ele>64.0</ele>
				<time>2014-08-17T17:08:25Z</time>
				<extensions>
					<speed>0.0</speed>
				</extensions>
			</trkpt>
			<trkpt lat="53.26781785" lon="-8.92330037">
				<ele>65.0</ele>
				<time>2014-08-17T17:08:26Z</time>
				<extensions>
					<speed>0.0</speed>
				</extensions>
			</trkpt>
			<trkpt lat="53.26781608" lon="-8.923302">
				<ele>65.0</ele>
				<time>2014-08-17T17:08:27Z</time>
				<extensions>
					<speed>0.0</speed>
				</extensions>
			</trkpt>
			<trkpt lat="53.26781711" lon="-8.92329899">
				<ele>65.0</ele>
				<time>2014-08-17T17:08:28Z</time>
				<extensions>
					<speed>0.0</speed>
				</extensions>
			</trkpt>
			<trkpt lat="53.26781633" lon="-8.92329865">
				<ele>66.0</ele>
				<time>2014-08-17T17:08:29Z</time>
				<extensions>
					<speed>0.0</speed>
				</extensions>
			</trkpt>
			<trkpt lat="53.26781454" lon="-8.923298">
				<ele>66.0</ele>
				<time>2014-08-17T17:08:30Z</time>
				<extensions>
					<speed>0.0</speed>
				</extensions>
			</trkpt>
			<trkpt lat="53.26781331" lon="-8.92330115">
				<ele>66.0</ele>
				<time>2014-08-17T17:08:31Z</time>
				<extensions>
					<speed>0.0</speed>
				</extensions>
			</trkpt>
			<trkpt lat="53.26781286" lon="-8.92330339">
				<ele>66.0</ele>
				<time>2014-08-17T17:08:32Z</time>
				<extensions>
					<speed>1.25</speed>
				</extensions>
			</trkpt>
			<trkpt lat="53.26780371" lon="-8.92332793">
				<ele>66.0</ele>
				<time>2014-08-17T17:08:33Z</time>
				<extensions>
					<speed>1.5</speed>
				</extensions>
			</trkpt>
			<trkpt lat="53.26779399" lon="-8.92334857">
				<ele>65.0</ele>
				<time>2014-08-17T17:08:34Z</time>
				<extensions>
					<speed>1.75</speed>
				</extensions>
			</trkpt>
			<trkpt lat="53.26778611" lon="-8.92337209">
				<ele>65.0</ele>
				<time>2014-08-17T17:08:35Z</time>
				<extensions>
					<speed>2.0</speed>
				</extensions>
			</trkpt>
			<trkpt lat="53.26778174" lon="-8.92339826">
				<ele>64.0</ele>
				<time>2014-08-17T17:08:36Z</time>
				<extensions>
					<speed>2.0</speed>
				</extensions>
			</trkpt>
			<trkpt lat="53.26777438" lon="-8.92342475">
				<ele>64.0</ele>
				<time>2014-08-17T17:08:37Z</time>
				<extensions>
					<speed>1.75</speed>
				</extensions>
			</trkpt>
			<trkpt lat="53.26776913" lon="-8.92344961">
				<ele>64.0</ele>
				<time>2014-08-17T17:08:38Z</time>
				<extensions>
					<speed>1.75</speed>
				</extensions>
			</trkpt>
			<trkpt lat="53.26776307" lon="-8.92347576">
				<ele>64.0</ele>
				<time>2014-08-17T17:08:39Z</time>
				<extensions>
					<speed>1.75</speed>
				</extensions>
			</trkpt>
			<trkpt lat="53.26775881" lon="-8.9234935">
				<ele>64.0</ele>
				<time>2014-08-17T17:08:40Z</time>
				<extensions>
					<speed>1.5</speed>
				</extensions>
			</trkpt>
			<trkpt lat="53.26775456" lon="-8.92351555">
				<ele>64.0</ele>
				<time>2014-08-17T17:08:41Z</time>
				<extensions>
					<speed>1.5</speed>
				</extensions>
			</trkpt>
			<trkpt lat="53.26774521" lon="-8.9235334">
				<ele>64.0</ele>
				<time>2014-08-17T17:08:42Z</time>
				<extensions>
					<speed>1.5</speed>
				</extensions>
			</trkpt>
			<trkpt lat="53.26774153" lon="-8.92355102">
				<ele>65.0</ele>
				<time>2014-08-17T17:08:43Z</time>
				<extensions>
					<speed>1.0</speed>
				</extensions>
			</trkpt>
			<trkpt lat="53.26774141" lon="-8.92357241">
				<ele>65.0</ele>
				<time>2014-08-17T17:08:44Z</time>
				<extensions>
					<speed>1.0</speed>
				</extensions>
			</trkpt>
			<trkpt lat="53.26773951" lon="-8.92358895">
				<ele>65.0</ele>
				<time>2014-08-17T17:08:45Z</time>
				<extensions>
					<speed>1.0</speed>
				</extensions>
			</trkpt>
			<trkpt lat="53.26773667" lon="-8.92360587">
				<ele>66.0</ele>
				<time>2014-08-17T17:08:46Z</time>
				<extensions>
					<speed>1.25</speed>
				</extensions>
			</trkpt>
			<trkpt lat="53.26773039" lon="-8.92362527">
				<ele>66.0</ele>
				<time>2014-08-17T17:08:47Z</time>
				<extensions>
					<speed>1.5</speed>
				</extensions>
			</trkpt>
			<trkpt lat="53.26772699" lon="-8.92364961">
				<ele>66.0</ele>
				<time>2014-08-17T17:08:48Z</time>
				<extensions>
					<speed>1.75</speed>
				</extensions>
			</trkpt>
			<trkpt lat="53.26771765" lon="-8.92367676">
				<ele>66.0</ele>
				<time>2014-08-17T17:08:49Z</time>
				<extensions>
					<speed>1.75</speed>
				</extensions>
			</trkpt>
			<trkpt lat="53.26770732" lon="-8.92370276">
				<ele>66.0</ele>
				<time>2014-08-17T17:08:50Z</time>
				<extensions>
					<speed>1.75</speed>
				</extensions>
			</trkpt>
			<trkpt lat="53.26770352" lon="-8.92372992">
				<ele>66.0</ele>
				<time>2014-08-17T17:08:51Z</time>
				<extensions>
					<speed>2.0</speed>
				</extensions>
			</trkpt>
			<trkpt lat="53.26769588" lon="-8.92375936">
				<ele>65.0</ele>
				<time>2014-08-17T17:08:52Z</time>
				<extensions>
					<speed>2.0</speed>
				</extensions>
			</trkpt>
			<trkpt lat="53.26769245" lon="-8.92378433">
				<ele>66.0</ele>
				<time>2014-08-17T17:08:53Z</time>
				<extensions>
					<speed>1.75</speed>
				</extensions>
			</trkpt>
			<trkpt lat="53.26769075" lon="-8.92381179">
				<ele>66.0</ele>
				<time>2014-08-17T17:08:54Z</time>
				<extensions>
					<speed>1.75</speed>
				</extensions>
			</trkpt>
			<trkpt lat="53.26769116" lon="-8.92383651">
				<ele>66.0</ele>
				<time>2014-08-17T17:08:55Z</time>
				<extensions>
					<speed>1.25</speed>
				</extensions>
			</trkpt>
			<trkpt lat="53.26768381" lon="-8.92385184">
				<ele>65.0</ele>
				<time>2014-08-17T17:08:56Z</time>
				<extensions>
					<speed>1.0</speed>
				</extensions>
			</trkpt>
			<trkpt lat="53.26768668" lon="-8.92385933">
				<ele>65.0</ele>
				<time>2014-08-17T17:08:57Z</time>
				<extensions>
					<speed>1.0</speed>
				</extensions>
			</trkpt>
			<trkpt lat="53.26769181" lon="-8.92386509">
				<ele>65.0</ele>
				<time>2014-08-17T17:08:58Z</time>
				<extensions>
					<speed>0.5</speed>
				</extensions>
			</trkpt>
			<trkpt lat="53.26769461" lon="-8.92387163">
				<ele>65.0</ele>
				<time>2014-08-17T17:08:59Z</time>
				<extensions>
					<speed>0.0</speed>
				</extensions>
			</trkpt>
			<trkpt lat="53.26769461" lon="-8.92387163">
				<ele>65.0</ele>
				<time>2014-08-17T17:09:00Z</time>
				<extensions>
					<speed>0.0</speed>
				</extensions>
			</trkpt>
			<trkpt lat="53.26769496" lon="-8.9238708">
				<ele>65.0</ele>
				<time>2014-08-17T17:09:01Z</time>
				<extensions>
					<speed>0.0</speed>
				</extensions>
			</trkpt>
			<trkpt lat="53.26769471" lon="-8.92387184">
				<ele>65.0</ele>
				<time>2014-08-17T17:09:02Z</time>
				<extensions>
					<speed>0.0</speed>
				</extensions>
			</trkpt>
			<trkpt lat="53.26769524" lon="-8.92387133">
				<ele>65.0</ele>
				<time>2014-08-17T17:09:03Z</time>
				<extensions>
					<speed>0.5</speed>
				</extensions>
			</trkpt>
			<trkpt lat="53.26769794" lon="-8.92386674">
				<ele>66.0</ele>
				<time>2014-08-17T17:09:04Z</time>
				<extensions>
					<speed>0.0</speed>
				</extensions>
			</trkpt>
			<trkpt lat="53.26769911" lon="-8.92386294">
				<ele>66.0</ele>
				<time>2014-08-17T17:09:05Z</time>
				<extensions>
					<speed>0.0</speed>
				</extensions>
			</trkpt>
			<trkpt lat="53.26769882" lon="-8.92386481">
				<ele>66.0</ele>
				<time>2014-08-17T17:09:06Z</time>
				<extensions>
					<speed>0.0</speed>
				</extensions>
			</trkpt>
			<trkpt lat="53.26769875" lon="-8.92386631">
				<ele>66.0</ele>
				<time>2014-08-17T17:09:07Z</time>
				<extensions>
					<speed>0.75</speed>
				</extensions>
			</trkpt>
			<trkpt lat="53.2676925" lon="-8.92388449">
				<ele>66.0</ele>
				<time>2014-08-17T17:09:08Z</time>
				<extensions>
					<speed>1.25</speed>
				</extensions>
			</trkpt>
			<trkpt lat="53.26769499" lon="-8.92393601">
				<ele>67.0</ele>
				<time>2014-08-17T17:09:09Z</time>
				<extensions>
					<speed>2.0</speed>
				</extensions>
			</trkpt>
			<trkpt lat="53.26769358" lon="-8.9239556">
				<ele>66.0</ele>
				<time>2014-08-17T17:09:10Z</time>
				<extensions>
					<speed>1.5</speed>
				</extensions>
			</trkpt>
			<trkpt lat="53.26769234" lon="-8.92397916">
				<ele>65.0</ele>
				<time>2014-08-17T17:09:11Z</time>
				<extensions>
					<speed>1.75</speed>
				</extensions>
			</trkpt>
			<trkpt lat="53.26769069" lon="-8.92401179">
				<ele>65.0</ele>
				<time>2014-08-17T17:09:12Z</time>
				<extensions>
					<speed>1.5</speed>
				</extensions>
			</trkpt>
			<trkpt lat="53.26769086" lon="-8.92402195">
				<ele>64.0</ele>
				<time>2014-08-17T17:09:13Z</time>
				<extensions>
					<speed>1.0</speed>
				</extensions>
			</trkpt>
			<trkpt lat="53.26768799" lon="-8.92403412">
				<ele>64.0</ele>
				<time>2014-08-17T17:09:14Z</time>
				<extensions>
					<speed>0.75</speed>
				</extensions>
			</trkpt>
			<trkpt lat="53.26768746" lon="-8.92404399">
				<ele>64.0</ele>
				<time>2014-08-17T17:09:15Z</time>
				<extensions>
					<speed>0.75</speed>
				</extensions>
			</trkpt>
			<trkpt lat="53.26769204" lon="-8.92403942">
				<ele>65.0</ele>
				<time>2014-08-17T17:09:16Z</time>
				<extensions>
					<speed>0.0</speed>
				</extensions>
			</trkpt>
			<trkpt lat="53.2676933" lon="-8.92404184">
				<ele>65.0</ele>
				<time>2014-08-17T17:09:17Z</time>
				<extensions>
					<speed>0.0</speed>
				</extensions>
			</trkpt>
			<trkpt lat="53.26769469" lon="-8.92404773">
				<ele>65.0</ele>
				<time>2014-08-17T17:09:18Z</time>
				<extensions>
					<speed>0.0</speed>
				</extensions>
			</trkpt>
			<trkpt lat="53.26769519" lon="-8.92404558">
				<ele>65.0</ele>
				<time>2014-08-17T17:09:19Z</time>
				<extensions>
					<speed>0.0</speed>
				</extensions>
			</trkpt>
			<trkpt lat="53.26769689" lon="-8.92404799">
				<ele>65.0</ele>
				<time>2014-08-17T17:09:20Z</time>
				<extensions>
					<speed>0.0</speed>
				</extensions>
			</trkpt>
			<trkpt lat="53.26769563" lon="-8.92404578">
				<ele>64.0</ele>
				<time>2014-08-17T17:09:21Z</time>
				<extensions>
					<speed>0.0</speed>
				</extensions>
			</trkpt>
			<trkpt lat="53.2676959" lon="-8.92404559">
				<ele>64.0</ele>
				<time>2014-08-17T17:09:22Z</time>
				<extensions>
					<speed>0.25</speed>
				</extensions>
			</trkpt>
			<trkpt lat="53.26769643" lon="-8.92404952">
				<ele>64.0</ele>
				<time>2014-08-17T17:09:23Z</time>
				<extensions>
					<speed>0.0</speed>
				</extensions>
			</trkpt>
			<trkpt lat="53.26769303" lon="-8.92404909">
				<ele>64.0</ele>
				<time>2014-08-17T17:09:24Z</time>
				<extensions>
					<speed>0.0</speed>
				</extensions>
			</trkpt>
			<trkpt lat="53.2676878" lon="-8.9240536">
				<ele>64.0</ele>
				<time>2014-08-17T17:09:25Z</time>
				<extensions>
					<speed>0.0</speed>
				</extensions>
			</trkpt>
			<trkpt lat="53.26768925" lon="-8.92405579">
				<ele>64.0</ele>
				<time>2014-08-17T17:09:26Z</time>
				<extensions>
					<speed>0.0</speed>
				</extensions>
			</trkpt>
			<trkpt lat="53.26769004" lon="-8.92405227">
				<ele>64.0</ele>
				<time>2014-08-17T17:09:27Z</time>
				<extensions>
					<speed>0.0</speed>
				</extensions>
			</trkpt>
			<trkpt lat="53.26768959" lon="-8.92405004">
				<ele>63.0</ele>
				<time>2014-08-17T17:09:28Z</time>
				<extensions>
					<speed>0.0</speed>
				</extensions>
			</trkpt>
			<trkpt lat="53.26769006" lon="-8.92404796">
				<ele>63.0</ele>
				<time>2014-08-17T17:09:29Z</time>
				<extensions>
					<speed>0.0</speed>
				</extensions>
			</trkpt>
			<trkpt lat="53.2676906" lon="-8.92404737">
				<ele>64.0</ele>
				<time>2014-08-17T17:09:30Z</time>
				<extensions>
					<speed>0.0</speed>
				</extensions>
			</trkpt>
			<trkpt lat="53.2676902" lon="-8.9240471">
				<ele>64.0</ele>
				<time>2014-08-17T17:09:31Z</time>
				<extensions>
					<speed>0.25</speed>
				</extensions>
			</trkpt>
			<trkpt lat="53.26769248" lon="-8.92404824">
				<ele>64.0</ele>
				<time>2014-08-17T17:09:32Z</time>
				<extensions>
					<speed>0.0</speed>
				</extensions>
			</trkpt>
			<trkpt lat="53.26768595" lon="-8.92404762">
				<ele>63.0</ele>
				<time>2014-08-17T17:09:33Z</time>
				<extensions>
					<speed>0.0</speed>
				</extensions>
			</trkpt>
			<trkpt lat="53.26768626" lon="-8.92404988">
				<ele>63.0</ele>
				<time>2014-08-17T17:09:34Z</time>
				<extensions>
					<speed>0.0</speed>
				</extensions>
			</trkpt>
			<trkpt lat="53.26768612" lon="-8.92405107">
				<ele>63.0</ele>
				<time>2014-08-17T17:09:35Z</time>
				<extensions>
					<speed>0.0</speed>
				</extensions>
			</trkpt>
			<trkpt lat="53.26768419" lon="-8.92405106">
				<ele>63.0</ele>
				<time>2014-08-17T17:09:36Z</time>
				<extensions>
					<speed>0.0</speed>
				</extensions>
			</trkpt>
			<trkpt lat="53.26768189" lon="-8.92405463">
				<ele>63.0</ele>
				<time>2014-08-17T17:09:37Z</time>
				<extensions>
					<speed>0.0</speed>
				</extensions>
			</trkpt>
			<trkpt lat="53.26767886" lon="-8.92405693">
				<ele>63.0</ele>
				<time>2014-08-17T17:09:38Z</time>
				<extensions>
					<speed>0.0</speed>
				</extensions>
			</trkpt>
			<trkpt lat="53.26767634" lon="-8.92405349">
				<ele>63.0</ele>
				<time>2014-08-17T17:09:39Z</time>
				<extensions>
					<speed>0.0</speed>
				</extensions>
			</trkpt>
			<trkpt lat="53.26767947" lon="-8.92405775">
				<ele>63.0</ele>
				<time>2014-08-17T17:09:40Z</time>
				<extensions>
					<speed>0.0</speed>
				</extensions>
			</trkpt>
			<trkpt lat="53.26767892" lon="-8.92405909">
				<ele>63.0</ele>
				<time>2014-08-17T17:09:41Z</time>
				<extensions>
					<speed>0.75</speed>
				</extensions>
			</trkpt>
			<trkpt lat="53.26767041" lon="-8.92407935">
				<ele>63.0</ele>
				<time>2014-08-17T17:09:42Z</time>
				<extensions>
					<speed>2.0</speed>
				</extensions>
			</trkpt>
			<trkpt lat="53.26765608" lon="-8.92409567">
				<ele>64.0</ele>
				<time>2014-08-17T17:09:43Z</time>
				<extensions>
					<speed>2.25</speed>
				</extensions>
			</trkpt>
			<trkpt lat="53.267635" lon="-8.92409757">
				<ele>62.0</ele>
				<time>2014-08-17T17:09:44Z</time>
				<extensions>
					<speed>2.0</speed>
				</extensions>
			</trkpt>
			<trkpt lat="53.26762089" lon="-8.92409299">
				<ele>62.0</ele>
				<time>2014-08-17T17:09:45Z</time>
				<extensions>
					<speed>2.25</speed>
				</extensions>
			</trkpt>
			<trkpt lat="53.26760944" lon="-8.92406879">
				<ele>62.0</ele>
				<time>2014-08-17T17:09:46Z</time>
				<extensions>
					<speed>2.5</speed>
				</extensions>
			</trkpt>
			<trkpt lat="53.26760102" lon="-8.92403056">
				<ele>61.0</ele>
				<time>2014-08-17T17:09:47Z</time>
				<extensions>
					<speed>2.75</speed>
				</extensions>
			</trkpt>
			<trkpt lat="53.26760441" lon="-8.92399191">
				<ele>60.0</ele>
				<time>2014-08-17T17:09:48Z</time>
				<extensions>
					<speed>3.0</speed>
				</extensions>
			</trkpt>
			<trkpt lat="53.26762146" lon="-8.92395266">
				<ele>60.0</ele>
				<time>2014-08-17T17:09:49Z</time>
				<extensions>
					<speed>3.5</speed>
				</extensions>
			</trkpt>
			<trkpt lat="53.26764224" lon="-8.92391027">
				<ele>60.0</ele>
				<time>2014-08-17T17:09:50Z</time>
				<extensions>
					<speed>3.25</speed>
				</extensions>
			</trkpt>
			<trkpt lat="53.26766246" lon="-8.92387652">
				<ele>60.0</ele>
				<time>2014-08-17T17:09:51Z</time>
				<extensions>
					<speed>3.5</speed>
				</extensions>
			</trkpt>
			<trkpt lat="53.26768592" lon="-8.92382953">
				<ele>60.0</ele>
				<time>2014-08-17T17:09:52Z</time>
				<extensions>
					<speed>4.5</speed>
				</extensions>
			</trkpt>
			<trkpt lat="53.26770753" lon="-8.9237714">
				<ele>60.0</ele>
				<time>2014-08-17T17:09:53Z</time>
				<extensions>
					<speed>5.0</speed>
				</extensions>
			</trkpt>
			<trkpt lat="53.26772747" lon="-8.92370237">
				<ele>60.0</ele>
				<time>2014-08-17T17:09:54Z</time>
				<extensions>
					<speed>5.0</speed>
				</extensions>
			</trkpt>
			<trkpt lat="53.2677479" lon="-8.92362794">
				<ele>60.0</ele>
				<time>2014-08-17T17:09:55Z</time>
				<extensions>
					<speed>5.0</speed>
				</extensions>
			</trkpt>
			<trkpt lat="53.26776752" lon="-8.92356221">
				<ele>60.0</ele>
				<time>2014-08-17T17:09:56Z</time>
				<extensions>
					<speed>4.75</speed>
				</extensions>
			</trkpt>
			<trkpt lat="53.26778111" lon="-8.92350585">
				<ele>60.0</ele>
				<time>2014-08-17T17:09:57Z</time>
				<extensions>
					<speed>3.75</speed>
				</extensions>
			</trkpt>
			<trkpt lat="53.26779118" lon="-8.92345747">
				<ele>60.0</ele>
				<time>2014-08-17T17:09:58Z</time>
				<extensions>
					<speed>3.25</speed>
				</extensions>
			</trkpt>
			<trkpt lat="53.26779963" lon="-8.92342175">
				<ele>60.0</ele>
				<time>2014-08-17T17:09:59Z</time>
				<extensions>
					<speed>2.25</speed>
				</extensions>
			</trkpt>
			<trkpt lat="53.26780718" lon="-8.92339729">
				<ele>60.0</ele>
				<time>2014-08-17T17:10:00Z</time>
				<extensions>
					<speed>1.75</speed>
				</extensions>
			</trkpt>
			<trkpt lat="53.26781365" lon="-8.92337707">
				<ele>60.0</ele>
				<time>2014-08-17T17:10:01Z</time>
				<extensions>
					<speed>1.25</speed>
				</extensions>
			</trkpt>
			<trkpt lat="53.26781597" lon="-8.92336646">
				<ele>60.0</ele>
				<time>2014-08-17T17:10:02Z</time>
				<extensions>
					<speed>0.5</speed>
				</extensions>
			</trkpt>
			<trkpt lat="53.26781837" lon="-8.92336234">
				<ele>60.0</ele>
				<time>2014-08-17T17:10:03Z</time>
				<extensions>
					<speed>0.0</speed>
				</extensions>
			</trkpt>
			<trkpt lat="53.26781639" lon="-8.92336791">
				<ele>60.0</ele>
				<time>2014-08-17T17:10:04Z</time>
				<extensions>
					<speed>0.0</speed>
				</extensions>
			</trkpt>
			<trkpt lat="53.26781639" lon="-8.92336791">
				<ele>60.0</ele>
				<time>2014-08-17T17:10:05Z</time>
				<extensions>
					<speed>0.0</speed>
				</extensions>
			</trkpt>
			<trkpt lat="53.2678186" lon="-8.92336571">
				<ele>61.0</ele>
				<time>2014-08-17T17:10:06Z</time>
				<extensions>
					<speed>0.0</speed>
				</extensions>
			</trkpt>
			<trkpt lat="53.26781897" lon="-8.9233662">
				<ele>61.0</ele>
				<time>2014-08-17T17:10:07Z</time>
				<extensions>
					<speed>0.0</speed>
				</extensions>
			</trkpt>
			<trkpt lat="53.26782068" lon="-8.92336453">
				<ele>62.0</ele>
				<time>2014-08-17T17:10:08Z</time>
				<extensions>
					<speed>0.0</speed>
				</extensions>
			</trkpt>
			<trkpt lat="53.26782172" lon="-8.92336143">
				<ele>62.0</ele>
				<time>2014-08-17T17:10:09Z</time>
				<extensions>
					<speed>0.0</speed>
				</extensions>
			</trkpt>
			<trkpt lat="53.2678221" lon="-8.92335813">
				<ele>62.0</ele>
				<time>2014-08-17T17:10:10Z</time>
				<extensions>
					<speed>0.0</speed>
				</extensions>
			</trkpt>
			<trkpt lat="53.26782009" lon="-8.92335518">
				<ele>63.0</ele>
				<time>2014-08-17T17:10:11Z</time>
				<extensions>
					<speed>0.0</speed>
				</extensions>
			</trkpt>
			<trkpt lat="53.26781967" lon="-8.92335359">
				<ele>62.0</ele>
				<time>2014-08-17T17:10:12Z</time>
				<extensions>
					<speed>0.0</speed>
				</extensions>
			</trkpt>
			<trkpt lat="53.26782036" lon="-8.92335383">
				<ele>62.0</ele>
				<time>2014-08-17T17:10:13Z</time>
				<extensions>
					<speed>0.0</speed>
				</extensions>
			</trkpt>
			<trkpt lat="53.26782105" lon="-8.92335441">
				<ele>62.0</ele>
				<time>2014-08-17T17:10:14Z</time>
				<extensions>
					<speed>0.0</speed>
				</extensions>
			</trkpt>
			<trkpt lat="53.26782118" lon="-8.92335458">
				<ele>62.0</ele>
				<time>2014-08-17T17:10:15Z</time>
				<extensions>
					<speed>0.0</speed>
				</extensions>
			</trkpt>
			<trkpt lat="53.26782117" lon="-8.92335452">
				<ele>62.0</ele>
				<time>2014-08-17T17:10:16Z</time>
				<extensions>
					<speed>0.0</speed>
				</extensions>
			</trkpt>
			<trkpt lat="53.26782171" lon="-8.92335127">
				<ele>62.0</ele>
				<time>2014-08-17T17:10:17Z</time>
				<extensions>
					<speed>1.75</speed>
				</extensions>
			</trkpt>
			<trkpt lat="53.26782597" lon="-8.92329442">
				<ele>62.0</ele>
				<time>2014-08-17T17:10:18Z</time>
				<extensions>
					<speed>4.0</speed>
				</extensions>
			</trkpt>
			<trkpt lat="53.26782993" lon="-8.9232365">
				<ele>61.0</ele>
				<time>2014-08-17T17:10:19Z</time>
				<extensions>
					<speed>4.75</speed>
				</extensions>
			</trkpt>
			<trkpt lat="53.26783328" lon="-8.92317202">
				<ele>62.0</ele>
				<time>2014-08-17T17:10:20Z</time>
				<extensions>
					<speed>4.75</speed>
				</extensions>
			</trkpt>
			<trkpt lat="53.26783481" lon="-8.92309865">
				<ele>61.0</ele>
				<time>2014-08-17T17:10:21Z</time>
				<extensions>
					<speed>5.0</speed>
				</extensions>
			</trkpt>
			<trkpt lat="53.26783098" lon="-8.9230057">
				<ele>61.0</ele>
				<time>2014-08-17T17:10:22Z</time>
				<extensions>
					<speed>6.25</speed>
				</extensions>
			</trkpt>
			<trkpt lat="53.26783225" lon="-8.92290743">
				<ele>61.0</ele>
				<time>2014-08-17T17:10:23Z</time>
				<extensions>
					<speed>6.5</speed>
				</extensions>
			</trkpt>
			<trkpt lat="53.26783116" lon="-8.92281053">
				<ele>61.0</ele>
				<time>2014-08-17T17:10:24Z</time>
				<extensions>
					<speed>6.0</speed>
				</extensions>
			</trkpt>
			<trkpt lat="53.26782419" lon="-8.92272252">
				<ele>61.0</ele>
				<time>2014-08-17T17:10:25Z</time>
				<extensions>
					<speed>5.25</speed>
				</extensions>
			</trkpt>
			<trkpt lat="53.267827" lon="-8.92265108">
				<ele>60.0</ele>
				<time>2014-08-17T17:10:26Z</time>
				<extensions>
					<speed>4.75</speed>
				</extensions>
			</trkpt>
			<trkpt lat="53.26784622" lon="-8.92258092">
				<ele>60.0</ele>
				<time>2014-08-17T17:10:27Z</time>
				<extensions>
					<speed>4.5</speed>
				</extensions>
			</trkpt>
			<trkpt lat="53.26785995" lon="-8.92252095">
				<ele>59.0</ele>
				<time>2014-08-17T17:10:28Z</time>
				<extensions>
					<speed>4.25</speed>
				</extensions>
			</trkpt>
			<trkpt lat="53.2678801" lon="-8.92246518">
				<ele>60.0</ele>
				<time>2014-08-17T17:10:29Z</time>
				<extensions>
					<speed>4.25</speed>
				</extensions>
			</trkpt>
			<trkpt lat="53.26789715" lon="-8.92241514">
				<ele>59.0</ele>
				<time>2014-08-17T17:10:30Z</time>
				<extensions>
					<speed>3.75</speed>
				</extensions>
			</trkpt>
			<trkpt lat="53.26791603" lon="-8.92236733">
				<ele>59.0</ele>
				<time>2014-08-17T17:10:31Z</time>
				<extensions>
					<speed>3.75</speed>
				</extensions>
			</trkpt>
			<trkpt lat="53.26793572" lon="-8.92232307">
				<ele>59.0</ele>
				<time>2014-08-17T17:10:32Z</time>
				<extensions>
					<speed>3.5</speed>
				</extensions>
			</trkpt>
			<trkpt lat="53.26795598" lon="-8.92228126">
				<ele>60.0</ele>
				<time>2014-08-17T17:10:33Z</time>
				<extensions>
					<speed>3.25</speed>
				</extensions>
			</trkpt>
			<trkpt lat="53.26797655" lon="-8.92225291">
				<ele>60.0</ele>
				<time>2014-08-17T17:10:34Z</time>
				<extensions>
					<speed>2.75</speed>
				</extensions>
			</trkpt>
			<trkpt lat="53.26799172" lon="-8.92222097">
				<ele>61.0</ele>
				<time>2014-08-17T17:10:35Z</time>
				<extensions>
					<speed>2.25</speed>
				</extensions>
			</trkpt>
			<trkpt lat="53.26800814" lon="-8.92220427">
				<ele>62.0</ele>
				<time>2014-08-17T17:10:36Z</time>
				<extensions>
					<speed>2.0</speed>
				</extensions>
			</trkpt>
			<trkpt lat="53.26802652" lon="-8.92219469">
				<ele>62.0</ele>
				<time>2014-08-17T17:10:37Z</time>
				<extensions>
					<speed>2.0</speed>
				</extensions>
			</trkpt>
			<trkpt lat="53.26804069" lon="-8.92218252">
				<ele>63.0</ele>
				<time>2014-08-17T17:10:38Z</time>
				<extensions>
					<speed>1.25</speed>
				</extensions>
			</trkpt>
			<trkpt lat="53.26804982" lon="-8.92218531">
				<ele>62.0</ele>
				<time>2014-08-17T17:10:39Z</time>
				<extensions>
					<speed>0.75</speed>
				</extensions>
			</trkpt>
			<trkpt lat="53.26805959" lon="-8.92218805">
				<ele>63.0</ele>
				<time>2014-08-17T17:10:40Z</time>
				<extensions>
					<speed>1.0</speed>
				</extensions>
			</trkpt>
			<trkpt lat="53.26807301" lon="-8.92219608">
				<ele>63.0</ele>
				<time>2014-08-17T17:10:41Z</time>
				<extensions>
					<speed>2.0</speed>
				</extensions>
			</trkpt>
			<trkpt lat="53.26809272" lon="-8.92221268">
				<ele>62.0</ele>
				<time>2014-08-17T17:10:42Z</time>
				<extensions>
					<speed>2.5</speed>
				</extensions>
			</trkpt>
			<trkpt lat="53.26811432" lon="-8.92223977">
				<ele>62.0</ele>
				<time>2014-08-17T17:10:43Z</time>
				<extensions>
					<speed>2.25</speed>
				</extensions>
			</trkpt>
			<trkpt lat="53.2681315" lon="-8.92226721">
				<ele>62.0</ele>
				<time>2014-08-17T17:10:44Z</time>
				<extensions>
					<speed>3.0</speed>
				</extensions>
			</trkpt>
			<trkpt lat="53.26814948" lon="-8.92231108">
				<ele>62.0</ele>
				<time>2014-08-17T17:10:45Z</time>
				<extensions>
					<speed>3.5</speed>
				</extensions>
			</trkpt>
			<trkpt lat="53.26816162" lon="-8.92235644">
				<ele>62.0</ele>
				<time>2014-08-17T17:10:46Z</time>
				<extensions>
					<speed>3.0</speed>
				</extensions>
			</trkpt>
			<trkpt lat="53.26817736" lon="-8.92238343">
				<ele>62.0</ele>
				<time>2014-08-17T17:10:47Z</time>
				<extensions>
					<speed>2.5</speed>
				</extensions>
			</trkpt>
			<trkpt lat="53.26819003" lon="-8.92241391">
				<ele>61.0</ele>
				<time>2014-08-17T17:10:48Z</time>
				<extensions>
					<speed>2.0</speed>
				</extensions>
			</trkpt>
			<trkpt lat="53.26819757" lon="-8.92243791">
				<ele>61.0</ele>
				<time>2014-08-17T17:10:49Z</time>
				<extensions>
					<speed>1.5</speed>
				</extensions>
			</trkpt>
			<trkpt lat="53.26820188" lon="-8.92245549">
				<ele>61.0</ele>
				<time>2014-08-17T17:10:50Z</time>
				<extensions>
					<speed>1.25</speed>
				</extensions>
			</trkpt>
			<trkpt lat="53.26820747" lon="-8.9224768">
				<ele>61.0</ele>
				<time>2014-08-17T17:10:51Z</time>
				<extensions>
					<speed>1.5</speed>
				</extensions>
			</trkpt>
			<trkpt lat="53.26821561" lon="-8.92249581">
				<ele>61.0</ele>
				<time>2014-08-17T17:10:52Z</time>
				<extensions>
					<speed>1.5</speed>
				</extensions>
			</trkpt>
			<trkpt lat="53.26822374" lon="-8.92251483">
				<ele>62.0</ele>
				<time>2014-08-17T17:10:53Z</time>
				<extensions>
					<speed>1.5</speed>
				</extensions>
			</trkpt>
			<trkpt lat="53.26823062" lon="-8.92254527">
				<ele>60.0</ele>
				<time>2014-08-17T17:10:54Z</time>
				<extensions>
					<speed>1.75</speed>
				</extensions>
			</trkpt>
			<trkpt lat="53.26822334" lon="-8.92256993">
				<ele>60.0</ele>
				<time>2014-08-17T17:10:55Z</time>
				<extensions>
					<speed>1.25</speed>
				</extensions>
			</trkpt>
			<trkpt lat="53.26822502" lon="-8.92259691">
				<ele>60.0</ele>
				<time>2014-08-17T17:10:56Z</time>
				<extensions>
					<speed>1.5</speed>
				</extensions>
			</trkpt>
			<trkpt lat="53.26822438" lon="-8.92262479">
				<ele>61.0</ele>
				<time>2014-08-17T17:10:57Z</time>
				<extensions>
					<speed>1.75</speed>
				</extensions>
			</trkpt>
			<trkpt lat="53.26821906" lon="-8.92266467">
				<ele>61.0</ele>
				<time>2014-08-17T17:10:58Z</time>
				<extensions>
					<speed>2.25</speed>
				</extensions>
			</trkpt>
			<trkpt lat="53.26821881" lon="-8.92270451">
				<ele>62.0</ele>
				<time>2014-08-17T17:10:59Z</time>
				<extensions>
					<speed>2.25</speed>
				</extensions>
			</trkpt>
			<trkpt lat="53.2682199" lon="-8.92273214">
				<ele>61.0</ele>
				<time>2014-08-17T17:11:00Z</time>
				<extensions>
					<speed>1.5</speed>
				</extensions>
			</trkpt>
			<trkpt lat="53.26822761" lon="-8.92274395">
				<ele>61.0</ele>
				<time>2014-08-17T17:11:01Z</time>
				<extensions>
					<speed>0.75</speed>
				</extensions>
			</trkpt>
			<trkpt lat="53.26822644" lon="-8.92275309">
				<ele>61.0</ele>
				<time>2014-08-17T17:11:02Z</time>
				<extensions>
					<speed>0.0</speed>
				</extensions>
			</trkpt>
			<trkpt lat="53.26822644" lon="-8.92275309">
				<ele>61.0</ele>
				<time>2014-08-17T17:11:03Z</time>
				<extensions>
					<speed>0.0</speed>
				</extensions>
			</trkpt>
			<trkpt lat="53.26822121" lon="-8.92275206">
				<ele>61.0</ele>
				<time>2014-08-17T17:11:04Z</time>
				<extensions>
					<speed>0.0</speed>
				</extensions>
			</trkpt>
			<trkpt lat="53.26822226" lon="-8.92274837">
				<ele>60.0</ele>
				<time>2014-08-17T17:11:05Z</time>
				<extensions>
					<speed>0.0</speed>
				</extensions>
			</trkpt>
			<trkpt lat="53.26822046" lon="-8.92275163">
				<ele>61.0</ele>
				<time>2014-08-17T17:11:06Z</time>
				<extensions>
					<speed>0.0</speed>
				</extensions>
			</trkpt>
			<trkpt lat="53.26822149" lon="-8.92275319">
				<ele>61.0</ele>
				<time>2014-08-17T17:11:07Z</time>
				<extensions>
					<speed>0.0</speed>
				</extensions>
			</trkpt>
			<trkpt lat="53.26822288" lon="-8.92275274">
				<ele>61.0</ele>
				<time>2014-08-17T17:11:08Z</time>
				<extensions>
					<speed>0.0</speed>
				</extensions>
			</trkpt>
			<trkpt lat="53.26822288" lon="-8.92275274">
				<ele>61.0</ele>
				<time>2014-08-17T17:11:09Z</time>
				<extensions>
					<speed>0.0</speed>
				</extensions>
			</trkpt>
			<trkpt lat="53.26822441" lon="-8.92274871">
				<ele>61.0</ele>
				<time>2014-08-17T17:11:10Z</time>
				<extensions>
					<speed>0.0</speed>
				</extensions>
			</trkpt>
			<trkpt lat="53.26822441" lon="-8.92274871">
				<ele>61.0</ele>
				<time>2014-08-17T17:11:11Z</time>
				<extensions>
					<speed>0.0</speed>
				</extensions>
			</trkpt>
			<trkpt lat="53.26822495" lon="-8.92274779">
				<ele>61.0</ele>
				<time>2014-08-17T17:11:12Z</time>
				<extensions>
					<speed>0.0</speed>
				</extensions>
			</trkpt>
			<trkpt lat="53.26822519" lon="-8.9227478">
				<ele>61.0</ele>
				<time>2014-08-17T17:11:13Z</time>
				<extensions>
					<speed>0.0</speed>
				</extensions>
			</trkpt>
			<trkpt lat="53.2682254" lon="-8.92274788">
				<ele>61.0</ele>
				<time>2014-08-17T17:11:14Z</time>
				<extensions>
					<speed>0.0</speed>
				</extensions>
			</trkpt>
			<trkpt lat="53.26822545" lon="-8.92274787">
				<ele>61.0</ele>
				<time>2014-08-17T17:11:15Z</time>
				<extensions>
					<speed>0.0</speed>
				</extensions>
			</trkpt>
			<trkpt lat="53.26822539" lon="-8.92274789">
				<ele>61.0</ele>
				<time>2014-08-17T17:11:16Z</time>
				<extensions>
					<speed>0.0</speed>
				</extensions>
			</trkpt>
			<trkpt lat="53.26822525" lon="-8.92274614">
				<ele>61.0</ele>
				<time>2014-08-17T17:11:17Z</time>
				<extensions>
					<speed>0.75</speed>
				</extensions>
			</trkpt>
			<trkpt lat="53.26822611" lon="-8.922725">
				<ele>61.0</ele>
				<time>2014-08-17T17:11:18Z</time>
				<extensions>
					<speed>0.75</speed>
				</extensions>
			</trkpt>
			<trkpt lat="53.26822005" lon="-8.92270378">
				<ele>59.0</ele>
				<time>2014-08-17T17:11:19Z</time>
				<extensions>
					<speed>1.0</speed>
				</extensions>
			</trkpt>
			<trkpt lat="53.26821355" lon="-8.92269118">
				<ele>59.0</ele>
				<time>2014-08-17T17:11:20Z</time>
				<extensions>
					<speed>1.0</speed>
				</extensions>
			</trkpt>
			<trkpt lat="53.26821274" lon="-8.92268267">
				<ele>60.0</ele>
				<time>2014-08-17T17:11:21Z</time>
				<extensions>
					<speed>1.0</speed>
				</extensions>
			</trkpt>
			<trkpt lat="53.26820746" lon="-8.9226721">
				<ele>61.0</ele>
				<time>2014-08-17T17:11:22Z</time>
				<extensions>
					<speed>0.5</speed>
				</extensions>
			</trkpt>
			<trkpt lat="53.26820541" lon="-8.92265824">
				<ele>60.0</ele>
				<time>2014-08-17T17:11:23Z</time>
				<extensions>
					<speed>0.25</speed>
				</extensions>
			</trkpt>
			<trkpt lat="53.26820575" lon="-8.92265972">
				<ele>60.0</ele>
				<time>2014-08-17T17:11:24Z</time>
				<extensions>
					<speed>0.0</speed>
				</extensions>
			</trkpt>
			<trkpt lat="53.26820743" lon="-8.92266035">
				<ele>60.0</ele>
				<time>2014-08-17T17:11:25Z</time>
				<extensions>
					<speed>1.25</speed>
				</extensions>
			</trkpt>
			<trkpt lat="53.26822625" lon="-8.92266397">
				<ele>60.0</ele>
				<time>2014-08-17T17:11:26Z</time>
				<extensions>
					<speed>1.75</speed>
				</extensions>
			</trkpt>
			<trkpt lat="53.26823899" lon="-8.92265544">
				<ele>60.0</ele>
				<time>2014-08-17T17:11:27Z</time>
				<extensions>
					<speed>1.0</speed>
				</extensions>
			</trkpt>
			<trkpt lat="53.26824506" lon="-8.9226523">
				<ele>61.0</ele>
				<time>2014-08-17T17:11:28Z</time>
				<extensions>
					<speed>0.5</speed>
				</extensions>
			</trkpt>
			<trkpt lat="53.26825454" lon="-8.92265147">
				<ele>61.0</ele>
				<time>2014-08-17T17:11:29Z</time>
				<extensions>
					<speed>1.75</speed>
				</extensions>
			</trkpt>
			<trkpt lat="53.26827906" lon="-8.92263817">
				<ele>63.0</ele>
				<time>2014-08-17T17:11:30Z</time>
				<extensions>
					<speed>3.75</speed>
				</extensions>
			</trkpt>
			<trkpt lat="53.26831504" lon="-8.92261264">
				<ele>63.0</ele>
				<time>2014-08-17T17:11:31Z</time>
				<extensions>
					<speed>4.5</speed>
				</extensions>
			</trkpt>
			<trkpt lat="53.26834677" lon="-8.92258376">
				<ele>63.0</ele>
				<time>2014-08-17T17:11:32Z</time>
				<extensions>
					<speed>4.25</speed>
				</extensions>
			</trkpt>
			<trkpt lat="53.26837713" lon="-8.92254778">
				<ele>63.0</ele>
				<time>2014-08-17T17:11:33Z</time>
				<extensions>
					<speed>4.25</speed>
				</extensions>
			</trkpt>
			<trkpt lat="53.26840371" lon="-8.92251369">
				<ele>63.0</ele>
				<time>2014-08-17T17:11:34Z</time>
				<extensions>
					<speed>4.0</speed>
				</extensions>
			</trkpt>
			<trkpt lat="53.26843011" lon="-8.92247475">
				<ele>63.0</ele>
				<time>2014-08-17T17:11:35Z</time>
				<extensions>
					<speed>4.0</speed>
				</extensions>
			</trkpt>
			<trkpt lat="53.26845904" lon="-8.92243427">
				<ele>63.0</ele>
				<time>2014-08-17T17:11:36Z</time>
				<extensions>
					<speed>3.75</speed>
				</extensions>
			</trkpt>
			<trkpt lat="53.26848384" lon="-8.92240388">
				<ele>63.0</ele>
				<time>2014-08-17T17:11:37Z</time>
				<extensions>
					<speed>3.25</speed>
				</extensions>
			</trkpt>
			<trkpt lat="53.26850622" lon="-8.92237614">
				<ele>63.0</ele>
				<time>2014-08-17T17:11:38Z</time>
				<extensions>
					<speed>3.25</speed>
				</extensions>
			</trkpt>
			<trkpt lat="53.26852311" lon="-8.92234088">
				<ele>63.0</ele>
				<time>2014-08-17T17:11:39Z</time>
				<extensions>
					<speed>2.75</speed>
				</extensions>
			</trkpt>
			<trkpt lat="53.26854213" lon="-8.92231097">
				<ele>63.0</ele>
				<time>2014-08-17T17:11:40Z</time>
				<extensions>
					<speed>2.5</speed>
				</extensions>
			</trkpt>
			<trkpt lat="53.26855286" lon="-8.92228305">
				<ele>63.0</ele>
				<time>2014-08-17T17:11:41Z</time>
				<extensions>
					<speed>2.25</speed>
				</extensions>
			</trkpt>
			<trkpt lat="53.26857054" lon="-8.92225679">
				<ele>63.0</ele>
				<time>2014-08-17T17:11:42Z</time>
				<extensions>
					<speed>1.75</speed>
				</extensions>
			</trkpt>
			<trkpt lat="53.26858362" lon="-8.92223781">
				<ele>63.0</ele>
				<time>2014-08-17T17:11:43Z</time>
				<extensions>
					<speed>2.0</speed>
				</extensions>
			</trkpt>
			<trkpt lat="53.26858523" lon="-8.92222134">
				<ele>62.0</ele>
				<time>2014-08-17T17:11:44Z</time>
				<extensions>
					<speed>1.5</speed>
				</extensions>
			</trkpt>
			<trkpt lat="53.26859197" lon="-8.92220495">
				<ele>62.0</ele>
				<time>2014-08-17T17:11:45Z</time>
				<extensions>
					<speed>1.0</speed>
				</extensions>
			</trkpt>
			<trkpt lat="53.26859863" lon="-8.92219646">
				<ele>62.0</ele>
				<time>2014-08-17T17:11:46Z</time>
				<extensions>
					<speed>0.5</speed>
				</extensions>
			</trkpt>
			<trkpt lat="53.26859834" lon="-8.92219205">
				<ele>62.0</ele>
				<time>2014-08-17T17:11:47Z</time>
				<extensions>
					<speed>0.25</speed>
				</extensions>
			</trkpt>
			<trkpt lat="53.26859655" lon="-8.92218767">
				<ele>63.0</ele>
				<time>2014-08-17T17:11:48Z</time>
				<extensions>
					<speed>0.0</speed>
				</extensions>
			</trkpt>
			<trkpt lat="53.26859819" lon="-8.92218592">
				<ele>63.0</ele>
				<time>2014-08-17T17:11:49Z</time>
				<extensions>
					<speed>0.0</speed>
				</extensions>
			</trkpt>
			<trkpt lat="53.26859543" lon="-8.92218477">
				<ele>63.0</ele>
				<time>2014-08-17T17:11:50Z</time>
				<extensions>
					<speed>0.0</speed>
				</extensions>
			</trkpt>
			<trkpt lat="53.26859656" lon="-8.92218244">
				<ele>63.0</ele>
				<time>2014-08-17T17:11:51Z</time>
				<extensions>
					<speed>1.5</speed>
				</extensions>
			</trkpt>
			<trkpt lat="53.26860232" lon="-8.92215733">
				<ele>62.0</ele>
				<time>2014-08-17T17:11:52Z</time>
				<extensions>
					<speed>2.25</speed>
				</extensions>
			</trkpt>
			<trkpt lat="53.26861593" lon="-8.92212932">
				<ele>63.0</ele>
				<time>2014-08-17T17:11:53Z</time>
				<extensions>
					<speed>2.5</speed>
				</extensions>
			</trkpt>
			<trkpt lat="53.26863124" lon="-8.92210686">
				<ele>62.0</ele>
				<time>2014-08-17T17:11:54Z</time>
				<extensions>
					<speed>2.5</speed>
				</extensions>
			</trkpt>
			<trkpt lat="53.26865173" lon="-8.92207855">
				<ele>61.0</ele>
				<time>2014-08-17T17:11:55Z</time>
				<extensions>
					<speed>2.5</speed>
				</extensions>
			</trkpt>
			<trkpt lat="53.26865725" lon="-8.92205605">
				<ele>61.0</ele>
				<time>2014-08-17T17:11:56Z</time>
				<extensions>
					<speed>2.25</speed>
				</extensions>
			</trkpt>
			<trkpt lat="53.26866701" lon="-8.92203832">
				<ele>61.0</ele>
				<time>2014-08-17T17:11:57Z</time>
				<extensions>
					<speed>1.5</speed>
				</extensions>
			</trkpt>
			<trkpt lat="53.26866827" lon="-8.92201796">
				<ele>61.0</ele>
				<time>2014-08-17T17:11:58Z</time>
				<extensions>
					<speed>1.25</speed>
				</extensions>
			</trkpt>
			<trkpt lat="53.26866699" lon="-8.92201098">
				<ele>60.0</ele>
				<time>2014-08-17T17:11:59Z</time>
				<extensions>
					<speed>0.0</speed>
				</extensions>
			</trkpt>
			<trkpt lat="53.26866679" lon="-8.92201311">
				<ele>60.0</ele>
				<time>2014-08-17T17:12:00Z</time>
				<extensions>
					<speed>0.0</speed>
				</extensions>
			</trkpt>
			<trkpt lat="53.26866802" lon="-8.92201342">
				<ele>60.0</ele>
				<time>2014-08-17T17:12:01Z</time>
				<extensions>
					<speed>0.0</speed>
				</extensions>
			</trkpt>
			<trkpt lat="53.26866591" lon="-8.92201463">
				<ele>60.0</ele>
				<time>2014-08-17T17:12:02Z</time>
				<extensions>
					<speed>0.0</speed>
				</extensions>
			</trkpt>
			<trkpt lat="53.26866733" lon="-8.92201301">
				<ele>60.0</ele>
				<time>2014-08-17T17:12:03Z</time>
				<extensions>
					<speed>0.0</speed>
				</extensions>
			</trkpt>
			<trkpt lat="53.26866846" lon="-8.92201397">
				<ele>60.0</ele>
				<time>2014-08-17T17:12:04Z</time>
				<extensions>
					<speed>0.0</speed>
				</extensions>
			</trkpt>
			<trkpt lat="53.26866701" lon="-8.92201585">
				<ele>60.0</ele>
				<time>2014-08-17T17:12:05Z</time>
				<extensions>
					<speed>0.0</speed>
				</extensions>
			</trkpt>
			<trkpt lat="53.26866721" lon="-8.92201945">
				<ele>59.0</ele>
				<time>2014-08-17T17:12:06Z</time>
				<extensions>
					<speed>0.0</speed>
				</extensions>
			</trkpt>
			<trkpt lat="53.26866739" lon="-8.92201917">
				<ele>60.0</ele>
				<time>2014-08-17T17:12:07Z</time>
				<extensions>
					<speed>0.0</speed>
				</extensions>
			</trkpt>
			<trkpt lat="53.26866649" lon="-8.92202241">
				<ele>60.0</ele>
				<time>2014-08-17T17:12:08Z</time>
				<extensions>
					<speed>0.0</speed>
				</extensions>
			</trkpt>
			<trkpt lat="53.26866513" lon="-8.92202086">
				<ele>60.0</ele>
				<time>2014-08-17T17:12:09Z</time>
				<extensions>
					<speed>0.0</speed>
				</extensions>
			</trkpt>
			<trkpt lat="53.26866498" lon="-8.92202123">
				<ele>60.0</ele>
				<time>2014-08-17T17:12:10Z</time>
				<extensions>
					<speed>0.0</speed>
				</extensions>
			</trkpt>
			<trkpt lat="53.26866504" lon="-8.92202159">
				<ele>60.0</ele>
				<time>2014-08-17T17:12:11Z</time>
				<extensions>
					<speed>0.0</speed>
				</extensions>
			</trkpt>
			<trkpt lat="53.26866534" lon="-8.92202165">
				<ele>60.0</ele>
				<time>2014-08-17T17:12:12Z</time>
				<extensions>
					<speed>0.0</speed>
				</extensions>
			</trkpt>
			<trkpt lat="53.26866535" lon="-8.92202166">
				<ele>60.0</ele>
				<time>2014-08-17T17:12:13Z</time>
				<extensions>
					<speed>0.0</speed>
				</extensions>
			</trkpt>
			<trkpt lat="53.26866535" lon="-8.92202167">
				<ele>60.0</ele>
				<time>2014-08-17T17:12:14Z</time>
				<extensions>
					<speed>0.0</speed>
				</extensions>
			</trkpt>
			<trkpt lat="53.26866533" lon="-8.92202169">
				<ele>60.0</ele>
				<time>2014-08-17T17:12:15Z</time>
				<extensions>
					<speed>0.0</speed>
				</extensions>
			</trkpt>
			<trkpt lat="53.26866533" lon="-8.92202169">
				<ele>60.0</ele>
				<time>2014-08-17T17:12:16Z</time>
				<extensions>
					<speed>0.0</speed>
				</extensions>
			</trkpt>
			<trkpt lat="53.26866536" lon="-8.92202171">
				<ele>60.0</ele>
				<time>2014-08-17T17:12:17Z</time>
				<extensions>
					<speed>0.0</speed>
				</extensions>
			</trkpt>
			<trkpt lat="53.26866536" lon="-8.9220217">
				<ele>60.0</ele>
				<time>2014-08-17T17:12:18Z</time>
				<extensions>
					<speed>0.0</speed>
				</extensions>
			</trkpt>
			<trkpt lat="53.26866537" lon="-8.92202169">
				<ele>60.0</ele>
				<time>2014-08-17T17:12:19Z</time>
				<extensions>
					<speed>0.0</speed>
				</extensions>
			</trkpt>
			<trkpt lat="53.26866542" lon="-8.92202168">
				<ele>60.0</ele>
				<time>2014-08-17T17:12:20Z</time>
				<extensions>
					<speed>0.0</speed>
				</extensions>
			</trkpt>
			<trkpt lat="53.2686648" lon="-8.92202192">
				<ele>60.0</ele>
				<time>2014-08-17T17:12:21Z</time>
				<extensions>
					<speed>0.5</speed>
				</extensions>
			</trkpt>
			<trkpt lat="53.26867042" lon="-8.92200958">
				<ele>61.0</ele>
				<time>2014-08-17T17:12:22Z</time>
				<extensions>
					<speed>0.0</speed>
				</extensions>
			</trkpt>
			<trkpt lat="53.26867138" lon="-8.92200916">
				<ele>61.0</ele>
				<time>2014-08-17T17:12:23Z</time>
				<extensions>
					<speed>0.0</speed>
				</extensions>
			</trkpt>
			<trkpt lat="53.26867545" lon="-8.92201151">
				<ele>61.0</ele>
				<time>2014-08-17T17:12:24Z</time>
				<extensions>
					<speed>0.0</speed>
				</extensions>
			</trkpt>
			<trkpt lat="53.26867898" lon="-8.92201481">
				<ele>61.0</ele>
				<time>2014-08-17T17:12:25Z</time>
				<extensions>
					<speed>0.0</speed>
				</extensions>
			</trkpt>
			<trkpt lat="53.26867929" lon="-8.9220135">
				<ele>61.0</ele>
				<time>2014-08-17T17:12:26Z</time>
				<extensions>
					<speed>0.0</speed>
				</extensions>
			</trkpt>
			<trkpt lat="53.26868064" lon="-8.9220117">
				<ele>61.0</ele>
				<time>2014-08-17T17:12:27Z</time>
				<extensions>
					<speed>0.0</speed>
				</extensions>
			</trkpt>
			<trkpt lat="53.26868274" lon="-8.92200927">
				<ele>61.0</ele>
				<time>2014-08-17T17:12:28Z</time>
				<extensions>
					<speed>0.0</speed>
				</extensions>
			</trkpt>
			<trkpt lat="53.26868122" lon="-8.92200559">
				<ele>61.0</ele>
				<time>2014-08-17T17:12:29Z</time>
				<extensions>
					<speed>0.0</speed>
				</extensions>
			</trkpt>
			<trkpt lat="53.26868282" lon="-8.9220023">
				<ele>62.0</ele>
				<time>2014-08-17T17:12:30Z</time>
				<extensions>
					<speed>0.0</speed>
				</extensions>
			</trkpt>
			<trkpt lat="53.26868386" lon="-8.92200005">
				<ele>62.0</ele>
				<time>2014-08-17T17:12:31Z</time>
				<extensions>
					<speed>1.0</speed>
				</extensions>
			</trkpt>
			<trkpt lat="53.26869762" lon="-8.92197837">
				<ele>63.0</ele>
				<time>2014-08-17T17:12:32Z</time>
				<extensions>
					<speed>2.0</speed>
				</extensions>
			</trkpt>
			<trkpt lat="53.26871455" lon="-8.92194689">
				<ele>63.0</ele>
				<time>2014-08-17T17:12:33Z</time>
				<extensions>
					<speed>3.0</speed>
				</extensions>
			</trkpt>
			<trkpt lat="53.26872308" lon="-8.92190574">
				<ele>62.0</ele>
				<time>2014-08-17T17:12:34Z</time>
				<extensions>
					<speed>2.75</speed>
				</extensions>
			</trkpt>
			<trkpt lat="53.2687154" lon="-8.92187022">
				<ele>62.0</ele>
				<time>2014-08-17T17:12:35Z</time>
				<extensions>
					<speed>2.25</speed>
				</extensions>
			</trkpt>
			<trkpt lat="53.26870937" lon="-8.92185358">
				<ele>63.0</ele>
				<time>2014-08-17T17:12:36Z</time>
				<extensions>
					<speed>0.75</speed>
				</extensions>
			</trkpt>
			<trkpt lat="53.26870032" lon="-8.92184637">
				<ele>64.0</ele>
				<time>2014-08-17T17:12:37Z</time>
				<extensions>
					<speed>0.0</speed>
				</extensions>
			</trkpt>
			<trkpt lat="53.26870408" lon="-8.92184737">
				<ele>63.0</ele>
				<time>2014-08-17T17:12:38Z</time>
				<extensions>
					<speed>0.0</speed>
				</extensions>
			</trkpt>
			<trkpt lat="53.26870452" lon="-8.92184817">
				<ele>64.0</ele>
				<time>2014-08-17T17:12:39Z</time>
				<extensions>
					<speed>0.0</speed>
				</extensions>
			</trkpt>
			<trkpt lat="53.26870466" lon="-8.92184412">
				<ele>65.0</ele>
				<time>2014-08-17T17:12:40Z</time>
				<extensions>
					<speed>0.0</speed>
				</extensions>
			</trkpt>
			<trkpt lat="53.26870513" lon="-8.9218458">
				<ele>65.0</ele>
				<time>2014-08-17T17:12:41Z</time>
				<extensions>
					<speed>1.0</speed>
				</extensions>
			</trkpt>
			<trkpt lat="53.26871144" lon="-8.92187127">
				<ele>64.0</ele>
				<time>2014-08-17T17:12:42Z</time>
				<extensions>
					<speed>1.5</speed>
				</extensions>
			</trkpt>
			<trkpt lat="53.26872465" lon="-8.92188261">
				<ele>64.0</ele>
				<time>2014-08-17T17:12:43Z</time>
				<extensions>
					<speed>1.75</speed>
				</extensions>
			</trkpt>
			<trkpt lat="53.26873615" lon="-8.92188943">
				<ele>63.0</ele>
				<time>2014-08-17T17:12:44Z</time>
				<extensions>
					<speed>1.75</speed>
				</extensions>
			</trkpt>
			<trkpt lat="53.26875008" lon="-8.92190389">
				<ele>63.0</ele>
				<time>2014-08-17T17:12:45Z</time>
				<extensions>
					<speed>1.5</speed>
				</extensions>
			</trkpt>
			<trkpt lat="53.26876166" lon="-8.92192079">
				<ele>63.0</ele>
				<time>2014-08-17T17:12:46Z</time>
				<extensions>
					<speed>1.25</speed>
				</extensions>
			</trkpt>
			<trkpt lat="53.26877173" lon="-8.92193258">
				<ele>63.0</ele>
				<time>2014-08-17T17:12:47Z</time>
				<extensions>
					<speed>1.25</speed>
				</extensions>
			</trkpt>
			<trkpt lat="53.26878181" lon="-8.92194436">
				<ele>63.0</ele>
				<time>2014-08-17T17:12:48Z</time>
				<extensions>
					<speed>1.25</speed>
				</extensions>
			</trkpt>
			<trkpt lat="53.26873478" lon="-8.92192564">
				<ele>63.0</ele>
				<time>2014-08-17T17:12:49Z</time>
				<extensions>
					<speed>2.0</speed>
				</extensions>
			</trkpt>
			<trkpt lat="53.2686993" lon="-8.92194098">
				<ele>63.0</ele>
				<time>2014-08-17T17:12:50Z</time>
				<extensions>
					<speed>3.5</speed>
				</extensions>
			</trkpt>
			<trkpt lat="53.26867818" lon="-8.92199648">
				<ele>63.0</ele>
				<time>2014-08-17T17:12:51Z</time>
				<extensions>
					<speed>4.75</speed>
				</extensions>
			</trkpt>
			<trkpt lat="53.26864876" lon="-8.92206806">
				<ele>62.0</ele>
				<time>2014-08-17T17:12:52Z</time>
				<extensions>
					<speed>5.0</speed>
				</extensions>
			</trkpt>
			<trkpt lat="53.26861612" lon="-8.92213573">
				<ele>62.0</ele>
				<time>2014-08-17T17:12:53Z</time>
				<extensions>
					<speed>5.75</speed>
				</extensions>
			</trkpt>
			<trkpt lat="53.26858429" lon="-8.92219322">
				<ele>62.0</ele>
				<time>2014-08-17T17:12:54Z</time>
				<extensions>
					<speed>6.5</speed>
				</extensions>
			</trkpt>
			<trkpt lat="53.26854289" lon="-8.92227272">
				<ele>62.0</ele>
				<time>2014-08-17T17:12:55Z</time>
				<extensions>
					<speed>6.75</speed>
				</extensions>
			</trkpt>
			<trkpt lat="53.26850149" lon="-8.92234539">
				<ele>63.0</ele>
				<time>2014-08-17T17:12:56Z</time>
				<extensions>
					<speed>6.75</speed>
				</extensions>
			</trkpt>
			<trkpt lat="53.26845714" lon="-8.92239833">
				<ele>62.0</ele>
				<time>2014-08-17T17:12:57Z</time>
				<extensions>
					<speed>6.25</speed>
				</extensions>
			</trkpt>
			<trkpt lat="53.26841986" lon="-8.92245675">
				<ele>63.0</ele>
				<time>2014-08-17T17:12:58Z</time>
				<extensions>
					<speed>5.75</speed>
				</extensions>
			</trkpt>
			<trkpt lat="53.26838003" lon="-8.92252272">
				<ele>63.0</ele>
				<time>2014-08-17T17:12:59Z</time>
				<extensions>
					<speed>5.75</speed>
				</extensions>
			</trkpt>
			<trkpt lat="53.26834302" lon="-8.92258258">
				<ele>63.0</ele>
				<time>2014-08-17T17:13:00Z</time>
				<extensions>
					<speed>5.75</speed>
				</extensions>
			</trkpt>
			<trkpt lat="53.2683379" lon="-8.922585">
				<ele>63.0</ele>
				<time>2014-08-17T17:13:01Z</time>
				<extensions>
					<speed>2.5</speed>
				</extensions>
			</trkpt>
			<trkpt lat="53.26833068" lon="-8.92256965">
				<ele>61.0</ele>
				<time>2014-08-17T17:13:02Z</time>
				<extensions>
					<speed>0.0</speed>
				</extensions>
			</trkpt>
			<trkpt lat="53.26833727" lon="-8.92258099">
				<ele>60.0</ele>
				<time>2014-08-17T17:13:03Z</time>
				<extensions>
					<speed>0.0</speed>
				</extensions>
			</trkpt>
			<trkpt lat="53.26833631" lon="-8.92258701">
				<ele>59.0</ele>
				<time>2014-08-17T17:13:04Z</time>
				<extensions>
					<speed>0.0</speed>
				</extensions>
			</trkpt>
			<trkpt lat="53.26833631" lon="-8.92258701">
				<ele>59.0</ele>
				<time>2014-08-17T17:13:05Z</time>
				<extensions>
					<speed>0.0</speed>
				</extensions>
			</trkpt>
			<trkpt lat="53.26834259" lon="-8.92258922">
				<ele>59.0</ele>
				<time>2014-08-17T17:13:06Z</time>
				<extensions>
					<speed>0.0</speed>
				</extensions>
			</trkpt>
			<trkpt lat="53.26834354" lon="-8.92258774">
				<ele>59.0</ele>
				<time>2014-08-17T17:13:07Z</time>
				<extensions>
					<speed>0.0</speed>
				</extensions>
			</trkpt>
			<trkpt lat="53.2683416" lon="-8.92258826">
				<ele>59.0</ele>
				<time>2014-08-17T17:13:08Z</time>
				<extensions>
					<speed>1.5</speed>
				</extensions>
			</trkpt>
			<trkpt lat="53.26832568" lon="-8.92258563">
				<ele>58.0</ele>
				<time>2014-08-17T17:13:09Z</time>
				<extensions>
					<speed>2.25</speed>
				</extensions>
			</trkpt>
			<trkpt lat="53.26830573" lon="-8.92257882">
				<ele>58.0</ele>
				<time>2014-08-17T17:13:10Z</time>
				<extensions>
					<speed>2.25</speed>
				</extensions>
			</trkpt>
			<trkpt lat="53.26827303" lon="-8.92252988">
				<ele>59.0</ele>
				<time>2014-08-17T17:13:11Z</time>
				<extensions>
					<speed>3.75</speed>
				</extensions>
			</trkpt>
			<trkpt lat="53.26825196" lon="-8.9224848">
				<ele>60.0</ele>
				<time>2014-08-17T17:13:12Z</time>
				<extensions>
					<speed>4.25</speed>
				</extensions>
			</trkpt>
			<trkpt lat="53.26823261" lon="-8.92243485">
				<ele>60.0</ele>
				<time>2014-08-17T17:13:13Z</time>
				<extensions>
					<speed>4.0</speed>
				</extensions>
			</trkpt>
			<trkpt lat="53.26821393" lon="-8.92238034">
				<ele>61.0</ele>
				<time>2014-08-17T17:13:14Z</time>
				<extensions>
					<speed>4.25</speed>
				</extensions>
			</trkpt>
			<trkpt lat="53.26818901" lon="-8.92231509">
				<ele>60.0</ele>
				<time>2014-08-17T17:13:15Z</time>
				<extensions>
					<speed>5.25</speed>
				</extensions>
			</trkpt>
			<trkpt lat="53.26816129" lon="-8.92224486">
				<ele>61.0</ele>
				<time>2014-08-17T17:13:16Z</time>
				<extensions>
					<speed>6.25</speed>
				</extensions>
			</trkpt>
			<trkpt lat="53.26813157" lon="-8.92216934">
				<ele>61.0</ele>
				<time>2014-08-17T17:13:17Z</time>
				<extensions>
					<speed>6.75</speed>
				</extensions>
			</trkpt>
			<trkpt lat="53.2680978" lon="-8.92208702">
				<ele>61.0</ele>
				<time>2014-08-17T17:13:18Z</time>
				<extensions>
					<speed>7.0</speed>
				</extensions>
			</trkpt>
			<trkpt lat="53.26805818" lon="-8.92199923">
				<ele>61.0</ele>
				<time>2014-08-17T17:13:19Z</time>
				<extensions>
					<speed>7.0</speed>
				</extensions>
			</trkpt>
			<trkpt lat="53.26802183" lon="-8.92191291">
				<ele>61.0</ele>
				<time>2014-08-17T17:13:20Z</time>
				<extensions>
					<speed>6.75</speed>
				</extensions>
			</trkpt>
			<trkpt lat="53.26798485" lon="-8.9218398">
				<ele>61.0</ele>
				<time>2014-08-17T17:13:21Z</time>
				<extensions>
					<speed>6.75</speed>
				</extensions>
			</trkpt>
			<trkpt lat="53.26795666" lon="-8.92175909">
				<ele>62.0</ele>
				<time>2014-08-17T17:13:22Z</time>
				<extensions>
					<speed>6.5</speed>
				</extensions>
			</trkpt>
			<trkpt lat="53.26792561" lon="-8.92167616">
				<ele>62.0</ele>
				<time>2014-08-17T17:13:23Z</time>
				<extensions>
					<speed>6.5</speed>
				</extensions>
			</trkpt>
			<trkpt lat="53.26789223" lon="-8.92159229">
				<ele>63.0</ele>
				<time>2014-08-17T17:13:24Z</time>
				<extensions>
					<speed>6.75</speed>
				</extensions>
			</trkpt>
			<trkpt lat="53.26786149" lon="-8.92151418">
				<ele>63.0</ele>
				<time>2014-08-17T17:13:25Z</time>
				<extensions>
					<speed>5.75</speed>
				</extensions>
			</trkpt>
			<trkpt lat="53.26782632" lon="-8.92145927">
				<ele>63.0</ele>
				<time>2014-08-17T17:13:26Z</time>
				<extensions>
					<speed>5.25</speed>
				</extensions>
			</trkpt>
			<trkpt lat="53.26778473" lon="-8.92144835">
				<ele>62.0</ele>
				<time>2014-08-17T17:13:27Z</time>
				<extensions>
					<speed>4.75</speed>
				</extensions>
			</trkpt>
			<trkpt lat="53.26774366" lon="-8.92146173">
				<ele>63.0</ele>
				<time>2014-08-17T17:13:28Z</time>
				<extensions>
					<speed>4.5</speed>
				</extensions>
			</trkpt>
			<trkpt lat="53.267704" lon="-8.92149602">
				<ele>63.0</ele>
				<time>2014-08-17T17:13:29Z</time>
				<extensions>
					<speed>4.5</speed>
				</extensions>
			</trkpt>
			<trkpt lat="53.26766956" lon="-8.92152275">
				<ele>63.0</ele>
				<time>2014-08-17T17:13:30Z</time>
				<extensions>
					<speed>4.75</speed>
				</extensions>
			</trkpt>
			<trkpt lat="53.26763338" lon="-8.92155992">
				<ele>63.0</ele>
				<time>2014-08-17T17:13:31Z</time>
				<extensions>
					<speed>4.75</speed>
				</extensions>
			</trkpt>
			<trkpt lat="53.26758423" lon="-8.92160512">
				<ele>61.0</ele>
				<time>2014-08-17T17:13:32Z</time>
				<extensions>
					<speed>5.25</speed>
				</extensions>
			</trkpt>
			<trkpt lat="53.2675387" lon="-8.92165063">
				<ele>62.0</ele>
				<time>2014-08-17T17:13:33Z</time>
				<extensions>
					<speed>6.0</speed>
				</extensions>
			</trkpt>
			<trkpt lat="53.26749554" lon="-8.92170531">
				<ele>62.0</ele>
				<time>2014-08-17T17:13:34Z</time>
				<extensions>
					<speed>6.0</speed>
				</extensions>
			</trkpt>
			<trkpt lat="53.26745696" lon="-8.92175687">
				<ele>61.0</ele>
				<time>2014-08-17T17:13:35Z</time>
				<extensions>
					<speed>5.75</speed>
				</extensions>
			</trkpt>
			<trkpt lat="53.26741698" lon="-8.92180846">
				<ele>62.0</ele>
				<time>2014-08-17T17:13:36Z</time>
				<extensions>
					<speed>5.5</speed>
				</extensions>
			</trkpt>
			<trkpt lat="53.2673832" lon="-8.92187016">
				<ele>62.0</ele>
				<time>2014-08-17T17:13:37Z</time>
				<extensions>
					<speed>5.5</speed>
				</extensions>
			</trkpt>
			<trkpt lat="53.26734245" lon="-8.92192363">
				<ele>62.0</ele>
				<time>2014-08-17T17:13:38Z</time>
				<extensions>
					<speed>5.5</speed>
				</extensions>
			</trkpt>
			<trkpt lat="53.26730694" lon="-8.92198228">
				<ele>62.0</ele>
				<time>2014-08-17T17:13:39Z</time>
				<extensions>
					<speed>5.25</speed>
				</extensions>
			</trkpt>
			<trkpt lat="53.26727346" lon="-8.92202104">
				<ele>62.0</ele>
				<time>2014-08-17T17:13:40Z</time>
				<extensions>
					<speed>4.25</speed>
				</extensions>
			</trkpt>
			<trkpt lat="53.26724391" lon="-8.92205228">
				<ele>62.0</ele>
				<time>2014-08-17T17:13:41Z</time>
				<extensions>
					<speed>3.25</speed>
				</extensions>
			</trkpt>
			<trkpt lat="53.26721408" lon="-8.92206148">
				<ele>62.0</ele>
				<time>2014-08-17T17:13:42Z</time>
				<extensions>
					<speed>2.5</speed>
				</extensions>
			</trkpt>
			<trkpt lat="53.26719432" lon="-8.92205535">
				<ele>63.0</ele>
				<time>2014-08-17T17:13:43Z</time>
				<extensions>
					<speed>1.75</speed>
				</extensions>
			</trkpt>
			<trkpt lat="53.26717955" lon="-8.92204515">
				<ele>63.0</ele>
				<time>2014-08-17T17:13:44Z</time>
				<extensions>
					<speed>1.5</speed>
				</extensions>
			</trkpt>
			<trkpt lat="53.26716991" lon="-8.92202263">
				<ele>62.0</ele>
				<time>2014-08-17T17:13:45Z</time>
				<extensions>
					<speed>1.5</speed>
				</extensions>
			</trkpt>
			<trkpt lat="53.26716556" lon="-8.92201392">
				<ele>63.0</ele>
				<time>2014-08-17T17:13:46Z</time>
				<extensions>
					<speed>1.25</speed>
				</extensions>
			</trkpt>
			<trkpt lat="53.26716168" lon="-8.92199316">
				<ele>63.0</ele>
				<time>2014-08-17T17:13:47Z</time>
				<extensions>
					<speed>1.75</speed>
				</extensions>
			</trkpt>
			<trkpt lat="53.26715036" lon="-8.92196735">
				<ele>63.0</ele>
				<time>2014-08-17T17:13:48Z</time>
				<extensions>
					<speed>2.0</speed>
				</extensions>
			</trkpt>
			<trkpt lat="53.26714457" lon="-8.92194594">
				<ele>62.0</ele>
				<time>2014-08-17T17:13:49Z</time>
				<extensions>
					<speed>2.0</speed>
				</extensions>
			</trkpt>
			<trkpt lat="53.26714071" lon="-8.92193324">
				<ele>62.0</ele>
				<time>2014-08-17T17:13:50Z</time>
				<extensions>
					<speed>1.25</speed>
				</extensions>
			</trkpt>
			<trkpt lat="53.26713684" lon="-8.92192936">
				<ele>63.0</ele>
				<time>2014-08-17T17:13:51Z</time>
				<extensions>
					<speed>0.5</speed>
				</extensions>
			</trkpt>
			<trkpt lat="53.26713207" lon="-8.92192877">
				<ele>63.0</ele>
				<time>2014-08-17T17:13:52Z</time>
				<extensions>
					<speed>0.0</speed>
				</extensions>
			</trkpt>
			<trkpt lat="53.2671289" lon="-8.92192881">
				<ele>63.0</ele>
				<time>2014-08-17T17:13:53Z</time>
				<extensions>
					<speed>0.0</speed>
				</extensions>
			</trkpt>
			<trkpt lat="53.26712755" lon="-8.92192514">
				<ele>63.0</ele>
				<time>2014-08-17T17:13:54Z</time>
				<extensions>
					<speed>0.0</speed>
				</extensions>
			</trkpt>
			<trkpt lat="53.26712911" lon="-8.92192576">
				<ele>63.0</ele>
				<time>2014-08-17T17:13:55Z</time>
				<extensions>
					<speed>0.0</speed>
				</extensions>
			</trkpt>
			<trkpt lat="53.26712697" lon="-8.92192636">
				<ele>63.0</ele>
				<time>2014-08-17T17:13:56Z</time>
				<extensions>
					<speed>0.0</speed>
				</extensions>
			</trkpt>
			<trkpt lat="53.2671268" lon="-8.92192442">
				<ele>63.0</ele>
				<time>2014-08-17T17:13:57Z</time>
				<extensions>
					<speed>0.0</speed>
				</extensions>
			</trkpt>
			<trkpt lat="53.26712494" lon="-8.92192746">
				<ele>62.0</ele>
				<time>2014-08-17T17:13:58Z</time>
				<extensions>
					<speed>0.0</speed>
				</extensions>
			</trkpt>
			<trkpt lat="53.26712448" lon="-8.92192681">
				<ele>62.0</ele>
				<time>2014-08-17T17:13:59Z</time>
				<extensions>
					<speed>0.0</speed>
				</extensions>
			</trkpt>
			<trkpt lat="53.26712266" lon="-8.92192736">
				<ele>63.0</ele>
				<time>2014-08-17T17:14:00Z</time>
				<extensions>
					<speed>0.0</speed>
				</extensions>
			</trkpt>
			<trkpt lat="53.26712297" lon="-8.92192685">
				<ele>63.0</ele>
				<time>2014-08-17T17:14:01Z</time>
				<extensions>
					<speed>0.0</speed>
				</extensions>
			</trkpt>
			<trkpt lat="53.2671239" lon="-8.92192606">
				<ele>63.0</ele>
				<time>2014-08-17T17:14:02Z</time>
				<extensions>
					<speed>0.0</speed>
				</extensions>
			</trkpt>
			<trkpt lat="53.26712402" lon="-8.92192573">
				<ele>63.0</ele>
				<time>2014-08-17T17:14:03Z</time>
				<extensions>
					<speed>0.0</speed>
				</extensions>
			</trkpt>
			<trkpt lat="53.26712404" lon="-8.92192593">
				<ele>63.0</ele>
				<time>2014-08-17T17:14:04Z</time>
				<extensions>
					<speed>0.0</speed>
				</extensions>
			</trkpt>
			<trkpt lat="53.26712265" lon="-8.92192281">
				<ele>63.0</ele>
				<time>2014-08-17T17:14:05Z</time>
				<extensions>
					<speed>2.0</speed>
				</extensions>
			</trkpt>
			<trkpt lat="53.26710442" lon="-8.92190071">
				<ele>63.0</ele>
				<time>2014-08-17T17:14:06Z</time>
				<extensions>
					<speed>2.5</speed>
				</extensions>
			</trkpt>
			<trkpt lat="53.26708776" lon="-8.92188011">
				<ele>63.0</ele>
				<time>2014-08-17T17:14:07Z</time>
				<extensions>
					<speed>2.25</speed>
				</extensions>
			</trkpt>
			<trkpt lat="53.2670784" lon="-8.92186906">
				<ele>62.0</ele>
				<time>2014-08-17T17:14:08Z</time>
				<extensions>
					<speed>1.0</speed>
				</extensions>
			</trkpt>
			<trkpt lat="53.26707561" lon="-8.92185973">
				<ele>61.0</ele>
				<time>2014-08-17T17:14:09Z</time>
				<extensions>
					<speed>0.0</speed>
				</extensions>
			</trkpt>
			<trkpt lat="53.26707678" lon="-8.92186345">
				<ele>61.0</ele>
				<time>2014-08-17T17:14:10Z</time>
				<extensions>
					<speed>0.0</speed>
				</extensions>
			</trkpt>
			<trkpt lat="53.26707678" lon="-8.92186345">
				<ele>61.0</ele>
				<time>2014-08-17T17:14:11Z</time>
				<extensions>
					<speed>0.0</speed>
				</extensions>
			</trkpt>
			<trkpt lat="53.26708909" lon="-8.92187747">
				<ele>61.0</ele>
				<time>2014-08-17T17:14:12Z</time>
				<extensions>
					<speed>2.0</speed>
				</extensions>
			</trkpt>
			<trkpt lat="53.26710766" lon="-8.92188448">
				<ele>61.0</ele>
				<time>2014-08-17T17:14:13Z</time>
				<extensions>
					<speed>1.5</speed>
				</extensions>
			</trkpt>
			<trkpt lat="53.26712185" lon="-8.9218866">
				<ele>61.0</ele>
				<time>2014-08-17T17:14:14Z</time>
				<extensions>
					<speed>1.5</speed>
				</extensions>
			</trkpt>
			<trkpt lat="53.26712573" lon="-8.92187284">
				<ele>61.0</ele>
				<time>2014-08-17T17:14:15Z</time>
				<extensions>
					<speed>0.75</speed>
				</extensions>
			</trkpt>
			<trkpt lat="53.2671301" lon="-8.92187736">
				<ele>60.0</ele>
				<time>2014-08-17T17:14:16Z</time>
				<extensions>
					<speed>0.0</speed>
				</extensions>
			</trkpt>
			<trkpt lat="53.26712901" lon="-8.92190817">
				<ele>60.0</ele>
				<time>2014-08-17T17:14:17Z</time>
				<extensions>
					<speed>1.5</speed>
				</extensions>
			</trkpt>
			<trkpt lat="53.26712802" lon="-8.92194064">
				<ele>60.0</ele>
				<time>2014-08-17T17:14:18Z</time>
				<extensions>
					<speed>2.75</speed>
				</extensions>
			</trkpt>
			<trkpt lat="53.26713505" lon="-8.92198093">
				<ele>60.0</ele>
				<time>2014-08-17T17:14:19Z</time>
				<extensions>
					<speed>2.75</speed>
				</extensions>
			</trkpt>
			<trkpt lat="53.26714077" lon="-8.92202156">
				<ele>60.0</ele>
				<time>2014-08-17T17:14:20Z</time>
				<extensions>
					<speed>2.75</speed>
				</extensions>
			</trkpt>
			<trkpt lat="53.26716603" lon="-8.92204924">
				<ele>60.0</ele>
				<time>2014-08-17T17:14:21Z</time>
				<extensions>
					<speed>3.0</speed>
				</extensions>
			</trkpt>
			<trkpt lat="53.26717192" lon="-8.92207833">
				<ele>60.0</ele>
				<time>2014-08-17T17:14:22Z</time>
				<extensions>
					<speed>2.25</speed>
				</extensions>
			</trkpt>
			<trkpt lat="53.26716948" lon="-8.92212294">
				<ele>60.0</ele>
				<time>2014-08-17T17:14:23Z</time>
				<extensions>
					<speed>2.75</speed>
				</extensions>
			</trkpt>
			<trkpt lat="53.26716891" lon="-8.92216562">
				<ele>61.0</ele>
				<time>2014-08-17T17:14:24Z</time>
				<extensions>
					<speed>3.25</speed>
				</extensions>
			</trkpt>
			<trkpt lat="53.26714236" lon="-8.92222577">
				<ele>60.0</ele>
				<time>2014-08-17T17:14:25Z</time>
				<extensions>
					<speed>4.25</speed>
				</extensions>
			</trkpt>
			<trkpt lat="53.26709864" lon="-8.92226164">
				<ele>61.0</ele>
				<time>2014-08-17T17:14:26Z</time>
				<extensions>
					<speed>5.0</speed>
				</extensions>
			</trkpt>
			<trkpt lat="53.26706072" lon="-8.92230458">
				<ele>61.0</ele>
				<time>2014-08-17T17:14:27Z</time>
				<extensions>
					<speed>5.0</speed>
				</extensions>
			</trkpt>
			<trkpt lat="53.26699845" lon="-8.92236689">
				<ele>61.0</ele>
				<time>2014-08-17T17:14:28Z</time>
				<extensions>
					<speed>6.75</speed>
				</extensions>
			</trkpt>
			<trkpt lat="53.26694703" lon="-8.92242123">
				<ele>60.0</ele>
				<time>2014-08-17T17:14:29Z</time>
				<extensions>
					<speed>6.75</speed>
				</extensions>
			</trkpt>
			<trkpt lat="53.26690366" lon="-8.92247799">
				<ele>60.0</ele>
				<time>2014-08-17T17:14:30Z</time>
				<extensions>
					<speed>6.0</speed>
				</extensions>
			</trkpt>
			<trkpt lat="53.26686651" lon="-8.92253716">
				<ele>60.0</ele>
				<time>2014-08-17T17:14:31Z</time>
				<extensions>
					<speed>5.0</speed>
				</extensions>
			</trkpt>
			<trkpt lat="53.2668325" lon="-8.92258791">
				<ele>60.0</ele>
				<time>2014-08-17T17:14:32Z</time>
				<extensions>
					<speed>5.0</speed>
				</extensions>
			</trkpt>
			<trkpt lat="53.2667935" lon="-8.92263345">
				<ele>60.0</ele>
				<time>2014-08-17T17:14:33Z</time>
				<extensions>
					<speed>5.0</speed>
				</extensions>
			</trkpt>
			<trkpt lat="53.2667461" lon="-8.92265473">
				<ele>60.0</ele>
				<time>2014-08-17T17:14:34Z</time>
				<extensions>
					<speed>4.25</speed>
				</extensions>
			</trkpt>
			<trkpt lat="53.26670821" lon="-8.9226477">
				<ele>60.0</ele>
				<time>2014-08-17T17:14:35Z</time>
				<extensions>
					<speed>4.25</speed>
				</extensions>
			</trkpt>
			<trkpt lat="53.26668951" lon="-8.92261981">
				<ele>60.0</ele>
				<time>2014-08-17T17:14:36Z</time>
				<extensions>
					<speed>3.5</speed>
				</extensions>
			</trkpt>
			<trkpt lat="53.26667522" lon="-8.92257941">
				<ele>59.0</ele>
				<time>2014-08-17T17:14:37Z</time>
				<extensions>
					<speed>3.0</speed>
				</extensions>
			</trkpt>
			<trkpt lat="53.26666855" lon="-8.9225397">
				<ele>59.0</ele>
				<time>2014-08-17T17:14:38Z</time>
				<extensions>
					<speed>2.25</speed>
				</extensions>
			</trkpt>
			<trkpt lat="53.26665886" lon="-8.92251651">
				<ele>59.0</ele>
				<time>2014-08-17T17:14:39Z</time>
				<extensions>
					<speed>1.75</speed>
				</extensions>
			</trkpt>
			<trkpt lat="53.26664969" lon="-8.92249309">
				<ele>59.0</ele>
				<time>2014-08-17T17:14:40Z</time>
				<extensions>
					<speed>1.75</speed>
				</extensions>
			</trkpt>
			<trkpt lat="53.26664053" lon="-8.92246966">
				<ele>59.0</ele>
				<time>2014-08-17T17:14:41Z</time>
				<extensions>
					<speed>1.75</speed>
				</extensions>
			</trkpt>
			<trkpt lat="53.26665503" lon="-8.92248301">
				<ele>59.0</ele>
				<time>2014-08-17T17:14:42Z</time>
				<extensions>
					<speed>0.0</speed>
				</extensions>
			</trkpt>
			<trkpt lat="53.26665635" lon="-8.92248173">
				<ele>59.0</ele>
				<time>2014-08-17T17:14:43Z</time>
				<extensions>
					<speed>0.0</speed>
				</extensions>
			</trkpt>
			<trkpt lat="53.26665846" lon="-8.92248503">
				<ele>59.0</ele>
				<time>2014-08-17T17:14:44Z</time>
				<extensions>
					<speed>0.0</speed>
				</extensions>
			</trkpt>
			<trkpt lat="53.26665754" lon="-8.92248626">
				<ele>59.0</ele>
				<time>2014-08-17T17:14:45Z</time>
				<extensions>
					<speed>0.0</speed>
				</extensions>
			</trkpt>
			<trkpt lat="53.26665918" lon="-8.92248377">
				<ele>59.0</ele>
				<time>2014-08-17T17:14:46Z</time>
				<extensions>
					<speed>0.0</speed>
				</extensions>
			</trkpt>
			<trkpt lat="53.26665988" lon="-8.92248788">
				<ele>60.0</ele>
				<time>2014-08-17T17:14:47Z</time>
				<extensions>
					<speed>0.0</speed>
				</extensions>
			</trkpt>
			<trkpt lat="53.26665902" lon="-8.9224903">
				<ele>59.0</ele>
				<time>2014-08-17T17:14:48Z</time>
				<extensions>
					<speed>0.0</speed>
				</extensions>
			</trkpt>
			<trkpt lat="53.26665754" lon="-8.92248669">
				<ele>60.0</ele>
				<time>2014-08-17T17:14:49Z</time>
				<extensions>
					<speed>0.0</speed>
				</extensions>
			</trkpt>
			<trkpt lat="53.26665809" lon="-8.92249126">
				<ele>60.0</ele>
				<time>2014-08-17T17:14:50Z</time>
				<extensions>
					<speed>0.0</speed>
				</extensions>
			</trkpt>
			<trkpt lat="53.26665603" lon="-8.9224942">
				<ele>60.0</ele>
				<time>2014-08-17T17:14:51Z</time>
				<extensions>
					<speed>0.0</speed>
				</extensions>
			</trkpt>
			<trkpt lat="53.26665562" lon="-8.92249525">
				<ele>60.0</ele>
				<time>2014-08-17T17:14:52Z</time>
				<extensions>
					<speed>0.0</speed>
				</extensions>
			</trkpt>
			<trkpt lat="53.266655" lon="-8.92249549">
				<ele>60.0</ele>
				<time>2014-08-17T17:14:53Z</time>
				<extensions>
					<speed>0.0</speed>
				</extensions>
			</trkpt>
			<trkpt lat="53.26665505" lon="-8.92249571">
				<ele>60.0</ele>
				<time>2014-08-17T17:14:54Z</time>
				<extensions>
					<speed>0.0</speed>
				</extensions>
			</trkpt>
			<trkpt lat="53.26665504" lon="-8.92249569">
				<ele>60.0</ele>
				<time>2014-08-17T17:14:55Z</time>
				<extensions>
					<speed>0.0</speed>
				</extensions>
			</trkpt>
			<trkpt lat="53.26665419" lon="-8.92249451">
				<ele>60.0</ele>
				<time>2014-08-17T17:14:56Z</time>
				<extensions>
					<speed>1.0</speed>
				</extensions>
			</trkpt>
			<trkpt lat="53.2666422" lon="-8.92248141">
				<ele>60.0</ele>
				<time>2014-08-17T17:14:57Z</time>
				<extensions>
					<speed>2.0</speed>
				</extensions>
			</trkpt>
			<trkpt lat="53.26663148" lon="-8.92247005">
				<ele>59.0</ele>
				<time>2014-08-17T17:14:58Z</time>
				<extensions>
					<speed>1.5</speed>
				</extensions>
			</trkpt>
			<trkpt lat="53.26662391" lon="-8.92246787">
				<ele>59.0</ele>
				<time>2014-08-17T17:14:59Z</time>
				<extensions>
					<speed>0.5</speed>
				</extensions>
			</trkpt>
			<trkpt lat="53.26662174" lon="-8.9224681">
				<ele>59.0</ele>
				<time>2014-08-17T17:15:00Z</time>
				<extensions>
					<speed>0.0</speed>
				</extensions>
			</trkpt>
			<trkpt lat="53.26662046" lon="-8.92246519">
				<ele>60.0</ele>
				<time>2014-08-17T17:15:01Z</time>
				<extensions>
					<speed>0.0</speed>
				</extensions>
			</trkpt>
			<trkpt lat="53.26661891" lon="-8.92246804">
				<ele>59.0</ele>
				<time>2014-08-17T17:15:02Z</time>
				<extensions>
					<speed>0.0</speed>
				</extensions>
			</trkpt>
			<trkpt lat="53.26662008" lon="-8.92246857">
				<ele>59.0</ele>
				<time>2014-08-17T17:15:03Z</time>
				<extensions>
					<speed>1.0</speed>
				</extensions>
			</trkpt>
			<trkpt lat="53.26662624" lon="-8.92247402">
				<ele>60.0</ele>
				<time>2014-08-17T17:15:04Z</time>
				<extensions>
					<speed>0.75</speed>
				</extensions>
			</trkpt>
			<trkpt lat="53.26663006" lon="-8.92247815">
				<ele>60.0</ele>
				<time>2014-08-17T17:15:05Z</time>
				<extensions>
					<speed>0.75</speed>
				</extensions>
			</trkpt>
			<trkpt lat="53.26663698" lon="-8.92248003">
				<ele>60.0</ele>
				<time>2014-08-17T17:15:06Z</time>
				<extensions>
					<speed>0.75</speed>
				</extensions>
			</trkpt>
			<trkpt lat="53.26664269" lon="-8.92248147">
				<ele>60.0</ele>
				<time>2014-08-17T17:15:07Z</time>
				<extensions>
					<speed>0.75</speed>
				</extensions>
			</trkpt>
			<trkpt lat="53.2666484" lon="-8.92248291">
				<ele>60.0</ele>
				<time>2014-08-17T17:15:08Z</time>
				<extensions>
					<speed>0.75</speed>
				</extensions>
			</trkpt>
			<trkpt lat="53.26665134" lon="-8.92248818">
				<ele>60.0</ele>
				<time>2014-08-17T17:15:09Z</time>
				<extensions>
					<speed>0.5</speed>
				</extensions>
			</trkpt>
			<trkpt lat="53.26663977" lon="-8.92253519">
				<ele>59.0</ele>
				<time>2014-08-17T17:15:10Z</time>
				<extensions>
					<speed>2.25</speed>
				</extensions>
			</trkpt>
			<trkpt lat="53.26664241" lon="-8.92256916">
				<ele>60.0</ele>
				<time>2014-08-17T17:15:11Z</time>
				<extensions>
					<speed>2.5</speed>
				</extensions>
			</trkpt>
			<trkpt lat="53.26665228" lon="-8.92260538">
				<ele>60.0</ele>
				<time>2014-08-17T17:15:12Z</time>
				<extensions>
					<speed>2.5</speed>
				</extensions>
			</trkpt>
			<trkpt lat="53.26666364" lon="-8.92263088">
				<ele>60.0</ele>
				<time>2014-08-17T17:15:13Z</time>
				<extensions>
					<speed>2.25</speed>
				</extensions>
			</trkpt>
			<trkpt lat="53.26667057" lon="-8.9226546">
				<ele>60.0</ele>
				<time>2014-08-17T17:15:14Z</time>
				<extensions>
					<speed>2.0</speed>
				</extensions>
			</trkpt>
			<trkpt lat="53.2666739" lon="-8.92268982">
				<ele>60.0</ele>
				<time>2014-08-17T17:15:15Z</time>
				<extensions>
					<speed>2.5</speed>
				</extensions>
			</trkpt>
			<trkpt lat="53.26667416" lon="-8.92272685">
				<ele>60.0</ele>
				<time>2014-08-17T17:15:16Z</time>
				<extensions>
					<speed>2.5</speed>
				</extensions>
			</trkpt>
			<trkpt lat="53.26663926" lon="-8.92279541">
				<ele>58.0</ele>
				<time>2014-08-17T17:15:17Z</time>
				<extensions>
					<speed>3.75</speed>
				</extensions>
			</trkpt>
			<trkpt lat="53.26661014" lon="-8.92284943">
				<ele>58.0</ele>
				<time>2014-08-17T17:15:18Z</time>
				<extensions>
					<speed>4.0</speed>
				</extensions>
			</trkpt>
			<trkpt lat="53.26657957" lon="-8.92290144">
				<ele>59.0</ele>
				<time>2014-08-17T17:15:19Z</time>
				<extensions>
					<speed>4.75</speed>
				</extensions>
			</trkpt>
			<trkpt lat="53.26653978" lon="-8.92295723">
				<ele>58.0</ele>
				<time>2014-08-17T17:15:20Z</time>
				<extensions>
					<speed>5.75</speed>
				</extensions>
			</trkpt>
			<trkpt lat="53.26651145" lon="-8.92298843">
				<ele>58.0</ele>
				<time>2014-08-17T17:15:21Z</time>
				<extensions>
					<speed>5.75</speed>
				</extensions>
			</trkpt>
			<trkpt lat="53.26647179" lon="-8.92304652">
				<ele>58.0</ele>
				<time>2014-08-17T17:15:22Z</time>
				<extensions>
					<speed>5.5</speed>
				</extensions>
			</trkpt>
			<trkpt lat="53.26642824" lon="-8.92309051">
				<ele>57.0</ele>
				<time>2014-08-17T17:15:23Z</time>
				<extensions>
					<speed>5.25</speed>
				</extensions>
			</trkpt>
			<trkpt lat="53.26639609" lon="-8.92315336">
				<ele>57.0</ele>
				<time>2014-08-17T17:15:24Z</time>
				<extensions>
					<speed>5.5</speed>
				</extensions>
			</trkpt>
			<trkpt lat="53.26635791" lon="-8.92319892">
				<ele>58.0</ele>
				<time>2014-08-17T17:15:25Z</time>
				<extensions>
					<speed>5.0</speed>
				</extensions>
			</trkpt>
			<trkpt lat="53.2663135" lon="-8.92322737">
				<ele>57.0</ele>
				<time>2014-08-17T17:15:26Z</time>
				<extensions>
					<speed>5.0</speed>
				</extensions>
			</trkpt>
			<trkpt lat="53.26627392" lon="-8.92322156">
				<ele>56.0</ele>
				<time>2014-08-17T17:15:27Z</time>
				<extensions>
					<speed>4.75</speed>
				</extensions>
			</trkpt>
			<trkpt lat="53.26625738" lon="-8.92317056">
				<ele>56.0</ele>
				<time>2014-08-17T17:15:28Z</time>
				<extensions>
					<speed>4.0</speed>
				</extensions>
			</trkpt>
			<trkpt lat="53.26623955" lon="-8.92312618">
				<ele>57.0</ele>
				<time>2014-08-17T17:15:29Z</time>
				<extensions>
					<speed>3.0</speed>
				</extensions>
			</trkpt>
			<trkpt lat="53.26622462" lon="-8.92309425">
				<ele>57.0</ele>
				<time>2014-08-17T17:15:30Z</time>
				<extensions>
					<speed>3.0</speed>
				</extensions>
			</trkpt>
			<trkpt lat="53.26620908" lon="-8.92306588">
				<ele>57.0</ele>
				<time>2014-08-17T17:15:31Z</time>
				<extensions>
					<speed>2.0</speed>
				</extensions>
			</trkpt>
			<trkpt lat="53.26620594" lon="-8.92304792">
				<ele>57.0</ele>
				<time>2014-08-17T17:15:32Z</time>
				<extensions>
					<speed>1.0</speed>
				</extensions>
			</trkpt>
			<trkpt lat="53.26620374" lon="-8.92304781">
				<ele>57.0</ele>
				<time>2014-08-17T17:15:33Z</time>
				<extensions>
					<speed>0.5</speed>
				</extensions>
			</trkpt>
			<trkpt lat="53.26619797" lon="-8.92304585">
				<ele>56.0</ele>
				<time>2014-08-17T17:15:34Z</time>
				<extensions>
					<speed>0.0</speed>
				</extensions>
			</trkpt>
			<trkpt lat="53.26619881" lon="-8.92304835">
				<ele>56.0</ele>
				<time>2014-08-17T17:15:35Z</time>
				<extensions>
					<speed>0.0</speed>
				</extensions>
			</trkpt>
			<trkpt lat="53.26620065" lon="-8.92305359">
				<ele>57.0</ele>
				<time>2014-08-17T17:15:36Z</time>
				<extensions>
					<speed>0.0</speed>
				</extensions>
			</trkpt>
			<trkpt lat="53.26620189" lon="-8.92305628">
				<ele>58.0</ele>
				<time>2014-08-17T17:15:37Z</time>
				<extensions>
					<speed>0.0</speed>
				</extensions>
			</trkpt>
			<trkpt lat="53.2662024" lon="-8.9230604">
				<ele>58.0</ele>
				<time>2014-08-17T17:15:38Z</time>
				<extensions>
					<speed>0.0</speed>
				</extensions>
			</trkpt>
			<trkpt lat="53.2662024" lon="-8.9230604">
				<ele>58.0</ele>
				<time>2014-08-17T17:15:39Z</time>
				<extensions>
					<speed>0.0</speed>
				</extensions>
			</trkpt>
			<trkpt lat="53.2662024" lon="-8.9230604">
				<ele>58.0</ele>
				<time>2014-08-17T17:15:40Z</time>
				<extensions>
					<speed>0.0</speed>
				</extensions>
			</trkpt>
			<trkpt lat="53.26620176" lon="-8.92306217">
				<ele>57.0</ele>
				<time>2014-08-17T17:15:41Z</time>
				<extensions>
					<speed>0.0</speed>
				</extensions>
			</trkpt>
			<trkpt lat="53.26620378" lon="-8.92306239">
				<ele>58.0</ele>
				<time>2014-08-17T17:15:42Z</time>
				<extensions>
					<speed>0.0</speed>
				</extensions>
			</trkpt>
			<trkpt lat="53.26620181" lon="-8.92306155">
				<ele>58.0</ele>
				<time>2014-08-17T17:15:43Z</time>
				<extensions>
					<speed>0.0</speed>
				</extensions>
			</trkpt>
			<trkpt lat="53.26620185" lon="-8.92306276">
				<ele>58.0</ele>
				<time>2014-08-17T17:15:44Z</time>
				<extensions>
					<speed>0.0</speed>
				</extensions>
			</trkpt>
			<trkpt lat="53.26620135" lon="-8.92306445">
				<ele>58.0</ele>
				<time>2014-08-17T17:15:45Z</time>
				<extensions>
					<speed>0.0</speed>
				</extensions>
			</trkpt>
			<trkpt lat="53.26620134" lon="-8.9230644">
				<ele>58.0</ele>
				<time>2014-08-17T17:15:46Z</time>
				<extensions>
					<speed>0.0</speed>
				</extensions>
			</trkpt>
			<trkpt lat="53.26620176" lon="-8.92306379">
				<ele>58.0</ele>
				<time>2014-08-17T17:15:47Z</time>
				<extensions>
					<speed>0.0</speed>
				</extensions>
			</trkpt>
			<trkpt lat="53.26620175" lon="-8.92306381">
				<ele>58.0</ele>
				<time>2014-08-17T17:15:48Z</time>
				<extensions>
					<speed>0.0</speed>
				</extensions>
			</trkpt>
			<trkpt lat="53.26620173" lon="-8.92306384">
				<ele>58.0</ele>
				<time>2014-08-17T17:15:49Z</time>
				<extensions>
					<speed>0.0</speed>
				</extensions>
			</trkpt>
			<trkpt lat="53.26620169" lon="-8.92306387">
				<ele>58.0</ele>
				<time>2014-08-17T17:15:50Z</time>
				<extensions>
					<speed>0.0</speed>
				</extensions>
			</trkpt>
			<trkpt lat="53.26620172" lon="-8.92306384">
				<ele>58.0</ele>
				<time>2014-08-17T17:15:51Z</time>
				<extensions>
					<speed>0.0</speed>
				</extensions>
			</trkpt>
			<trkpt lat="53.26620171" lon="-8.92306378">
				<ele>58.0</ele>
				<time>2014-08-17T17:15:52Z</time>
				<extensions>
					<speed>0.0</speed>
				</extensions>
			</trkpt>
			<trkpt lat="53.26620011" lon="-8.92306149">
				<ele>58.0</ele>
				<time>2014-08-17T17:15:53Z</time>
				<extensions>
					<speed>1.75</speed>
				</extensions>
			</trkpt>
			<trkpt lat="53.2661809" lon="-8.92303442">
				<ele>57.0</ele>
				<time>2014-08-17T17:15:54Z</time>
				<extensions>
					<speed>3.0</speed>
				</extensions>
			</trkpt>
			<trkpt lat="53.26615323" lon="-8.9229942">
				<ele>58.0</ele>
				<time>2014-08-17T17:15:55Z</time>
				<extensions>
					<speed>4.5</speed>
				</extensions>
			</trkpt>
			<trkpt lat="53.26612042" lon="-8.92295028">
				<ele>57.0</ele>
				<time>2014-08-17T17:15:56Z</time>
				<extensions>
					<speed>4.75</speed>
				</extensions>
			</trkpt>
			<trkpt lat="53.26608618" lon="-8.92288539">
				<ele>57.0</ele>
				<time>2014-08-17T17:15:57Z</time>
				<extensions>
					<speed>5.5</speed>
				</extensions>
			</trkpt>
			<trkpt lat="53.26605545" lon="-8.92281763">
				<ele>57.0</ele>
				<time>2014-08-17T17:15:58Z</time>
				<extensions>
					<speed>5.5</speed>
				</extensions>
			</trkpt>
			<trkpt lat="53.26602248" lon="-8.92274528">
				<ele>58.0</ele>
				<time>2014-08-17T17:15:59Z</time>
				<extensions>
					<speed>5.25</speed>
				</extensions>
			</trkpt>
			<trkpt lat="53.26600033" lon="-8.92267795">
				<ele>57.0</ele>
				<time>2014-08-17T17:16:00Z</time>
				<extensions>
					<speed>4.75</speed>
				</extensions>
			</trkpt>
			<trkpt lat="53.2659682" lon="-8.92262946">
				<ele>56.0</ele>
				<time>2014-08-17T17:16:01Z</time>
				<extensions>
					<speed>4.5</speed>
				</extensions>
			</trkpt>
			<trkpt lat="53.26595074" lon="-8.92257479">
				<ele>56.0</ele>
				<time>2014-08-17T17:16:02Z</time>
				<extensions>
					<speed>4.0</speed>
				</extensions>
			</trkpt>
			<trkpt lat="53.26593767" lon="-8.92251575">
				<ele>56.0</ele>
				<time>2014-08-17T17:16:03Z</time>
				<extensions>
					<speed>3.75</speed>
				</extensions>
			</trkpt>
			<trkpt lat="53.26592769" lon="-8.92246573">
				<ele>56.0</ele>
				<time>2014-08-17T17:16:04Z</time>
				<extensions>
					<speed>3.5</speed>
				</extensions>
			</trkpt>
			<trkpt lat="53.26590213" lon="-8.92244104">
				<ele>58.0</ele>
				<time>2014-08-17T17:16:05Z</time>
				<extensions>
					<speed>2.75</speed>
				</extensions>
			</trkpt>
			<trkpt lat="53.26588167" lon="-8.92244491">
				<ele>57.0</ele>
				<time>2014-08-17T17:16:06Z</time>
				<extensions>
					<speed>2.25</speed>
				</extensions>
			</trkpt>
			<trkpt lat="53.26586125" lon="-8.9224703">
				<ele>57.0</ele>
				<time>2014-08-17T17:16:07Z</time>
				<extensions>
					<speed>2.75</speed>
				</extensions>
			</trkpt>
			<trkpt lat="53.26585446" lon="-8.92249578">
				<ele>57.0</ele>
				<time>2014-08-17T17:16:08Z</time>
				<extensions>
					<speed>2.75</speed>
				</extensions>
			</trkpt>
			<trkpt lat="53.26585286" lon="-8.9225171">
				<ele>57.0</ele>
				<time>2014-08-17T17:16:09Z</time>
				<extensions>
					<speed>2.0</speed>
				</extensions>
			</trkpt>
			<trkpt lat="53.26584437" lon="-8.92253268">
				<ele>57.0</ele>
				<time>2014-08-17T17:16:10Z</time>
				<extensions>
					<speed>0.5</speed>
				</extensions>
			</trkpt>
			<trkpt lat="53.26584584" lon="-8.92254067">
				<ele>57.0</ele>
				<time>2014-08-17T17:16:11Z</time>
				<extensions>
					<speed>0.0</speed>
				</extensions>
			</trkpt>
			<trkpt lat="53.2658452" lon="-8.92254029">
				<ele>57.0</ele>
				<time>2014-08-17T17:16:12Z</time>
				<extensions>
					<speed>0.0</speed>
				</extensions>
			</trkpt>
			<trkpt lat="53.26584507" lon="-8.92253921">
				<ele>57.0</ele>
				<time>2014-08-17T17:16:13Z</time>
				<extensions>
					<speed>0.5</speed>
				</extensions>
			</trkpt>
			<trkpt lat="53.26584041" lon="-8.92253059">
				<ele>57.0</ele>
				<time>2014-08-17T17:16:14Z</time>
				<extensions>
					<speed>0.75</speed>
				</extensions>
			</trkpt>
			<trkpt lat="53.26583791" lon="-8.92252194">
				<ele>57.0</ele>
				<time>2014-08-17T17:16:15Z</time>
				<extensions>
					<speed>0.75</speed>
				</extensions>
			</trkpt>
			<trkpt lat="53.26584436" lon="-8.92251334">
				<ele>58.0</ele>
				<time>2014-08-17T17:16:16Z</time>
				<extensions>
					<speed>0.75</speed>
				</extensions>
			</trkpt>
			<trkpt lat="53.2658603" lon="-8.92252488">
				<ele>57.0</ele>
				<time>2014-08-17T17:16:17Z</time>
				<extensions>
					<speed>2.75</speed>
				</extensions>
			</trkpt>
			<trkpt lat="53.26589129" lon="-8.92253749">
				<ele>57.0</ele>
				<time>2014-08-17T17:16:18Z</time>
				<extensions>
					<speed>3.75</speed>
				</extensions>
			</trkpt>
			<trkpt lat="53.26592631" lon="-8.92256664">
				<ele>58.0</ele>
				<time>2014-08-17T17:16:19Z</time>
				<extensions>
					<speed>4.75</speed>
				</extensions>
			</trkpt>
			<trkpt lat="53.26596458" lon="-8.92260425">
				<ele>57.0</ele>
				<time>2014-08-17T17:16:20Z</time>
				<extensions>
					<speed>5.0</speed>
				</extensions>
			</trkpt>
			<trkpt lat="53.26600073" lon="-8.92266686">
				<ele>57.0</ele>
				<time>2014-08-17T17:16:21Z</time>
				<extensions>
					<speed>6.0</speed>
				</extensions>
			</trkpt>
			<trkpt lat="53.26603619" lon="-8.92274858">
				<ele>58.0</ele>
				<time>2014-08-17T17:16:22Z</time>
				<extensions>
					<speed>7.0</speed>
				</extensions>
			</trkpt>
			<trkpt lat="53.26607359" lon="-8.92283522">
				<ele>58.0</ele>
				<time>2014-08-17T17:16:23Z</time>
				<extensions>
					<speed>7.0</speed>
				</extensions>
			</trkpt>
			<trkpt lat="53.26610558" lon="-8.92291724">
				<ele>57.0</ele>
				<time>2014-08-17T17:16:24Z</time>
				<extensions>
					<speed>6.75</speed>
				</extensions>
			</trkpt>
			<trkpt lat="53.26614268" lon="-8.92298944">
				<ele>57.0</ele>
				<time>2014-08-17T17:16:25Z</time>
				<extensions>
					<speed>6.5</speed>
				</extensions>
			</trkpt>
			<trkpt lat="53.26618142" lon="-8.92306314">
				<ele>57.0</ele>
				<time>2014-08-17T17:16:26Z</time>
				<extensions>
					<speed>6.5</speed>
				</extensions>
			</trkpt>
			<trkpt lat="53.26622076" lon="-8.9231359">
				<ele>57.0</ele>
				<time>2014-08-17T17:16:27Z</time>
				<extensions>
					<speed>6.0</speed>
				</extensions>
			</trkpt>
			<trkpt lat="53.26624823" lon="-8.9232015">
				<ele>57.0</ele>
				<time>2014-08-17T17:16:28Z</time>
				<extensions>
					<speed>4.75</speed>
				</extensions>
			</trkpt>
			<trkpt lat="53.26626649" lon="-8.92326484">
				<ele>58.0</ele>
				<time>2014-08-17T17:16:29Z</time>
				<extensions>
					<speed>4.25</speed>
				</extensions>
			</trkpt>
			<trkpt lat="53.26628205" lon="-8.92332147">
				<ele>58.0</ele>
				<time>2014-08-17T17:16:30Z</time>
				<extensions>
					<speed>4.25</speed>
				</extensions>
			</trkpt>
			<trkpt lat="53.26625202" lon="-8.92339202">
				<ele>57.0</ele>
				<time>2014-08-17T17:16:31Z</time>
				<extensions>
					<speed>4.5</speed>
				</extensions>
			</trkpt>
			<trkpt lat="53.26622832" lon="-8.92344615">
				<ele>56.0</ele>
				<time>2014-08-17T17:16:32Z</time>
				<extensions>
					<speed>5.25</speed>
				</extensions>
			</trkpt>
			<trkpt lat="53.26620185" lon="-8.92350584">
				<ele>56.0</ele>
				<time>2014-08-17T17:16:33Z</time>
				<extensions>
					<speed>5.25</speed>
				</extensions>
			</trkpt>
			<trkpt lat="53.26616997" lon="-8.92356587">
				<ele>56.0</ele>
				<time>2014-08-17T17:16:34Z</time>
				<extensions>
					<speed>5.25</speed>
				</extensions>
			</trkpt>
			<trkpt lat="53.26614159" lon="-8.92361696">
				<ele>56.0</ele>
				<time>2014-08-17T17:16:35Z</time>
				<extensions>
					<speed>5.25</speed>
				</extensions>
			</trkpt>
			<trkpt lat="53.26610922" lon="-8.92368209">
				<ele>56.0</ele>
				<time>2014-08-17T17:16:36Z</time>
				<extensions>
					<speed>5.0</speed>
				</extensions>
			</trkpt>
			<trkpt lat="53.26607994" lon="-8.92374695">
				<ele>56.0</ele>
				<time>2014-08-17T17:16:37Z</time>
				<extensions>
					<speed>5.0</speed>
				</extensions>
			</trkpt>
			<trkpt lat="53.26605762" lon="-8.92379951">
				<ele>57.0</ele>
				<time>2014-08-17T17:16:38Z</time>
				<extensions>
					<speed>4.75</speed>
				</extensions>
			</trkpt>
			<trkpt lat="53.26603416" lon="-8.92385187">
				<ele>57.0</ele>
				<time>2014-08-17T17:16:39Z</time>
				<extensions>
					<speed>4.0</speed>
				</extensions>
			</trkpt>
			<trkpt lat="53.26600038" lon="-8.92388157">
				<ele>56.0</ele>
				<time>2014-08-17T17:16:40Z</time>
				<extensions>
					<speed>3.5</speed>
				</extensions>
			</trkpt>
			<trkpt lat="53.26597606" lon="-8.92390647">
				<ele>56.0</ele>
				<time>2014-08-17T17:16:41Z</time>
				<extensions>
					<speed>3.0</speed>
				</extensions>
			</trkpt>
			<trkpt lat="53.26594948" lon="-8.92391514">
				<ele>56.0</ele>
				<time>2014-08-17T17:16:42Z</time>
				<extensions>
					<speed>3.0</speed>
				</extensions>
			</trkpt>
			<trkpt lat="53.26592426" lon="-8.9239125">
				<ele>56.0</ele>
				<time>2014-08-17T17:16:43Z</time>
				<extensions>
					<speed>3.0</speed>
				</extensions>
			</trkpt>
			<trkpt lat="53.26590103" lon="-8.92390065">
				<ele>56.0</ele>
				<time>2014-08-17T17:16:44Z</time>
				<extensions>
					<speed>3.25</speed>
				</extensions>
			</trkpt>
			<trkpt lat="53.26587408" lon="-8.92388119">
				<ele>56.0</ele>
				<time>2014-08-17T17:16:45Z</time>
				<extensions>
					<speed>3.25</speed>
				</extensions>
			</trkpt>
			<trkpt lat="53.26584692" lon="-8.92382181">
				<ele>57.0</ele>
				<time>2014-08-17T17:16:46Z</time>
				<extensions>
					<speed>4.25</speed>
				</extensions>
			</trkpt>
			<trkpt lat="53.2658176" lon="-8.92377514">
				<ele>56.0</ele>
				<time>2014-08-17T17:16:47Z</time>
				<extensions>
					<speed>5.0</speed>
				</extensions>
			</trkpt>
			<trkpt lat="53.26578412" lon="-8.92371986">
				<ele>57.0</ele>
				<time>2014-08-17T17:16:48Z</time>
				<extensions>
					<speed>5.25</speed>
				</extensions>
			</trkpt>
			<trkpt lat="53.26574918" lon="-8.92366101">
				<ele>57.0</ele>
				<time>2014-08-17T17:16:49Z</time>
				<extensions>
					<speed>5.75</speed>
				</extensions>
			</trkpt>
			<trkpt lat="53.26571785" lon="-8.92359315">
				<ele>57.0</ele>
				<time>2014-08-17T17:16:50Z</time>
				<extensions>
					<speed>5.75</speed>
				</extensions>
			</trkpt>
			<trkpt lat="53.26568153" lon="-8.92352137">
				<ele>57.0</ele>
				<time>2014-08-17T17:16:51Z</time>
				<extensions>
					<speed>5.75</speed>
				</extensions>
			</trkpt>
			<trkpt lat="53.2656529" lon="-8.92345239">
				<ele>58.0</ele>
				<time>2014-08-17T17:16:52Z</time>
				<extensions>
					<speed>6.0</speed>
				</extensions>
			</trkpt>
			<trkpt lat="53.26562616" lon="-8.92337776">
				<ele>58.0</ele>
				<time>2014-08-17T17:16:53Z</time>
				<extensions>
					<speed>6.25</speed>
				</extensions>
			</trkpt>
			<trkpt lat="53.2655973" lon="-8.92331489">
				<ele>57.0</ele>
				<time>2014-08-17T17:16:54Z</time>
				<extensions>
					<speed>5.75</speed>
				</extensions>
			</trkpt>
			<trkpt lat="53.26557391" lon="-8.92326159">
				<ele>58.0</ele>
				<time>2014-08-17T17:16:55Z</time>
				<extensions>
					<speed>4.5</speed>
				</extensions>
			</trkpt>
			<trkpt lat="53.26555852" lon="-8.92323044">
				<ele>57.0</ele>
				<time>2014-08-17T17:16:56Z</time>
				<extensions>
					<speed>2.75</speed>
				</extensions>
			</trkpt>
			<trkpt lat="53.26555811" lon="-8.92319202">
				<ele>57.0</ele>
				<time>2014-08-17T17:16:57Z</time>
				<extensions>
					<speed>1.5</speed>
				</extensions>
			</trkpt>
			<trkpt lat="53.26555689" lon="-8.9231872">
				<ele>57.0</ele>
				<time>2014-08-17T17:16:58Z</time>
				<extensions>
					<speed>0.5</speed>
				</extensions>
			</trkpt>
			<trkpt lat="53.26556946" lon="-8.92316569">
				<ele>58.0</ele>
				<time>2014-08-17T17:16:59Z</time>
				<extensions>
					<speed>0.0</speed>
				</extensions>
			</trkpt>
			<trkpt lat="53.26556753" lon="-8.92316403">
				<ele>58.0</ele>
				<time>2014-08-17T17:17:00Z</time>
				<extensions>
					<speed>0.0</speed>
				</extensions>
			</trkpt>
			<trkpt lat="53.26556892" lon="-8.92316287">
				<ele>58.0</ele>
				<time>2014-08-17T17:17:01Z</time>
				<extensions>
					<speed>0.0</speed>
				</extensions>
			</trkpt>
			<trkpt lat="53.26557077" lon="-8.92316339">
				<ele>59.0</ele>
				<time>2014-08-17T17:17:02Z</time>
				<extensions>
					<speed>0.0</speed>
				</extensions>
			</trkpt>
			<trkpt lat="53.26556799" lon="-8.92316173">
				<ele>59.0</ele>
				<time>2014-08-17T17:17:03Z</time>
				<extensions>
					<speed>0.0</speed>
				</extensions>
			</trkpt>
			<trkpt lat="53.26556422" lon="-8.92316779">
				<ele>58.0</ele>
				<time>2014-08-17T17:17:04Z</time>
				<extensions>
					<speed>0.0</speed>
				</extensions>
			</trkpt>
			<trkpt lat="53.26556331" lon="-8.92316401">
				<ele>58.0</ele>
				<time>2014-08-17T17:17:05Z</time>
				<extensions>
					<speed>0.0</speed>
				</extensions>
			</trkpt>
			<trkpt lat="53.26556408" lon="-8.92316247">
				<ele>58.0</ele>
				<time>2014-08-17T17:17:06Z</time>
				<extensions>
					<speed>0.0</speed>
				</extensions>
			</trkpt>
			<trkpt lat="53.26556569" lon="-8.92316442">
				<ele>58.0</ele>
				<time>2014-08-17T17:17:07Z</time>
				<extensions>
					<speed>0.0</speed>
				</extensions>
			</trkpt>
			<trkpt lat="53.26556456" lon="-8.92315945">
				<ele>58.0</ele>
				<time>2014-08-17T17:17:08Z</time>
				<extensions>
					<speed>0.0</speed>
				</extensions>
			</trkpt>
			<trkpt lat="53.26556604" lon="-8.92316104">
				<ele>58.0</ele>
				<time>2014-08-17T17:17:09Z</time>
				<extensions>
					<speed>0.0</speed>
				</extensions>
			</trkpt>
			<trkpt lat="53.26556525" lon="-8.92316145">
				<ele>58.0</ele>
				<time>2014-08-17T17:17:10Z</time>
				<extensions>
					<speed>0.0</speed>
				</extensions>
			</trkpt>
			<trkpt lat="53.26556412" lon="-8.92315883">
				<ele>58.0</ele>
				<time>2014-08-17T17:17:11Z</time>
				<extensions>
					<speed>1.0</speed>
				</extensions>
			</trkpt>
			<trkpt lat="53.26555285" lon="-8.92313783">
				<ele>58.0</ele>
				<time>2014-08-17T17:17:12Z</time>
				<extensions>
					<speed>2.75</speed>
				</extensions>
			</trkpt>
			<trkpt lat="53.2655174" lon="-8.92309665">
				<ele>57.0</ele>
				<time>2014-08-17T17:17:13Z</time>
				<extensions>
					<speed>4.25</speed>
				</extensions>
			</trkpt>
			<trkpt lat="53.26549144" lon="-8.92304863">
				<ele>57.0</ele>
				<time>2014-08-17T17:17:14Z</time>
				<extensions>
					<speed>4.0</speed>
				</extensions>
			</trkpt>
			<trkpt lat="53.26546527" lon="-8.922996">
				<ele>57.0</ele>
				<time>2014-08-17T17:17:15Z</time>
				<extensions>
					<speed>4.5</speed>
				</extensions>
			</trkpt>
			<trkpt lat="53.26543662" lon="-8.9229323">
				<ele>58.0</ele>
				<time>2014-08-17T17:17:16Z</time>
				<extensions>
					<speed>4.75</speed>
				</extensions>
			</trkpt>
			<trkpt lat="53.265419" lon="-8.92286802">
				<ele>58.0</ele>
				<time>2014-08-17T17:17:17Z</time>
				<extensions>
					<speed>4.75</speed>
				</extensions>
			</trkpt>
			<trkpt lat="53.26538612" lon="-8.92282045">
				<ele>58.0</ele>
				<time>2014-08-17T17:17:18Z</time>
				<extensions>
					<speed>5.0</speed>
				</extensions>
			</trkpt>
			<trkpt lat="53.26534302" lon="-8.92277447">
				<ele>58.0</ele>
				<time>2014-08-17T17:17:19Z</time>
				<extensions>
					<speed>5.25</speed>
				</extensions>
			</trkpt>
			<trkpt lat="53.26529224" lon="-8.92275845">
				<ele>58.0</ele>
				<time>2014-08-17T17:17:20Z</time>
				<extensions>
					<speed>6.25</speed>
				</extensions>
			</trkpt>
			<trkpt lat="53.26524045" lon="-8.92275625">
				<ele>58.0</ele>
				<time>2014-08-17T17:17:21Z</time>
				<extensions>
					<speed>6.0</speed>
				</extensions>
			</trkpt>
			<trkpt lat="53.26518179" lon="-8.92276696">
				<ele>59.0</ele>
				<time>2014-08-17T17:17:22Z</time>
				<extensions>
					<speed>6.0</speed>
				</extensions>
			</trkpt>
			<trkpt lat="53.26512957" lon="-8.92278064">
				<ele>60.0</ele>
				<time>2014-08-17T17:17:23Z</time>
				<extensions>
					<speed>6.0</speed>
				</extensions>
			</trkpt>
			<trkpt lat="53.26507621" lon="-8.92279794">
				<ele>59.0</ele>
				<time>2014-08-17T17:17:24Z</time>
				<extensions>
					<speed>5.5</speed>
				</extensions>
			</trkpt>
			<trkpt lat="53.26502792" lon="-8.92281143">
				<ele>61.0</ele>
				<time>2014-08-17T17:17:25Z</time>
				<extensions>
					<speed>5.25</speed>
				</extensions>
			</trkpt>
			<trkpt lat="53.26498715" lon="-8.92283146">
				<ele>60.0</ele>
				<time>2014-08-17T17:17:26Z</time>
				<extensions>
					<speed>5.0</speed>
				</extensions>
			</trkpt>
			<trkpt lat="53.26494057" lon="-8.92284285">
				<ele>61.0</ele>
				<time>2014-08-17T17:17:27Z</time>
				<extensions>
					<speed>5.0</speed>
				</extensions>
			</trkpt>
			<trkpt lat="53.26488519" lon="-8.92286575">
				<ele>59.0</ele>
				<time>2014-08-17T17:17:28Z</time>
				<extensions>
					<speed>4.75</speed>
				</extensions>
			</trkpt>
			<trkpt lat="53.26484261" lon="-8.92287919">
				<ele>58.0</ele>
				<time>2014-08-17T17:17:29Z</time>
				<extensions>
					<speed>4.25</speed>
				</extensions>
			</trkpt>
			<trkpt lat="53.26481633" lon="-8.92287735">
				<ele>57.0</ele>
				<time>2014-08-17T17:17:30Z</time>
				<extensions>
					<speed>2.5</speed>
				</extensions>
			</trkpt>
			<trkpt lat="53.26480164" lon="-8.92288613">
				<ele>57.0</ele>
				<time>2014-08-17T17:17:31Z</time>
				<extensions>
					<speed>0.5</speed>
				</extensions>
			</trkpt>
			<trkpt lat="53.26480133" lon="-8.92288844">
				<ele>57.0</ele>
				<time>2014-08-17T17:17:32Z</time>
				<extensions>
					<speed>0.0</speed>
				</extensions>
			</trkpt>
			<trkpt lat="53.26480224" lon="-8.92288846">
				<ele>57.0</ele>
				<time>2014-08-17T17:17:33Z</time>
				<extensions>
					<speed>0.0</speed>
				</extensions>
			</trkpt>
			<trkpt lat="53.26480293" lon="-8.92288462">
				<ele>57.0</ele>
				<time>2014-08-17T17:17:34Z</time>
				<extensions>
					<speed>0.0</speed>
				</extensions>
			</trkpt>
			<trkpt lat="53.26480276" lon="-8.92288291">
				<ele>57.0</ele>
				<time>2014-08-17T17:17:35Z</time>
				<extensions>
					<speed>0.0</speed>
				</extensions>
			</trkpt>
			<trkpt lat="53.26480527" lon="-8.9228816">
				<ele>57.0</ele>
				<time>2014-08-17T17:17:36Z</time>
				<extensions>
					<speed>2.25</speed>
				</extensions>
			</trkpt>
			<trkpt lat="53.26482518" lon="-8.92287911">
				<ele>57.0</ele>
				<time>2014-08-17T17:17:37Z</time>
				<extensions>
					<speed>2.25</speed>
				</extensions>
			</trkpt>
			<trkpt lat="53.26484385" lon="-8.92287002">
				<ele>57.0</ele>
				<time>2014-08-17T17:17:38Z</time>
				<extensions>
					<speed>2.0</speed>
				</extensions>
			</trkpt>
			<trkpt lat="53.26486537" lon="-8.92286487">
				<ele>57.0</ele>
				<time>2014-08-17T17:17:39Z</time>
				<extensions>
					<speed>2.0</speed>
				</extensions>
			</trkpt>
			<trkpt lat="53.26488387" lon="-8.92285577">
				<ele>57.0</ele>
				<time>2014-08-17T17:17:40Z</time>
				<extensions>
					<speed>1.75</speed>
				</extensions>
			</trkpt>
			<trkpt lat="53.26489327" lon="-8.92285748">
				<ele>57.0</ele>
				<time>2014-08-17T17:17:41Z</time>
				<extensions>
					<speed>0.75</speed>
				</extensions>
			</trkpt>
			<trkpt lat="53.26489265" lon="-8.92285173">
				<ele>58.0</ele>
				<time>2014-08-17T17:17:42Z</time>
				<extensions>
					<speed>0.0</speed>
				</extensions>
			</trkpt>
			<trkpt lat="53.26489039" lon="-8.92285179">
				<ele>57.0</ele>
				<time>2014-08-17T17:17:43Z</time>
				<extensions>
					<speed>0.0</speed>
				</extensions>
			</trkpt>
			<trkpt lat="53.26489418" lon="-8.92285537">
				<ele>57.0</ele>
				<time>2014-08-17T17:17:44Z</time>
				<extensions>
					<speed>0.0</speed>
				</extensions>
			</trkpt>
			<trkpt lat="53.26489487" lon="-8.92285341">
				<ele>57.0</ele>
				<time>2014-08-17T17:17:45Z</time>
				<extensions>
					<speed>0.0</speed>
				</extensions>
			</trkpt>
			<trkpt lat="53.26489463" lon="-8.92285155">
				<ele>57.0</ele>
				<time>2014-08-17T17:17:46Z</time>
				<extensions>
					<speed>0.0</speed>
				</extensions>
			</trkpt>
			<trkpt lat="53.26489616" lon="-8.92285292">
				<ele>57.0</ele>
				<time>2014-08-17T17:17:47Z</time>
				<extensions>
					<speed>0.0</speed>
				</extensions>
			</trkpt>
			<trkpt lat="53.26489616" lon="-8.92285292">
				<ele>57.0</ele>
				<time>2014-08-17T17:17:48Z</time>
				<extensions>
					<speed>0.0</speed>
				</extensions>
			</trkpt>
			<trkpt lat="53.26489307" lon="-8.92285288">
				<ele>57.0</ele>
				<time>2014-08-17T17:17:49Z</time>
				<extensions>
					<speed>0.0</speed>
				</extensions>
			</trkpt>
			<trkpt lat="53.26489326" lon="-8.92285665">
				<ele>57.0</ele>
				<time>2014-08-17T17:17:50Z</time>
				<extensions>
					<speed>0.0</speed>
				</extensions>
			</trkpt>
			<trkpt lat="53.26489464" lon="-8.92285958">
				<ele>57.0</ele>
				<time>2014-08-17T17:17:51Z</time>
				<extensions>
					<speed>0.0</speed>
				</extensions>
			</trkpt>
			<trkpt lat="53.26489462" lon="-8.92285943">
				<ele>57.0</ele>
				<time>2014-08-17T17:17:52Z</time>
				<extensions>
					<speed>0.0</speed>
				</extensions>
			</trkpt>
			<trkpt lat="53.26489439" lon="-8.92285867">
				<ele>57.0</ele>
				<time>2014-08-17T17:17:53Z</time>
				<extensions>
					<speed>0.0</speed>
				</extensions>
			</trkpt>
			<trkpt lat="53.26489443" lon="-8.92285854">
				<ele>57.0</ele>
				<time>2014-08-17T17:17:54Z</time>
				<extensions>
					<speed>0.0</speed>
				</extensions>
			</trkpt>
			<trkpt lat="53.26489445" lon="-8.92285851">
				<ele>57.0</ele>
				<time>2014-08-17T17:17:55Z</time>
				<extensions>
					<speed>0.0</speed>
				</extensions>
			</trkpt>
			<trkpt lat="53.26489448" lon="-8.92285879">
				<ele>57.0</ele>
				<time>2014-08-17T17:17:56Z</time>
				<extensions>
					<speed>0.0</speed>
				</extensions>
			</trkpt>
			<trkpt lat="53.26489443" lon="-8.9228588">
				<ele>57.0</ele>
				<time>2014-08-17T17:17:57Z</time>
				<extensions>
					<speed>0.0</speed>
				</extensions>
			</trkpt>
			<trkpt lat="53.26489353" lon="-8.92285854">
				<ele>57.0</ele>
				<time>2014-08-17T17:17:58Z</time>
				<extensions>
					<speed>0.75</speed>
				</extensions>
			</trkpt>
			<trkpt lat="53.26488136" lon="-8.92287255">
				<ele>58.0</ele>
				<time>2014-08-17T17:17:59Z</time>
				<extensions>
					<speed>2.0</speed>
				</extensions>
			</trkpt>
			<trkpt lat="53.26486284" lon="-8.92287638">
				<ele>58.0</ele>
				<time>2014-08-17T17:18:00Z</time>
				<extensions>
					<speed>2.0</speed>
				</extensions>
			</trkpt>
			<trkpt lat="53.26484435" lon="-8.92287503">
				<ele>58.0</ele>
				<time>2014-08-17T17:18:01Z</time>
				<extensions>
					<speed>2.25</speed>
				</extensions>
			</trkpt>
			<trkpt lat="53.26482618" lon="-8.92288162">
				<ele>58.0</ele>
				<time>2014-08-17T17:18:02Z</time>
				<extensions>
					<speed>2.25</speed>
				</extensions>
			</trkpt>
			<trkpt lat="53.26480918" lon="-8.92288532">
				<ele>59.0</ele>
				<time>2014-08-17T17:18:03Z</time>
				<extensions>
					<speed>2.0</speed>
				</extensions>
			</trkpt>
			<trkpt lat="53.26480483" lon="-8.92288952">
				<ele>59.0</ele>
				<time>2014-08-17T17:18:04Z</time>
				<extensions>
					<speed>1.0</speed>
				</extensions>
			</trkpt>
			<trkpt lat="53.26479859" lon="-8.92289534">
				<ele>59.0</ele>
				<time>2014-08-17T17:18:05Z</time>
				<extensions>
					<speed>0.75</speed>
				</extensions>
			</trkpt>
			<trkpt lat="53.2647954" lon="-8.92290206">
				<ele>60.0</ele>
				<time>2014-08-17T17:18:06Z</time>
				<extensions>
					<speed>0.0</speed>
				</extensions>
			</trkpt>
			<trkpt lat="53.26479234" lon="-8.92290816">
				<ele>60.0</ele>
				<time>2014-08-17T17:18:07Z</time>
				<extensions>
					<speed>0.0</speed>
				</extensions>
			</trkpt>
			<trkpt lat="53.26479417" lon="-8.92290665">
				<ele>60.0</ele>
				<time>2014-08-17T17:18:08Z</time>
				<extensions>
					<speed>0.0</speed>
				</extensions>
			</trkpt>
			<trkpt lat="53.26479584" lon="-8.9229072">
				<ele>60.0</ele>
				<time>2014-08-17T17:18:09Z</time>
				<extensions>
					<speed>0.0</speed>
				</extensions>
			</trkpt>
			<trkpt lat="53.26479366" lon="-8.92290817">
				<ele>60.0</ele>
				<time>2014-08-17T17:18:10Z</time>
				<extensions>
					<speed>0.0</speed>
				</extensions>
			</trkpt>
			<trkpt lat="53.26478966" lon="-8.92291181">
				<ele>61.0</ele>
				<time>2014-08-17T17:18:11Z</time>
				<extensions>
					<speed>0.0</speed>
				</extensions>
			</trkpt>
			<trkpt lat="53.26478609" lon="-8.92290876">
				<ele>61.0</ele>
				<time>2014-08-17T17:18:12Z</time>
				<extensions>
					<speed>0.0</speed>
				</extensions>
			</trkpt>
			<trkpt lat="53.26478553" lon="-8.92290618">
				<ele>61.0</ele>
				<time>2014-08-17T17:18:13Z</time>
				<extensions>
					<speed>0.0</speed>
				</extensions>
			</trkpt>
			<trkpt lat="53.26478553" lon="-8.92290618">
				<ele>61.0</ele>
				<time>2014-08-17T17:18:14Z</time>
				<extensions>
					<speed>0.0</speed>
				</extensions>
			</trkpt>
			<trkpt lat="53.26477841" lon="-8.92290833">
				<ele>61.0</ele>
				<time>2014-08-17T17:18:15Z</time>
				<extensions>
					<speed>1.75</speed>
				</extensions>
			</trkpt>
			<trkpt lat="53.26475512" lon="-8.92292287">
				<ele>60.0</ele>
				<time>2014-08-17T17:18:16Z</time>
				<extensions>
					<speed>2.5</speed>
				</extensions>
			</trkpt>
			<trkpt lat="53.26473894" lon="-8.92292768">
				<ele>59.0</ele>
				<time>2014-08-17T17:18:17Z</time>
				<extensions>
					<speed>2.5</speed>
				</extensions>
			</trkpt>
			<trkpt lat="53.2647199" lon="-8.92294076">
				<ele>59.0</ele>
				<time>2014-08-17T17:18:18Z</time>
				<extensions>
					<speed>2.75</speed>
				</extensions>
			</trkpt>
			<trkpt lat="53.26469239" lon="-8.9229588">
				<ele>59.0</ele>
				<time>2014-08-17T17:18:19Z</time>
				<extensions>
					<speed>2.5</speed>
				</extensions>
			</trkpt>
			<trkpt lat="53.2646705" lon="-8.92296731">
				<ele>59.0</ele>
				<time>2014-08-17T17:18:20Z</time>
				<extensions>
					<speed>2.5</speed>
				</extensions>
			</trkpt>
			<trkpt lat="53.26464981" lon="-8.922976">
				<ele>59.0</ele>
				<time>2014-08-17T17:18:21Z</time>
				<extensions>
					<speed>2.0</speed>
				</extensions>
			</trkpt>
			<trkpt lat="53.26463555" lon="-8.92298373">
				<ele>59.0</ele>
				<time>2014-08-17T17:18:22Z</time>
				<extensions>
					<speed>1.25</speed>
				</extensions>
			</trkpt>
			<trkpt lat="53.26462791" lon="-8.92298359">
				<ele>59.0</ele>
				<time>2014-08-17T17:18:23Z</time>
				<extensions>
					<speed>0.75</speed>
				</extensions>
			</trkpt>
			<trkpt lat="53.26462018" lon="-8.92298107">
				<ele>59.0</ele>
				<time>2014-08-17T17:18:24Z</time>
				<extensions>
					<speed>0.0</speed>
				</extensions>
			</trkpt>
			<trkpt lat="53.26462204" lon="-8.92298001">
				<ele>59.0</ele>
				<time>2014-08-17T17:18:25Z</time>
				<extensions>
					<speed>0.0</speed>
				</extensions>
			</trkpt>
			<trkpt lat="53.26461872" lon="-8.92297959">
				<ele>58.0</ele>
				<time>2014-08-17T17:18:26Z</time>
				<extensions>
					<speed>0.0</speed>
				</extensions>
			</trkpt>
			<trkpt lat="53.26462097" lon="-8.92297944">
				<ele>58.0</ele>
				<time>2014-08-17T17:18:27Z</time>
				<extensions>
					<speed>0.0</speed>
				</extensions>
			</trkpt>
			<trkpt lat="53.26462097" lon="-8.92297944">
				<ele>58.0</ele>
				<time>2014-08-17T17:18:28Z</time>
				<extensions>
					<speed>0.0</speed>
				</extensions>
			</trkpt>
			<trkpt lat="53.26462097" lon="-8.92297944">
				<ele>58.0</ele>
				<time>2014-08-17T17:18:29Z</time>
				<extensions>
					<speed>0.0</speed>
				</extensions>
			</trkpt>
			<trkpt lat="53.26461838" lon="-8.9229785">
				<ele>59.0</ele>
				<time>2014-08-17T17:18:30Z</time>
				<extensions>
					<speed>0.0</speed>
				</extensions>
			</trkpt>
			<trkpt lat="53.26461725" lon="-8.92297872">
				<ele>59.0</ele>
				<time>2014-08-17T17:18:31Z</time>
				<extensions>
					<speed>0.0</speed>
				</extensions>
			</trkpt>
			<trkpt lat="53.264615" lon="-8.92297808">
				<ele>59.0</ele>
				<time>2014-08-17T17:18:32Z</time>
				<extensions>
					<speed>0.0</speed>
				</extensions>
			</trkpt>
			<trkpt lat="53.264615" lon="-8.92297808">
				<ele>59.0</ele>
				<time>2014-08-17T17:18:33Z</time>
				<extensions>
					<speed>0.0</speed>
				</extensions>
			</trkpt>
			<trkpt lat="53.264615" lon="-8.92297808">
				<ele>59.0</ele>
				<time>2014-08-17T17:18:34Z</time>
				<extensions>
					<speed>0.0</speed>
				</extensions>
			</trkpt>
			<trkpt lat="53.26461293" lon="-8.92297612">
				<ele>59.0</ele>
				<time>2014-08-17T17:18:35Z</time>
				<extensions>
					<speed>0.0</speed>
				</extensions>
			</trkpt>
			<trkpt lat="53.26461425" lon="-8.92297702">
				<ele>59.0</ele>
				<time>2014-08-17T17:18:36Z</time>
				<extensions>
					<speed>0.0</speed>
				</extensions>
			</trkpt>
			<trkpt lat="53.26461463" lon="-8.92297768">
				<ele>59.0</ele>
				<time>2014-08-17T17:18:37Z</time>
				<extensions>
					<speed>0.0</speed>
				</extensions>
			</trkpt>
			<trkpt lat="53.2646151" lon="-8.92297744">
				<ele>59.0</ele>
				<time>2014-08-17T17:18:38Z</time>
				<extensions>
					<speed>0.0</speed>
				</extensions>
			</trkpt>
			<trkpt lat="53.26461495" lon="-8.92297741">
				<ele>59.0</ele>
				<time>2014-08-17T17:18:39Z</time>
				<extensions>
					<speed>0.0</speed>
				</extensions>
			</trkpt>
			<trkpt lat="53.26461499" lon="-8.92297741">
				<ele>59.0</ele>
				<time>2014-08-17T17:18:40Z</time>
				<extensions>
					<speed>0.0</speed>
				</extensions>
			</trkpt>
			<trkpt lat="53.26461215" lon="-8.92297736">
				<ele>59.0</ele>
				<time>2014-08-17T17:18:41Z</time>
				<extensions>
					<speed>2.25</speed>
				</extensions>
			</trkpt>
			<trkpt lat="53.26458577" lon="-8.92300476">
				<ele>59.0</ele>
				<time>2014-08-17T17:18:42Z</time>
				<extensions>
					<speed>3.25</speed>
				</extensions>
			</trkpt>
			<trkpt lat="53.2645699" lon="-8.92303632">
				<ele>59.0</ele>
				<time>2014-08-17T17:18:43Z</time>
				<extensions>
					<speed>3.5</speed>
				</extensions>
			</trkpt>
			<trkpt lat="53.2645606" lon="-8.92308528">
				<ele>59.0</ele>
				<time>2014-08-17T17:18:44Z</time>
				<extensions>
					<speed>3.25</speed>
				</extensions>
			</trkpt>
			<trkpt lat="53.26455839" lon="-8.92310649">
				<ele>58.0</ele>
				<time>2014-08-17T17:18:45Z</time>
				<extensions>
					<speed>1.5</speed>
				</extensions>
			</trkpt>
			<trkpt lat="53.26456513" lon="-8.92311199">
				<ele>58.0</ele>
				<time>2014-08-17T17:18:46Z</time>
				<extensions>
					<speed>0.0</speed>
				</extensions>
			</trkpt>
			<trkpt lat="53.26457099" lon="-8.92310448">
				<ele>58.0</ele>
				<time>2014-08-17T17:18:47Z</time>
				<extensions>
					<speed>0.0</speed>
				</extensions>
			</trkpt>
			<trkpt lat="53.26457084" lon="-8.9231024">
				<ele>58.0</ele>
				<time>2014-08-17T17:18:48Z</time>
				<extensions>
					<speed>1.0</speed>
				</extensions>
			</trkpt>
			<trkpt lat="53.2645757" lon="-8.92307198">
				<ele>57.0</ele>
				<time>2014-08-17T17:18:49Z</time>
				<extensions>
					<speed>1.0</speed>
				</extensions>
			</trkpt>
			<trkpt lat="53.26456968" lon="-8.92303998">
				<ele>58.0</ele>
				<time>2014-08-17T17:18:50Z</time>
				<extensions>
					<speed>1.5</speed>
				</extensions>
			</trkpt>
			<trkpt lat="53.26456218" lon="-8.92303571">
				<ele>58.0</ele>
				<time>2014-08-17T17:18:51Z</time>
				<extensions>
					<speed>1.0</speed>
				</extensions>
			</trkpt>
			<trkpt lat="53.26455822" lon="-8.92303354">
				<ele>59.0</ele>
				<time>2014-08-17T17:18:52Z</time>
				<extensions>
					<speed>0.75</speed>
				</extensions>
			</trkpt>
			<trkpt lat="53.26455908" lon="-8.92301982">
				<ele>58.0</ele>
				<time>2014-08-17T17:18:53Z</time>
				<extensions>
					<speed>0.5</speed>
				</extensions>
			</trkpt>
			<trkpt lat="53.26455608" lon="-8.92301593">
				<ele>59.0</ele>
				<time>2014-08-17T17:18:54Z</time>
				<extensions>
					<speed>0.5</speed>
				</extensions>
			</trkpt>
			<trkpt lat="53.2645549" lon="-8.92301443">
				<ele>59.0</ele>
				<time>2014-08-17T17:18:55Z</time>
				<extensions>
					<speed>0.0</speed>
				</extensions>
			</trkpt>
			<trkpt lat="53.26455763" lon="-8.9230092">
				<ele>59.0</ele>
				<time>2014-08-17T17:18:56Z</time>
				<extensions>
					<speed>0.0</speed>
				</extensions>
			</trkpt>
			<trkpt lat="53.26455987" lon="-8.92300837">
				<ele>59.0</ele>
				<time>2014-08-17T17:18:57Z</time>
				<extensions>
					<speed>2.0</speed>
				</extensions>
			</trkpt>
			<trkpt lat="53.26459369" lon="-8.92299396">
				<ele>59.0</ele>
				<time>2014-08-17T17:18:58Z</time>
				<extensions>
					<speed>4.25</speed>
				</extensions>
			</trkpt>
			<trkpt lat="53.26463387" lon="-8.92297911">
				<ele>59.0</ele>
				<time>2014-08-17T17:18:59Z</time>
				<extensions>
					<speed>5.0</speed>
				</extensions>
			</trkpt>
			<trkpt lat="53.26468705" lon="-8.92295558">
				<ele>59.0</ele>
				<time>2014-08-17T17:19:00Z</time>
				<extensions>
					<speed>5.75</speed>
				</extensions>
			</trkpt>
			<trkpt lat="53.26473932" lon="-8.92293629">
				<ele>59.0</ele>
				<time>2014-08-17T17:19:01Z</time>
				<extensions>
					<speed>6.5</speed>
				</extensions>
			</trkpt>
			<trkpt lat="53.26481096" lon="-8.92291283">
				<ele>59.0</ele>
				<time>2014-08-17T17:19:02Z</time>
				<extensions>
					<speed>7.0</speed>
				</extensions>
			</trkpt>
			<trkpt lat="53.26487449" lon="-8.92289038">
				<ele>59.0</ele>
				<time>2014-08-17T17:19:03Z</time>
				<extensions>
					<speed>7.5</speed>
				</extensions>
			</trkpt>
			<trkpt lat="53.26494146" lon="-8.92287585">
				<ele>59.0</ele>
				<time>2014-08-17T17:19:04Z</time>
				<extensions>
					<speed>7.5</speed>
				</extensions>
			</trkpt>
			<trkpt lat="53.26500666" lon="-8.92284903">
				<ele>58.0</ele>
				<time>2014-08-17T17:19:05Z</time>
				<extensions>
					<speed>7.5</speed>
				</extensions>
			</trkpt>
			<trkpt lat="53.26507773" lon="-8.92283362">
				<ele>58.0</ele>
				<time>2014-08-17T17:19:06Z</time>
				<extensions>
					<speed>7.5</speed>
				</extensions>
			</trkpt>
			<trkpt lat="53.26514031" lon="-8.92280334">
				<ele>57.0</ele>
				<time>2014-08-17T17:19:07Z</time>
				<extensions>
					<speed>7.5</speed>
				</extensions>
			</trkpt>
			<trkpt lat="53.26520325" lon="-8.92278974">
				<ele>58.0</ele>
				<time>2014-08-17T17:19:08Z</time>
				<extensions>
					<speed>7.25</speed>
				</extensions>
			</trkpt>
			<trkpt lat="53.26527302" lon="-8.92277449">
				<ele>57.0</ele>
				<time>2014-08-17T17:19:09Z</time>
				<extensions>
					<speed>7.5</speed>
				</extensions>
			</trkpt>
			<trkpt lat="53.26533269" lon="-8.92279599">
				<ele>57.0</ele>
				<time>2014-08-17T17:19:10Z</time>
				<extensions>
					<speed>7.25</speed>
				</extensions>
			</trkpt>
			<trkpt lat="53.2653834" lon="-8.92283408">
				<ele>57.0</ele>
				<time>2014-08-17T17:19:11Z</time>
				<extensions>
					<speed>6.0</speed>
				</extensions>
			</trkpt>
			<trkpt lat="53.26540905" lon="-8.92289042">
				<ele>57.0</ele>
				<time>2014-08-17T17:19:12Z</time>
				<extensions>
					<speed>4.5</speed>
				</extensions>
			</trkpt>
			<trkpt lat="53.26543198" lon="-8.92293269">
				<ele>57.0</ele>
				<time>2014-08-17T17:19:13Z</time>
				<extensions>
					<speed>3.0</speed>
				</extensions>
			</trkpt>
			<trkpt lat="53.26544556" lon="-8.92295722">
				<ele>57.0</ele>
				<time>2014-08-17T17:19:14Z</time>
				<extensions>
					<speed>2.25</speed>
				</extensions>
			</trkpt>
			<trkpt lat="53.26545386" lon="-8.92298155">
				<ele>57.0</ele>
				<time>2014-08-17T17:19:15Z</time>
				<extensions>
					<speed>2.0</speed>
				</extensions>
			</trkpt>
			<trkpt lat="53.26545634" lon="-8.92301107">
				<ele>57.0</ele>
				<time>2014-08-17T17:19:16Z</time>
				<extensions>
					<speed>2.25</speed>
				</extensions>
			</trkpt>
			<trkpt lat="53.26546631" lon="-8.92304505">
				<ele>58.0</ele>
				<time>2014-08-17T17:19:17Z</time>
				<extensions>
					<speed>2.75</speed>
				</extensions>
			</trkpt>
			<trkpt lat="53.26548269" lon="-8.92308415">
				<ele>59.0</ele>
				<time>2014-08-17T17:19:18Z</time>
				<extensions>
					<speed>3.75</speed>
				</extensions>
			</trkpt>
			<trkpt lat="53.26550372" lon="-8.92313583">
				<ele>58.0</ele>
				<time>2014-08-17T17:19:19Z</time>
				<extensions>
					<speed>4.25</speed>
				</extensions>
			</trkpt>
			<trkpt lat="53.26552703" lon="-8.92319066">
				<ele>57.0</ele>
				<time>2014-08-17T17:19:20Z</time>
				<extensions>
					<speed>5.0</speed>
				</extensions>
			</trkpt>
			<trkpt lat="53.26555908" lon="-8.92325208">
				<ele>57.0</ele>
				<time>2014-08-17T17:19:21Z</time>
				<extensions>
					<speed>5.75</speed>
				</extensions>
			</trkpt>
			<trkpt lat="53.2655868" lon="-8.92333258">
				<ele>58.0</ele>
				<time>2014-08-17T17:19:22Z</time>
				<extensions>
					<speed>6.75</speed>
				</extensions>
			</trkpt>
			<trkpt lat="53.26562057" lon="-8.9234181">
				<ele>58.0</ele>
				<time>2014-08-17T17:19:23Z</time>
				<extensions>
					<speed>6.75</speed>
				</extensions>
			</trkpt>
			<trkpt lat="53.26565464" lon="-8.92350162">
				<ele>58.0</ele>
				<time>2014-08-17T17:19:24Z</time>
				<extensions>
					<speed>7.0</speed>
				</extensions>
			</trkpt>
			<trkpt lat="53.2656896" lon="-8.92358636">
				<ele>58.0</ele>
				<time>2014-08-17T17:19:25Z</time>
				<extensions>
					<speed>7.25</speed>
				</extensions>
			</trkpt>
			<trkpt lat="53.26573381" lon="-8.92366953">
				<ele>58.0</ele>
				<time>2014-08-17T17:19:26Z</time>
				<extensions>
					<speed>7.25</speed>
				</extensions>
			</trkpt>
			<trkpt lat="53.26577996" lon="-8.92375204">
				<ele>58.0</ele>
				<time>2014-08-17T17:19:27Z</time>
				<extensions>
					<speed>7.0</speed>
				</extensions>
			</trkpt>
			<trkpt lat="53.26582492" lon="-8.92382303">
				<ele>57.0</ele>
				<time>2014-08-17T17:19:28Z</time>
				<extensions>
					<speed>7.0</speed>
				</extensions>
			</trkpt>
			<trkpt lat="53.26585488" lon="-8.92388817">
				<ele>57.0</ele>
				<time>2014-08-17T17:19:29Z</time>
				<extensions>
					<speed>6.25</speed>
				</extensions>
			</trkpt>
			<trkpt lat="53.26588922" lon="-8.92394711">
				<ele>57.0</ele>
				<time>2014-08-17T17:19:30Z</time>
				<extensions>
					<speed>4.75</speed>
				</extensions>
			</trkpt>
			<trkpt lat="53.26591903" lon="-8.92400194">
				<ele>58.0</ele>
				<time>2014-08-17T17:19:31Z</time>
				<extensions>
					<speed>4.0</speed>
				</extensions>
			</trkpt>
			<trkpt lat="53.26592489" lon="-8.9240635">
				<ele>57.0</ele>
				<time>2014-08-17T17:19:32Z</time>
				<extensions>
					<speed>4.0</speed>
				</extensions>
			</trkpt>
			<trkpt lat="53.26593472" lon="-8.92412112">
				<ele>56.0</ele>
				<time>2014-08-17T17:19:33Z</time>
				<extensions>
					<speed>4.0</speed>
				</extensions>
			</trkpt>
			<trkpt lat="53.2659326" lon="-8.92418854">
				<ele>57.0</ele>
				<time>2014-08-17T17:19:34Z</time>
				<extensions>
					<speed>5.5</speed>
				</extensions>
			</trkpt>
			<trkpt lat="53.2659036" lon="-8.92428336">
				<ele>58.0</ele>
				<time>2014-08-17T17:19:35Z</time>
				<extensions>
					<speed>7.0</speed>
				</extensions>
			</trkpt>
			<trkpt lat="53.26586442" lon="-8.92437779">
				<ele>57.0</ele>
				<time>2014-08-17T17:19:36Z</time>
				<extensions>
					<speed>7.25</speed>
				</extensions>
			</trkpt>
			<trkpt lat="53.26582696" lon="-8.92446503">
				<ele>58.0</ele>
				<time>2014-08-17T17:19:37Z</time>
				<extensions>
					<speed>7.0</speed>
				</extensions>
			</trkpt>
			<trkpt lat="53.26579078" lon="-8.92454995">
				<ele>58.0</ele>
				<time>2014-08-17T17:19:38Z</time>
				<extensions>
					<speed>7.0</speed>
				</extensions>
			</trkpt>
			<trkpt lat="53.26575362" lon="-8.92463212">
				<ele>57.0</ele>
				<time>2014-08-17T17:19:39Z</time>
				<extensions>
					<speed>6.75</speed>
				</extensions>
			</trkpt>
			<trkpt lat="53.26572368" lon="-8.92469878">
				<ele>57.0</ele>
				<time>2014-08-17T17:19:40Z</time>
				<extensions>
					<speed>4.75</speed>
				</extensions>
			</trkpt>
			<trkpt lat="53.26569827" lon="-8.92475473">
				<ele>58.0</ele>
				<time>2014-08-17T17:19:41Z</time>
				<extensions>
					<speed>4.75</speed>
				</extensions>
			</trkpt>
			<trkpt lat="53.26566741" lon="-8.92480198">
				<ele>58.0</ele>
				<time>2014-08-17T17:19:42Z</time>
				<extensions>
					<speed>4.5</speed>
				</extensions>
			</trkpt>
			<trkpt lat="53.26563624" lon="-8.92484028">
				<ele>59.0</ele>
				<time>2014-08-17T17:19:43Z</time>
				<extensions>
					<speed>4.25</speed>
				</extensions>
			</trkpt>
			<trkpt lat="53.26560631" lon="-8.92488032">
				<ele>58.0</ele>
				<time>2014-08-17T17:19:44Z</time>
				<extensions>
					<speed>4.0</speed>
				</extensions>
			</trkpt>
			<trkpt lat="53.26558133" lon="-8.92491989">
				<ele>59.0</ele>
				<time>2014-08-17T17:19:45Z</time>
				<extensions>
					<speed>3.75</speed>
				</extensions>
			</trkpt>
			<trkpt lat="53.26555349" lon="-8.92494636">
				<ele>59.0</ele>
				<time>2014-08-17T17:19:46Z</time>
				<extensions>
					<speed>3.5</speed>
				</extensions>
			</trkpt>
			<trkpt lat="53.26551983" lon="-8.9249562">
				<ele>59.0</ele>
				<time>2014-08-17T17:19:47Z</time>
				<extensions>
					<speed>3.25</speed>
				</extensions>
			</trkpt>
			<trkpt lat="53.265492" lon="-8.92494596">
				<ele>58.0</ele>
				<time>2014-08-17T17:19:48Z</time>
				<extensions>
					<speed>3.5</speed>
				</extensions>
			</trkpt>
			<trkpt lat="53.26546482" lon="-8.92490997">
				<ele>58.0</ele>
				<time>2014-08-17T17:19:49Z</time>
				<extensions>
					<speed>4.0</speed>
				</extensions>
			</trkpt>
			<trkpt lat="53.26543601" lon="-8.92486866">
				<ele>56.0</ele>
				<time>2014-08-17T17:19:50Z</time>
				<extensions>
					<speed>4.0</speed>
				</extensions>
			</trkpt>
			<trkpt lat="53.26541613" lon="-8.9248171">
				<ele>56.0</ele>
				<time>2014-08-17T17:19:51Z</time>
				<extensions>
					<speed>4.0</speed>
				</extensions>
			</trkpt>
			<trkpt lat="53.26540429" lon="-8.92476533">
				<ele>56.0</ele>
				<time>2014-08-17T17:19:52Z</time>
				<extensions>
					<speed>4.25</speed>
				</extensions>
			</trkpt>
			<trkpt lat="53.26539335" lon="-8.92470779">
				<ele>55.0</ele>
				<time>2014-08-17T17:19:53Z</time>
				<extensions>
					<speed>4.0</speed>
				</extensions>
			</trkpt>
			<trkpt lat="53.26538674" lon="-8.92465835">
				<ele>55.0</ele>
				<time>2014-08-17T17:19:54Z</time>
				<extensions>
					<speed>3.5</speed>
				</extensions>
			</trkpt>
			<trkpt lat="53.26537902" lon="-8.92461612">
				<ele>55.0</ele>
				<time>2014-08-17T17:19:55Z</time>
				<extensions>
					<speed>2.75</speed>
				</extensions>
			</trkpt>
			<trkpt lat="53.26537583" lon="-8.92458317">
				<ele>55.0</ele>
				<time>2014-08-17T17:19:56Z</time>
				<extensions>
					<speed>1.75</speed>
				</extensions>
			</trkpt>
			<trkpt lat="53.26537938" lon="-8.92456999">
				<ele>55.0</ele>
				<time>2014-08-17T17:19:57Z</time>
				<extensions>
					<speed>1.25</speed>
				</extensions>
			</trkpt>
			<trkpt lat="53.26538962" lon="-8.92454886">
				<ele>55.0</ele>
				<time>2014-08-17T17:19:58Z</time>
				<extensions>
					<speed>1.5</speed>
				</extensions>
			</trkpt>
			<trkpt lat="53.26540143" lon="-8.92452864">
				<ele>55.0</ele>
				<time>2014-08-17T17:19:59Z</time>
				<extensions>
					<speed>2.25</speed>
				</extensions>
			</trkpt>
			<trkpt lat="53.26542075" lon="-8.92450945">
				<ele>55.0</ele>
				<time>2014-08-17T17:20:00Z</time>
				<extensions>
					<speed>2.5</speed>
				</extensions>
			</trkpt>
			<trkpt lat="53.26544196" lon="-8.9244846">
				<ele>56.0</ele>
				<time>2014-08-17T17:20:01Z</time>
				<extensions>
					<speed>2.75</speed>
				</extensions>
			</trkpt>
			<trkpt lat="53.26546223" lon="-8.92446304">
				<ele>56.0</ele>
				<time>2014-08-17T17:20:02Z</time>
				<extensions>
					<speed>2.5</speed>
				</extensions>
			</trkpt>
			<trkpt lat="53.26548126" lon="-8.92445054">
				<ele>56.0</ele>
				<time>2014-08-17T17:20:03Z</time>
				<extensions>
					<speed>2.25</speed>
				</extensions>
			</trkpt>
			<trkpt lat="53.26549479" lon="-8.92443453">
				<ele>56.0</ele>
				<time>2014-08-17T17:20:04Z</time>
				<extensions>
					<speed>1.75</speed>
				</extensions>
			</trkpt>
			<trkpt lat="53.26550551" lon="-8.92442212">
				<ele>56.0</ele>
				<time>2014-08-17T17:20:05Z</time>
				<extensions>
					<speed>1.25</speed>
				</extensions>
			</trkpt>
			<trkpt lat="53.26551708" lon="-8.92440737">
				<ele>56.0</ele>
				<time>2014-08-17T17:20:06Z</time>
				<extensions>
					<speed>0.75</speed>
				</extensions>
			</trkpt>
			<trkpt lat="53.26552468" lon="-8.92439989">
				<ele>56.0</ele>
				<time>2014-08-17T17:20:07Z</time>
				<extensions>
					<speed>0.5</speed>
				</extensions>
			</trkpt>
			<trkpt lat="53.26553503" lon="-8.92438993">
				<ele>56.0</ele>
				<time>2014-08-17T17:20:08Z</time>
				<extensions>
					<speed>0.75</speed>
				</extensions>
			</trkpt>
			<trkpt lat="53.26554255" lon="-8.9243792">
				<ele>55.0</ele>
				<time>2014-08-17T17:20:09Z</time>
				<extensions>
					<speed>0.75</speed>
				</extensions>
			</trkpt>
			<trkpt lat="53.2655518" lon="-8.92437218">
				<ele>55.0</ele>
				<time>2014-08-17T17:20:10Z</time>
				<extensions>
					<speed>1.25</speed>
				</extensions>
			</trkpt>
			<trkpt lat="53.26555866" lon="-8.92436808">
				<ele>55.0</ele>
				<time>2014-08-17T17:20:11Z</time>
				<extensions>
					<speed>0.0</speed>
				</extensions>
			</trkpt>
			<trkpt lat="53.26555802" lon="-8.92436773">
				<ele>55.0</ele>
				<time>2014-08-17T17:20:12Z</time>
				<extensions>
					<speed>0.0</speed>
				</extensions>
			</trkpt>
			<trkpt lat="53.26556009" lon="-8.92437172">
				<ele>55.0</ele>
				<time>2014-08-17T17:20:13Z</time>
				<extensions>
					<speed>0.0</speed>
				</extensions>
			</trkpt>
			<trkpt lat="53.26556039" lon="-8.92437518">
				<ele>55.0</ele>
				<time>2014-08-17T17:20:14Z</time>
				<extensions>
					<speed>0.0</speed>
				</extensions>
			</trkpt>
			<trkpt lat="53.26556269" lon="-8.92437841">
				<ele>55.0</ele>
				<time>2014-08-17T17:20:15Z</time>
				<extensions>
					<speed>0.0</speed>
				</extensions>
			</trkpt>
			<trkpt lat="53.2655643" lon="-8.92437684">
				<ele>55.0</ele>
				<time>2014-08-17T17:20:16Z</time>
				<extensions>
					<speed>1.5</speed>
				</extensions>
			</trkpt>
			<trkpt lat="53.26558563" lon="-8.92435364">
				<ele>55.0</ele>
				<time>2014-08-17T17:20:17Z</time>
				<extensions>
					<speed>2.5</speed>
				</extensions>
			</trkpt>
			<trkpt lat="53.26561083" lon="-8.92433381">
				<ele>55.0</ele>
				<time>2014-08-17T17:20:18Z</time>
				<extensions>
					<speed>3.0</speed>
				</extensions>
			</trkpt>
			<trkpt lat="53.26563714" lon="-8.92431594">
				<ele>55.0</ele>
				<time>2014-08-17T17:20:19Z</time>
				<extensions>
					<speed>2.0</speed>
				</extensions>
			</trkpt>
			<trkpt lat="53.26564248" lon="-8.92430781">
				<ele>56.0</ele>
				<time>2014-08-17T17:20:20Z</time>
				<extensions>
					<speed>0.75</speed>
				</extensions>
			</trkpt>
			<trkpt lat="53.26564124" lon="-8.9243068">
				<ele>55.0</ele>
				<time>2014-08-17T17:20:21Z</time>
				<extensions>
					<speed>0.0</speed>
				</extensions>
			</trkpt>
			<trkpt lat="53.26563999" lon="-8.92430987">
				<ele>55.0</ele>
				<time>2014-08-17T17:20:22Z</time>
				<extensions>
					<speed>0.0</speed>
				</extensions>
			</trkpt>
			<trkpt lat="53.26564037" lon="-8.92431375">
				<ele>55.0</ele>
				<time>2014-08-17T17:20:23Z</time>
				<extensions>
					<speed>0.0</speed>
				</extensions>
			</trkpt>
			<trkpt lat="53.26563804" lon="-8.92431225">
				<ele>55.0</ele>
				<time>2014-08-17T17:20:24Z</time>
				<extensions>
					<speed>0.0</speed>
				</extensions>
			</trkpt>
			<trkpt lat="53.26563274" lon="-8.92431142">
				<ele>54.0</ele>
				<time>2014-08-17T17:20:25Z</time>
				<extensions>
					<speed>0.0</speed>
				</extensions>
			</trkpt>
			<trkpt lat="53.26563366" lon="-8.9243071">
				<ele>54.0</ele>
				<time>2014-08-17T17:20:26Z</time>
				<extensions>
					<speed>0.0</speed>
				</extensions>
			</trkpt>
			<trkpt lat="53.26563419" lon="-8.92430488">
				<ele>54.0</ele>
				<time>2014-08-17T17:20:27Z</time>
				<extensions>
					<speed>0.0</speed>
				</extensions>
			</trkpt>
			<trkpt lat="53.26563152" lon="-8.92430547">
				<ele>55.0</ele>
				<time>2014-08-17T17:20:28Z</time>
				<extensions>
					<speed>0.0</speed>
				</extensions>
			</trkpt>
			<trkpt lat="53.26562867" lon="-8.92430534">
				<ele>54.0</ele>
				<time>2014-08-17T17:20:29Z</time>
				<extensions>
					<speed>0.0</speed>
				</extensions>
			</trkpt>
			<trkpt lat="53.26563058" lon="-8.92430165">
				<ele>54.0</ele>
				<time>2014-08-17T17:20:30Z</time>
				<extensions>
					<speed>0.0</speed>
				</extensions>
			</trkpt>
			<trkpt lat="53.26563164" lon="-8.92429974">
				<ele>54.0</ele>
				<time>2014-08-17T17:20:31Z</time>
				<extensions>
					<speed>0.0</speed>
				</extensions>
			</trkpt>
			<trkpt lat="53.26563138" lon="-8.92430013">
				<ele>54.0</ele>
				<time>2014-08-17T17:20:32Z</time>
				<extensions>
					<speed>0.0</speed>
				</extensions>
			</trkpt>
			<trkpt lat="53.26563118" lon="-8.92430018">
				<ele>54.0</ele>
				<time>2014-08-17T17:20:33Z</time>
				<extensions>
					<speed>0.0</speed>
				</extensions>
			</trkpt>
			<trkpt lat="53.26563127" lon="-8.92430012">
				<ele>54.0</ele>
				<time>2014-08-17T17:20:34Z</time>
				<extensions>
					<speed>0.0</speed>
				</extensions>
			</trkpt>
			<trkpt lat="53.26563125" lon="-8.92430011">
				<ele>54.0</ele>
				<time>2014-08-17T17:20:35Z</time>
				<extensions>
					<speed>0.0</speed>
				</extensions>
			</trkpt>
			<trkpt lat="53.26563132" lon="-8.92430012">
				<ele>54.0</ele>
				<time>2014-08-17T17:20:36Z</time>
				<extensions>
					<speed>0.0</speed>
				</extensions>
			</trkpt>
			<trkpt lat="53.26563132" lon="-8.92430011">
				<ele>54.0</ele>
				<time>2014-08-17T17:20:37Z</time>
				<extensions>
					<speed>0.0</speed>
				</extensions>
			</trkpt>
			<trkpt lat="53.26563133" lon="-8.92430009">
				<ele>54.0</ele>
				<time>2014-08-17T17:20:38Z</time>
				<extensions>
					<speed>0.0</speed>
				</extensions>
			</trkpt>
			<trkpt lat="53.26563134" lon="-8.92430003">
				<ele>54.0</ele>
				<time>2014-08-17T17:20:39Z</time>
				<extensions>
					<speed>0.0</speed>
				</extensions>
			</trkpt>
			<trkpt lat="53.26563136" lon="-8.92430004">
				<ele>54.0</ele>
				<time>2014-08-17T17:20:40Z</time>
				<extensions>
					<speed>0.0</speed>
				</extensions>
			</trkpt>
			<trkpt lat="53.26563025" lon="-8.92430108">
				<ele>54.0</ele>
				<time>2014-08-17T17:20:41Z</time>
				<extensions>
					<speed>1.0</speed>
				</extensions>
			</trkpt>
			<trkpt lat="53.26562371" lon="-8.92430767">
				<ele>53.0</ele>
				<time>2014-08-17T17:20:42Z</time>
				<extensions>
					<speed>1.25</speed>
				</extensions>
			</trkpt>
			<trkpt lat="53.26561339" lon="-8.92431255">
				<ele>53.0</ele>
				<time>2014-08-17T17:20:43Z</time>
				<extensions>
					<speed>1.5</speed>
				</extensions>
			</trkpt>
			<trkpt lat="53.26560273" lon="-8.92431959">
				<ele>54.0</ele>
				<time>2014-08-17T17:20:44Z</time>
				<extensions>
					<speed>1.5</speed>
				</extensions>
			</trkpt>
			<trkpt lat="53.26559321" lon="-8.924332">
				<ele>55.0</ele>
				<time>2014-08-17T17:20:45Z</time>
				<extensions>
					<speed>1.25</speed>
				</extensions>
			</trkpt>
			<trkpt lat="53.26558425" lon="-8.92434142">
				<ele>55.0</ele>
				<time>2014-08-17T17:20:46Z</time>
				<extensions>
					<speed>1.25</speed>
				</extensions>
			</trkpt>
			<trkpt lat="53.26557305" lon="-8.92434391">
				<ele>54.0</ele>
				<time>2014-08-17T17:20:47Z</time>
				<extensions>
					<speed>1.0</speed>
				</extensions>
			</trkpt>
			<trkpt lat="53.26556533" lon="-8.92435146">
				<ele>54.0</ele>
				<time>2014-08-17T17:20:48Z</time>
				<extensions>
					<speed>1.0</speed>
				</extensions>
			</trkpt>
			<trkpt lat="53.26556077" lon="-8.92435434">
				<ele>54.0</ele>
				<time>2014-08-17T17:20:49Z</time>
				<extensions>
					<speed>0.75</speed>
				</extensions>
			</trkpt>
			<trkpt lat="53.2655541" lon="-8.92436277">
				<ele>54.0</ele>
				<time>2014-08-17T17:20:50Z</time>
				<extensions>
					<speed>0.75</speed>
				</extensions>
			</trkpt>
			<trkpt lat="53.2655399" lon="-8.92438668">
				<ele>51.0</ele>
				<time>2014-08-17T17:20:51Z</time>
				<extensions>
					<speed>1.0</speed>
				</extensions>
			</trkpt>
			<trkpt lat="53.26553537" lon="-8.92439581">
				<ele>51.0</ele>
				<time>2014-08-17T17:20:52Z</time>
				<extensions>
					<speed>1.0</speed>
				</extensions>
			</trkpt>
			<trkpt lat="53.26552929" lon="-8.92440539">
				<ele>51.0</ele>
				<time>2014-08-17T17:20:53Z</time>
				<extensions>
					<speed>0.75</speed>
				</extensions>
			</trkpt>
			<trkpt lat="53.26552048" lon="-8.92441224">
				<ele>51.0</ele>
				<time>2014-08-17T17:20:54Z</time>
				<extensions>
					<speed>1.25</speed>
				</extensions>
			</trkpt>
			<trkpt lat="53.26551694" lon="-8.92440729">
				<ele>52.0</ele>
				<time>2014-08-17T17:20:55Z</time>
				<extensions>
					<speed>0.75</speed>
				</extensions>
			</trkpt>
			<trkpt lat="53.26550916" lon="-8.92440706">
				<ele>52.0</ele>
				<time>2014-08-17T17:20:56Z</time>
				<extensions>
					<speed>0.0</speed>
				</extensions>
			</trkpt>
			<trkpt lat="53.26550798" lon="-8.92440376">
				<ele>52.0</ele>
				<time>2014-08-17T17:20:57Z</time>
				<extensions>
					<speed>0.0</speed>
				</extensions>
			</trkpt>
			<trkpt lat="53.26550741" lon="-8.92440436">
				<ele>52.0</ele>
				<time>2014-08-17T17:20:58Z</time>
				<extensions>
					<speed>0.5</speed>
				</extensions>
			</trkpt>
			<trkpt lat="53.26549874" lon="-8.92440896">
				<ele>53.0</ele>
				<time>2014-08-17T17:20:59Z</time>
				<extensions>
					<speed>0.75</speed>
				</extensions>
			</trkpt>
			<trkpt lat="53.26549016" lon="-8.92441143">
				<ele>53.0</ele>
				<time>2014-08-17T17:21:00Z</time>
				<extensions>
					<speed>1.0</speed>
				</extensions>
			</trkpt>
			<trkpt lat="53.26548482" lon="-8.92441677">
				<ele>53.0</ele>
				<time>2014-08-17T17:21:01Z</time>
				<extensions>
					<speed>0.75</speed>
				</extensions>
			</trkpt>
			<trkpt lat="53.26548066" lon="-8.92443108">
				<ele>53.0</ele>
				<time>2014-08-17T17:21:02Z</time>
				<extensions>
					<speed>0.25</speed>
				</extensions>
			</trkpt>
			<trkpt lat="53.26547647" lon="-8.92442936">
				<ele>54.0</ele>
				<time>2014-08-17T17:21:03Z</time>
				<extensions>
					<speed>0.0</speed>
				</extensions>
			</trkpt>
			<trkpt lat="53.26547124" lon="-8.92442799">
				<ele>55.0</ele>
				<time>2014-08-17T17:21:04Z</time>
				<extensions>
					<speed>0.0</speed>
				</extensions>
			</trkpt>
			<trkpt lat="53.26546779" lon="-8.92442474">
				<ele>56.0</ele>
				<time>2014-08-17T17:21:05Z</time>
				<extensions>
					<speed>0.0</speed>
				</extensions>
			</trkpt>
			<trkpt lat="53.26546634" lon="-8.92442641">
				<ele>56.0</ele>
				<time>2014-08-17T17:21:06Z</time>
				<extensions>
					<speed>0.0</speed>
				</extensions>
			</trkpt>
			<trkpt lat="53.26546424" lon="-8.92442667">
				<ele>57.0</ele>
				<time>2014-08-17T17:21:07Z</time>
				<extensions>
					<speed>0.0</speed>
				</extensions>
			</trkpt>
			<trkpt lat="53.26546301" lon="-8.92442556">
				<ele>57.0</ele>
				<time>2014-08-17T17:21:08Z</time>
				<extensions>
					<speed>0.0</speed>
				</extensions>
			</trkpt>
			<trkpt lat="53.26546301" lon="-8.92442556">
				<ele>57.0</ele>
				<time>2014-08-17T17:21:09Z</time>
				<extensions>
					<speed>0.0</speed>
				</extensions>
			</trkpt>
			<trkpt lat="53.26546301" lon="-8.92442556">
				<ele>57.0</ele>
				<time>2014-08-17T17:21:10Z</time>
				<extensions>
					<speed>0.0</speed>
				</extensions>
			</trkpt>
			<trkpt lat="53.26546289" lon="-8.92442756">
				<ele>57.0</ele>
				<time>2014-08-17T17:21:11Z</time>
				<extensions>
					<speed>0.0</speed>
				</extensions>
			</trkpt>
			<trkpt lat="53.26546273" lon="-8.92442967">
				<ele>57.0</ele>
				<time>2014-08-17T17:21:12Z</time>
				<extensions>
					<speed>1.0</speed>
				</extensions>
			</trkpt>
			<trkpt lat="53.26546148" lon="-8.92444616">
				<ele>58.0</ele>
				<time>2014-08-17T17:21:13Z</time>
				<extensions>
					<speed>1.0</speed>
				</extensions>
			</trkpt>
			<trkpt lat="53.26544392" lon="-8.92447356">
				<ele>57.0</ele>
				<time>2014-08-17T17:21:14Z</time>
				<extensions>
					<speed>1.75</speed>
				</extensions>
			</trkpt>
			<trkpt lat="53.265429" lon="-8.92448971">
				<ele>57.0</ele>
				<time>2014-08-17T17:21:15Z</time>
				<extensions>
					<speed>2.25</speed>
				</extensions>
			</trkpt>
			<trkpt lat="53.26541567" lon="-8.92449925">
				<ele>57.0</ele>
				<time>2014-08-17T17:21:16Z</time>
				<extensions>
					<speed>2.0</speed>
				</extensions>
			</trkpt>
			<trkpt lat="53.26539836" lon="-8.9245014">
				<ele>58.0</ele>
				<time>2014-08-17T17:21:17Z</time>
				<extensions>
					<speed>2.0</speed>
				</extensions>
			</trkpt>
			<trkpt lat="53.26538194" lon="-8.92447258">
				<ele>57.0</ele>
				<time>2014-08-17T17:21:18Z</time>
				<extensions>
					<speed>2.25</speed>
				</extensions>
			</trkpt>
			<trkpt lat="53.26537025" lon="-8.92445329">
				<ele>57.0</ele>
				<time>2014-08-17T17:21:19Z</time>
				<extensions>
					<speed>2.25</speed>
				</extensions>
			</trkpt>
			<trkpt lat="53.26536276" lon="-8.92443274">
				<ele>57.0</ele>
				<time>2014-08-17T17:21:20Z</time>
				<extensions>
					<speed>2.0</speed>
				</extensions>
			</trkpt>
			<trkpt lat="53.26535665" lon="-8.92441021">
				<ele>58.0</ele>
				<time>2014-08-17T17:21:21Z</time>
				<extensions>
					<speed>1.75</speed>
				</extensions>
			</trkpt>
			<trkpt lat="53.26535152" lon="-8.92439411">
				<ele>58.0</ele>
				<time>2014-08-17T17:21:22Z</time>
				<extensions>
					<speed>1.0</speed>
				</extensions>
			</trkpt>
			<trkpt lat="53.26534888" lon="-8.92439105">
				<ele>58.0</ele>
				<time>2014-08-17T17:21:23Z</time>
				<extensions>
					<speed>0.0</speed>
				</extensions>
			</trkpt>
			<trkpt lat="53.26534929" lon="-8.92439454">
				<ele>59.0</ele>
				<time>2014-08-17T17:21:24Z</time>
				<extensions>
					<speed>0.0</speed>
				</extensions>
			</trkpt>
			<trkpt lat="53.26534674" lon="-8.92438757">
				<ele>58.0</ele>
				<time>2014-08-17T17:21:25Z</time>
				<extensions>
					<speed>0.0</speed>
				</extensions>
			</trkpt>
			<trkpt lat="53.26534516" lon="-8.92438148">
				<ele>58.0</ele>
				<time>2014-08-17T17:21:26Z</time>
				<extensions>
					<speed>0.0</speed>
				</extensions>
			</trkpt>
			<trkpt lat="53.26534678" lon="-8.92438625">
				<ele>58.0</ele>
				<time>2014-08-17T17:21:27Z</time>
				<extensions>
					<speed>0.0</speed>
				</extensions>
			</trkpt>
			<trkpt lat="53.26534752" lon="-8.92439101">
				<ele>58.0</ele>
				<time>2014-08-17T17:21:28Z</time>
				<extensions>
					<speed>0.0</speed>
				</extensions>
			</trkpt>
			<trkpt lat="53.26534666" lon="-8.92439164">
				<ele>58.0</ele>
				<time>2014-08-17T17:21:29Z</time>
				<extensions>
					<speed>0.0</speed>
				</extensions>
			</trkpt>
			<trkpt lat="53.26534576" lon="-8.92439097">
				<ele>58.0</ele>
				<time>2014-08-17T17:21:30Z</time>
				<extensions>
					<speed>0.0</speed>
				</extensions>
			</trkpt>
			<trkpt lat="53.26534515" lon="-8.92439253">
				<ele>58.0</ele>
				<time>2014-08-17T17:21:31Z</time>
				<extensions>
					<speed>0.0</speed>
				</extensions>
			</trkpt>
			<trkpt lat="53.26534821" lon="-8.9243904">
				<ele>58.0</ele>
				<time>2014-08-17T17:21:32Z</time>
				<extensions>
					<speed>0.0</speed>
				</extensions>
			</trkpt>
			<trkpt lat="53.26534758" lon="-8.92438913">
				<ele>58.0</ele>
				<time>2014-08-17T17:21:33Z</time>
				<extensions>
					<speed>0.5</speed>
				</extensions>
			</trkpt>
			<trkpt lat="53.26533797" lon="-8.92438096">
				<ele>58.0</ele>
				<time>2014-08-17T17:21:34Z</time>
				<extensions>
					<speed>1.5</speed>
				</extensions>
			</trkpt>
			<trkpt lat="53.26532686" lon="-8.92436121">
				<ele>58.0</ele>
				<time>2014-08-17T17:21:35Z</time>
				<extensions>
					<speed>1.75</speed>
				</extensions>
			</trkpt>
			<trkpt lat="53.26532073" lon="-8.9243424">
				<ele>58.0</ele>
				<time>2014-08-17T17:21:36Z</time>
				<extensions>
					<speed>1.5</speed>
				</extensions>
			</trkpt>
			<trkpt lat="53.26531602" lon="-8.92432989">
				<ele>58.0</ele>
				<time>2014-08-17T17:21:37Z</time>
				<extensions>
					<speed>1.0</speed>
				</extensions>
			</trkpt>
			<trkpt lat="53.26530793" lon="-8.92432705">
				<ele>59.0</ele>
				<time>2014-08-17T17:21:38Z</time>
				<extensions>
					<speed>0.5</speed>
				</extensions>
			</trkpt>
			<trkpt lat="53.26530526" lon="-8.92432464">
				<ele>59.0</ele>
				<time>2014-08-17T17:21:39Z</time>
				<extensions>
					<speed>0.25</speed>
				</extensions>
			</trkpt>
			<trkpt lat="53.26531648" lon="-8.92432191">
				<ele>59.0</ele>
				<time>2014-08-17T17:21:40Z</time>
				<extensions>
					<speed>0.0</speed>
				</extensions>
			</trkpt>
			<trkpt lat="53.26531648" lon="-8.92432191">
				<ele>59.0</ele>
				<time>2014-08-17T17:21:41Z</time>
				<extensions>
					<speed>0.0</speed>
				</extensions>
			</trkpt>
			<trkpt lat="53.26531648" lon="-8.92432191">
				<ele>59.0</ele>
				<time>2014-08-17T17:21:42Z</time>
				<extensions>
					<speed>0.0</speed>
				</extensions>
			</trkpt>
			<trkpt lat="53.26532236" lon="-8.92431701">
				<ele>59.0</ele>
				<time>2014-08-17T17:21:43Z</time>
				<extensions>
					<speed>0.0</speed>
				</extensions>
			</trkpt>
			<trkpt lat="53.2653241" lon="-8.92431601">
				<ele>59.0</ele>
				<time>2014-08-17T17:21:44Z</time>
				<extensions>
					<speed>0.0</speed>
				</extensions>
			</trkpt>
			<trkpt lat="53.26532485" lon="-8.92431659">
				<ele>59.0</ele>
				<time>2014-08-17T17:21:45Z</time>
				<extensions>
					<speed>0.0</speed>
				</extensions>
			</trkpt>
			<trkpt lat="53.26532468" lon="-8.92431594">
				<ele>59.0</ele>
				<time>2014-08-17T17:21:46Z</time>
				<extensions>
					<speed>0.25</speed>
				</extensions>
			</trkpt>
			<trkpt lat="53.26532675" lon="-8.92431243">
				<ele>59.0</ele>
				<time>2014-08-17T17:21:47Z</time>
				<extensions>
					<speed>0.0</speed>
				</extensions>
			</trkpt>
			<trkpt lat="53.26532675" lon="-8.92431243">
				<ele>59.0</ele>
				<time>2014-08-17T17:21:48Z</time>
				<extensions>
					<speed>0.0</speed>
				</extensions>
			</trkpt>
			<trkpt lat="53.2653245" lon="-8.92430852">
				<ele>59.0</ele>
				<time>2014-08-17T17:21:49Z</time>
				<extensions>
					<speed>0.0</speed>
				</extensions>
			</trkpt>
			<trkpt lat="53.26532484" lon="-8.92431354">
				<ele>59.0</ele>
				<time>2014-08-17T17:21:50Z</time>
				<extensions>
					<speed>0.0</speed>
				</extensions>
			</trkpt>
			<trkpt lat="53.26532434" lon="-8.92431313">
				<ele>59.0</ele>
				<time>2014-08-17T17:21:51Z</time>
				<extensions>
					<speed>0.0</speed>
				</extensions>
			</trkpt>
			<trkpt lat="53.2653234" lon="-8.92430708">
				<ele>59.0</ele>
				<time>2014-08-17T17:21:52Z</time>
				<extensions>
					<speed>0.0</speed>
				</extensions>
			</trkpt>
			<trkpt lat="53.26532307" lon="-8.92430784">
				<ele>60.0</ele>
				<time>2014-08-17T17:21:53Z</time>
				<extensions>
					<speed>0.0</speed>
				</extensions>
			</trkpt>
			<trkpt lat="53.26532307" lon="-8.92430784">
				<ele>60.0</ele>
				<time>2014-08-17T17:21:54Z</time>
				<extensions>
					<speed>0.0</speed>
				</extensions>
			</trkpt>
			<trkpt lat="53.26532307" lon="-8.92430784">
				<ele>60.0</ele>
				<time>2014-08-17T17:21:55Z</time>
				<extensions>
					<speed>0.0</speed>
				</extensions>
			</trkpt>
			<trkpt lat="53.26531755" lon="-8.92430388">
				<ele>60.0</ele>
				<time>2014-08-17T17:21:56Z</time>
				<extensions>
					<speed>2.25</speed>
				</extensions>
			</trkpt>
			<trkpt lat="53.26529452" lon="-8.92428378">
				<ele>60.0</ele>
				<time>2014-08-17T17:21:57Z</time>
				<extensions>
					<speed>3.0</speed>
				</extensions>
			</trkpt>
			<trkpt lat="53.26526978" lon="-8.92426123">
				<ele>61.0</ele>
				<time>2014-08-17T17:21:58Z</time>
				<extensions>
					<speed>3.0</speed>
				</extensions>
			</trkpt>
			<trkpt lat="53.2652508" lon="-8.92422866">
				<ele>62.0</ele>
				<time>2014-08-17T17:21:59Z</time>
				<extensions>
					<speed>2.75</speed>
				</extensions>
			</trkpt>
			<trkpt lat="53.26523266" lon="-8.92419575">
				<ele>62.0</ele>
				<time>2014-08-17T17:22:00Z</time>
				<extensions>
					<speed>2.75</speed>
				</extensions>
			</trkpt>
			<trkpt lat="53.26521191" lon="-8.92416888">
				<ele>61.0</ele>
				<time>2014-08-17T17:22:01Z</time>
				<extensions>
					<speed>2.5</speed>
				</extensions>
			</trkpt>
			<trkpt lat="53.26519754" lon="-8.92414327">
				<ele>62.0</ele>
				<time>2014-08-17T17:22:02Z</time>
				<extensions>
					<speed>2.25</speed>
				</extensions>
			</trkpt>
			<trkpt lat="53.26518572" lon="-8.92411731">
				<ele>62.0</ele>
				<time>2014-08-17T17:22:03Z</time>
				<extensions>
					<speed>1.75</speed>
				</extensions>
			</trkpt>
			<trkpt lat="53.26517996" lon="-8.92409363">
				<ele>62.0</ele>
				<time>2014-08-17T17:22:04Z</time>
				<extensions>
					<speed>1.25</speed>
				</extensions>
			</trkpt>
			<trkpt lat="53.26517525" lon="-8.92408033">
				<ele>61.0</ele>
				<time>2014-08-17T17:22:05Z</time>
				<extensions>
					<speed>0.5</speed>
				</extensions>
			</trkpt>
			<trkpt lat="53.26517392" lon="-8.92407133">
				<ele>62.0</ele>
				<time>2014-08-17T17:22:06Z</time>
				<extensions>
					<speed>0.0</speed>
				</extensions>
			</trkpt>
			<trkpt lat="53.26517287" lon="-8.92406857">
				<ele>62.0</ele>
				<time>2014-08-17T17:22:07Z</time>
				<extensions>
					<speed>0.0</speed>
				</extensions>
			</trkpt>
			<trkpt lat="53.26517244" lon="-8.92407115">
				<ele>62.0</ele>
				<time>2014-08-17T17:22:08Z</time>
				<extensions>
					<speed>0.0</speed>
				</extensions>
			</trkpt>
			<trkpt lat="53.26516592" lon="-8.924069">
				<ele>62.0</ele>
				<time>2014-08-17T17:22:09Z</time>
				<extensions>
					<speed>0.0</speed>
				</extensions>
			</trkpt>
			<trkpt lat="53.26516464" lon="-8.92406441">
				<ele>62.0</ele>
				<time>2014-08-17T17:22:10Z</time>
				<extensions>
					<speed>0.0</speed>
				</extensions>
			</trkpt>
			<trkpt lat="53.26516441" lon="-8.92406251">
				<ele>62.0</ele>
				<time>2014-08-17T17:22:11Z</time>
				<extensions>
					<speed>0.0</speed>
				</extensions>
			</trkpt>
			<trkpt lat="53.26515836" lon="-8.92406058">
				<ele>61.0</ele>
				<time>2014-08-17T17:22:12Z</time>
				<extensions>
					<speed>0.0</speed>
				</extensions>
			</trkpt>
			<trkpt lat="53.26515832" lon="-8.92406039">
				<ele>61.0</ele>
				<time>2014-08-17T17:22:13Z</time>
				<extensions>
					<speed>0.0</speed>
				</extensions>
			</trkpt>
			<trkpt lat="53.26515579" lon="-8.92406026">
				<ele>61.0</ele>
				<time>2014-08-17T17:22:14Z</time>
				<extensions>
					<speed>0.0</speed>
				</extensions>
			</trkpt>
			<trkpt lat="53.2651532" lon="-8.92406442">
				<ele>62.0</ele>
				<time>2014-08-17T17:22:15Z</time>
				<extensions>
					<speed>0.0</speed>
				</extensions>
			</trkpt>
			<trkpt lat="53.26515199" lon="-8.92406536">
				<ele>62.0</ele>
				<time>2014-08-17T17:22:16Z</time>
				<extensions>
					<speed>0.0</speed>
				</extensions>
			</trkpt>
			<trkpt lat="53.26515112" lon="-8.92406614">
				<ele>62.0</ele>
				<time>2014-08-17T17:22:17Z</time>
				<extensions>
					<speed>0.0</speed>
				</extensions>
			</trkpt>
			<trkpt lat="53.26515077" lon="-8.92406671">
				<ele>62.0</ele>
				<time>2014-08-17T17:22:18Z</time>
				<extensions>
					<speed>0.0</speed>
				</extensions>
			</trkpt>
			<trkpt lat="53.26515047" lon="-8.92406684">
				<ele>62.0</ele>
				<time>2014-08-17T17:22:19Z</time>
				<extensions>
					<speed>0.0</speed>
				</extensions>
			</trkpt>
			<trkpt lat="53.26515043" lon="-8.92406693">
				<ele>62.0</ele>
				<time>2014-08-17T17:22:20Z</time>
				<extensions>
					<speed>0.0</speed>
				</extensions>
			</trkpt>
			<trkpt lat="53.2651504" lon="-8.92406695">
				<ele>62.0</ele>
				<time>2014-08-17T17:22:21Z</time>
				<extensions>
					<speed>0.0</speed>
				</extensions>
			</trkpt>
			<trkpt lat="53.26515039" lon="-8.92406699">
				<ele>62.0</ele>
				<time>2014-08-17T17:22:22Z</time>
				<extensions>
					<speed>0.0</speed>
				</extensions>
			</trkpt>
			<trkpt lat="53.26515038" lon="-8.92406696">
				<ele>62.0</ele>
				<time>2014-08-17T17:22:23Z</time>
				<extensions>
					<speed>0.0</speed>
				</extensions>
			</trkpt>
			<trkpt lat="53.26515042" lon="-8.92406699">
				<ele>62.0</ele>
				<time>2014-08-17T17:22:24Z</time>
				<extensions>
					<speed>0.0</speed>
				</extensions>
			</trkpt>
			<trkpt lat="53.26515039" lon="-8.92406705">
				<ele>62.0</ele>
				<time>2014-08-17T17:22:25Z</time>
				<extensions>
					<speed>0.0</speed>
				</extensions>
			</trkpt>
			<trkpt lat="53.26515034" lon="-8.92406713">
				<ele>62.0</ele>
				<time>2014-08-17T17:22:26Z</time>
				<extensions>
					<speed>0.0</speed>
				</extensions>
			</trkpt>
			<trkpt lat="53.26515029" lon="-8.92406717">
				<ele>62.0</ele>
				<time>2014-08-17T17:22:27Z</time>
				<extensions>
					<speed>0.0</speed>
				</extensions>
			</trkpt>
			<trkpt lat="53.26515029" lon="-8.92406719">
				<ele>62.0</ele>
				<time>2014-08-17T17:22:28Z</time>
				<extensions>
					<speed>0.0</speed>
				</extensions>
			</trkpt>
			<trkpt lat="53.2651503" lon="-8.92406721">
				<ele>62.0</ele>
				<time>2014-08-17T17:22:29Z</time>
				<extensions>
					<speed>0.0</speed>
				</extensions>
			</trkpt>
			<trkpt lat="53.2651503" lon="-8.92406717">
				<ele>62.0</ele>
				<time>2014-08-17T17:22:30Z</time>
				<extensions>
					<speed>0.0</speed>
				</extensions>
			</trkpt>
			<trkpt lat="53.26515029" lon="-8.92406715">
				<ele>62.0</ele>
				<time>2014-08-17T17:22:31Z</time>
				<extensions>
					<speed>0.0</speed>
				</extensions>
			</trkpt>
			<trkpt lat="53.2651503" lon="-8.92406713">
				<ele>62.0</ele>
				<time>2014-08-17T17:22:32Z</time>
				<extensions>
					<speed>0.0</speed>
				</extensions>
			</trkpt>
			<trkpt lat="53.265149" lon="-8.92406399">
				<ele>62.0</ele>
				<time>2014-08-17T17:22:33Z</time>
				<extensions>
					<speed>1.75</speed>
				</extensions>
			</trkpt>
			<trkpt lat="53.2651331" lon="-8.92403188">
				<ele>61.0</ele>
				<time>2014-08-17T17:22:34Z</time>
				<extensions>
					<speed>3.25</speed>
				</extensions>
			</trkpt>
			<trkpt lat="53.2651122" lon="-8.92398582">
				<ele>61.0</ele>
				<time>2014-08-17T17:22:35Z</time>
				<extensions>
					<speed>3.75</speed>
				</extensions>
			</trkpt>
			<trkpt lat="53.26509826" lon="-8.92393235">
				<ele>62.0</ele>
				<time>2014-08-17T17:22:36Z</time>
				<extensions>
					<speed>3.5</speed>
				</extensions>
			</trkpt>
			<trkpt lat="53.26508173" lon="-8.92388144">
				<ele>61.0</ele>
				<time>2014-08-17T17:22:37Z</time>
				<extensions>
					<speed>4.25</speed>
				</extensions>
			</trkpt>
			<trkpt lat="53.26506628" lon="-8.92382656">
				<ele>60.0</ele>
				<time>2014-08-17T17:22:38Z</time>
				<extensions>
					<speed>4.25</speed>
				</extensions>
			</trkpt>
			<trkpt lat="53.26504852" lon="-8.9237811">
				<ele>58.0</ele>
				<time>2014-08-17T17:22:39Z</time>
				<extensions>
					<speed>3.75</speed>
				</extensions>
			</trkpt>
			<trkpt lat="53.26503961" lon="-8.92373004">
				<ele>56.0</ele>
				<time>2014-08-17T17:22:40Z</time>
				<extensions>
					<speed>3.0</speed>
				</extensions>
			</trkpt>
			<trkpt lat="53.26502795" lon="-8.92368183">
				<ele>56.0</ele>
				<time>2014-08-17T17:22:41Z</time>
				<extensions>
					<speed>3.0</speed>
				</extensions>
			</trkpt>
			<trkpt lat="53.26502074" lon="-8.92364933">
				<ele>56.0</ele>
				<time>2014-08-17T17:22:42Z</time>
				<extensions>
					<speed>2.25</speed>
				</extensions>
			</trkpt>
			<trkpt lat="53.26501794" lon="-8.92361935">
				<ele>57.0</ele>
				<time>2014-08-17T17:22:43Z</time>
				<extensions>
					<speed>1.75</speed>
				</extensions>
			</trkpt>
			<trkpt lat="53.26501501" lon="-8.92360034">
				<ele>56.0</ele>
				<time>2014-08-17T17:22:44Z</time>
				<extensions>
					<speed>0.75</speed>
				</extensions>
			</trkpt>
			<trkpt lat="53.26501605" lon="-8.92359152">
				<ele>56.0</ele>
				<time>2014-08-17T17:22:45Z</time>
				<extensions>
					<speed>0.25</speed>
				</extensions>
			</trkpt>
			<trkpt lat="53.26502044" lon="-8.9235914">
				<ele>55.0</ele>
				<time>2014-08-17T17:22:46Z</time>
				<extensions>
					<speed>0.0</speed>
				</extensions>
			</trkpt>
			<trkpt lat="53.26501949" lon="-8.92358812">
				<ele>55.0</ele>
				<time>2014-08-17T17:22:47Z</time>
				<extensions>
					<speed>0.0</speed>
				</extensions>
			</trkpt>
			<trkpt lat="53.26501991" lon="-8.92358673">
				<ele>55.0</ele>
				<time>2014-08-17T17:22:48Z</time>
				<extensions>
					<speed>0.0</speed>
				</extensions>
			</trkpt>
			<trkpt lat="53.26501788" lon="-8.92358475">
				<ele>56.0</ele>
				<time>2014-08-17T17:22:49Z</time>
				<extensions>
					<speed>0.0</speed>
				</extensions>
			</trkpt>
			<trkpt lat="53.26501982" lon="-8.92357876">
				<ele>56.0</ele>
				<time>2014-08-17T17:22:50Z</time>
				<extensions>
					<speed>0.0</speed>
				</extensions>
			</trkpt>
			<trkpt lat="53.26501818" lon="-8.92357595">
				<ele>57.0</ele>
				<time>2014-08-17T17:22:51Z</time>
				<extensions>
					<speed>0.0</speed>
				</extensions>
			</trkpt>
			<trkpt lat="53.2650171" lon="-8.92357272">
				<ele>57.0</ele>
				<time>2014-08-17T17:22:52Z</time>
				<extensions>
					<speed>0.0</speed>
				</extensions>
			</trkpt>
			<trkpt lat="53.26501784" lon="-8.92357186">
				<ele>57.0</ele>
				<time>2014-08-17T17:22:53Z</time>
				<extensions>
					<speed>0.0</speed>
				</extensions>
			</trkpt>
			<trkpt lat="53.26501686" lon="-8.92356888">
				<ele>57.0</ele>
				<time>2014-08-17T17:22:54Z</time>
				<extensions>
					<speed>0.0</speed>
				</extensions>
			</trkpt>
			<trkpt lat="53.26501647" lon="-8.92356684">
				<ele>57.0</ele>
				<time>2014-08-17T17:22:55Z</time>
				<extensions>
					<speed>0.0</speed>
				</extensions>
			</trkpt>
			<trkpt lat="53.2650162" lon="-8.92356515">
				<ele>57.0</ele>
				<time>2014-08-17T17:22:56Z</time>
				<extensions>
					<speed>0.0</speed>
				</extensions>
			</trkpt>
			<trkpt lat="53.26501584" lon="-8.92356352">
				<ele>57.0</ele>
				<time>2014-08-17T17:22:57Z</time>
				<extensions>
					<speed>0.5</speed>
				</extensions>
			</trkpt>
			<trkpt lat="53.2650063" lon="-8.92353268">
				<ele>57.0</ele>
				<time>2014-08-17T17:22:58Z</time>
				<extensions>
					<speed>2.25</speed>
				</extensions>
			</trkpt>
			<trkpt lat="53.26499569" lon="-8.92348967">
				<ele>58.0</ele>
				<time>2014-08-17T17:22:59Z</time>
				<extensions>
					<speed>3.5</speed>
				</extensions>
			</trkpt>
			<trkpt lat="53.26497679" lon="-8.92346266">
				<ele>57.0</ele>
				<time>2014-08-17T17:23:00Z</time>
				<extensions>
					<speed>3.0</speed>
				</extensions>
			</trkpt>
			<trkpt lat="53.26495288" lon="-8.92345419">
				<ele>58.0</ele>
				<time>2014-08-17T17:23:01Z</time>
				<extensions>
					<speed>2.5</speed>
				</extensions>
			</trkpt>
			<trkpt lat="53.26493248" lon="-8.92346488">
				<ele>58.0</ele>
				<time>2014-08-17T17:23:02Z</time>
				<extensions>
					<speed>2.25</speed>
				</extensions>
			</trkpt>
			<trkpt lat="53.26491859" lon="-8.92347572">
				<ele>56.0</ele>
				<time>2014-08-17T17:23:03Z</time>
				<extensions>
					<speed>0.75</speed>
				</extensions>
			</trkpt>
			<trkpt lat="53.2649139" lon="-8.9234778">
				<ele>57.0</ele>
				<time>2014-08-17T17:23:04Z</time>
				<extensions>
					<speed>0.0</speed>
				</extensions>
			</trkpt>
			<trkpt lat="53.26491099" lon="-8.92347868">
				<ele>57.0</ele>
				<time>2014-08-17T17:23:05Z</time>
				<extensions>
					<speed>0.0</speed>
				</extensions>
			</trkpt>
			<trkpt lat="53.26491041" lon="-8.92347899">
				<ele>57.0</ele>
				<time>2014-08-17T17:23:06Z</time>
				<extensions>
					<speed>0.0</speed>
				</extensions>
			</trkpt>
			<trkpt lat="53.26491057" lon="-8.92348075">
				<ele>57.0</ele>
				<time>2014-08-17T17:23:07Z</time>
				<extensions>
					<speed>0.0</speed>
				</extensions>
			</trkpt>
			<trkpt lat="53.26490597" lon="-8.92347792">
				<ele>57.0</ele>
				<time>2014-08-17T17:23:08Z</time>
				<extensions>
					<speed>0.0</speed>
				</extensions>
			</trkpt>
			<trkpt lat="53.26490562" lon="-8.92348064">
				<ele>57.0</ele>
				<time>2014-08-17T17:23:09Z</time>
				<extensions>
					<speed>0.0</speed>
				</extensions>
			</trkpt>
			<trkpt lat="53.26490656" lon="-8.92348224">
				<ele>57.0</ele>
				<time>2014-08-17T17:23:10Z</time>
				<extensions>
					<speed>0.0</speed>
				</extensions>
			</trkpt>
			<trkpt lat="53.26490656" lon="-8.92348224">
				<ele>57.0</ele>
				<time>2014-08-17T17:23:11Z</time>
				<extensions>
					<speed>0.0</speed>
				</extensions>
			</trkpt>
			<trkpt lat="53.26490656" lon="-8.92348224">
				<ele>57.0</ele>
				<time>2014-08-17T17:23:12Z</time>
				<extensions>
					<speed>0.0</speed>
				</extensions>
			</trkpt>
			<trkpt lat="53.2649012" lon="-8.92348063">
				<ele>57.0</ele>
				<time>2014-08-17T17:23:13Z</time>
				<extensions>
					<speed>0.0</speed>
				</extensions>
			</trkpt>
			<trkpt lat="53.26490136" lon="-8.92348252">
				<ele>57.0</ele>
				<time>2014-08-17T17:23:14Z</time>
				<extensions>
					<speed>0.0</speed>
				</extensions>
			</trkpt>
			<trkpt lat="53.26490052" lon="-8.9234823">
				<ele>57.0</ele>
				<time>2014-08-17T17:23:15Z</time>
				<extensions>
					<speed>0.0</speed>
				</extensions>
			</trkpt>
			<trkpt lat="53.26490044" lon="-8.92348244">
				<ele>57.0</ele>
				<time>2014-08-17T17:23:16Z</time>
				<extensions>
					<speed>0.0</speed>
				</extensions>
			</trkpt>
			<trkpt lat="53.26490045" lon="-8.92348255">
				<ele>57.0</ele>
				<time>2014-08-17T17:23:17Z</time>
				<extensions>
					<speed>0.0</speed>
				</extensions>
			</trkpt>
			<trkpt lat="53.26490044" lon="-8.92348257">
				<ele>57.0</ele>
				<time>2014-08-17T17:23:18Z</time>
				<extensions>
					<speed>0.0</speed>
				</extensions>
			</trkpt>
			<trkpt lat="53.26490043" lon="-8.92348258">
				<ele>57.0</ele>
				<time>2014-08-17T17:23:19Z</time>
				<extensions>
					<speed>0.0</speed>
				</extensions>
			</trkpt>
			<trkpt lat="53.26490044" lon="-8.92348261">
				<ele>57.0</ele>
				<time>2014-08-17T17:23:20Z</time>
				<extensions>
					<speed>0.0</speed>
				</extensions>
			</trkpt>
			<trkpt lat="53.26490044" lon="-8.92348263">
				<ele>57.0</ele>
				<time>2014-08-17T17:23:21Z</time>
				<extensions>
					<speed>0.0</speed>
				</extensions>
			</trkpt>
			<trkpt lat="53.26490042" lon="-8.92348263">
				<ele>57.0</ele>
				<time>2014-08-17T17:23:22Z</time>
				<extensions>
					<speed>0.0</speed>
				</extensions>
			</trkpt>
			<trkpt lat="53.26490039" lon="-8.92348261">
				<ele>57.0</ele>
				<time>2014-08-17T17:23:23Z</time>
				<extensions>
					<speed>0.0</speed>
				</extensions>
			</trkpt>
			<trkpt lat="53.26490036" lon="-8.92348259">
				<ele>57.0</ele>
				<time>2014-08-17T17:23:24Z</time>
				<extensions>
					<speed>0.0</speed>
				</extensions>
			</trkpt>
			<trkpt lat="53.26490032" lon="-8.92348258">
				<ele>57.0</ele>
				<time>2014-08-17T17:23:25Z</time>
				<extensions>
					<speed>0.0</speed>
				</extensions>
			</trkpt>
			<trkpt lat="53.2649003" lon="-8.92348258">
				<ele>57.0</ele>
				<time>2014-08-17T17:23:26Z</time>
				<extensions>
					<speed>0.0</speed>
				</extensions>
			</trkpt>
			<trkpt lat="53.2649003" lon="-8.92348261">
				<ele>57.0</ele>
				<time>2014-08-17T17:23:27Z</time>
				<extensions>
					<speed>0.0</speed>
				</extensions>
			</trkpt>
			<trkpt lat="53.26490031" lon="-8.92348265">
				<ele>57.0</ele>
				<time>2014-08-17T17:23:28Z</time>
				<extensions>
					<speed>0.0</speed>
				</extensions>
			</trkpt>
			<trkpt lat="53.26490031" lon="-8.92348267">
				<ele>57.0</ele>
				<time>2014-08-17T17:23:29Z</time>
				<extensions>
					<speed>0.0</speed>
				</extensions>
			</trkpt>
			<trkpt lat="53.26490031" lon="-8.92348268">
				<ele>57.0</ele>
				<time>2014-08-17T17:23:30Z</time>
				<extensions>
					<speed>0.0</speed>
				</extensions>
			</trkpt>
			<trkpt lat="53.26490031" lon="-8.92348269">
				<ele>57.0</ele>
				<time>2014-08-17T17:23:31Z</time>
				<extensions>
					<speed>0.0</speed>
				</extensions>
			</trkpt>
			<trkpt lat="53.26490028" lon="-8.92348268">
				<ele>57.0</ele>
				<time>2014-08-17T17:23:32Z</time>
				<extensions>
					<speed>0.0</speed>
				</extensions>
			</trkpt>
			<trkpt lat="53.26490026" lon="-8.92348269">
				<ele>57.0</ele>
				<time>2014-08-17T17:23:33Z</time>
				<extensions>
					<speed>0.0</speed>
				</extensions>
			</trkpt>
			<trkpt lat="53.26490027" lon="-8.92348272">
				<ele>57.0</ele>
				<time>2014-08-17T17:23:34Z</time>
				<extensions>
					<speed>0.0</speed>
				</extensions>
			</trkpt>
			<trkpt lat="53.26490028" lon="-8.92348269">
				<ele>57.0</ele>
				<time>2014-08-17T17:23:35Z</time>
				<extensions>
					<speed>0.0</speed>
				</extensions>
			</trkpt>
			<trkpt lat="53.26490027" lon="-8.92348269">
				<ele>57.0</ele>
				<time>2014-08-17T17:23:36Z</time>
				<extensions>
					<speed>0.0</speed>
				</extensions>
			</trkpt>
			<trkpt lat="53.26490026" lon="-8.92348273">
				<ele>57.0</ele>
				<time>2014-08-17T17:23:37Z</time>
				<extensions>
					<speed>0.0</speed>
				</extensions>
			</trkpt>
			<trkpt lat="53.26490028" lon="-8.92348273">
				<ele>57.0</ele>
				<time>2014-08-17T17:23:38Z</time>
				<extensions>
					<speed>0.0</speed>
				</extensions>
			</trkpt>
			<trkpt lat="53.26490027" lon="-8.92348273">
				<ele>57.0</ele>
				<time>2014-08-17T17:23:39Z</time>
				<extensions>
					<speed>0.0</speed>
				</extensions>
			</trkpt>
			<trkpt lat="53.26490027" lon="-8.92348276">
				<ele>57.0</ele>
				<time>2014-08-17T17:23:40Z</time>
				<extensions>
					<speed>0.0</speed>
				</extensions>
			</trkpt>
			<trkpt lat="53.26490027" lon="-8.92348279">
				<ele>57.0</ele>
				<time>2014-08-17T17:23:41Z</time>
				<extensions>
					<speed>0.0</speed>
				</extensions>
			</trkpt>
			<trkpt lat="53.26490028" lon="-8.92348282">
				<ele>57.0</ele>
				<time>2014-08-17T17:23:42Z</time>
				<extensions>
					<speed>0.0</speed>
				</extensions>
			</trkpt>
			<trkpt lat="53.26490027" lon="-8.92348282">
				<ele>57.0</ele>
				<time>2014-08-17T17:23:43Z</time>
				<extensions>
					<speed>0.0</speed>
				</extensions>
			</trkpt>
			<trkpt lat="53.26490026" lon="-8.92348285">
				<ele>57.0</ele>
				<time>2014-08-17T17:23:44Z</time>
				<extensions>
					<speed>0.0</speed>
				</extensions>
			</trkpt>
			<trkpt lat="53.26490028" lon="-8.92348281">
				<ele>57.0</ele>
				<time>2014-08-17T17:23:45Z</time>
				<extensions>
					<speed>0.0</speed>
				</extensions>
			</trkpt>
			<trkpt lat="53.26490026" lon="-8.92348284">
				<ele>57.0</ele>
				<time>2014-08-17T17:23:46Z</time>
				<extensions>
					<speed>0.0</speed>
				</extensions>
			</trkpt>
			<trkpt lat="53.26490024" lon="-8.92348285">
				<ele>57.0</ele>
				<time>2014-08-17T17:23:47Z</time>
				<extensions>
					<speed>0.0</speed>
				</extensions>
			</trkpt>
			<trkpt lat="53.26490025" lon="-8.92348283">
				<ele>57.0</ele>
				<time>2014-08-17T17:23:48Z</time>
				<extensions>
					<speed>0.0</speed>
				</extensions>
			</trkpt>
			<trkpt lat="53.26490026" lon="-8.92348282">
				<ele>57.0</ele>
				<time>2014-08-17T17:23:49Z</time>
				<extensions>
					<speed>0.0</speed>
				</extensions>
			</trkpt>
			<trkpt lat="53.26490024" lon="-8.92348283">
				<ele>57.0</ele>
				<time>2014-08-17T17:23:50Z</time>
				<extensions>
					<speed>0.0</speed>
				</extensions>
			</trkpt>
			<trkpt lat="53.26490022" lon="-8.9234828">
				<ele>57.0</ele>
				<time>2014-08-17T17:23:51Z</time>
				<extensions>
					<speed>0.0</speed>
				</extensions>
			</trkpt>
			<trkpt lat="53.26490023" lon="-8.92348282">
				<ele>57.0</ele>
				<time>2014-08-17T17:23:52Z</time>
				<extensions>
					<speed>0.0</speed>
				</extensions>
			</trkpt>
			<trkpt lat="53.26490022" lon="-8.92348284">
				<ele>57.0</ele>
				<time>2014-08-17T17:23:53Z</time>
				<extensions>
					<speed>0.0</speed>
				</extensions>
			</trkpt>
			<trkpt lat="53.26490022" lon="-8.92348287">
				<ele>57.0</ele>
				<time>2014-08-17T17:23:54Z</time>
				<extensions>
					<speed>0.0</speed>
				</extensions>
			</trkpt>
			<trkpt lat="53.26490022" lon="-8.92348295">
				<ele>57.0</ele>
				<time>2014-08-17T17:23:55Z</time>
				<extensions>
					<speed>0.0</speed>
				</extensions>
			</trkpt>
			<trkpt lat="53.26490024" lon="-8.92348304">
				<ele>57.0</ele>
				<time>2014-08-17T17:23:56Z</time>
				<extensions>
					<speed>0.0</speed>
				</extensions>
			</trkpt>
			<trkpt lat="53.26490023" lon="-8.92348306">
				<ele>57.0</ele>
				<time>2014-08-17T17:23:57Z</time>
				<extensions>
					<speed>0.0</speed>
				</extensions>
			</trkpt>
			<trkpt lat="53.26490182" lon="-8.92348245">
				<ele>57.0</ele>
				<time>2014-08-17T17:23:58Z</time>
				<extensions>
					<speed>1.5</speed>
				</extensions>
			</trkpt>
			<trkpt lat="53.26491879" lon="-8.92347791">
				<ele>57.0</ele>
				<time>2014-08-17T17:23:59Z</time>
				<extensions>
					<speed>2.25</speed>
				</extensions>
			</trkpt>
			<trkpt lat="53.26493759" lon="-8.92347214">
				<ele>57.0</ele>
				<time>2014-08-17T17:24:00Z</time>
				<extensions>
					<speed>1.75</speed>
				</extensions>
			</trkpt>
			<trkpt lat="53.26495451" lon="-8.9234649">
				<ele>57.0</ele>
				<time>2014-08-17T17:24:01Z</time>
				<extensions>
					<speed>1.75</speed>
				</extensions>
			</trkpt>
			<trkpt lat="53.26496518" lon="-8.92346135">
				<ele>57.0</ele>
				<time>2014-08-17T17:24:02Z</time>
				<extensions>
					<speed>1.25</speed>
				</extensions>
			</trkpt>
			<trkpt lat="53.26497668" lon="-8.92345386">
				<ele>57.0</ele>
				<time>2014-08-17T17:24:03Z</time>
				<extensions>
					<speed>1.25</speed>
				</extensions>
			</trkpt>
			<trkpt lat="53.26497568" lon="-8.92345995">
				<ele>57.0</ele>
				<time>2014-08-17T17:24:04Z</time>
				<extensions>
					<speed>0.0</speed>
				</extensions>
			</trkpt>
			<trkpt lat="53.26497568" lon="-8.92345995">
				<ele>57.0</ele>
				<time>2014-08-17T17:24:05Z</time>
				<extensions>
					<speed>0.0</speed>
				</extensions>
			</trkpt>
			<trkpt lat="53.264974" lon="-8.92346626">
				<ele>57.0</ele>
				<time>2014-08-17T17:24:06Z</time>
				<extensions>
					<speed>0.0</speed>
				</extensions>
			</trkpt>
			<trkpt lat="53.2649736" lon="-8.92347203">
				<ele>57.0</ele>
				<time>2014-08-17T17:24:07Z</time>
				<extensions>
					<speed>2.0</speed>
				</extensions>
			</trkpt>
			<trkpt lat="53.26497812" lon="-8.9235097">
				<ele>57.0</ele>
				<time>2014-08-17T17:24:08Z</time>
				<extensions>
					<speed>2.5</speed>
				</extensions>
			</trkpt>
			<trkpt lat="53.26498158" lon="-8.9235537">
				<ele>57.0</ele>
				<time>2014-08-17T17:24:09Z</time>
				<extensions>
					<speed>3.0</speed>
				</extensions>
			</trkpt>
			<trkpt lat="53.26499275" lon="-8.92360089">
				<ele>58.0</ele>
				<time>2014-08-17T17:24:10Z</time>
				<extensions>
					<speed>3.5</speed>
				</extensions>
			</trkpt>
			<trkpt lat="53.26500182" lon="-8.92366089">
				<ele>58.0</ele>
				<time>2014-08-17T17:24:11Z</time>
				<extensions>
					<speed>3.75</speed>
				</extensions>
			</trkpt>
			<trkpt lat="53.26501916" lon="-8.92371913">
				<ele>58.0</ele>
				<time>2014-08-17T17:24:12Z</time>
				<extensions>
					<speed>3.75</speed>
				</extensions>
			</trkpt>
			<trkpt lat="53.26504012" lon="-8.92377053">
				<ele>58.0</ele>
				<time>2014-08-17T17:24:13Z</time>
				<extensions>
					<speed>4.5</speed>
				</extensions>
			</trkpt>
			<trkpt lat="53.26507065" lon="-8.92382137">
				<ele>58.0</ele>
				<time>2014-08-17T17:24:14Z</time>
				<extensions>
					<speed>5.0</speed>
				</extensions>
			</trkpt>
			<trkpt lat="53.26509436" lon="-8.92389349">
				<ele>58.0</ele>
				<time>2014-08-17T17:24:15Z</time>
				<extensions>
					<speed>5.5</speed>
				</extensions>
			</trkpt>
			<trkpt lat="53.26511966" lon="-8.92396767">
				<ele>59.0</ele>
				<time>2014-08-17T17:24:16Z</time>
				<extensions>
					<speed>5.5</speed>
				</extensions>
			</trkpt>
			<trkpt lat="53.26514601" lon="-8.92403183">
				<ele>59.0</ele>
				<time>2014-08-17T17:24:17Z</time>
				<extensions>
					<speed>5.5</speed>
				</extensions>
			</trkpt>
			<trkpt lat="53.26517494" lon="-8.92410262">
				<ele>59.0</ele>
				<time>2014-08-17T17:24:18Z</time>
				<extensions>
					<speed>5.5</speed>
				</extensions>
			</trkpt>
			<trkpt lat="53.26519887" lon="-8.92416493">
				<ele>59.0</ele>
				<time>2014-08-17T17:24:19Z</time>
				<extensions>
					<speed>5.25</speed>
				</extensions>
			</trkpt>
			<trkpt lat="53.26522383" lon="-8.9242277">
				<ele>60.0</ele>
				<time>2014-08-17T17:24:20Z</time>
				<extensions>
					<speed>5.0</speed>
				</extensions>
			</trkpt>
			<trkpt lat="53.26524899" lon="-8.92429168">
				<ele>60.0</ele>
				<time>2014-08-17T17:24:21Z</time>
				<extensions>
					<speed>4.75</speed>
				</extensions>
			</trkpt>
			<trkpt lat="53.26527238" lon="-8.92434753">
				<ele>61.0</ele>
				<time>2014-08-17T17:24:22Z</time>
				<extensions>
					<speed>4.5</speed>
				</extensions>
			</trkpt>
			<trkpt lat="53.26529924" lon="-8.92439423">
				<ele>61.0</ele>
				<time>2014-08-17T17:24:23Z</time>
				<extensions>
					<speed>4.5</speed>
				</extensions>
			</trkpt>
			<trkpt lat="53.265318" lon="-8.92445356">
				<ele>61.0</ele>
				<time>2014-08-17T17:24:24Z</time>
				<extensions>
					<speed>4.5</speed>
				</extensions>
			</trkpt>
			<trkpt lat="53.26533657" lon="-8.92450879">
				<ele>60.0</ele>
				<time>2014-08-17T17:24:25Z</time>
				<extensions>
					<speed>4.25</speed>
				</extensions>
			</trkpt>
			<trkpt lat="53.26535275" lon="-8.92456383">
				<ele>61.0</ele>
				<time>2014-08-17T17:24:26Z</time>
				<extensions>
					<speed>4.0</speed>
				</extensions>
			</trkpt>
			<trkpt lat="53.26536665" lon="-8.9246197">
				<ele>61.0</ele>
				<time>2014-08-17T17:24:27Z</time>
				<extensions>
					<speed>4.0</speed>
				</extensions>
			</trkpt>
			<trkpt lat="53.26537691" lon="-8.92467074">
				<ele>61.0</ele>
				<time>2014-08-17T17:24:28Z</time>
				<extensions>
					<speed>4.0</speed>
				</extensions>
			</trkpt>
			<trkpt lat="53.26539283" lon="-8.92471753">
				<ele>61.0</ele>
				<time>2014-08-17T17:24:29Z</time>
				<extensions>
					<speed>3.75</speed>
				</extensions>
			</trkpt>
			<trkpt lat="53.26540332" lon="-8.92476211">
				<ele>61.0</ele>
				<time>2014-08-17T17:24:30Z</time>
				<extensions>
					<speed>3.5</speed>
				</extensions>
			</trkpt>
			<trkpt lat="53.26542036" lon="-8.92480654">
				<ele>61.0</ele>
				<time>2014-08-17T17:24:31Z</time>
				<extensions>
					<speed>3.25</speed>
				</extensions>
			</trkpt>
			<trkpt lat="53.26542987" lon="-8.92484255">
				<ele>61.0</ele>
				<time>2014-08-17T17:24:32Z</time>
				<extensions>
					<speed>2.25</speed>
				</extensions>
			</trkpt>
			<trkpt lat="53.26543782" lon="-8.92486574">
				<ele>62.0</ele>
				<time>2014-08-17T17:24:33Z</time>
				<extensions>
					<speed>1.25</speed>
				</extensions>
			</trkpt>
			<trkpt lat="53.26543662" lon="-8.92487227">
				<ele>61.0</ele>
				<time>2014-08-17T17:24:34Z</time>
				<extensions>
					<speed>0.5</speed>
				</extensions>
			</trkpt>
			<trkpt lat="53.26543834" lon="-8.92487391">
				<ele>62.0</ele>
				<time>2014-08-17T17:24:35Z</time>
				<extensions>
					<speed>0.0</speed>
				</extensions>
			</trkpt>
			<trkpt lat="53.26544047" lon="-8.92487893">
				<ele>61.0</ele>
				<time>2014-08-17T17:24:36Z</time>
				<extensions>
					<speed>0.0</speed>
				</extensions>
			</trkpt>
			<trkpt lat="53.26544008" lon="-8.92488369">
				<ele>61.0</ele>
				<time>2014-08-17T17:24:37Z</time>
				<extensions>
					<speed>0.0</speed>
				</extensions>
			</trkpt>
			<trkpt lat="53.26543938" lon="-8.92488338">
				<ele>61.0</ele>
				<time>2014-08-17T17:24:38Z</time>
				<extensions>
					<speed>0.0</speed>
				</extensions>
			</trkpt>
			<trkpt lat="53.26543945" lon="-8.92488662">
				<ele>61.0</ele>
				<time>2014-08-17T17:24:39Z</time>
				<extensions>
					<speed>1.5</speed>
				</extensions>
			</trkpt>
			<trkpt lat="53.26543834" lon="-8.92491895">
				<ele>61.0</ele>
				<time>2014-08-17T17:24:40Z</time>
				<extensions>
					<speed>2.5</speed>
				</extensions>
			</trkpt>
			<trkpt lat="53.26542666" lon="-8.92496835">
				<ele>61.0</ele>
				<time>2014-08-17T17:24:41Z</time>
				<extensions>
					<speed>3.75</speed>
				</extensions>
			</trkpt>
			<trkpt lat="53.2654033" lon="-8.92501604">
				<ele>62.0</ele>
				<time>2014-08-17T17:24:42Z</time>
				<extensions>
					<speed>4.25</speed>
				</extensions>
			</trkpt>
			<trkpt lat="53.26537699" lon="-8.92504079">
				<ele>61.0</ele>
				<time>2014-08-17T17:24:43Z</time>
				<extensions>
					<speed>4.25</speed>
				</extensions>
			</trkpt>
			<trkpt lat="53.26533041" lon="-8.92507565">
				<ele>60.0</ele>
				<time>2014-08-17T17:24:44Z</time>
				<extensions>
					<speed>5.0</speed>
				</extensions>
			</trkpt>
			<trkpt lat="53.26528389" lon="-8.92510785">
				<ele>60.0</ele>
				<time>2014-08-17T17:24:45Z</time>
				<extensions>
					<speed>6.25</speed>
				</extensions>
			</trkpt>
			<trkpt lat="53.26522952" lon="-8.92513196">
				<ele>60.0</ele>
				<time>2014-08-17T17:24:46Z</time>
				<extensions>
					<speed>6.75</speed>
				</extensions>
			</trkpt>
			<trkpt lat="53.26516961" lon="-8.92514974">
				<ele>61.0</ele>
				<time>2014-08-17T17:24:47Z</time>
				<extensions>
					<speed>7.0</speed>
				</extensions>
			</trkpt>
			<trkpt lat="53.26510859" lon="-8.92516468">
				<ele>61.0</ele>
				<time>2014-08-17T17:24:48Z</time>
				<extensions>
					<speed>7.25</speed>
				</extensions>
			</trkpt>
			<trkpt lat="53.26504521" lon="-8.92518087">
				<ele>61.0</ele>
				<time>2014-08-17T17:24:49Z</time>
				<extensions>
					<speed>7.25</speed>
				</extensions>
			</trkpt>
			<trkpt lat="53.26498427" lon="-8.92519687">
				<ele>61.0</ele>
				<time>2014-08-17T17:24:50Z</time>
				<extensions>
					<speed>6.75</speed>
				</extensions>
			</trkpt>
			<trkpt lat="53.26492053" lon="-8.92518699">
				<ele>61.0</ele>
				<time>2014-08-17T17:24:51Z</time>
				<extensions>
					<speed>7.0</speed>
				</extensions>
			</trkpt>
			<trkpt lat="53.26486578" lon="-8.92516199">
				<ele>61.0</ele>
				<time>2014-08-17T17:24:52Z</time>
				<extensions>
					<speed>6.75</speed>
				</extensions>
			</trkpt>
			<trkpt lat="53.26481187" lon="-8.9251214">
				<ele>62.0</ele>
				<time>2014-08-17T17:24:53Z</time>
				<extensions>
					<speed>6.5</speed>
				</extensions>
			</trkpt>
			<trkpt lat="53.26476493" lon="-8.92508599">
				<ele>62.0</ele>
				<time>2014-08-17T17:24:54Z</time>
				<extensions>
					<speed>6.75</speed>
				</extensions>
			</trkpt>
			<trkpt lat="53.2647162" lon="-8.92503161">
				<ele>61.0</ele>
				<time>2014-08-17T17:24:55Z</time>
				<extensions>
					<speed>5.75</speed>
				</extensions>
			</trkpt>
			<trkpt lat="53.26466363" lon="-8.92499372">
				<ele>62.0</ele>
				<time>2014-08-17T17:24:56Z</time>
				<extensions>
					<speed>5.5</speed>
				</extensions>
			</trkpt>
			<trkpt lat="53.26461796" lon="-8.92495497">
				<ele>61.0</ele>
				<time>2014-08-17T17:24:57Z</time>
				<extensions>
					<speed>7.0</speed>
				</extensions>
			</trkpt>
			<trkpt lat="53.2645579" lon="-8.92491102">
				<ele>61.0</ele>
				<time>2014-08-17T17:24:58Z</time>
				<extensions>
					<speed>7.25</speed>
				</extensions>
			</trkpt>
			<trkpt lat="53.26449859" lon="-8.92487146">
				<ele>61.0</ele>
				<time>2014-08-17T17:24:59Z</time>
				<extensions>
					<speed>8.25</speed>
				</extensions>
			</trkpt>
			<trkpt lat="53.2644214" lon="-8.92478735">
				<ele>62.0</ele>
				<time>2014-08-17T17:25:00Z</time>
				<extensions>
					<speed>8.75</speed>
				</extensions>
			</trkpt>
			<trkpt lat="53.26435179" lon="-8.92473335">
				<ele>62.0</ele>
				<time>2014-08-17T17:25:01Z</time>
				<extensions>
					<speed>8.75</speed>
				</extensions>
			</trkpt>
			<trkpt lat="53.26427034" lon="-8.92468046">
				<ele>60.0</ele>
				<time>2014-08-17T17:25:02Z</time>
				<extensions>
					<speed>9.0</speed>
				</extensions>
			</trkpt>
			<trkpt lat="53.26418647" lon="-8.92464683">
				<ele>58.0</ele>
				<time>2014-08-17T17:25:03Z</time>
				<extensions>
					<speed>9.0</speed>
				</extensions>
			</trkpt>
			<trkpt lat="53.26411201" lon="-8.92464127">
				<ele>58.0</ele>
				<time>2014-08-17T17:25:04Z</time>
				<extensions>
					<speed>7.5</speed>
				</extensions>
			</trkpt>
			<trkpt lat="53.26404417" lon="-8.92466646">
				<ele>56.0</ele>
				<time>2014-08-17T17:25:05Z</time>
				<extensions>
					<speed>8.25</speed>
				</extensions>
			</trkpt>
			<trkpt lat="53.26397692" lon="-8.92470406">
				<ele>54.0</ele>
				<time>2014-08-17T17:25:06Z</time>
				<extensions>
					<speed>7.75</speed>
				</extensions>
			</trkpt>
			<trkpt lat="53.26391637" lon="-8.92474076">
				<ele>55.0</ele>
				<time>2014-08-17T17:25:07Z</time>
				<extensions>
					<speed>7.25</speed>
				</extensions>
			</trkpt>
			<trkpt lat="53.26385383" lon="-8.92476997">
				<ele>55.0</ele>
				<time>2014-08-17T17:25:08Z</time>
				<extensions>
					<speed>6.5</speed>
				</extensions>
			</trkpt>
			<trkpt lat="53.26379913" lon="-8.92480828">
				<ele>55.0</ele>
				<time>2014-08-17T17:25:09Z</time>
				<extensions>
					<speed>5.75</speed>
				</extensions>
			</trkpt>
			<trkpt lat="53.26375515" lon="-8.92482937">
				<ele>55.0</ele>
				<time>2014-08-17T17:25:10Z</time>
				<extensions>
					<speed>4.5</speed>
				</extensions>
			</trkpt>
			<trkpt lat="53.26372868" lon="-8.92482629">
				<ele>54.0</ele>
				<time>2014-08-17T17:25:11Z</time>
				<extensions>
					<speed>2.75</speed>
				</extensions>
			</trkpt>
			<trkpt lat="53.26371184" lon="-8.92483536">
				<ele>54.0</ele>
				<time>2014-08-17T17:25:12Z</time>
				<extensions>
					<speed>1.75</speed>
				</extensions>
			</trkpt>
			<trkpt lat="53.2636937" lon="-8.9248411">
				<ele>54.0</ele>
				<time>2014-08-17T17:25:13Z</time>
				<extensions>
					<speed>1.75</speed>
				</extensions>
			</trkpt>
			<trkpt lat="53.26368625" lon="-8.92483859">
				<ele>54.0</ele>
				<time>2014-08-17T17:25:14Z</time>
				<extensions>
					<speed>0.5</speed>
				</extensions>
			</trkpt>
			<trkpt lat="53.26368233" lon="-8.92483864">
				<ele>55.0</ele>
				<time>2014-08-17T17:25:15Z</time>
				<extensions>
					<speed>0.0</speed>
				</extensions>
			</trkpt>
			<trkpt lat="53.26368127" lon="-8.92484477">
				<ele>55.0</ele>
				<time>2014-08-17T17:25:16Z</time>
				<extensions>
					<speed>0.0</speed>
				</extensions>
			</trkpt>
			<trkpt lat="53.26367946" lon="-8.92484575">
				<ele>55.0</ele>
				<time>2014-08-17T17:25:17Z</time>
				<extensions>
					<speed>1.0</speed>
				</extensions>
			</trkpt>
			<trkpt lat="53.26366207" lon="-8.92487204">
				<ele>55.0</ele>
				<time>2014-08-17T17:25:18Z</time>
				<extensions>
					<speed>3.0</speed>
				</extensions>
			</trkpt>
			<trkpt lat="53.26363987" lon="-8.92491419">
				<ele>56.0</ele>
				<time>2014-08-17T17:25:19Z</time>
				<extensions>
					<speed>4.25</speed>
				</extensions>
			</trkpt>
			<trkpt lat="53.26362579" lon="-8.9249818">
				<ele>55.0</ele>
				<time>2014-08-17T17:25:20Z</time>
				<extensions>
					<speed>5.0</speed>
				</extensions>
			</trkpt>
			<trkpt lat="53.26362961" lon="-8.92506452">
				<ele>56.0</ele>
				<time>2014-08-17T17:25:21Z</time>
				<extensions>
					<speed>5.5</speed>
				</extensions>
			</trkpt>
			<trkpt lat="53.26364626" lon="-8.9251575">
				<ele>56.0</ele>
				<time>2014-08-17T17:25:22Z</time>
				<extensions>
					<speed>7.0</speed>
				</extensions>
			</trkpt>
			<trkpt lat="53.26366816" lon="-8.92526797">
				<ele>56.0</ele>
				<time>2014-08-17T17:25:23Z</time>
				<extensions>
					<speed>8.5</speed>
				</extensions>
			</trkpt>
			<trkpt lat="53.26369575" lon="-8.92538641">
				<ele>56.0</ele>
				<time>2014-08-17T17:25:24Z</time>
				<extensions>
					<speed>8.25</speed>
				</extensions>
			</trkpt>
			<trkpt lat="53.26372727" lon="-8.92551447">
				<ele>56.0</ele>
				<time>2014-08-17T17:25:25Z</time>
				<extensions>
					<speed>8.75</speed>
				</extensions>
			</trkpt>
			<trkpt lat="53.26375494" lon="-8.92564235">
				<ele>57.0</ele>
				<time>2014-08-17T17:25:26Z</time>
				<extensions>
					<speed>9.5</speed>
				</extensions>
			</trkpt>
			<trkpt lat="53.26379034" lon="-8.92577799">
				<ele>57.0</ele>
				<time>2014-08-17T17:25:27Z</time>
				<extensions>
					<speed>9.75</speed>
				</extensions>
			</trkpt>
			<trkpt lat="53.26382498" lon="-8.92591255">
				<ele>58.0</ele>
				<time>2014-08-17T17:25:28Z</time>
				<extensions>
					<speed>10.0</speed>
				</extensions>
			</trkpt>
			<trkpt lat="53.2638612" lon="-8.92605132">
				<ele>58.0</ele>
				<time>2014-08-17T17:25:29Z</time>
				<extensions>
					<speed>10.25</speed>
				</extensions>
			</trkpt>
			<trkpt lat="53.26389525" lon="-8.92617872">
				<ele>58.0</ele>
				<time>2014-08-17T17:25:30Z</time>
				<extensions>
					<speed>10.25</speed>
				</extensions>
			</trkpt>
			<trkpt lat="53.26393135" lon="-8.92631396">
				<ele>57.0</ele>
				<time>2014-08-17T17:25:31Z</time>
				<extensions>
					<speed>9.75</speed>
				</extensions>
			</trkpt>
			<trkpt lat="53.26396438" lon="-8.9264523">
				<ele>58.0</ele>
				<time>2014-08-17T17:25:32Z</time>
				<extensions>
					<speed>9.5</speed>
				</extensions>
			</trkpt>
			<trkpt lat="53.26399566" lon="-8.92659831">
				<ele>58.0</ele>
				<time>2014-08-17T17:25:33Z</time>
				<extensions>
					<speed>9.5</speed>
				</extensions>
			</trkpt>
			<trkpt lat="53.26403463" lon="-8.92672012">
				<ele>58.0</ele>
				<time>2014-08-17T17:25:34Z</time>
				<extensions>
					<speed>8.75</speed>
				</extensions>
			</trkpt>
			<trkpt lat="53.26407113" lon="-8.92683925">
				<ele>58.0</ele>
				<time>2014-08-17T17:25:35Z</time>
				<extensions>
					<speed>8.5</speed>
				</extensions>
			</trkpt>
			<trkpt lat="53.26409978" lon="-8.9269546">
				<ele>58.0</ele>
				<time>2014-08-17T17:25:36Z</time>
				<extensions>
					<speed>8.25</speed>
				</extensions>
			</trkpt>
			<trkpt lat="53.26412997" lon="-8.9270666">
				<ele>59.0</ele>
				<time>2014-08-17T17:25:37Z</time>
				<extensions>
					<speed>8.25</speed>
				</extensions>
			</trkpt>
			<trkpt lat="53.26416658" lon="-8.92718096">
				<ele>59.0</ele>
				<time>2014-08-17T17:25:38Z</time>
				<extensions>
					<speed>8.75</speed>
				</extensions>
			</trkpt>
			<trkpt lat="53.26419777" lon="-8.92729879">
				<ele>60.0</ele>
				<time>2014-08-17T17:25:39Z</time>
				<extensions>
					<speed>9.0</speed>
				</extensions>
			</trkpt>
			<trkpt lat="53.26423651" lon="-8.92741722">
				<ele>59.0</ele>
				<time>2014-08-17T17:25:40Z</time>
				<extensions>
					<speed>9.5</speed>
				</extensions>
			</trkpt>
			<trkpt lat="53.26427231" lon="-8.92753885">
				<ele>57.0</ele>
				<time>2014-08-17T17:25:41Z</time>
				<extensions>
					<speed>9.75</speed>
				</extensions>
			</trkpt>
			<trkpt lat="53.26431358" lon="-8.92766066">
				<ele>57.0</ele>
				<time>2014-08-17T17:25:42Z</time>
				<extensions>
					<speed>9.75</speed>
				</extensions>
			</trkpt>
			<trkpt lat="53.26435799" lon="-8.92778467">
				<ele>57.0</ele>
				<time>2014-08-17T17:25:43Z</time>
				<extensions>
					<speed>10.0</speed>
				</extensions>
			</trkpt>
			<trkpt lat="53.26439988" lon="-8.92791255">
				<ele>57.0</ele>
				<time>2014-08-17T17:25:44Z</time>
				<extensions>
					<speed>10.25</speed>
				</extensions>
			</trkpt>
			<trkpt lat="53.26444883" lon="-8.92804139">
				<ele>57.0</ele>
				<time>2014-08-17T17:25:45Z</time>
				<extensions>
					<speed>10.75</speed>
				</extensions>
			</trkpt>
			<trkpt lat="53.26450213" lon="-8.92818929">
				<ele>57.0</ele>
				<time>2014-08-17T17:25:46Z</time>
				<extensions>
					<speed>11.0</speed>
				</extensions>
			</trkpt>
			<trkpt lat="53.26455934" lon="-8.92833772">
				<ele>57.0</ele>
				<time>2014-08-17T17:25:47Z</time>
				<extensions>
					<speed>11.5</speed>
				</extensions>
			</trkpt>
			<trkpt lat="53.26462436" lon="-8.92847456">
				<ele>57.0</ele>
				<time>2014-08-17T17:25:48Z</time>
				<extensions>
					<speed>12.0</speed>
				</extensions>
			</trkpt>
			<trkpt lat="53.26469714" lon="-8.92861114">
				<ele>56.0</ele>
				<time>2014-08-17T17:25:49Z</time>
				<extensions>
					<speed>12.25</speed>
				</extensions>
			</trkpt>
			<trkpt lat="53.26477796" lon="-8.92873998">
				<ele>57.0</ele>
				<time>2014-08-17T17:25:50Z</time>
				<extensions>
					<speed>12.0</speed>
				</extensions>
			</trkpt>
			<trkpt lat="53.26486219" lon="-8.9288632">
				<ele>57.0</ele>
				<time>2014-08-17T17:25:51Z</time>
				<extensions>
					<speed>12.5</speed>
				</extensions>
			</trkpt>
			<trkpt lat="53.26494612" lon="-8.92897474">
				<ele>56.0</ele>
				<time>2014-08-17T17:25:52Z</time>
				<extensions>
					<speed>12.5</speed>
				</extensions>
			</trkpt>
			<trkpt lat="53.26503464" lon="-8.92908912">
				<ele>56.0</ele>
				<time>2014-08-17T17:25:53Z</time>
				<extensions>
					<speed>12.5</speed>
				</extensions>
			</trkpt>
			<trkpt lat="53.26513469" lon="-8.9291874">
				<ele>57.0</ele>
				<time>2014-08-17T17:25:54Z</time>
				<extensions>
					<speed>13.0</speed>
				</extensions>
			</trkpt>
			<trkpt lat="53.26523416" lon="-8.92928794">
				<ele>58.0</ele>
				<time>2014-08-17T17:25:55Z</time>
				<extensions>
					<speed>13.0</speed>
				</extensions>
			</trkpt>
			<trkpt lat="53.26533864" lon="-8.92938545">
				<ele>58.0</ele>
				<time>2014-08-17T17:25:56Z</time>
				<extensions>
					<speed>13.0</speed>
				</extensions>
			</trkpt>
			<trkpt lat="53.26544044" lon="-8.92948276">
				<ele>57.0</ele>
				<time>2014-08-17T17:25:57Z</time>
				<extensions>
					<speed>13.0</speed>
				</extensions>
			</trkpt>
			<trkpt lat="53.26554383" lon="-8.92956407">
				<ele>58.0</ele>
				<time>2014-08-17T17:25:58Z</time>
				<extensions>
					<speed>12.75</speed>
				</extensions>
			</trkpt>
			<trkpt lat="53.26565619" lon="-8.92964076">
				<ele>57.0</ele>
				<time>2014-08-17T17:25:59Z</time>
				<extensions>
					<speed>13.0</speed>
				</extensions>
			</trkpt>
			<trkpt lat="53.26576991" lon="-8.92969854">
				<ele>57.0</ele>
				<time>2014-08-17T17:26:00Z</time>
				<extensions>
					<speed>13.0</speed>
				</extensions>
			</trkpt>
			<trkpt lat="53.26587847" lon="-8.92974008">
				<ele>56.0</ele>
				<time>2014-08-17T17:26:01Z</time>
				<extensions>
					<speed>12.75</speed>
				</extensions>
			</trkpt>
			<trkpt lat="53.26599991" lon="-8.92977828">
				<ele>57.0</ele>
				<time>2014-08-17T17:26:02Z</time>
				<extensions>
					<speed>12.5</speed>
				</extensions>
			</trkpt>
			<trkpt lat="53.26611133" lon="-8.92982005">
				<ele>57.0</ele>
				<time>2014-08-17T17:26:03Z</time>
				<extensions>
					<speed>12.25</speed>
				</extensions>
			</trkpt>
			<trkpt lat="53.26621677" lon="-8.92983935">
				<ele>57.0</ele>
				<time>2014-08-17T17:26:04Z</time>
				<extensions>
					<speed>12.0</speed>
				</extensions>
			</trkpt>
			<trkpt lat="53.26631837" lon="-8.92985852">
				<ele>59.0</ele>
				<time>2014-08-17T17:26:05Z</time>
				<extensions>
					<speed>11.5</speed>
				</extensions>
			</trkpt>
			<trkpt lat="53.26642761" lon="-8.92987668">
				<ele>59.0</ele>
				<time>2014-08-17T17:26:06Z</time>
				<extensions>
					<speed>11.75</speed>
				</extensions>
			</trkpt>
			<trkpt lat="53.26652777" lon="-8.92990673">
				<ele>59.0</ele>
				<time>2014-08-17T17:26:07Z</time>
				<extensions>
					<speed>12.0</speed>
				</extensions>
			</trkpt>
			<trkpt lat="53.26662713" lon="-8.92992817">
				<ele>60.0</ele>
				<time>2014-08-17T17:26:08Z</time>
				<extensions>
					<speed>11.5</speed>
				</extensions>
			</trkpt>
			<trkpt lat="53.26672601" lon="-8.92995702">
				<ele>61.0</ele>
				<time>2014-08-17T17:26:09Z</time>
				<extensions>
					<speed>11.5</speed>
				</extensions>
			</trkpt>
			<trkpt lat="53.26682428" lon="-8.92997361">
				<ele>61.0</ele>
				<time>2014-08-17T17:26:10Z</time>
				<extensions>
					<speed>11.0</speed>
				</extensions>
			</trkpt>
			<trkpt lat="53.26692495" lon="-8.92999031">
				<ele>61.0</ele>
				<time>2014-08-17T17:26:11Z</time>
				<extensions>
					<speed>10.75</speed>
				</extensions>
			</trkpt>
			<trkpt lat="53.26701618" lon="-8.93000766">
				<ele>59.0</ele>
				<time>2014-08-17T17:26:12Z</time>
				<extensions>
					<speed>10.25</speed>
				</extensions>
			</trkpt>
			<trkpt lat="53.26710594" lon="-8.93001935">
				<ele>60.0</ele>
				<time>2014-08-17T17:26:13Z</time>
				<extensions>
					<speed>9.75</speed>
				</extensions>
			</trkpt>
			<trkpt lat="53.26719531" lon="-8.93003221">
				<ele>60.0</ele>
				<time>2014-08-17T17:26:14Z</time>
				<extensions>
					<speed>9.75</speed>
				</extensions>
			</trkpt>
			<trkpt lat="53.26728063" lon="-8.9300277">
				<ele>59.0</ele>
				<time>2014-08-17T17:26:15Z</time>
				<extensions>
					<speed>9.25</speed>
				</extensions>
			</trkpt>
			<trkpt lat="53.26735523" lon="-8.93002477">
				<ele>57.0</ele>
				<time>2014-08-17T17:26:16Z</time>
				<extensions>
					<speed>9.0</speed>
				</extensions>
			</trkpt>
			<trkpt lat="53.26743586" lon="-8.93000284">
				<ele>58.0</ele>
				<time>2014-08-17T17:26:17Z</time>
				<extensions>
					<speed>8.75</speed>
				</extensions>
			</trkpt>
			<trkpt lat="53.26751253" lon="-8.92997294">
				<ele>59.0</ele>
				<time>2014-08-17T17:26:18Z</time>
				<extensions>
					<speed>8.5</speed>
				</extensions>
			</trkpt>
			<trkpt lat="53.26758738" lon="-8.92994063">
				<ele>58.0</ele>
				<time>2014-08-17T17:26:19Z</time>
				<extensions>
					<speed>8.25</speed>
				</extensions>
			</trkpt>
			<trkpt lat="53.2676625" lon="-8.92991146">
				<ele>59.0</ele>
				<time>2014-08-17T17:26:20Z</time>
				<extensions>
					<speed>7.75</speed>
				</extensions>
			</trkpt>
			<trkpt lat="53.26773404" lon="-8.92988864">
				<ele>59.0</ele>
				<time>2014-08-17T17:26:21Z</time>
				<extensions>
					<speed>7.5</speed>
				</extensions>
			</trkpt>
			<trkpt lat="53.26779557" lon="-8.92986901">
				<ele>60.0</ele>
				<time>2014-08-17T17:26:22Z</time>
				<extensions>
					<speed>7.0</speed>
				</extensions>
			</trkpt>
			<trkpt lat="53.26785638" lon="-8.92985295">
				<ele>60.0</ele>
				<time>2014-08-17T17:26:23Z</time>
				<extensions>
					<speed>6.25</speed>
				</extensions>
			</trkpt>
			<trkpt lat="53.26790603" lon="-8.92983026">
				<ele>59.0</ele>
				<time>2014-08-17T17:26:24Z</time>
				<extensions>
					<speed>5.0</speed>
				</extensions>
			</trkpt>
			<trkpt lat="53.26794696" lon="-8.92982268">
				<ele>60.0</ele>
				<time>2014-08-17T17:26:25Z</time>
				<extensions>
					<speed>4.25</speed>
				</extensions>
			</trkpt>
			<trkpt lat="53.26798207" lon="-8.92982122">
				<ele>60.0</ele>
				<time>2014-08-17T17:26:26Z</time>
				<extensions>
					<speed>4.0</speed>
				</extensions>
			</trkpt>
			<trkpt lat="53.26800706" lon="-8.92983702">
				<ele>60.0</ele>
				<time>2014-08-17T17:26:27Z</time>
				<extensions>
					<speed>3.25</speed>
				</extensions>
			</trkpt>
			<trkpt lat="53.26802222" lon="-8.92987144">
				<ele>60.0</ele>
				<time>2014-08-17T17:26:28Z</time>
				<extensions>
					<speed>2.75</speed>
				</extensions>
			</trkpt>
			<trkpt lat="53.26804468" lon="-8.92989369">
				<ele>61.0</ele>
				<time>2014-08-17T17:26:29Z</time>
				<extensions>
					<speed>2.5</speed>
				</extensions>
			</trkpt>
			<trkpt lat="53.26806483" lon="-8.92993731">
				<ele>61.0</ele>
				<time>2014-08-17T17:26:30Z</time>
				<extensions>
					<speed>2.75</speed>
				</extensions>
			</trkpt>
			<trkpt lat="53.26807877" lon="-8.92996425">
				<ele>60.0</ele>
				<time>2014-08-17T17:26:31Z</time>
				<extensions>
					<speed>2.5</speed>
				</extensions>
			</trkpt>
			<trkpt lat="53.26810321" lon="-8.9299847">
				<ele>61.0</ele>
				<time>2014-08-17T17:26:32Z</time>
				<extensions>
					<speed>3.0</speed>
				</extensions>
			</trkpt>
			<trkpt lat="53.26812674" lon="-8.93000285">
				<ele>61.0</ele>
				<time>2014-08-17T17:26:33Z</time>
				<extensions>
					<speed>3.0</speed>
				</extensions>
			</trkpt>
			<trkpt lat="53.26814845" lon="-8.93002087">
				<ele>61.0</ele>
				<time>2014-08-17T17:26:34Z</time>
				<extensions>
					<speed>2.75</speed>
				</extensions>
			</trkpt>
			<trkpt lat="53.26816443" lon="-8.93004527">
				<ele>62.0</ele>
				<time>2014-08-17T17:26:35Z</time>
				<extensions>
					<speed>2.25</speed>
				</extensions>
			</trkpt>
			<trkpt lat="53.26815186" lon="-8.93005084">
				<ele>62.0</ele>
				<time>2014-08-17T17:26:36Z</time>
				<extensions>
					<speed>1.25</speed>
				</extensions>
			</trkpt>
			<trkpt lat="53.26823433" lon="-8.93004716">
				<ele>70.0</ele>
				<time>2014-08-17T17:26:37Z</time>
				<extensions>
					<speed>2.5</speed>
				</extensions>
			</trkpt>
			<trkpt lat="53.2682511" lon="-8.930028">
				<ele>71.0</ele>
				<time>2014-08-17T17:26:38Z</time>
				<extensions>
					<speed>2.0</speed>
				</extensions>
			</trkpt>
			<trkpt lat="53.26825571" lon="-8.930021">
				<ele>70.0</ele>
				<time>2014-08-17T17:26:39Z</time>
				<extensions>
					<speed>0.5</speed>
				</extensions>
			</trkpt>
			<trkpt lat="53.26825341" lon="-8.92999065">
				<ele>72.0</ele>
				<time>2014-08-17T17:26:40Z</time>
				<extensions>
					<speed>0.0</speed>
				</extensions>
			</trkpt>
			<trkpt lat="53.26825826" lon="-8.92999039">
				<ele>72.0</ele>
				<time>2014-08-17T17:26:41Z</time>
				<extensions>
					<speed>0.0</speed>
				</extensions>
			</trkpt>
			<trkpt lat="53.26826344" lon="-8.92998781">
				<ele>73.0</ele>
				<time>2014-08-17T17:26:42Z</time>
				<extensions>
					<speed>0.0</speed>
				</extensions>
			</trkpt>
			<trkpt lat="53.26826805" lon="-8.92999846">
				<ele>74.0</ele>
				<time>2014-08-17T17:26:43Z</time>
				<extensions>
					<speed>0.0</speed>
				</extensions>
			</trkpt>
			<trkpt lat="53.2682656" lon="-8.92998822">
				<ele>74.0</ele>
				<time>2014-08-17T17:26:44Z</time>
				<extensions>
					<speed>0.0</speed>
				</extensions>
			</trkpt>
			<trkpt lat="53.26826323" lon="-8.92998439">
				<ele>74.0</ele>
				<time>2014-08-17T17:26:45Z</time>
				<extensions>
					<speed>0.0</speed>
				</extensions>
			</trkpt>
			<trkpt lat="53.26826336" lon="-8.92998093">
				<ele>74.0</ele>
				<time>2014-08-17T17:26:46Z</time>
				<extensions>
					<speed>0.0</speed>
				</extensions>
			</trkpt>
			<trkpt lat="53.26825628" lon="-8.92997201">
				<ele>75.0</ele>
				<time>2014-08-17T17:26:47Z</time>
				<extensions>
					<speed>0.0</speed>
				</extensions>
			</trkpt>
			<trkpt lat="53.26825148" lon="-8.92997038">
				<ele>76.0</ele>
				<time>2014-08-17T17:26:48Z</time>
				<extensions>
					<speed>0.0</speed>
				</extensions>
			</trkpt>
			<trkpt lat="53.26825525" lon="-8.92997876">
				<ele>76.0</ele>
				<time>2014-08-17T17:26:49Z</time>
				<extensions>
					<speed>0.0</speed>
				</extensions>
			</trkpt>
			<trkpt lat="53.26825516" lon="-8.929978">
				<ele>77.0</ele>
				<time>2014-08-17T17:26:50Z</time>
				<extensions>
					<speed>0.0</speed>
				</extensions>
			</trkpt>
			<trkpt lat="53.26825668" lon="-8.92997749">
				<ele>77.0</ele>
				<time>2014-08-17T17:26:51Z</time>
				<extensions>
					<speed>0.0</speed>
				</extensions>
			</trkpt>
			<trkpt lat="53.2682572" lon="-8.92997698">
				<ele>77.0</ele>
				<time>2014-08-17T17:26:52Z</time>
				<extensions>
					<speed>0.0</speed>
				</extensions>
			</trkpt>
			<trkpt lat="53.26825723" lon="-8.92997631">
				<ele>77.0</ele>
				<time>2014-08-17T17:26:53Z</time>
				<extensions>
					<speed>0.0</speed>
				</extensions>
			</trkpt>
			<trkpt lat="53.26825685" lon="-8.92997622">
				<ele>77.0</ele>
				<time>2014-08-17T17:26:54Z</time>
				<extensions>
					<speed>0.25</speed>
				</extensions>
			</trkpt>
			<trkpt lat="53.26825966" lon="-8.92998275">
				<ele>77.0</ele>
				<time>2014-08-17T17:26:55Z</time>
				<extensions>
					<speed>0.0</speed>
				</extensions>
			</trkpt>
			<trkpt lat="53.26824905" lon="-8.92998146">
				<ele>78.0</ele>
				<time>2014-08-17T17:26:56Z</time>
				<extensions>
					<speed>0.0</speed>
				</extensions>
			</trkpt>
			<trkpt lat="53.26825019" lon="-8.92997781">
				<ele>78.0</ele>
				<time>2014-08-17T17:26:57Z</time>
				<extensions>
					<speed>0.0</speed>
				</extensions>
			</trkpt>
			<trkpt lat="53.26824899" lon="-8.92997751">
				<ele>78.0</ele>
				<time>2014-08-17T17:26:58Z</time>
				<extensions>
					<speed>0.0</speed>
				</extensions>
			</trkpt>
			<trkpt lat="53.2682501" lon="-8.9299809">
				<ele>78.0</ele>
				<time>2014-08-17T17:26:59Z</time>
				<extensions>
					<speed>0.0</speed>
				</extensions>
			</trkpt>
			<trkpt lat="53.26824866" lon="-8.92998372">
				<ele>78.0</ele>
				<time>2014-08-17T17:27:00Z</time>
				<extensions>
					<speed>0.0</speed>
				</extensions>
			</trkpt>
			<trkpt lat="53.26824578" lon="-8.92999308">
				<ele>77.0</ele>
				<time>2014-08-17T17:27:01Z</time>
				<extensions>
					<speed>0.0</speed>
				</extensions>
			</trkpt>
			<trkpt lat="53.26824632" lon="-8.92999865">
				<ele>77.0</ele>
				<time>2014-08-17T17:27:02Z</time>
				<extensions>
					<speed>0.0</speed>
				</extensions>
			</trkpt>
			<trkpt lat="53.26824381" lon="-8.92999471">
				<ele>77.0</ele>
				<time>2014-08-17T17:27:03Z</time>
				<extensions>
					<speed>0.0</speed>
				</extensions>
			</trkpt>
			<trkpt lat="53.26824528" lon="-8.92999426">
				<ele>77.0</ele>
				<time>2014-08-17T17:27:04Z</time>
				<extensions>
					<speed>0.0</speed>
				</extensions>
			</trkpt>
			<trkpt lat="53.26824685" lon="-8.92999438">
				<ele>77.0</ele>
				<time>2014-08-17T17:27:05Z</time>
				<extensions>
					<speed>0.0</speed>
				</extensions>
			</trkpt>
			<trkpt lat="53.26824763" lon="-8.92999557">
				<ele>78.0</ele>
				<time>2014-08-17T17:27:06Z</time>
				<extensions>
					<speed>0.0</speed>
				</extensions>
			</trkpt>
			<trkpt lat="53.26824723" lon="-8.92999526">
				<ele>78.0</ele>
				<time>2014-08-17T17:27:07Z</time>
				<extensions>
					<speed>0.0</speed>
				</extensions>
			</trkpt>
			<trkpt lat="53.26824711" lon="-8.92999475">
				<ele>78.0</ele>
				<time>2014-08-17T17:27:08Z</time>
				<extensions>
					<speed>0.25</speed>
				</extensions>
			</trkpt>
			<trkpt lat="53.26824888" lon="-8.92998431">
				<ele>77.0</ele>
				<time>2014-08-17T17:27:09Z</time>
				<extensions>
					<speed>0.0</speed>
				</extensions>
			</trkpt>
			<trkpt lat="53.26824926" lon="-8.92998219">
				<ele>77.0</ele>
				<time>2014-08-17T17:27:10Z</time>
				<extensions>
					<speed>0.0</speed>
				</extensions>
			</trkpt>
			<trkpt lat="53.26824934" lon="-8.92998527">
				<ele>77.0</ele>
				<time>2014-08-17T17:27:11Z</time>
				<extensions>
					<speed>0.0</speed>
				</extensions>
			</trkpt>
			<trkpt lat="53.26824614" lon="-8.9299823">
				<ele>76.0</ele>
				<time>2014-08-17T17:27:12Z</time>
				<extensions>
					<speed>0.0</speed>
				</extensions>
			</trkpt>
			<trkpt lat="53.26824843" lon="-8.92998436">
				<ele>76.0</ele>
				<time>2014-08-17T17:27:13Z</time>
				<extensions>
					<speed>0.0</speed>
				</extensions>
			</trkpt>
			<trkpt lat="53.26825109" lon="-8.92998775">
				<ele>76.0</ele>
				<time>2014-08-17T17:27:14Z</time>
				<extensions>
					<speed>0.0</speed>
				</extensions>
			</trkpt>
			<trkpt lat="53.26825109" lon="-8.92998775">
				<ele>76.0</ele>
				<time>2014-08-17T17:27:15Z</time>
				<extensions>
					<speed>0.0</speed>
				</extensions>
			</trkpt>
			<trkpt lat="53.26825215" lon="-8.92998494">
				<ele>76.0</ele>
				<time>2014-08-17T17:27:16Z</time>
				<extensions>
					<speed>0.0</speed>
				</extensions>
			</trkpt>
			<trkpt lat="53.26825215" lon="-8.92998494">
				<ele>76.0</ele>
				<time>2014-08-17T17:27:17Z</time>
				<extensions>
					<speed>0.0</speed>
				</extensions>
			</trkpt>
			<trkpt lat="53.2682505" lon="-8.92997502">
				<ele>75.0</ele>
				<time>2014-08-17T17:27:18Z</time>
				<extensions>
					<speed>0.0</speed>
				</extensions>
			</trkpt>
			<trkpt lat="53.26825063" lon="-8.92997323">
				<ele>75.0</ele>
				<time>2014-08-17T17:27:19Z</time>
				<extensions>
					<speed>0.0</speed>
				</extensions>
			</trkpt>
			<trkpt lat="53.26825131" lon="-8.92997257">
				<ele>75.0</ele>
				<time>2014-08-17T17:27:20Z</time>
				<extensions>
					<speed>0.0</speed>
				</extensions>
			</trkpt>
			<trkpt lat="53.26825149" lon="-8.92997196">
				<ele>76.0</ele>
				<time>2014-08-17T17:27:21Z</time>
				<extensions>
					<speed>0.0</speed>
				</extensions>
			</trkpt>
			<trkpt lat="53.26825161" lon="-8.92997171">
				<ele>76.0</ele>
				<time>2014-08-17T17:27:22Z</time>
				<extensions>
					<speed>0.0</speed>
				</extensions>
			</trkpt>
			<trkpt lat="53.26825166" lon="-8.92997159">
				<ele>76.0</ele>
				<time>2014-08-17T17:27:23Z</time>
				<extensions>
					<speed>0.0</speed>
				</extensions>
			</trkpt>
			<trkpt lat="53.26825169" lon="-8.92997151">
				<ele>76.0</ele>
				<time>2014-08-17T17:27:24Z</time>
				<extensions>
					<speed>0.0</speed>
				</extensions>
			</trkpt>
			<trkpt lat="53.26825168" lon="-8.92997146">
				<ele>76.0</ele>
				<time>2014-08-17T17:27:25Z</time>
				<extensions>
					<speed>0.0</speed>
				</extensions>
			</trkpt>
			<trkpt lat="53.26825169" lon="-8.92997141">
				<ele>76.0</ele>
				<time>2014-08-17T17:27:26Z</time>
				<extensions>
					<speed>0.0</speed>
				</extensions>
			</trkpt>
			<trkpt lat="53.26825167" lon="-8.92997135">
				<ele>76.0</ele>
				<time>2014-08-17T17:27:27Z</time>
				<extensions>
					<speed>0.0</speed>
				</extensions>
			</trkpt>
			<trkpt lat="53.26825167" lon="-8.92997134">
				<ele>76.0</ele>
				<time>2014-08-17T17:27:28Z</time>
				<extensions>
					<speed>0.0</speed>
				</extensions>
			</trkpt>
			<trkpt lat="53.26825164" lon="-8.92997127">
				<ele>76.0</ele>
				<time>2014-08-17T17:27:29Z</time>
				<extensions>
					<speed>0.0</speed>
				</extensions>
			</trkpt>
			<trkpt lat="53.26825169" lon="-8.92997114">
				<ele>76.0</ele>
				<time>2014-08-17T17:27:30Z</time>
				<extensions>
					<speed>0.0</speed>
				</extensions>
			</trkpt>
			<trkpt lat="53.26825168" lon="-8.92997117">
				<ele>76.0</ele>
				<time>2014-08-17T17:27:31Z</time>
				<extensions>
					<speed>0.0</speed>
				</extensions>
			</trkpt>
			<trkpt lat="53.26825169" lon="-8.92997112">
				<ele>76.0</ele>
				<time>2014-08-17T17:27:32Z</time>
				<extensions>
					<speed>0.0</speed>
				</extensions>
			</trkpt>
			<trkpt lat="53.26825169" lon="-8.929971">
				<ele>76.0</ele>
				<time>2014-08-17T17:27:33Z</time>
				<extensions>
					<speed>0.0</speed>
				</extensions>
			</trkpt>
			<trkpt lat="53.26825167" lon="-8.92997095">
				<ele>76.0</ele>
				<time>2014-08-17T17:27:34Z</time>
				<extensions>
					<speed>0.0</speed>
				</extensions>
			</trkpt>
			<trkpt lat="53.26825167" lon="-8.92997095">
				<ele>76.0</ele>
				<time>2014-08-17T17:27:35Z</time>
				<extensions>
					<speed>0.0</speed>
				</extensions>
			</trkpt>
			<trkpt lat="53.26824979" lon="-8.92996968">
				<ele>76.0</ele>
				<time>2014-08-17T17:27:36Z</time>
				<extensions>
					<speed>0.0</speed>
				</extensions>
			</trkpt>
			<trkpt lat="53.26824982" lon="-8.92996964">
				<ele>76.0</ele>
				<time>2014-08-17T17:27:37Z</time>
				<extensions>
					<speed>0.0</speed>
				</extensions>
			</trkpt>
			<trkpt lat="53.26824986" lon="-8.92996958">
				<ele>76.0</ele>
				<time>2014-08-17T17:27:38Z</time>
				<extensions>
					<speed>0.0</speed>
				</extensions>
			</trkpt>
			<trkpt lat="53.26824984" lon="-8.92996952">
				<ele>76.0</ele>
				<time>2014-08-17T17:27:39Z</time>
				<extensions>
					<speed>0.0</speed>
				</extensions>
			</trkpt>
			<trkpt lat="53.26824984" lon="-8.92996952">
				<ele>76.0</ele>
				<time>2014-08-17T17:27:41Z</time>
				<extensions>
					<speed>0.0</speed>
				</extensions>
			</trkpt>
			<trkpt lat="53.26824929" lon="-8.92996934">
				<ele>76.0</ele>
				<time>2014-08-17T17:27:42Z</time>
				<extensions>
					<speed>0.0</speed>
				</extensions>
			</trkpt>
			<trkpt lat="53.2682493" lon="-8.92996938">
				<ele>76.0</ele>
				<time>2014-08-17T17:27:43Z</time>
				<extensions>
					<speed>0.0</speed>
				</extensions>
			</trkpt>
			<trkpt lat="53.26824933" lon="-8.92996933">
				<ele>76.0</ele>
				<time>2014-08-17T17:27:44Z</time>
				<extensions>
					<speed>0.0</speed>
				</extensions>
			</trkpt>
			<trkpt lat="53.26824928" lon="-8.92996929">
				<ele>76.0</ele>
				<time>2014-08-17T17:27:45Z</time>
				<extensions>
					<speed>0.0</speed>
				</extensions>
			</trkpt>
			<trkpt lat="53.26824924" lon="-8.92996924">
				<ele>76.0</ele>
				<time>2014-08-17T17:27:46Z</time>
				<extensions>
					<speed>0.0</speed>
				</extensions>
			</trkpt>
			<trkpt lat="53.26824924" lon="-8.92996926">
				<ele>76.0</ele>
				<time>2014-08-17T17:27:47Z</time>
				<extensions>
					<speed>0.0</speed>
				</extensions>
			</trkpt>
			<trkpt lat="53.26824922" lon="-8.92996918">
				<ele>76.0</ele>
				<time>2014-08-17T17:27:48Z</time>
				<extensions>
					<speed>0.0</speed>
				</extensions>
			</trkpt>
			<trkpt lat="53.2682492" lon="-8.9299692">
				<ele>76.0</ele>
				<time>2014-08-17T17:27:49Z</time>
				<extensions>
					<speed>0.0</speed>
				</extensions>
			</trkpt>
			<trkpt lat="53.2682492" lon="-8.92996921">
				<ele>76.0</ele>
				<time>2014-08-17T17:27:50Z</time>
				<extensions>
					<speed>0.0</speed>
				</extensions>
			</trkpt>
			<trkpt lat="53.26824914" lon="-8.92996913">
				<ele>76.0</ele>
				<time>2014-08-17T17:27:51Z</time>
				<extensions>
					<speed>0.0</speed>
				</extensions>
			</trkpt>
			<trkpt lat="53.26824916" lon="-8.92996915">
				<ele>76.0</ele>
				<time>2014-08-17T17:27:52Z</time>
				<extensions>
					<speed>0.0</speed>
				</extensions>
			</trkpt>
			<trkpt lat="53.26824912" lon="-8.92996911">
				<ele>76.0</ele>
				<time>2014-08-17T17:27:53Z</time>
				<extensions>
					<speed>0.0</speed>
				</extensions>
			</trkpt>
			<trkpt lat="53.26824912" lon="-8.92996912">
				<ele>76.0</ele>
				<time>2014-08-17T17:27:54Z</time>
				<extensions>
					<speed>0.0</speed>
				</extensions>
			</trkpt>
			<trkpt lat="53.26824911" lon="-8.92996918">
				<ele>76.0</ele>
				<time>2014-08-17T17:27:55Z</time>
				<extensions>
					<speed>0.0</speed>
				</extensions>
			</trkpt>
			<trkpt lat="53.2682491" lon="-8.92996915">
				<ele>76.0</ele>
				<time>2014-08-17T17:27:56Z</time>
				<extensions>
					<speed>0.0</speed>
				</extensions>
			</trkpt>
			<trkpt lat="53.26824911" lon="-8.92996909">
				<ele>76.0</ele>
				<time>2014-08-17T17:27:57Z</time>
				<extensions>
					<speed>0.0</speed>
				</extensions>
			</trkpt>
			<trkpt lat="53.2682491" lon="-8.92996909">
				<ele>76.0</ele>
				<time>2014-08-17T17:27:58Z</time>
				<extensions>
					<speed>0.0</speed>
				</extensions>
			</trkpt>
			<trkpt lat="53.26824906" lon="-8.92996916">
				<ele>76.0</ele>
				<time>2014-08-17T17:27:59Z</time>
				<extensions>
					<speed>0.0</speed>
				</extensions>
			</trkpt>
			<trkpt lat="53.26824903" lon="-8.92996912">
				<ele>76.0</ele>
				<time>2014-08-17T17:28:00Z</time>
				<extensions>
					<speed>0.0</speed>
				</extensions>
			</trkpt>
			<trkpt lat="53.268249" lon="-8.92996914">
				<ele>76.0</ele>
				<time>2014-08-17T17:28:01Z</time>
				<extensions>
					<speed>0.0</speed>
				</extensions>
			</trkpt>
			<trkpt lat="53.26824903" lon="-8.92996912">
				<ele>76.0</ele>
				<time>2014-08-17T17:28:02Z</time>
				<extensions>
					<speed>0.0</speed>
				</extensions>
			</trkpt>
			<trkpt lat="53.26824903" lon="-8.92996914">
				<ele>76.0</ele>
				<time>2014-08-17T17:28:03Z</time>
				<extensions>
					<speed>0.0</speed>
				</extensions>
			</trkpt>
			<trkpt lat="53.26824904" lon="-8.92996913">
				<ele>76.0</ele>
				<time>2014-08-17T17:28:04Z</time>
				<extensions>
					<speed>0.0</speed>
				</extensions>
			</trkpt>
			<trkpt lat="53.268249" lon="-8.92996917">
				<ele>76.0</ele>
				<time>2014-08-17T17:28:05Z</time>
				<extensions>
					<speed>0.0</speed>
				</extensions>
			</trkpt>
			<trkpt lat="53.26824903" lon="-8.92996917">
				<ele>76.0</ele>
				<time>2014-08-17T17:28:06Z</time>
				<extensions>
					<speed>0.0</speed>
				</extensions>
			</trkpt>
			<trkpt lat="53.268249" lon="-8.92996917">
				<ele>76.0</ele>
				<time>2014-08-17T17:28:07Z</time>
				<extensions>
					<speed>0.0</speed>
				</extensions>
			</trkpt>
			<trkpt lat="53.26824898" lon="-8.92996918">
				<ele>76.0</ele>
				<time>2014-08-17T17:28:08Z</time>
				<extensions>
					<speed>0.0</speed>
				</extensions>
			</trkpt>
			<trkpt lat="53.268249" lon="-8.9299691">
				<ele>76.0</ele>
				<time>2014-08-17T17:28:09Z</time>
				<extensions>
					<speed>0.0</speed>
				</extensions>
			</trkpt>
			<trkpt lat="53.26824897" lon="-8.92996912">
				<ele>76.0</ele>
				<time>2014-08-17T17:28:10Z</time>
				<extensions>
					<speed>0.0</speed>
				</extensions>
			</trkpt>
			<trkpt lat="53.26824897" lon="-8.92996913">
				<ele>76.0</ele>
				<time>2014-08-17T17:28:11Z</time>
				<extensions>
					<speed>0.0</speed>
				</extensions>
			</trkpt>
			<trkpt lat="53.26824894" lon="-8.92996918">
				<ele>76.0</ele>
				<time>2014-08-17T17:28:12Z</time>
				<extensions>
					<speed>0.0</speed>
				</extensions>
			</trkpt>
			<trkpt lat="53.26824893" lon="-8.92996909">
				<ele>76.0</ele>
				<time>2014-08-17T17:28:13Z</time>
				<extensions>
					<speed>0.0</speed>
				</extensions>
			</trkpt>
			<trkpt lat="53.26824893" lon="-8.92996911">
				<ele>76.0</ele>
				<time>2014-08-17T17:28:14Z</time>
				<extensions>
					<speed>0.0</speed>
				</extensions>
			</trkpt>
			<trkpt lat="53.2682489" lon="-8.92996908">
				<ele>76.0</ele>
				<time>2014-08-17T17:28:15Z</time>
				<extensions>
					<speed>0.0</speed>
				</extensions>
			</trkpt>
			<trkpt lat="53.2682489" lon="-8.92996913">
				<ele>76.0</ele>
				<time>2014-08-17T17:28:16Z</time>
				<extensions>
					<speed>0.0</speed>
				</extensions>
			</trkpt>
			<trkpt lat="53.26824888" lon="-8.92996914">
				<ele>76.0</ele>
				<time>2014-08-17T17:28:17Z</time>
				<extensions>
					<speed>0.0</speed>
				</extensions>
			</trkpt>
			<trkpt lat="53.26824884" lon="-8.92996916">
				<ele>76.0</ele>
				<time>2014-08-17T17:28:18Z</time>
				<extensions>
					<speed>0.0</speed>
				</extensions>
			</trkpt>
			<trkpt lat="53.26824878" lon="-8.92996913">
				<ele>76.0</ele>
				<time>2014-08-17T17:28:19Z</time>
				<extensions>
					<speed>0.0</speed>
				</extensions>
			</trkpt>
			<trkpt lat="53.26824874" lon="-8.92996915">
				<ele>76.0</ele>
				<time>2014-08-17T17:28:20Z</time>
				<extensions>
					<speed>0.0</speed>
				</extensions>
			</trkpt>
			<trkpt lat="53.26824872" lon="-8.92996925">
				<ele>76.0</ele>
				<time>2014-08-17T17:28:21Z</time>
				<extensions>
					<speed>0.0</speed>
				</extensions>
			</trkpt>
			<trkpt lat="53.2682487" lon="-8.92996928">
				<ele>76.0</ele>
				<time>2014-08-17T17:28:22Z</time>
				<extensions>
					<speed>0.0</speed>
				</extensions>
			</trkpt>
			<trkpt lat="53.26824872" lon="-8.92996934">
				<ele>76.0</ele>
				<time>2014-08-17T17:28:23Z</time>
				<extensions>
					<speed>0.0</speed>
				</extensions>
			</trkpt>
			<trkpt lat="53.26824874" lon="-8.9299694">
				<ele>76.0</ele>
				<time>2014-08-17T17:28:24Z</time>
				<extensions>
					<speed>0.0</speed>
				</extensions>
			</trkpt>
			<trkpt lat="53.26824874" lon="-8.9299694">
				<ele>76.0</ele>
				<time>2014-08-17T17:28:25Z</time>
				<extensions>
					<speed>0.0</speed>
				</extensions>
			</trkpt>
			<trkpt lat="53.26824872" lon="-8.92996943">
				<ele>76.0</ele>
				<time>2014-08-17T17:28:26Z</time>
				<extensions>
					<speed>0.0</speed>
				</extensions>
			</trkpt>
			<trkpt lat="53.26824869" lon="-8.92996944">
				<ele>76.0</ele>
				<time>2014-08-17T17:28:27Z</time>
				<extensions>
					<speed>0.0</speed>
				</extensions>
			</trkpt>
			<trkpt lat="53.2682487" lon="-8.92996949">
				<ele>76.0</ele>
				<time>2014-08-17T17:28:28Z</time>
				<extensions>
					<speed>0.0</speed>
				</extensions>
			</trkpt>
			<trkpt lat="53.26824863" lon="-8.92996944">
				<ele>76.0</ele>
				<time>2014-08-17T17:28:29Z</time>
				<extensions>
					<speed>0.0</speed>
				</extensions>
			</trkpt>
			<trkpt lat="53.2682486" lon="-8.92996945">
				<ele>76.0</ele>
				<time>2014-08-17T17:28:30Z</time>
				<extensions>
					<speed>0.0</speed>
				</extensions>
			</trkpt>
			<trkpt lat="53.26824856" lon="-8.92996949">
				<ele>76.0</ele>
				<time>2014-08-17T17:28:31Z</time>
				<extensions>
					<speed>0.0</speed>
				</extensions>
			</trkpt>
			<trkpt lat="53.26824852" lon="-8.92996947">
				<ele>76.0</ele>
				<time>2014-08-17T17:28:32Z</time>
				<extensions>
					<speed>0.0</speed>
				</extensions>
			</trkpt>
			<trkpt lat="53.26824848" lon="-8.92996949">
				<ele>76.0</ele>
				<time>2014-08-17T17:28:33Z</time>
				<extensions>
					<speed>0.0</speed>
				</extensions>
			</trkpt>
			<trkpt lat="53.26824841" lon="-8.92996944">
				<ele>76.0</ele>
				<time>2014-08-17T17:28:34Z</time>
				<extensions>
					<speed>0.0</speed>
				</extensions>
			</trkpt>
			<trkpt lat="53.26824835" lon="-8.92996938">
				<ele>76.0</ele>
				<time>2014-08-17T17:28:35Z</time>
				<extensions>
					<speed>0.0</speed>
				</extensions>
			</trkpt>
			<trkpt lat="53.26824833" lon="-8.92996939">
				<ele>76.0</ele>
				<time>2014-08-17T17:28:36Z</time>
				<extensions>
					<speed>0.0</speed>
				</extensions>
			</trkpt>
			<trkpt lat="53.26824831" lon="-8.9299694">
				<ele>76.0</ele>
				<time>2014-08-17T17:28:37Z</time>
				<extensions>
					<speed>0.0</speed>
				</extensions>
			</trkpt>
			<trkpt lat="53.26824826" lon="-8.92996936">
				<ele>76.0</ele>
				<time>2014-08-17T17:28:38Z</time>
				<extensions>
					<speed>0.0</speed>
				</extensions>
			</trkpt>
			<trkpt lat="53.26824821" lon="-8.92996927">
				<ele>76.0</ele>
				<time>2014-08-17T17:28:39Z</time>
				<extensions>
					<speed>0.0</speed>
				</extensions>
			</trkpt>
			<trkpt lat="53.26824815" lon="-8.92996922">
				<ele>76.0</ele>
				<time>2014-08-17T17:28:40Z</time>
				<extensions>
					<speed>0.0</speed>
				</extensions>
			</trkpt>
			<trkpt lat="53.2682481" lon="-8.92996917">
				<ele>76.0</ele>
				<time>2014-08-17T17:28:41Z</time>
				<extensions>
					<speed>0.0</speed>
				</extensions>
			</trkpt>
			<trkpt lat="53.26824805" lon="-8.92996911">
				<ele>76.0</ele>
				<time>2014-08-17T17:28:42Z</time>
				<extensions>
					<speed>0.0</speed>
				</extensions>
			</trkpt>
			<trkpt lat="53.26824799" lon="-8.92996907">
				<ele>76.0</ele>
				<time>2014-08-17T17:28:43Z</time>
				<extensions>
					<speed>0.0</speed>
				</extensions>
			</trkpt>
			<trkpt lat="53.26824799" lon="-8.92996907">
				<ele>76.0</ele>
				<time>2014-08-17T17:28:44Z</time>
				<extensions>
					<speed>0.0</speed>
				</extensions>
			</trkpt>
			<trkpt lat="53.26824799" lon="-8.92996907">
				<ele>76.0</ele>
				<time>2014-08-17T17:28:45Z</time>
				<extensions>
					<speed>0.0</speed>
				</extensions>
			</trkpt>
			<trkpt lat="53.2682463" lon="-8.92996736">
				<ele>75.0</ele>
				<time>2014-08-17T17:28:46Z</time>
				<extensions>
					<speed>0.0</speed>
				</extensions>
			</trkpt>
			<trkpt lat="53.26824648" lon="-8.92996749">
				<ele>75.0</ele>
				<time>2014-08-17T17:28:47Z</time>
				<extensions>
					<speed>0.0</speed>
				</extensions>
			</trkpt>
			<trkpt lat="53.26824842" lon="-8.92996849">
				<ele>75.0</ele>
				<time>2014-08-17T17:28:48Z</time>
				<extensions>
					<speed>0.0</speed>
				</extensions>
			</trkpt>
			<trkpt lat="53.2682483" lon="-8.92996826">
				<ele>75.0</ele>
				<time>2014-08-17T17:28:49Z</time>
				<extensions>
					<speed>0.0</speed>
				</extensions>
			</trkpt>
			<trkpt lat="53.26824827" lon="-8.92996825">
				<ele>75.0</ele>
				<time>2014-08-17T17:28:50Z</time>
				<extensions>
					<speed>0.0</speed>
				</extensions>
			</trkpt>
			<trkpt lat="53.26824818" lon="-8.92996816">
				<ele>75.0</ele>
				<time>2014-08-17T17:28:51Z</time>
				<extensions>
					<speed>0.0</speed>
				</extensions>
			</trkpt>
			<trkpt lat="53.26824815" lon="-8.92996812">
				<ele>75.0</ele>
				<time>2014-08-17T17:28:52Z</time>
				<extensions>
					<speed>0.0</speed>
				</extensions>
			</trkpt>
			<trkpt lat="53.26824811" lon="-8.92996807">
				<ele>75.0</ele>
				<time>2014-08-17T17:28:53Z</time>
				<extensions>
					<speed>0.0</speed>
				</extensions>
			</trkpt>
			<trkpt lat="53.26824807" lon="-8.92996802">
				<ele>75.0</ele>
				<time>2014-08-17T17:28:54Z</time>
				<extensions>
					<speed>0.0</speed>
				</extensions>
			</trkpt>
			<trkpt lat="53.26824801" lon="-8.92996798">
				<ele>75.0</ele>
				<time>2014-08-17T17:28:55Z</time>
				<extensions>
					<speed>0.0</speed>
				</extensions>
			</trkpt>
			<trkpt lat="53.26824794" lon="-8.92996792">
				<ele>75.0</ele>
				<time>2014-08-17T17:28:56Z</time>
				<extensions>
					<speed>0.0</speed>
				</extensions>
			</trkpt>
			<trkpt lat="53.26824787" lon="-8.92996782">
				<ele>75.0</ele>
				<time>2014-08-17T17:28:57Z</time>
				<extensions>
					<speed>0.0</speed>
				</extensions>
			</trkpt>
			<trkpt lat="53.26824781" lon="-8.92996771">
				<ele>75.0</ele>
				<time>2014-08-17T17:28:58Z</time>
				<extensions>
					<speed>0.0</speed>
				</extensions>
			</trkpt>
			<trkpt lat="53.26824774" lon="-8.92996757">
				<ele>75.0</ele>
				<time>2014-08-17T17:28:59Z</time>
				<extensions>
					<speed>0.0</speed>
				</extensions>
			</trkpt>
			<trkpt lat="53.26824772" lon="-8.92996755">
				<ele>75.0</ele>
				<time>2014-08-17T17:29:00Z</time>
				<extensions>
					<speed>0.0</speed>
				</extensions>
			</trkpt>
			<trkpt lat="53.26824767" lon="-8.92996748">
				<ele>75.0</ele>
				<time>2014-08-17T17:29:01Z</time>
				<extensions>
					<speed>0.0</speed>
				</extensions>
			</trkpt>
			<trkpt lat="53.2682476" lon="-8.92996742">
				<ele>75.0</ele>
				<time>2014-08-17T17:29:02Z</time>
				<extensions>
					<speed>0.0</speed>
				</extensions>
			</trkpt>
			<trkpt lat="53.26824754" lon="-8.92996735">
				<ele>75.0</ele>
				<time>2014-08-17T17:29:03Z</time>
				<extensions>
					<speed>0.0</speed>
				</extensions>
			</trkpt>
			<trkpt lat="53.26824747" lon="-8.92996728">
				<ele>75.0</ele>
				<time>2014-08-17T17:29:04Z</time>
				<extensions>
					<speed>0.0</speed>
				</extensions>
			</trkpt>
			<trkpt lat="53.26824744" lon="-8.92996723">
				<ele>75.0</ele>
				<time>2014-08-17T17:29:05Z</time>
				<extensions>
					<speed>0.0</speed>
				</extensions>
			</trkpt>
			<trkpt lat="53.26824738" lon="-8.92996717">
				<ele>75.0</ele>
				<time>2014-08-17T17:29:06Z</time>
				<extensions>
					<speed>0.0</speed>
				</extensions>
			</trkpt>
			<trkpt lat="53.26824732" lon="-8.92996713">
				<ele>75.0</ele>
				<time>2014-08-17T17:29:07Z</time>
				<extensions>
					<speed>0.0</speed>
				</extensions>
			</trkpt>
			<trkpt lat="53.26824727" lon="-8.92996716">
				<ele>75.0</ele>
				<time>2014-08-17T17:29:08Z</time>
				<extensions>
					<speed>0.0</speed>
				</extensions>
			</trkpt>
			<trkpt lat="53.26824726" lon="-8.92996716">
				<ele>75.0</ele>
				<time>2014-08-17T17:29:09Z</time>
				<extensions>
					<speed>0.0</speed>
				</extensions>
			</trkpt>
			<trkpt lat="53.26824726" lon="-8.92996715">
				<ele>75.0</ele>
				<time>2014-08-17T17:29:10Z</time>
				<extensions>
					<speed>0.0</speed>
				</extensions>
			</trkpt>
			<trkpt lat="53.26824722" lon="-8.92996712">
				<ele>75.0</ele>
				<time>2014-08-17T17:29:11Z</time>
				<extensions>
					<speed>0.0</speed>
				</extensions>
			</trkpt>
			<trkpt lat="53.2682472" lon="-8.92996718">
				<ele>75.0</ele>
				<time>2014-08-17T17:29:12Z</time>
				<extensions>
					<speed>0.0</speed>
				</extensions>
			</trkpt>
			<trkpt lat="53.26824721" lon="-8.92996725">
				<ele>75.0</ele>
				<time>2014-08-17T17:29:13Z</time>
				<extensions>
					<speed>0.0</speed>
				</extensions>
			</trkpt>
			<trkpt lat="53.26824719" lon="-8.92996728">
				<ele>75.0</ele>
				<time>2014-08-17T17:29:14Z</time>
				<extensions>
					<speed>0.0</speed>
				</extensions>
			</trkpt>
			<trkpt lat="53.26824714" lon="-8.92996726">
				<ele>75.0</ele>
				<time>2014-08-17T17:29:15Z</time>
				<extensions>
					<speed>0.0</speed>
				</extensions>
			</trkpt>
			<trkpt lat="53.2682471" lon="-8.92996724">
				<ele>75.0</ele>
				<time>2014-08-17T17:29:16Z</time>
				<extensions>
					<speed>0.0</speed>
				</extensions>
			</trkpt>
			<trkpt lat="53.26824709" lon="-8.92996724">
				<ele>75.0</ele>
				<time>2014-08-17T17:29:17Z</time>
				<extensions>
					<speed>0.0</speed>
				</extensions>
			</trkpt>
			<trkpt lat="53.26824707" lon="-8.92996726">
				<ele>75.0</ele>
				<time>2014-08-17T17:29:18Z</time>
				<extensions>
					<speed>0.0</speed>
				</extensions>
			</trkpt>
			<trkpt lat="53.26824704" lon="-8.9299673">
				<ele>75.0</ele>
				<time>2014-08-17T17:29:19Z</time>
				<extensions>
					<speed>0.0</speed>
				</extensions>
			</trkpt>
			<trkpt lat="53.268247" lon="-8.92996727">
				<ele>75.0</ele>
				<time>2014-08-17T17:29:20Z</time>
				<extensions>
					<speed>0.0</speed>
				</extensions>
			</trkpt>
			<trkpt lat="53.26824695" lon="-8.92996722">
				<ele>75.0</ele>
				<time>2014-08-17T17:29:21Z</time>
				<extensions>
					<speed>0.0</speed>
				</extensions>
			</trkpt>
			<trkpt lat="53.26824689" lon="-8.9299672">
				<ele>75.0</ele>
				<time>2014-08-17T17:29:22Z</time>
				<extensions>
					<speed>0.0</speed>
				</extensions>
			</trkpt>
			<trkpt lat="53.2682469" lon="-8.92996718">
				<ele>75.0</ele>
				<time>2014-08-17T17:29:23Z</time>
				<extensions>
					<speed>0.0</speed>
				</extensions>
			</trkpt>
			<trkpt lat="53.2682469" lon="-8.9299671">
				<ele>75.0</ele>
				<time>2014-08-17T17:29:24Z</time>
				<extensions>
					<speed>0.0</speed>
				</extensions>
			</trkpt>
			<trkpt lat="53.2682469" lon="-8.92996708">
				<ele>75.0</ele>
				<time>2014-08-17T17:29:25Z</time>
				<extensions>
					<speed>0.0</speed>
				</extensions>
			</trkpt>
			<trkpt lat="53.26824687" lon="-8.92996712">
				<ele>75.0</ele>
				<time>2014-08-17T17:29:26Z</time>
				<extensions>
					<speed>0.0</speed>
				</extensions>
			</trkpt>
			<trkpt lat="53.26824686" lon="-8.92996707">
				<ele>75.0</ele>
				<time>2014-08-17T17:29:27Z</time>
				<extensions>
					<speed>0.0</speed>
				</extensions>
			</trkpt>
			<trkpt lat="53.26824682" lon="-8.929967">
				<ele>75.0</ele>
				<time>2014-08-17T17:29:28Z</time>
				<extensions>
					<speed>0.0</speed>
				</extensions>
			</trkpt>
			<trkpt lat="53.26824678" lon="-8.92996694">
				<ele>75.0</ele>
				<time>2014-08-17T17:29:29Z</time>
				<extensions>
					<speed>0.0</speed>
				</extensions>
			</trkpt>
			<trkpt lat="53.26824675" lon="-8.92996695">
				<ele>75.0</ele>
				<time>2014-08-17T17:29:30Z</time>
				<extensions>
					<speed>0.0</speed>
				</extensions>
			</trkpt>
			<trkpt lat="53.26824669" lon="-8.92996689">
				<ele>75.0</ele>
				<time>2014-08-17T17:29:31Z</time>
				<extensions>
					<speed>0.0</speed>
				</extensions>
			</trkpt>
			<trkpt lat="53.26825251" lon="-8.92997035">
				<ele>75.0</ele>
				<time>2014-08-17T17:29:32Z</time>
				<extensions>
					<speed>0.0</speed>
				</extensions>
			</trkpt>
			<trkpt lat="53.26825682" lon="-8.92997315">
				<ele>75.0</ele>
				<time>2014-08-17T17:29:33Z</time>
				<extensions>
					<speed>0.0</speed>
				</extensions>
			</trkpt>
			<trkpt lat="53.26825678" lon="-8.92997328">
				<ele>75.0</ele>
				<time>2014-08-17T17:29:34Z</time>
				<extensions>
					<speed>0.0</speed>
				</extensions>
			</trkpt>
			<trkpt lat="53.26825684" lon="-8.9299733">
				<ele>75.0</ele>
				<time>2014-08-17T17:29:35Z</time>
				<extensions>
					<speed>0.0</speed>
				</extensions>
			</trkpt>
			<trkpt lat="53.26825736" lon="-8.92997352">
				<ele>75.0</ele>
				<time>2014-08-17T17:29:36Z</time>
				<extensions>
					<speed>0.0</speed>
				</extensions>
			</trkpt>
			<trkpt lat="53.26825728" lon="-8.92997345">
				<ele>75.0</ele>
				<time>2014-08-17T17:29:37Z</time>
				<extensions>
					<speed>0.0</speed>
				</extensions>
			</trkpt>
			<trkpt lat="53.26825733" lon="-8.92997347">
				<ele>75.0</ele>
				<time>2014-08-17T17:29:38Z</time>
				<extensions>
					<speed>0.0</speed>
				</extensions>
			</trkpt>
			<trkpt lat="53.26825726" lon="-8.92997342">
				<ele>75.0</ele>
				<time>2014-08-17T17:29:39Z</time>
				<extensions>
					<speed>0.0</speed>
				</extensions>
			</trkpt>
			<trkpt lat="53.26825722" lon="-8.92997339">
				<ele>75.0</ele>
				<time>2014-08-17T17:29:40Z</time>
				<extensions>
					<speed>0.0</speed>
				</extensions>
			</trkpt>
			<trkpt lat="53.26825719" lon="-8.92997336">
				<ele>75.0</ele>
				<time>2014-08-17T17:29:41Z</time>
				<extensions>
					<speed>0.0</speed>
				</extensions>
			</trkpt>
			<trkpt lat="53.26825715" lon="-8.92997335">
				<ele>75.0</ele>
				<time>2014-08-17T17:29:42Z</time>
				<extensions>
					<speed>0.0</speed>
				</extensions>
			</trkpt>
			<trkpt lat="53.26825714" lon="-8.92997332">
				<ele>75.0</ele>
				<time>2014-08-17T17:29:43Z</time>
				<extensions>
					<speed>0.0</speed>
				</extensions>
			</trkpt>
			<trkpt lat="53.26825714" lon="-8.92997331">
				<ele>75.0</ele>
				<time>2014-08-17T17:29:44Z</time>
				<extensions>
					<speed>0.0</speed>
				</extensions>
			</trkpt>
			<trkpt lat="53.26825715" lon="-8.92997329">
				<ele>75.0</ele>
				<time>2014-08-17T17:29:45Z</time>
				<extensions>
					<speed>0.0</speed>
				</extensions>
			</trkpt>
			<trkpt lat="53.26825717" lon="-8.92997328">
				<ele>75.0</ele>
				<time>2014-08-17T17:29:46Z</time>
				<extensions>
					<speed>0.0</speed>
				</extensions>
			</trkpt>
			<trkpt lat="53.26825719" lon="-8.92997327">
				<ele>75.0</ele>
				<time>2014-08-17T17:29:47Z</time>
				<extensions>
					<speed>0.0</speed>
				</extensions>
			</trkpt>
			<trkpt lat="53.26825723" lon="-8.92997325">
				<ele>75.0</ele>
				<time>2014-08-17T17:29:48Z</time>
				<extensions>
					<speed>0.0</speed>
				</extensions>
			</trkpt>
			<trkpt lat="53.26825728" lon="-8.92997326">
				<ele>75.0</ele>
				<time>2014-08-17T17:29:49Z</time>
				<extensions>
					<speed>0.0</speed>
				</extensions>
			</trkpt>
			<trkpt lat="53.26825729" lon="-8.92997322">
				<ele>75.0</ele>
				<time>2014-08-17T17:29:50Z</time>
				<extensions>
					<speed>0.0</speed>
				</extensions>
			</trkpt>
			<trkpt lat="53.26825729" lon="-8.9299732">
				<ele>75.0</ele>
				<time>2014-08-17T17:29:51Z</time>
				<extensions>
					<speed>0.0</speed>
				</extensions>
			</trkpt>
			<trkpt lat="53.26825734" lon="-8.92997319">
				<ele>75.0</ele>
				<time>2014-08-17T17:29:52Z</time>
				<extensions>
					<speed>0.0</speed>
				</extensions>
			</trkpt>
			<trkpt lat="53.26825735" lon="-8.92997317">
				<ele>75.0</ele>
				<time>2014-08-17T17:29:53Z</time>
				<extensions>
					<speed>0.0</speed>
				</extensions>
			</trkpt>
			<trkpt lat="53.26825736" lon="-8.92997311">
				<ele>75.0</ele>
				<time>2014-08-17T17:29:54Z</time>
				<extensions>
					<speed>0.0</speed>
				</extensions>
			</trkpt>
			<trkpt lat="53.26825737" lon="-8.9299731">
				<ele>75.0</ele>
				<time>2014-08-17T17:29:55Z</time>
				<extensions>
					<speed>0.0</speed>
				</extensions>
			</trkpt>
			<trkpt lat="53.26825737" lon="-8.92997309">
				<ele>75.0</ele>
				<time>2014-08-17T17:29:56Z</time>
				<extensions>
					<speed>0.0</speed>
				</extensions>
			</trkpt>
			<trkpt lat="53.26825738" lon="-8.92997309">
				<ele>75.0</ele>
				<time>2014-08-17T17:29:57Z</time>
				<extensions>
					<speed>0.0</speed>
				</extensions>
			</trkpt>
			<trkpt lat="53.2682574" lon="-8.92997307">
				<ele>75.0</ele>
				<time>2014-08-17T17:29:58Z</time>
				<extensions>
					<speed>0.0</speed>
				</extensions>
			</trkpt>
			<trkpt lat="53.26825738" lon="-8.92997303">
				<ele>75.0</ele>
				<time>2014-08-17T17:29:59Z</time>
				<extensions>
					<speed>0.0</speed>
				</extensions>
			</trkpt>
			<trkpt lat="53.26825739" lon="-8.92997299">
				<ele>75.0</ele>
				<time>2014-08-17T17:30:00Z</time>
				<extensions>
					<speed>0.0</speed>
				</extensions>
			</trkpt>
			<trkpt lat="53.26825737" lon="-8.92997301">
				<ele>75.0</ele>
				<time>2014-08-17T17:30:01Z</time>
				<extensions>
					<speed>0.0</speed>
				</extensions>
			</trkpt>
			<trkpt lat="53.26825738" lon="-8.92997301">
				<ele>75.0</ele>
				<time>2014-08-17T17:30:02Z</time>
				<extensions>
					<speed>0.0</speed>
				</extensions>
			</trkpt>
			<trkpt lat="53.26825741" lon="-8.92997301">
				<ele>75.0</ele>
				<time>2014-08-17T17:30:03Z</time>
				<extensions>
					<speed>0.0</speed>
				</extensions>
			</trkpt>
			<trkpt lat="53.26825745" lon="-8.929973">
				<ele>75.0</ele>
				<time>2014-08-17T17:30:04Z</time>
				<extensions>
					<speed>0.0</speed>
				</extensions>
			</trkpt>
			<trkpt lat="53.26825743" lon="-8.92997302">
				<ele>75.0</ele>
				<time>2014-08-17T17:30:05Z</time>
				<extensions>
					<speed>0.0</speed>
				</extensions>
			</trkpt>
			<trkpt lat="53.26825745" lon="-8.929973">
				<ele>75.0</ele>
				<time>2014-08-17T17:30:06Z</time>
				<extensions>
					<speed>0.0</speed>
				</extensions>
			</trkpt>
			<trkpt lat="53.26825745" lon="-8.92997296">
				<ele>75.0</ele>
				<time>2014-08-17T17:30:07Z</time>
				<extensions>
					<speed>0.0</speed>
				</extensions>
			</trkpt>
			<trkpt lat="53.26825745" lon="-8.92997294">
				<ele>75.0</ele>
				<time>2014-08-17T17:30:08Z</time>
				<extensions>
					<speed>0.0</speed>
				</extensions>
			</trkpt>
			<trkpt lat="53.26825748" lon="-8.92997295">
				<ele>75.0</ele>
				<time>2014-08-17T17:30:09Z</time>
				<extensions>
					<speed>0.0</speed>
				</extensions>
			</trkpt>
			<trkpt lat="53.26825746" lon="-8.92997294">
				<ele>75.0</ele>
				<time>2014-08-17T17:30:10Z</time>
				<extensions>
					<speed>0.0</speed>
				</extensions>
			</trkpt>
			<trkpt lat="53.26825745" lon="-8.92997292">
				<ele>75.0</ele>
				<time>2014-08-17T17:30:11Z</time>
				<extensions>
					<speed>0.0</speed>
				</extensions>
			</trkpt>
			<trkpt lat="53.26825743" lon="-8.92997289">
				<ele>75.0</ele>
				<time>2014-08-17T17:30:12Z</time>
				<extensions>
					<speed>0.0</speed>
				</extensions>
			</trkpt>
			<trkpt lat="53.26825741" lon="-8.92997286">
				<ele>75.0</ele>
				<time>2014-08-17T17:30:13Z</time>
				<extensions>
					<speed>0.0</speed>
				</extensions>
			</trkpt>
			<trkpt lat="53.26825742" lon="-8.92997282">
				<ele>75.0</ele>
				<time>2014-08-17T17:30:14Z</time>
				<extensions>
					<speed>0.0</speed>
				</extensions>
			</trkpt>
			<trkpt lat="53.26825779" lon="-8.92997284">
				<ele>75.0</ele>
				<time>2014-08-17T17:30:15Z</time>
				<extensions>
					<speed>0.25</speed>
				</extensions>
			</trkpt>
			<trkpt lat="53.26825918" lon="-8.92997111">
				<ele>75.0</ele>
				<time>2014-08-17T17:30:16Z</time>
				<extensions>
					<speed>0.0</speed>
				</extensions>
			</trkpt>
			<trkpt lat="53.26826102" lon="-8.9299693">
				<ele>75.0</ele>
				<time>2014-08-17T17:30:17Z</time>
				<extensions>
					<speed>0.0</speed>
				</extensions>
			</trkpt>
			<trkpt lat="53.26826174" lon="-8.92997248">
				<ele>75.0</ele>
				<time>2014-08-17T17:30:18Z</time>
				<extensions>
					<speed>0.0</speed>
				</extensions>
			</trkpt>
			<trkpt lat="53.26826174" lon="-8.92997248">
				<ele>75.0</ele>
				<time>2014-08-17T17:30:19Z</time>
				<extensions>
					<speed>0.0</speed>
				</extensions>
			</trkpt>
			<trkpt lat="53.26826267" lon="-8.92997187">
				<ele>76.0</ele>
				<time>2014-08-17T17:30:20Z</time>
				<extensions>
					<speed>0.0</speed>
				</extensions>
			</trkpt>
			<trkpt lat="53.2682634" lon="-8.92997002">
				<ele>76.0</ele>
				<time>2014-08-17T17:30:21Z</time>
				<extensions>
					<speed>0.0</speed>
				</extensions>
			</trkpt>
			<trkpt lat="53.26826117" lon="-8.92996778">
				<ele>75.0</ele>
				<time>2014-08-17T17:30:22Z</time>
				<extensions>
					<speed>0.0</speed>
				</extensions>
			</trkpt>
			<trkpt lat="53.26825904" lon="-8.92996775">
				<ele>75.0</ele>
				<time>2014-08-17T17:30:23Z</time>
				<extensions>
					<speed>0.0</speed>
				</extensions>
			</trkpt>
			<trkpt lat="53.26825825" lon="-8.92996873">
				<ele>75.0</ele>
				<time>2014-08-17T17:30:24Z</time>
				<extensions>
					<speed>0.0</speed>
				</extensions>
			</trkpt>
			<trkpt lat="53.26825708" lon="-8.92996935">
				<ele>75.0</ele>
				<time>2014-08-17T17:30:25Z</time>
				<extensions>
					<speed>0.0</speed>
				</extensions>
			</trkpt>
			<trkpt lat="53.26825657" lon="-8.92996709">
				<ele>75.0</ele>
				<time>2014-08-17T17:30:26Z</time>
				<extensions>
					<speed>0.0</speed>
				</extensions>
			</trkpt>
			<trkpt lat="53.26825643" lon="-8.92996747">
				<ele>75.0</ele>
				<time>2014-08-17T17:30:27Z</time>
				<extensions>
					<speed>0.0</speed>
				</extensions>
			</trkpt>
			<trkpt lat="53.26825627" lon="-8.9299677">
				<ele>75.0</ele>
				<time>2014-08-17T17:30:28Z</time>
				<extensions>
					<speed>0.0</speed>
				</extensions>
			</trkpt>
			<trkpt lat="53.26825627" lon="-8.92996774">
				<ele>75.0</ele>
				<time>2014-08-17T17:30:29Z</time>
				<extensions>
					<speed>0.0</speed>
				</extensions>
			</trkpt>
			<trkpt lat="53.26825639" lon="-8.9299679">
				<ele>75.0</ele>
				<time>2014-08-17T17:30:30Z</time>
				<extensions>
					<speed>0.0</speed>
				</extensions>
			</trkpt>
			<trkpt lat="53.26825281" lon="-8.92996923">
				<ele>75.0</ele>
				<time>2014-08-17T17:30:31Z</time>
				<extensions>
					<speed>0.0</speed>
				</extensions>
			</trkpt>
			<trkpt lat="53.26825061" lon="-8.92997108">
				<ele>75.0</ele>
				<time>2014-08-17T17:30:32Z</time>
				<extensions>
					<speed>0.0</speed>
				</extensions>
			</trkpt>
			<trkpt lat="53.26825144" lon="-8.92996842">
				<ele>74.0</ele>
				<time>2014-08-17T17:30:33Z</time>
				<extensions>
					<speed>0.0</speed>
				</extensions>
			</trkpt>
			<trkpt lat="53.26825144" lon="-8.92996842">
				<ele>74.0</ele>
				<time>2014-08-17T17:30:34Z</time>
				<extensions>
					<speed>0.0</speed>
				</extensions>
			</trkpt>
			<trkpt lat="53.26825056" lon="-8.92996349">
				<ele>74.0</ele>
				<time>2014-08-17T17:30:35Z</time>
				<extensions>
					<speed>0.0</speed>
				</extensions>
			</trkpt>
			<trkpt lat="53.26824818" lon="-8.92996013">
				<ele>73.0</ele>
				<time>2014-08-17T17:30:36Z</time>
				<extensions>
					<speed>0.0</speed>
				</extensions>
			</trkpt>
			<trkpt lat="53.26824699" lon="-8.92995907">
				<ele>74.0</ele>
				<time>2014-08-17T17:30:37Z</time>
				<extensions>
					<speed>0.0</speed>
				</extensions>
			</trkpt>
			<trkpt lat="53.2682467" lon="-8.92996023">
				<ele>73.0</ele>
				<time>2014-08-17T17:30:38Z</time>
				<extensions>
					<speed>0.0</speed>
				</extensions>
			</trkpt>
			<trkpt lat="53.26824746" lon="-8.92996107">
				<ele>74.0</ele>
				<time>2014-08-17T17:30:39Z</time>
				<extensions>
					<speed>0.0</speed>
				</extensions>
			</trkpt>
			<trkpt lat="53.26824582" lon="-8.92996028">
				<ele>73.0</ele>
				<time>2014-08-17T17:30:40Z</time>
				<extensions>
					<speed>0.0</speed>
				</extensions>
			</trkpt>
			<trkpt lat="53.26824547" lon="-8.92996158">
				<ele>73.0</ele>
				<time>2014-08-17T17:30:41Z</time>
				<extensions>
					<speed>0.0</speed>
				</extensions>
			</trkpt>
			<trkpt lat="53.26824547" lon="-8.92996158">
				<ele>73.0</ele>
				<time>2014-08-17T17:30:42Z</time>
				<extensions>
					<speed>0.0</speed>
				</extensions>
			</trkpt>
			<trkpt lat="53.2682427" lon="-8.92996044">
				<ele>73.0</ele>
				<time>2014-08-17T17:30:43Z</time>
				<extensions>
					<speed>0.0</speed>
				</extensions>
			</trkpt>
			<trkpt lat="53.26824123" lon="-8.92995994">
				<ele>73.0</ele>
				<time>2014-08-17T17:30:44Z</time>
				<extensions>
					<speed>0.0</speed>
				</extensions>
			</trkpt>
			<trkpt lat="53.26824116" lon="-8.92995993">
				<ele>73.0</ele>
				<time>2014-08-17T17:30:45Z</time>
				<extensions>
					<speed>0.0</speed>
				</extensions>
			</trkpt>
			<trkpt lat="53.26824124" lon="-8.92995976">
				<ele>74.0</ele>
				<time>2014-08-17T17:30:46Z</time>
				<extensions>
					<speed>0.0</speed>
				</extensions>
			</trkpt>
			<trkpt lat="53.26824023" lon="-8.92995937">
				<ele>73.0</ele>
				<time>2014-08-17T17:30:47Z</time>
				<extensions>
					<speed>0.0</speed>
				</extensions>
			</trkpt>
			<trkpt lat="53.26824362" lon="-8.92995828">
				<ele>73.0</ele>
				<time>2014-08-17T17:30:48Z</time>
				<extensions>
					<speed>0.5</speed>
				</extensions>
			</trkpt>
			<trkpt lat="53.26824767" lon="-8.92995698">
				<ele>72.0</ele>
				<time>2014-08-17T17:30:49Z</time>
				<extensions>
					<speed>0.5</speed>
				</extensions>
			</trkpt>
			<trkpt lat="53.26825661" lon="-8.9299222">
				<ele>71.0</ele>
				<time>2014-08-17T17:30:50Z</time>
				<extensions>
					<speed>1.5</speed>
				</extensions>
			</trkpt>
			<trkpt lat="53.26826079" lon="-8.9298932">
				<ele>71.0</ele>
				<time>2014-08-17T17:30:51Z</time>
				<extensions>
					<speed>1.75</speed>
				</extensions>
			</trkpt>
			<trkpt lat="53.26825438" lon="-8.92986823">
				<ele>70.0</ele>
				<time>2014-08-17T17:30:52Z</time>
				<extensions>
					<speed>2.0</speed>
				</extensions>
			</trkpt>
			<trkpt lat="53.26824171" lon="-8.92985147">
				<ele>67.0</ele>
				<time>2014-08-17T17:30:53Z</time>
				<extensions>
					<speed>2.25</speed>
				</extensions>
			</trkpt>
			<trkpt lat="53.26823038" lon="-8.92982431">
				<ele>67.0</ele>
				<time>2014-08-17T17:30:54Z</time>
				<extensions>
					<speed>2.25</speed>
				</extensions>
			</trkpt>
			<trkpt lat="53.26822586" lon="-8.92979681">
				<ele>65.0</ele>
				<time>2014-08-17T17:30:55Z</time>
				<extensions>
					<speed>2.25</speed>
				</extensions>
			</trkpt>
			<trkpt lat="53.26821309" lon="-8.92976129">
				<ele>66.0</ele>
				<time>2014-08-17T17:30:56Z</time>
				<extensions>
					<speed>2.25</speed>
				</extensions>
			</trkpt>
			<trkpt lat="53.26820712" lon="-8.9297345">
				<ele>66.0</ele>
				<time>2014-08-17T17:30:57Z</time>
				<extensions>
					<speed>1.75</speed>
				</extensions>
			</trkpt>
			<trkpt lat="53.26819984" lon="-8.92971025">
				<ele>66.0</ele>
				<time>2014-08-17T17:30:58Z</time>
				<extensions>
					<speed>1.75</speed>
				</extensions>
			</trkpt>
			<trkpt lat="53.26820236" lon="-8.92968428">
				<ele>66.0</ele>
				<time>2014-08-17T17:30:59Z</time>
				<extensions>
					<speed>2.25</speed>
				</extensions>
			</trkpt>
			<trkpt lat="53.2682137" lon="-8.92964162">
				<ele>67.0</ele>
				<time>2014-08-17T17:31:00Z</time>
				<extensions>
					<speed>2.75</speed>
				</extensions>
			</trkpt>
			<trkpt lat="53.26822564" lon="-8.92960569">
				<ele>67.0</ele>
				<time>2014-08-17T17:31:01Z</time>
				<extensions>
					<speed>2.75</speed>
				</extensions>
			</trkpt>
			<trkpt lat="53.26823757" lon="-8.92956977">
				<ele>67.0</ele>
				<time>2014-08-17T17:31:02Z</time>
				<extensions>
					<speed>2.75</speed>
				</extensions>
			</trkpt>
			<trkpt lat="53.26826501" lon="-8.92957481">
				<ele>66.0</ele>
				<time>2014-08-17T17:31:03Z</time>
				<extensions>
					<speed>3.0</speed>
				</extensions>
			</trkpt>
			<trkpt lat="53.26829367" lon="-8.92955562">
				<ele>66.0</ele>
				<time>2014-08-17T17:31:04Z</time>
				<extensions>
					<speed>2.75</speed>
				</extensions>
			</trkpt>
			<trkpt lat="53.26831959" lon="-8.92953834">
				<ele>66.0</ele>
				<time>2014-08-17T17:31:05Z</time>
				<extensions>
					<speed>2.75</speed>
				</extensions>
			</trkpt>
			<trkpt lat="53.26834198" lon="-8.92953283">
				<ele>65.0</ele>
				<time>2014-08-17T17:31:06Z</time>
				<extensions>
					<speed>2.5</speed>
				</extensions>
			</trkpt>
			<trkpt lat="53.26836172" lon="-8.92951573">
				<ele>65.0</ele>
				<time>2014-08-17T17:31:07Z</time>
				<extensions>
					<speed>2.5</speed>
				</extensions>
			</trkpt>
			<trkpt lat="53.26838108" lon="-8.92949865">
				<ele>65.0</ele>
				<time>2014-08-17T17:31:08Z</time>
				<extensions>
					<speed>2.25</speed>
				</extensions>
			</trkpt>
			<trkpt lat="53.26839752" lon="-8.92948676">
				<ele>66.0</ele>
				<time>2014-08-17T17:31:09Z</time>
				<extensions>
					<speed>1.5</speed>
				</extensions>
			</trkpt>
			<trkpt lat="53.26841147" lon="-8.92947934">
				<ele>66.0</ele>
				<time>2014-08-17T17:31:10Z</time>
				<extensions>
					<speed>2.25</speed>
				</extensions>
			</trkpt>
			<trkpt lat="53.26843305" lon="-8.9294649">
				<ele>65.0</ele>
				<time>2014-08-17T17:31:11Z</time>
				<extensions>
					<speed>3.25</speed>
				</extensions>
			</trkpt>
			<trkpt lat="53.26846508" lon="-8.92944033">
				<ele>65.0</ele>
				<time>2014-08-17T17:31:12Z</time>
				<extensions>
					<speed>4.0</speed>
				</extensions>
			</trkpt>
			<trkpt lat="53.2684911" lon="-8.9294107">
				<ele>65.0</ele>
				<time>2014-08-17T17:31:13Z</time>
				<extensions>
					<speed>4.0</speed>
				</extensions>
			</trkpt>
			<trkpt lat="53.26852511" lon="-8.92937697">
				<ele>65.0</ele>
				<time>2014-08-17T17:31:14Z</time>
				<extensions>
					<speed>4.75</speed>
				</extensions>
			</trkpt>
			<trkpt lat="53.26856346" lon="-8.92933161">
				<ele>65.0</ele>
				<time>2014-08-17T17:31:15Z</time>
				<extensions>
					<speed>5.25</speed>
				</extensions>
			</trkpt>
			<trkpt lat="53.26860168" lon="-8.92929628">
				<ele>65.0</ele>
				<time>2014-08-17T17:31:16Z</time>
				<extensions>
					<speed>4.75</speed>
				</extensions>
			</trkpt>
			<trkpt lat="53.2686328" lon="-8.92925554">
				<ele>64.0</ele>
				<time>2014-08-17T17:31:17Z</time>
				<extensions>
					<speed>4.25</speed>
				</extensions>
			</trkpt>
			<trkpt lat="53.26866109" lon="-8.92921988">
				<ele>64.0</ele>
				<time>2014-08-17T17:31:18Z</time>
				<extensions>
					<speed>4.25</speed>
				</extensions>
			</trkpt>
			<trkpt lat="53.2686896" lon="-8.92918393">
				<ele>64.0</ele>
				<time>2014-08-17T17:31:19Z</time>
				<extensions>
					<speed>4.5</speed>
				</extensions>
			</trkpt>
			<trkpt lat="53.26872766" lon="-8.92913756">
				<ele>64.0</ele>
				<time>2014-08-17T17:31:20Z</time>
				<extensions>
					<speed>5.25</speed>
				</extensions>
			</trkpt>
			<trkpt lat="53.26877638" lon="-8.92909535">
				<ele>63.0</ele>
				<time>2014-08-17T17:31:21Z</time>
				<extensions>
					<speed>6.25</speed>
				</extensions>
			</trkpt>
			<trkpt lat="53.26882882" lon="-8.92905124">
				<ele>63.0</ele>
				<time>2014-08-17T17:31:22Z</time>
				<extensions>
					<speed>7.0</speed>
				</extensions>
			</trkpt>
			<trkpt lat="53.2688871" lon="-8.92901373">
				<ele>61.0</ele>
				<time>2014-08-17T17:31:23Z</time>
				<extensions>
					<speed>7.5</speed>
				</extensions>
			</trkpt>
			<trkpt lat="53.26895159" lon="-8.92897357">
				<ele>61.0</ele>
				<time>2014-08-17T17:31:24Z</time>
				<extensions>
					<speed>7.75</speed>
				</extensions>
			</trkpt>
			<trkpt lat="53.26902074" lon="-8.92893047">
				<ele>62.0</ele>
				<time>2014-08-17T17:31:25Z</time>
				<extensions>
					<speed>8.25</speed>
				</extensions>
			</trkpt>
			<trkpt lat="53.2690912" lon="-8.92889395">
				<ele>62.0</ele>
				<time>2014-08-17T17:31:26Z</time>
				<extensions>
					<speed>8.25</speed>
				</extensions>
			</trkpt>
			<trkpt lat="53.26916415" lon="-8.92886789">
				<ele>61.0</ele>
				<time>2014-08-17T17:31:27Z</time>
				<extensions>
					<speed>8.25</speed>
				</extensions>
			</trkpt>
			<trkpt lat="53.26923373" lon="-8.92884807">
				<ele>62.0</ele>
				<time>2014-08-17T17:31:28Z</time>
				<extensions>
					<speed>8.75</speed>
				</extensions>
			</trkpt>
			<trkpt lat="53.26931048" lon="-8.92881923">
				<ele>62.0</ele>
				<time>2014-08-17T17:31:29Z</time>
				<extensions>
					<speed>8.5</speed>
				</extensions>
			</trkpt>
			<trkpt lat="53.26939285" lon="-8.92878966">
				<ele>62.0</ele>
				<time>2014-08-17T17:31:30Z</time>
				<extensions>
					<speed>8.5</speed>
				</extensions>
			</trkpt>
			<trkpt lat="53.26947242" lon="-8.92876529">
				<ele>63.0</ele>
				<time>2014-08-17T17:31:31Z</time>
				<extensions>
					<speed>8.75</speed>
				</extensions>
			</trkpt>
			<trkpt lat="53.26955457" lon="-8.92873979">
				<ele>62.0</ele>
				<time>2014-08-17T17:31:32Z</time>
				<extensions>
					<speed>9.25</speed>
				</extensions>
			</trkpt>
			<trkpt lat="53.26963605" lon="-8.92871155">
				<ele>62.0</ele>
				<time>2014-08-17T17:31:33Z</time>
				<extensions>
					<speed>9.25</speed>
				</extensions>
			</trkpt>
			<trkpt lat="53.26972315" lon="-8.92869265">
				<ele>62.0</ele>
				<time>2014-08-17T17:31:34Z</time>
				<extensions>
					<speed>9.5</speed>
				</extensions>
			</trkpt>
			<trkpt lat="53.26980504" lon="-8.92867851">
				<ele>62.0</ele>
				<time>2014-08-17T17:31:35Z</time>
				<extensions>
					<speed>10.0</speed>
				</extensions>
			</trkpt>
			<trkpt lat="53.26990323" lon="-8.92867599">
				<ele>63.0</ele>
				<time>2014-08-17T17:31:36Z</time>
				<extensions>
					<speed>11.25</speed>
				</extensions>
			</trkpt>
			<trkpt lat="53.27000737" lon="-8.92869596">
				<ele>62.0</ele>
				<time>2014-08-17T17:31:37Z</time>
				<extensions>
					<speed>11.5</speed>
				</extensions>
			</trkpt>
			<trkpt lat="53.2701131" lon="-8.9287236">
				<ele>61.0</ele>
				<time>2014-08-17T17:31:38Z</time>
				<extensions>
					<speed>11.75</speed>
				</extensions>
			</trkpt>
			<trkpt lat="53.2702069" lon="-8.92876863">
				<ele>59.0</ele>
				<time>2014-08-17T17:31:39Z</time>
				<extensions>
					<speed>12.25</speed>
				</extensions>
			</trkpt>
			<trkpt lat="53.27031583" lon="-8.92881658">
				<ele>59.0</ele>
				<time>2014-08-17T17:31:40Z</time>
				<extensions>
					<speed>12.75</speed>
				</extensions>
			</trkpt>
			<trkpt lat="53.27041618" lon="-8.92886488">
				<ele>59.0</ele>
				<time>2014-08-17T17:31:41Z</time>
				<extensions>
					<speed>12.25</speed>
				</extensions>
			</trkpt>
			<trkpt lat="53.27053032" lon="-8.92891217">
				<ele>58.0</ele>
				<time>2014-08-17T17:31:42Z</time>
				<extensions>
					<speed>12.5</speed>
				</extensions>
			</trkpt>
			<trkpt lat="53.27063715" lon="-8.92895925">
				<ele>59.0</ele>
				<time>2014-08-17T17:31:43Z</time>
				<extensions>
					<speed>12.0</speed>
				</extensions>
			</trkpt>
			<trkpt lat="53.2707485" lon="-8.92900152">
				<ele>57.0</ele>
				<time>2014-08-17T17:31:44Z</time>
				<extensions>
					<speed>11.75</speed>
				</extensions>
			</trkpt>
			<trkpt lat="53.27085254" lon="-8.92903589">
				<ele>57.0</ele>
				<time>2014-08-17T17:31:45Z</time>
				<extensions>
					<speed>11.25</speed>
				</extensions>
			</trkpt>
			<trkpt lat="53.27094832" lon="-8.92906387">
				<ele>56.0</ele>
				<time>2014-08-17T17:31:46Z</time>
				<extensions>
					<speed>10.25</speed>
				</extensions>
			</trkpt>
			<trkpt lat="53.27103375" lon="-8.92910596">
				<ele>56.0</ele>
				<time>2014-08-17T17:31:47Z</time>
				<extensions>
					<speed>9.5</speed>
				</extensions>
			</trkpt>
			<trkpt lat="53.27111575" lon="-8.92913651">
				<ele>57.0</ele>
				<time>2014-08-17T17:31:48Z</time>
				<extensions>
					<speed>9.0</speed>
				</extensions>
			</trkpt>
			<trkpt lat="53.27117577" lon="-8.92923097">
				<ele>55.0</ele>
				<time>2014-08-17T17:31:49Z</time>
				<extensions>
					<speed>8.25</speed>
				</extensions>
			</trkpt>
			<trkpt lat="53.27122251" lon="-8.92931478">
				<ele>56.0</ele>
				<time>2014-08-17T17:31:50Z</time>
				<extensions>
					<speed>7.75</speed>
				</extensions>
			</trkpt>
			<trkpt lat="53.27126539" lon="-8.92941611">
				<ele>55.0</ele>
				<time>2014-08-17T17:31:51Z</time>
				<extensions>
					<speed>7.5</speed>
				</extensions>
			</trkpt>
			<trkpt lat="53.27131579" lon="-8.92946954">
				<ele>55.0</ele>
				<time>2014-08-17T17:31:52Z</time>
				<extensions>
					<speed>7.0</speed>
				</extensions>
			</trkpt>
			<trkpt lat="53.27137216" lon="-8.92948264">
				<ele>55.0</ele>
				<time>2014-08-17T17:31:53Z</time>
				<extensions>
					<speed>7.0</speed>
				</extensions>
			</trkpt>
			<trkpt lat="53.27143124" lon="-8.92945656">
				<ele>55.0</ele>
				<time>2014-08-17T17:31:54Z</time>
				<extensions>
					<speed>7.25</speed>
				</extensions>
			</trkpt>
			<trkpt lat="53.27149778" lon="-8.92942315">
				<ele>55.0</ele>
				<time>2014-08-17T17:31:55Z</time>
				<extensions>
					<speed>7.75</speed>
				</extensions>
			</trkpt>
			<trkpt lat="53.2715727" lon="-8.9294181">
				<ele>55.0</ele>
				<time>2014-08-17T17:31:56Z</time>
				<extensions>
					<speed>8.25</speed>
				</extensions>
			</trkpt>
			<trkpt lat="53.27164299" lon="-8.92942567">
				<ele>55.0</ele>
				<time>2014-08-17T17:31:57Z</time>
				<extensions>
					<speed>8.0</speed>
				</extensions>
			</trkpt>
			<trkpt lat="53.27171536" lon="-8.92943852">
				<ele>55.0</ele>
				<time>2014-08-17T17:31:58Z</time>
				<extensions>
					<speed>8.0</speed>
				</extensions>
			</trkpt>
			<trkpt lat="53.27177892" lon="-8.92946078">
				<ele>55.0</ele>
				<time>2014-08-17T17:31:59Z</time>
				<extensions>
					<speed>7.75</speed>
				</extensions>
			</trkpt>
			<trkpt lat="53.27184782" lon="-8.92947141">
				<ele>54.0</ele>
				<time>2014-08-17T17:32:00Z</time>
				<extensions>
					<speed>8.0</speed>
				</extensions>
			</trkpt>
			<trkpt lat="53.27192303" lon="-8.92950663">
				<ele>54.0</ele>
				<time>2014-08-17T17:32:01Z</time>
				<extensions>
					<speed>8.5</speed>
				</extensions>
			</trkpt>
			<trkpt lat="53.27198768" lon="-8.92955898">
				<ele>54.0</ele>
				<time>2014-08-17T17:32:02Z</time>
				<extensions>
					<speed>7.75</speed>
				</extensions>
			</trkpt>
			<trkpt lat="53.27205091" lon="-8.92959066">
				<ele>55.0</ele>
				<time>2014-08-17T17:32:03Z</time>
				<extensions>
					<speed>7.25</speed>
				</extensions>
			</trkpt>
			<trkpt lat="53.2721059" lon="-8.92961489">
				<ele>56.0</ele>
				<time>2014-08-17T17:32:04Z</time>
				<extensions>
					<speed>6.5</speed>
				</extensions>
			</trkpt>
			<trkpt lat="53.27215759" lon="-8.92962874">
				<ele>54.0</ele>
				<time>2014-08-17T17:32:05Z</time>
				<extensions>
					<speed>5.75</speed>
				</extensions>
			</trkpt>
			<trkpt lat="53.27220484" lon="-8.9296042">
				<ele>55.0</ele>
				<time>2014-08-17T17:32:06Z</time>
				<extensions>
					<speed>5.0</speed>
				</extensions>
			</trkpt>
			<trkpt lat="53.27224629" lon="-8.92956757">
				<ele>55.0</ele>
				<time>2014-08-17T17:32:07Z</time>
				<extensions>
					<speed>6.0</speed>
				</extensions>
			</trkpt>
			<trkpt lat="53.27229318" lon="-8.92949641">
				<ele>55.0</ele>
				<time>2014-08-17T17:32:08Z</time>
				<extensions>
					<speed>7.5</speed>
				</extensions>
			</trkpt>
			<trkpt lat="53.27234483" lon="-8.92941418">
				<ele>55.0</ele>
				<time>2014-08-17T17:32:09Z</time>
				<extensions>
					<speed>8.75</speed>
				</extensions>
			</trkpt>
			<trkpt lat="53.27240205" lon="-8.92930477">
				<ele>55.0</ele>
				<time>2014-08-17T17:32:10Z</time>
				<extensions>
					<speed>10.0</speed>
				</extensions>
			</trkpt>
			<trkpt lat="53.27246436" lon="-8.92919466">
				<ele>56.0</ele>
				<time>2014-08-17T17:32:11Z</time>
				<extensions>
					<speed>10.0</speed>
				</extensions>
			</trkpt>
			<trkpt lat="53.27252825" lon="-8.92907296">
				<ele>56.0</ele>
				<time>2014-08-17T17:32:12Z</time>
				<extensions>
					<speed>10.75</speed>
				</extensions>
			</trkpt>
			<trkpt lat="53.27259519" lon="-8.92894705">
				<ele>56.0</ele>
				<time>2014-08-17T17:32:13Z</time>
				<extensions>
					<speed>11.25</speed>
				</extensions>
			</trkpt>
			<trkpt lat="53.27267526" lon="-8.9288111">
				<ele>57.0</ele>
				<time>2014-08-17T17:32:14Z</time>
				<extensions>
					<speed>11.5</speed>
				</extensions>
			</trkpt>
			<trkpt lat="53.2727568" lon="-8.92869964">
				<ele>57.0</ele>
				<time>2014-08-17T17:32:15Z</time>
				<extensions>
					<speed>11.75</speed>
				</extensions>
			</trkpt>
			<trkpt lat="53.2728443" lon="-8.92858987">
				<ele>57.0</ele>
				<time>2014-08-17T17:32:16Z</time>
				<extensions>
					<speed>12.25</speed>
				</extensions>
			</trkpt>
			<trkpt lat="53.27293504" lon="-8.92848109">
				<ele>58.0</ele>
				<time>2014-08-17T17:32:17Z</time>
				<extensions>
					<speed>12.5</speed>
				</extensions>
			</trkpt>
			<trkpt lat="53.27302804" lon="-8.9283947">
				<ele>58.0</ele>
				<time>2014-08-17T17:32:18Z</time>
				<extensions>
					<speed>12.5</speed>
				</extensions>
			</trkpt>
			<trkpt lat="53.27312161" lon="-8.92831178">
				<ele>57.0</ele>
				<time>2014-08-17T17:32:19Z</time>
				<extensions>
					<speed>12.75</speed>
				</extensions>
			</trkpt>
			<trkpt lat="53.27322727" lon="-8.92823176">
				<ele>58.0</ele>
				<time>2014-08-17T17:32:20Z</time>
				<extensions>
					<speed>13.0</speed>
				</extensions>
			</trkpt>
			<trkpt lat="53.27333379" lon="-8.92816841">
				<ele>57.0</ele>
				<time>2014-08-17T17:32:21Z</time>
				<extensions>
					<speed>13.25</speed>
				</extensions>
			</trkpt>
			<trkpt lat="53.27344578" lon="-8.92810845">
				<ele>58.0</ele>
				<time>2014-08-17T17:32:22Z</time>
				<extensions>
					<speed>13.25</speed>
				</extensions>
			</trkpt>
			<trkpt lat="53.2735614" lon="-8.9280419">
				<ele>59.0</ele>
				<time>2014-08-17T17:32:23Z</time>
				<extensions>
					<speed>13.5</speed>
				</extensions>
			</trkpt>
			<trkpt lat="53.27367968" lon="-8.92799261">
				<ele>59.0</ele>
				<time>2014-08-17T17:32:24Z</time>
				<extensions>
					<speed>13.75</speed>
				</extensions>
			</trkpt>
			<trkpt lat="53.27379692" lon="-8.92793918">
				<ele>59.0</ele>
				<time>2014-08-17T17:32:25Z</time>
				<extensions>
					<speed>14.0</speed>
				</extensions>
			</trkpt>
			<trkpt lat="53.27392154" lon="-8.92790653">
				<ele>58.0</ele>
				<time>2014-08-17T17:32:26Z</time>
				<extensions>
					<speed>14.25</speed>
				</extensions>
			</trkpt>
			<trkpt lat="53.27404698" lon="-8.92786373">
				<ele>58.0</ele>
				<time>2014-08-17T17:32:27Z</time>
				<extensions>
					<speed>14.25</speed>
				</extensions>
			</trkpt>
			<trkpt lat="53.27417969" lon="-8.92783631">
				<ele>58.0</ele>
				<time>2014-08-17T17:32:28Z</time>
				<extensions>
					<speed>14.25</speed>
				</extensions>
			</trkpt>
			<trkpt lat="53.27431148" lon="-8.92778456">
				<ele>58.0</ele>
				<time>2014-08-17T17:32:29Z</time>
				<extensions>
					<speed>14.75</speed>
				</extensions>
			</trkpt>
			<trkpt lat="53.27444013" lon="-8.92775139">
				<ele>58.0</ele>
				<time>2014-08-17T17:32:30Z</time>
				<extensions>
					<speed>14.75</speed>
				</extensions>
			</trkpt>
			<trkpt lat="53.27457061" lon="-8.9277087">
				<ele>58.0</ele>
				<time>2014-08-17T17:32:31Z</time>
				<extensions>
					<speed>14.75</speed>
				</extensions>
			</trkpt>
			<trkpt lat="53.27470109" lon="-8.927666">
				<ele>58.0</ele>
				<time>2014-08-17T17:32:32Z</time>
				<extensions>
					<speed>14.75</speed>
				</extensions>
			</trkpt>
			<trkpt lat="53.27484358" lon="-8.92759964">
				<ele>58.0</ele>
				<time>2014-08-17T17:32:33Z</time>
				<extensions>
					<speed>15.25</speed>
				</extensions>
			</trkpt>
			<trkpt lat="53.27498331" lon="-8.92756117">
				<ele>59.0</ele>
				<time>2014-08-17T17:32:34Z</time>
				<extensions>
					<speed>15.25</speed>
				</extensions>
			</trkpt>
			<trkpt lat="53.27512298" lon="-8.92751014">
				<ele>60.0</ele>
				<time>2014-08-17T17:32:35Z</time>
				<extensions>
					<speed>15.25</speed>
				</extensions>
			</trkpt>
			<trkpt lat="53.27526403" lon="-8.92746932">
				<ele>60.0</ele>
				<time>2014-08-17T17:32:36Z</time>
				<extensions>
					<speed>15.25</speed>
				</extensions>
			</trkpt>
			<trkpt lat="53.27539005" lon="-8.92742812">
				<ele>60.0</ele>
				<time>2014-08-17T17:32:37Z</time>
				<extensions>
					<speed>15.0</speed>
				</extensions>
			</trkpt>
			<trkpt lat="53.27552273" lon="-8.92738811">
				<ele>60.0</ele>
				<time>2014-08-17T17:32:38Z</time>
				<extensions>
					<speed>14.5</speed>
				</extensions>
			</trkpt>
			<trkpt lat="53.27564751" lon="-8.92735364">
				<ele>61.0</ele>
				<time>2014-08-17T17:32:39Z</time>
				<extensions>
					<speed>14.25</speed>
				</extensions>
			</trkpt>
			<trkpt lat="53.27577384" lon="-8.92731241">
				<ele>60.0</ele>
				<time>2014-08-17T17:32:40Z</time>
				<extensions>
					<speed>14.25</speed>
				</extensions>
			</trkpt>
			<trkpt lat="53.27589038" lon="-8.92727254">
				<ele>60.0</ele>
				<time>2014-08-17T17:32:41Z</time>
				<extensions>
					<speed>13.5</speed>
				</extensions>
			</trkpt>
			<trkpt lat="53.27600306" lon="-8.92722951">
				<ele>61.0</ele>
				<time>2014-08-17T17:32:42Z</time>
				<extensions>
					<speed>13.25</speed>
				</extensions>
			</trkpt>
			<trkpt lat="53.27610957" lon="-8.92718791">
				<ele>60.0</ele>
				<time>2014-08-17T17:32:43Z</time>
				<extensions>
					<speed>12.5</speed>
				</extensions>
			</trkpt>
			<trkpt lat="53.27621044" lon="-8.92714657">
				<ele>60.0</ele>
				<time>2014-08-17T17:32:44Z</time>
				<extensions>
					<speed>12.25</speed>
				</extensions>
			</trkpt>
			<trkpt lat="53.27631198" lon="-8.92711141">
				<ele>61.0</ele>
				<time>2014-08-17T17:32:45Z</time>
				<extensions>
					<speed>10.75</speed>
				</extensions>
			</trkpt>
			<trkpt lat="53.27639767" lon="-8.92707172">
				<ele>60.0</ele>
				<time>2014-08-17T17:32:46Z</time>
				<extensions>
					<speed>9.25</speed>
				</extensions>
			</trkpt>
			<trkpt lat="53.27647319" lon="-8.92703897">
				<ele>60.0</ele>
				<time>2014-08-17T17:32:47Z</time>
				<extensions>
					<speed>7.75</speed>
				</extensions>
			</trkpt>
			<trkpt lat="53.27654031" lon="-8.92701808">
				<ele>60.0</ele>
				<time>2014-08-17T17:32:48Z</time>
				<extensions>
					<speed>6.0</speed>
				</extensions>
			</trkpt>
			<trkpt lat="53.27658793" lon="-8.92702736">
				<ele>61.0</ele>
				<time>2014-08-17T17:32:49Z</time>
				<extensions>
					<speed>4.75</speed>
				</extensions>
			</trkpt>
			<trkpt lat="53.27662149" lon="-8.92703593">
				<ele>61.0</ele>
				<time>2014-08-17T17:32:50Z</time>
				<extensions>
					<speed>3.25</speed>
				</extensions>
			</trkpt>
			<trkpt lat="53.27663526" lon="-8.92704771">
				<ele>61.0</ele>
				<time>2014-08-17T17:32:51Z</time>
				<extensions>
					<speed>1.25</speed>
				</extensions>
			</trkpt>
			<trkpt lat="53.27663984" lon="-8.92705702">
				<ele>62.0</ele>
				<time>2014-08-17T17:32:52Z</time>
				<extensions>
					<speed>0.5</speed>
				</extensions>
			</trkpt>
			<trkpt lat="53.2766427" lon="-8.92704845">
				<ele>61.0</ele>
				<time>2014-08-17T17:32:53Z</time>
				<extensions>
					<speed>0.25</speed>
				</extensions>
			</trkpt>
			<trkpt lat="53.27665183" lon="-8.92706952">
				<ele>59.0</ele>
				<time>2014-08-17T17:32:54Z</time>
				<extensions>
					<speed>0.25</speed>
				</extensions>
			</trkpt>
			<trkpt lat="53.2766603" lon="-8.92706533">
				<ele>59.0</ele>
				<time>2014-08-17T17:32:55Z</time>
				<extensions>
					<speed>1.25</speed>
				</extensions>
			</trkpt>
			<trkpt lat="53.2766737" lon="-8.92707546">
				<ele>59.0</ele>
				<time>2014-08-17T17:32:56Z</time>
				<extensions>
					<speed>2.25</speed>
				</extensions>
			</trkpt>
			<trkpt lat="53.27668691" lon="-8.9270799">
				<ele>59.0</ele>
				<time>2014-08-17T17:32:57Z</time>
				<extensions>
					<speed>1.75</speed>
				</extensions>
			</trkpt>
			<trkpt lat="53.27669965" lon="-8.9270939">
				<ele>60.0</ele>
				<time>2014-08-17T17:32:58Z</time>
				<extensions>
					<speed>1.25</speed>
				</extensions>
			</trkpt>
			<trkpt lat="53.27670606" lon="-8.92709482">
				<ele>60.0</ele>
				<time>2014-08-17T17:32:59Z</time>
				<extensions>
					<speed>0.5</speed>
				</extensions>
			</trkpt>
			<trkpt lat="53.27670924" lon="-8.92710288">
				<ele>60.0</ele>
				<time>2014-08-17T17:33:00Z</time>
				<extensions>
					<speed>0.0</speed>
				</extensions>
			</trkpt>
			<trkpt lat="53.27670891" lon="-8.92710328">
				<ele>61.0</ele>
				<time>2014-08-17T17:33:01Z</time>
				<extensions>
					<speed>0.0</speed>
				</extensions>
			</trkpt>
			<trkpt lat="53.27671098" lon="-8.92710605">
				<ele>60.0</ele>
				<time>2014-08-17T17:33:02Z</time>
				<extensions>
					<speed>0.0</speed>
				</extensions>
			</trkpt>
			<trkpt lat="53.2767146" lon="-8.92710638">
				<ele>60.0</ele>
				<time>2014-08-17T17:33:03Z</time>
				<extensions>
					<speed>0.0</speed>
				</extensions>
			</trkpt>
			<trkpt lat="53.27671521" lon="-8.92710726">
				<ele>60.0</ele>
				<time>2014-08-17T17:33:04Z</time>
				<extensions>
					<speed>0.75</speed>
				</extensions>
			</trkpt>
			<trkpt lat="53.27672439" lon="-8.92711464">
				<ele>59.0</ele>
				<time>2014-08-17T17:33:05Z</time>
				<extensions>
					<speed>1.25</speed>
				</extensions>
			</trkpt>
			<trkpt lat="53.27675102" lon="-8.92713131">
				<ele>58.0</ele>
				<time>2014-08-17T17:33:06Z</time>
				<extensions>
					<speed>3.75</speed>
				</extensions>
			</trkpt>
			<trkpt lat="53.27679627" lon="-8.92717254">
				<ele>57.0</ele>
				<time>2014-08-17T17:33:07Z</time>
				<extensions>
					<speed>6.25</speed>
				</extensions>
			</trkpt>
			<trkpt lat="53.27685132" lon="-8.92720971">
				<ele>57.0</ele>
				<time>2014-08-17T17:33:08Z</time>
				<extensions>
					<speed>6.75</speed>
				</extensions>
			</trkpt>
			<trkpt lat="53.27692155" lon="-8.92724984">
				<ele>57.0</ele>
				<time>2014-08-17T17:33:09Z</time>
				<extensions>
					<speed>8.0</speed>
				</extensions>
			</trkpt>
			<trkpt lat="53.27700269" lon="-8.92727684">
				<ele>58.0</ele>
				<time>2014-08-17T17:33:10Z</time>
				<extensions>
					<speed>9.25</speed>
				</extensions>
			</trkpt>
			<trkpt lat="53.27708732" lon="-8.92727372">
				<ele>58.0</ele>
				<time>2014-08-17T17:33:11Z</time>
				<extensions>
					<speed>9.25</speed>
				</extensions>
			</trkpt>
			<trkpt lat="53.27716285" lon="-8.92724294">
				<ele>58.0</ele>
				<time>2014-08-17T17:33:12Z</time>
				<extensions>
					<speed>9.75</speed>
				</extensions>
			</trkpt>
			<trkpt lat="53.2772325" lon="-8.92716027">
				<ele>57.0</ele>
				<time>2014-08-17T17:33:13Z</time>
				<extensions>
					<speed>10.0</speed>
				</extensions>
			</trkpt>
			<trkpt lat="53.27729366" lon="-8.92705345">
				<ele>57.0</ele>
				<time>2014-08-17T17:33:14Z</time>
				<extensions>
					<speed>10.5</speed>
				</extensions>
			</trkpt>
			<trkpt lat="53.27734538" lon="-8.92692782">
				<ele>57.0</ele>
				<time>2014-08-17T17:33:15Z</time>
				<extensions>
					<speed>11.0</speed>
				</extensions>
			</trkpt>
			<trkpt lat="53.2774025" lon="-8.92679696">
				<ele>56.0</ele>
				<time>2014-08-17T17:33:16Z</time>
				<extensions>
					<speed>11.25</speed>
				</extensions>
			</trkpt>
			<trkpt lat="53.27746505" lon="-8.92665873">
				<ele>57.0</ele>
				<time>2014-08-17T17:33:17Z</time>
				<extensions>
					<speed>11.25</speed>
				</extensions>
			</trkpt>
			<trkpt lat="53.27755357" lon="-8.9265696">
				<ele>58.0</ele>
				<time>2014-08-17T17:33:18Z</time>
				<extensions>
					<speed>12.0</speed>
				</extensions>
			</trkpt>
			<trkpt lat="53.27766451" lon="-8.92651952">
				<ele>58.0</ele>
				<time>2014-08-17T17:33:19Z</time>
				<extensions>
					<speed>12.5</speed>
				</extensions>
			</trkpt>
			<trkpt lat="53.27778609" lon="-8.92646735">
				<ele>58.0</ele>
				<time>2014-08-17T17:33:20Z</time>
				<extensions>
					<speed>13.5</speed>
				</extensions>
			</trkpt>
			<trkpt lat="53.27790947" lon="-8.92642545">
				<ele>59.0</ele>
				<time>2014-08-17T17:33:21Z</time>
				<extensions>
					<speed>14.25</speed>
				</extensions>
			</trkpt>
			<trkpt lat="53.27803509" lon="-8.92638741">
				<ele>59.0</ele>
				<time>2014-08-17T17:33:22Z</time>
				<extensions>
					<speed>14.25</speed>
				</extensions>
			</trkpt>
			<trkpt lat="53.27815686" lon="-8.92634453">
				<ele>59.0</ele>
				<time>2014-08-17T17:33:23Z</time>
				<extensions>
					<speed>14.0</speed>
				</extensions>
			</trkpt>
			<trkpt lat="53.27827607" lon="-8.92629613">
				<ele>59.0</ele>
				<time>2014-08-17T17:33:24Z</time>
				<extensions>
					<speed>14.5</speed>
				</extensions>
			</trkpt>
			<trkpt lat="53.27840662" lon="-8.92625379">
				<ele>59.0</ele>
				<time>2014-08-17T17:33:25Z</time>
				<extensions>
					<speed>14.75</speed>
				</extensions>
			</trkpt>
			<trkpt lat="53.27854054" lon="-8.92622588">
				<ele>60.0</ele>
				<time>2014-08-17T17:33:26Z</time>
				<extensions>
					<speed>15.0</speed>
				</extensions>
			</trkpt>
			<trkpt lat="53.27867795" lon="-8.92619401">
				<ele>60.0</ele>
				<time>2014-08-17T17:33:27Z</time>
				<extensions>
					<speed>15.25</speed>
				</extensions>
			</trkpt>
			<trkpt lat="53.27881553" lon="-8.92614901">
				<ele>60.0</ele>
				<time>2014-08-17T17:33:28Z</time>
				<extensions>
					<speed>15.0</speed>
				</extensions>
			</trkpt>
			<trkpt lat="53.27895577" lon="-8.92613123">
				<ele>59.0</ele>
				<time>2014-08-17T17:33:29Z</time>
				<extensions>
					<speed>15.0</speed>
				</extensions>
			</trkpt>
			<trkpt lat="53.27909262" lon="-8.92611561">
				<ele>60.0</ele>
				<time>2014-08-17T17:33:30Z</time>
				<extensions>
					<speed>15.0</speed>
				</extensions>
			</trkpt>
			<trkpt lat="53.27922141" lon="-8.9260919">
				<ele>60.0</ele>
				<time>2014-08-17T17:33:31Z</time>
				<extensions>
					<speed>15.0</speed>
				</extensions>
			</trkpt>
			<trkpt lat="53.2793557" lon="-8.92605323">
				<ele>60.0</ele>
				<time>2014-08-17T17:33:32Z</time>
				<extensions>
					<speed>15.0</speed>
				</extensions>
			</trkpt>
			<trkpt lat="53.27949535" lon="-8.92602785">
				<ele>60.0</ele>
				<time>2014-08-17T17:33:33Z</time>
				<extensions>
					<speed>15.0</speed>
				</extensions>
			</trkpt>
			<trkpt lat="53.27963367" lon="-8.92601493">
				<ele>60.0</ele>
				<time>2014-08-17T17:33:34Z</time>
				<extensions>
					<speed>15.25</speed>
				</extensions>
			</trkpt>
			<trkpt lat="53.27976764" lon="-8.92600529">
				<ele>61.0</ele>
				<time>2014-08-17T17:33:35Z</time>
				<extensions>
					<speed>15.25</speed>
				</extensions>
			</trkpt>
			<trkpt lat="53.27990517" lon="-8.92599986">
				<ele>61.0</ele>
				<time>2014-08-17T17:33:36Z</time>
				<extensions>
					<speed>15.5</speed>
				</extensions>
			</trkpt>
			<trkpt lat="53.28004372" lon="-8.92599741">
				<ele>61.0</ele>
				<time>2014-08-17T17:33:37Z</time>
				<extensions>
					<speed>15.75</speed>
				</extensions>
			</trkpt>
			<trkpt lat="53.28018584" lon="-8.92598934">
				<ele>61.0</ele>
				<time>2014-08-17T17:33:38Z</time>
				<extensions>
					<speed>16.0</speed>
				</extensions>
			</trkpt>
			<trkpt lat="53.28032046" lon="-8.92599197">
				<ele>62.0</ele>
				<time>2014-08-17T17:33:39Z</time>
				<extensions>
					<speed>16.0</speed>
				</extensions>
			</trkpt>
			<trkpt lat="53.28046653" lon="-8.92597907">
				<ele>62.0</ele>
				<time>2014-08-17T17:33:40Z</time>
				<extensions>
					<speed>16.0</speed>
				</extensions>
			</trkpt>
			<trkpt lat="53.28061123" lon="-8.92597627">
				<ele>62.0</ele>
				<time>2014-08-17T17:33:41Z</time>
				<extensions>
					<speed>16.25</speed>
				</extensions>
			</trkpt>
			<trkpt lat="53.28075944" lon="-8.92597562">
				<ele>64.0</ele>
				<time>2014-08-17T17:33:42Z</time>
				<extensions>
					<speed>16.5</speed>
				</extensions>
			</trkpt>
			<trkpt lat="53.28090643" lon="-8.92598429">
				<ele>64.0</ele>
				<time>2014-08-17T17:33:43Z</time>
				<extensions>
					<speed>16.5</speed>
				</extensions>
			</trkpt>
			<trkpt lat="53.28105554" lon="-8.925985">
				<ele>63.0</ele>
				<time>2014-08-17T17:33:44Z</time>
				<extensions>
					<speed>16.5</speed>
				</extensions>
			</trkpt>
			<trkpt lat="53.28120586" lon="-8.92599184">
				<ele>63.0</ele>
				<time>2014-08-17T17:33:45Z</time>
				<extensions>
					<speed>16.75</speed>
				</extensions>
			</trkpt>
			<trkpt lat="53.28135425" lon="-8.92600156">
				<ele>63.0</ele>
				<time>2014-08-17T17:33:46Z</time>
				<extensions>
					<speed>16.75</speed>
				</extensions>
			</trkpt>
			<trkpt lat="53.28150856" lon="-8.92601278">
				<ele>63.0</ele>
				<time>2014-08-17T17:33:47Z</time>
				<extensions>
					<speed>17.0</speed>
				</extensions>
			</trkpt>
			<trkpt lat="53.2816632" lon="-8.9260133">
				<ele>62.0</ele>
				<time>2014-08-17T17:33:48Z</time>
				<extensions>
					<speed>17.0</speed>
				</extensions>
			</trkpt>
			<trkpt lat="53.28181928" lon="-8.92601854">
				<ele>63.0</ele>
				<time>2014-08-17T17:33:49Z</time>
				<extensions>
					<speed>17.0</speed>
				</extensions>
			</trkpt>
			<trkpt lat="53.28197584" lon="-8.92602043">
				<ele>63.0</ele>
				<time>2014-08-17T17:33:50Z</time>
				<extensions>
					<speed>17.0</speed>
				</extensions>
			</trkpt>
			<trkpt lat="53.28213195" lon="-8.9260326">
				<ele>64.0</ele>
				<time>2014-08-17T17:33:51Z</time>
				<extensions>
					<speed>17.25</speed>
				</extensions>
			</trkpt>
			<trkpt lat="53.28228446" lon="-8.92604954">
				<ele>64.0</ele>
				<time>2014-08-17T17:33:52Z</time>
				<extensions>
					<speed>17.5</speed>
				</extensions>
			</trkpt>
			<trkpt lat="53.28244153" lon="-8.92605686">
				<ele>64.0</ele>
				<time>2014-08-17T17:33:53Z</time>
				<extensions>
					<speed>17.5</speed>
				</extensions>
			</trkpt>
			<trkpt lat="53.28260139" lon="-8.92607221">
				<ele>64.0</ele>
				<time>2014-08-17T17:33:54Z</time>
				<extensions>
					<speed>17.5</speed>
				</extensions>
			</trkpt>
			<trkpt lat="53.28275948" lon="-8.92608424">
				<ele>68.0</ele>
				<time>2014-08-17T17:33:55Z</time>
				<extensions>
					<speed>17.5</speed>
				</extensions>
			</trkpt>
			<trkpt lat="53.28291131" lon="-8.9260857">
				<ele>68.0</ele>
				<time>2014-08-17T17:33:56Z</time>
				<extensions>
					<speed>17.5</speed>
				</extensions>
			</trkpt>
			<trkpt lat="53.28306933" lon="-8.92610131">
				<ele>68.0</ele>
				<time>2014-08-17T17:33:57Z</time>
				<extensions>
					<speed>17.5</speed>
				</extensions>
			</trkpt>
			<trkpt lat="53.28322455" lon="-8.92609768">
				<ele>68.0</ele>
				<time>2014-08-17T17:33:58Z</time>
				<extensions>
					<speed>17.5</speed>
				</extensions>
			</trkpt>
			<trkpt lat="53.2833802" lon="-8.92609455">
				<ele>68.0</ele>
				<time>2014-08-17T17:33:59Z</time>
				<extensions>
					<speed>17.25</speed>
				</extensions>
			</trkpt>
			<trkpt lat="53.28353702" lon="-8.92609485">
				<ele>68.0</ele>
				<time>2014-08-17T17:34:00Z</time>
				<extensions>
					<speed>17.25</speed>
				</extensions>
			</trkpt>
			<trkpt lat="53.28369579" lon="-8.92608611">
				<ele>68.0</ele>
				<time>2014-08-17T17:34:01Z</time>
				<extensions>
					<speed>17.25</speed>
				</extensions>
			</trkpt>
			<trkpt lat="53.28385275" lon="-8.92606744">
				<ele>68.0</ele>
				<time>2014-08-17T17:34:02Z</time>
				<extensions>
					<speed>17.25</speed>
				</extensions>
			</trkpt>
			<trkpt lat="53.28400347" lon="-8.92604959">
				<ele>69.0</ele>
				<time>2014-08-17T17:34:03Z</time>
				<extensions>
					<speed>16.5</speed>
				</extensions>
			</trkpt>
			<trkpt lat="53.28416037" lon="-8.92601163">
				<ele>69.0</ele>
				<time>2014-08-17T17:34:04Z</time>
				<extensions>
					<speed>17.5</speed>
				</extensions>
			</trkpt>
			<trkpt lat="53.28431413" lon="-8.92596347">
				<ele>69.0</ele>
				<time>2014-08-17T17:34:05Z</time>
				<extensions>
					<speed>17.75</speed>
				</extensions>
			</trkpt>
			<trkpt lat="53.28447126" lon="-8.92590836">
				<ele>69.0</ele>
				<time>2014-08-17T17:34:06Z</time>
				<extensions>
					<speed>17.75</speed>
				</extensions>
			</trkpt>
			<trkpt lat="53.28462839" lon="-8.92585326">
				<ele>69.0</ele>
				<time>2014-08-17T17:34:07Z</time>
				<extensions>
					<speed>17.75</speed>
				</extensions>
			</trkpt>
			<trkpt lat="53.28478636" lon="-8.92573615">
				<ele>68.0</ele>
				<time>2014-08-17T17:34:08Z</time>
				<extensions>
					<speed>18.75</speed>
				</extensions>
			</trkpt>
			<trkpt lat="53.28495143" lon="-8.92565366">
				<ele>70.0</ele>
				<time>2014-08-17T17:34:09Z</time>
				<extensions>
					<speed>19.25</speed>
				</extensions>
			</trkpt>
			<trkpt lat="53.28511336" lon="-8.925556">
				<ele>70.0</ele>
				<time>2014-08-17T17:34:10Z</time>
				<extensions>
					<speed>19.5</speed>
				</extensions>
			</trkpt>
			<trkpt lat="53.28527193" lon="-8.92545524">
				<ele>69.0</ele>
				<time>2014-08-17T17:34:11Z</time>
				<extensions>
					<speed>20.0</speed>
				</extensions>
			</trkpt>
			<trkpt lat="53.28544048" lon="-8.92534709">
				<ele>69.0</ele>
				<time>2014-08-17T17:34:12Z</time>
				<extensions>
					<speed>20.25</speed>
				</extensions>
			</trkpt>
			<trkpt lat="53.28560771" lon="-8.92522732">
				<ele>68.0</ele>
				<time>2014-08-17T17:34:13Z</time>
				<extensions>
					<speed>20.5</speed>
				</extensions>
			</trkpt>
			<trkpt lat="53.28577348" lon="-8.92511033">
				<ele>68.0</ele>
				<time>2014-08-17T17:34:14Z</time>
				<extensions>
					<speed>20.75</speed>
				</extensions>
			</trkpt>
			<trkpt lat="53.28595817" lon="-8.92499997">
				<ele>68.0</ele>
				<time>2014-08-17T17:34:15Z</time>
				<extensions>
					<speed>21.0</speed>
				</extensions>
			</trkpt>
			<trkpt lat="53.28614374" lon="-8.92486994">
				<ele>68.0</ele>
				<time>2014-08-17T17:34:16Z</time>
				<extensions>
					<speed>21.5</speed>
				</extensions>
			</trkpt>
			<trkpt lat="53.28631668" lon="-8.92474302">
				<ele>66.0</ele>
				<time>2014-08-17T17:34:17Z</time>
				<extensions>
					<speed>21.5</speed>
				</extensions>
			</trkpt>
			<trkpt lat="53.28649937" lon="-8.92463162">
				<ele>65.0</ele>
				<time>2014-08-17T17:34:18Z</time>
				<extensions>
					<speed>21.75</speed>
				</extensions>
			</trkpt>
			<trkpt lat="53.28668702" lon="-8.92453501">
				<ele>62.0</ele>
				<time>2014-08-17T17:34:19Z</time>
				<extensions>
					<speed>22.0</speed>
				</extensions>
			</trkpt>
			<trkpt lat="53.28688201" lon="-8.92445161">
				<ele>62.0</ele>
				<time>2014-08-17T17:34:20Z</time>
				<extensions>
					<speed>22.25</speed>
				</extensions>
			</trkpt>
			<trkpt lat="53.28707843" lon="-8.92438506">
				<ele>62.0</ele>
				<time>2014-08-17T17:34:21Z</time>
				<extensions>
					<speed>22.25</speed>
				</extensions>
			</trkpt>
			<trkpt lat="53.28727751" lon="-8.92431212">
				<ele>62.0</ele>
				<time>2014-08-17T17:34:22Z</time>
				<extensions>
					<speed>22.25</speed>
				</extensions>
			</trkpt>
			<trkpt lat="53.28747601" lon="-8.92425436">
				<ele>62.0</ele>
				<time>2014-08-17T17:34:23Z</time>
				<extensions>
					<speed>22.25</speed>
				</extensions>
			</trkpt>
			<trkpt lat="53.28767469" lon="-8.92420806">
				<ele>62.0</ele>
				<time>2014-08-17T17:34:24Z</time>
				<extensions>
					<speed>22.25</speed>
				</extensions>
			</trkpt>
			<trkpt lat="53.28787258" lon="-8.92415326">
				<ele>62.0</ele>
				<time>2014-08-17T17:34:25Z</time>
				<extensions>
					<speed>21.75</speed>
				</extensions>
			</trkpt>
			<trkpt lat="53.28806683" lon="-8.92410888">
				<ele>63.0</ele>
				<time>2014-08-17T17:34:26Z</time>
				<extensions>
					<speed>22.0</speed>
				</extensions>
			</trkpt>
			<trkpt lat="53.28826581" lon="-8.92408346">
				<ele>64.0</ele>
				<time>2014-08-17T17:34:27Z</time>
				<extensions>
					<speed>22.0</speed>
				</extensions>
			</trkpt>
			<trkpt lat="53.28846072" lon="-8.92405157">
				<ele>65.0</ele>
				<time>2014-08-17T17:34:28Z</time>
				<extensions>
					<speed>21.75</speed>
				</extensions>
			</trkpt>
			<trkpt lat="53.28865263" lon="-8.92402411">
				<ele>65.0</ele>
				<time>2014-08-17T17:34:29Z</time>
				<extensions>
					<speed>21.75</speed>
				</extensions>
			</trkpt>
			<trkpt lat="53.2888398" lon="-8.92399519">
				<ele>65.0</ele>
				<time>2014-08-17T17:34:30Z</time>
				<extensions>
					<speed>21.5</speed>
				</extensions>
			</trkpt>
			<trkpt lat="53.289037" lon="-8.92395939">
				<ele>65.0</ele>
				<time>2014-08-17T17:34:31Z</time>
				<extensions>
					<speed>21.75</speed>
				</extensions>
			</trkpt>
			<trkpt lat="53.2892358" lon="-8.92393305">
				<ele>65.0</ele>
				<time>2014-08-17T17:34:32Z</time>
				<extensions>
					<speed>21.5</speed>
				</extensions>
			</trkpt>
			<trkpt lat="53.28942675" lon="-8.92389821">
				<ele>64.0</ele>
				<time>2014-08-17T17:34:33Z</time>
				<extensions>
					<speed>21.5</speed>
				</extensions>
			</trkpt>
			<trkpt lat="53.28961919" lon="-8.92386599">
				<ele>64.0</ele>
				<time>2014-08-17T17:34:34Z</time>
				<extensions>
					<speed>21.25</speed>
				</extensions>
			</trkpt>
			<trkpt lat="53.28980607" lon="-8.92383345">
				<ele>65.0</ele>
				<time>2014-08-17T17:34:35Z</time>
				<extensions>
					<speed>21.0</speed>
				</extensions>
			</trkpt>
			<trkpt lat="53.28999726" lon="-8.92380885">
				<ele>65.0</ele>
				<time>2014-08-17T17:34:36Z</time>
				<extensions>
					<speed>21.25</speed>
				</extensions>
			</trkpt>
			<trkpt lat="53.29018718" lon="-8.92378383">
				<ele>66.0</ele>
				<time>2014-08-17T17:34:37Z</time>
				<extensions>
					<speed>21.0</speed>
				</extensions>
			</trkpt>
			<trkpt lat="53.29037631" lon="-8.9237565">
				<ele>67.0</ele>
				<time>2014-08-17T17:34:38Z</time>
				<extensions>
					<speed>20.75</speed>
				</extensions>
			</trkpt>
			<trkpt lat="53.29056945" lon="-8.9237202">
				<ele>66.0</ele>
				<time>2014-08-17T17:34:39Z</time>
				<extensions>
					<speed>20.75</speed>
				</extensions>
			</trkpt>
			<trkpt lat="53.29075951" lon="-8.92368008">
				<ele>66.0</ele>
				<time>2014-08-17T17:34:40Z</time>
				<extensions>
					<speed>20.5</speed>
				</extensions>
			</trkpt>
			<trkpt lat="53.29094229" lon="-8.9236451">
				<ele>65.0</ele>
				<time>2014-08-17T17:34:41Z</time>
				<extensions>
					<speed>20.25</speed>
				</extensions>
			</trkpt>
			<trkpt lat="53.2911236" lon="-8.92361163">
				<ele>65.0</ele>
				<time>2014-08-17T17:34:42Z</time>
				<extensions>
					<speed>20.25</speed>
				</extensions>
			</trkpt>
			<trkpt lat="53.29129556" lon="-8.92358423">
				<ele>66.0</ele>
				<time>2014-08-17T17:34:43Z</time>
				<extensions>
					<speed>20.25</speed>
				</extensions>
			</trkpt>
			<trkpt lat="53.29148124" lon="-8.92355641">
				<ele>67.0</ele>
				<time>2014-08-17T17:34:44Z</time>
				<extensions>
					<speed>20.0</speed>
				</extensions>
			</trkpt>
			<trkpt lat="53.29165626" lon="-8.92352999">
				<ele>67.0</ele>
				<time>2014-08-17T17:34:45Z</time>
				<extensions>
					<speed>20.0</speed>
				</extensions>
			</trkpt>
			<trkpt lat="53.29183364" lon="-8.92350012">
				<ele>68.0</ele>
				<time>2014-08-17T17:34:46Z</time>
				<extensions>
					<speed>19.75</speed>
				</extensions>
			</trkpt>
			<trkpt lat="53.29201372" lon="-8.92346269">
				<ele>68.0</ele>
				<time>2014-08-17T17:34:47Z</time>
				<extensions>
					<speed>19.75</speed>
				</extensions>
			</trkpt>
			<trkpt lat="53.29219373" lon="-8.92342834">
				<ele>68.0</ele>
				<time>2014-08-17T17:34:48Z</time>
				<extensions>
					<speed>19.5</speed>
				</extensions>
			</trkpt>
			<trkpt lat="53.29236846" lon="-8.92340948">
				<ele>67.0</ele>
				<time>2014-08-17T17:34:49Z</time>
				<extensions>
					<speed>19.25</speed>
				</extensions>
			</trkpt>
			<trkpt lat="53.29253624" lon="-8.92338056">
				<ele>68.0</ele>
				<time>2014-08-17T17:34:50Z</time>
				<extensions>
					<speed>19.0</speed>
				</extensions>
			</trkpt>
			<trkpt lat="53.29270497" lon="-8.92336146">
				<ele>68.0</ele>
				<time>2014-08-17T17:34:51Z</time>
				<extensions>
					<speed>18.75</speed>
				</extensions>
			</trkpt>
			<trkpt lat="53.29287599" lon="-8.92335524">
				<ele>69.0</ele>
				<time>2014-08-17T17:34:52Z</time>
				<extensions>
					<speed>18.25</speed>
				</extensions>
			</trkpt>
			<trkpt lat="53.29304368" lon="-8.92334681">
				<ele>69.0</ele>
				<time>2014-08-17T17:34:53Z</time>
				<extensions>
					<speed>18.25</speed>
				</extensions>
			</trkpt>
			<trkpt lat="53.29320728" lon="-8.92336546">
				<ele>69.0</ele>
				<time>2014-08-17T17:34:54Z</time>
				<extensions>
					<speed>18.25</speed>
				</extensions>
			</trkpt>
			<trkpt lat="53.29336841" lon="-8.9233924">
				<ele>70.0</ele>
				<time>2014-08-17T17:34:55Z</time>
				<extensions>
					<speed>17.75</speed>
				</extensions>
			</trkpt>
			<trkpt lat="53.29352481" lon="-8.92343164">
				<ele>70.0</ele>
				<time>2014-08-17T17:34:56Z</time>
				<extensions>
					<speed>17.75</speed>
				</extensions>
			</trkpt>
			<trkpt lat="53.29367972" lon="-8.9234725">
				<ele>70.0</ele>
				<time>2014-08-17T17:34:57Z</time>
				<extensions>
					<speed>17.25</speed>
				</extensions>
			</trkpt>
			<trkpt lat="53.29382949" lon="-8.92351347">
				<ele>70.0</ele>
				<time>2014-08-17T17:34:58Z</time>
				<extensions>
					<speed>17.0</speed>
				</extensions>
			</trkpt>
			<trkpt lat="53.29396869" lon="-8.92355333">
				<ele>71.0</ele>
				<time>2014-08-17T17:34:59Z</time>
				<extensions>
					<speed>15.5</speed>
				</extensions>
			</trkpt>
			<trkpt lat="53.29409507" lon="-8.92359474">
				<ele>71.0</ele>
				<time>2014-08-17T17:35:00Z</time>
				<extensions>
					<speed>13.5</speed>
				</extensions>
			</trkpt>
			<trkpt lat="53.29419145" lon="-8.92362798">
				<ele>70.0</ele>
				<time>2014-08-17T17:35:01Z</time>
				<extensions>
					<speed>11.25</speed>
				</extensions>
			</trkpt>
			<trkpt lat="53.29426506" lon="-8.92368193">
				<ele>70.0</ele>
				<time>2014-08-17T17:35:02Z</time>
				<extensions>
					<speed>8.25</speed>
				</extensions>
			</trkpt>
			<trkpt lat="53.29431393" lon="-8.92373404">
				<ele>70.0</ele>
				<time>2014-08-17T17:35:03Z</time>
				<extensions>
					<speed>5.25</speed>
				</extensions>
			</trkpt>
			<trkpt lat="53.29432635" lon="-8.92378338">
				<ele>68.0</ele>
				<time>2014-08-17T17:35:04Z</time>
				<extensions>
					<speed>3.75</speed>
				</extensions>
			</trkpt>
			<trkpt lat="53.29434116" lon="-8.92381664">
				<ele>68.0</ele>
				<time>2014-08-17T17:35:05Z</time>
				<extensions>
					<speed>3.0</speed>
				</extensions>
			</trkpt>
			<trkpt lat="53.29436471" lon="-8.92386265">
				<ele>69.0</ele>
				<time>2014-08-17T17:35:06Z</time>
				<extensions>
					<speed>3.75</speed>
				</extensions>
			</trkpt>
			<trkpt lat="53.29439848" lon="-8.92392231">
				<ele>69.0</ele>
				<time>2014-08-17T17:35:07Z</time>
				<extensions>
					<speed>5.5</speed>
				</extensions>
			</trkpt>
			<trkpt lat="53.29443662" lon="-8.9239805">
				<ele>69.0</ele>
				<time>2014-08-17T17:35:08Z</time>
				<extensions>
					<speed>6.25</speed>
				</extensions>
			</trkpt>
			<trkpt lat="53.29448133" lon="-8.92404231">
				<ele>69.0</ele>
				<time>2014-08-17T17:35:09Z</time>
				<extensions>
					<speed>7.25</speed>
				</extensions>
			</trkpt>
			<trkpt lat="53.29454524" lon="-8.92409463">
				<ele>69.0</ele>
				<time>2014-08-17T17:35:10Z</time>
				<extensions>
					<speed>8.75</speed>
				</extensions>
			</trkpt>
			<trkpt lat="53.29463511" lon="-8.924107">
				<ele>69.0</ele>
				<time>2014-08-17T17:35:11Z</time>
				<extensions>
					<speed>9.5</speed>
				</extensions>
			</trkpt>
			<trkpt lat="53.29471736" lon="-8.92408887">
				<ele>70.0</ele>
				<time>2014-08-17T17:35:12Z</time>
				<extensions>
					<speed>9.25</speed>
				</extensions>
			</trkpt>
			<trkpt lat="53.29480314" lon="-8.924055">
				<ele>70.0</ele>
				<time>2014-08-17T17:35:13Z</time>
				<extensions>
					<speed>10.25</speed>
				</extensions>
			</trkpt>
			<trkpt lat="53.29489944" lon="-8.92401657">
				<ele>71.0</ele>
				<time>2014-08-17T17:35:14Z</time>
				<extensions>
					<speed>11.5</speed>
				</extensions>
			</trkpt>
			<trkpt lat="53.29500495" lon="-8.92399487">
				<ele>72.0</ele>
				<time>2014-08-17T17:35:15Z</time>
				<extensions>
					<speed>11.75</speed>
				</extensions>
			</trkpt>
			<trkpt lat="53.29511501" lon="-8.92399606">
				<ele>72.0</ele>
				<time>2014-08-17T17:35:16Z</time>
				<extensions>
					<speed>12.0</speed>
				</extensions>
			</trkpt>
			<trkpt lat="53.2952249" lon="-8.92399398">
				<ele>73.0</ele>
				<time>2014-08-17T17:35:17Z</time>
				<extensions>
					<speed>12.25</speed>
				</extensions>
			</trkpt>
			<trkpt lat="53.29533636" lon="-8.92399833">
				<ele>73.0</ele>
				<time>2014-08-17T17:35:18Z</time>
				<extensions>
					<speed>12.0</speed>
				</extensions>
			</trkpt>
			<trkpt lat="53.29544905" lon="-8.92400896">
				<ele>73.0</ele>
				<time>2014-08-17T17:35:19Z</time>
				<extensions>
					<speed>12.0</speed>
				</extensions>
			</trkpt>
			<trkpt lat="53.29554837" lon="-8.92402302">
				<ele>73.0</ele>
				<time>2014-08-17T17:35:20Z</time>
				<extensions>
					<speed>10.75</speed>
				</extensions>
			</trkpt>
			<trkpt lat="53.29563813" lon="-8.92405086">
				<ele>73.0</ele>
				<time>2014-08-17T17:35:21Z</time>
				<extensions>
					<speed>9.25</speed>
				</extensions>
			</trkpt>
			<trkpt lat="53.29570684" lon="-8.92410361">
				<ele>73.0</ele>
				<time>2014-08-17T17:35:22Z</time>
				<extensions>
					<speed>9.0</speed>
				</extensions>
			</trkpt>
			<trkpt lat="53.29577383" lon="-8.92417044">
				<ele>73.0</ele>
				<time>2014-08-17T17:35:23Z</time>
				<extensions>
					<speed>8.75</speed>
				</extensions>
			</trkpt>
			<trkpt lat="53.29584348" lon="-8.92423858">
				<ele>73.0</ele>
				<time>2014-08-17T17:35:24Z</time>
				<extensions>
					<speed>9.0</speed>
				</extensions>
			</trkpt>
			<trkpt lat="53.29592986" lon="-8.92426743">
				<ele>73.0</ele>
				<time>2014-08-17T17:35:25Z</time>
				<extensions>
					<speed>9.25</speed>
				</extensions>
			</trkpt>
			<trkpt lat="53.29601525" lon="-8.92424766">
				<ele>72.0</ele>
				<time>2014-08-17T17:35:26Z</time>
				<extensions>
					<speed>9.75</speed>
				</extensions>
			</trkpt>
			<trkpt lat="53.29610167" lon="-8.9241782">
				<ele>71.0</ele>
				<time>2014-08-17T17:35:27Z</time>
				<extensions>
					<speed>10.5</speed>
				</extensions>
			</trkpt>
			<trkpt lat="53.29618456" lon="-8.92408407">
				<ele>72.0</ele>
				<time>2014-08-17T17:35:28Z</time>
				<extensions>
					<speed>11.5</speed>
				</extensions>
			</trkpt>
			<trkpt lat="53.29628077" lon="-8.92399362">
				<ele>71.0</ele>
				<time>2014-08-17T17:35:29Z</time>
				<extensions>
					<speed>12.5</speed>
				</extensions>
			</trkpt>
			<trkpt lat="53.29638701" lon="-8.92392616">
				<ele>71.0</ele>
				<time>2014-08-17T17:35:30Z</time>
				<extensions>
					<speed>13.25</speed>
				</extensions>
			</trkpt>
			<trkpt lat="53.29651334" lon="-8.92387837">
				<ele>70.0</ele>
				<time>2014-08-17T17:35:31Z</time>
				<extensions>
					<speed>14.5</speed>
				</extensions>
			</trkpt>
			<trkpt lat="53.29664441" lon="-8.92383525">
				<ele>70.0</ele>
				<time>2014-08-17T17:35:32Z</time>
				<extensions>
					<speed>15.25</speed>
				</extensions>
			</trkpt>
			<trkpt lat="53.29677577" lon="-8.92380011">
				<ele>70.0</ele>
				<time>2014-08-17T17:35:33Z</time>
				<extensions>
					<speed>16.0</speed>
				</extensions>
			</trkpt>
			<trkpt lat="53.29691556" lon="-8.92377561">
				<ele>70.0</ele>
				<time>2014-08-17T17:35:34Z</time>
				<extensions>
					<speed>16.5</speed>
				</extensions>
			</trkpt>
			<trkpt lat="53.2970694" lon="-8.92376582">
				<ele>70.0</ele>
				<time>2014-08-17T17:35:35Z</time>
				<extensions>
					<speed>17.5</speed>
				</extensions>
			</trkpt>
			<trkpt lat="53.29722431" lon="-8.92377688">
				<ele>69.0</ele>
				<time>2014-08-17T17:35:36Z</time>
				<extensions>
					<speed>17.5</speed>
				</extensions>
			</trkpt>
			<trkpt lat="53.29738439" lon="-8.92379963">
				<ele>70.0</ele>
				<time>2014-08-17T17:35:37Z</time>
				<extensions>
					<speed>18.0</speed>
				</extensions>
			</trkpt>
			<trkpt lat="53.29754813" lon="-8.9238556">
				<ele>70.0</ele>
				<time>2014-08-17T17:35:38Z</time>
				<extensions>
					<speed>18.25</speed>
				</extensions>
			</trkpt>
			<trkpt lat="53.29770558" lon="-8.92393357">
				<ele>69.0</ele>
				<time>2014-08-17T17:35:39Z</time>
				<extensions>
					<speed>18.25</speed>
				</extensions>
			</trkpt>
			<trkpt lat="53.29786561" lon="-8.9240142">
				<ele>69.0</ele>
				<time>2014-08-17T17:35:40Z</time>
				<extensions>
					<speed>18.5</speed>
				</extensions>
			</trkpt>
			<trkpt lat="53.29802627" lon="-8.92409767">
				<ele>70.0</ele>
				<time>2014-08-17T17:35:41Z</time>
				<extensions>
					<speed>18.5</speed>
				</extensions>
			</trkpt>
			<trkpt lat="53.29818289" lon="-8.92418197">
				<ele>69.0</ele>
				<time>2014-08-17T17:35:42Z</time>
				<extensions>
					<speed>18.75</speed>
				</extensions>
			</trkpt>
			<trkpt lat="53.2983447" lon="-8.9242772">
				<ele>69.0</ele>
				<time>2014-08-17T17:35:43Z</time>
				<extensions>
					<speed>19.0</speed>
				</extensions>
			</trkpt>
			<trkpt lat="53.29851051" lon="-8.92437009">
				<ele>69.0</ele>
				<time>2014-08-17T17:35:44Z</time>
				<extensions>
					<speed>19.0</speed>
				</extensions>
			</trkpt>
			<trkpt lat="53.29867047" lon="-8.92447808">
				<ele>68.0</ele>
				<time>2014-08-17T17:35:45Z</time>
				<extensions>
					<speed>19.25</speed>
				</extensions>
			</trkpt>
			<trkpt lat="53.29883773" lon="-8.92458153">
				<ele>68.0</ele>
				<time>2014-08-17T17:35:46Z</time>
				<extensions>
					<speed>19.75</speed>
				</extensions>
			</trkpt>
			<trkpt lat="53.29900533" lon="-8.92469417">
				<ele>68.0</ele>
				<time>2014-08-17T17:35:47Z</time>
				<extensions>
					<speed>19.75</speed>
				</extensions>
			</trkpt>
			<trkpt lat="53.29917085" lon="-8.92480036">
				<ele>69.0</ele>
				<time>2014-08-17T17:35:48Z</time>
				<extensions>
					<speed>20.0</speed>
				</extensions>
			</trkpt>
			<trkpt lat="53.29933854" lon="-8.92490796">
				<ele>68.0</ele>
				<time>2014-08-17T17:35:49Z</time>
				<extensions>
					<speed>20.25</speed>
				</extensions>
			</trkpt>
			<trkpt lat="53.29950937" lon="-8.9250207">
				<ele>68.0</ele>
				<time>2014-08-17T17:35:50Z</time>
				<extensions>
					<speed>20.25</speed>
				</extensions>
			</trkpt>
			<trkpt lat="53.29967975" lon="-8.92513732">
				<ele>68.0</ele>
				<time>2014-08-17T17:35:51Z</time>
				<extensions>
					<speed>20.25</speed>
				</extensions>
			</trkpt>
			<trkpt lat="53.29984672" lon="-8.92526498">
				<ele>68.0</ele>
				<time>2014-08-17T17:35:52Z</time>
				<extensions>
					<speed>20.5</speed>
				</extensions>
			</trkpt>
			<trkpt lat="53.30001401" lon="-8.9253863">
				<ele>69.0</ele>
				<time>2014-08-17T17:35:53Z</time>
				<extensions>
					<speed>20.25</speed>
				</extensions>
			</trkpt>
			<trkpt lat="53.3001798" lon="-8.92550853">
				<ele>70.0</ele>
				<time>2014-08-17T17:35:54Z</time>
				<extensions>
					<speed>20.0</speed>
				</extensions>
			</trkpt>
			<trkpt lat="53.30034971" lon="-8.92563457">
				<ele>70.0</ele>
				<time>2014-08-17T17:35:55Z</time>
				<extensions>
					<speed>20.0</speed>
				</extensions>
			</trkpt>
			<trkpt lat="53.30051684" lon="-8.92575682">
				<ele>70.0</ele>
				<time>2014-08-17T17:35:56Z</time>
				<extensions>
					<speed>20.0</speed>
				</extensions>
			</trkpt>
			<trkpt lat="53.30068127" lon="-8.92589067">
				<ele>71.0</ele>
				<time>2014-08-17T17:35:57Z</time>
				<extensions>
					<speed>20.0</speed>
				</extensions>
			</trkpt>
			<trkpt lat="53.3008432" lon="-8.92602108">
				<ele>71.0</ele>
				<time>2014-08-17T17:35:58Z</time>
				<extensions>
					<speed>20.0</speed>
				</extensions>
			</trkpt>
			<trkpt lat="53.30099248" lon="-8.92618489">
				<ele>71.0</ele>
				<time>2014-08-17T17:35:59Z</time>
				<extensions>
					<speed>20.0</speed>
				</extensions>
			</trkpt>
			<trkpt lat="53.30114222" lon="-8.92633678">
				<ele>71.0</ele>
				<time>2014-08-17T17:36:00Z</time>
				<extensions>
					<speed>19.75</speed>
				</extensions>
			</trkpt>
			<trkpt lat="53.30128827" lon="-8.92649682">
				<ele>71.0</ele>
				<time>2014-08-17T17:36:01Z</time>
				<extensions>
					<speed>20.0</speed>
				</extensions>
			</trkpt>
			<trkpt lat="53.30142934" lon="-8.92668614">
				<ele>71.0</ele>
				<time>2014-08-17T17:36:02Z</time>
				<extensions>
					<speed>20.25</speed>
				</extensions>
			</trkpt>
			<trkpt lat="53.30156181" lon="-8.92688838">
				<ele>70.0</ele>
				<time>2014-08-17T17:36:03Z</time>
				<extensions>
					<speed>20.25</speed>
				</extensions>
			</trkpt>
			<trkpt lat="53.30169412" lon="-8.92709123">
				<ele>70.0</ele>
				<time>2014-08-17T17:36:04Z</time>
				<extensions>
					<speed>20.25</speed>
				</extensions>
			</trkpt>
			<trkpt lat="53.30182086" lon="-8.92730752">
				<ele>70.0</ele>
				<time>2014-08-17T17:36:05Z</time>
				<extensions>
					<speed>20.5</speed>
				</extensions>
			</trkpt>
			<trkpt lat="53.30194553" lon="-8.92751163">
				<ele>70.0</ele>
				<time>2014-08-17T17:36:06Z</time>
				<extensions>
					<speed>20.5</speed>
				</extensions>
			</trkpt>
			<trkpt lat="53.30206805" lon="-8.92775427">
				<ele>70.0</ele>
				<time>2014-08-17T17:36:07Z</time>
				<extensions>
					<speed>20.5</speed>
				</extensions>
			</trkpt>
			<trkpt lat="53.30218507" lon="-8.92798829">
				<ele>69.0</ele>
				<time>2014-08-17T17:36:08Z</time>
				<extensions>
					<speed>20.5</speed>
				</extensions>
			</trkpt>
			<trkpt lat="53.3022866" lon="-8.92823566">
				<ele>70.0</ele>
				<time>2014-08-17T17:36:09Z</time>
				<extensions>
					<speed>20.5</speed>
				</extensions>
			</trkpt>
			<trkpt lat="53.30238519" lon="-8.92849743">
				<ele>70.0</ele>
				<time>2014-08-17T17:36:10Z</time>
				<extensions>
					<speed>20.5</speed>
				</extensions>
			</trkpt>
			<trkpt lat="53.30248448" lon="-8.92876906">
				<ele>69.0</ele>
				<time>2014-08-17T17:36:11Z</time>
				<extensions>
					<speed>20.25</speed>
				</extensions>
			</trkpt>
			<trkpt lat="53.30258508" lon="-8.92902662">
				<ele>70.0</ele>
				<time>2014-08-17T17:36:12Z</time>
				<extensions>
					<speed>20.5</speed>
				</extensions>
			</trkpt>
			<trkpt lat="53.30268292" lon="-8.92930041">
				<ele>73.0</ele>
				<time>2014-08-17T17:36:13Z</time>
				<extensions>
					<speed>20.25</speed>
				</extensions>
			</trkpt>
			<trkpt lat="53.30277751" lon="-8.9295543">
				<ele>73.0</ele>
				<time>2014-08-17T17:36:14Z</time>
				<extensions>
					<speed>20.0</speed>
				</extensions>
			</trkpt>
			<trkpt lat="53.30287395" lon="-8.92979924">
				<ele>73.0</ele>
				<time>2014-08-17T17:36:15Z</time>
				<extensions>
					<speed>19.75</speed>
				</extensions>
			</trkpt>
			<trkpt lat="53.30297633" lon="-8.93003471">
				<ele>73.0</ele>
				<time>2014-08-17T17:36:16Z</time>
				<extensions>
					<speed>19.25</speed>
				</extensions>
			</trkpt>
			<trkpt lat="53.30306978" lon="-8.93026965">
				<ele>71.0</ele>
				<time>2014-08-17T17:36:17Z</time>
				<extensions>
					<speed>19.0</speed>
				</extensions>
			</trkpt>
			<trkpt lat="53.30317222" lon="-8.93047938">
				<ele>72.0</ele>
				<time>2014-08-17T17:36:18Z</time>
				<extensions>
					<speed>18.75</speed>
				</extensions>
			</trkpt>
			<trkpt lat="53.3032807" lon="-8.9306931">
				<ele>72.0</ele>
				<time>2014-08-17T17:36:19Z</time>
				<extensions>
					<speed>18.25</speed>
				</extensions>
			</trkpt>
			<trkpt lat="53.3033899" lon="-8.93089328">
				<ele>72.0</ele>
				<time>2014-08-17T17:36:20Z</time>
				<extensions>
					<speed>17.75</speed>
				</extensions>
			</trkpt>
			<trkpt lat="53.30350396" lon="-8.93107979">
				<ele>72.0</ele>
				<time>2014-08-17T17:36:21Z</time>
				<extensions>
					<speed>17.5</speed>
				</extensions>
			</trkpt>
			<trkpt lat="53.30362205" lon="-8.9312543">
				<ele>72.0</ele>
				<time>2014-08-17T17:36:22Z</time>
				<extensions>
					<speed>17.25</speed>
				</extensions>
			</trkpt>
			<trkpt lat="53.30374191" lon="-8.93141332">
				<ele>73.0</ele>
				<time>2014-08-17T17:36:23Z</time>
				<extensions>
					<speed>16.5</speed>
				</extensions>
			</trkpt>
			<trkpt lat="53.30385302" lon="-8.93155404">
				<ele>72.0</ele>
				<time>2014-08-17T17:36:24Z</time>
				<extensions>
					<speed>15.25</speed>
				</extensions>
			</trkpt>
			<trkpt lat="53.30395256" lon="-8.93168099">
				<ele>73.0</ele>
				<time>2014-08-17T17:36:25Z</time>
				<extensions>
					<speed>13.5</speed>
				</extensions>
			</trkpt>
			<trkpt lat="53.304045" lon="-8.93179246">
				<ele>73.0</ele>
				<time>2014-08-17T17:36:26Z</time>
				<extensions>
					<speed>11.5</speed>
				</extensions>
			</trkpt>
			<trkpt lat="53.30411636" lon="-8.93187585">
				<ele>74.0</ele>
				<time>2014-08-17T17:36:27Z</time>
				<extensions>
					<speed>9.25</speed>
				</extensions>
			</trkpt>
			<trkpt lat="53.30417487" lon="-8.93194285">
				<ele>74.0</ele>
				<time>2014-08-17T17:36:28Z</time>
				<extensions>
					<speed>7.25</speed>
				</extensions>
			</trkpt>
			<trkpt lat="53.30422086" lon="-8.9319929">
				<ele>74.0</ele>
				<time>2014-08-17T17:36:29Z</time>
				<extensions>
					<speed>5.25</speed>
				</extensions>
			</trkpt>
			<trkpt lat="53.30425205" lon="-8.93203412">
				<ele>76.0</ele>
				<time>2014-08-17T17:36:30Z</time>
				<extensions>
					<speed>4.0</speed>
				</extensions>
			</trkpt>
			<trkpt lat="53.30428132" lon="-8.93206669">
				<ele>76.0</ele>
				<time>2014-08-17T17:36:31Z</time>
				<extensions>
					<speed>4.0</speed>
				</extensions>
			</trkpt>
			<trkpt lat="53.3042862" lon="-8.9320679">
				<ele>77.0</ele>
				<time>2014-08-17T17:36:32Z</time>
				<extensions>
					<speed>1.0</speed>
				</extensions>
			</trkpt>
			<trkpt lat="53.3042942" lon="-8.93207681">
				<ele>77.0</ele>
				<time>2014-08-17T17:36:33Z</time>
				<extensions>
					<speed>1.0</speed>
				</extensions>
			</trkpt>
			<trkpt lat="53.30429077" lon="-8.93206614">
				<ele>73.0</ele>
				<time>2014-08-17T17:36:34Z</time>
				<extensions>
					<speed>0.0</speed>
				</extensions>
			</trkpt>
			<trkpt lat="53.30428988" lon="-8.93206465">
				<ele>72.0</ele>
				<time>2014-08-17T17:36:35Z</time>
				<extensions>
					<speed>0.0</speed>
				</extensions>
			</trkpt>
			<trkpt lat="53.30428988" lon="-8.93206465">
				<ele>72.0</ele>
				<time>2014-08-17T17:36:36Z</time>
				<extensions>
					<speed>0.0</speed>
				</extensions>
			</trkpt>
			<trkpt lat="53.30428795" lon="-8.93206859">
				<ele>72.0</ele>
				<time>2014-08-17T17:36:37Z</time>
				<extensions>
					<speed>0.0</speed>
				</extensions>
			</trkpt>
			<trkpt lat="53.30428795" lon="-8.93206859">
				<ele>72.0</ele>
				<time>2014-08-17T17:36:38Z</time>
				<extensions>
					<speed>0.0</speed>
				</extensions>
			</trkpt>
			<trkpt lat="53.30428355" lon="-8.93207028">
				<ele>73.0</ele>
				<time>2014-08-17T17:36:39Z</time>
				<extensions>
					<speed>0.0</speed>
				</extensions>
			</trkpt>
			<trkpt lat="53.30428275" lon="-8.93207082">
				<ele>73.0</ele>
				<time>2014-08-17T17:36:40Z</time>
				<extensions>
					<speed>0.0</speed>
				</extensions>
			</trkpt>
			<trkpt lat="53.30427915" lon="-8.93207922">
				<ele>73.0</ele>
				<time>2014-08-17T17:36:41Z</time>
				<extensions>
					<speed>0.0</speed>
				</extensions>
			</trkpt>
			<trkpt lat="53.30427915" lon="-8.93207922">
				<ele>73.0</ele>
				<time>2014-08-17T17:36:42Z</time>
				<extensions>
					<speed>0.0</speed>
				</extensions>
			</trkpt>
			<trkpt lat="53.30427533" lon="-8.93208058">
				<ele>73.0</ele>
				<time>2014-08-17T17:36:43Z</time>
				<extensions>
					<speed>0.0</speed>
				</extensions>
			</trkpt>
		</trkseg>
	</trk>
</gpx>